<?xml version="1.0" encoding="UTF-8" standalone="yes"?>
<gpx
 xmlns="http://www.topografix.com/GPX/1/1"
 creator="OziExplorer Version 3956f - http://www.oziexplorer.com"
 version="1.1"
 xmlns:xsi="http://www.w3.org/2001/XMLSchema-instance"
 xsi:schemaLocation="http://www.topografix.com/GPX/1/1 http://www.topografix.com/GPX/1/1/gpx.xsd">
<metadata>
 <time>2024-09-25T08:53:00Z</time>
 <bounds minlat="41.915181" minlon="1.860273" maxlat="41.965274" maxlon="1.910587"/>
</metadata>
<trk>
 <name>Cal Marçal tècnic</name>
 <desc>RAID CAL MARÇAL tècnic</desc>
<trkseg>
<trkpt lat="41.9579810" lon="1.8820100">
<ele>409.194000</ele>
<time>2022-09-08T06:15:00.003Z</time>
</trkpt>
<trkpt lat="41.9580720" lon="1.8821050">
<ele>409.955994</ele>
<time>2024-09-25T07:41:52.601Z</time>
</trkpt>
<trkpt lat="41.9579670" lon="1.8824210">
<ele>405.597351</ele>
<time>2022-09-08T06:15:00.996Z</time>
</trkpt>
<trkpt lat="41.9578600" lon="1.8825670">
<ele>402.579865</ele>
<time>2024-09-25T07:40:47.585Z</time>
</trkpt>
<trkpt lat="41.9576810" lon="1.8826670">
<ele>398.617462</ele>
<time>2024-09-25T07:41:51.651Z</time>
</trkpt>
<trkpt lat="41.9575360" lon="1.8826210">
<ele>395.721863</ele>
<time>2024-09-25T07:40:49.045Z</time>
</trkpt>
<trkpt lat="41.9572800" lon="1.8821670">
<ele>390.814545</ele>
<time>2024-09-25T07:41:50.562Z</time>
</trkpt>
<trkpt lat="41.9571860" lon="1.8817830">
<ele>389.747742</ele>
<time>2024-09-25T07:40:50.411Z</time>
</trkpt>
<trkpt lat="41.9571100" lon="1.8813980">
<ele>390.387848</ele>
<time>2024-09-25T07:40:46.324Z</time>
</trkpt>
<trkpt lat="41.9570020" lon="1.8813760">
<ele>387.004547</ele>
<time>2024-09-25T07:40:55.646Z</time>
</trkpt>
<trkpt lat="41.9569460" lon="1.8812320">
<ele>387.797058</ele>
<time>2024-09-25T07:40:44.380Z</time>
</trkpt>
<trkpt lat="41.9568010" lon="1.8810890">
<ele>386.273041</ele>
<time>2024-09-25T07:40:54.005Z</time>
</trkpt>
<trkpt lat="41.9566730" lon="1.8809470">
<ele>386.120667</ele>
<time>2024-09-25T07:40:42.678Z</time>
</trkpt>
<trkpt lat="41.9564920" lon="1.8808050">
<ele>385.602478</ele>
<time>2024-09-25T07:40:52.890Z</time>
</trkpt>
<trkpt lat="41.9563290" lon="1.8806880">
<ele>385.815857</ele>
<time>2024-09-25T07:40:52.242Z</time>
</trkpt>
<trkpt lat="41.9560310" lon="1.8805670">
<ele>385.389130</ele>
<time>2022-09-08T06:46:21.000Z</time>
</trkpt>
<trkpt lat="41.9560040" lon="1.8805650">
<ele>385.236725</ele>
<time>2022-09-08T06:46:22.002Z</time>
</trkpt>
<trkpt lat="41.9559770" lon="1.8805790">
<ele>384.566132</ele>
<time>2022-09-08T06:46:22.996Z</time>
</trkpt>
<trkpt lat="41.9559580" lon="1.8806110">
<ele>383.286011</ele>
<time>2022-09-08T06:46:23.998Z</time>
</trkpt>
<trkpt lat="41.9559480" lon="1.8806450">
<ele>382.005859</ele>
<time>2022-09-08T06:46:25.000Z</time>
</trkpt>
<trkpt lat="41.9559360" lon="1.8806690">
<ele>381.091461</ele>
<time>2022-09-08T06:46:26.003Z</time>
</trkpt>
<trkpt lat="41.9559240" lon="1.8806830">
<ele>380.573273</ele>
<time>2022-09-08T06:46:26.996Z</time>
</trkpt>
<trkpt lat="41.9559100" lon="1.8806960">
<ele>380.055115</ele>
<time>2022-09-08T06:46:27.998Z</time>
</trkpt>
<trkpt lat="41.9558830" lon="1.8807140">
<ele>379.384552</ele>
<time>2022-09-08T06:46:29.001Z</time>
</trkpt>
<trkpt lat="41.9558580" lon="1.8807300">
<ele>378.805450</ele>
<time>2022-09-08T06:46:30.003Z</time>
</trkpt>
<trkpt lat="41.9558280" lon="1.8807470">
<ele>378.226318</ele>
<time>2022-09-08T06:46:30.996Z</time>
</trkpt>
<trkpt lat="41.9557890" lon="1.8807680">
<ele>377.616730</ele>
<time>2022-09-08T06:46:31.999Z</time>
</trkpt>
<trkpt lat="41.9557570" lon="1.8807880">
<ele>377.037598</ele>
<time>2022-09-08T06:46:33.001Z</time>
</trkpt>
<trkpt lat="41.9557280" lon="1.8808080">
<ele>376.519440</ele>
<time>2022-09-08T06:46:34.003Z</time>
</trkpt>
<trkpt lat="41.9556920" lon="1.8808310">
<ele>375.970795</ele>
<time>2022-09-08T06:46:34.997Z</time>
</trkpt>
<trkpt lat="41.9556520" lon="1.8808530">
<ele>375.574554</ele>
<time>2022-09-08T06:46:35.999Z</time>
</trkpt>
<trkpt lat="41.9556120" lon="1.8808660">
<ele>375.483124</ele>
<time>2022-09-08T06:46:37.001Z</time>
</trkpt>
<trkpt lat="41.9555720" lon="1.8808720">
<ele>375.696472</ele>
<time>2022-09-08T06:46:38.004Z</time>
</trkpt>
<trkpt lat="41.9555220" lon="1.8808640">
<ele>376.488953</ele>
<time>2022-09-08T06:46:38.997Z</time>
</trkpt>
<trkpt lat="41.9554650" lon="1.8808500">
<ele>377.647186</ele>
<time>2022-09-08T06:46:39.999Z</time>
</trkpt>
<trkpt lat="41.9554180" lon="1.8808410">
<ele>378.561615</ele>
<time>2022-09-08T06:46:41.002Z</time>
</trkpt>
<trkpt lat="41.9553710" lon="1.8808430">
<ele>378.774933</ele>
<time>2022-09-08T06:46:42.004Z</time>
</trkpt>
<trkpt lat="41.9553150" lon="1.8808500">
<ele>378.988342</ele>
<time>2022-09-08T06:46:42.997Z</time>
</trkpt>
<trkpt lat="41.9552690" lon="1.8808590">
<ele>379.110260</ele>
<time>2022-09-08T06:46:44.000Z</time>
</trkpt>
<trkpt lat="41.9552220" lon="1.8808700">
<ele>379.201660</ele>
<time>2022-09-08T06:46:45.002Z</time>
</trkpt>
<trkpt lat="41.9551830" lon="1.8808920">
<ele>378.927338</ele>
<time>2022-09-08T06:46:46.004Z</time>
</trkpt>
<trkpt lat="41.9551530" lon="1.8809220">
<ele>378.256805</ele>
<time>2022-09-08T06:46:46.998Z</time>
</trkpt>
<trkpt lat="41.9551310" lon="1.8809440">
<ele>377.830078</ele>
<time>2022-09-08T06:46:48.000Z</time>
</trkpt>
<trkpt lat="41.9551090" lon="1.8809720">
<ele>377.220459</ele>
<time>2022-09-08T06:46:49.002Z</time>
</trkpt>
<trkpt lat="41.9550860" lon="1.8809880">
<ele>376.976654</ele>
<time>2022-09-08T06:46:49.996Z</time>
</trkpt>
<trkpt lat="41.9550630" lon="1.8810120">
<ele>376.549927</ele>
<time>2022-09-08T06:46:50.998Z</time>
</trkpt>
<trkpt lat="41.9550330" lon="1.8810400">
<ele>376.062256</ele>
<time>2022-09-08T06:46:52.000Z</time>
</trkpt>
<trkpt lat="41.9550070" lon="1.8810620">
<ele>375.757446</ele>
<time>2022-09-08T06:46:53.003Z</time>
</trkpt>
<trkpt lat="41.9549580" lon="1.8810960">
<ele>375.391663</ele>
<time>2022-09-08T06:46:53.996Z</time>
</trkpt>
<trkpt lat="41.9549080" lon="1.8811220">
<ele>375.391663</ele>
<time>2022-09-08T06:46:54.998Z</time>
</trkpt>
<trkpt lat="41.9548480" lon="1.8811450">
<ele>375.544067</ele>
<time>2022-09-08T06:46:56.001Z</time>
</trkpt>
<trkpt lat="41.9547840" lon="1.8811660">
<ele>375.940338</ele>
<time>2022-09-08T06:46:57.003Z</time>
</trkpt>
<trkpt lat="41.9547130" lon="1.8811910">
<ele>376.367065</ele>
<time>2022-09-08T06:46:57.996Z</time>
</trkpt>
<trkpt lat="41.9546530" lon="1.8812150">
<ele>376.671844</ele>
<time>2022-09-08T06:46:58.999Z</time>
</trkpt>
<trkpt lat="41.9545650" lon="1.8812670">
<ele>376.732788</ele>
<time>2022-09-08T06:47:00.001Z</time>
</trkpt>
<trkpt lat="41.9545070" lon="1.8813150">
<ele>376.062256</ele>
<time>2022-09-08T06:47:01.003Z</time>
</trkpt>
<trkpt lat="41.9544530" lon="1.8813620">
<ele>375.483124</ele>
<time>2022-09-08T06:47:01.997Z</time>
</trkpt>
<trkpt lat="41.9544070" lon="1.8814270">
<ele>374.416321</ele>
<time>2022-09-08T06:47:02.999Z</time>
</trkpt>
<trkpt lat="41.9543830" lon="1.8814750">
<ele>373.593353</ele>
<time>2022-09-08T06:47:04.001Z</time>
</trkpt>
<trkpt lat="41.9543570" lon="1.8815370">
<ele>372.618011</ele>
<time>2022-09-08T06:47:05.004Z</time>
</trkpt>
<trkpt lat="41.9543230" lon="1.8815620">
<ele>372.678955</ele>
<time>2022-09-08T06:47:05.997Z</time>
</trkpt>
<trkpt lat="41.9542780" lon="1.8815720">
<ele>373.288544</ele>
<time>2022-09-08T06:47:06.999Z</time>
</trkpt>
<trkpt lat="41.9542350" lon="1.8815760">
<ele>374.020081</ele>
<time>2022-09-08T06:47:08.002Z</time>
</trkpt>
<trkpt lat="41.9541820" lon="1.8815800">
<ele>375.025940</ele>
<time>2022-09-08T06:47:09.004Z</time>
</trkpt>
<trkpt lat="41.9541400" lon="1.8815870">
<ele>375.818390</ele>
<time>2022-09-08T06:47:09.997Z</time>
</trkpt>
<trkpt lat="41.9541030" lon="1.8816040">
<ele>376.367065</ele>
<time>2022-09-08T06:47:11.000Z</time>
</trkpt>
<trkpt lat="41.9540690" lon="1.8816360">
<ele>376.610870</ele>
<time>2022-09-08T06:47:12.002Z</time>
</trkpt>
<trkpt lat="41.9540400" lon="1.8816740">
<ele>376.641357</ele>
<time>2022-09-08T06:47:13.004Z</time>
</trkpt>
<trkpt lat="41.9540130" lon="1.8817060">
<ele>376.793732</ele>
<time>2022-09-08T06:47:13.998Z</time>
</trkpt>
<trkpt lat="41.9539910" lon="1.8817270">
<ele>377.068085</ele>
<time>2022-09-08T06:47:15.000Z</time>
</trkpt>
<trkpt lat="41.9539640" lon="1.8817530">
<ele>377.403351</ele>
<time>2022-09-08T06:47:16.002Z</time>
</trkpt>
<trkpt lat="41.9539300" lon="1.8817840">
<ele>377.921539</ele>
<time>2022-09-08T06:47:16.996Z</time>
</trkpt>
<trkpt lat="41.9538900" lon="1.8818170">
<ele>378.561615</ele>
<time>2022-09-08T06:47:17.998Z</time>
</trkpt>
<trkpt lat="41.9538500" lon="1.8818490">
<ele>379.384552</ele>
<time>2022-09-08T06:47:19.000Z</time>
</trkpt>
<trkpt lat="41.9538090" lon="1.8818830">
<ele>380.207520</ele>
<time>2022-09-08T06:47:20.003Z</time>
</trkpt>
<trkpt lat="41.9537800" lon="1.8819170">
<ele>380.573273</ele>
<time>2022-09-08T06:47:20.996Z</time>
</trkpt>
<trkpt lat="41.9537460" lon="1.8819560">
<ele>381.091461</ele>
<time>2022-09-08T06:47:21.998Z</time>
</trkpt>
<trkpt lat="41.9537070" lon="1.8819960">
<ele>381.579132</ele>
<time>2022-09-08T06:47:23.001Z</time>
</trkpt>
<trkpt lat="41.9536740" lon="1.8820350">
<ele>381.944885</ele>
<time>2022-09-08T06:47:24.003Z</time>
</trkpt>
<trkpt lat="41.9536510" lon="1.8820620">
<ele>382.097260</ele>
<time>2022-09-08T06:47:24.996Z</time>
</trkpt>
<trkpt lat="41.9536110" lon="1.8820780">
<ele>382.981201</ele>
<time>2022-09-08T06:47:25.999Z</time>
</trkpt>
<trkpt lat="41.9535660" lon="1.8820920">
<ele>383.895599</ele>
<time>2022-09-08T06:47:27.001Z</time>
</trkpt>
<trkpt lat="41.9535220" lon="1.8821170">
<ele>384.657593</ele>
<time>2022-09-08T06:47:28.003Z</time>
</trkpt>
<trkpt lat="41.9534950" lon="1.8821390">
<ele>384.931915</ele>
<time>2022-09-08T06:47:28.997Z</time>
</trkpt>
<trkpt lat="41.9534660" lon="1.8821660">
<ele>385.175751</ele>
<time>2022-09-08T06:47:29.999Z</time>
</trkpt>
<trkpt lat="41.9534340" lon="1.8821890">
<ele>385.480560</ele>
<time>2022-09-08T06:47:31.001Z</time>
</trkpt>
<trkpt lat="41.9533960" lon="1.8822130">
<ele>385.998718</ele>
<time>2022-09-08T06:47:32.004Z</time>
</trkpt>
<trkpt lat="41.9533560" lon="1.8822490">
<ele>386.212067</ele>
<time>2022-09-08T06:47:32.997Z</time>
</trkpt>
<trkpt lat="41.9533340" lon="1.8822890">
<ele>385.907288</ele>
<time>2022-09-08T06:47:33.999Z</time>
</trkpt>
<trkpt lat="41.9533120" lon="1.8823190">
<ele>385.815857</ele>
<time>2022-09-08T06:47:35.002Z</time>
</trkpt>
<trkpt lat="41.9532820" lon="1.8823580">
<ele>385.693939</ele>
<time>2022-09-08T06:47:36.004Z</time>
</trkpt>
<trkpt lat="41.9532490" lon="1.8823930">
<ele>385.693939</ele>
<time>2022-09-08T06:47:36.997Z</time>
</trkpt>
<trkpt lat="41.9532400" lon="1.8824300">
<ele>385.114807</ele>
<time>2022-09-08T06:47:38.000Z</time>
</trkpt>
<trkpt lat="41.9532320" lon="1.8824670">
<ele>384.413757</ele>
<time>2022-09-08T06:47:39.002Z</time>
</trkpt>
<trkpt lat="41.9532060" lon="1.8825070">
<ele>384.169922</ele>
<time>2022-09-08T06:47:40.004Z</time>
</trkpt>
<trkpt lat="41.9531620" lon="1.8825370">
<ele>384.627136</ele>
<time>2022-09-08T06:47:40.998Z</time>
</trkpt>
<trkpt lat="41.9531030" lon="1.8825840">
<ele>385.267212</ele>
<time>2022-09-08T06:47:42.000Z</time>
</trkpt>
<trkpt lat="41.9530610" lon="1.8826290">
<ele>385.389130</ele>
<time>2022-09-08T06:47:43.002Z</time>
</trkpt>
<trkpt lat="41.9530170" lon="1.8826700">
<ele>385.663452</ele>
<time>2022-09-08T06:47:43.996Z</time>
</trkpt>
<trkpt lat="41.9529650" lon="1.8827070">
<ele>386.425446</ele>
<time>2022-09-08T06:47:44.998Z</time>
</trkpt>
<trkpt lat="41.9529290" lon="1.8827500">
<ele>386.486389</ele>
<time>2022-09-08T06:47:46.000Z</time>
</trkpt>
<trkpt lat="41.9529100" lon="1.8827860">
<ele>386.242554</ele>
<time>2022-09-08T06:47:47.003Z</time>
</trkpt>
<trkpt lat="41.9528920" lon="1.8828270">
<ele>385.815857</ele>
<time>2022-09-08T06:47:47.996Z</time>
</trkpt>
<trkpt lat="41.9528440" lon="1.8828710">
<ele>386.242554</ele>
<time>2022-09-08T06:47:48.998Z</time>
</trkpt>
<trkpt lat="41.9528050" lon="1.8829060">
<ele>386.516876</ele>
<time>2022-09-08T06:47:50.001Z</time>
</trkpt>
<trkpt lat="41.9527610" lon="1.8829510">
<ele>386.608337</ele>
<time>2022-09-08T06:47:51.003Z</time>
</trkpt>
<trkpt lat="41.9527240" lon="1.8830020">
<ele>386.486389</ele>
<time>2022-09-08T06:47:51.996Z</time>
</trkpt>
<trkpt lat="41.9526840" lon="1.8830500">
<ele>386.608337</ele>
<time>2022-09-08T06:47:52.999Z</time>
</trkpt>
<trkpt lat="41.9526540" lon="1.8830950">
<ele>386.394958</ele>
<time>2022-09-08T06:47:54.001Z</time>
</trkpt>
<trkpt lat="41.9526470" lon="1.8831490">
<ele>385.358643</ele>
<time>2022-09-08T06:47:55.003Z</time>
</trkpt>
<trkpt lat="41.9526270" lon="1.8831990">
<ele>384.992859</ele>
<time>2022-09-08T06:47:55.997Z</time>
</trkpt>
<trkpt lat="41.9526160" lon="1.8832470">
<ele>384.169922</ele>
<time>2022-09-08T06:47:56.999Z</time>
</trkpt>
<trkpt lat="41.9525990" lon="1.8832880">
<ele>383.895599</ele>
<time>2022-09-08T06:47:58.001Z</time>
</trkpt>
<trkpt lat="41.9525760" lon="1.8833240">
<ele>383.865112</ele>
<time>2022-09-08T06:47:59.004Z</time>
</trkpt>
<trkpt lat="41.9525460" lon="1.8833440">
<ele>384.474731</ele>
<time>2022-09-08T06:47:59.997Z</time>
</trkpt>
<trkpt lat="41.9525070" lon="1.8833610">
<ele>385.389130</ele>
<time>2022-09-08T06:48:00.999Z</time>
</trkpt>
<trkpt lat="41.9524740" lon="1.8833680">
<ele>386.394958</ele>
<time>2022-09-08T06:48:02.002Z</time>
</trkpt>
<trkpt lat="41.9524350" lon="1.8833790">
<ele>387.461731</ele>
<time>2022-09-08T06:48:03.004Z</time>
</trkpt>
<trkpt lat="41.9523990" lon="1.8833900">
<ele>388.376160</ele>
<time>2022-09-08T06:48:03.997Z</time>
</trkpt>
<trkpt lat="41.9523880" lon="1.8833920">
<ele>388.711456</ele>
<time>2022-09-08T06:48:05.000Z</time>
</trkpt>
<trkpt lat="41.9523860" lon="1.8833880">
<ele>388.924805</ele>
<time>2022-09-08T06:48:06.002Z</time>
</trkpt>
<trkpt lat="41.9523940" lon="1.8833860">
<ele>388.711456</ele>
<time>2022-09-08T06:48:07.004Z</time>
</trkpt>
<trkpt lat="41.9524240" lon="1.8834140">
<ele>387.096008</ele>
<time>2022-09-08T06:48:07.998Z</time>
</trkpt>
<trkpt lat="41.9524300" lon="1.8834490">
<ele>386.090149</ele>
<time>2022-09-08T06:48:09.000Z</time>
</trkpt>
<trkpt lat="41.9524470" lon="1.8834990">
<ele>384.505188</ele>
<time>2022-09-08T06:48:10.002Z</time>
</trkpt>
<trkpt lat="41.9524590" lon="1.8835530">
<ele>383.011658</ele>
<time>2022-09-08T06:48:10.996Z</time>
</trkpt>
<trkpt lat="41.9524610" lon="1.8836090">
<ele>381.731537</ele>
<time>2022-09-08T06:48:11.998Z</time>
</trkpt>
<trkpt lat="41.9524590" lon="1.8836710">
<ele>380.634247</ele>
<time>2022-09-08T06:48:13.000Z</time>
</trkpt>
<trkpt lat="41.9524480" lon="1.8837280">
<ele>379.750336</ele>
<time>2022-09-08T06:48:14.003Z</time>
</trkpt>
<trkpt lat="41.9524230" lon="1.8837790">
<ele>379.354065</ele>
<time>2022-09-08T06:48:14.996Z</time>
</trkpt>
<trkpt lat="41.9524050" lon="1.8838140">
<ele>379.049286</ele>
<time>2022-09-08T06:48:15.998Z</time>
</trkpt>
<trkpt lat="41.9524020" lon="1.8838400">
<ele>378.531128</ele>
<time>2022-09-08T06:48:17.001Z</time>
</trkpt>
<trkpt lat="41.9523950" lon="1.8838890">
<ele>377.525269</ele>
<time>2022-09-08T06:48:18.003Z</time>
</trkpt>
<trkpt lat="41.9524060" lon="1.8839130">
<ele>376.732788</ele>
<time>2022-09-08T06:48:18.996Z</time>
</trkpt>
<trkpt lat="41.9524340" lon="1.8839550">
<ele>375.239258</ele>
<time>2022-09-08T06:48:19.999Z</time>
</trkpt>
<trkpt lat="41.9524540" lon="1.8839950">
<ele>374.050537</ele>
<time>2022-09-08T06:48:21.001Z</time>
</trkpt>
<trkpt lat="41.9524730" lon="1.8840060">
<ele>373.440948</ele>
<time>2022-09-08T06:48:22.003Z</time>
</trkpt>
<trkpt lat="41.9524930" lon="1.8840150">
<ele>372.892334</ele>
<time>2022-09-08T06:48:22.997Z</time>
</trkpt>
<trkpt lat="41.9525140" lon="1.8840130">
<ele>372.465607</ele>
<time>2022-09-08T06:48:23.999Z</time>
</trkpt>
<trkpt lat="41.9525360" lon="1.8840000">
<ele>372.191284</ele>
<time>2022-09-08T06:48:25.001Z</time>
</trkpt>
<trkpt lat="41.9525600" lon="1.8839890">
<ele>371.916931</ele>
<time>2022-09-08T06:48:26.004Z</time>
</trkpt>
<trkpt lat="41.9525900" lon="1.8839790">
<ele>371.459747</ele>
<time>2022-09-08T06:48:26.997Z</time>
</trkpt>
<trkpt lat="41.9526050" lon="1.8839820">
<ele>371.124481</ele>
<time>2022-09-08T06:48:27.999Z</time>
</trkpt>
<trkpt lat="41.9526180" lon="1.8839890">
<ele>370.850159</ele>
<time>2022-09-08T06:48:29.002Z</time>
</trkpt>
<trkpt lat="41.9526350" lon="1.8840000">
<ele>370.362488</ele>
<time>2022-09-08T06:48:30.004Z</time>
</trkpt>
<trkpt lat="41.9526530" lon="1.8840160">
<ele>369.935730</ele>
<time>2022-09-08T06:48:30.997Z</time>
</trkpt>
<trkpt lat="41.9526730" lon="1.8840230">
<ele>369.509064</ele>
<time>2022-09-08T06:48:32.000Z</time>
</trkpt>
<trkpt lat="41.9526900" lon="1.8840290">
<ele>369.234741</ele>
<time>2022-09-08T06:48:33.002Z</time>
</trkpt>
<trkpt lat="41.9527130" lon="1.8840310">
<ele>368.929932</ele>
<time>2022-09-08T06:48:34.004Z</time>
</trkpt>
<trkpt lat="41.9527390" lon="1.8840320">
<ele>368.625122</ele>
<time>2022-09-08T06:48:34.998Z</time>
</trkpt>
<trkpt lat="41.9527650" lon="1.8840350">
<ele>368.320313</ele>
<time>2022-09-08T06:48:36.000Z</time>
</trkpt>
<trkpt lat="41.9527920" lon="1.8840390">
<ele>368.076477</ele>
<time>2022-09-08T06:48:37.002Z</time>
</trkpt>
<trkpt lat="41.9528140" lon="1.8840390">
<ele>367.954559</ele>
<time>2022-09-08T06:48:37.996Z</time>
</trkpt>
<trkpt lat="41.9528430" lon="1.8840400">
<ele>367.771667</ele>
<time>2022-09-08T06:48:38.998Z</time>
</trkpt>
<trkpt lat="41.9528670" lon="1.8840410">
<ele>367.680267</ele>
<time>2022-09-08T06:48:40.000Z</time>
</trkpt>
<trkpt lat="41.9528920" lon="1.8840450">
<ele>367.619263</ele>
<time>2022-09-08T06:48:41.003Z</time>
</trkpt>
<trkpt lat="41.9529160" lon="1.8840540">
<ele>367.588806</ele>
<time>2022-09-08T06:48:41.996Z</time>
</trkpt>
<trkpt lat="41.9529380" lon="1.8840660">
<ele>367.497345</ele>
<time>2022-09-08T06:48:42.998Z</time>
</trkpt>
<trkpt lat="41.9529540" lon="1.8840710">
<ele>367.466858</ele>
<time>2022-09-08T06:48:44.001Z</time>
</trkpt>
<trkpt lat="41.9529820" lon="1.8840630">
<ele>367.466858</ele>
<time>2022-09-08T06:48:45.003Z</time>
</trkpt>
<trkpt lat="41.9530030" lon="1.8840550">
<ele>367.497345</ele>
<time>2022-09-08T06:48:45.996Z</time>
</trkpt>
<trkpt lat="41.9530220" lon="1.8840560">
<ele>367.527863</ele>
<time>2022-09-08T06:48:46.999Z</time>
</trkpt>
<trkpt lat="41.9530420" lon="1.8840640">
<ele>367.558319</ele>
<time>2022-09-08T06:48:48.001Z</time>
</trkpt>
<trkpt lat="41.9530630" lon="1.8840720">
<ele>367.649750</ele>
<time>2022-09-08T06:48:49.003Z</time>
</trkpt>
<trkpt lat="41.9530880" lon="1.8840840">
<ele>367.771667</ele>
<time>2022-09-08T06:48:49.997Z</time>
</trkpt>
<trkpt lat="41.9531140" lon="1.8840950">
<ele>367.954559</ele>
<time>2022-09-08T06:48:50.999Z</time>
</trkpt>
<trkpt lat="41.9531340" lon="1.8841070">
<ele>368.106934</ele>
<time>2022-09-08T06:48:52.001Z</time>
</trkpt>
<trkpt lat="41.9531530" lon="1.8841190">
<ele>368.289856</ele>
<time>2022-09-08T06:48:53.004Z</time>
</trkpt>
<trkpt lat="41.9531720" lon="1.8841290">
<ele>368.472717</ele>
<time>2022-09-08T06:48:53.997Z</time>
</trkpt>
<trkpt lat="41.9531890" lon="1.8841410">
<ele>368.716553</ele>
<time>2022-09-08T06:48:54.999Z</time>
</trkpt>
<trkpt lat="41.9532100" lon="1.8841510">
<ele>368.929932</ele>
<time>2022-09-08T06:48:56.002Z</time>
</trkpt>
<trkpt lat="41.9532330" lon="1.8841600">
<ele>369.234741</ele>
<time>2022-09-08T06:48:57.004Z</time>
</trkpt>
<trkpt lat="41.9532570" lon="1.8841690">
<ele>369.570007</ele>
<time>2022-09-08T06:48:57.997Z</time>
</trkpt>
<trkpt lat="41.9532870" lon="1.8841730">
<ele>369.935730</ele>
<time>2022-09-08T06:48:59.000Z</time>
</trkpt>
<trkpt lat="41.9533180" lon="1.8841770">
<ele>370.392944</ele>
<time>2022-09-08T06:49:00.002Z</time>
</trkpt>
<trkpt lat="41.9533570" lon="1.8841810">
<ele>370.972076</ele>
<time>2022-09-08T06:49:01.004Z</time>
</trkpt>
<trkpt lat="41.9533880" lon="1.8841830">
<ele>371.429260</ele>
<time>2022-09-08T06:49:01.998Z</time>
</trkpt>
<trkpt lat="41.9534290" lon="1.8841860">
<ele>372.099854</ele>
<time>2022-09-08T06:49:03.000Z</time>
</trkpt>
<trkpt lat="41.9534760" lon="1.8841900">
<ele>372.861847</ele>
<time>2022-09-08T06:49:04.002Z</time>
</trkpt>
<trkpt lat="41.9535300" lon="1.8842010">
<ele>373.776245</ele>
<time>2022-09-08T06:49:04.996Z</time>
</trkpt>
<trkpt lat="41.9535900" lon="1.8842210">
<ele>374.903992</ele>
<time>2022-09-08T06:49:05.998Z</time>
</trkpt>
<trkpt lat="41.9536500" lon="1.8842480">
<ele>376.031738</ele>
<time>2022-09-08T06:49:07.000Z</time>
</trkpt>
<trkpt lat="41.9537050" lon="1.8842920">
<ele>377.068085</ele>
<time>2022-09-08T06:49:08.003Z</time>
</trkpt>
<trkpt lat="41.9537530" lon="1.8843340">
<ele>377.982483</ele>
<time>2022-09-08T06:49:08.996Z</time>
</trkpt>
<trkpt lat="41.9537960" lon="1.8843600">
<ele>378.561615</ele>
<time>2022-09-08T06:49:09.998Z</time>
</trkpt>
<trkpt lat="41.9538330" lon="1.8843720">
<ele>378.988342</ele>
<time>2022-09-08T06:49:11.001Z</time>
</trkpt>
<trkpt lat="41.9538660" lon="1.8843810">
<ele>379.323608</ele>
<time>2022-09-08T06:49:12.003Z</time>
</trkpt>
<trkpt lat="41.9538930" lon="1.8843920">
<ele>379.628387</ele>
<time>2022-09-08T06:49:12.996Z</time>
</trkpt>
<trkpt lat="41.9539170" lon="1.8844040">
<ele>379.902740</ele>
<time>2022-09-08T06:49:13.999Z</time>
</trkpt>
<trkpt lat="41.9539380" lon="1.8844160">
<ele>380.116058</ele>
<time>2022-09-08T06:49:15.001Z</time>
</trkpt>
<trkpt lat="41.9539570" lon="1.8844280">
<ele>380.329468</ele>
<time>2022-09-08T06:49:16.003Z</time>
</trkpt>
<trkpt lat="41.9539750" lon="1.8844390">
<ele>380.512329</ele>
<time>2022-09-08T06:49:16.997Z</time>
</trkpt>
<trkpt lat="41.9539910" lon="1.8844420">
<ele>380.664734</ele>
<time>2022-09-08T06:49:17.999Z</time>
</trkpt>
<trkpt lat="41.9540090" lon="1.8844510">
<ele>380.847595</ele>
<time>2022-09-08T06:49:19.001Z</time>
</trkpt>
<trkpt lat="41.9540310" lon="1.8844610">
<ele>381.060944</ele>
<time>2022-09-08T06:49:20.004Z</time>
</trkpt>
<trkpt lat="41.9540600" lon="1.8844810">
<ele>381.335266</ele>
<time>2022-09-08T06:49:20.997Z</time>
</trkpt>
<trkpt lat="41.9540850" lon="1.8844950">
<ele>381.609589</ele>
<time>2022-09-08T06:49:21.999Z</time>
</trkpt>
<trkpt lat="41.9541240" lon="1.8845120">
<ele>381.944885</ele>
<time>2022-09-08T06:49:23.002Z</time>
</trkpt>
<trkpt lat="41.9541660" lon="1.8845300">
<ele>382.341125</ele>
<time>2022-09-08T06:49:24.004Z</time>
</trkpt>
<trkpt lat="41.9542110" lon="1.8845510">
<ele>382.767853</ele>
<time>2022-09-08T06:49:24.997Z</time>
</trkpt>
<trkpt lat="41.9542580" lon="1.8845730">
<ele>383.225067</ele>
<time>2022-09-08T06:49:26.000Z</time>
</trkpt>
<trkpt lat="41.9543040" lon="1.8845980">
<ele>383.682251</ele>
<time>2022-09-08T06:49:27.002Z</time>
</trkpt>
<trkpt lat="41.9543450" lon="1.8846220">
<ele>384.078461</ele>
<time>2022-09-08T06:49:28.004Z</time>
</trkpt>
<trkpt lat="41.9543800" lon="1.8846480">
<ele>384.413757</ele>
<time>2022-09-08T06:49:28.998Z</time>
</trkpt>
<trkpt lat="41.9544140" lon="1.8846720">
<ele>384.779541</ele>
<time>2022-09-08T06:49:30.000Z</time>
</trkpt>
<trkpt lat="41.9544480" lon="1.8846920">
<ele>385.114807</ele>
<time>2022-09-08T06:49:31.002Z</time>
</trkpt>
<trkpt lat="41.9544800" lon="1.8847110">
<ele>385.419586</ele>
<time>2022-09-08T06:49:31.996Z</time>
</trkpt>
<trkpt lat="41.9545090" lon="1.8847280">
<ele>385.754883</ele>
<time>2022-09-08T06:49:32.998Z</time>
</trkpt>
<trkpt lat="41.9545370" lon="1.8847420">
<ele>386.029205</ele>
<time>2022-09-08T06:49:34.000Z</time>
</trkpt>
<trkpt lat="41.9545660" lon="1.8847550">
<ele>386.334015</ele>
<time>2022-09-08T06:49:35.003Z</time>
</trkpt>
<trkpt lat="41.9545950" lon="1.8847740">
<ele>386.699738</ele>
<time>2022-09-08T06:49:35.996Z</time>
</trkpt>
<trkpt lat="41.9546260" lon="1.8847910">
<ele>387.156952</ele>
<time>2022-09-08T06:49:36.998Z</time>
</trkpt>
<trkpt lat="41.9546600" lon="1.8848080">
<ele>387.675140</ele>
<time>2022-09-08T06:49:38.001Z</time>
</trkpt>
<trkpt lat="41.9546930" lon="1.8848250">
<ele>388.132324</ele>
<time>2022-09-08T06:49:39.003Z</time>
</trkpt>
<trkpt lat="41.9547210" lon="1.8848400">
<ele>388.528534</ele>
<time>2022-09-08T06:49:39.996Z</time>
</trkpt>
<trkpt lat="41.9547460" lon="1.8848550">
<ele>388.863861</ele>
<time>2022-09-08T06:49:40.999Z</time>
</trkpt>
<trkpt lat="41.9547750" lon="1.8848720">
<ele>389.260071</ele>
<time>2022-09-08T06:49:42.001Z</time>
</trkpt>
<trkpt lat="41.9548060" lon="1.8848880">
<ele>389.595337</ele>
<time>2022-09-08T06:49:43.003Z</time>
</trkpt>
<trkpt lat="41.9548360" lon="1.8849040">
<ele>389.930664</ele>
<time>2022-09-08T06:49:43.997Z</time>
</trkpt>
<trkpt lat="41.9548690" lon="1.8849200">
<ele>390.235443</ele>
<time>2022-09-08T06:49:44.999Z</time>
</trkpt>
<trkpt lat="41.9549010" lon="1.8849370">
<ele>390.570740</ele>
<time>2022-09-08T06:49:46.001Z</time>
</trkpt>
<trkpt lat="41.9549330" lon="1.8849560">
<ele>390.814545</ele>
<time>2022-09-08T06:49:47.004Z</time>
</trkpt>
<trkpt lat="41.9549640" lon="1.8849730">
<ele>391.027924</ele>
<time>2022-09-08T06:49:47.997Z</time>
</trkpt>
<trkpt lat="41.9549910" lon="1.8849900">
<ele>391.180328</ele>
<time>2022-09-08T06:49:48.999Z</time>
</trkpt>
<trkpt lat="41.9550180" lon="1.8850080">
<ele>391.302246</ele>
<time>2022-09-08T06:49:50.002Z</time>
</trkpt>
<trkpt lat="41.9550450" lon="1.8850290">
<ele>391.424133</ele>
<time>2022-09-08T06:49:51.004Z</time>
</trkpt>
<trkpt lat="41.9550710" lon="1.8850490">
<ele>391.485138</ele>
<time>2022-09-08T06:49:51.997Z</time>
</trkpt>
<trkpt lat="41.9551000" lon="1.8850690">
<ele>391.576538</ele>
<time>2022-09-08T06:49:53.000Z</time>
</trkpt>
<trkpt lat="41.9551280" lon="1.8850880">
<ele>391.607056</ele>
<time>2022-09-08T06:49:54.002Z</time>
</trkpt>
<trkpt lat="41.9551560" lon="1.8851110">
<ele>391.607056</ele>
<time>2022-09-08T06:49:55.004Z</time>
</trkpt>
<trkpt lat="41.9551890" lon="1.8851380">
<ele>391.576538</ele>
<time>2022-09-08T06:49:55.998Z</time>
</trkpt>
<trkpt lat="41.9552090" lon="1.8851560">
<ele>391.546082</ele>
<time>2022-09-08T06:49:57.000Z</time>
</trkpt>
<trkpt lat="41.9552350" lon="1.8851770">
<ele>391.515594</ele>
<time>2022-09-08T06:49:58.002Z</time>
</trkpt>
<trkpt lat="41.9552620" lon="1.8851970">
<ele>391.454651</ele>
<time>2022-09-08T06:49:58.996Z</time>
</trkpt>
<trkpt lat="41.9552620" lon="1.8851970">
<ele>391.454651</ele>
<time>2022-09-08T06:49:59.998Z</time>
</trkpt>
<trkpt lat="41.9553150" lon="1.8852330">
<ele>391.332733</ele>
<time>2022-09-08T06:50:01.000Z</time>
</trkpt>
<trkpt lat="41.9553400" lon="1.8852540">
<ele>391.271759</ele>
<time>2022-09-08T06:50:02.003Z</time>
</trkpt>
<trkpt lat="41.9553670" lon="1.8852760">
<ele>391.180328</ele>
<time>2022-09-08T06:50:02.996Z</time>
</trkpt>
<trkpt lat="41.9553920" lon="1.8852970">
<ele>391.149841</ele>
<time>2022-09-08T06:50:03.998Z</time>
</trkpt>
<trkpt lat="41.9554180" lon="1.8853170">
<ele>391.088867</ele>
<time>2022-09-08T06:50:05.001Z</time>
</trkpt>
<trkpt lat="41.9554420" lon="1.8853360">
<ele>391.149841</ele>
<time>2022-09-08T06:50:06.003Z</time>
</trkpt>
<trkpt lat="41.9554660" lon="1.8853560">
<ele>391.210785</ele>
<time>2022-09-08T06:50:06.996Z</time>
</trkpt>
<trkpt lat="41.9554930" lon="1.8853760">
<ele>391.302246</ele>
<time>2022-09-08T06:50:07.999Z</time>
</trkpt>
<trkpt lat="41.9555190" lon="1.8853890">
<ele>391.393677</ele>
<time>2022-09-08T06:50:09.001Z</time>
</trkpt>
<trkpt lat="41.9555470" lon="1.8854040">
<ele>391.515594</ele>
<time>2022-09-08T06:50:10.003Z</time>
</trkpt>
<trkpt lat="41.9555750" lon="1.8854160">
<ele>391.637512</ele>
<time>2022-09-08T06:50:10.997Z</time>
</trkpt>
<trkpt lat="41.9556040" lon="1.8854280">
<ele>391.759460</ele>
<time>2022-09-08T06:50:11.999Z</time>
</trkpt>
<trkpt lat="41.9556320" lon="1.8854400">
<ele>391.881348</ele>
<time>2022-09-08T06:50:13.001Z</time>
</trkpt>
<trkpt lat="41.9556620" lon="1.8854510">
<ele>392.033752</ele>
<time>2022-09-08T06:50:14.004Z</time>
</trkpt>
<trkpt lat="41.9556900" lon="1.8854610">
<ele>392.186157</ele>
<time>2022-09-08T06:50:14.997Z</time>
</trkpt>
<trkpt lat="41.9557230" lon="1.8854660">
<ele>392.399536</ele>
<time>2022-09-08T06:50:15.999Z</time>
</trkpt>
<trkpt lat="41.9557540" lon="1.8854810">
<ele>392.582397</ele>
<time>2022-09-08T06:50:17.002Z</time>
</trkpt>
<trkpt lat="41.9557800" lon="1.8855070">
<ele>392.765259</ele>
<time>2022-09-08T06:50:18.004Z</time>
</trkpt>
<trkpt lat="41.9557990" lon="1.8855420">
<ele>392.917664</ele>
<time>2022-09-08T06:50:18.997Z</time>
</trkpt>
<trkpt lat="41.9558100" lon="1.8855860">
<ele>393.009125</ele>
<time>2022-09-08T06:50:20.000Z</time>
</trkpt>
<trkpt lat="41.9558210" lon="1.8856340">
<ele>393.131042</ele>
<time>2022-09-08T06:50:21.002Z</time>
</trkpt>
<trkpt lat="41.9558340" lon="1.8856830">
<ele>393.252960</ele>
<time>2022-09-08T06:50:22.004Z</time>
</trkpt>
<trkpt lat="41.9558570" lon="1.8857280">
<ele>393.496796</ele>
<time>2022-09-08T06:50:22.998Z</time>
</trkpt>
<trkpt lat="41.9558880" lon="1.8857670">
<ele>393.832062</ele>
<time>2022-09-08T06:50:24.000Z</time>
</trkpt>
<trkpt lat="41.9559200" lon="1.8858030">
<ele>394.258789</ele>
<time>2022-09-08T06:50:25.002Z</time>
</trkpt>
<trkpt lat="41.9559620" lon="1.8858500">
<ele>394.776947</ele>
<time>2022-09-08T06:50:25.996Z</time>
</trkpt>
<trkpt lat="41.9559940" lon="1.8858840">
<ele>395.203674</ele>
<time>2022-09-08T06:50:26.998Z</time>
</trkpt>
<trkpt lat="41.9560310" lon="1.8859300">
<ele>395.752319</ele>
<time>2022-09-08T06:50:28.000Z</time>
</trkpt>
<trkpt lat="41.9560660" lon="1.8859820">
<ele>396.270477</ele>
<time>2022-09-08T06:50:29.003Z</time>
</trkpt>
<trkpt lat="41.9560960" lon="1.8860430">
<ele>396.758148</ele>
<time>2022-09-08T06:50:29.996Z</time>
</trkpt>
<trkpt lat="41.9561200" lon="1.8861070">
<ele>397.154388</ele>
<time>2022-09-08T06:50:30.998Z</time>
</trkpt>
<trkpt lat="41.9561430" lon="1.8861910">
<ele>397.520142</ele>
<time>2022-09-08T06:50:32.001Z</time>
</trkpt>
<trkpt lat="41.9561530" lon="1.8862500">
<ele>397.703064</ele>
<time>2022-09-08T06:50:33.003Z</time>
</trkpt>
<trkpt lat="41.9561610" lon="1.8863240">
<ele>397.672546</ele>
<time>2022-09-08T06:50:33.996Z</time>
</trkpt>
<trkpt lat="41.9561700" lon="1.8863980">
<ele>397.581116</ele>
<time>2022-09-08T06:50:34.999Z</time>
</trkpt>
<trkpt lat="41.9561860" lon="1.8864690">
<ele>397.489685</ele>
<time>2022-09-08T06:50:36.001Z</time>
</trkpt>
<trkpt lat="41.9562190" lon="1.8865460">
<ele>397.581116</ele>
<time>2022-09-08T06:50:37.003Z</time>
</trkpt>
<trkpt lat="41.9562610" lon="1.8865990">
<ele>397.764008</ele>
<time>2022-09-08T06:50:37.997Z</time>
</trkpt>
<trkpt lat="41.9562960" lon="1.8866380">
<ele>397.824951</ele>
<time>2022-09-08T06:50:38.999Z</time>
</trkpt>
<trkpt lat="41.9563450" lon="1.8866840">
<ele>397.916412</ele>
<time>2022-09-08T06:50:40.001Z</time>
</trkpt>
<trkpt lat="41.9563900" lon="1.8867280">
<ele>397.977356</ele>
<time>2022-09-08T06:50:41.004Z</time>
</trkpt>
<trkpt lat="41.9564460" lon="1.8867750">
<ele>398.099274</ele>
<time>2022-09-08T06:50:41.997Z</time>
</trkpt>
<trkpt lat="41.9565020" lon="1.8868070">
<ele>398.282135</ele>
<time>2022-09-08T06:50:42.999Z</time>
</trkpt>
<trkpt lat="41.9565640" lon="1.8868180">
<ele>398.739349</ele>
<time>2022-09-08T06:50:44.002Z</time>
</trkpt>
<trkpt lat="41.9566280" lon="1.8868130">
<ele>399.348938</ele>
<time>2022-09-08T06:50:45.004Z</time>
</trkpt>
<trkpt lat="41.9566960" lon="1.8867920">
<ele>400.232880</ele>
<time>2022-09-08T06:50:45.997Z</time>
</trkpt>
<trkpt lat="41.9567620" lon="1.8867600">
<ele>401.238739</ele>
<time>2022-09-08T06:50:47.000Z</time>
</trkpt>
<trkpt lat="41.9568270" lon="1.8867280">
<ele>402.335999</ele>
<time>2022-09-08T06:50:48.002Z</time>
</trkpt>
<trkpt lat="41.9568820" lon="1.8867090">
<ele>403.219940</ele>
<time>2022-09-08T06:50:49.004Z</time>
</trkpt>
<trkpt lat="41.9569450" lon="1.8867100">
<ele>403.981934</ele>
<time>2022-09-08T06:50:49.998Z</time>
</trkpt>
<trkpt lat="41.9570090" lon="1.8867370">
<ele>404.591522</ele>
<time>2022-09-08T06:50:51.000Z</time>
</trkpt>
<trkpt lat="41.9570550" lon="1.8867740">
<ele>404.896332</ele>
<time>2022-09-08T06:50:52.002Z</time>
</trkpt>
<trkpt lat="41.9570990" lon="1.8868140">
<ele>405.201141</ele>
<time>2022-09-08T06:50:52.996Z</time>
</trkpt>
<trkpt lat="41.9571420" lon="1.8868530">
<ele>405.475464</ele>
<time>2022-09-08T06:50:53.998Z</time>
</trkpt>
<trkpt lat="41.9571830" lon="1.8868920">
<ele>405.688812</ele>
<time>2022-09-08T06:50:55.000Z</time>
</trkpt>
<trkpt lat="41.9572170" lon="1.8869220">
<ele>405.902130</ele>
<time>2022-09-08T06:50:56.003Z</time>
</trkpt>
<trkpt lat="41.9572550" lon="1.8869560">
<ele>406.115540</ele>
<time>2022-09-08T06:50:56.996Z</time>
</trkpt>
<trkpt lat="41.9573020" lon="1.8869960">
<ele>406.359344</ele>
<time>2022-09-08T06:50:57.998Z</time>
</trkpt>
<trkpt lat="41.9573450" lon="1.8870270">
<ele>406.633667</ele>
<time>2022-09-08T06:50:59.001Z</time>
</trkpt>
<trkpt lat="41.9573890" lon="1.8870580">
<ele>406.907990</ele>
<time>2022-09-08T06:51:00.003Z</time>
</trkpt>
<trkpt lat="41.9574240" lon="1.8870810">
<ele>407.121338</ele>
<time>2022-09-08T06:51:00.996Z</time>
</trkpt>
<trkpt lat="41.9574750" lon="1.8871220">
<ele>407.334717</ele>
<time>2022-09-08T06:51:01.999Z</time>
</trkpt>
<trkpt lat="41.9575150" lon="1.8871650">
<ele>407.365204</ele>
<time>2022-09-08T06:51:03.001Z</time>
</trkpt>
<trkpt lat="41.9575440" lon="1.8872050">
<ele>407.243286</ele>
<time>2022-09-08T06:51:04.003Z</time>
</trkpt>
<trkpt lat="41.9575730" lon="1.8872750">
<ele>406.694641</ele>
<time>2022-09-08T06:51:04.997Z</time>
</trkpt>
<trkpt lat="41.9575930" lon="1.8873370">
<ele>406.085052</ele>
<time>2022-09-08T06:51:05.999Z</time>
</trkpt>
<trkpt lat="41.9576070" lon="1.8874020">
<ele>405.353516</ele>
<time>2022-09-08T06:51:07.001Z</time>
</trkpt>
<trkpt lat="41.9576160" lon="1.8874660">
<ele>404.561066</ele>
<time>2022-09-08T06:51:08.004Z</time>
</trkpt>
<trkpt lat="41.9576250" lon="1.8875170">
<ele>404.012390</ele>
<time>2022-09-08T06:51:08.997Z</time>
</trkpt>
<trkpt lat="41.9576370" lon="1.8875790">
<ele>403.372314</ele>
<time>2022-09-08T06:51:09.999Z</time>
</trkpt>
<trkpt lat="41.9576470" lon="1.8876390">
<ele>402.823669</ele>
<time>2022-09-08T06:51:11.002Z</time>
</trkpt>
<trkpt lat="41.9576560" lon="1.8876920">
<ele>402.457916</ele>
<time>2022-09-08T06:51:12.004Z</time>
</trkpt>
<trkpt lat="41.9576720" lon="1.8877430">
<ele>402.183594</ele>
<time>2022-09-08T06:51:12.997Z</time>
</trkpt>
<trkpt lat="41.9576850" lon="1.8877730">
<ele>402.122650</ele>
<time>2022-09-08T06:51:14.000Z</time>
</trkpt>
<trkpt lat="41.9577020" lon="1.8878090">
<ele>402.092133</ele>
<time>2022-09-08T06:51:15.002Z</time>
</trkpt>
<trkpt lat="41.9577190" lon="1.8878440">
<ele>402.122650</ele>
<time>2022-09-08T06:51:16.004Z</time>
</trkpt>
<trkpt lat="41.9577390" lon="1.8878830">
<ele>402.244537</ele>
<time>2022-09-08T06:51:16.998Z</time>
</trkpt>
<trkpt lat="41.9577570" lon="1.8879150">
<ele>402.396942</ele>
<time>2022-09-08T06:51:18.000Z</time>
</trkpt>
<trkpt lat="41.9577750" lon="1.8879450">
<ele>402.488403</ele>
<time>2022-09-08T06:51:19.002Z</time>
</trkpt>
<trkpt lat="41.9577880" lon="1.8879760">
<ele>402.549347</ele>
<time>2022-09-08T06:51:19.996Z</time>
</trkpt>
<trkpt lat="41.9578030" lon="1.8880030">
<ele>402.701752</ele>
<time>2022-09-08T06:51:20.998Z</time>
</trkpt>
<trkpt lat="41.9578170" lon="1.8880310">
<ele>402.823669</ele>
<time>2022-09-08T06:51:22.000Z</time>
</trkpt>
<trkpt lat="41.9578310" lon="1.8880610">
<ele>403.006531</ele>
<time>2022-09-08T06:51:23.003Z</time>
</trkpt>
<trkpt lat="41.9578450" lon="1.8880940">
<ele>403.189453</ele>
<time>2022-09-08T06:51:23.996Z</time>
</trkpt>
<trkpt lat="41.9578540" lon="1.8881200">
<ele>403.402802</ele>
<time>2022-09-08T06:51:24.998Z</time>
</trkpt>
<trkpt lat="41.9578640" lon="1.8881510">
<ele>403.585663</ele>
<time>2022-09-08T06:51:26.001Z</time>
</trkpt>
<trkpt lat="41.9578780" lon="1.8881880">
<ele>403.890472</ele>
<time>2022-09-08T06:51:27.003Z</time>
</trkpt>
<trkpt lat="41.9578910" lon="1.8882190">
<ele>404.164795</ele>
<time>2022-09-08T06:51:27.996Z</time>
</trkpt>
<trkpt lat="41.9579040" lon="1.8882470">
<ele>404.469604</ele>
<time>2022-09-08T06:51:28.999Z</time>
</trkpt>
<trkpt lat="41.9579190" lon="1.8882760">
<ele>404.743927</ele>
<time>2022-09-08T06:51:30.001Z</time>
</trkpt>
<trkpt lat="41.9579340" lon="1.8883050">
<ele>404.957275</ele>
<time>2022-09-08T06:51:31.003Z</time>
</trkpt>
<trkpt lat="41.9579490" lon="1.8883310">
<ele>405.170654</ele>
<time>2022-09-08T06:51:31.997Z</time>
</trkpt>
<trkpt lat="41.9579640" lon="1.8883560">
<ele>405.384003</ele>
<time>2022-09-08T06:51:32.999Z</time>
</trkpt>
<trkpt lat="41.9579780" lon="1.8883780">
<ele>405.566864</ele>
<time>2022-09-08T06:51:34.001Z</time>
</trkpt>
<trkpt lat="41.9579970" lon="1.8884000">
<ele>405.749756</ele>
<time>2022-09-08T06:51:35.004Z</time>
</trkpt>
<trkpt lat="41.9580190" lon="1.8884160">
<ele>405.871674</ele>
<time>2022-09-08T06:51:35.997Z</time>
</trkpt>
<trkpt lat="41.9580390" lon="1.8884340">
<ele>405.993591</ele>
<time>2022-09-08T06:51:36.999Z</time>
</trkpt>
<trkpt lat="41.9580590" lon="1.8884500">
<ele>406.115540</ele>
<time>2022-09-08T06:51:38.002Z</time>
</trkpt>
<trkpt lat="41.9580780" lon="1.8884700">
<ele>406.298401</ele>
<time>2022-09-08T06:51:39.004Z</time>
</trkpt>
<trkpt lat="41.9580960" lon="1.8884900">
<ele>406.450806</ele>
<time>2022-09-08T06:51:39.997Z</time>
</trkpt>
<trkpt lat="41.9581160" lon="1.8885120">
<ele>406.633667</ele>
<time>2022-09-08T06:51:41.000Z</time>
</trkpt>
<trkpt lat="41.9581320" lon="1.8885350">
<ele>406.816559</ele>
<time>2022-09-08T06:51:42.002Z</time>
</trkpt>
<trkpt lat="41.9581500" lon="1.8885570">
<ele>406.999451</ele>
<time>2022-09-08T06:51:43.004Z</time>
</trkpt>
<trkpt lat="41.9581690" lon="1.8885760">
<ele>407.151855</ele>
<time>2022-09-08T06:51:43.998Z</time>
</trkpt>
<trkpt lat="41.9581850" lon="1.8885960">
<ele>407.334717</ele>
<time>2022-09-08T06:51:45.000Z</time>
</trkpt>
<trkpt lat="41.9582010" lon="1.8886170">
<ele>407.517609</ele>
<time>2022-09-08T06:51:46.002Z</time>
</trkpt>
<trkpt lat="41.9582160" lon="1.8886390">
<ele>407.730957</ele>
<time>2022-09-08T06:51:46.996Z</time>
</trkpt>
<trkpt lat="41.9582320" lon="1.8886610">
<ele>407.974792</ele>
<time>2022-09-08T06:51:47.998Z</time>
</trkpt>
<trkpt lat="41.9582490" lon="1.8886830">
<ele>408.188141</ele>
<time>2022-09-08T06:51:49.000Z</time>
</trkpt>
<trkpt lat="41.9582600" lon="1.8887010">
<ele>408.401520</ele>
<time>2022-09-08T06:51:50.003Z</time>
</trkpt>
<trkpt lat="41.9582750" lon="1.8887260">
<ele>408.706329</ele>
<time>2022-09-08T06:51:50.996Z</time>
</trkpt>
<trkpt lat="41.9582900" lon="1.8887490">
<ele>409.011139</ele>
<time>2022-09-08T06:51:51.998Z</time>
</trkpt>
<trkpt lat="41.9583070" lon="1.8887720">
<ele>409.163513</ele>
<time>2022-09-08T06:51:53.001Z</time>
</trkpt>
<trkpt lat="41.9583230" lon="1.8887950">
<ele>409.346405</ele>
<time>2022-09-08T06:51:54.003Z</time>
</trkpt>
<trkpt lat="41.9583390" lon="1.8888190">
<ele>409.559753</ele>
<time>2022-09-08T06:51:54.996Z</time>
</trkpt>
<trkpt lat="41.9583550" lon="1.8888450">
<ele>409.773132</ele>
<time>2022-09-08T06:51:55.999Z</time>
</trkpt>
<trkpt lat="41.9583700" lon="1.8888720">
<ele>410.047455</ele>
<time>2022-09-08T06:51:57.001Z</time>
</trkpt>
<trkpt lat="41.9583830" lon="1.8889000">
<ele>410.352264</ele>
<time>2022-09-08T06:51:58.003Z</time>
</trkpt>
<trkpt lat="41.9583930" lon="1.8889280">
<ele>410.657043</ele>
<time>2022-09-08T06:51:58.997Z</time>
</trkpt>
<trkpt lat="41.9584050" lon="1.8889560">
<ele>410.992340</ele>
<time>2022-09-08T06:51:59.999Z</time>
</trkpt>
<trkpt lat="41.9584140" lon="1.8889860">
<ele>411.388550</ele>
<time>2022-09-08T06:52:01.001Z</time>
</trkpt>
<trkpt lat="41.9584270" lon="1.8890150">
<ele>411.784790</ele>
<time>2022-09-08T06:52:02.004Z</time>
</trkpt>
<trkpt lat="41.9584400" lon="1.8890430">
<ele>412.181061</ele>
<time>2022-09-08T06:52:02.997Z</time>
</trkpt>
<trkpt lat="41.9584540" lon="1.8890720">
<ele>412.607758</ele>
<time>2022-09-08T06:52:03.999Z</time>
</trkpt>
<trkpt lat="41.9584660" lon="1.8891020">
<ele>413.064941</ele>
<time>2022-09-08T06:52:05.002Z</time>
</trkpt>
<trkpt lat="41.9584830" lon="1.8891330">
<ele>413.552643</ele>
<time>2022-09-08T06:52:06.004Z</time>
</trkpt>
<trkpt lat="41.9584970" lon="1.8891650">
<ele>414.101257</ele>
<time>2022-09-08T06:52:06.997Z</time>
</trkpt>
<trkpt lat="41.9585110" lon="1.8891990">
<ele>414.710876</ele>
<time>2022-09-08T06:52:08.000Z</time>
</trkpt>
<trkpt lat="41.9585240" lon="1.8892300">
<ele>415.259521</ele>
<time>2022-09-08T06:52:09.002Z</time>
</trkpt>
<trkpt lat="41.9585350" lon="1.8892610">
<ele>415.838654</ele>
<time>2022-09-08T06:52:10.004Z</time>
</trkpt>
<trkpt lat="41.9585480" lon="1.8892930">
<ele>416.448242</ele>
<time>2022-09-08T06:52:10.998Z</time>
</trkpt>
<trkpt lat="41.9585630" lon="1.8893230">
<ele>417.027344</ele>
<time>2022-09-08T06:52:12.000Z</time>
</trkpt>
<trkpt lat="41.9585750" lon="1.8893520">
<ele>417.606476</ele>
<time>2022-09-08T06:52:13.002Z</time>
</trkpt>
<trkpt lat="41.9585850" lon="1.8893860">
<ele>418.277069</ele>
<time>2022-09-08T06:52:13.996Z</time>
</trkpt>
<trkpt lat="41.9585960" lon="1.8894170">
<ele>418.886658</ele>
<time>2022-09-08T06:52:14.998Z</time>
</trkpt>
<trkpt lat="41.9586060" lon="1.8894480">
<ele>419.496246</ele>
<time>2022-09-08T06:52:16.000Z</time>
</trkpt>
<trkpt lat="41.9586170" lon="1.8894800">
<ele>420.136322</ele>
<time>2022-09-08T06:52:17.003Z</time>
</trkpt>
<trkpt lat="41.9586300" lon="1.8895140">
<ele>420.837341</ele>
<time>2022-09-08T06:52:17.996Z</time>
</trkpt>
<trkpt lat="41.9586410" lon="1.8895480">
<ele>421.507935</ele>
<time>2022-09-08T06:52:18.998Z</time>
</trkpt>
<trkpt lat="41.9586530" lon="1.8895790">
<ele>422.087067</ele>
<time>2022-09-08T06:52:20.001Z</time>
</trkpt>
<trkpt lat="41.9586660" lon="1.8896080">
<ele>422.544250</ele>
<time>2022-09-08T06:52:21.003Z</time>
</trkpt>
<trkpt lat="41.9586770" lon="1.8896340">
<ele>422.879517</ele>
<time>2022-09-08T06:52:21.996Z</time>
</trkpt>
<trkpt lat="41.9586920" lon="1.8896590">
<ele>423.214813</ele>
<time>2022-09-08T06:52:22.999Z</time>
</trkpt>
<trkpt lat="41.9587090" lon="1.8896870">
<ele>423.519592</ele>
<time>2022-09-08T06:52:24.001Z</time>
</trkpt>
<trkpt lat="41.9587250" lon="1.8897170">
<ele>423.824402</ele>
<time>2022-09-08T06:52:25.003Z</time>
</trkpt>
<trkpt lat="41.9587370" lon="1.8897490">
<ele>424.159668</ele>
<time>2022-09-08T06:52:25.997Z</time>
</trkpt>
<trkpt lat="41.9587490" lon="1.8897820">
<ele>424.494934</ele>
<time>2022-09-08T06:52:26.999Z</time>
</trkpt>
<trkpt lat="41.9587610" lon="1.8898140">
<ele>424.769287</ele>
<time>2022-09-08T06:52:28.001Z</time>
</trkpt>
<trkpt lat="41.9587700" lon="1.8898440">
<ele>424.982666</ele>
<time>2022-09-08T06:52:29.004Z</time>
</trkpt>
<trkpt lat="41.9587750" lon="1.8898770">
<ele>425.287445</ele>
<time>2022-09-08T06:52:29.997Z</time>
</trkpt>
<trkpt lat="41.9587800" lon="1.8899120">
<ele>425.622742</ele>
<time>2022-09-08T06:52:30.999Z</time>
</trkpt>
<trkpt lat="41.9587810" lon="1.8899430">
<ele>425.897064</ele>
<time>2022-09-08T06:52:32.002Z</time>
</trkpt>
<trkpt lat="41.9587790" lon="1.8899750">
<ele>426.262787</ele>
<time>2022-09-08T06:52:33.004Z</time>
</trkpt>
<trkpt lat="41.9587770" lon="1.8900050">
<ele>426.598083</ele>
<time>2022-09-08T06:52:33.997Z</time>
</trkpt>
<trkpt lat="41.9587730" lon="1.8900370">
<ele>426.963867</ele>
<time>2022-09-08T06:52:35.000Z</time>
</trkpt>
<trkpt lat="41.9587700" lon="1.8900710">
<ele>427.390533</ele>
<time>2022-09-08T06:52:36.002Z</time>
</trkpt>
<trkpt lat="41.9587730" lon="1.8901060">
<ele>427.725861</ele>
<time>2022-09-08T06:52:37.004Z</time>
</trkpt>
<trkpt lat="41.9587770" lon="1.8901380">
<ele>428.030640</ele>
<time>2022-09-08T06:52:37.998Z</time>
</trkpt>
<trkpt lat="41.9587810" lon="1.8901710">
<ele>428.365936</ele>
<time>2022-09-08T06:52:39.000Z</time>
</trkpt>
<trkpt lat="41.9587840" lon="1.8902070">
<ele>428.792664</ele>
<time>2022-09-08T06:52:40.002Z</time>
</trkpt>
<trkpt lat="41.9587840" lon="1.8902400">
<ele>429.188873</ele>
<time>2022-09-08T06:52:40.996Z</time>
</trkpt>
<trkpt lat="41.9587870" lon="1.8902750">
<ele>429.585114</ele>
<time>2022-09-08T06:52:41.998Z</time>
</trkpt>
<trkpt lat="41.9587930" lon="1.8903120">
<ele>429.950867</ele>
<time>2022-09-08T06:52:43.000Z</time>
</trkpt>
<trkpt lat="41.9588030" lon="1.8903470">
<ele>430.347137</ele>
<time>2022-09-08T06:52:44.003Z</time>
</trkpt>
<trkpt lat="41.9588140" lon="1.8903780">
<ele>430.621460</ele>
<time>2022-09-08T06:52:44.996Z</time>
</trkpt>
<trkpt lat="41.9588290" lon="1.8904080">
<ele>430.865265</ele>
<time>2022-09-08T06:52:45.998Z</time>
</trkpt>
<trkpt lat="41.9588420" lon="1.8904410">
<ele>431.078644</ele>
<time>2022-09-08T06:52:47.001Z</time>
</trkpt>
<trkpt lat="41.9588570" lon="1.8904760">
<ele>431.261536</ele>
<time>2022-09-08T06:52:48.003Z</time>
</trkpt>
<trkpt lat="41.9588730" lon="1.8905090">
<ele>431.413940</ele>
<time>2022-09-08T06:52:48.996Z</time>
</trkpt>
<trkpt lat="41.9588880" lon="1.8905390">
<ele>431.535858</ele>
<time>2022-09-08T06:52:49.999Z</time>
</trkpt>
<trkpt lat="41.9589010" lon="1.8905700">
<ele>431.688263</ele>
<time>2022-09-08T06:52:51.001Z</time>
</trkpt>
<trkpt lat="41.9589100" lon="1.8906030">
<ele>431.840668</ele>
<time>2022-09-08T06:52:52.003Z</time>
</trkpt>
<trkpt lat="41.9589180" lon="1.8906400">
<ele>432.114960</ele>
<time>2022-09-08T06:52:52.997Z</time>
</trkpt>
<trkpt lat="41.9589270" lon="1.8906790">
<ele>432.389282</ele>
<time>2022-09-08T06:52:53.999Z</time>
</trkpt>
<trkpt lat="41.9589350" lon="1.8907210">
<ele>432.694061</ele>
<time>2022-09-08T06:52:55.001Z</time>
</trkpt>
<trkpt lat="41.9589420" lon="1.8907640">
<ele>433.029358</ele>
<time>2022-09-08T06:52:56.004Z</time>
</trkpt>
<trkpt lat="41.9589460" lon="1.8908050">
<ele>433.395142</ele>
<time>2022-09-08T06:52:56.997Z</time>
</trkpt>
<trkpt lat="41.9589520" lon="1.8908440">
<ele>433.699921</ele>
<time>2022-09-08T06:52:57.999Z</time>
</trkpt>
<trkpt lat="41.9589590" lon="1.8908860">
<ele>434.096130</ele>
<time>2022-09-08T06:52:59.002Z</time>
</trkpt>
<trkpt lat="41.9589600" lon="1.8909320">
<ele>434.583862</ele>
<time>2022-09-08T06:53:00.004Z</time>
</trkpt>
<trkpt lat="41.9589650" lon="1.8909790">
<ele>435.132477</ele>
<time>2022-09-08T06:53:00.997Z</time>
</trkpt>
<trkpt lat="41.9589760" lon="1.8910290">
<ele>435.620148</ele>
<time>2022-09-08T06:53:02.000Z</time>
</trkpt>
<trkpt lat="41.9589850" lon="1.8910770">
<ele>436.168793</ele>
<time>2022-09-08T06:53:03.002Z</time>
</trkpt>
<trkpt lat="41.9589910" lon="1.8911250">
<ele>436.808868</ele>
<time>2022-09-08T06:53:04.004Z</time>
</trkpt>
<trkpt lat="41.9590040" lon="1.8911710">
<ele>437.388000</ele>
<time>2022-09-08T06:53:04.998Z</time>
</trkpt>
<trkpt lat="41.9590210" lon="1.8912150">
<ele>437.906158</ele>
<time>2022-09-08T06:53:06.000Z</time>
</trkpt>
<trkpt lat="41.9590320" lon="1.8912560">
<ele>438.546265</ele>
<time>2022-09-08T06:53:07.002Z</time>
</trkpt>
<trkpt lat="41.9590450" lon="1.8913040">
<ele>439.125336</ele>
<time>2022-09-08T06:53:07.996Z</time>
</trkpt>
<trkpt lat="41.9590660" lon="1.8913500">
<ele>439.613068</ele>
<time>2022-09-08T06:53:08.998Z</time>
</trkpt>
<trkpt lat="41.9590950" lon="1.8913920">
<ele>439.826385</ele>
<time>2022-09-08T06:53:10.000Z</time>
</trkpt>
<trkpt lat="41.9591250" lon="1.8914250">
<ele>439.887360</ele>
<time>2022-09-08T06:53:11.003Z</time>
</trkpt>
<trkpt lat="41.9591580" lon="1.8914530">
<ele>439.795929</ele>
<time>2022-09-08T06:53:11.996Z</time>
</trkpt>
<trkpt lat="41.9591980" lon="1.8914790">
<ele>439.613068</ele>
<time>2022-09-08T06:53:12.998Z</time>
</trkpt>
<trkpt lat="41.9592320" lon="1.8915110">
<ele>439.582550</ele>
<time>2022-09-08T06:53:14.001Z</time>
</trkpt>
<trkpt lat="41.9592690" lon="1.8915470">
<ele>439.552063</ele>
<time>2022-09-08T06:53:15.003Z</time>
</trkpt>
<trkpt lat="41.9593010" lon="1.8915790">
<ele>439.613068</ele>
<time>2022-09-08T06:53:15.996Z</time>
</trkpt>
<trkpt lat="41.9593300" lon="1.8916100">
<ele>439.613068</ele>
<time>2022-09-08T06:53:16.999Z</time>
</trkpt>
<trkpt lat="41.9593610" lon="1.8916470">
<ele>439.734955</ele>
<time>2022-09-08T06:53:18.001Z</time>
</trkpt>
<trkpt lat="41.9593850" lon="1.8916870">
<ele>440.039734</ele>
<time>2022-09-08T06:53:19.003Z</time>
</trkpt>
<trkpt lat="41.9594090" lon="1.8917270">
<ele>440.344543</ele>
<time>2022-09-08T06:53:19.997Z</time>
</trkpt>
<trkpt lat="41.9594350" lon="1.8917690">
<ele>440.649353</ele>
<time>2022-09-08T06:53:20.999Z</time>
</trkpt>
<trkpt lat="41.9594470" lon="1.8918130">
<ele>441.228485</ele>
<time>2022-09-08T06:53:22.001Z</time>
</trkpt>
<trkpt lat="41.9594630" lon="1.8918550">
<ele>441.746643</ele>
<time>2022-09-08T06:53:23.004Z</time>
</trkpt>
<trkpt lat="41.9594820" lon="1.8918980">
<ele>442.203857</ele>
<time>2022-09-08T06:53:23.997Z</time>
</trkpt>
<trkpt lat="41.9595070" lon="1.8919430">
<ele>442.600067</ele>
<time>2022-09-08T06:53:24.999Z</time>
</trkpt>
<trkpt lat="41.9595300" lon="1.8919860">
<ele>443.026794</ele>
<time>2022-09-08T06:53:26.002Z</time>
</trkpt>
<trkpt lat="41.9595530" lon="1.8920300">
<ele>443.484009</ele>
<time>2022-09-08T06:53:27.004Z</time>
</trkpt>
<trkpt lat="41.9595750" lon="1.8920760">
<ele>444.002136</ele>
<time>2022-09-08T06:53:27.997Z</time>
</trkpt>
<trkpt lat="41.9596000" lon="1.8921210">
<ele>444.459351</ele>
<time>2022-09-08T06:53:29.000Z</time>
</trkpt>
<trkpt lat="41.9596260" lon="1.8921670">
<ele>444.855591</ele>
<time>2022-09-08T06:53:30.002Z</time>
</trkpt>
<trkpt lat="41.9596510" lon="1.8922120">
<ele>445.190887</ele>
<time>2022-09-08T06:53:31.004Z</time>
</trkpt>
<trkpt lat="41.9596750" lon="1.8922570">
<ele>445.526154</ele>
<time>2022-09-08T06:53:31.998Z</time>
</trkpt>
<trkpt lat="41.9596950" lon="1.8923030">
<ele>445.952881</ele>
<time>2022-09-08T06:53:33.000Z</time>
</trkpt>
<trkpt lat="41.9597120" lon="1.8923510">
<ele>446.379608</ele>
<time>2022-09-08T06:53:34.002Z</time>
</trkpt>
<trkpt lat="41.9597250" lon="1.8924000">
<ele>446.928253</ele>
<time>2022-09-08T06:53:34.996Z</time>
</trkpt>
<trkpt lat="41.9597300" lon="1.8924510">
<ele>447.629272</ele>
<time>2022-09-08T06:53:35.998Z</time>
</trkpt>
<trkpt lat="41.9597300" lon="1.8925010">
<ele>448.360809</ele>
<time>2022-09-08T06:53:37.000Z</time>
</trkpt>
<trkpt lat="41.9597260" lon="1.8925480">
<ele>449.122803</ele>
<time>2022-09-08T06:53:38.003Z</time>
</trkpt>
<trkpt lat="41.9597190" lon="1.8925840">
<ele>449.701935</ele>
<time>2022-09-08T06:53:38.996Z</time>
</trkpt>
<trkpt lat="41.9597090" lon="1.8926120">
<ele>450.342010</ele>
<time>2022-09-08T06:53:39.998Z</time>
</trkpt>
<trkpt lat="41.9596970" lon="1.8926420">
<ele>451.012543</ele>
<time>2022-09-08T06:53:41.001Z</time>
</trkpt>
<trkpt lat="41.9596910" lon="1.8926720">
<ele>451.561188</ele>
<time>2022-09-08T06:53:42.003Z</time>
</trkpt>
<trkpt lat="41.9596820" lon="1.8926970">
<ele>452.079346</ele>
<time>2022-09-08T06:53:42.996Z</time>
</trkpt>
<trkpt lat="41.9596600" lon="1.8927220">
<ele>452.932800</ele>
<time>2022-09-08T06:53:43.999Z</time>
</trkpt>
<trkpt lat="41.9596370" lon="1.8927450">
<ele>453.755737</ele>
<time>2022-09-08T06:53:45.001Z</time>
</trkpt>
<trkpt lat="41.9596180" lon="1.8927710">
<ele>454.517731</ele>
<time>2022-09-08T06:53:46.003Z</time>
</trkpt>
<trkpt lat="41.9596070" lon="1.8927970">
<ele>455.096863</ele>
<time>2022-09-08T06:53:46.997Z</time>
</trkpt>
<trkpt lat="41.9596000" lon="1.8928280">
<ele>455.645538</ele>
<time>2022-09-08T06:53:47.999Z</time>
</trkpt>
<trkpt lat="41.9595820" lon="1.8928540">
<ele>456.285614</ele>
<time>2022-09-08T06:53:49.001Z</time>
</trkpt>
<trkpt lat="41.9595620" lon="1.8928700">
<ele>457.047607</ele>
<time>2022-09-08T06:53:50.004Z</time>
</trkpt>
<trkpt lat="41.9595420" lon="1.8928650">
<ele>457.443848</ele>
<time>2022-09-08T06:53:50.997Z</time>
</trkpt>
<trkpt lat="41.9595230" lon="1.8928470">
<ele>457.687683</ele>
<time>2022-09-08T06:53:51.999Z</time>
</trkpt>
<trkpt lat="41.9595110" lon="1.8928250">
<ele>457.687683</ele>
<time>2022-09-08T06:53:53.002Z</time>
</trkpt>
<trkpt lat="41.9595050" lon="1.8928000">
<ele>457.565735</ele>
<time>2022-09-08T06:53:54.004Z</time>
</trkpt>
<trkpt lat="41.9594970" lon="1.8927790">
<ele>457.474335</ele>
<time>2022-09-08T06:53:54.997Z</time>
</trkpt>
<trkpt lat="41.9594880" lon="1.8927610">
<ele>457.413330</ele>
<time>2022-09-08T06:53:56.000Z</time>
</trkpt>
<trkpt lat="41.9594860" lon="1.8927430">
<ele>457.260956</ele>
<time>2022-09-08T06:53:57.002Z</time>
</trkpt>
<trkpt lat="41.9594890" lon="1.8927240">
<ele>456.925659</ele>
<time>2022-09-08T06:53:58.004Z</time>
</trkpt>
<trkpt lat="41.9594850" lon="1.8927030">
<ele>456.742798</ele>
<time>2022-09-08T06:53:58.998Z</time>
</trkpt>
<trkpt lat="41.9594830" lon="1.8926780">
<ele>456.377045</ele>
<time>2022-09-08T06:54:00.000Z</time>
</trkpt>
<trkpt lat="41.9594770" lon="1.8926460">
<ele>456.102722</ele>
<time>2022-09-08T06:54:01.002Z</time>
</trkpt>
<trkpt lat="41.9594700" lon="1.8926170">
<ele>455.858887</ele>
<time>2022-09-08T06:54:01.996Z</time>
</trkpt>
<trkpt lat="41.9594610" lon="1.8925930">
<ele>455.645538</ele>
<time>2022-09-08T06:54:02.998Z</time>
</trkpt>
<trkpt lat="41.9594440" lon="1.8925770">
<ele>455.797913</ele>
<time>2022-09-08T06:54:04.000Z</time>
</trkpt>
<trkpt lat="41.9594290" lon="1.8925720">
<ele>455.950317</ele>
<time>2022-09-08T06:54:05.003Z</time>
</trkpt>
<trkpt lat="41.9594180" lon="1.8925820">
<ele>456.346558</ele>
<time>2022-09-08T06:54:05.996Z</time>
</trkpt>
<trkpt lat="41.9594120" lon="1.8925930">
<ele>456.681854</ele>
<time>2022-09-08T06:54:06.998Z</time>
</trkpt>
<trkpt lat="41.9594040" lon="1.8926070">
<ele>457.047607</ele>
<time>2022-09-08T06:54:08.001Z</time>
</trkpt>
<trkpt lat="41.9594020" lon="1.8926230">
<ele>457.352386</ele>
<time>2022-09-08T06:54:09.003Z</time>
</trkpt>
<trkpt lat="41.9593930" lon="1.8926380">
<ele>457.718140</ele>
<time>2022-09-08T06:54:09.996Z</time>
</trkpt>
<trkpt lat="41.9593820" lon="1.8926500">
<ele>458.114410</ele>
<time>2022-09-08T06:54:10.999Z</time>
</trkpt>
<trkpt lat="41.9593720" lon="1.8926630">
<ele>458.449677</ele>
<time>2022-09-08T06:54:12.001Z</time>
</trkpt>
<trkpt lat="41.9593710" lon="1.8926820">
<ele>458.784943</ele>
<time>2022-09-08T06:54:13.003Z</time>
</trkpt>
<trkpt lat="41.9593760" lon="1.8927050">
<ele>458.967865</ele>
<time>2022-09-08T06:54:13.997Z</time>
</trkpt>
<trkpt lat="41.9593730" lon="1.8927220">
<ele>459.272644</ele>
<time>2022-09-08T06:54:14.999Z</time>
</trkpt>
<trkpt lat="41.9593670" lon="1.8927350">
<ele>459.577454</ele>
<time>2022-09-08T06:54:16.001Z</time>
</trkpt>
<trkpt lat="41.9593610" lon="1.8927510">
<ele>459.851746</ele>
<time>2022-09-08T06:54:17.004Z</time>
</trkpt>
<trkpt lat="41.9593550" lon="1.8927690">
<ele>460.217529</ele>
<time>2022-09-08T06:54:17.997Z</time>
</trkpt>
<trkpt lat="41.9593410" lon="1.8927820">
<ele>460.674713</ele>
<time>2022-09-08T06:54:18.999Z</time>
</trkpt>
<trkpt lat="41.9593340" lon="1.8927870">
<ele>460.796661</ele>
<time>2022-09-08T06:54:20.002Z</time>
</trkpt>
<trkpt lat="41.9593290" lon="1.8927860">
<ele>460.918549</ele>
<time>2022-09-08T06:54:21.004Z</time>
</trkpt>
<trkpt lat="41.9593250" lon="1.8927830">
<ele>460.949066</ele>
<time>2022-09-08T06:54:21.997Z</time>
</trkpt>
<trkpt lat="41.9593230" lon="1.8927750">
<ele>460.857605</ele>
<time>2022-09-08T06:54:23.000Z</time>
</trkpt>
<trkpt lat="41.9593240" lon="1.8927620">
<ele>460.674713</ele>
<time>2022-09-08T06:54:24.002Z</time>
</trkpt>
<trkpt lat="41.9593260" lon="1.8927450">
<ele>460.400391</ele>
<time>2022-09-08T06:54:25.004Z</time>
</trkpt>
<trkpt lat="41.9593310" lon="1.8927250">
<ele>460.065125</ele>
<time>2022-09-08T06:54:25.998Z</time>
</trkpt>
<trkpt lat="41.9593310" lon="1.8927170">
<ele>459.973663</ele>
<time>2022-09-08T06:54:27.000Z</time>
</trkpt>
<trkpt lat="41.9593310" lon="1.8927170">
<ele>459.973663</ele>
<time>2022-09-08T06:54:28.002Z</time>
</trkpt>
<trkpt lat="41.9593200" lon="1.8927290">
<ele>460.339447</ele>
<time>2022-09-08T06:54:28.996Z</time>
</trkpt>
<trkpt lat="41.9593080" lon="1.8927360">
<ele>460.613739</ele>
<time>2022-09-08T06:54:29.998Z</time>
</trkpt>
<trkpt lat="41.9592880" lon="1.8927390">
<ele>460.979523</ele>
<time>2022-09-08T06:54:31.000Z</time>
</trkpt>
<trkpt lat="41.9592770" lon="1.8927370">
<ele>461.162415</ele>
<time>2022-09-08T06:54:32.003Z</time>
</trkpt>
<trkpt lat="41.9592740" lon="1.8927330">
<ele>461.162415</ele>
<time>2022-09-08T06:54:32.996Z</time>
</trkpt>
<trkpt lat="41.9592740" lon="1.8927330">
<ele>461.162415</ele>
<time>2022-09-08T06:54:33.998Z</time>
</trkpt>
<trkpt lat="41.9592730" lon="1.8927330">
<ele>461.162415</ele>
<time>2022-09-08T06:54:35.001Z</time>
</trkpt>
<trkpt lat="41.9592700" lon="1.8927370">
<ele>461.284332</ele>
<time>2022-09-08T06:54:36.003Z</time>
</trkpt>
<trkpt lat="41.9592700" lon="1.8927370">
<ele>461.284332</ele>
<time>2022-09-08T06:54:36.996Z</time>
</trkpt>
<trkpt lat="41.9592670" lon="1.8927390">
<ele>461.375732</ele>
<time>2022-09-08T06:54:37.999Z</time>
</trkpt>
<trkpt lat="41.9592650" lon="1.8927610">
<ele>461.650085</ele>
<time>2022-09-08T06:54:39.001Z</time>
</trkpt>
<trkpt lat="41.9592620" lon="1.8927830">
<ele>461.954865</ele>
<time>2022-09-08T06:54:40.003Z</time>
</trkpt>
<trkpt lat="41.9592490" lon="1.8928080">
<ele>462.473053</ele>
<time>2022-09-08T06:54:40.997Z</time>
</trkpt>
<trkpt lat="41.9592360" lon="1.8928350">
<ele>462.960724</ele>
<time>2022-09-08T06:54:41.999Z</time>
</trkpt>
<trkpt lat="41.9592230" lon="1.8928490">
<ele>463.265533</ele>
<time>2022-09-08T06:54:43.001Z</time>
</trkpt>
<trkpt lat="41.9592070" lon="1.8928650">
<ele>463.692261</ele>
<time>2022-09-08T06:54:44.004Z</time>
</trkpt>
<trkpt lat="41.9591950" lon="1.8928700">
<ele>463.875122</ele>
<time>2022-09-08T06:54:44.997Z</time>
</trkpt>
<trkpt lat="41.9591810" lon="1.8928690">
<ele>464.027527</ele>
<time>2022-09-08T06:54:45.999Z</time>
</trkpt>
<trkpt lat="41.9591630" lon="1.8928610">
<ele>464.179932</ele>
<time>2022-09-08T06:54:47.002Z</time>
</trkpt>
<trkpt lat="41.9591460" lon="1.8928530">
<ele>464.332336</ele>
<time>2022-09-08T06:54:48.004Z</time>
</trkpt>
<trkpt lat="41.9591310" lon="1.8928410">
<ele>464.393280</ele>
<time>2022-09-08T06:54:48.997Z</time>
</trkpt>
<trkpt lat="41.9591240" lon="1.8928210">
<ele>464.271332</ele>
<time>2022-09-08T06:54:50.000Z</time>
</trkpt>
<trkpt lat="41.9591140" lon="1.8927970">
<ele>464.149445</ele>
<time>2022-09-08T06:54:51.002Z</time>
</trkpt>
<trkpt lat="41.9591120" lon="1.8927810">
<ele>464.027527</ele>
<time>2022-09-08T06:54:52.004Z</time>
</trkpt>
<trkpt lat="41.9591060" lon="1.8927730">
<ele>463.997040</ele>
<time>2022-09-08T06:54:52.998Z</time>
</trkpt>
<trkpt lat="41.9590910" lon="1.8927640">
<ele>464.088470</ele>
<time>2022-09-08T06:54:54.000Z</time>
</trkpt>
<trkpt lat="41.9590710" lon="1.8927680">
<ele>464.332336</ele>
<time>2022-09-08T06:54:55.002Z</time>
</trkpt>
<trkpt lat="41.9590470" lon="1.8927800">
<ele>464.728546</ele>
<time>2022-09-08T06:54:55.996Z</time>
</trkpt>
<trkpt lat="41.9590380" lon="1.8927960">
<ele>464.972412</ele>
<time>2022-09-08T06:54:56.998Z</time>
</trkpt>
<trkpt lat="41.9590300" lon="1.8928150">
<ele>465.216248</ele>
<time>2022-09-08T06:54:58.000Z</time>
</trkpt>
<trkpt lat="41.9590280" lon="1.8928350">
<ele>465.399139</ele>
<time>2022-09-08T06:54:59.003Z</time>
</trkpt>
<trkpt lat="41.9590320" lon="1.8928530">
<ele>465.521057</ele>
<time>2022-09-08T06:54:59.996Z</time>
</trkpt>
<trkpt lat="41.9590300" lon="1.8928680">
<ele>465.612488</ele>
<time>2022-09-08T06:55:00.998Z</time>
</trkpt>
<trkpt lat="41.9590310" lon="1.8928850">
<ele>465.734406</ele>
<time>2022-09-08T06:55:02.001Z</time>
</trkpt>
<trkpt lat="41.9590280" lon="1.8929020">
<ele>465.886810</ele>
<time>2022-09-08T06:55:03.003Z</time>
</trkpt>
<trkpt lat="41.9590210" lon="1.8929200">
<ele>466.039215</ele>
<time>2022-09-08T06:55:03.996Z</time>
</trkpt>
<trkpt lat="41.9590100" lon="1.8929420">
<ele>466.313538</ele>
<time>2022-09-08T06:55:04.999Z</time>
</trkpt>
<trkpt lat="41.9590080" lon="1.8929660">
<ele>466.557343</ele>
<time>2022-09-08T06:55:06.001Z</time>
</trkpt>
<trkpt lat="41.9590040" lon="1.8929920">
<ele>466.770721</ele>
<time>2022-09-08T06:55:07.003Z</time>
</trkpt>
<trkpt lat="41.9590070" lon="1.8930210">
<ele>466.953613</ele>
<time>2022-09-08T06:55:07.997Z</time>
</trkpt>
<trkpt lat="41.9590110" lon="1.8930500">
<ele>467.105988</ele>
<time>2022-09-08T06:55:08.999Z</time>
</trkpt>
<trkpt lat="41.9590190" lon="1.8930800">
<ele>467.197449</ele>
<time>2022-09-08T06:55:10.001Z</time>
</trkpt>
<trkpt lat="41.9590280" lon="1.8931120">
<ele>467.319336</ele>
<time>2022-09-08T06:55:11.004Z</time>
</trkpt>
<trkpt lat="41.9590390" lon="1.8931460">
<ele>467.380341</ele>
<time>2022-09-08T06:55:11.997Z</time>
</trkpt>
<trkpt lat="41.9590500" lon="1.8931830">
<ele>467.441284</ele>
<time>2022-09-08T06:55:12.999Z</time>
</trkpt>
<trkpt lat="41.9590560" lon="1.8932190">
<ele>467.471741</ele>
<time>2022-09-08T06:55:14.002Z</time>
</trkpt>
<trkpt lat="41.9590550" lon="1.8932530">
<ele>467.532715</ele>
<time>2022-09-08T06:55:15.004Z</time>
</trkpt>
<trkpt lat="41.9590500" lon="1.8932820">
<ele>467.563202</ele>
<time>2022-09-08T06:55:15.997Z</time>
</trkpt>
<trkpt lat="41.9590490" lon="1.8933090">
<ele>467.563202</ele>
<time>2022-09-08T06:55:17.000Z</time>
</trkpt>
<trkpt lat="41.9590510" lon="1.8933400">
<ele>467.563202</ele>
<time>2022-09-08T06:55:18.002Z</time>
</trkpt>
<trkpt lat="41.9590420" lon="1.8933770">
<ele>467.532715</ele>
<time>2022-09-08T06:55:19.004Z</time>
</trkpt>
<trkpt lat="41.9590330" lon="1.8934150">
<ele>467.471741</ele>
<time>2022-09-08T06:55:19.998Z</time>
</trkpt>
<trkpt lat="41.9590280" lon="1.8934540">
<ele>467.380341</ele>
<time>2022-09-08T06:55:21.000Z</time>
</trkpt>
<trkpt lat="41.9590260" lon="1.8934910">
<ele>467.258392</ele>
<time>2022-09-08T06:55:22.002Z</time>
</trkpt>
<trkpt lat="41.9590310" lon="1.8935310">
<ele>467.136475</ele>
<time>2022-09-08T06:55:22.996Z</time>
</trkpt>
<trkpt lat="41.9590290" lon="1.8935660">
<ele>467.014557</ele>
<time>2022-09-08T06:55:23.998Z</time>
</trkpt>
<trkpt lat="41.9590290" lon="1.8935990">
<ele>466.892670</ele>
<time>2022-09-08T06:55:25.000Z</time>
</trkpt>
<trkpt lat="41.9590380" lon="1.8936350">
<ele>466.801208</ele>
<time>2022-09-08T06:55:26.003Z</time>
</trkpt>
<trkpt lat="41.9590410" lon="1.8936750">
<ele>466.648804</ele>
<time>2022-09-08T06:55:26.996Z</time>
</trkpt>
<trkpt lat="41.9590520" lon="1.8937230">
<ele>466.496399</ele>
<time>2022-09-08T06:55:27.998Z</time>
</trkpt>
<trkpt lat="41.9590460" lon="1.8937680">
<ele>466.283051</ele>
<time>2022-09-08T06:55:29.001Z</time>
</trkpt>
<trkpt lat="41.9590480" lon="1.8938160">
<ele>466.039215</ele>
<time>2022-09-08T06:55:30.003Z</time>
</trkpt>
<trkpt lat="41.9590410" lon="1.8938520">
<ele>465.795349</ele>
<time>2022-09-08T06:55:30.996Z</time>
</trkpt>
<trkpt lat="41.9590250" lon="1.8938850">
<ele>465.490540</ele>
<time>2022-09-08T06:55:31.999Z</time>
</trkpt>
<trkpt lat="41.9590050" lon="1.8939230">
<ele>465.124786</ele>
<time>2022-09-08T06:55:33.001Z</time>
</trkpt>
<trkpt lat="41.9589960" lon="1.8939660">
<ele>464.789520</ele>
<time>2022-09-08T06:55:34.003Z</time>
</trkpt>
<trkpt lat="41.9589880" lon="1.8940100">
<ele>464.454254</ele>
<time>2022-09-08T06:55:34.997Z</time>
</trkpt>
<trkpt lat="41.9589830" lon="1.8940450">
<ele>464.210388</ele>
<time>2022-09-08T06:55:35.999Z</time>
</trkpt>
<trkpt lat="41.9589860" lon="1.8940800">
<ele>463.966553</ele>
<time>2022-09-08T06:55:37.001Z</time>
</trkpt>
<trkpt lat="41.9589830" lon="1.8941180">
<ele>463.753204</ele>
<time>2022-09-08T06:55:38.004Z</time>
</trkpt>
<trkpt lat="41.9589730" lon="1.8941580">
<ele>463.478882</ele>
<time>2022-09-08T06:55:38.997Z</time>
</trkpt>
<trkpt lat="41.9589640" lon="1.8941920">
<ele>463.265533</ele>
<time>2022-09-08T06:55:39.999Z</time>
</trkpt>
<trkpt lat="41.9589580" lon="1.8942280">
<ele>463.052155</ele>
<time>2022-09-08T06:55:41.002Z</time>
</trkpt>
<trkpt lat="41.9589530" lon="1.8942650">
<ele>462.930267</ele>
<time>2022-09-08T06:55:42.004Z</time>
</trkpt>
<trkpt lat="41.9589520" lon="1.8942950">
<ele>462.869263</ele>
<time>2022-09-08T06:55:42.997Z</time>
</trkpt>
<trkpt lat="41.9589490" lon="1.8943410">
<ele>462.777863</ele>
<time>2022-09-08T06:55:44.000Z</time>
</trkpt>
<trkpt lat="41.9589450" lon="1.8943790">
<ele>462.777863</ele>
<time>2022-09-08T06:55:45.002Z</time>
</trkpt>
<trkpt lat="41.9589430" lon="1.8944220">
<ele>462.808319</ele>
<time>2022-09-08T06:55:46.004Z</time>
</trkpt>
<trkpt lat="41.9589430" lon="1.8944660">
<ele>462.960724</ele>
<time>2022-09-08T06:55:46.998Z</time>
</trkpt>
<trkpt lat="41.9589410" lon="1.8945090">
<ele>463.204559</ele>
<time>2022-09-08T06:55:48.000Z</time>
</trkpt>
<trkpt lat="41.9589390" lon="1.8945480">
<ele>463.448395</ele>
<time>2022-09-08T06:55:49.002Z</time>
</trkpt>
<trkpt lat="41.9589370" lon="1.8945870">
<ele>463.783661</ele>
<time>2022-09-08T06:55:49.996Z</time>
</trkpt>
<trkpt lat="41.9589370" lon="1.8946250">
<ele>464.088470</ele>
<time>2022-09-08T06:55:50.998Z</time>
</trkpt>
<trkpt lat="41.9589340" lon="1.8946600">
<ele>464.393280</ele>
<time>2022-09-08T06:55:52.000Z</time>
</trkpt>
<trkpt lat="41.9589280" lon="1.8946970">
<ele>464.698059</ele>
<time>2022-09-08T06:55:53.003Z</time>
</trkpt>
<trkpt lat="41.9589210" lon="1.8947360">
<ele>465.063843</ele>
<time>2022-09-08T06:55:53.996Z</time>
</trkpt>
<trkpt lat="41.9589140" lon="1.8947780">
<ele>465.521057</ele>
<time>2022-09-08T06:55:54.998Z</time>
</trkpt>
<trkpt lat="41.9589060" lon="1.8948190">
<ele>465.947754</ele>
<time>2022-09-08T06:55:56.001Z</time>
</trkpt>
<trkpt lat="41.9589040" lon="1.8948620">
<ele>466.526886</ele>
<time>2022-09-08T06:55:57.003Z</time>
</trkpt>
<trkpt lat="41.9588990" lon="1.8949050">
<ele>467.075531</ele>
<time>2022-09-08T06:55:57.996Z</time>
</trkpt>
<trkpt lat="41.9588930" lon="1.8949490">
<ele>467.654663</ele>
<time>2022-09-08T06:55:58.999Z</time>
</trkpt>
<trkpt lat="41.9588840" lon="1.8949900">
<ele>468.172791</ele>
<time>2022-09-08T06:56:00.001Z</time>
</trkpt>
<trkpt lat="41.9588700" lon="1.8950310">
<ele>468.599518</ele>
<time>2022-09-08T06:56:01.003Z</time>
</trkpt>
<trkpt lat="41.9588550" lon="1.8950610">
<ele>468.873840</ele>
<time>2022-09-08T06:56:01.997Z</time>
</trkpt>
<trkpt lat="41.9588260" lon="1.8951020">
<ele>469.087189</ele>
<time>2022-09-08T06:56:02.999Z</time>
</trkpt>
<trkpt lat="41.9587930" lon="1.8951310">
<ele>469.087189</ele>
<time>2022-09-08T06:56:04.001Z</time>
</trkpt>
<trkpt lat="41.9587600" lon="1.8951550">
<ele>468.934814</ele>
<time>2022-09-08T06:56:05.004Z</time>
</trkpt>
<trkpt lat="41.9587280" lon="1.8951700">
<ele>468.751923</ele>
<time>2022-09-08T06:56:05.997Z</time>
</trkpt>
<trkpt lat="41.9587010" lon="1.8951780">
<ele>468.569061</ele>
<time>2022-09-08T06:56:06.999Z</time>
</trkpt>
<trkpt lat="41.9586670" lon="1.8951850">
<ele>468.233734</ele>
<time>2022-09-08T06:56:08.002Z</time>
</trkpt>
<trkpt lat="41.9586300" lon="1.8951900">
<ele>467.776550</ele>
<time>2022-09-08T06:56:09.004Z</time>
</trkpt>
<trkpt lat="41.9585980" lon="1.8951970">
<ele>467.441284</ele>
<time>2022-09-08T06:56:09.997Z</time>
</trkpt>
<trkpt lat="41.9585650" lon="1.8952150">
<ele>467.136475</ele>
<time>2022-09-08T06:56:11.000Z</time>
</trkpt>
<trkpt lat="41.9585400" lon="1.8952500">
<ele>467.136475</ele>
<time>2022-09-08T06:56:12.002Z</time>
</trkpt>
<trkpt lat="41.9585280" lon="1.8952920">
<ele>467.319336</ele>
<time>2022-09-08T06:56:13.004Z</time>
</trkpt>
<trkpt lat="41.9585180" lon="1.8953570">
<ele>467.776550</ele>
<time>2022-09-08T06:56:13.998Z</time>
</trkpt>
<trkpt lat="41.9585220" lon="1.8954080">
<ele>468.264252</ele>
<time>2022-09-08T06:56:15.000Z</time>
</trkpt>
<trkpt lat="41.9585350" lon="1.8954540">
<ele>468.690948</ele>
<time>2022-09-08T06:56:16.002Z</time>
</trkpt>
<trkpt lat="41.9585540" lon="1.8954970">
<ele>469.178650</ele>
<time>2022-09-08T06:56:16.996Z</time>
</trkpt>
<trkpt lat="41.9585730" lon="1.8955310">
<ele>469.605347</ele>
<time>2022-09-08T06:56:17.998Z</time>
</trkpt>
<trkpt lat="41.9585920" lon="1.8955550">
<ele>470.001587</ele>
<time>2022-09-08T06:56:19.000Z</time>
</trkpt>
<trkpt lat="41.9586110" lon="1.8955760">
<ele>470.397858</ele>
<time>2022-09-08T06:56:20.003Z</time>
</trkpt>
<trkpt lat="41.9586310" lon="1.8955980">
<ele>470.763611</ele>
<time>2022-09-08T06:56:20.996Z</time>
</trkpt>
<trkpt lat="41.9586530" lon="1.8956250">
<ele>471.220795</ele>
<time>2022-09-08T06:56:21.998Z</time>
</trkpt>
<trkpt lat="41.9586740" lon="1.8956520">
<ele>471.678009</ele>
<time>2022-09-08T06:56:23.001Z</time>
</trkpt>
<trkpt lat="41.9586900" lon="1.8956860">
<ele>472.013275</ele>
<time>2022-09-08T06:56:24.003Z</time>
</trkpt>
<trkpt lat="41.9587030" lon="1.8957220">
<ele>472.257141</ele>
<time>2022-09-08T06:56:24.996Z</time>
</trkpt>
<trkpt lat="41.9587150" lon="1.8957570">
<ele>472.500946</ele>
<time>2022-09-08T06:56:25.999Z</time>
</trkpt>
<trkpt lat="41.9587250" lon="1.8957900">
<ele>472.775269</ele>
<time>2022-09-08T06:56:27.001Z</time>
</trkpt>
<trkpt lat="41.9587350" lon="1.8958270">
<ele>473.019135</ele>
<time>2022-09-08T06:56:28.003Z</time>
</trkpt>
<trkpt lat="41.9587410" lon="1.8958670">
<ele>473.141052</ele>
<time>2022-09-08T06:56:28.997Z</time>
</trkpt>
<trkpt lat="41.9587440" lon="1.8959060">
<ele>473.293457</ele>
<time>2022-09-08T06:56:29.999Z</time>
</trkpt>
<trkpt lat="41.9587470" lon="1.8959460">
<ele>473.415344</ele>
<time>2022-09-08T06:56:31.001Z</time>
</trkpt>
<trkpt lat="41.9587490" lon="1.8959810">
<ele>473.506805</ele>
<time>2022-09-08T06:56:32.004Z</time>
</trkpt>
<trkpt lat="41.9587520" lon="1.8960270">
<ele>473.720154</ele>
<time>2022-09-08T06:56:32.997Z</time>
</trkpt>
<trkpt lat="41.9587570" lon="1.8960790">
<ele>473.994476</ele>
<time>2022-09-08T06:56:33.999Z</time>
</trkpt>
<trkpt lat="41.9587600" lon="1.8961190">
<ele>474.268799</ele>
<time>2022-09-08T06:56:35.002Z</time>
</trkpt>
<trkpt lat="41.9587620" lon="1.8961600">
<ele>474.604065</ele>
<time>2022-09-08T06:56:36.004Z</time>
</trkpt>
<trkpt lat="41.9587620" lon="1.8962060">
<ele>474.908875</ele>
<time>2022-09-08T06:56:36.997Z</time>
</trkpt>
<trkpt lat="41.9587560" lon="1.8962550">
<ele>475.122253</ele>
<time>2022-09-08T06:56:38.000Z</time>
</trkpt>
<trkpt lat="41.9587430" lon="1.8963070">
<ele>475.335602</ele>
<time>2022-09-08T06:56:39.002Z</time>
</trkpt>
<trkpt lat="41.9587310" lon="1.8963580">
<ele>475.548950</ele>
<time>2022-09-08T06:56:40.004Z</time>
</trkpt>
<trkpt lat="41.9587150" lon="1.8964090">
<ele>475.640411</ele>
<time>2022-09-08T06:56:40.998Z</time>
</trkpt>
<trkpt lat="41.9586990" lon="1.8964590">
<ele>475.823273</ele>
<time>2022-09-08T06:56:42.000Z</time>
</trkpt>
<trkpt lat="41.9586870" lon="1.8964990">
<ele>476.006134</ele>
<time>2022-09-08T06:56:43.002Z</time>
</trkpt>
<trkpt lat="41.9586670" lon="1.8965520">
<ele>476.219513</ele>
<time>2022-09-08T06:56:43.996Z</time>
</trkpt>
<trkpt lat="41.9586440" lon="1.8965900">
<ele>476.250000</ele>
<time>2022-09-08T06:56:44.998Z</time>
</trkpt>
<trkpt lat="41.9586170" lon="1.8966230">
<ele>476.219513</ele>
<time>2022-09-08T06:56:46.000Z</time>
</trkpt>
<trkpt lat="41.9585870" lon="1.8966510">
<ele>476.128082</ele>
<time>2022-09-08T06:56:47.003Z</time>
</trkpt>
<trkpt lat="41.9585540" lon="1.8966750">
<ele>476.006134</ele>
<time>2022-09-08T06:56:47.996Z</time>
</trkpt>
<trkpt lat="41.9585150" lon="1.8966980">
<ele>475.945190</ele>
<time>2022-09-08T06:56:48.998Z</time>
</trkpt>
<trkpt lat="41.9584760" lon="1.8967280">
<ele>476.067139</ele>
<time>2022-09-08T06:56:50.001Z</time>
</trkpt>
<trkpt lat="41.9584330" lon="1.8967620">
<ele>476.341461</ele>
<time>2022-09-08T06:56:51.003Z</time>
</trkpt>
<trkpt lat="41.9583940" lon="1.8967980">
<ele>476.768158</ele>
<time>2022-09-08T06:56:51.996Z</time>
</trkpt>
<trkpt lat="41.9583620" lon="1.8968300">
<ele>477.255859</ele>
<time>2022-09-08T06:56:52.999Z</time>
</trkpt>
<trkpt lat="41.9583210" lon="1.8968600">
<ele>477.773987</ele>
<time>2022-09-08T06:56:54.001Z</time>
</trkpt>
<trkpt lat="41.9582900" lon="1.8968830">
<ele>478.200714</ele>
<time>2022-09-08T06:56:55.003Z</time>
</trkpt>
<trkpt lat="41.9582670" lon="1.8969030">
<ele>478.596954</ele>
<time>2022-09-08T06:56:55.997Z</time>
</trkpt>
<trkpt lat="41.9582400" lon="1.8969220">
<ele>479.023682</ele>
<time>2022-09-08T06:56:56.999Z</time>
</trkpt>
<trkpt lat="41.9582100" lon="1.8969480">
<ele>479.602814</ele>
<time>2022-09-08T06:56:58.001Z</time>
</trkpt>
<trkpt lat="41.9581800" lon="1.8969880">
<ele>480.334320</ele>
<time>2022-09-08T06:56:59.004Z</time>
</trkpt>
<trkpt lat="41.9581610" lon="1.8970360">
<ele>481.035339</ele>
<time>2022-09-08T06:56:59.997Z</time>
</trkpt>
<trkpt lat="41.9581530" lon="1.8970810">
<ele>481.523041</ele>
<time>2022-09-08T06:57:00.999Z</time>
</trkpt>
<trkpt lat="41.9581570" lon="1.8971140">
<ele>481.827850</ele>
<time>2022-09-08T06:57:02.002Z</time>
</trkpt>
<trkpt lat="41.9581750" lon="1.8971510">
<ele>482.041199</ele>
<time>2022-09-08T06:57:03.004Z</time>
</trkpt>
<trkpt lat="41.9581920" lon="1.8971690">
<ele>482.102142</ele>
<time>2022-09-08T06:57:03.997Z</time>
</trkpt>
<trkpt lat="41.9582220" lon="1.8971840">
<ele>482.041199</ele>
<time>2022-09-08T06:57:05.000Z</time>
</trkpt>
<trkpt lat="41.9582480" lon="1.8971880">
<ele>481.919281</ele>
<time>2022-09-08T06:57:06.002Z</time>
</trkpt>
<trkpt lat="41.9582730" lon="1.8971840">
<ele>481.766876</ele>
<time>2022-09-08T06:57:07.004Z</time>
</trkpt>
<trkpt lat="41.9582980" lon="1.8971750">
<ele>481.614471</ele>
<time>2022-09-08T06:57:07.998Z</time>
</trkpt>
<trkpt lat="41.9583240" lon="1.8971650">
<ele>481.431610</ele>
<time>2022-09-08T06:57:09.000Z</time>
</trkpt>
<trkpt lat="41.9583480" lon="1.8971520">
<ele>481.248718</ele>
<time>2022-09-08T06:57:10.002Z</time>
</trkpt>
<trkpt lat="41.9583720" lon="1.8971320">
<ele>481.004883</ele>
<time>2022-09-08T06:57:10.996Z</time>
</trkpt>
<trkpt lat="41.9583930" lon="1.8971090">
<ele>480.730560</ele>
<time>2022-09-08T06:57:11.998Z</time>
</trkpt>
<trkpt lat="41.9584140" lon="1.8970830">
<ele>480.425751</ele>
<time>2022-09-08T06:57:13.000Z</time>
</trkpt>
<trkpt lat="41.9584360" lon="1.8970600">
<ele>480.212402</ele>
<time>2022-09-08T06:57:14.003Z</time>
</trkpt>
<trkpt lat="41.9584610" lon="1.8970370">
<ele>480.029541</ele>
<time>2022-09-08T06:57:14.996Z</time>
</trkpt>
<trkpt lat="41.9584870" lon="1.8970130">
<ele>479.846649</ele>
<time>2022-09-08T06:57:15.998Z</time>
</trkpt>
<trkpt lat="41.9585170" lon="1.8969920">
<ele>479.755188</ele>
<time>2022-09-08T06:57:17.001Z</time>
</trkpt>
<trkpt lat="41.9585480" lon="1.8969690">
<ele>479.724731</ele>
<time>2022-09-08T06:57:18.003Z</time>
</trkpt>
<trkpt lat="41.9585760" lon="1.8969460">
<ele>479.663757</ele>
<time>2022-09-08T06:57:18.996Z</time>
</trkpt>
<trkpt lat="41.9586010" lon="1.8969240">
<ele>479.694244</ele>
<time>2022-09-08T06:57:19.999Z</time>
</trkpt>
<trkpt lat="41.9586270" lon="1.8969030">
<ele>479.724731</ele>
<time>2022-09-08T06:57:21.001Z</time>
</trkpt>
<trkpt lat="41.9586550" lon="1.8968820">
<ele>479.907593</ele>
<time>2022-09-08T06:57:22.003Z</time>
</trkpt>
<trkpt lat="41.9586790" lon="1.8968600">
<ele>479.999054</ele>
<time>2022-09-08T06:57:22.997Z</time>
</trkpt>
<trkpt lat="41.9587100" lon="1.8968330">
<ele>480.242859</ele>
<time>2022-09-08T06:57:23.999Z</time>
</trkpt>
<trkpt lat="41.9587440" lon="1.8968130">
<ele>480.700073</ele>
<time>2022-09-08T06:57:25.001Z</time>
</trkpt>
<trkpt lat="41.9587740" lon="1.8967930">
<ele>481.187744</ele>
<time>2022-09-08T06:57:26.004Z</time>
</trkpt>
<trkpt lat="41.9588020" lon="1.8967730">
<ele>481.644958</ele>
<time>2022-09-08T06:57:26.997Z</time>
</trkpt>
<trkpt lat="41.9588270" lon="1.8967560">
<ele>482.193604</ele>
<time>2022-09-08T06:57:27.999Z</time>
</trkpt>
<trkpt lat="41.9588670" lon="1.8967320">
<ele>483.016541</ele>
<time>2022-09-08T06:57:29.002Z</time>
</trkpt>
<trkpt lat="41.9588950" lon="1.8967080">
<ele>483.656647</ele>
<time>2022-09-08T06:57:30.004Z</time>
</trkpt>
<trkpt lat="41.9589150" lon="1.8966870">
<ele>483.991913</ele>
<time>2022-09-08T06:57:30.997Z</time>
</trkpt>
<trkpt lat="41.9589340" lon="1.8966650">
<ele>484.327209</ele>
<time>2022-09-08T06:57:32.000Z</time>
</trkpt>
<trkpt lat="41.9589590" lon="1.8966340">
<ele>484.692932</ele>
<time>2022-09-08T06:57:33.002Z</time>
</trkpt>
<trkpt lat="41.9589840" lon="1.8966210">
<ele>485.394012</ele>
<time>2022-09-08T06:57:34.004Z</time>
</trkpt>
<trkpt lat="41.9590120" lon="1.8966060">
<ele>486.064545</ele>
<time>2022-09-08T06:57:34.998Z</time>
</trkpt>
<trkpt lat="41.9590290" lon="1.8965800">
<ele>486.369354</ele>
<time>2022-09-08T06:57:36.000Z</time>
</trkpt>
<trkpt lat="41.9590330" lon="1.8965530">
<ele>486.186462</ele>
<time>2022-09-08T06:57:37.002Z</time>
</trkpt>
<trkpt lat="41.9590380" lon="1.8965270">
<ele>485.973114</ele>
<time>2022-09-08T06:57:37.996Z</time>
</trkpt>
<trkpt lat="41.9590400" lon="1.8964950">
<ele>485.729279</ele>
<time>2022-09-08T06:57:38.998Z</time>
</trkpt>
<trkpt lat="41.9590400" lon="1.8964670">
<ele>485.394012</ele>
<time>2022-09-08T06:57:40.000Z</time>
</trkpt>
<trkpt lat="41.9590560" lon="1.8964470">
<ele>485.607330</ele>
<time>2022-09-08T06:57:41.003Z</time>
</trkpt>
<trkpt lat="41.9590710" lon="1.8964320">
<ele>485.881683</ele>
<time>2022-09-08T06:57:41.996Z</time>
</trkpt>
<trkpt lat="41.9590860" lon="1.8964170">
<ele>486.156006</ele>
<time>2022-09-08T06:57:42.998Z</time>
</trkpt>
<trkpt lat="41.9591070" lon="1.8963970">
<ele>486.430328</ele>
<time>2022-09-08T06:57:44.001Z</time>
</trkpt>
<trkpt lat="41.9591260" lon="1.8963800">
<ele>486.765594</ele>
<time>2022-09-08T06:57:45.003Z</time>
</trkpt>
<trkpt lat="41.9591540" lon="1.8963600">
<ele>487.222809</ele>
<time>2022-09-08T06:57:45.996Z</time>
</trkpt>
<trkpt lat="41.9591830" lon="1.8963430">
<ele>487.771454</ele>
<time>2022-09-08T06:57:46.999Z</time>
</trkpt>
<trkpt lat="41.9592130" lon="1.8963250">
<ele>488.259125</ele>
<time>2022-09-08T06:57:48.001Z</time>
</trkpt>
<trkpt lat="41.9592380" lon="1.8963080">
<ele>488.533447</ele>
<time>2022-09-08T06:57:49.003Z</time>
</trkpt>
<trkpt lat="41.9592570" lon="1.8962950">
<ele>488.746796</ele>
<time>2022-09-08T06:57:49.997Z</time>
</trkpt>
<trkpt lat="41.9592810" lon="1.8962860">
<ele>489.143066</ele>
<time>2022-09-08T06:57:50.999Z</time>
</trkpt>
<trkpt lat="41.9593080" lon="1.8962800">
<ele>489.539276</ele>
<time>2022-09-08T06:57:52.001Z</time>
</trkpt>
<trkpt lat="41.9593300" lon="1.8962880">
<ele>490.087921</ele>
<time>2022-09-08T06:57:53.004Z</time>
</trkpt>
<trkpt lat="41.9593560" lon="1.8963020">
<ele>490.697540</ele>
<time>2022-09-08T06:57:53.997Z</time>
</trkpt>
<trkpt lat="41.9593840" lon="1.8963260">
<ele>491.550934</ele>
<time>2022-09-08T06:57:54.999Z</time>
</trkpt>
<trkpt lat="41.9594070" lon="1.8963530">
<ele>492.343445</ele>
<time>2022-09-08T06:57:56.002Z</time>
</trkpt>
<trkpt lat="41.9594270" lon="1.8963770">
<ele>493.014008</ele>
<time>2022-09-08T06:57:57.004Z</time>
</trkpt>
<trkpt lat="41.9594430" lon="1.8964060">
<ele>493.715057</ele>
<time>2022-09-08T06:57:57.997Z</time>
</trkpt>
<trkpt lat="41.9594590" lon="1.8964290">
<ele>494.263672</ele>
<time>2022-09-08T06:57:59.000Z</time>
</trkpt>
<trkpt lat="41.9594740" lon="1.8964520">
<ele>494.812317</ele>
<time>2022-09-08T06:58:00.002Z</time>
</trkpt>
<trkpt lat="41.9594890" lon="1.8964780">
<ele>495.421936</ele>
<time>2022-09-08T06:58:01.004Z</time>
</trkpt>
<trkpt lat="41.9595080" lon="1.8965090">
<ele>496.092468</ele>
<time>2022-09-08T06:58:01.998Z</time>
</trkpt>
<trkpt lat="41.9595230" lon="1.8965390">
<ele>496.702087</ele>
<time>2022-09-08T06:58:03.000Z</time>
</trkpt>
<trkpt lat="41.9595360" lon="1.8965600">
<ele>497.128815</ele>
<time>2022-09-08T06:58:04.002Z</time>
</trkpt>
<trkpt lat="41.9595520" lon="1.8965880">
<ele>497.677460</ele>
<time>2022-09-08T06:58:04.996Z</time>
</trkpt>
<trkpt lat="41.9595660" lon="1.8966140">
<ele>498.134644</ele>
<time>2022-09-08T06:58:05.998Z</time>
</trkpt>
<trkpt lat="41.9595700" lon="1.8966480">
<ele>498.713745</ele>
<time>2022-09-08T06:58:07.000Z</time>
</trkpt>
<trkpt lat="41.9595710" lon="1.8966820">
<ele>499.292877</ele>
<time>2022-09-08T06:58:08.003Z</time>
</trkpt>
<trkpt lat="41.9595660" lon="1.8967190">
<ele>499.902466</ele>
<time>2022-09-08T06:58:08.996Z</time>
</trkpt>
<trkpt lat="41.9595620" lon="1.8967550">
<ele>500.451141</ele>
<time>2022-09-08T06:58:09.998Z</time>
</trkpt>
<trkpt lat="41.9595560" lon="1.8967870">
<ele>500.938812</ele>
<time>2022-09-08T06:58:11.001Z</time>
</trkpt>
<trkpt lat="41.9595530" lon="1.8968220">
<ele>501.456940</ele>
<time>2022-09-08T06:58:12.003Z</time>
</trkpt>
<trkpt lat="41.9595540" lon="1.8968550">
<ele>501.944641</ele>
<time>2022-09-08T06:58:12.996Z</time>
</trkpt>
<trkpt lat="41.9595570" lon="1.8968870">
<ele>502.401855</ele>
<time>2022-09-08T06:58:13.999Z</time>
</trkpt>
<trkpt lat="41.9595620" lon="1.8969170">
<ele>502.828552</ele>
<time>2022-09-08T06:58:15.001Z</time>
</trkpt>
<trkpt lat="41.9595640" lon="1.8969470">
<ele>503.255280</ele>
<time>2022-09-08T06:58:16.003Z</time>
</trkpt>
<trkpt lat="41.9595640" lon="1.8969750">
<ele>503.621063</ele>
<time>2022-09-08T06:58:16.997Z</time>
</trkpt>
<trkpt lat="41.9595680" lon="1.8970090">
<ele>504.078247</ele>
<time>2022-09-08T06:58:17.999Z</time>
</trkpt>
<trkpt lat="41.9595790" lon="1.8970420">
<ele>504.504944</ele>
<time>2022-09-08T06:58:19.001Z</time>
</trkpt>
<trkpt lat="41.9595890" lon="1.8970690">
<ele>504.870728</ele>
<time>2022-09-08T06:58:20.004Z</time>
</trkpt>
<trkpt lat="41.9596000" lon="1.8970880">
<ele>505.236481</ele>
<time>2022-09-08T06:58:20.997Z</time>
</trkpt>
<trkpt lat="41.9596070" lon="1.8971080">
<ele>505.510803</ele>
<time>2022-09-08T06:58:21.999Z</time>
</trkpt>
<trkpt lat="41.9596220" lon="1.8971280">
<ele>505.876556</ele>
<time>2022-09-08T06:58:23.002Z</time>
</trkpt>
<trkpt lat="41.9596380" lon="1.8971550">
<ele>506.242340</ele>
<time>2022-09-08T06:58:24.004Z</time>
</trkpt>
<trkpt lat="41.9596530" lon="1.8971870">
<ele>506.638550</ele>
<time>2022-09-08T06:58:24.997Z</time>
</trkpt>
<trkpt lat="41.9596660" lon="1.8972190">
<ele>506.973846</ele>
<time>2022-09-08T06:58:26.000Z</time>
</trkpt>
<trkpt lat="41.9596760" lon="1.8972490">
<ele>507.217682</ele>
<time>2022-09-08T06:58:27.002Z</time>
</trkpt>
<trkpt lat="41.9596850" lon="1.8972770">
<ele>507.431061</ele>
<time>2022-09-08T06:58:28.004Z</time>
</trkpt>
<trkpt lat="41.9596950" lon="1.8973020">
<ele>507.613922</ele>
<time>2022-09-08T06:58:28.998Z</time>
</trkpt>
<trkpt lat="41.9597050" lon="1.8973240">
<ele>507.766327</ele>
<time>2022-09-08T06:58:30.000Z</time>
</trkpt>
<trkpt lat="41.9597180" lon="1.8973610">
<ele>507.979675</ele>
<time>2022-09-08T06:58:31.002Z</time>
</trkpt>
<trkpt lat="41.9597290" lon="1.8973960">
<ele>508.162537</ele>
<time>2022-09-08T06:58:31.996Z</time>
</trkpt>
<trkpt lat="41.9597360" lon="1.8974280">
<ele>508.314941</ele>
<time>2022-09-08T06:58:32.998Z</time>
</trkpt>
<trkpt lat="41.9597420" lon="1.8974520">
<ele>508.436859</ele>
<time>2022-09-08T06:58:34.000Z</time>
</trkpt>
<trkpt lat="41.9597470" lon="1.8974810">
<ele>508.528320</ele>
<time>2022-09-08T06:58:35.003Z</time>
</trkpt>
<trkpt lat="41.9597530" lon="1.8975190">
<ele>508.680725</ele>
<time>2022-09-08T06:58:35.996Z</time>
</trkpt>
<trkpt lat="41.9597540" lon="1.8975510">
<ele>508.833130</ele>
<time>2022-09-08T06:58:36.998Z</time>
</trkpt>
<trkpt lat="41.9597490" lon="1.8975920">
<ele>508.985535</ele>
<time>2022-09-08T06:58:38.001Z</time>
</trkpt>
<trkpt lat="41.9597450" lon="1.8976290">
<ele>509.137939</ele>
<time>2022-09-08T06:58:39.003Z</time>
</trkpt>
<trkpt lat="41.9597500" lon="1.8976630">
<ele>509.381744</ele>
<time>2022-09-08T06:58:39.996Z</time>
</trkpt>
<trkpt lat="41.9597580" lon="1.8976970">
<ele>509.625610</ele>
<time>2022-09-08T06:58:40.999Z</time>
</trkpt>
<trkpt lat="41.9597670" lon="1.8977300">
<ele>509.899933</ele>
<time>2022-09-08T06:58:42.001Z</time>
</trkpt>
<trkpt lat="41.9597800" lon="1.8977650">
<ele>510.265686</ele>
<time>2022-09-08T06:58:43.003Z</time>
</trkpt>
<trkpt lat="41.9597840" lon="1.8978060">
<ele>510.692413</ele>
<time>2022-09-08T06:58:43.997Z</time>
</trkpt>
<trkpt lat="41.9597810" lon="1.8978450">
<ele>511.119141</ele>
<time>2022-09-08T06:58:44.999Z</time>
</trkpt>
<trkpt lat="41.9597790" lon="1.8978830">
<ele>511.606812</ele>
<time>2022-09-08T06:58:46.001Z</time>
</trkpt>
<trkpt lat="41.9597820" lon="1.8979200">
<ele>512.185913</ele>
<time>2022-09-08T06:58:47.004Z</time>
</trkpt>
<trkpt lat="41.9597920" lon="1.8979470">
<ele>512.765076</ele>
<time>2022-09-08T06:58:47.997Z</time>
</trkpt>
<trkpt lat="41.9598050" lon="1.8979720">
<ele>513.283203</ele>
<time>2022-09-08T06:58:48.999Z</time>
</trkpt>
<trkpt lat="41.9598150" lon="1.8979970">
<ele>513.831848</ele>
<time>2022-09-08T06:58:50.002Z</time>
</trkpt>
<trkpt lat="41.9598230" lon="1.8980190">
<ele>514.289063</ele>
<time>2022-09-08T06:58:51.004Z</time>
</trkpt>
<trkpt lat="41.9598390" lon="1.8980420">
<ele>514.807190</ele>
<time>2022-09-08T06:58:51.997Z</time>
</trkpt>
<trkpt lat="41.9598580" lon="1.8980720">
<ele>515.477722</ele>
<time>2022-09-08T06:58:53.000Z</time>
</trkpt>
<trkpt lat="41.9598730" lon="1.8980960">
<ele>516.026428</ele>
<time>2022-09-08T06:58:54.002Z</time>
</trkpt>
<trkpt lat="41.9598800" lon="1.8981220">
<ele>516.605530</ele>
<time>2022-09-08T06:58:55.004Z</time>
</trkpt>
<trkpt lat="41.9598960" lon="1.8981540">
<ele>517.337036</ele>
<time>2022-09-08T06:58:55.998Z</time>
</trkpt>
<trkpt lat="41.9599080" lon="1.8981730">
<ele>517.733276</ele>
<time>2022-09-08T06:58:57.000Z</time>
</trkpt>
<trkpt lat="41.9599210" lon="1.8981970">
<ele>518.281921</ele>
<time>2022-09-08T06:58:58.002Z</time>
</trkpt>
<trkpt lat="41.9599390" lon="1.8982370">
<ele>519.135315</ele>
<time>2022-09-08T06:58:58.996Z</time>
</trkpt>
<trkpt lat="41.9599590" lon="1.8982710">
<ele>519.866882</ele>
<time>2022-09-08T06:58:59.998Z</time>
</trkpt>
<trkpt lat="41.9599690" lon="1.8983010">
<ele>520.506958</ele>
<time>2022-09-08T06:59:01.000Z</time>
</trkpt>
<trkpt lat="41.9599840" lon="1.8983310">
<ele>521.116516</ele>
<time>2022-09-08T06:59:02.003Z</time>
</trkpt>
<trkpt lat="41.9600080" lon="1.8983480">
<ele>521.360413</ele>
<time>2022-09-08T06:59:02.996Z</time>
</trkpt>
<trkpt lat="41.9600270" lon="1.8983680">
<ele>521.695679</ele>
<time>2022-09-08T06:59:03.998Z</time>
</trkpt>
<trkpt lat="41.9600480" lon="1.8983950">
<ele>522.122375</ele>
<time>2022-09-08T06:59:05.001Z</time>
</trkpt>
<trkpt lat="41.9600760" lon="1.8984270">
<ele>522.549133</ele>
<time>2022-09-08T06:59:06.003Z</time>
</trkpt>
<trkpt lat="41.9600980" lon="1.8984630">
<ele>523.067261</ele>
<time>2022-09-08T06:59:06.996Z</time>
</trkpt>
<trkpt lat="41.9601170" lon="1.8984900">
<ele>523.402527</ele>
<time>2022-09-08T06:59:07.999Z</time>
</trkpt>
<trkpt lat="41.9601410" lon="1.8985090">
<ele>523.494019</ele>
<time>2022-09-08T06:59:09.001Z</time>
</trkpt>
<trkpt lat="41.9601620" lon="1.8985330">
<ele>523.646423</ele>
<time>2022-09-08T06:59:10.003Z</time>
</trkpt>
<trkpt lat="41.9601800" lon="1.8985510">
<ele>523.737854</ele>
<time>2022-09-08T06:59:10.997Z</time>
</trkpt>
<trkpt lat="41.9602030" lon="1.8985550">
<ele>523.433044</ele>
<time>2022-09-08T06:59:11.999Z</time>
</trkpt>
<trkpt lat="41.9602170" lon="1.8985670">
<ele>523.402527</ele>
<time>2022-09-08T06:59:13.001Z</time>
</trkpt>
<trkpt lat="41.9602300" lon="1.8985870">
<ele>523.494019</ele>
<time>2022-09-08T06:59:14.004Z</time>
</trkpt>
<trkpt lat="41.9602460" lon="1.8986110">
<ele>523.646423</ele>
<time>2022-09-08T06:59:14.997Z</time>
</trkpt>
<trkpt lat="41.9602720" lon="1.8986330">
<ele>523.494019</ele>
<time>2022-09-08T06:59:15.999Z</time>
</trkpt>
<trkpt lat="41.9602950" lon="1.8986510">
<ele>523.311157</ele>
<time>2022-09-08T06:59:17.002Z</time>
</trkpt>
<trkpt lat="41.9603240" lon="1.8986820">
<ele>523.219666</ele>
<time>2022-09-08T06:59:18.004Z</time>
</trkpt>
<trkpt lat="41.9603460" lon="1.8986990">
<ele>522.975830</ele>
<time>2022-09-08T06:59:18.997Z</time>
</trkpt>
<trkpt lat="41.9603530" lon="1.8987040">
<ele>522.853943</ele>
<time>2022-09-08T06:59:20.000Z</time>
</trkpt>
<trkpt lat="41.9603680" lon="1.8987130">
<ele>522.610046</ele>
<time>2022-09-08T06:59:21.002Z</time>
</trkpt>
<trkpt lat="41.9603930" lon="1.8987350">
<ele>522.366272</ele>
<time>2022-09-08T06:59:22.004Z</time>
</trkpt>
<trkpt lat="41.9604020" lon="1.8987560">
<ele>522.488159</ele>
<time>2022-09-08T06:59:22.998Z</time>
</trkpt>
<trkpt lat="41.9604020" lon="1.8987840">
<ele>523.250122</ele>
<time>2022-09-08T06:59:24.000Z</time>
</trkpt>
<trkpt lat="41.9604100" lon="1.8988180">
<ele>523.981689</ele>
<time>2022-09-08T06:59:25.002Z</time>
</trkpt>
<trkpt lat="41.9604320" lon="1.8988420">
<ele>524.255981</ele>
<time>2022-09-08T06:59:25.996Z</time>
</trkpt>
<trkpt lat="41.9604560" lon="1.8988680">
<ele>524.469360</ele>
<time>2022-09-08T06:59:26.998Z</time>
</trkpt>
<trkpt lat="41.9604770" lon="1.8988870">
<ele>524.621765</ele>
<time>2022-09-08T06:59:28.000Z</time>
</trkpt>
<trkpt lat="41.9604970" lon="1.8989020">
<ele>524.591248</ele>
<time>2022-09-08T06:59:29.003Z</time>
</trkpt>
<trkpt lat="41.9605180" lon="1.8989260">
<ele>524.835144</ele>
<time>2022-09-08T06:59:29.996Z</time>
</trkpt>
<trkpt lat="41.9605510" lon="1.8989570">
<ele>524.926575</ele>
<time>2022-09-08T06:59:30.998Z</time>
</trkpt>
<trkpt lat="41.9605780" lon="1.8989760">
<ele>524.835144</ele>
<time>2022-09-08T06:59:32.001Z</time>
</trkpt>
<trkpt lat="41.9605890" lon="1.8989960">
<ele>525.078918</ele>
<time>2022-09-08T06:59:33.003Z</time>
</trkpt>
<trkpt lat="41.9606040" lon="1.8990150">
<ele>525.200867</ele>
<time>2022-09-08T06:59:33.996Z</time>
</trkpt>
<trkpt lat="41.9606350" lon="1.8990450">
<ele>525.200867</ele>
<time>2022-09-08T06:59:34.999Z</time>
</trkpt>
<trkpt lat="41.9606680" lon="1.8990750">
<ele>525.170410</ele>
<time>2022-09-08T06:59:36.001Z</time>
</trkpt>
<trkpt lat="41.9607000" lon="1.8991090">
<ele>525.078918</ele>
<time>2022-09-08T06:59:37.003Z</time>
</trkpt>
<trkpt lat="41.9607170" lon="1.8991440">
<ele>525.353271</ele>
<time>2022-09-08T06:59:37.997Z</time>
</trkpt>
<trkpt lat="41.9607410" lon="1.8991730">
<ele>525.322815</ele>
<time>2022-09-08T06:59:38.999Z</time>
</trkpt>
<trkpt lat="41.9607830" lon="1.8991880">
<ele>524.621765</ele>
<time>2022-09-08T06:59:40.001Z</time>
</trkpt>
<trkpt lat="41.9608170" lon="1.8991970">
<ele>523.981689</ele>
<time>2022-09-08T06:59:41.004Z</time>
</trkpt>
<trkpt lat="41.9608600" lon="1.8991980">
<ele>522.975830</ele>
<time>2022-09-08T06:59:41.997Z</time>
</trkpt>
<trkpt lat="41.9609080" lon="1.8991920">
<ele>521.817627</ele>
<time>2022-09-08T06:59:42.999Z</time>
</trkpt>
<trkpt lat="41.9609460" lon="1.8991890">
<ele>520.872742</ele>
<time>2022-09-08T06:59:44.002Z</time>
</trkpt>
<trkpt lat="41.9609960" lon="1.8991990">
<ele>519.897339</ele>
<time>2022-09-08T06:59:45.004Z</time>
</trkpt>
<trkpt lat="41.9610400" lon="1.8992220">
<ele>519.226807</ele>
<time>2022-09-08T06:59:45.997Z</time>
</trkpt>
<trkpt lat="41.9610750" lon="1.8992440">
<ele>518.830566</ele>
<time>2022-09-08T06:59:47.000Z</time>
</trkpt>
<trkpt lat="41.9611110" lon="1.8992690">
<ele>518.464783</ele>
<time>2022-09-08T06:59:48.002Z</time>
</trkpt>
<trkpt lat="41.9611560" lon="1.8992840">
<ele>517.733276</ele>
<time>2022-09-08T06:59:49.004Z</time>
</trkpt>
<trkpt lat="41.9611950" lon="1.8992980">
<ele>517.123657</ele>
<time>2022-09-08T06:59:49.998Z</time>
</trkpt>
<trkpt lat="41.9612330" lon="1.8993110">
<ele>516.696960</ele>
<time>2022-09-08T06:59:51.000Z</time>
</trkpt>
<trkpt lat="41.9612710" lon="1.8993200">
<ele>516.087341</ele>
<time>2022-09-08T06:59:52.002Z</time>
</trkpt>
<trkpt lat="41.9613050" lon="1.8993320">
<ele>515.599670</ele>
<time>2022-09-08T06:59:52.996Z</time>
</trkpt>
<trkpt lat="41.9613380" lon="1.8993480">
<ele>515.172974</ele>
<time>2022-09-08T06:59:53.998Z</time>
</trkpt>
<trkpt lat="41.9613630" lon="1.8993630">
<ele>514.898682</ele>
<time>2022-09-08T06:59:55.000Z</time>
</trkpt>
<trkpt lat="41.9613870" lon="1.8993770">
<ele>514.685303</ele>
<time>2022-09-08T06:59:56.003Z</time>
</trkpt>
<trkpt lat="41.9614180" lon="1.8993910">
<ele>514.380493</ele>
<time>2022-09-08T06:59:56.996Z</time>
</trkpt>
<trkpt lat="41.9614480" lon="1.8994080">
<ele>514.136658</ele>
<time>2022-09-08T06:59:57.998Z</time>
</trkpt>
<trkpt lat="41.9614700" lon="1.8994230">
<ele>513.984253</ele>
<time>2022-09-08T06:59:59.001Z</time>
</trkpt>
<trkpt lat="41.9615060" lon="1.8994480">
<ele>513.801331</ele>
<time>2022-09-08T07:00:00.003Z</time>
</trkpt>
<trkpt lat="41.9615430" lon="1.8994710">
<ele>513.588013</ele>
<time>2022-09-08T07:00:00.996Z</time>
</trkpt>
<trkpt lat="41.9615760" lon="1.8994960">
<ele>513.496521</ele>
<time>2022-09-08T07:00:01.999Z</time>
</trkpt>
<trkpt lat="41.9616110" lon="1.8995210">
<ele>513.344116</ele>
<time>2022-09-08T07:00:03.001Z</time>
</trkpt>
<trkpt lat="41.9616550" lon="1.8995440">
<ele>513.191772</ele>
<time>2022-09-08T07:00:04.003Z</time>
</trkpt>
<trkpt lat="41.9616990" lon="1.8995660">
<ele>513.069885</ele>
<time>2022-09-08T07:00:04.997Z</time>
</trkpt>
<trkpt lat="41.9617400" lon="1.8995880">
<ele>513.069885</ele>
<time>2022-09-08T07:00:05.999Z</time>
</trkpt>
<trkpt lat="41.9617790" lon="1.8996110">
<ele>513.313660</ele>
<time>2022-09-08T07:00:07.001Z</time>
</trkpt>
<trkpt lat="41.9618080" lon="1.8996440">
<ele>513.618469</ele>
<time>2022-09-08T07:00:08.004Z</time>
</trkpt>
<trkpt lat="41.9618350" lon="1.8996770">
<ele>513.923279</ele>
<time>2022-09-08T07:00:08.997Z</time>
</trkpt>
<trkpt lat="41.9618530" lon="1.8997030">
<ele>514.106140</ele>
<time>2022-09-08T07:00:09.999Z</time>
</trkpt>
<trkpt lat="41.9618710" lon="1.8997280">
<ele>514.289063</ele>
<time>2022-09-08T07:00:11.002Z</time>
</trkpt>
<trkpt lat="41.9619010" lon="1.8997500">
<ele>514.532898</ele>
<time>2022-09-08T07:00:12.004Z</time>
</trkpt>
<trkpt lat="41.9619370" lon="1.8997610">
<ele>514.868164</ele>
<time>2022-09-08T07:00:12.997Z</time>
</trkpt>
<trkpt lat="41.9619660" lon="1.8997640">
<ele>515.172974</ele>
<time>2022-09-08T07:00:14.000Z</time>
</trkpt>
<trkpt lat="41.9619880" lon="1.8997740">
<ele>515.416809</ele>
<time>2022-09-08T07:00:15.002Z</time>
</trkpt>
<trkpt lat="41.9620060" lon="1.8997950">
<ele>515.660645</ele>
<time>2022-09-08T07:00:16.004Z</time>
</trkpt>
<trkpt lat="41.9620270" lon="1.8998230">
<ele>515.995911</ele>
<time>2022-09-08T07:00:16.998Z</time>
</trkpt>
<trkpt lat="41.9620530" lon="1.8998480">
<ele>516.300720</ele>
<time>2022-09-08T07:00:18.000Z</time>
</trkpt>
<trkpt lat="41.9620810" lon="1.8998690">
<ele>516.818848</ele>
<time>2022-09-08T07:00:19.002Z</time>
</trkpt>
<trkpt lat="41.9621140" lon="1.8998880">
<ele>517.215149</ele>
<time>2022-09-08T07:00:19.996Z</time>
</trkpt>
<trkpt lat="41.9621460" lon="1.8999080">
<ele>517.672302</ele>
<time>2022-09-08T07:00:20.998Z</time>
</trkpt>
<trkpt lat="41.9621770" lon="1.8999220">
<ele>518.159973</ele>
<time>2022-09-08T07:00:22.000Z</time>
</trkpt>
<trkpt lat="41.9622010" lon="1.8999390">
<ele>518.495300</ele>
<time>2022-09-08T07:00:23.003Z</time>
</trkpt>
<trkpt lat="41.9622130" lon="1.8999560">
<ele>518.647644</ele>
<time>2022-09-08T07:00:23.996Z</time>
</trkpt>
<trkpt lat="41.9622350" lon="1.8999730">
<ele>519.013428</ele>
<time>2022-09-08T07:00:24.998Z</time>
</trkpt>
<trkpt lat="41.9622550" lon="1.8999830">
<ele>519.348755</ele>
<time>2022-09-08T07:00:26.001Z</time>
</trkpt>
<trkpt lat="41.9622800" lon="1.8999960">
<ele>519.866882</ele>
<time>2022-09-08T07:00:27.003Z</time>
</trkpt>
<trkpt lat="41.9623050" lon="1.9000150">
<ele>520.263123</ele>
<time>2022-09-08T07:00:27.996Z</time>
</trkpt>
<trkpt lat="41.9623320" lon="1.9000370">
<ele>520.842285</ele>
<time>2022-09-08T07:00:28.999Z</time>
</trkpt>
<trkpt lat="41.9623640" lon="1.9000630">
<ele>521.390869</ele>
<time>2022-09-08T07:00:30.001Z</time>
</trkpt>
<trkpt lat="41.9623920" lon="1.9000830">
<ele>521.939514</ele>
<time>2022-09-08T07:00:31.003Z</time>
</trkpt>
<trkpt lat="41.9624140" lon="1.9001070">
<ele>522.335754</ele>
<time>2022-09-08T07:00:31.997Z</time>
</trkpt>
<trkpt lat="41.9624400" lon="1.9001280">
<ele>522.884399</ele>
<time>2022-09-08T07:00:32.999Z</time>
</trkpt>
<trkpt lat="41.9624600" lon="1.9001300">
<ele>523.372070</ele>
<time>2022-09-08T07:00:34.001Z</time>
</trkpt>
<trkpt lat="41.9624840" lon="1.9001500">
<ele>523.859741</ele>
<time>2022-09-08T07:00:35.004Z</time>
</trkpt>
<trkpt lat="41.9625080" lon="1.9001630">
<ele>524.499878</ele>
<time>2022-09-08T07:00:35.997Z</time>
</trkpt>
<trkpt lat="41.9625310" lon="1.9001930">
<ele>524.926575</ele>
<time>2022-09-08T07:00:36.999Z</time>
</trkpt>
<trkpt lat="41.9625600" lon="1.9002280">
<ele>525.383728</ele>
<time>2022-09-08T07:00:38.002Z</time>
</trkpt>
<trkpt lat="41.9625720" lon="1.9002580">
<ele>525.414246</ele>
<time>2022-09-08T07:00:39.004Z</time>
</trkpt>
<trkpt lat="41.9625870" lon="1.9002900">
<ele>525.536133</ele>
<time>2022-09-08T07:00:39.997Z</time>
</trkpt>
<trkpt lat="41.9626010" lon="1.9003240">
<ele>525.597107</ele>
<time>2022-09-08T07:00:41.000Z</time>
</trkpt>
<trkpt lat="41.9626150" lon="1.9003480">
<ele>525.749512</ele>
<time>2022-09-08T07:00:42.002Z</time>
</trkpt>
<trkpt lat="41.9626460" lon="1.9003720">
<ele>526.389587</ele>
<time>2022-09-08T07:00:43.004Z</time>
</trkpt>
<trkpt lat="41.9626660" lon="1.9003960">
<ele>526.663940</ele>
<time>2022-09-08T07:00:43.998Z</time>
</trkpt>
<trkpt lat="41.9626980" lon="1.9004310">
<ele>527.334473</ele>
<time>2022-09-08T07:00:45.000Z</time>
</trkpt>
<trkpt lat="41.9627320" lon="1.9004680">
<ele>527.913574</ele>
<time>2022-09-08T07:00:46.002Z</time>
</trkpt>
<trkpt lat="41.9627590" lon="1.9005020">
<ele>528.401245</ele>
<time>2022-09-08T07:00:46.996Z</time>
</trkpt>
<trkpt lat="41.9627880" lon="1.9005360">
<ele>528.980408</ele>
<time>2022-09-08T07:00:47.998Z</time>
</trkpt>
<trkpt lat="41.9628120" lon="1.9005710">
<ele>529.285217</ele>
<time>2022-09-08T07:00:49.000Z</time>
</trkpt>
<trkpt lat="41.9628340" lon="1.9006070">
<ele>529.529053</ele>
<time>2022-09-08T07:00:50.003Z</time>
</trkpt>
<trkpt lat="41.9628580" lon="1.9006370">
<ele>529.894775</ele>
<time>2022-09-08T07:00:50.996Z</time>
</trkpt>
<trkpt lat="41.9628870" lon="1.9006630">
<ele>530.626343</ele>
<time>2022-09-08T07:00:51.998Z</time>
</trkpt>
<trkpt lat="41.9629110" lon="1.9006890">
<ele>531.083557</ele>
<time>2022-09-08T07:00:53.001Z</time>
</trkpt>
<trkpt lat="41.9629280" lon="1.9007110">
<ele>531.449280</ele>
<time>2022-09-08T07:00:54.003Z</time>
</trkpt>
<trkpt lat="41.9629520" lon="1.9007420">
<ele>531.845520</ele>
<time>2022-09-08T07:00:54.996Z</time>
</trkpt>
<trkpt lat="41.9629740" lon="1.9007710">
<ele>532.241760</ele>
<time>2022-09-08T07:00:55.999Z</time>
</trkpt>
<trkpt lat="41.9629980" lon="1.9007940">
<ele>532.729431</ele>
<time>2022-09-08T07:00:57.001Z</time>
</trkpt>
<trkpt lat="41.9630190" lon="1.9008090">
<ele>533.369507</ele>
<time>2022-09-08T07:00:58.003Z</time>
</trkpt>
<trkpt lat="41.9630460" lon="1.9008230">
<ele>534.192444</ele>
<time>2022-09-08T07:00:58.997Z</time>
</trkpt>
<trkpt lat="41.9630770" lon="1.9008420">
<ele>535.015442</ele>
<time>2022-09-08T07:00:59.999Z</time>
</trkpt>
<trkpt lat="41.9631000" lon="1.9008650">
<ele>535.472656</ele>
<time>2022-09-08T07:01:01.001Z</time>
</trkpt>
<trkpt lat="41.9631180" lon="1.9008910">
<ele>535.685974</ele>
<time>2022-09-08T07:01:02.004Z</time>
</trkpt>
<trkpt lat="41.9631380" lon="1.9009080">
<ele>536.051758</ele>
<time>2022-09-08T07:01:02.997Z</time>
</trkpt>
<trkpt lat="41.9631660" lon="1.9009210">
<ele>536.813721</ele>
<time>2022-09-08T07:01:03.999Z</time>
</trkpt>
<trkpt lat="41.9631980" lon="1.9009400">
<ele>537.728149</ele>
<time>2022-09-08T07:01:05.002Z</time>
</trkpt>
<trkpt lat="41.9632200" lon="1.9009650">
<ele>537.911072</ele>
<time>2022-09-08T07:01:06.004Z</time>
</trkpt>
<trkpt lat="41.9632400" lon="1.9009940">
<ele>538.154846</ele>
<time>2022-09-08T07:01:06.997Z</time>
</trkpt>
<trkpt lat="41.9632570" lon="1.9010200">
<ele>538.185364</ele>
<time>2022-09-08T07:01:08.000Z</time>
</trkpt>
<trkpt lat="41.9632760" lon="1.9010530">
<ele>538.215881</ele>
<time>2022-09-08T07:01:09.002Z</time>
</trkpt>
<trkpt lat="41.9632890" lon="1.9010940">
<ele>537.850098</ele>
<time>2022-09-08T07:01:10.004Z</time>
</trkpt>
<trkpt lat="41.9632830" lon="1.9011310">
<ele>536.996643</ele>
<time>2022-09-08T07:01:10.998Z</time>
</trkpt>
<trkpt lat="41.9632640" lon="1.9011710">
<ele>535.594543</ele>
<time>2022-09-08T07:01:12.000Z</time>
</trkpt>
<trkpt lat="41.9632430" lon="1.9012070">
<ele>534.161987</ele>
<time>2022-09-08T07:01:13.002Z</time>
</trkpt>
<trkpt lat="41.9632160" lon="1.9012440">
<ele>532.607544</ele>
<time>2022-09-08T07:01:13.996Z</time>
</trkpt>
<trkpt lat="41.9631810" lon="1.9012710">
<ele>531.053040</ele>
<time>2022-09-08T07:01:14.998Z</time>
</trkpt>
<trkpt lat="41.9631510" lon="1.9012830">
<ele>529.803345</ele>
<time>2022-09-08T07:01:16.000Z</time>
</trkpt>
<trkpt lat="41.9631000" lon="1.9012880">
<ele>527.883118</ele>
<time>2022-09-08T07:01:17.003Z</time>
</trkpt>
<trkpt lat="41.9630520" lon="1.9012820">
<ele>526.023865</ele>
<time>2022-09-08T07:01:17.996Z</time>
</trkpt>
<trkpt lat="41.9630100" lon="1.9012690">
<ele>524.499878</ele>
<time>2022-09-08T07:01:18.998Z</time>
</trkpt>
<trkpt lat="41.9629470" lon="1.9012460">
<ele>522.274780</ele>
<time>2022-09-08T07:01:20.001Z</time>
</trkpt>
<trkpt lat="41.9628930" lon="1.9012390">
<ele>520.171692</ele>
<time>2022-09-08T07:01:21.003Z</time>
</trkpt>
<trkpt lat="41.9628380" lon="1.9012560">
<ele>517.702820</ele>
<time>2022-09-08T07:01:21.996Z</time>
</trkpt>
<trkpt lat="41.9628050" lon="1.9012850">
<ele>516.300720</ele>
<time>2022-09-08T07:01:22.999Z</time>
</trkpt>
<trkpt lat="41.9627770" lon="1.9013310">
<ele>514.898682</ele>
<time>2022-09-08T07:01:24.001Z</time>
</trkpt>
<trkpt lat="41.9627510" lon="1.9013890">
<ele>513.679443</ele>
<time>2022-09-08T07:01:25.003Z</time>
</trkpt>
<trkpt lat="41.9627320" lon="1.9014420">
<ele>512.886963</ele>
<time>2022-09-08T07:01:25.997Z</time>
</trkpt>
<trkpt lat="41.9627090" lon="1.9014880">
<ele>512.094482</ele>
<time>2022-09-08T07:01:26.999Z</time>
</trkpt>
<trkpt lat="41.9626870" lon="1.9015310">
<ele>511.515350</ele>
<time>2022-09-08T07:01:28.001Z</time>
</trkpt>
<trkpt lat="41.9626680" lon="1.9015780">
<ele>510.997192</ele>
<time>2022-09-08T07:01:29.004Z</time>
</trkpt>
<trkpt lat="41.9626600" lon="1.9016370">
<ele>510.936249</ele>
<time>2022-09-08T07:01:29.997Z</time>
</trkpt>
<trkpt lat="41.9626570" lon="1.9016960">
<ele>510.997192</ele>
<time>2022-09-08T07:01:30.999Z</time>
</trkpt>
<trkpt lat="41.9626560" lon="1.9017550">
<ele>511.088654</ele>
<time>2022-09-08T07:01:32.002Z</time>
</trkpt>
<trkpt lat="41.9626610" lon="1.9018060">
<ele>511.484863</ele>
<time>2022-09-08T07:01:33.004Z</time>
</trkpt>
<trkpt lat="41.9626700" lon="1.9018660">
<ele>511.881134</ele>
<time>2022-09-08T07:01:33.997Z</time>
</trkpt>
<trkpt lat="41.9626750" lon="1.9019190">
<ele>512.094482</ele>
<time>2022-09-08T07:01:35.000Z</time>
</trkpt>
<trkpt lat="41.9626790" lon="1.9019560">
<ele>512.338318</ele>
<time>2022-09-08T07:01:36.002Z</time>
</trkpt>
<trkpt lat="41.9626840" lon="1.9019870">
<ele>512.460266</ele>
<time>2022-09-08T07:01:37.004Z</time>
</trkpt>
<trkpt lat="41.9626900" lon="1.9020020">
<ele>512.551697</ele>
<time>2022-09-08T07:01:37.998Z</time>
</trkpt>
<trkpt lat="41.9627050" lon="1.9020210">
<ele>512.917480</ele>
<time>2022-09-08T07:01:39.000Z</time>
</trkpt>
<trkpt lat="41.9627350" lon="1.9020540">
<ele>513.648926</ele>
<time>2022-09-08T07:01:40.002Z</time>
</trkpt>
<trkpt lat="41.9627640" lon="1.9020880">
<ele>514.380493</ele>
<time>2022-09-08T07:01:40.996Z</time>
</trkpt>
<trkpt lat="41.9627820" lon="1.9021150">
<ele>514.929138</ele>
<time>2022-09-08T07:01:41.998Z</time>
</trkpt>
<trkpt lat="41.9628030" lon="1.9021440">
<ele>515.477722</ele>
<time>2022-09-08T07:01:43.000Z</time>
</trkpt>
<trkpt lat="41.9628240" lon="1.9021750">
<ele>516.117859</ele>
<time>2022-09-08T07:01:44.003Z</time>
</trkpt>
<trkpt lat="41.9628440" lon="1.9022120">
<ele>516.666443</ele>
<time>2022-09-08T07:01:44.996Z</time>
</trkpt>
<trkpt lat="41.9628600" lon="1.9022440">
<ele>517.093201</ele>
<time>2022-09-08T07:01:45.998Z</time>
</trkpt>
<trkpt lat="41.9628900" lon="1.9022960">
<ele>517.885681</ele>
<time>2022-09-08T07:01:47.001Z</time>
</trkpt>
<trkpt lat="41.9629180" lon="1.9023370">
<ele>518.556274</ele>
<time>2022-09-08T07:01:48.003Z</time>
</trkpt>
<trkpt lat="41.9629510" lon="1.9023910">
<ele>519.257263</ele>
<time>2022-09-08T07:01:48.996Z</time>
</trkpt>
<trkpt lat="41.9629870" lon="1.9024290">
<ele>519.927856</ele>
<time>2022-09-08T07:01:49.999Z</time>
</trkpt>
<trkpt lat="41.9630210" lon="1.9024560">
<ele>520.598389</ele>
<time>2022-09-08T07:01:51.001Z</time>
</trkpt>
<trkpt lat="41.9630490" lon="1.9024760">
<ele>521.177551</ele>
<time>2022-09-08T07:01:52.003Z</time>
</trkpt>
<trkpt lat="41.9630650" lon="1.9024910">
<ele>521.421326</ele>
<time>2022-09-08T07:01:52.997Z</time>
</trkpt>
<trkpt lat="41.9630810" lon="1.9025080">
<ele>521.604248</ele>
<time>2022-09-08T07:01:53.999Z</time>
</trkpt>
<trkpt lat="41.9631040" lon="1.9025420">
<ele>521.756653</ele>
<time>2022-09-08T07:01:55.001Z</time>
</trkpt>
<trkpt lat="41.9631260" lon="1.9025810">
<ele>521.726135</ele>
<time>2022-09-08T07:01:56.004Z</time>
</trkpt>
<trkpt lat="41.9631470" lon="1.9026250">
<ele>521.451843</ele>
<time>2022-09-08T07:01:56.997Z</time>
</trkpt>
<trkpt lat="41.9631620" lon="1.9026660">
<ele>521.055603</ele>
<time>2022-09-08T07:01:57.999Z</time>
</trkpt>
<trkpt lat="41.9631970" lon="1.9026970">
<ele>521.147034</ele>
<time>2022-09-08T07:01:59.002Z</time>
</trkpt>
<trkpt lat="41.9632420" lon="1.9027270">
<ele>521.421326</ele>
<time>2022-09-08T07:02:00.004Z</time>
</trkpt>
<trkpt lat="41.9632960" lon="1.9027620">
<ele>521.604248</ele>
<time>2022-09-08T07:02:00.997Z</time>
</trkpt>
<trkpt lat="41.9633480" lon="1.9027980">
<ele>521.665222</ele>
<time>2022-09-08T07:02:02.000Z</time>
</trkpt>
<trkpt lat="41.9633980" lon="1.9028350">
<ele>521.482300</ele>
<time>2022-09-08T07:02:03.002Z</time>
</trkpt>
<trkpt lat="41.9634480" lon="1.9028600">
<ele>521.573730</ele>
<time>2022-09-08T07:02:04.004Z</time>
</trkpt>
<trkpt lat="41.9634950" lon="1.9028810">
<ele>521.695679</ele>
<time>2022-09-08T07:02:04.998Z</time>
</trkpt>
<trkpt lat="41.9635290" lon="1.9029010">
<ele>521.573730</ele>
<time>2022-09-08T07:02:07.002Z</time>
</trkpt>
<trkpt lat="41.9635710" lon="1.9029240">
<ele>521.482300</ele>
<time>2022-09-08T07:02:07.996Z</time>
</trkpt>
<trkpt lat="41.9636130" lon="1.9029480">
<ele>521.421326</ele>
<time>2022-09-08T07:02:08.998Z</time>
</trkpt>
<trkpt lat="41.9636430" lon="1.9029710">
<ele>521.147034</ele>
<time>2022-09-08T07:02:10.000Z</time>
</trkpt>
<trkpt lat="41.9636700" lon="1.9029960">
<ele>520.750793</ele>
<time>2022-09-08T07:02:11.003Z</time>
</trkpt>
<trkpt lat="41.9636850" lon="1.9030240">
<ele>520.019287</ele>
<time>2022-09-08T07:02:11.996Z</time>
</trkpt>
<trkpt lat="41.9636830" lon="1.9030660">
<ele>518.525757</ele>
<time>2022-09-08T07:02:12.998Z</time>
</trkpt>
<trkpt lat="41.9636710" lon="1.9031110">
<ele>516.727478</ele>
<time>2022-09-08T07:02:14.001Z</time>
</trkpt>
<trkpt lat="41.9636470" lon="1.9031520">
<ele>514.807190</ele>
<time>2022-09-08T07:02:15.003Z</time>
</trkpt>
<trkpt lat="41.9636370" lon="1.9031920">
<ele>513.283203</ele>
<time>2022-09-08T07:02:15.996Z</time>
</trkpt>
<trkpt lat="41.9636340" lon="1.9032460">
<ele>511.271515</ele>
<time>2022-09-08T07:02:16.999Z</time>
</trkpt>
<trkpt lat="41.9636420" lon="1.9033130">
<ele>509.015991</ele>
<time>2022-09-08T07:02:18.001Z</time>
</trkpt>
<trkpt lat="41.9636840" lon="1.9033810">
<ele>507.248138</ele>
<time>2022-09-08T07:02:19.003Z</time>
</trkpt>
<trkpt lat="41.9637290" lon="1.9034120">
<ele>506.851929</ele>
<time>2022-09-08T07:02:19.997Z</time>
</trkpt>
<trkpt lat="41.9637880" lon="1.9034290">
<ele>507.187195</ele>
<time>2022-09-08T07:02:20.999Z</time>
</trkpt>
<trkpt lat="41.9638430" lon="1.9034180">
<ele>508.497864</ele>
<time>2022-09-08T07:02:22.001Z</time>
</trkpt>
<trkpt lat="41.9639000" lon="1.9034280">
<ele>509.015991</ele>
<time>2022-09-08T07:02:23.004Z</time>
</trkpt>
<trkpt lat="41.9639560" lon="1.9034350">
<ele>509.534149</ele>
<time>2022-09-08T07:02:23.997Z</time>
</trkpt>
<trkpt lat="41.9640070" lon="1.9034400">
<ele>510.082794</ele>
<time>2022-09-08T07:02:24.999Z</time>
</trkpt>
<trkpt lat="41.9640520" lon="1.9034330">
<ele>510.875275</ele>
<time>2022-09-08T07:02:26.002Z</time>
</trkpt>
<trkpt lat="41.9640720" lon="1.9034340">
<ele>511.119141</ele>
<time>2022-09-08T07:02:27.004Z</time>
</trkpt>
<trkpt lat="41.9640790" lon="1.9034470">
<ele>510.753357</ele>
<time>2022-09-08T07:02:27.997Z</time>
</trkpt>
<trkpt lat="41.9640800" lon="1.9034540">
<ele>510.509521</ele>
<time>2022-09-08T07:02:29.000Z</time>
</trkpt>
<trkpt lat="41.9640730" lon="1.9034640">
<ele>510.052338</ele>
<time>2022-09-08T07:02:30.002Z</time>
</trkpt>
<trkpt lat="41.9640620" lon="1.9034770">
<ele>509.442719</ele>
<time>2022-09-08T07:02:31.004Z</time>
</trkpt>
<trkpt lat="41.9640590" lon="1.9034950">
<ele>508.741669</ele>
<time>2022-09-08T07:02:31.998Z</time>
</trkpt>
<trkpt lat="41.9640710" lon="1.9035170">
<ele>508.101593</ele>
<time>2022-09-08T07:02:33.000Z</time>
</trkpt>
<trkpt lat="41.9640890" lon="1.9035440">
<ele>507.370087</ele>
<time>2022-09-08T07:02:34.002Z</time>
</trkpt>
<trkpt lat="41.9641100" lon="1.9035690">
<ele>506.730011</ele>
<time>2022-09-08T07:02:34.996Z</time>
</trkpt>
<trkpt lat="41.9641390" lon="1.9035860">
<ele>506.425201</ele>
<time>2022-09-08T07:02:35.998Z</time>
</trkpt>
<trkpt lat="41.9641670" lon="1.9035980">
<ele>506.364258</ele>
<time>2022-09-08T07:02:37.000Z</time>
</trkpt>
<trkpt lat="41.9641860" lon="1.9036180">
<ele>505.846069</ele>
<time>2022-09-08T07:02:38.003Z</time>
</trkpt>
<trkpt lat="41.9641910" lon="1.9036500">
<ele>504.718323</ele>
<time>2022-09-08T07:02:38.996Z</time>
</trkpt>
<trkpt lat="41.9641880" lon="1.9036730">
<ele>503.834412</ele>
<time>2022-09-08T07:02:39.998Z</time>
</trkpt>
<trkpt lat="41.9641750" lon="1.9036810">
<ele>503.407684</ele>
<time>2022-09-08T07:02:41.001Z</time>
</trkpt>
<trkpt lat="41.9641510" lon="1.9036900">
<ele>502.798065</ele>
<time>2022-09-08T07:02:42.003Z</time>
</trkpt>
<trkpt lat="41.9641270" lon="1.9037020">
<ele>502.097046</ele>
<time>2022-09-08T07:02:42.996Z</time>
</trkpt>
<trkpt lat="41.9641120" lon="1.9037200">
<ele>501.243591</ele>
<time>2022-09-08T07:02:43.999Z</time>
</trkpt>
<trkpt lat="41.9640850" lon="1.9037540">
<ele>499.658661</ele>
<time>2022-09-08T07:02:45.001Z</time>
</trkpt>
<trkpt lat="41.9640520" lon="1.9037870">
<ele>497.982269</ele>
<time>2022-09-08T07:02:46.003Z</time>
</trkpt>
<trkpt lat="41.9640320" lon="1.9038230">
<ele>496.427734</ele>
<time>2022-09-08T07:02:46.997Z</time>
</trkpt>
<trkpt lat="41.9640100" lon="1.9038600">
<ele>494.842804</ele>
<time>2022-09-08T07:02:47.999Z</time>
</trkpt>
<trkpt lat="41.9639990" lon="1.9039010">
<ele>493.379730</ele>
<time>2022-09-08T07:02:49.001Z</time>
</trkpt>
<trkpt lat="41.9639880" lon="1.9039470">
<ele>491.764313</ele>
<time>2022-09-08T07:02:50.004Z</time>
</trkpt>
<trkpt lat="41.9639760" lon="1.9039950">
<ele>490.179352</ele>
<time>2022-09-08T07:02:50.997Z</time>
</trkpt>
<trkpt lat="41.9639550" lon="1.9040400">
<ele>488.655334</ele>
<time>2022-09-08T07:02:51.999Z</time>
</trkpt>
<trkpt lat="41.9639180" lon="1.9040740">
<ele>487.283752</ele>
<time>2022-09-08T07:02:53.002Z</time>
</trkpt>
<trkpt lat="41.9638940" lon="1.9041050">
<ele>486.216949</ele>
<time>2022-09-08T07:02:54.004Z</time>
</trkpt>
<trkpt lat="41.9638540" lon="1.9041470">
<ele>484.723450</ele>
<time>2022-09-08T07:02:54.997Z</time>
</trkpt>
<trkpt lat="41.9638210" lon="1.9041840">
<ele>483.412811</ele>
<time>2022-09-08T07:02:56.000Z</time>
</trkpt>
<trkpt lat="41.9637880" lon="1.9042320">
<ele>481.919281</ele>
<time>2022-09-08T07:02:57.002Z</time>
</trkpt>
<trkpt lat="41.9637700" lon="1.9042990">
<ele>480.364807</ele>
<time>2022-09-08T07:02:58.004Z</time>
</trkpt>
<trkpt lat="41.9637640" lon="1.9043510">
<ele>479.267517</ele>
<time>2022-09-08T07:02:58.998Z</time>
</trkpt>
<trkpt lat="41.9637620" lon="1.9044280">
<ele>477.804474</ele>
<time>2022-09-08T07:03:00.000Z</time>
</trkpt>
<trkpt lat="41.9637720" lon="1.9044900">
<ele>476.859589</ele>
<time>2022-09-08T07:03:01.002Z</time>
</trkpt>
<trkpt lat="41.9637950" lon="1.9045440">
<ele>476.219513</ele>
<time>2022-09-08T07:03:01.996Z</time>
</trkpt>
<trkpt lat="41.9638190" lon="1.9045940">
<ele>475.579468</ele>
<time>2022-09-08T07:03:02.998Z</time>
</trkpt>
<trkpt lat="41.9638420" lon="1.9046590">
<ele>474.604065</ele>
<time>2022-09-08T07:03:04.000Z</time>
</trkpt>
<trkpt lat="41.9638740" lon="1.9047470">
<ele>473.567749</ele>
<time>2022-09-08T07:03:05.003Z</time>
</trkpt>
<trkpt lat="41.9638810" lon="1.9048500">
<ele>472.348541</ele>
<time>2022-09-08T07:03:05.996Z</time>
</trkpt>
<trkpt lat="41.9638640" lon="1.9049640">
<ele>471.037933</ele>
<time>2022-09-08T07:03:06.998Z</time>
</trkpt>
<trkpt lat="41.9638470" lon="1.9050760">
<ele>469.940643</ele>
<time>2022-09-08T07:03:08.001Z</time>
</trkpt>
<trkpt lat="41.9638340" lon="1.9051990">
<ele>468.843353</ele>
<time>2022-09-08T07:03:09.003Z</time>
</trkpt>
<trkpt lat="41.9638200" lon="1.9053000">
<ele>467.928955</ele>
<time>2022-09-08T07:03:09.996Z</time>
</trkpt>
<trkpt lat="41.9637860" lon="1.9053980">
<ele>466.648804</ele>
<time>2022-09-08T07:03:10.999Z</time>
</trkpt>
<trkpt lat="41.9637430" lon="1.9054670">
<ele>465.277191</ele>
<time>2022-09-08T07:03:12.001Z</time>
</trkpt>
<trkpt lat="41.9636990" lon="1.9055260">
<ele>464.058014</ele>
<time>2022-09-08T07:03:13.003Z</time>
</trkpt>
<trkpt lat="41.9636610" lon="1.9055680">
<ele>463.082642</ele>
<time>2022-09-08T07:03:13.997Z</time>
</trkpt>
<trkpt lat="41.9636260" lon="1.9056090">
<ele>462.168243</ele>
<time>2022-09-08T07:03:14.999Z</time>
</trkpt>
<trkpt lat="41.9635630" lon="1.9056590">
<ele>460.766144</ele>
<time>2022-09-08T07:03:16.001Z</time>
</trkpt>
<trkpt lat="41.9635040" lon="1.9057150">
<ele>459.394531</ele>
<time>2022-09-08T07:03:17.004Z</time>
</trkpt>
<trkpt lat="41.9634810" lon="1.9057630">
<ele>458.602081</ele>
<time>2022-09-08T07:03:17.997Z</time>
</trkpt>
<trkpt lat="41.9634470" lon="1.9057940">
<ele>457.840057</ele>
<time>2022-09-08T07:03:18.999Z</time>
</trkpt>
<trkpt lat="41.9634120" lon="1.9058220">
<ele>457.078064</ele>
<time>2022-09-08T07:03:20.002Z</time>
</trkpt>
<trkpt lat="41.9633790" lon="1.9058510">
<ele>456.316071</ele>
<time>2022-09-08T07:03:21.004Z</time>
</trkpt>
<trkpt lat="41.9633530" lon="1.9058910">
<ele>455.615051</ele>
<time>2022-09-08T07:03:21.997Z</time>
</trkpt>
<trkpt lat="41.9633490" lon="1.9059180">
<ele>455.371185</ele>
<time>2022-09-08T07:03:23.000Z</time>
</trkpt>
<trkpt lat="41.9633480" lon="1.9059460">
<ele>455.157867</ele>
<time>2022-09-08T07:03:24.002Z</time>
</trkpt>
<trkpt lat="41.9633510" lon="1.9059760">
<ele>455.005463</ele>
<time>2022-09-08T07:03:25.004Z</time>
</trkpt>
<trkpt lat="41.9633580" lon="1.9060220">
<ele>454.822540</ele>
<time>2022-09-08T07:03:25.998Z</time>
</trkpt>
<trkpt lat="41.9633620" lon="1.9060720">
<ele>454.578735</ele>
<time>2022-09-08T07:03:27.000Z</time>
</trkpt>
<trkpt lat="41.9633720" lon="1.9061180">
<ele>454.426331</ele>
<time>2022-09-08T07:03:28.002Z</time>
</trkpt>
<trkpt lat="41.9633910" lon="1.9061720">
<ele>454.395844</ele>
<time>2022-09-08T07:03:28.996Z</time>
</trkpt>
<trkpt lat="41.9634200" lon="1.9062240">
<ele>454.517731</ele>
<time>2022-09-08T07:03:29.998Z</time>
</trkpt>
<trkpt lat="41.9634600" lon="1.9062890">
<ele>454.639679</ele>
<time>2022-09-08T07:03:31.000Z</time>
</trkpt>
<trkpt lat="41.9634880" lon="1.9063470">
<ele>454.700653</ele>
<time>2022-09-08T07:03:32.003Z</time>
</trkpt>
<trkpt lat="41.9635120" lon="1.9064100">
<ele>454.639679</ele>
<time>2022-09-08T07:03:32.996Z</time>
</trkpt>
<trkpt lat="41.9635280" lon="1.9064610">
<ele>454.609192</ele>
<time>2022-09-08T07:03:33.998Z</time>
</trkpt>
<trkpt lat="41.9635410" lon="1.9065210">
<ele>454.487274</ele>
<time>2022-09-08T07:03:35.001Z</time>
</trkpt>
<trkpt lat="41.9635510" lon="1.9065900">
<ele>454.365356</ele>
<time>2022-09-08T07:03:36.003Z</time>
</trkpt>
<trkpt lat="41.9635470" lon="1.9066600">
<ele>454.121521</ele>
<time>2022-09-08T07:03:36.996Z</time>
</trkpt>
<trkpt lat="41.9635260" lon="1.9067320">
<ele>453.755737</ele>
<time>2022-09-08T07:03:37.999Z</time>
</trkpt>
<trkpt lat="41.9635080" lon="1.9067850">
<ele>453.481445</ele>
<time>2022-09-08T07:03:39.001Z</time>
</trkpt>
<trkpt lat="41.9634870" lon="1.9068460">
<ele>453.115662</ele>
<time>2022-09-08T07:03:40.003Z</time>
</trkpt>
<trkpt lat="41.9634520" lon="1.9069050">
<ele>452.688934</ele>
<time>2022-09-08T07:03:40.997Z</time>
</trkpt>
<trkpt lat="41.9634140" lon="1.9069410">
<ele>452.262268</ele>
<time>2022-09-08T07:03:41.999Z</time>
</trkpt>
<trkpt lat="41.9633830" lon="1.9069680">
<ele>451.926941</ele>
<time>2022-09-08T07:03:43.001Z</time>
</trkpt>
<trkpt lat="41.9633470" lon="1.9070070">
<ele>451.530731</ele>
<time>2022-09-08T07:03:44.004Z</time>
</trkpt>
<trkpt lat="41.9633130" lon="1.9070440">
<ele>451.104004</ele>
<time>2022-09-08T07:03:44.997Z</time>
</trkpt>
<trkpt lat="41.9632670" lon="1.9070880">
<ele>450.585846</ele>
<time>2022-09-08T07:03:45.999Z</time>
</trkpt>
<trkpt lat="41.9632370" lon="1.9071320">
<ele>450.250549</ele>
<time>2022-09-08T07:03:47.002Z</time>
</trkpt>
<trkpt lat="41.9632180" lon="1.9071700">
<ele>450.067657</ele>
<time>2022-09-08T07:03:48.004Z</time>
</trkpt>
<trkpt lat="41.9631960" lon="1.9072160">
<ele>449.823853</ele>
<time>2022-09-08T07:03:48.997Z</time>
</trkpt>
<trkpt lat="41.9631630" lon="1.9072600">
<ele>449.488556</ele>
<time>2022-09-08T07:03:50.000Z</time>
</trkpt>
<trkpt lat="41.9631340" lon="1.9072910">
<ele>449.214264</ele>
<time>2022-09-08T07:03:51.002Z</time>
</trkpt>
<trkpt lat="41.9631100" lon="1.9073450">
<ele>449.000885</ele>
<time>2022-09-08T07:03:52.004Z</time>
</trkpt>
<trkpt lat="41.9631100" lon="1.9073790">
<ele>449.031342</ele>
<time>2022-09-08T07:03:52.998Z</time>
</trkpt>
<trkpt lat="41.9631040" lon="1.9074240">
<ele>449.000885</ele>
<time>2022-09-08T07:03:54.000Z</time>
</trkpt>
<trkpt lat="41.9630950" lon="1.9074710">
<ele>448.939941</ele>
<time>2022-09-08T07:03:55.002Z</time>
</trkpt>
<trkpt lat="41.9630660" lon="1.9075190">
<ele>448.635132</ele>
<time>2022-09-08T07:03:55.996Z</time>
</trkpt>
<trkpt lat="41.9630300" lon="1.9075450">
<ele>448.269348</ele>
<time>2022-09-08T07:03:56.998Z</time>
</trkpt>
<trkpt lat="41.9629990" lon="1.9075510">
<ele>447.873138</ele>
<time>2022-09-08T07:03:58.000Z</time>
</trkpt>
<trkpt lat="41.9629530" lon="1.9075410">
<ele>447.324463</ele>
<time>2022-09-08T07:03:59.003Z</time>
</trkpt>
<trkpt lat="41.9629040" lon="1.9075230">
<ele>446.775848</ele>
<time>2022-09-08T07:03:59.996Z</time>
</trkpt>
<trkpt lat="41.9628550" lon="1.9074950">
<ele>446.257660</ele>
<time>2022-09-08T07:04:00.998Z</time>
</trkpt>
<trkpt lat="41.9628340" lon="1.9074680">
<ele>445.952881</ele>
<time>2022-09-08T07:04:02.001Z</time>
</trkpt>
<trkpt lat="41.9628270" lon="1.9074420">
<ele>445.800476</ele>
<time>2022-09-08T07:04:03.003Z</time>
</trkpt>
<trkpt lat="41.9628200" lon="1.9073950">
<ele>445.556641</ele>
<time>2022-09-08T07:04:03.996Z</time>
</trkpt>
<trkpt lat="41.9627970" lon="1.9073560">
<ele>445.190887</ele>
<time>2022-09-08T07:04:04.999Z</time>
</trkpt>
<trkpt lat="41.9627650" lon="1.9073240">
<ele>444.733673</ele>
<time>2022-09-08T07:04:06.001Z</time>
</trkpt>
<trkpt lat="41.9627260" lon="1.9073110">
<ele>444.276459</ele>
<time>2022-09-08T07:04:07.003Z</time>
</trkpt>
<trkpt lat="41.9626990" lon="1.9073170">
<ele>444.002136</ele>
<time>2022-09-08T07:04:07.997Z</time>
</trkpt>
<trkpt lat="41.9626900" lon="1.9073400">
<ele>444.002136</ele>
<time>2022-09-08T07:04:08.999Z</time>
</trkpt>
<trkpt lat="41.9626900" lon="1.9073720">
<ele>444.154541</ele>
<time>2022-09-08T07:04:10.001Z</time>
</trkpt>
<trkpt lat="41.9627040" lon="1.9074320">
<ele>444.611755</ele>
<time>2022-09-08T07:04:11.004Z</time>
</trkpt>
<trkpt lat="41.9627140" lon="1.9074900">
<ele>444.977539</ele>
<time>2022-09-08T07:04:11.997Z</time>
</trkpt>
<trkpt lat="41.9627150" lon="1.9075420">
<ele>445.221344</ele>
<time>2022-09-08T07:04:12.999Z</time>
</trkpt>
<trkpt lat="41.9627080" lon="1.9076130">
<ele>445.495667</ele>
<time>2022-09-08T07:04:14.002Z</time>
</trkpt>
<trkpt lat="41.9627040" lon="1.9076870">
<ele>445.769989</ele>
<time>2022-09-08T07:04:15.004Z</time>
</trkpt>
<trkpt lat="41.9627150" lon="1.9077790">
<ele>446.135742</ele>
<time>2022-09-08T07:04:15.997Z</time>
</trkpt>
<trkpt lat="41.9627250" lon="1.9078500">
<ele>446.349121</ele>
<time>2022-09-08T07:04:17.000Z</time>
</trkpt>
<trkpt lat="41.9627170" lon="1.9078950">
<ele>446.379608</ele>
<time>2022-09-08T07:04:18.002Z</time>
</trkpt>
<trkpt lat="41.9626950" lon="1.9079530">
<ele>446.501526</ele>
<time>2022-09-08T07:04:19.004Z</time>
</trkpt>
<trkpt lat="41.9626760" lon="1.9079960">
<ele>446.623444</ele>
<time>2022-09-08T07:04:19.998Z</time>
</trkpt>
<trkpt lat="41.9626550" lon="1.9080560">
<ele>446.836792</ele>
<time>2022-09-08T07:04:21.000Z</time>
</trkpt>
<trkpt lat="41.9626410" lon="1.9081080">
<ele>446.989197</ele>
<time>2022-09-08T07:04:22.002Z</time>
</trkpt>
<trkpt lat="41.9626300" lon="1.9081490">
<ele>447.111115</ele>
<time>2022-09-08T07:04:22.996Z</time>
</trkpt>
<trkpt lat="41.9626090" lon="1.9082070">
<ele>447.233063</ele>
<time>2022-09-08T07:04:23.998Z</time>
</trkpt>
<trkpt lat="41.9625770" lon="1.9082510">
<ele>447.263519</ele>
<time>2022-09-08T07:04:25.000Z</time>
</trkpt>
<trkpt lat="41.9625350" lon="1.9082910">
<ele>447.263519</ele>
<time>2022-09-08T07:04:26.003Z</time>
</trkpt>
<trkpt lat="41.9624890" lon="1.9083420">
<ele>447.172058</ele>
<time>2022-09-08T07:04:26.996Z</time>
</trkpt>
<trkpt lat="41.9624550" lon="1.9083890">
<ele>447.019684</ele>
<time>2022-09-08T07:04:27.998Z</time>
</trkpt>
<trkpt lat="41.9624170" lon="1.9084340">
<ele>446.745331</ele>
<time>2022-09-08T07:04:29.001Z</time>
</trkpt>
<trkpt lat="41.9623800" lon="1.9084730">
<ele>446.440552</ele>
<time>2022-09-08T07:04:30.003Z</time>
</trkpt>
<trkpt lat="41.9623380" lon="1.9085070">
<ele>446.013855</ele>
<time>2022-09-08T07:04:30.996Z</time>
</trkpt>
<trkpt lat="41.9623050" lon="1.9085360">
<ele>445.587128</ele>
<time>2022-09-08T07:04:31.999Z</time>
</trkpt>
<trkpt lat="41.9622590" lon="1.9085650">
<ele>444.977539</ele>
<time>2022-09-08T07:04:33.001Z</time>
</trkpt>
<trkpt lat="41.9622200" lon="1.9085900">
<ele>444.398407</ele>
<time>2022-09-08T07:04:34.003Z</time>
</trkpt>
<trkpt lat="41.9621860" lon="1.9086260">
<ele>443.697357</ele>
<time>2022-09-08T07:04:34.997Z</time>
</trkpt>
<trkpt lat="41.9621390" lon="1.9086540">
<ele>442.843933</ele>
<time>2022-09-08T07:04:35.999Z</time>
</trkpt>
<trkpt lat="41.9620940" lon="1.9086690">
<ele>441.990479</ele>
<time>2022-09-08T07:04:37.001Z</time>
</trkpt>
<trkpt lat="41.9620420" lon="1.9086760">
<ele>441.137054</ele>
<time>2022-09-08T07:04:38.004Z</time>
</trkpt>
<trkpt lat="41.9619940" lon="1.9086630">
<ele>440.375061</ele>
<time>2022-09-08T07:04:38.997Z</time>
</trkpt>
<trkpt lat="41.9619460" lon="1.9086460">
<ele>439.582550</ele>
<time>2022-09-08T07:04:39.999Z</time>
</trkpt>
<trkpt lat="41.9619010" lon="1.9086330">
<ele>438.820557</ele>
<time>2022-09-08T07:04:41.002Z</time>
</trkpt>
<trkpt lat="41.9618640" lon="1.9086170">
<ele>438.119537</ele>
<time>2022-09-08T07:04:42.004Z</time>
</trkpt>
<trkpt lat="41.9618250" lon="1.9085940">
<ele>437.418488</ele>
<time>2022-09-08T07:04:42.997Z</time>
</trkpt>
<trkpt lat="41.9617900" lon="1.9085630">
<ele>436.778412</ele>
<time>2022-09-08T07:04:44.000Z</time>
</trkpt>
<trkpt lat="41.9617690" lon="1.9085290">
<ele>436.534546</ele>
<time>2022-09-08T07:04:45.002Z</time>
</trkpt>
<trkpt lat="41.9617490" lon="1.9084910">
<ele>436.321198</ele>
<time>2022-09-08T07:04:46.004Z</time>
</trkpt>
<trkpt lat="41.9617250" lon="1.9084510">
<ele>435.894470</ele>
<time>2022-09-08T07:04:46.998Z</time>
</trkpt>
<trkpt lat="41.9617010" lon="1.9084120">
<ele>435.528717</ele>
<time>2022-09-08T07:04:48.000Z</time>
</trkpt>
<trkpt lat="41.9616720" lon="1.9083730">
<ele>435.071533</ele>
<time>2022-09-08T07:04:49.002Z</time>
</trkpt>
<trkpt lat="41.9616440" lon="1.9083330">
<ele>434.492401</ele>
<time>2022-09-08T07:04:49.996Z</time>
</trkpt>
<trkpt lat="41.9616270" lon="1.9082820">
<ele>434.309540</ele>
<time>2022-09-08T07:04:50.998Z</time>
</trkpt>
<trkpt lat="41.9616270" lon="1.9082260">
<ele>434.461914</ele>
<time>2022-09-08T07:04:52.000Z</time>
</trkpt>
<trkpt lat="41.9616390" lon="1.9081670">
<ele>434.827667</ele>
<time>2022-09-08T07:04:53.003Z</time>
</trkpt>
<trkpt lat="41.9616570" lon="1.9081250">
<ele>435.284882</ele>
<time>2022-09-08T07:04:53.996Z</time>
</trkpt>
<trkpt lat="41.9616830" lon="1.9080630">
<ele>435.742065</ele>
<time>2022-09-08T07:04:54.998Z</time>
</trkpt>
<trkpt lat="41.9616940" lon="1.9080040">
<ele>435.894470</ele>
<time>2022-09-08T07:04:56.001Z</time>
</trkpt>
<trkpt lat="41.9616920" lon="1.9079430">
<ele>435.742065</ele>
<time>2022-09-08T07:04:57.003Z</time>
</trkpt>
<trkpt lat="41.9616790" lon="1.9078940">
<ele>435.315338</ele>
<time>2022-09-08T07:04:57.996Z</time>
</trkpt>
<trkpt lat="41.9616480" lon="1.9078490">
<ele>434.614319</ele>
<time>2022-09-08T07:04:58.999Z</time>
</trkpt>
<trkpt lat="41.9616190" lon="1.9078330">
<ele>434.065674</ele>
<time>2022-09-08T07:05:00.001Z</time>
</trkpt>
<trkpt lat="41.9615850" lon="1.9078300">
<ele>433.425598</ele>
<time>2022-09-08T07:05:01.003Z</time>
</trkpt>
<trkpt lat="41.9615510" lon="1.9078240">
<ele>432.755066</ele>
<time>2022-09-08T07:05:01.997Z</time>
</trkpt>
<trkpt lat="41.9615110" lon="1.9078130">
<ele>431.932068</ele>
<time>2022-09-08T07:05:02.999Z</time>
</trkpt>
<trkpt lat="41.9614710" lon="1.9077970">
<ele>431.170074</ele>
<time>2022-09-08T07:05:04.001Z</time>
</trkpt>
<trkpt lat="41.9614320" lon="1.9077740">
<ele>430.377594</ele>
<time>2022-09-08T07:05:05.004Z</time>
</trkpt>
<trkpt lat="41.9613910" lon="1.9077430">
<ele>429.493683</ele>
<time>2022-09-08T07:05:05.997Z</time>
</trkpt>
<trkpt lat="41.9613520" lon="1.9077160">
<ele>428.670715</ele>
<time>2022-09-08T07:05:06.999Z</time>
</trkpt>
<trkpt lat="41.9612990" lon="1.9076990">
<ele>427.634399</ele>
<time>2022-09-08T07:05:08.002Z</time>
</trkpt>
<trkpt lat="41.9612560" lon="1.9076800">
<ele>426.720001</ele>
<time>2022-09-08T07:05:09.004Z</time>
</trkpt>
<trkpt lat="41.9612260" lon="1.9076570">
<ele>426.049469</ele>
<time>2022-09-08T07:05:09.997Z</time>
</trkpt>
<trkpt lat="41.9612070" lon="1.9076300">
<ele>425.500793</ele>
<time>2022-09-08T07:05:11.000Z</time>
</trkpt>
<trkpt lat="41.9611940" lon="1.9075940">
<ele>425.043610</ele>
<time>2022-09-08T07:05:12.002Z</time>
</trkpt>
<trkpt lat="41.9611800" lon="1.9075680">
<ele>424.708313</ele>
<time>2022-09-08T07:05:13.004Z</time>
</trkpt>
<trkpt lat="41.9611500" lon="1.9075470">
<ele>423.976807</ele>
<time>2022-09-08T07:05:13.998Z</time>
</trkpt>
<trkpt lat="41.9611100" lon="1.9075410">
<ele>423.031921</ele>
<time>2022-09-08T07:05:15.000Z</time>
</trkpt>
<trkpt lat="41.9610590" lon="1.9075630">
<ele>421.995605</ele>
<time>2022-09-08T07:05:16.002Z</time>
</trkpt>
<trkpt lat="41.9610200" lon="1.9075920">
<ele>421.203125</ele>
<time>2022-09-08T07:05:16.996Z</time>
</trkpt>
<trkpt lat="41.9609840" lon="1.9076440">
<ele>420.502075</ele>
<time>2022-09-08T07:05:17.998Z</time>
</trkpt>
<trkpt lat="41.9609900" lon="1.9076920">
<ele>420.745941</ele>
<time>2022-09-08T07:05:19.000Z</time>
</trkpt>
<trkpt lat="41.9610070" lon="1.9077460">
<ele>421.172668</ele>
<time>2022-09-08T07:05:20.003Z</time>
</trkpt>
<trkpt lat="41.9610350" lon="1.9077940">
<ele>421.934662</ele>
<time>2022-09-08T07:05:20.996Z</time>
</trkpt>
<trkpt lat="41.9610680" lon="1.9078470">
<ele>422.666138</ele>
<time>2022-09-08T07:05:21.998Z</time>
</trkpt>
<trkpt lat="41.9610960" lon="1.9078830">
<ele>423.397675</ele>
<time>2022-09-08T07:05:23.001Z</time>
</trkpt>
<trkpt lat="41.9611360" lon="1.9079190">
<ele>424.251129</ele>
<time>2022-09-08T07:05:24.003Z</time>
</trkpt>
<trkpt lat="41.9611880" lon="1.9079470">
<ele>425.439850</ele>
<time>2022-09-08T07:05:24.996Z</time>
</trkpt>
<trkpt lat="41.9612330" lon="1.9079630">
<ele>426.445679</ele>
<time>2022-09-08T07:05:25.999Z</time>
</trkpt>
<trkpt lat="41.9612730" lon="1.9079750">
<ele>427.329590</ele>
<time>2022-09-08T07:05:27.001Z</time>
</trkpt>
<trkpt lat="41.9613050" lon="1.9079940">
<ele>427.908722</ele>
<time>2022-09-08T07:05:28.003Z</time>
</trkpt>
<trkpt lat="41.9613300" lon="1.9080290">
<ele>428.365936</ele>
<time>2022-09-08T07:05:28.997Z</time>
</trkpt>
<trkpt lat="41.9613420" lon="1.9080700">
<ele>428.518341</ele>
<time>2022-09-08T07:05:29.999Z</time>
</trkpt>
<trkpt lat="41.9613450" lon="1.9081060">
<ele>428.487854</ele>
<time>2022-09-08T07:05:31.001Z</time>
</trkpt>
<trkpt lat="41.9613460" lon="1.9081370">
<ele>428.396393</ele>
<time>2022-09-08T07:05:32.004Z</time>
</trkpt>
<trkpt lat="41.9613420" lon="1.9081610">
<ele>428.213531</ele>
<time>2022-09-08T07:05:32.997Z</time>
</trkpt>
<trkpt lat="41.9613280" lon="1.9081780">
<ele>427.847748</ele>
<time>2022-09-08T07:05:33.999Z</time>
</trkpt>
<trkpt lat="41.9613030" lon="1.9081890">
<ele>427.329590</ele>
<time>2022-09-08T07:05:35.002Z</time>
</trkpt>
<trkpt lat="41.9612850" lon="1.9081880">
<ele>426.933350</ele>
<time>2022-09-08T07:05:36.004Z</time>
</trkpt>
<trkpt lat="41.9612700" lon="1.9081700">
<ele>426.689514</ele>
<time>2022-09-08T07:05:36.997Z</time>
</trkpt>
<trkpt lat="41.9612530" lon="1.9081350">
<ele>426.506653</ele>
<time>2022-09-08T07:05:38.000Z</time>
</trkpt>
<trkpt lat="41.9612270" lon="1.9080980">
<ele>425.958008</ele>
<time>2022-09-08T07:05:39.002Z</time>
</trkpt>
<trkpt lat="41.9611980" lon="1.9080720">
<ele>425.317932</ele>
<time>2022-09-08T07:05:40.004Z</time>
</trkpt>
<trkpt lat="41.9611530" lon="1.9080550">
<ele>424.281586</ele>
<time>2022-09-08T07:05:40.998Z</time>
</trkpt>
<trkpt lat="41.9611110" lon="1.9080370">
<ele>423.397675</ele>
<time>2022-09-08T07:05:42.000Z</time>
</trkpt>
<trkpt lat="41.9610640" lon="1.9080220">
<ele>422.422333</ele>
<time>2022-09-08T07:05:43.002Z</time>
</trkpt>
<trkpt lat="41.9610280" lon="1.9080120">
<ele>421.751740</ele>
<time>2022-09-08T07:05:43.996Z</time>
</trkpt>
<trkpt lat="41.9609830" lon="1.9079820">
<ele>420.928802</ele>
<time>2022-09-08T07:05:44.998Z</time>
</trkpt>
<trkpt lat="41.9609550" lon="1.9079420">
<ele>420.502075</ele>
<time>2022-09-08T07:05:46.000Z</time>
</trkpt>
<trkpt lat="41.9609300" lon="1.9078870">
<ele>419.983917</ele>
<time>2022-09-08T07:05:47.003Z</time>
</trkpt>
<trkpt lat="41.9609080" lon="1.9078300">
<ele>419.435272</ele>
<time>2022-09-08T07:05:47.996Z</time>
</trkpt>
<trkpt lat="41.9608800" lon="1.9077870">
<ele>418.825684</ele>
<time>2022-09-08T07:05:48.998Z</time>
</trkpt>
<trkpt lat="41.9608350" lon="1.9077310">
<ele>417.941742</ele>
<time>2022-09-08T07:05:50.001Z</time>
</trkpt>
<trkpt lat="41.9608000" lon="1.9076820">
<ele>417.271210</ele>
<time>2022-09-08T07:05:51.003Z</time>
</trkpt>
<trkpt lat="41.9607860" lon="1.9076300">
<ele>416.966400</ele>
<time>2022-09-08T07:05:51.996Z</time>
</trkpt>
<trkpt lat="41.9607760" lon="1.9075740">
<ele>416.783539</ele>
<time>2022-09-08T07:05:52.999Z</time>
</trkpt>
<trkpt lat="41.9607730" lon="1.9075200">
<ele>416.722534</ele>
<time>2022-09-08T07:05:54.001Z</time>
</trkpt>
<trkpt lat="41.9607830" lon="1.9074690">
<ele>416.874939</ele>
<time>2022-09-08T07:05:55.003Z</time>
</trkpt>
<trkpt lat="41.9608030" lon="1.9074160">
<ele>417.301666</ele>
<time>2022-09-08T07:05:55.997Z</time>
</trkpt>
<trkpt lat="41.9608250" lon="1.9073730">
<ele>417.728394</ele>
<time>2022-09-08T07:05:56.999Z</time>
</trkpt>
<trkpt lat="41.9608480" lon="1.9073340">
<ele>418.216064</ele>
<time>2022-09-08T07:05:58.001Z</time>
</trkpt>
<trkpt lat="41.9608630" lon="1.9072900">
<ele>418.551331</ele>
<time>2022-09-08T07:05:59.004Z</time>
</trkpt>
<trkpt lat="41.9608810" lon="1.9072340">
<ele>419.130463</ele>
<time>2022-09-08T07:05:59.997Z</time>
</trkpt>
<trkpt lat="41.9608980" lon="1.9071590">
<ele>419.862000</ele>
<time>2022-09-08T07:06:00.999Z</time>
</trkpt>
<trkpt lat="41.9609010" lon="1.9070720">
<ele>420.532532</ele>
<time>2022-09-08T07:06:02.002Z</time>
</trkpt>
<trkpt lat="41.9609020" lon="1.9069960">
<ele>421.111664</ele>
<time>2022-09-08T07:06:03.004Z</time>
</trkpt>
<trkpt lat="41.9609030" lon="1.9069320">
<ele>421.599335</ele>
<time>2022-09-08T07:06:03.997Z</time>
</trkpt>
<trkpt lat="41.9608810" lon="1.9068580">
<ele>421.995605</ele>
<time>2022-09-08T07:06:05.000Z</time>
</trkpt>
<trkpt lat="41.9608290" lon="1.9068330">
<ele>421.599335</ele>
<time>2022-09-08T07:06:06.002Z</time>
</trkpt>
<trkpt lat="41.9607880" lon="1.9068270">
<ele>421.111664</ele>
<time>2022-09-08T07:06:07.004Z</time>
</trkpt>
<trkpt lat="41.9607480" lon="1.9068390">
<ele>420.471588</ele>
<time>2022-09-08T07:06:07.998Z</time>
</trkpt>
<trkpt lat="41.9607120" lon="1.9068620">
<ele>419.831512</ele>
<time>2022-09-08T07:06:09.000Z</time>
</trkpt>
<trkpt lat="41.9606710" lon="1.9068880">
<ele>419.100006</ele>
<time>2022-09-08T07:06:10.002Z</time>
</trkpt>
<trkpt lat="41.9606230" lon="1.9069070">
<ele>418.459930</ele>
<time>2022-09-08T07:06:10.996Z</time>
</trkpt>
<trkpt lat="41.9605780" lon="1.9069120">
<ele>417.941742</ele>
<time>2022-09-08T07:06:11.998Z</time>
</trkpt>
<trkpt lat="41.9605380" lon="1.9068930">
<ele>417.728394</ele>
<time>2022-09-08T07:06:13.000Z</time>
</trkpt>
<trkpt lat="41.9605080" lon="1.9068530">
<ele>417.758881</ele>
<time>2022-09-08T07:06:14.003Z</time>
</trkpt>
<trkpt lat="41.9604940" lon="1.9068010">
<ele>418.094147</ele>
<time>2022-09-08T07:06:14.996Z</time>
</trkpt>
<trkpt lat="41.9605010" lon="1.9067430">
<ele>418.703735</ele>
<time>2022-09-08T07:06:15.998Z</time>
</trkpt>
<trkpt lat="41.9605220" lon="1.9067000">
<ele>419.374329</ele>
<time>2022-09-08T07:06:17.001Z</time>
</trkpt>
<trkpt lat="41.9605500" lon="1.9066660">
<ele>420.044861</ele>
<time>2022-09-08T07:06:18.003Z</time>
</trkpt>
<trkpt lat="41.9605740" lon="1.9066250">
<ele>420.867859</ele>
<time>2022-09-08T07:06:18.996Z</time>
</trkpt>
<trkpt lat="41.9606030" lon="1.9065810">
<ele>421.782257</ele>
<time>2022-09-08T07:06:19.999Z</time>
</trkpt>
<trkpt lat="41.9606330" lon="1.9065370">
<ele>422.818542</ele>
<time>2022-09-08T07:06:21.001Z</time>
</trkpt>
<trkpt lat="41.9606470" lon="1.9064960">
<ele>423.611053</ele>
<time>2022-09-08T07:06:22.003Z</time>
</trkpt>
<trkpt lat="41.9606450" lon="1.9064730">
<ele>423.915863</ele>
<time>2022-09-08T07:06:22.997Z</time>
</trkpt>
<trkpt lat="41.9606360" lon="1.9064630">
<ele>423.946320</ele>
<time>2022-09-08T07:06:23.999Z</time>
</trkpt>
<trkpt lat="41.9606200" lon="1.9064610">
<ele>423.793915</ele>
<time>2022-09-08T07:06:25.001Z</time>
</trkpt>
<trkpt lat="41.9605980" lon="1.9064650">
<ele>423.397675</ele>
<time>2022-09-08T07:06:26.004Z</time>
</trkpt>
<trkpt lat="41.9605680" lon="1.9064690">
<ele>422.940460</ele>
<time>2022-09-08T07:06:26.997Z</time>
</trkpt>
<trkpt lat="41.9605300" lon="1.9064740">
<ele>422.330872</ele>
<time>2022-09-08T07:06:27.999Z</time>
</trkpt>
<trkpt lat="41.9604920" lon="1.9064780">
<ele>421.751740</ele>
<time>2022-09-08T07:06:29.002Z</time>
</trkpt>
<trkpt lat="41.9604590" lon="1.9064720">
<ele>421.385986</ele>
<time>2022-09-08T07:06:30.004Z</time>
</trkpt>
<trkpt lat="41.9604350" lon="1.9064580">
<ele>421.203125</ele>
<time>2022-09-08T07:06:30.997Z</time>
</trkpt>
<trkpt lat="41.9604100" lon="1.9064370">
<ele>421.111664</ele>
<time>2022-09-08T07:06:32.000Z</time>
</trkpt>
<trkpt lat="41.9603850" lon="1.9064210">
<ele>420.837341</ele>
<time>2022-09-08T07:06:33.002Z</time>
</trkpt>
<trkpt lat="41.9603570" lon="1.9064050">
<ele>420.532532</ele>
<time>2022-09-08T07:06:34.004Z</time>
</trkpt>
<trkpt lat="41.9603280" lon="1.9063920">
<ele>420.105865</ele>
<time>2022-09-08T07:06:34.998Z</time>
</trkpt>
<trkpt lat="41.9602940" lon="1.9063950">
<ele>419.404785</ele>
<time>2022-09-08T07:06:36.000Z</time>
</trkpt>
<trkpt lat="41.9602610" lon="1.9064020">
<ele>418.734253</ele>
<time>2022-09-08T07:06:37.002Z</time>
</trkpt>
<trkpt lat="41.9602230" lon="1.9063990">
<ele>418.063660</ele>
<time>2022-09-08T07:06:37.996Z</time>
</trkpt>
<trkpt lat="41.9601920" lon="1.9063730">
<ele>417.789337</ele>
<time>2022-09-08T07:06:38.998Z</time>
</trkpt>
<trkpt lat="41.9601750" lon="1.9063370">
<ele>417.880798</ele>
<time>2022-09-08T07:06:40.000Z</time>
</trkpt>
<trkpt lat="41.9601590" lon="1.9062960">
<ele>418.124664</ele>
<time>2022-09-08T07:06:41.003Z</time>
</trkpt>
<trkpt lat="41.9601380" lon="1.9062550">
<ele>418.277069</ele>
<time>2022-09-08T07:06:41.996Z</time>
</trkpt>
<trkpt lat="41.9601080" lon="1.9062060">
<ele>418.216064</ele>
<time>2022-09-08T07:06:42.998Z</time>
</trkpt>
<trkpt lat="41.9600850" lon="1.9061510">
<ele>418.277069</ele>
<time>2022-09-08T07:06:44.001Z</time>
</trkpt>
<trkpt lat="41.9600620" lon="1.9060880">
<ele>418.368469</ele>
<time>2022-09-08T07:06:45.003Z</time>
</trkpt>
<trkpt lat="41.9600360" lon="1.9060290">
<ele>418.612335</ele>
<time>2022-09-08T07:06:45.996Z</time>
</trkpt>
<trkpt lat="41.9600040" lon="1.9059820">
<ele>418.551331</ele>
<time>2022-09-08T07:06:46.999Z</time>
</trkpt>
<trkpt lat="41.9599630" lon="1.9059430">
<ele>418.368469</ele>
<time>2022-09-08T07:06:48.001Z</time>
</trkpt>
<trkpt lat="41.9599300" lon="1.9058980">
<ele>418.459930</ele>
<time>2022-09-08T07:06:49.003Z</time>
</trkpt>
<trkpt lat="41.9599080" lon="1.9058530">
<ele>418.825684</ele>
<time>2022-09-08T07:06:49.997Z</time>
</trkpt>
<trkpt lat="41.9598900" lon="1.9058120">
<ele>419.252411</ele>
<time>2022-09-08T07:06:50.999Z</time>
</trkpt>
<trkpt lat="41.9598700" lon="1.9057950">
<ele>419.282867</ele>
<time>2022-09-08T07:06:52.001Z</time>
</trkpt>
<trkpt lat="41.9598360" lon="1.9057910">
<ele>418.825684</ele>
<time>2022-09-08T07:06:53.004Z</time>
</trkpt>
<trkpt lat="41.9598170" lon="1.9057820">
<ele>418.734253</ele>
<time>2022-09-08T07:06:53.997Z</time>
</trkpt>
<trkpt lat="41.9597950" lon="1.9057600">
<ele>418.917114</ele>
<time>2022-09-08T07:06:54.999Z</time>
</trkpt>
<trkpt lat="41.9597710" lon="1.9057340">
<ele>419.100006</ele>
<time>2022-09-08T07:06:56.002Z</time>
</trkpt>
<trkpt lat="41.9597480" lon="1.9056940">
<ele>419.679138</ele>
<time>2022-09-08T07:06:57.004Z</time>
</trkpt>
<trkpt lat="41.9597200" lon="1.9056590">
<ele>420.166809</ele>
<time>2022-09-08T07:06:57.997Z</time>
</trkpt>
<trkpt lat="41.9596920" lon="1.9056200">
<ele>420.715454</ele>
<time>2022-09-08T07:06:59.000Z</time>
</trkpt>
<trkpt lat="41.9596720" lon="1.9055850">
<ele>421.385986</ele>
<time>2022-09-08T07:07:00.002Z</time>
</trkpt>
<trkpt lat="41.9596410" lon="1.9055420">
<ele>422.148010</ele>
<time>2022-09-08T07:07:01.004Z</time>
</trkpt>
<trkpt lat="41.9596040" lon="1.9054990">
<ele>422.849060</ele>
<time>2022-09-08T07:07:01.998Z</time>
</trkpt>
<trkpt lat="41.9595640" lon="1.9054630">
<ele>423.306244</ele>
<time>2022-09-08T07:07:03.000Z</time>
</trkpt>
<trkpt lat="41.9595210" lon="1.9054210">
<ele>423.854858</ele>
<time>2022-09-08T07:07:04.002Z</time>
</trkpt>
<trkpt lat="41.9594820" lon="1.9053960">
<ele>423.824402</ele>
<time>2022-09-08T07:07:04.996Z</time>
</trkpt>
<trkpt lat="41.9594370" lon="1.9053850">
<ele>423.458649</ele>
<time>2022-09-08T07:07:05.998Z</time>
</trkpt>
<trkpt lat="41.9593850" lon="1.9053900">
<ele>422.483276</ele>
<time>2022-09-08T07:07:07.000Z</time>
</trkpt>
<trkpt lat="41.9593230" lon="1.9054050">
<ele>421.264069</ele>
<time>2022-09-08T07:07:08.003Z</time>
</trkpt>
<trkpt lat="41.9592550" lon="1.9054340">
<ele>419.618134</ele>
<time>2022-09-08T07:07:08.996Z</time>
</trkpt>
<trkpt lat="41.9591840" lon="1.9054620">
<ele>418.124664</ele>
<time>2022-09-08T07:07:09.998Z</time>
</trkpt>
<trkpt lat="41.9591210" lon="1.9055020">
<ele>416.722534</ele>
<time>2022-09-08T07:07:11.001Z</time>
</trkpt>
<trkpt lat="41.9590660" lon="1.9055450">
<ele>415.564331</ele>
<time>2022-09-08T07:07:12.003Z</time>
</trkpt>
<trkpt lat="41.9590220" lon="1.9055840">
<ele>414.832794</ele>
<time>2022-09-08T07:07:12.996Z</time>
</trkpt>
<trkpt lat="41.9589820" lon="1.9056170">
<ele>414.375610</ele>
<time>2022-09-08T07:07:13.999Z</time>
</trkpt>
<trkpt lat="41.9589360" lon="1.9056560">
<ele>414.070801</ele>
<time>2022-09-08T07:07:15.001Z</time>
</trkpt>
<trkpt lat="41.9588980" lon="1.9056990">
<ele>413.979340</ele>
<time>2022-09-08T07:07:16.003Z</time>
</trkpt>
<trkpt lat="41.9588620" lon="1.9057420">
<ele>414.131744</ele>
<time>2022-09-08T07:07:16.997Z</time>
</trkpt>
<trkpt lat="41.9588310" lon="1.9057870">
<ele>414.436554</ele>
<time>2022-09-08T07:07:17.999Z</time>
</trkpt>
<trkpt lat="41.9588010" lon="1.9058330">
<ele>414.985199</ele>
<time>2022-09-08T07:07:19.001Z</time>
</trkpt>
<trkpt lat="41.9587700" lon="1.9058720">
<ele>415.625275</ele>
<time>2022-09-08T07:07:20.004Z</time>
</trkpt>
<trkpt lat="41.9587410" lon="1.9059050">
<ele>416.234863</ele>
<time>2022-09-08T07:07:20.997Z</time>
</trkpt>
<trkpt lat="41.9587120" lon="1.9059370">
<ele>416.844482</ele>
<time>2022-09-08T07:07:21.999Z</time>
</trkpt>
<trkpt lat="41.9586820" lon="1.9059660">
<ele>417.515045</ele>
<time>2022-09-08T07:07:23.002Z</time>
</trkpt>
<trkpt lat="41.9586590" lon="1.9059800">
<ele>417.941742</ele>
<time>2022-09-08T07:07:24.004Z</time>
</trkpt>
<trkpt lat="41.9586400" lon="1.9059800">
<ele>418.094147</ele>
<time>2022-09-08T07:07:24.997Z</time>
</trkpt>
<trkpt lat="41.9586250" lon="1.9059750">
<ele>418.094147</ele>
<time>2022-09-08T07:07:26.000Z</time>
</trkpt>
<trkpt lat="41.9586150" lon="1.9059720">
<ele>418.124664</ele>
<time>2022-09-08T07:07:27.002Z</time>
</trkpt>
<trkpt lat="41.9586090" lon="1.9059610">
<ele>417.972260</ele>
<time>2022-09-08T07:07:28.004Z</time>
</trkpt>
<trkpt lat="41.9586030" lon="1.9059340">
<ele>417.545532</ele>
<time>2022-09-08T07:07:28.998Z</time>
</trkpt>
<trkpt lat="41.9585850" lon="1.9059000">
<ele>417.057861</ele>
<time>2022-09-08T07:07:30.000Z</time>
</trkpt>
<trkpt lat="41.9585630" lon="1.9058620">
<ele>416.539673</ele>
<time>2022-09-08T07:07:31.002Z</time>
</trkpt>
<trkpt lat="41.9585390" lon="1.9058160">
<ele>415.899597</ele>
<time>2022-09-08T07:07:31.996Z</time>
</trkpt>
<trkpt lat="41.9585220" lon="1.9057670">
<ele>415.229065</ele>
<time>2022-09-08T07:07:32.998Z</time>
</trkpt>
<trkpt lat="41.9585090" lon="1.9057140">
<ele>414.588959</ele>
<time>2022-09-08T07:07:34.000Z</time>
</trkpt>
<trkpt lat="41.9584980" lon="1.9056600">
<ele>413.979340</ele>
<time>2022-09-08T07:07:35.003Z</time>
</trkpt>
<trkpt lat="41.9584830" lon="1.9056120">
<ele>413.552643</ele>
<time>2022-09-08T07:07:35.996Z</time>
</trkpt>
<trkpt lat="41.9584760" lon="1.9055640">
<ele>413.186859</ele>
<time>2022-09-08T07:07:36.998Z</time>
</trkpt>
<trkpt lat="41.9584600" lon="1.9055040">
<ele>412.912537</ele>
<time>2022-09-08T07:07:38.001Z</time>
</trkpt>
<trkpt lat="41.9584490" lon="1.9054510">
<ele>412.821136</ele>
<time>2022-09-08T07:07:39.003Z</time>
</trkpt>
<trkpt lat="41.9584320" lon="1.9053790">
<ele>412.699188</ele>
<time>2022-09-08T07:07:39.996Z</time>
</trkpt>
<trkpt lat="41.9584040" lon="1.9053170">
<ele>412.668732</ele>
<time>2022-09-08T07:07:40.999Z</time>
</trkpt>
<trkpt lat="41.9583560" lon="1.9052600">
<ele>412.729675</ele>
<time>2022-09-08T07:07:42.001Z</time>
</trkpt>
<trkpt lat="41.9582940" lon="1.9052080">
<ele>412.851593</ele>
<time>2022-09-08T07:07:43.003Z</time>
</trkpt>
<trkpt lat="41.9582300" lon="1.9051730">
<ele>412.882080</ele>
<time>2022-09-08T07:07:43.997Z</time>
</trkpt>
<trkpt lat="41.9581670" lon="1.9051460">
<ele>412.912537</ele>
<time>2022-09-08T07:07:44.999Z</time>
</trkpt>
<trkpt lat="41.9580980" lon="1.9051180">
<ele>412.973541</ele>
<time>2022-09-08T07:07:46.001Z</time>
</trkpt>
<trkpt lat="41.9580280" lon="1.9050890">
<ele>413.064941</ele>
<time>2022-09-08T07:07:47.004Z</time>
</trkpt>
<trkpt lat="41.9579670" lon="1.9050570">
<ele>413.247864</ele>
<time>2022-09-08T07:07:47.997Z</time>
</trkpt>
<trkpt lat="41.9579150" lon="1.9050380">
<ele>413.339264</ele>
<time>2022-09-08T07:07:48.999Z</time>
</trkpt>
<trkpt lat="41.9578420" lon="1.9050230">
<ele>413.064941</ele>
<time>2022-09-08T07:07:50.002Z</time>
</trkpt>
<trkpt lat="41.9577890" lon="1.9050110">
<ele>412.943054</ele>
<time>2022-09-08T07:07:51.004Z</time>
</trkpt>
<trkpt lat="41.9577340" lon="1.9049970">
<ele>412.912537</ele>
<time>2022-09-08T07:07:51.997Z</time>
</trkpt>
<trkpt lat="41.9576760" lon="1.9049780">
<ele>413.034485</ele>
<time>2022-09-08T07:07:53.000Z</time>
</trkpt>
<trkpt lat="41.9576310" lon="1.9049750">
<ele>413.034485</ele>
<time>2022-09-08T07:07:54.002Z</time>
</trkpt>
<trkpt lat="41.9575740" lon="1.9049700">
<ele>413.125916</ele>
<time>2022-09-08T07:07:55.004Z</time>
</trkpt>
<trkpt lat="41.9575160" lon="1.9049660">
<ele>413.247864</ele>
<time>2022-09-08T07:07:55.998Z</time>
</trkpt>
<trkpt lat="41.9574480" lon="1.9049570">
<ele>413.552643</ele>
<time>2022-09-08T07:07:57.000Z</time>
</trkpt>
<trkpt lat="41.9573860" lon="1.9049530">
<ele>413.826935</ele>
<time>2022-09-08T07:07:58.002Z</time>
</trkpt>
<trkpt lat="41.9573060" lon="1.9049400">
<ele>414.345123</ele>
<time>2022-09-08T07:07:58.996Z</time>
</trkpt>
<trkpt lat="41.9572350" lon="1.9049340">
<ele>414.771851</ele>
<time>2022-09-08T07:07:59.998Z</time>
</trkpt>
<trkpt lat="41.9571800" lon="1.9049330">
<ele>415.046143</ele>
<time>2022-09-08T07:08:01.000Z</time>
</trkpt>
<trkpt lat="41.9571360" lon="1.9049290">
<ele>415.350952</ele>
<time>2022-09-08T07:08:02.003Z</time>
</trkpt>
<trkpt lat="41.9571000" lon="1.9049200">
<ele>415.655731</ele>
<time>2022-09-08T07:08:02.996Z</time>
</trkpt>
<trkpt lat="41.9570450" lon="1.9049100">
<ele>415.991058</ele>
<time>2022-09-08T07:08:03.998Z</time>
</trkpt>
<trkpt lat="41.9569840" lon="1.9048980">
<ele>416.356812</ele>
<time>2022-09-08T07:08:05.001Z</time>
</trkpt>
<trkpt lat="41.9569380" lon="1.9048660">
<ele>417.027344</ele>
<time>2022-09-08T07:08:06.003Z</time>
</trkpt>
<trkpt lat="41.9569000" lon="1.9048450">
<ele>417.484558</ele>
<time>2022-09-08T07:08:06.996Z</time>
</trkpt>
<trkpt lat="41.9568630" lon="1.9048390">
<ele>417.728394</ele>
<time>2022-09-08T07:08:07.999Z</time>
</trkpt>
<trkpt lat="41.9568290" lon="1.9048480">
<ele>417.667450</ele>
<time>2022-09-08T07:08:09.001Z</time>
</trkpt>
<trkpt lat="41.9567860" lon="1.9048610">
<ele>417.606476</ele>
<time>2022-09-08T07:08:10.003Z</time>
</trkpt>
<trkpt lat="41.9567480" lon="1.9048690">
<ele>417.606476</ele>
<time>2022-09-08T07:08:10.997Z</time>
</trkpt>
<trkpt lat="41.9567090" lon="1.9048680">
<ele>417.728394</ele>
<time>2022-09-08T07:08:11.999Z</time>
</trkpt>
<trkpt lat="41.9566680" lon="1.9048670">
<ele>417.880798</ele>
<time>2022-09-08T07:08:13.001Z</time>
</trkpt>
<trkpt lat="41.9566400" lon="1.9048680">
<ele>417.972260</ele>
<time>2022-09-08T07:08:14.004Z</time>
</trkpt>
<trkpt lat="41.9565920" lon="1.9048710">
<ele>418.063660</ele>
<time>2022-09-08T07:08:14.997Z</time>
</trkpt>
<trkpt lat="41.9565560" lon="1.9048720">
<ele>418.124664</ele>
<time>2022-09-08T07:08:15.999Z</time>
</trkpt>
<trkpt lat="41.9565110" lon="1.9048760">
<ele>418.185608</ele>
<time>2022-09-08T07:08:17.002Z</time>
</trkpt>
<trkpt lat="41.9564790" lon="1.9048830">
<ele>418.124664</ele>
<time>2022-09-08T07:08:18.004Z</time>
</trkpt>
<trkpt lat="41.9564410" lon="1.9048970">
<ele>417.972260</ele>
<time>2022-09-08T07:08:18.997Z</time>
</trkpt>
<trkpt lat="41.9564050" lon="1.9049020">
<ele>417.972260</ele>
<time>2022-09-08T07:08:20.000Z</time>
</trkpt>
<trkpt lat="41.9563590" lon="1.9049000">
<ele>418.033203</ele>
<time>2022-09-08T07:08:21.002Z</time>
</trkpt>
<trkpt lat="41.9563130" lon="1.9049110">
<ele>417.911285</ele>
<time>2022-09-08T07:08:22.004Z</time>
</trkpt>
<trkpt lat="41.9562630" lon="1.9049280">
<ele>417.636932</ele>
<time>2022-09-08T07:08:22.998Z</time>
</trkpt>
<trkpt lat="41.9562340" lon="1.9049400">
<ele>417.454071</ele>
<time>2022-09-08T07:08:24.000Z</time>
</trkpt>
<trkpt lat="41.9561910" lon="1.9049410">
<ele>417.423615</ele>
<time>2022-09-08T07:08:25.002Z</time>
</trkpt>
<trkpt lat="41.9561410" lon="1.9049370">
<ele>417.423615</ele>
<time>2022-09-08T07:08:25.996Z</time>
</trkpt>
<trkpt lat="41.9560930" lon="1.9049480">
<ele>417.149261</ele>
<time>2022-09-08T07:08:26.998Z</time>
</trkpt>
<trkpt lat="41.9560460" lon="1.9049670">
<ele>416.753052</ele>
<time>2022-09-08T07:08:28.000Z</time>
</trkpt>
<trkpt lat="41.9560210" lon="1.9049760">
<ele>416.539673</ele>
<time>2022-09-08T07:08:29.003Z</time>
</trkpt>
<trkpt lat="41.9559770" lon="1.9049830">
<ele>416.295868</ele>
<time>2022-09-08T07:08:29.996Z</time>
</trkpt>
<trkpt lat="41.9559280" lon="1.9049880">
<ele>416.052002</ele>
<time>2022-09-08T07:08:30.998Z</time>
</trkpt>
<trkpt lat="41.9558930" lon="1.9050000">
<ele>415.747192</ele>
<time>2022-09-08T07:08:32.001Z</time>
</trkpt>
<trkpt lat="41.9558640" lon="1.9050140">
<ele>415.411926</ele>
<time>2022-09-08T07:08:33.003Z</time>
</trkpt>
<trkpt lat="41.9558220" lon="1.9050360">
<ele>414.954742</ele>
<time>2022-09-08T07:08:33.996Z</time>
</trkpt>
<trkpt lat="41.9557970" lon="1.9050510">
<ele>414.619446</ele>
<time>2022-09-08T07:08:34.999Z</time>
</trkpt>
<trkpt lat="41.9557780" lon="1.9050640">
<ele>414.375610</ele>
<time>2022-09-08T07:08:36.001Z</time>
</trkpt>
<trkpt lat="41.9557500" lon="1.9050810">
<ele>414.070801</ele>
<time>2022-09-08T07:08:37.003Z</time>
</trkpt>
<trkpt lat="41.9557300" lon="1.9050860">
<ele>413.918396</ele>
<time>2022-09-08T07:08:37.997Z</time>
</trkpt>
<trkpt lat="41.9557130" lon="1.9050880">
<ele>413.796478</ele>
<time>2022-09-08T07:08:38.999Z</time>
</trkpt>
<trkpt lat="41.9556710" lon="1.9050940">
<ele>413.522156</ele>
<time>2022-09-08T07:08:40.001Z</time>
</trkpt>
<trkpt lat="41.9556130" lon="1.9051080">
<ele>413.125916</ele>
<time>2022-09-08T07:08:41.004Z</time>
</trkpt>
<trkpt lat="41.9555780" lon="1.9051130">
<ele>412.912537</ele>
<time>2022-09-08T07:08:41.997Z</time>
</trkpt>
<trkpt lat="41.9555490" lon="1.9051180">
<ele>412.729675</ele>
<time>2022-09-08T07:08:42.999Z</time>
</trkpt>
<trkpt lat="41.9555200" lon="1.9051210">
<ele>412.577271</ele>
<time>2022-09-08T07:08:44.002Z</time>
</trkpt>
<trkpt lat="41.9554840" lon="1.9051230">
<ele>412.394409</ele>
<time>2022-09-08T07:08:45.004Z</time>
</trkpt>
<trkpt lat="41.9554460" lon="1.9051310">
<ele>412.181061</ele>
<time>2022-09-08T07:08:45.997Z</time>
</trkpt>
<trkpt lat="41.9554050" lon="1.9051490">
<ele>411.906738</ele>
<time>2022-09-08T07:08:47.000Z</time>
</trkpt>
<trkpt lat="41.9553660" lon="1.9051620">
<ele>411.662872</ele>
<time>2022-09-08T07:08:48.002Z</time>
</trkpt>
<trkpt lat="41.9553340" lon="1.9051720">
<ele>411.540955</ele>
<time>2022-09-08T07:08:49.004Z</time>
</trkpt>
<trkpt lat="41.9553060" lon="1.9051820">
<ele>411.419067</ele>
<time>2022-09-08T07:08:49.998Z</time>
</trkpt>
<trkpt lat="41.9552720" lon="1.9051910">
<ele>411.297119</ele>
<time>2022-09-08T07:08:51.000Z</time>
</trkpt>
<trkpt lat="41.9552370" lon="1.9051870">
<ele>411.266663</ele>
<time>2022-09-08T07:08:52.002Z</time>
</trkpt>
<trkpt lat="41.9552040" lon="1.9051750">
<ele>411.327606</ele>
<time>2022-09-08T07:08:52.996Z</time>
</trkpt>
<trkpt lat="41.9551730" lon="1.9051600">
<ele>411.449524</ele>
<time>2022-09-08T07:08:53.998Z</time>
</trkpt>
<trkpt lat="41.9551390" lon="1.9051440">
<ele>411.571442</ele>
<time>2022-09-08T07:08:55.000Z</time>
</trkpt>
<trkpt lat="41.9551010" lon="1.9051270">
<ele>411.754333</ele>
<time>2022-09-08T07:08:56.003Z</time>
</trkpt>
<trkpt lat="41.9550580" lon="1.9051040">
<ele>412.028656</ele>
<time>2022-09-08T07:08:56.996Z</time>
</trkpt>
<trkpt lat="41.9550260" lon="1.9050870">
<ele>412.272461</ele>
<time>2022-09-08T07:08:57.998Z</time>
</trkpt>
<trkpt lat="41.9549860" lon="1.9050550">
<ele>412.760132</ele>
<time>2022-09-08T07:08:59.001Z</time>
</trkpt>
<trkpt lat="41.9549440" lon="1.9050280">
<ele>413.247864</ele>
<time>2022-09-08T07:09:00.003Z</time>
</trkpt>
<trkpt lat="41.9548930" lon="1.9050070">
<ele>413.644073</ele>
<time>2022-09-08T07:09:00.996Z</time>
</trkpt>
<trkpt lat="41.9548440" lon="1.9049910">
<ele>414.009857</ele>
<time>2022-09-08T07:09:01.999Z</time>
</trkpt>
<trkpt lat="41.9547850" lon="1.9049770">
<ele>414.345123</ele>
<time>2022-09-08T07:09:03.001Z</time>
</trkpt>
<trkpt lat="41.9547270" lon="1.9049630">
<ele>414.680389</ele>
<time>2022-09-08T07:09:04.003Z</time>
</trkpt>
<trkpt lat="41.9546640" lon="1.9049530">
<ele>414.924255</ele>
<time>2022-09-08T07:09:04.997Z</time>
</trkpt>
<trkpt lat="41.9546000" lon="1.9049640">
<ele>414.771851</ele>
<time>2022-09-08T07:09:05.999Z</time>
</trkpt>
<trkpt lat="41.9545510" lon="1.9049910">
<ele>414.284149</ele>
<time>2022-09-08T07:09:07.001Z</time>
</trkpt>
<trkpt lat="41.9544860" lon="1.9050360">
<ele>413.491669</ele>
<time>2022-09-08T07:09:08.004Z</time>
</trkpt>
<trkpt lat="41.9544340" lon="1.9050630">
<ele>413.064941</ele>
<time>2022-09-08T07:09:08.997Z</time>
</trkpt>
<trkpt lat="41.9543800" lon="1.9050810">
<ele>412.760132</ele>
<time>2022-09-08T07:09:09.999Z</time>
</trkpt>
<trkpt lat="41.9543290" lon="1.9050930">
<ele>412.577271</ele>
<time>2022-09-08T07:09:11.002Z</time>
</trkpt>
<trkpt lat="41.9542770" lon="1.9050960">
<ele>412.516327</ele>
<time>2022-09-08T07:09:12.004Z</time>
</trkpt>
<trkpt lat="41.9542270" lon="1.9051020">
<ele>412.394409</ele>
<time>2022-09-08T07:09:12.997Z</time>
</trkpt>
<trkpt lat="41.9541680" lon="1.9051120">
<ele>412.242004</ele>
<time>2022-09-08T07:09:14.000Z</time>
</trkpt>
<trkpt lat="41.9541150" lon="1.9051260">
<ele>412.059113</ele>
<time>2022-09-08T07:09:15.002Z</time>
</trkpt>
<trkpt lat="41.9540710" lon="1.9051510">
<ele>411.754333</ele>
<time>2022-09-08T07:09:16.004Z</time>
</trkpt>
<trkpt lat="41.9540320" lon="1.9051750">
<ele>411.540955</ele>
<time>2022-09-08T07:09:16.998Z</time>
</trkpt>
<trkpt lat="41.9539890" lon="1.9051880">
<ele>411.388550</ele>
<time>2022-09-08T07:09:18.000Z</time>
</trkpt>
<trkpt lat="41.9539450" lon="1.9051980">
<ele>411.297119</ele>
<time>2022-09-08T07:09:19.002Z</time>
</trkpt>
<trkpt lat="41.9539040" lon="1.9052060">
<ele>411.205658</ele>
<time>2022-09-08T07:09:19.996Z</time>
</trkpt>
<trkpt lat="41.9538580" lon="1.9052160">
<ele>411.114258</ele>
<time>2022-09-08T07:09:20.998Z</time>
</trkpt>
<trkpt lat="41.9538200" lon="1.9052260">
<ele>411.022797</ele>
<time>2022-09-08T07:09:22.000Z</time>
</trkpt>
<trkpt lat="41.9537700" lon="1.9052290">
<ele>410.961853</ele>
<time>2022-09-08T07:09:23.003Z</time>
</trkpt>
<trkpt lat="41.9537380" lon="1.9052260">
<ele>410.961853</ele>
<time>2022-09-08T07:09:23.996Z</time>
</trkpt>
<trkpt lat="41.9536900" lon="1.9052230">
<ele>410.931335</ele>
<time>2022-09-08T07:09:24.998Z</time>
</trkpt>
<trkpt lat="41.9536350" lon="1.9052300">
<ele>410.870392</ele>
<time>2022-09-08T07:09:26.001Z</time>
</trkpt>
<trkpt lat="41.9535950" lon="1.9052400">
<ele>410.809448</ele>
<time>2022-09-08T07:09:27.003Z</time>
</trkpt>
<trkpt lat="41.9535610" lon="1.9052410">
<ele>410.778931</ele>
<time>2022-09-08T07:09:27.996Z</time>
</trkpt>
<trkpt lat="41.9535200" lon="1.9052370">
<ele>410.778931</ele>
<time>2022-09-08T07:09:28.999Z</time>
</trkpt>
<trkpt lat="41.9534600" lon="1.9052310">
<ele>410.748474</ele>
<time>2022-09-08T07:09:30.001Z</time>
</trkpt>
<trkpt lat="41.9533930" lon="1.9052450">
<ele>410.596069</ele>
<time>2022-09-08T07:09:31.003Z</time>
</trkpt>
<trkpt lat="41.9533410" lon="1.9052600">
<ele>410.443665</ele>
<time>2022-09-08T07:09:31.997Z</time>
</trkpt>
<trkpt lat="41.9532960" lon="1.9052700">
<ele>410.321747</ele>
<time>2022-09-08T07:09:32.999Z</time>
</trkpt>
<trkpt lat="41.9532410" lon="1.9052820">
<ele>410.169342</ele>
<time>2022-09-08T07:09:34.001Z</time>
</trkpt>
<trkpt lat="41.9532040" lon="1.9052930">
<ele>410.047455</ele>
<time>2022-09-08T07:09:35.004Z</time>
</trkpt>
<trkpt lat="41.9531660" lon="1.9053020">
<ele>409.925537</ele>
<time>2022-09-08T07:09:35.997Z</time>
</trkpt>
<trkpt lat="41.9531210" lon="1.9053100">
<ele>409.773132</ele>
<time>2022-09-08T07:09:36.999Z</time>
</trkpt>
<trkpt lat="41.9530780" lon="1.9053140">
<ele>409.620728</ele>
<time>2022-09-08T07:09:38.002Z</time>
</trkpt>
<trkpt lat="41.9530360" lon="1.9053210">
<ele>409.468323</ele>
<time>2022-09-08T07:09:39.004Z</time>
</trkpt>
<trkpt lat="41.9529930" lon="1.9053290">
<ele>409.285461</ele>
<time>2022-09-08T07:09:39.997Z</time>
</trkpt>
<trkpt lat="41.9529470" lon="1.9053420">
<ele>409.072083</ele>
<time>2022-09-08T07:09:41.000Z</time>
</trkpt>
<trkpt lat="41.9529130" lon="1.9053560">
<ele>408.889191</ele>
<time>2022-09-08T07:09:42.002Z</time>
</trkpt>
<trkpt lat="41.9528540" lon="1.9053880">
<ele>408.675842</ele>
<time>2022-09-08T07:09:43.004Z</time>
</trkpt>
<trkpt lat="41.9527960" lon="1.9054220">
<ele>408.492950</ele>
<time>2022-09-08T07:09:43.998Z</time>
</trkpt>
<trkpt lat="41.9527430" lon="1.9054510">
<ele>408.279602</ele>
<time>2022-09-08T07:09:45.000Z</time>
</trkpt>
<trkpt lat="41.9526940" lon="1.9054680">
<ele>408.066254</ele>
<time>2022-09-08T07:09:46.002Z</time>
</trkpt>
<trkpt lat="41.9526500" lon="1.9054730">
<ele>407.852875</ele>
<time>2022-09-08T07:09:46.996Z</time>
</trkpt>
<trkpt lat="41.9525860" lon="1.9054660">
<ele>407.548065</ele>
<time>2022-09-08T07:09:47.998Z</time>
</trkpt>
<trkpt lat="41.9525380" lon="1.9054430">
<ele>407.273743</ele>
<time>2022-09-08T07:09:49.000Z</time>
</trkpt>
<trkpt lat="41.9524710" lon="1.9054150">
<ele>406.999451</ele>
<time>2022-09-08T07:09:50.003Z</time>
</trkpt>
<trkpt lat="41.9523930" lon="1.9053920">
<ele>406.572723</ele>
<time>2022-09-08T07:09:50.996Z</time>
</trkpt>
<trkpt lat="41.9523340" lon="1.9053650">
<ele>406.328857</ele>
<time>2022-09-08T07:09:51.998Z</time>
</trkpt>
<trkpt lat="41.9522840" lon="1.9053340">
<ele>406.145996</ele>
<time>2022-09-08T07:09:53.001Z</time>
</trkpt>
<trkpt lat="41.9522300" lon="1.9053030">
<ele>405.993591</ele>
<time>2022-09-08T07:09:54.003Z</time>
</trkpt>
<trkpt lat="41.9521640" lon="1.9052930">
<ele>405.688812</ele>
<time>2022-09-08T07:09:54.996Z</time>
</trkpt>
<trkpt lat="41.9520920" lon="1.9052940">
<ele>405.262085</ele>
<time>2022-09-08T07:09:55.999Z</time>
</trkpt>
<trkpt lat="41.9520330" lon="1.9053010">
<ele>404.835358</ele>
<time>2022-09-08T07:09:57.001Z</time>
</trkpt>
<trkpt lat="41.9519730" lon="1.9053100">
<ele>404.378143</ele>
<time>2022-09-08T07:09:58.003Z</time>
</trkpt>
<trkpt lat="41.9519110" lon="1.9053270">
<ele>403.920959</ele>
<time>2022-09-08T07:09:58.997Z</time>
</trkpt>
<trkpt lat="41.9518490" lon="1.9053480">
<ele>403.494263</ele>
<time>2022-09-08T07:09:59.999Z</time>
</trkpt>
<trkpt lat="41.9517980" lon="1.9053750">
<ele>403.158936</ele>
<time>2022-09-08T07:10:01.001Z</time>
</trkpt>
<trkpt lat="41.9517490" lon="1.9054010">
<ele>402.915131</ele>
<time>2022-09-08T07:10:02.004Z</time>
</trkpt>
<trkpt lat="41.9517110" lon="1.9054220">
<ele>402.732269</ele>
<time>2022-09-08T07:10:02.997Z</time>
</trkpt>
<trkpt lat="41.9516730" lon="1.9054480">
<ele>402.518860</ele>
<time>2022-09-08T07:10:03.999Z</time>
</trkpt>
<trkpt lat="41.9516450" lon="1.9054630">
<ele>402.396942</ele>
<time>2022-09-08T07:10:05.002Z</time>
</trkpt>
<trkpt lat="41.9516300" lon="1.9054590">
<ele>402.366486</ele>
<time>2022-09-08T07:10:06.004Z</time>
</trkpt>
<trkpt lat="41.9516200" lon="1.9054320">
<ele>402.335999</ele>
<time>2022-09-08T07:10:06.997Z</time>
</trkpt>
<trkpt lat="41.9516210" lon="1.9054040">
<ele>402.335999</ele>
<time>2022-09-08T07:10:08.000Z</time>
</trkpt>
<trkpt lat="41.9516130" lon="1.9053650">
<ele>402.244537</ele>
<time>2022-09-08T07:10:09.002Z</time>
</trkpt>
<trkpt lat="41.9515900" lon="1.9053520">
<ele>402.153137</ele>
<time>2022-09-08T07:10:10.004Z</time>
</trkpt>
<trkpt lat="41.9515560" lon="1.9053500">
<ele>402.000732</ele>
<time>2022-09-08T07:10:10.998Z</time>
</trkpt>
<trkpt lat="41.9515140" lon="1.9053570">
<ele>401.878815</ele>
<time>2022-09-08T07:10:12.000Z</time>
</trkpt>
<trkpt lat="41.9514670" lon="1.9053560">
<ele>401.756866</ele>
<time>2022-09-08T07:10:13.002Z</time>
</trkpt>
<trkpt lat="41.9514200" lon="1.9053570">
<ele>401.665466</ele>
<time>2022-09-08T07:10:13.996Z</time>
</trkpt>
<trkpt lat="41.9513670" lon="1.9053550">
<ele>401.574005</ele>
<time>2022-09-08T07:10:14.998Z</time>
</trkpt>
<trkpt lat="41.9513100" lon="1.9053610">
<ele>401.574005</ele>
<time>2022-09-08T07:10:16.000Z</time>
</trkpt>
<trkpt lat="41.9512650" lon="1.9053720">
<ele>401.665466</ele>
<time>2022-09-08T07:10:17.003Z</time>
</trkpt>
<trkpt lat="41.9512140" lon="1.9054000">
<ele>401.695923</ele>
<time>2022-09-08T07:10:17.996Z</time>
</trkpt>
<trkpt lat="41.9511710" lon="1.9054170">
<ele>401.665466</ele>
<time>2022-09-08T07:10:18.998Z</time>
</trkpt>
<trkpt lat="41.9511250" lon="1.9054220">
<ele>401.513062</ele>
<time>2022-09-08T07:10:20.001Z</time>
</trkpt>
<trkpt lat="41.9510860" lon="1.9054250">
<ele>401.391113</ele>
<time>2022-09-08T07:10:21.003Z</time>
</trkpt>
<trkpt lat="41.9510520" lon="1.9054240">
<ele>401.330139</ele>
<time>2022-09-08T07:10:21.996Z</time>
</trkpt>
<trkpt lat="41.9510240" lon="1.9054220">
<ele>401.269196</ele>
<time>2022-09-08T07:10:22.999Z</time>
</trkpt>
<trkpt lat="41.9509770" lon="1.9054060">
<ele>401.055847</ele>
<time>2022-09-08T07:10:24.001Z</time>
</trkpt>
<trkpt lat="41.9509420" lon="1.9053820">
<ele>400.720551</ele>
<time>2022-09-08T07:10:25.003Z</time>
</trkpt>
<trkpt lat="41.9509160" lon="1.9053610">
<ele>400.476715</ele>
<time>2022-09-08T07:10:25.997Z</time>
</trkpt>
<trkpt lat="41.9508890" lon="1.9053400">
<ele>400.232880</ele>
<time>2022-09-08T07:10:26.999Z</time>
</trkpt>
<trkpt lat="41.9508500" lon="1.9053200">
<ele>400.049988</ele>
<time>2022-09-08T07:10:28.001Z</time>
</trkpt>
<trkpt lat="41.9508090" lon="1.9052930">
<ele>399.836670</ele>
<time>2022-09-08T07:10:29.004Z</time>
</trkpt>
<trkpt lat="41.9507610" lon="1.9052690">
<ele>399.745209</ele>
<time>2022-09-08T07:10:29.997Z</time>
</trkpt>
<trkpt lat="41.9507130" lon="1.9052620">
<ele>399.867126</ele>
<time>2022-09-08T07:10:30.999Z</time>
</trkpt>
<trkpt lat="41.9506560" lon="1.9052520">
<ele>400.171936</ele>
<time>2022-09-08T07:10:32.002Z</time>
</trkpt>
<trkpt lat="41.9506160" lon="1.9052490">
<ele>400.537659</ele>
<time>2022-09-08T07:10:33.004Z</time>
</trkpt>
<trkpt lat="41.9505740" lon="1.9052520">
<ele>401.055847</ele>
<time>2022-09-08T07:10:33.997Z</time>
</trkpt>
<trkpt lat="41.9505230" lon="1.9052540">
<ele>401.787354</ele>
<time>2022-09-08T07:10:35.000Z</time>
</trkpt>
<trkpt lat="41.9504700" lon="1.9052520">
<ele>402.701752</ele>
<time>2022-09-08T07:10:36.002Z</time>
</trkpt>
<trkpt lat="41.9504200" lon="1.9052410">
<ele>403.585663</ele>
<time>2022-09-08T07:10:37.004Z</time>
</trkpt>
<trkpt lat="41.9503730" lon="1.9052230">
<ele>404.164795</ele>
<time>2022-09-08T07:10:37.998Z</time>
</trkpt>
<trkpt lat="41.9503250" lon="1.9052040">
<ele>404.926788</ele>
<time>2022-09-08T07:10:39.000Z</time>
</trkpt>
<trkpt lat="41.9502650" lon="1.9051850">
<ele>406.054535</ele>
<time>2022-09-08T07:10:40.002Z</time>
</trkpt>
<trkpt lat="41.9502200" lon="1.9051710">
<ele>407.029938</ele>
<time>2022-09-08T07:10:40.996Z</time>
</trkpt>
<trkpt lat="41.9501690" lon="1.9051660">
<ele>408.340546</ele>
<time>2022-09-08T07:10:41.998Z</time>
</trkpt>
<trkpt lat="41.9501080" lon="1.9051600">
<ele>410.047455</ele>
<time>2022-09-08T07:10:43.000Z</time>
</trkpt>
<trkpt lat="41.9500560" lon="1.9051490">
<ele>411.571442</ele>
<time>2022-09-08T07:10:44.003Z</time>
</trkpt>
<trkpt lat="41.9500030" lon="1.9051350">
<ele>412.943054</ele>
<time>2022-09-08T07:10:44.996Z</time>
</trkpt>
<trkpt lat="41.9499480" lon="1.9051200">
<ele>414.649933</ele>
<time>2022-09-08T07:10:45.998Z</time>
</trkpt>
<trkpt lat="41.9499120" lon="1.9051080">
<ele>415.625275</ele>
<time>2022-09-08T07:10:47.001Z</time>
</trkpt>
<trkpt lat="41.9498660" lon="1.9050840">
<ele>416.844482</ele>
<time>2022-09-08T07:10:48.003Z</time>
</trkpt>
<trkpt lat="41.9498340" lon="1.9050490">
<ele>417.484558</ele>
<time>2022-09-08T07:10:48.996Z</time>
</trkpt>
<trkpt lat="41.9498060" lon="1.9050060">
<ele>417.758881</ele>
<time>2022-09-08T07:10:49.999Z</time>
</trkpt>
<trkpt lat="41.9497820" lon="1.9049590">
<ele>417.819855</ele>
<time>2022-09-08T07:10:51.001Z</time>
</trkpt>
<trkpt lat="41.9497570" lon="1.9049130">
<ele>418.094147</ele>
<time>2022-09-08T07:10:52.003Z</time>
</trkpt>
<trkpt lat="41.9497230" lon="1.9048630">
<ele>418.551331</ele>
<time>2022-09-08T07:10:52.997Z</time>
</trkpt>
<trkpt lat="41.9496860" lon="1.9048090">
<ele>419.069519</ele>
<time>2022-09-08T07:10:53.999Z</time>
</trkpt>
<trkpt lat="41.9496590" lon="1.9047510">
<ele>419.130463</ele>
<time>2022-09-08T07:10:55.001Z</time>
</trkpt>
<trkpt lat="41.9496230" lon="1.9046710">
<ele>419.100006</ele>
<time>2022-09-08T07:10:56.004Z</time>
</trkpt>
<trkpt lat="41.9495910" lon="1.9046070">
<ele>419.130463</ele>
<time>2022-09-08T07:10:56.997Z</time>
</trkpt>
<trkpt lat="41.9495370" lon="1.9045030">
<ele>418.856140</ele>
<time>2022-09-08T07:10:57.999Z</time>
</trkpt>
<trkpt lat="41.9494990" lon="1.9044250">
<ele>418.520874</ele>
<time>2022-09-08T07:10:59.002Z</time>
</trkpt>
<trkpt lat="41.9494720" lon="1.9043630">
<ele>418.246552</ele>
<time>2022-09-08T07:11:00.004Z</time>
</trkpt>
<trkpt lat="41.9494450" lon="1.9043020">
<ele>418.033203</ele>
<time>2022-09-08T07:11:00.997Z</time>
</trkpt>
<trkpt lat="41.9494170" lon="1.9042230">
<ele>417.636932</ele>
<time>2022-09-08T07:11:02.000Z</time>
</trkpt>
<trkpt lat="41.9493720" lon="1.9041530">
<ele>417.880798</ele>
<time>2022-09-08T07:11:03.002Z</time>
</trkpt>
<trkpt lat="41.9493490" lon="1.9040820">
<ele>417.606476</ele>
<time>2022-09-08T07:11:04.004Z</time>
</trkpt>
<trkpt lat="41.9493350" lon="1.9040150">
<ele>417.240723</ele>
<time>2022-09-08T07:11:04.998Z</time>
</trkpt>
<trkpt lat="41.9493360" lon="1.9039540">
<ele>416.539673</ele>
<time>2022-09-08T07:11:06.000Z</time>
</trkpt>
<trkpt lat="41.9493530" lon="1.9038900">
<ele>415.594788</ele>
<time>2022-09-08T07:11:07.002Z</time>
</trkpt>
<trkpt lat="41.9493640" lon="1.9038320">
<ele>414.802338</ele>
<time>2022-09-08T07:11:07.996Z</time>
</trkpt>
<trkpt lat="41.9493640" lon="1.9037740">
<ele>414.284149</ele>
<time>2022-09-08T07:11:08.998Z</time>
</trkpt>
<trkpt lat="41.9493450" lon="1.9037340">
<ele>414.253662</ele>
<time>2022-09-08T07:11:10.000Z</time>
</trkpt>
<trkpt lat="41.9493240" lon="1.9036950">
<ele>414.131744</ele>
<time>2022-09-08T07:11:11.003Z</time>
</trkpt>
<trkpt lat="41.9493180" lon="1.9036590">
<ele>413.826935</ele>
<time>2022-09-08T07:11:11.996Z</time>
</trkpt>
<trkpt lat="41.9493130" lon="1.9036140">
<ele>413.430725</ele>
<time>2022-09-08T07:11:12.998Z</time>
</trkpt>
<trkpt lat="41.9493310" lon="1.9035790">
<ele>412.790649</ele>
<time>2022-09-08T07:11:14.001Z</time>
</trkpt>
<trkpt lat="41.9493340" lon="1.9035300">
<ele>412.272461</ele>
<time>2022-09-08T07:11:15.003Z</time>
</trkpt>
<trkpt lat="41.9493190" lon="1.9034880">
<ele>412.211517</ele>
<time>2022-09-08T07:11:15.996Z</time>
</trkpt>
<trkpt lat="41.9493120" lon="1.9034490">
<ele>412.059113</ele>
<time>2022-09-08T07:11:16.999Z</time>
</trkpt>
<trkpt lat="41.9493250" lon="1.9034010">
<ele>411.480011</ele>
<time>2022-09-08T07:11:18.001Z</time>
</trkpt>
<trkpt lat="41.9493530" lon="1.9033430">
<ele>410.687531</ele>
<time>2022-09-08T07:11:19.003Z</time>
</trkpt>
<trkpt lat="41.9493700" lon="1.9032920">
<ele>410.169342</ele>
<time>2022-09-08T07:11:19.997Z</time>
</trkpt>
<trkpt lat="41.9493730" lon="1.9032500">
<ele>409.986481</ele>
<time>2022-09-08T07:11:20.999Z</time>
</trkpt>
<trkpt lat="41.9493580" lon="1.9032160">
<ele>410.047455</ele>
<time>2022-09-08T07:11:22.001Z</time>
</trkpt>
<trkpt lat="41.9493370" lon="1.9031720">
<ele>410.230316</ele>
<time>2022-09-08T07:11:23.004Z</time>
</trkpt>
<trkpt lat="41.9493330" lon="1.9031150">
<ele>410.108398</ele>
<time>2022-09-08T07:11:23.997Z</time>
</trkpt>
<trkpt lat="41.9493260" lon="1.9030770">
<ele>410.077942</ele>
<time>2022-09-08T07:11:24.999Z</time>
</trkpt>
<trkpt lat="41.9493370" lon="1.9030440">
<ele>409.834076</ele>
<time>2022-09-08T07:11:26.002Z</time>
</trkpt>
<trkpt lat="41.9493290" lon="1.9030210">
<ele>409.864532</ele>
<time>2022-09-08T07:11:27.004Z</time>
</trkpt>
<trkpt lat="41.9493290" lon="1.9029960">
<ele>409.803589</ele>
<time>2022-09-08T07:11:27.997Z</time>
</trkpt>
<trkpt lat="41.9493320" lon="1.9029520">
<ele>409.620728</ele>
<time>2022-09-08T07:11:29.000Z</time>
</trkpt>
<trkpt lat="41.9493330" lon="1.9028980">
<ele>409.407349</ele>
<time>2022-09-08T07:11:30.002Z</time>
</trkpt>
<trkpt lat="41.9493320" lon="1.9028400">
<ele>409.102539</ele>
<time>2022-09-08T07:11:31.004Z</time>
</trkpt>
<trkpt lat="41.9493220" lon="1.9027880">
<ele>409.011139</ele>
<time>2022-09-08T07:11:31.998Z</time>
</trkpt>
<trkpt lat="41.9493090" lon="1.9027090">
<ele>408.828247</ele>
<time>2022-09-08T07:11:33.000Z</time>
</trkpt>
<trkpt lat="41.9492930" lon="1.9026190">
<ele>408.736786</ele>
<time>2022-09-08T07:11:34.002Z</time>
</trkpt>
<trkpt lat="41.9492730" lon="1.9025410">
<ele>408.675842</ele>
<time>2022-09-08T07:11:34.996Z</time>
</trkpt>
<trkpt lat="41.9492340" lon="1.9024610">
<ele>408.736786</ele>
<time>2022-09-08T07:11:35.998Z</time>
</trkpt>
<trkpt lat="41.9492260" lon="1.9023780">
<ele>408.584412</ele>
<time>2022-09-08T07:11:37.000Z</time>
</trkpt>
<trkpt lat="41.9492290" lon="1.9023170">
<ele>408.401520</ele>
<time>2022-09-08T07:11:38.003Z</time>
</trkpt>
<trkpt lat="41.9492200" lon="1.9022560">
<ele>408.279602</ele>
<time>2022-09-08T07:11:38.996Z</time>
</trkpt>
<trkpt lat="41.9492140" lon="1.9021950">
<ele>408.096741</ele>
<time>2022-09-08T07:11:39.998Z</time>
</trkpt>
<trkpt lat="41.9492150" lon="1.9021360">
<ele>407.852875</ele>
<time>2022-09-08T07:11:41.001Z</time>
</trkpt>
<trkpt lat="41.9492200" lon="1.9020820">
<ele>407.609070</ele>
<time>2022-09-08T07:11:42.003Z</time>
</trkpt>
<trkpt lat="41.9492230" lon="1.9020340">
<ele>407.334717</ele>
<time>2022-09-08T07:11:42.996Z</time>
</trkpt>
<trkpt lat="41.9492260" lon="1.9019840">
<ele>407.029938</ele>
<time>2022-09-08T07:11:43.999Z</time>
</trkpt>
<trkpt lat="41.9492360" lon="1.9019220">
<ele>406.664154</ele>
<time>2022-09-08T07:11:45.001Z</time>
</trkpt>
<trkpt lat="41.9492370" lon="1.9018640">
<ele>406.359344</ele>
<time>2022-09-08T07:11:46.003Z</time>
</trkpt>
<trkpt lat="41.9492370" lon="1.9017750">
<ele>405.871674</ele>
<time>2022-09-08T07:11:46.997Z</time>
</trkpt>
<trkpt lat="41.9492400" lon="1.9016640">
<ele>405.262085</ele>
<time>2022-09-08T07:11:47.999Z</time>
</trkpt>
<trkpt lat="41.9492140" lon="1.9015680">
<ele>404.561066</ele>
<time>2022-09-08T07:11:49.001Z</time>
</trkpt>
<trkpt lat="41.9491870" lon="1.9015230">
<ele>404.164795</ele>
<time>2022-09-08T07:11:50.004Z</time>
</trkpt>
<trkpt lat="41.9491570" lon="1.9014680">
<ele>403.646667</ele>
<time>2022-09-08T07:11:50.997Z</time>
</trkpt>
<trkpt lat="41.9491310" lon="1.9014310">
<ele>403.219940</ele>
<time>2022-09-08T07:11:51.999Z</time>
</trkpt>
<trkpt lat="41.9491190" lon="1.9013980">
<ele>402.945587</ele>
<time>2022-09-08T07:11:53.002Z</time>
</trkpt>
<trkpt lat="41.9491120" lon="1.9013700">
<ele>402.701752</ele>
<time>2022-09-08T07:11:54.004Z</time>
</trkpt>
<trkpt lat="41.9490940" lon="1.9013320">
<ele>402.335999</ele>
<time>2022-09-08T07:11:54.997Z</time>
</trkpt>
<trkpt lat="41.9490630" lon="1.9012770">
<ele>401.787354</ele>
<time>2022-09-08T07:11:56.000Z</time>
</trkpt>
<trkpt lat="41.9490320" lon="1.9012150">
<ele>401.025360</ele>
<time>2022-09-08T07:11:57.002Z</time>
</trkpt>
<trkpt lat="41.9490190" lon="1.9011540">
<ele>400.263336</ele>
<time>2022-09-08T07:11:58.004Z</time>
</trkpt>
<trkpt lat="41.9490090" lon="1.9010970">
<ele>399.531860</ele>
<time>2022-09-08T07:11:58.998Z</time>
</trkpt>
<trkpt lat="41.9489890" lon="1.9010230">
<ele>398.678406</ele>
<time>2022-09-08T07:12:00.000Z</time>
</trkpt>
<trkpt lat="41.9489650" lon="1.9009370">
<ele>397.824951</ele>
<time>2022-09-08T07:12:01.002Z</time>
</trkpt>
<trkpt lat="41.9489450" lon="1.9008660">
<ele>397.337280</ele>
<time>2022-09-08T07:12:01.996Z</time>
</trkpt>
<trkpt lat="41.9489400" lon="1.9008070">
<ele>397.062958</ele>
<time>2022-09-08T07:12:02.998Z</time>
</trkpt>
<trkpt lat="41.9489370" lon="1.9007530">
<ele>396.910553</ele>
<time>2022-09-08T07:12:04.000Z</time>
</trkpt>
<trkpt lat="41.9489310" lon="1.9007040">
<ele>396.880066</ele>
<time>2022-09-08T07:12:05.003Z</time>
</trkpt>
<trkpt lat="41.9489220" lon="1.9006530">
<ele>396.971527</ele>
<time>2022-09-08T07:12:05.996Z</time>
</trkpt>
<trkpt lat="41.9489180" lon="1.9006010">
<ele>397.184875</ele>
<time>2022-09-08T07:12:06.998Z</time>
</trkpt>
<trkpt lat="41.9489160" lon="1.9005430">
<ele>397.581116</ele>
<time>2022-09-08T07:12:08.001Z</time>
</trkpt>
<trkpt lat="41.9489010" lon="1.9004670">
<ele>398.434540</ele>
<time>2022-09-08T07:12:09.003Z</time>
</trkpt>
<trkpt lat="41.9488750" lon="1.9004150">
<ele>399.379456</ele>
<time>2022-09-08T07:12:09.996Z</time>
</trkpt>
<trkpt lat="41.9488450" lon="1.9003690">
<ele>400.263336</ele>
<time>2022-09-08T07:12:10.999Z</time>
</trkpt>
<trkpt lat="41.9488150" lon="1.9003020">
<ele>401.695923</ele>
<time>2022-09-08T07:12:12.001Z</time>
</trkpt>
<trkpt lat="41.9488020" lon="1.9002440">
<ele>402.915131</ele>
<time>2022-09-08T07:12:13.003Z</time>
</trkpt>
<trkpt lat="41.9487840" lon="1.9001970">
<ele>404.164795</ele>
<time>2022-09-08T07:12:13.997Z</time>
</trkpt>
<trkpt lat="41.9487720" lon="1.9001580">
<ele>405.231598</ele>
<time>2022-09-08T07:12:14.999Z</time>
</trkpt>
<trkpt lat="41.9487620" lon="1.9001140">
<ele>406.420319</ele>
<time>2022-09-08T07:12:16.001Z</time>
</trkpt>
<trkpt lat="41.9487480" lon="1.9000730">
<ele>407.609070</ele>
<time>2022-09-08T07:12:17.004Z</time>
</trkpt>
<trkpt lat="41.9486920" lon="1.9000420">
<ele>409.102539</ele>
<time>2022-09-08T07:12:17.997Z</time>
</trkpt>
<trkpt lat="41.9486280" lon="1.9000150">
<ele>410.809448</ele>
<time>2022-09-08T07:12:18.999Z</time>
</trkpt>
<trkpt lat="41.9485980" lon="1.8999930">
<ele>411.876251</ele>
<time>2022-09-08T07:12:20.002Z</time>
</trkpt>
<trkpt lat="41.9485890" lon="1.8999670">
<ele>412.607758</ele>
<time>2022-09-08T07:12:21.004Z</time>
</trkpt>
<trkpt lat="41.9485820" lon="1.8999090">
<ele>414.070801</ele>
<time>2022-09-08T07:12:21.997Z</time>
</trkpt>
<trkpt lat="41.9485840" lon="1.8998660">
<ele>414.985199</ele>
<time>2022-09-08T07:12:23.000Z</time>
</trkpt>
<trkpt lat="41.9485610" lon="1.8998650">
<ele>415.381470</ele>
<time>2022-09-08T07:12:24.002Z</time>
</trkpt>
<trkpt lat="41.9485260" lon="1.8998830">
<ele>415.655731</ele>
<time>2022-09-08T07:12:25.004Z</time>
</trkpt>
<trkpt lat="41.9484720" lon="1.8999180">
<ele>415.960541</ele>
<time>2022-09-08T07:12:25.998Z</time>
</trkpt>
<trkpt lat="41.9484310" lon="1.8999650">
<ele>415.930084</ele>
<time>2022-09-08T07:12:27.000Z</time>
</trkpt>
<trkpt lat="41.9483920" lon="1.9000240">
<ele>415.747192</ele>
<time>2022-09-08T07:12:28.002Z</time>
</trkpt>
<trkpt lat="41.9483630" lon="1.9000820">
<ele>415.411926</ele>
<time>2022-09-08T07:12:28.996Z</time>
</trkpt>
<trkpt lat="41.9483410" lon="1.9001460">
<ele>414.924255</ele>
<time>2022-09-08T07:12:29.998Z</time>
</trkpt>
<trkpt lat="41.9483260" lon="1.9002130">
<ele>414.223206</ele>
<time>2022-09-08T07:12:31.000Z</time>
</trkpt>
<trkpt lat="41.9483230" lon="1.9002650">
<ele>413.461212</ele>
<time>2022-09-08T07:12:32.003Z</time>
</trkpt>
<trkpt lat="41.9483310" lon="1.9003270">
<ele>412.181061</ele>
<time>2022-09-08T07:12:32.996Z</time>
</trkpt>
<trkpt lat="41.9483170" lon="1.9003740">
<ele>411.723846</ele>
<time>2022-09-08T07:12:33.998Z</time>
</trkpt>
<trkpt lat="41.9482890" lon="1.9004050">
<ele>412.150543</ele>
<time>2022-09-08T07:12:35.001Z</time>
</trkpt>
<trkpt lat="41.9482650" lon="1.9004370">
<ele>412.302948</ele>
<time>2022-09-08T07:12:36.003Z</time>
</trkpt>
<trkpt lat="41.9482410" lon="1.9004720">
<ele>412.394409</ele>
<time>2022-09-08T07:12:36.996Z</time>
</trkpt>
<trkpt lat="41.9481930" lon="1.9005350">
<ele>412.851593</ele>
<time>2022-09-08T07:12:37.999Z</time>
</trkpt>
<trkpt lat="41.9481470" lon="1.9005830">
<ele>413.400269</ele>
<time>2022-09-08T07:12:39.001Z</time>
</trkpt>
<trkpt lat="41.9481180" lon="1.9006240">
<ele>413.583130</ele>
<time>2022-09-08T07:12:40.003Z</time>
</trkpt>
<trkpt lat="41.9481040" lon="1.9006690">
<ele>413.125916</ele>
<time>2022-09-08T07:12:40.997Z</time>
</trkpt>
<trkpt lat="41.9480970" lon="1.9007190">
<ele>412.485840</ele>
<time>2022-09-08T07:12:41.999Z</time>
</trkpt>
<trkpt lat="41.9480890" lon="1.9007870">
<ele>411.540955</ele>
<time>2022-09-08T07:12:43.001Z</time>
</trkpt>
<trkpt lat="41.9480770" lon="1.9008550">
<ele>410.687531</ele>
<time>2022-09-08T07:12:44.004Z</time>
</trkpt>
<trkpt lat="41.9480600" lon="1.9009020">
<ele>410.382721</ele>
<time>2022-09-08T07:12:44.997Z</time>
</trkpt>
<trkpt lat="41.9480520" lon="1.9009620">
<ele>409.590240</ele>
<time>2022-09-08T07:12:45.999Z</time>
</trkpt>
<trkpt lat="41.9480410" lon="1.9010150">
<ele>409.011139</ele>
<time>2022-09-08T07:12:47.002Z</time>
</trkpt>
<trkpt lat="41.9480040" lon="1.9010790">
<ele>408.767273</ele>
<time>2022-09-08T07:12:48.004Z</time>
</trkpt>
<trkpt lat="41.9479670" lon="1.9011270">
<ele>408.797760</ele>
<time>2022-09-08T07:12:48.997Z</time>
</trkpt>
<trkpt lat="41.9479310" lon="1.9011790">
<ele>408.767273</ele>
<time>2022-09-08T07:12:50.000Z</time>
</trkpt>
<trkpt lat="41.9479200" lon="1.9012450">
<ele>408.005280</ele>
<time>2022-09-08T07:12:51.002Z</time>
</trkpt>
<trkpt lat="41.9479050" lon="1.9012940">
<ele>407.578552</ele>
<time>2022-09-08T07:12:52.004Z</time>
</trkpt>
<trkpt lat="41.9478930" lon="1.9013570">
<ele>407.060394</ele>
<time>2022-09-08T07:12:52.998Z</time>
</trkpt>
<trkpt lat="41.9478880" lon="1.9014260">
<ele>406.420319</ele>
<time>2022-09-08T07:12:54.000Z</time>
</trkpt>
<trkpt lat="41.9478830" lon="1.9014660">
<ele>406.115540</ele>
<time>2022-09-08T07:12:55.002Z</time>
</trkpt>
<trkpt lat="41.9478710" lon="1.9015090">
<ele>405.932648</ele>
<time>2022-09-08T07:12:55.996Z</time>
</trkpt>
<trkpt lat="41.9478480" lon="1.9015580">
<ele>405.871674</ele>
<time>2022-09-08T07:12:56.998Z</time>
</trkpt>
<trkpt lat="41.9478180" lon="1.9016090">
<ele>405.932648</ele>
<time>2022-09-08T07:12:58.000Z</time>
</trkpt>
<trkpt lat="41.9477930" lon="1.9016680">
<ele>405.963135</ele>
<time>2022-09-08T07:12:59.003Z</time>
</trkpt>
<trkpt lat="41.9477750" lon="1.9017130">
<ele>405.902130</ele>
<time>2022-09-08T07:12:59.996Z</time>
</trkpt>
<trkpt lat="41.9477580" lon="1.9017590">
<ele>405.932648</ele>
<time>2022-09-08T07:13:00.998Z</time>
</trkpt>
<trkpt lat="41.9477480" lon="1.9018080">
<ele>405.871674</ele>
<time>2022-09-08T07:13:02.001Z</time>
</trkpt>
<trkpt lat="41.9477420" lon="1.9018480">
<ele>405.749756</ele>
<time>2022-09-08T07:13:03.003Z</time>
</trkpt>
<trkpt lat="41.9477310" lon="1.9018840">
<ele>405.749756</ele>
<time>2022-09-08T07:13:03.996Z</time>
</trkpt>
<trkpt lat="41.9477050" lon="1.9019160">
<ele>405.932648</ele>
<time>2022-09-08T07:13:04.999Z</time>
</trkpt>
<trkpt lat="41.9476830" lon="1.9019390">
<ele>406.145996</ele>
<time>2022-09-08T07:13:06.001Z</time>
</trkpt>
<trkpt lat="41.9476530" lon="1.9019760">
<ele>406.328857</ele>
<time>2022-09-08T07:13:07.003Z</time>
</trkpt>
<trkpt lat="41.9476220" lon="1.9020200">
<ele>406.572723</ele>
<time>2022-09-08T07:13:07.997Z</time>
</trkpt>
<trkpt lat="41.9476020" lon="1.9020650">
<ele>406.633667</ele>
<time>2022-09-08T07:13:08.999Z</time>
</trkpt>
<trkpt lat="41.9475780" lon="1.9021110">
<ele>406.633667</ele>
<time>2022-09-08T07:13:10.001Z</time>
</trkpt>
<trkpt lat="41.9475560" lon="1.9021630">
<ele>406.572723</ele>
<time>2022-09-08T07:13:11.004Z</time>
</trkpt>
<trkpt lat="41.9475360" lon="1.9022200">
<ele>406.481262</ele>
<time>2022-09-08T07:13:11.997Z</time>
</trkpt>
<trkpt lat="41.9475210" lon="1.9022860">
<ele>406.328857</ele>
<time>2022-09-08T07:13:12.999Z</time>
</trkpt>
<trkpt lat="41.9474970" lon="1.9023720">
<ele>406.267914</ele>
<time>2022-09-08T07:13:14.002Z</time>
</trkpt>
<trkpt lat="41.9474730" lon="1.9024300">
<ele>406.420319</ele>
<time>2022-09-08T07:13:15.004Z</time>
</trkpt>
<trkpt lat="41.9474600" lon="1.9024690">
<ele>406.450806</ele>
<time>2022-09-08T07:13:15.997Z</time>
</trkpt>
<trkpt lat="41.9474360" lon="1.9025190">
<ele>406.633667</ele>
<time>2022-09-08T07:13:17.000Z</time>
</trkpt>
<trkpt lat="41.9473940" lon="1.9025760">
<ele>407.090881</ele>
<time>2022-09-08T07:13:18.002Z</time>
</trkpt>
<trkpt lat="41.9473650" lon="1.9026140">
<ele>407.395660</ele>
<time>2022-09-08T07:13:19.004Z</time>
</trkpt>
<trkpt lat="41.9473440" lon="1.9026490">
<ele>407.578552</ele>
<time>2022-09-08T07:13:19.998Z</time>
</trkpt>
<trkpt lat="41.9473170" lon="1.9026890">
<ele>407.883331</ele>
<time>2022-09-08T07:13:21.000Z</time>
</trkpt>
<trkpt lat="41.9472870" lon="1.9027290">
<ele>408.096741</ele>
<time>2022-09-08T07:13:22.002Z</time>
</trkpt>
<trkpt lat="41.9472820" lon="1.9027570">
<ele>408.096741</ele>
<time>2022-09-08T07:13:22.996Z</time>
</trkpt>
<trkpt lat="41.9472440" lon="1.9027930">
<ele>408.401520</ele>
<time>2022-09-08T07:13:23.998Z</time>
</trkpt>
<trkpt lat="41.9472300" lon="1.9028090">
<ele>408.432007</ele>
<time>2022-09-08T07:13:25.000Z</time>
</trkpt>
<trkpt lat="41.9472090" lon="1.9028360">
<ele>408.553925</ele>
<time>2022-09-08T07:13:26.003Z</time>
</trkpt>
<trkpt lat="41.9471990" lon="1.9028680">
<ele>408.492950</ele>
<time>2022-09-08T07:13:26.996Z</time>
</trkpt>
<trkpt lat="41.9471580" lon="1.9029160">
<ele>408.553925</ele>
<time>2022-09-08T07:13:27.998Z</time>
</trkpt>
<trkpt lat="41.9471330" lon="1.9029430">
<ele>408.371063</ele>
<time>2022-09-08T07:13:29.001Z</time>
</trkpt>
<trkpt lat="41.9470960" lon="1.9029880">
<ele>407.944336</ele>
<time>2022-09-08T07:13:30.003Z</time>
</trkpt>
<trkpt lat="41.9470590" lon="1.9030450">
<ele>407.182343</ele>
<time>2022-09-08T07:13:30.996Z</time>
</trkpt>
<trkpt lat="41.9470230" lon="1.9030950">
<ele>406.420319</ele>
<time>2022-09-08T07:13:31.999Z</time>
</trkpt>
<trkpt lat="41.9469940" lon="1.9031420">
<ele>405.627869</ele>
<time>2022-09-08T07:13:33.001Z</time>
</trkpt>
<trkpt lat="41.9469600" lon="1.9031810">
<ele>404.926788</ele>
<time>2022-09-08T07:13:34.003Z</time>
</trkpt>
<trkpt lat="41.9469180" lon="1.9032110">
<ele>404.286713</ele>
<time>2022-09-08T07:13:34.997Z</time>
</trkpt>
<trkpt lat="41.9468870" lon="1.9032410">
<ele>403.707611</ele>
<time>2022-09-08T07:13:35.999Z</time>
</trkpt>
<trkpt lat="41.9468310" lon="1.9032900">
<ele>402.701752</ele>
<time>2022-09-08T07:13:37.001Z</time>
</trkpt>
<trkpt lat="41.9468050" lon="1.9033210">
<ele>402.122650</ele>
<time>2022-09-08T07:13:38.004Z</time>
</trkpt>
<trkpt lat="41.9467540" lon="1.9033730">
<ele>401.208252</ele>
<time>2022-09-08T07:13:38.997Z</time>
</trkpt>
<trkpt lat="41.9467180" lon="1.9034150">
<ele>400.568146</ele>
<time>2022-09-08T07:13:39.999Z</time>
</trkpt>
<trkpt lat="41.9466920" lon="1.9034440">
<ele>400.202393</ele>
<time>2022-09-08T07:13:41.002Z</time>
</trkpt>
<trkpt lat="41.9466500" lon="1.9034840">
<ele>399.775665</ele>
<time>2022-09-08T07:13:42.004Z</time>
</trkpt>
<trkpt lat="41.9466160" lon="1.9034920">
<ele>399.592804</ele>
<time>2022-09-08T07:13:42.997Z</time>
</trkpt>
<trkpt lat="41.9465700" lon="1.9035130">
<ele>399.348938</ele>
<time>2022-09-08T07:13:44.000Z</time>
</trkpt>
<trkpt lat="41.9465260" lon="1.9035350">
<ele>399.196533</ele>
<time>2022-09-08T07:13:45.002Z</time>
</trkpt>
<trkpt lat="41.9464880" lon="1.9035520">
<ele>399.166077</ele>
<time>2022-09-08T07:13:46.004Z</time>
</trkpt>
<trkpt lat="41.9464550" lon="1.9035590">
<ele>399.166077</ele>
<time>2022-09-08T07:13:46.998Z</time>
</trkpt>
<trkpt lat="41.9463940" lon="1.9035770">
<ele>399.287994</ele>
<time>2022-09-08T07:13:48.000Z</time>
</trkpt>
<trkpt lat="41.9463340" lon="1.9035970">
<ele>399.592804</ele>
<time>2022-09-08T07:13:49.002Z</time>
</trkpt>
<trkpt lat="41.9462980" lon="1.9036160">
<ele>399.928070</ele>
<time>2022-09-08T07:13:49.996Z</time>
</trkpt>
<trkpt lat="41.9462650" lon="1.9036520">
<ele>400.476715</ele>
<time>2022-09-08T07:13:50.998Z</time>
</trkpt>
<trkpt lat="41.9462340" lon="1.9036740">
<ele>400.903442</ele>
<time>2022-09-08T07:13:52.000Z</time>
</trkpt>
<trkpt lat="41.9462140" lon="1.9036800">
<ele>401.116791</ele>
<time>2022-09-08T07:13:53.003Z</time>
</trkpt>
<trkpt lat="41.9461910" lon="1.9036670">
<ele>401.086334</ele>
<time>2022-09-08T07:13:53.996Z</time>
</trkpt>
<trkpt lat="41.9461790" lon="1.9036530">
<ele>400.964386</ele>
<time>2022-09-08T07:13:54.998Z</time>
</trkpt>
<trkpt lat="41.9461650" lon="1.9036350">
<ele>400.842468</ele>
<time>2022-09-08T07:13:56.001Z</time>
</trkpt>
<trkpt lat="41.9461420" lon="1.9036200">
<ele>400.842468</ele>
<time>2022-09-08T07:13:57.003Z</time>
</trkpt>
<trkpt lat="41.9461240" lon="1.9036150">
<ele>400.872955</ele>
<time>2022-09-08T07:13:57.996Z</time>
</trkpt>
<trkpt lat="41.9461060" lon="1.9036120">
<ele>400.994873</ele>
<time>2022-09-08T07:13:58.999Z</time>
</trkpt>
<trkpt lat="41.9461020" lon="1.9036120">
<ele>401.025360</ele>
<time>2022-09-08T07:14:00.001Z</time>
</trkpt>
<trkpt lat="41.9461020" lon="1.9036120">
<ele>401.025360</ele>
<time>2022-09-08T07:14:01.003Z</time>
</trkpt>
<trkpt lat="41.9461020" lon="1.9036120">
<ele>401.025360</ele>
<time>2022-09-08T07:14:01.997Z</time>
</trkpt>
<trkpt lat="41.9459560" lon="1.9035160">
<ele>401.116791</ele>
<time>2022-09-08T07:14:21.998Z</time>
</trkpt>
<trkpt lat="41.9459380" lon="1.9035080">
<ele>401.177734</ele>
<time>2022-09-08T07:14:23.001Z</time>
</trkpt>
<trkpt lat="41.9459170" lon="1.9035040">
<ele>401.330139</ele>
<time>2022-09-08T07:14:24.003Z</time>
</trkpt>
<trkpt lat="41.9459050" lon="1.9035090">
<ele>401.513062</ele>
<time>2022-09-08T07:14:24.996Z</time>
</trkpt>
<trkpt lat="41.9458940" lon="1.9035220">
<ele>401.817841</ele>
<time>2022-09-08T07:14:25.999Z</time>
</trkpt>
<trkpt lat="41.9458680" lon="1.9035400">
<ele>402.335999</ele>
<time>2022-09-08T07:14:27.001Z</time>
</trkpt>
<trkpt lat="41.9458370" lon="1.9035600">
<ele>403.097992</ele>
<time>2022-09-08T07:14:28.003Z</time>
</trkpt>
<trkpt lat="41.9458170" lon="1.9035720">
<ele>403.585663</ele>
<time>2022-09-08T07:14:28.997Z</time>
</trkpt>
<trkpt lat="41.9458040" lon="1.9035700">
<ele>403.707611</ele>
<time>2022-09-08T07:14:29.999Z</time>
</trkpt>
<trkpt lat="41.9457960" lon="1.9035640">
<ele>403.677124</ele>
<time>2022-09-08T07:14:31.001Z</time>
</trkpt>
<trkpt lat="41.9457850" lon="1.9035520">
<ele>403.616150</ele>
<time>2022-09-08T07:14:32.004Z</time>
</trkpt>
<trkpt lat="41.9457740" lon="1.9035390">
<ele>403.524719</ele>
<time>2022-09-08T07:14:32.997Z</time>
</trkpt>
<trkpt lat="41.9457700" lon="1.9035190">
<ele>403.189453</ele>
<time>2022-09-08T07:14:33.999Z</time>
</trkpt>
<trkpt lat="41.9457520" lon="1.9034970">
<ele>403.006531</ele>
<time>2022-09-08T07:14:35.002Z</time>
</trkpt>
<trkpt lat="41.9457400" lon="1.9034710">
<ele>402.671265</ele>
<time>2022-09-08T07:14:36.004Z</time>
</trkpt>
<trkpt lat="41.9457230" lon="1.9034430">
<ele>402.366486</ele>
<time>2022-09-08T07:14:36.997Z</time>
</trkpt>
<trkpt lat="41.9456980" lon="1.9034070">
<ele>402.000732</ele>
<time>2022-09-08T07:14:38.000Z</time>
</trkpt>
<trkpt lat="41.9456610" lon="1.9033670">
<ele>401.695923</ele>
<time>2022-09-08T07:14:39.002Z</time>
</trkpt>
<trkpt lat="41.9456300" lon="1.9033430">
<ele>401.543518</ele>
<time>2022-09-08T07:14:40.004Z</time>
</trkpt>
<trkpt lat="41.9455950" lon="1.9033150">
<ele>401.360657</ele>
<time>2022-09-08T07:14:40.998Z</time>
</trkpt>
<trkpt lat="41.9455540" lon="1.9032990">
<ele>401.482544</ele>
<time>2022-09-08T07:14:42.000Z</time>
</trkpt>
<trkpt lat="41.9455180" lon="1.9032850">
<ele>401.574005</ele>
<time>2022-09-08T07:14:43.002Z</time>
</trkpt>
<trkpt lat="41.9454730" lon="1.9032670">
<ele>401.756866</ele>
<time>2022-09-08T07:14:43.996Z</time>
</trkpt>
<trkpt lat="41.9454340" lon="1.9032410">
<ele>401.695923</ele>
<time>2022-09-08T07:14:44.998Z</time>
</trkpt>
<trkpt lat="41.9454120" lon="1.9031990">
<ele>401.086334</ele>
<time>2022-09-08T07:14:46.000Z</time>
</trkpt>
<trkpt lat="41.9453960" lon="1.9031620">
<ele>400.507202</ele>
<time>2022-09-08T07:14:47.003Z</time>
</trkpt>
<trkpt lat="41.9453820" lon="1.9031290">
<ele>400.019531</ele>
<time>2022-09-08T07:14:47.996Z</time>
</trkpt>
<trkpt lat="41.9453670" lon="1.9030840">
<ele>399.348938</ele>
<time>2022-09-08T07:14:48.998Z</time>
</trkpt>
<trkpt lat="41.9453450" lon="1.9030380">
<ele>398.739349</ele>
<time>2022-09-08T07:14:50.001Z</time>
</trkpt>
<trkpt lat="41.9453250" lon="1.9029980">
<ele>398.312653</ele>
<time>2022-09-08T07:14:51.003Z</time>
</trkpt>
<trkpt lat="41.9453050" lon="1.9029610">
<ele>397.946869</ele>
<time>2022-09-08T07:14:51.996Z</time>
</trkpt>
<trkpt lat="41.9452690" lon="1.9029030">
<ele>397.367737</ele>
<time>2022-09-08T07:14:52.999Z</time>
</trkpt>
<trkpt lat="41.9452480" lon="1.9028600">
<ele>396.819122</ele>
<time>2022-09-08T07:14:54.001Z</time>
</trkpt>
<trkpt lat="41.9452130" lon="1.9028220">
<ele>396.575287</ele>
<time>2022-09-08T07:14:55.003Z</time>
</trkpt>
<trkpt lat="41.9451800" lon="1.9028040">
<ele>396.666718</ele>
<time>2022-09-08T07:14:55.997Z</time>
</trkpt>
<trkpt lat="41.9451520" lon="1.9027890">
<ele>396.758148</ele>
<time>2022-09-08T07:14:56.999Z</time>
</trkpt>
<trkpt lat="41.9451320" lon="1.9027580">
<ele>396.575287</ele>
<time>2022-09-08T07:14:58.001Z</time>
</trkpt>
<trkpt lat="41.9451070" lon="1.9027230">
<ele>396.483856</ele>
<time>2022-09-08T07:14:59.004Z</time>
</trkpt>
<trkpt lat="41.9450550" lon="1.9026810">
<ele>396.697205</ele>
<time>2022-09-08T07:14:59.997Z</time>
</trkpt>
<trkpt lat="41.9450030" lon="1.9026400">
<ele>396.941040</ele>
<time>2022-09-08T07:15:00.999Z</time>
</trkpt>
<trkpt lat="41.9449270" lon="1.9025940">
<ele>397.520142</ele>
<time>2022-09-08T07:15:02.002Z</time>
</trkpt>
<trkpt lat="41.9448730" lon="1.9025470">
<ele>397.794464</ele>
<time>2022-09-08T07:15:03.004Z</time>
</trkpt>
<trkpt lat="41.9448390" lon="1.9025210">
<ele>397.977356</ele>
<time>2022-09-08T07:15:03.997Z</time>
</trkpt>
<trkpt lat="41.9447960" lon="1.9025010">
<ele>398.373596</ele>
<time>2022-09-08T07:15:05.000Z</time>
</trkpt>
<trkpt lat="41.9447540" lon="1.9024710">
<ele>398.586945</ele>
<time>2022-09-08T07:15:06.002Z</time>
</trkpt>
<trkpt lat="41.9447270" lon="1.9024440">
<ele>398.617462</ele>
<time>2022-09-08T07:15:07.004Z</time>
</trkpt>
<trkpt lat="41.9446950" lon="1.9024040">
<ele>398.556458</ele>
<time>2022-09-08T07:15:07.998Z</time>
</trkpt>
<trkpt lat="41.9446710" lon="1.9023860">
<ele>398.617462</ele>
<time>2022-09-08T07:15:09.000Z</time>
</trkpt>
<trkpt lat="41.9446410" lon="1.9023640">
<ele>398.708862</ele>
<time>2022-09-08T07:15:10.002Z</time>
</trkpt>
<trkpt lat="41.9445980" lon="1.9023440">
<ele>398.983185</ele>
<time>2022-09-08T07:15:10.996Z</time>
</trkpt>
<trkpt lat="41.9445470" lon="1.9023190">
<ele>399.105133</ele>
<time>2022-09-08T07:15:11.998Z</time>
</trkpt>
<trkpt lat="41.9445060" lon="1.9022830">
<ele>398.830811</ele>
<time>2022-09-08T07:15:13.000Z</time>
</trkpt>
<trkpt lat="41.9444620" lon="1.9022340">
<ele>398.343140</ele>
<time>2022-09-08T07:15:14.003Z</time>
</trkpt>
<trkpt lat="41.9444310" lon="1.9021890">
<ele>397.824951</ele>
<time>2022-09-08T07:15:14.996Z</time>
</trkpt>
<trkpt lat="41.9443850" lon="1.9021490">
<ele>397.489685</ele>
<time>2022-09-08T07:15:15.998Z</time>
</trkpt>
<trkpt lat="41.9443440" lon="1.9021370">
<ele>397.642059</ele>
<time>2022-09-08T07:15:17.001Z</time>
</trkpt>
<trkpt lat="41.9443120" lon="1.9021280">
<ele>397.764008</ele>
<time>2022-09-08T07:15:18.003Z</time>
</trkpt>
<trkpt lat="41.9443000" lon="1.9021230">
<ele>397.794464</ele>
<time>2022-09-08T07:15:18.996Z</time>
</trkpt>
<trkpt lat="41.9442930" lon="1.9021100">
<ele>397.611603</ele>
<time>2022-09-08T07:15:19.999Z</time>
</trkpt>
<trkpt lat="41.9442820" lon="1.9021020">
<ele>397.581116</ele>
<time>2022-09-08T07:15:21.001Z</time>
</trkpt>
<trkpt lat="41.9442780" lon="1.9020990">
<ele>397.581116</ele>
<time>2022-09-08T07:15:22.003Z</time>
</trkpt>
<trkpt lat="41.9442780" lon="1.9020990">
<ele>397.581116</ele>
<time>2022-09-08T07:15:22.997Z</time>
</trkpt>
<trkpt lat="41.9442780" lon="1.9020990">
<ele>397.581116</ele>
<time>2022-09-08T07:15:23.999Z</time>
</trkpt>
<trkpt lat="41.9442270" lon="1.9020650">
<ele>397.459198</ele>
<time>2022-09-08T07:20:49.001Z</time>
</trkpt>
<trkpt lat="41.9442020" lon="1.9020490">
<ele>397.398254</ele>
<time>2022-09-08T07:20:50.004Z</time>
</trkpt>
<trkpt lat="41.9441780" lon="1.9020320">
<ele>397.306793</ele>
<time>2022-09-08T07:20:50.997Z</time>
</trkpt>
<trkpt lat="41.9441500" lon="1.9020140">
<ele>397.337280</ele>
<time>2022-09-08T07:20:51.999Z</time>
</trkpt>
<trkpt lat="41.9441210" lon="1.9019970">
<ele>397.367737</ele>
<time>2022-09-08T07:20:53.002Z</time>
</trkpt>
<trkpt lat="41.9440910" lon="1.9019830">
<ele>397.489685</ele>
<time>2022-09-08T07:20:54.004Z</time>
</trkpt>
<trkpt lat="41.9440550" lon="1.9019700">
<ele>397.764008</ele>
<time>2022-09-08T07:20:54.997Z</time>
</trkpt>
<trkpt lat="41.9440240" lon="1.9019570">
<ele>397.977356</ele>
<time>2022-09-08T07:20:56.000Z</time>
</trkpt>
<trkpt lat="41.9439950" lon="1.9019460">
<ele>398.160248</ele>
<time>2022-09-08T07:20:57.002Z</time>
</trkpt>
<trkpt lat="41.9439670" lon="1.9019350">
<ele>398.434540</ele>
<time>2022-09-08T07:20:58.004Z</time>
</trkpt>
<trkpt lat="41.9439350" lon="1.9019220">
<ele>398.678406</ele>
<time>2022-09-08T07:20:58.998Z</time>
</trkpt>
<trkpt lat="41.9438980" lon="1.9019080">
<ele>399.013672</ele>
<time>2022-09-08T07:21:00.000Z</time>
</trkpt>
<trkpt lat="41.9438610" lon="1.9018920">
<ele>399.379456</ele>
<time>2022-09-08T07:21:01.002Z</time>
</trkpt>
<trkpt lat="41.9438340" lon="1.9018820">
<ele>399.653748</ele>
<time>2022-09-08T07:21:01.996Z</time>
</trkpt>
<trkpt lat="41.9438100" lon="1.9018720">
<ele>399.867126</ele>
<time>2022-09-08T07:21:02.998Z</time>
</trkpt>
<trkpt lat="41.9437920" lon="1.9018680">
<ele>400.110931</ele>
<time>2022-09-08T07:21:04.000Z</time>
</trkpt>
<trkpt lat="41.9437870" lon="1.9018670">
<ele>400.141449</ele>
<time>2022-09-08T07:21:05.003Z</time>
</trkpt>
<trkpt lat="41.9437870" lon="1.9018670">
<ele>400.141449</ele>
<time>2022-09-08T07:21:05.996Z</time>
</trkpt>
<trkpt lat="41.9437870" lon="1.9018670">
<ele>400.141449</ele>
<time>2022-09-08T07:21:06.998Z</time>
</trkpt>
<trkpt lat="41.9437870" lon="1.9018670">
<ele>400.141449</ele>
<time>2022-09-08T07:21:08.001Z</time>
</trkpt>
<trkpt lat="41.9437770" lon="1.9018680">
<ele>400.354797</ele>
<time>2022-09-08T07:21:09.003Z</time>
</trkpt>
<trkpt lat="41.9437740" lon="1.9018700">
<ele>400.385284</ele>
<time>2022-09-08T07:21:09.996Z</time>
</trkpt>
<trkpt lat="41.9437740" lon="1.9018700">
<ele>400.385284</ele>
<time>2022-09-08T07:21:10.999Z</time>
</trkpt>
<trkpt lat="41.9437740" lon="1.9018700">
<ele>400.385284</ele>
<time>2022-09-08T07:21:12.001Z</time>
</trkpt>
<trkpt lat="41.9437680" lon="1.9018650">
<ele>400.446259</ele>
<time>2022-09-08T07:21:13.003Z</time>
</trkpt>
<trkpt lat="41.9437650" lon="1.9018620">
<ele>400.446259</ele>
<time>2022-09-08T07:21:13.997Z</time>
</trkpt>
<trkpt lat="41.9437650" lon="1.9018620">
<ele>400.446259</ele>
<time>2022-09-08T07:21:14.999Z</time>
</trkpt>
<trkpt lat="41.9437650" lon="1.9018620">
<ele>400.446259</ele>
<time>2022-09-08T07:21:16.001Z</time>
</trkpt>
<trkpt lat="41.9437650" lon="1.9018620">
<ele>400.446259</ele>
<time>2022-09-08T07:21:17.004Z</time>
</trkpt>
<trkpt lat="41.9437320" lon="1.9018350">
<ele>400.507202</ele>
<time>2022-09-08T07:21:35.001Z</time>
</trkpt>
<trkpt lat="41.9437020" lon="1.9018040">
<ele>400.507202</ele>
<time>2022-09-08T07:21:36.003Z</time>
</trkpt>
<trkpt lat="41.9436720" lon="1.9017630">
<ele>400.354797</ele>
<time>2022-09-08T07:21:36.996Z</time>
</trkpt>
<trkpt lat="41.9436410" lon="1.9017170">
<ele>400.141449</ele>
<time>2022-09-08T07:21:37.999Z</time>
</trkpt>
<trkpt lat="41.9436030" lon="1.9016660">
<ele>400.049988</ele>
<time>2022-09-08T07:21:39.001Z</time>
</trkpt>
<trkpt lat="41.9435620" lon="1.9016050">
<ele>399.928070</ele>
<time>2022-09-08T07:21:40.003Z</time>
</trkpt>
<trkpt lat="41.9435190" lon="1.9015430">
<ele>399.836670</ele>
<time>2022-09-08T07:21:40.997Z</time>
</trkpt>
<trkpt lat="41.9434910" lon="1.9014840">
<ele>399.531860</ele>
<time>2022-09-08T07:21:41.999Z</time>
</trkpt>
<trkpt lat="41.9434720" lon="1.9014210">
<ele>399.105133</ele>
<time>2022-09-08T07:21:43.001Z</time>
</trkpt>
<trkpt lat="41.9434700" lon="1.9013730">
<ele>398.586945</ele>
<time>2022-09-08T07:21:44.004Z</time>
</trkpt>
<trkpt lat="41.9434690" lon="1.9013440">
<ele>398.251678</ele>
<time>2022-09-08T07:21:44.997Z</time>
</trkpt>
<trkpt lat="41.9434640" lon="1.9013320">
<ele>398.251678</ele>
<time>2022-09-08T07:21:45.999Z</time>
</trkpt>
<trkpt lat="41.9434610" lon="1.9013300">
<ele>398.251678</ele>
<time>2022-09-08T07:21:47.002Z</time>
</trkpt>
<trkpt lat="41.9434610" lon="1.9013300">
<ele>398.251678</ele>
<time>2022-09-08T07:21:48.004Z</time>
</trkpt>
<trkpt lat="41.9434610" lon="1.9013300">
<ele>398.251678</ele>
<time>2022-09-08T07:21:48.997Z</time>
</trkpt>
<trkpt lat="41.9434010" lon="1.9013160">
<ele>399.166077</ele>
<time>2022-09-08T07:23:48.998Z</time>
</trkpt>
<trkpt lat="41.9433850" lon="1.9012980">
<ele>399.257538</ele>
<time>2022-09-08T07:23:50.001Z</time>
</trkpt>
<trkpt lat="41.9433670" lon="1.9012830">
<ele>399.440399</ele>
<time>2022-09-08T07:23:51.003Z</time>
</trkpt>
<trkpt lat="41.9433490" lon="1.9012710">
<ele>399.653748</ele>
<time>2022-09-08T07:23:51.996Z</time>
</trkpt>
<trkpt lat="41.9433310" lon="1.9012570">
<ele>399.775665</ele>
<time>2022-09-08T07:23:52.999Z</time>
</trkpt>
<trkpt lat="41.9433080" lon="1.9012400">
<ele>399.958557</ele>
<time>2022-09-08T07:23:54.001Z</time>
</trkpt>
<trkpt lat="41.9432860" lon="1.9012180">
<ele>400.049988</ele>
<time>2022-09-08T07:23:55.003Z</time>
</trkpt>
<trkpt lat="41.9432670" lon="1.9011970">
<ele>400.080475</ele>
<time>2022-09-08T07:23:55.997Z</time>
</trkpt>
<trkpt lat="41.9432460" lon="1.9011760">
<ele>400.202393</ele>
<time>2022-09-08T07:23:56.999Z</time>
</trkpt>
<trkpt lat="41.9432280" lon="1.9011620">
<ele>400.293854</ele>
<time>2022-09-08T07:23:58.001Z</time>
</trkpt>
<trkpt lat="41.9432000" lon="1.9011450">
<ele>400.629120</ele>
<time>2022-09-08T07:23:59.004Z</time>
</trkpt>
<trkpt lat="41.9431760" lon="1.9011200">
<ele>400.690063</ele>
<time>2022-09-08T07:23:59.997Z</time>
</trkpt>
<trkpt lat="41.9431580" lon="1.9010940">
<ele>400.720551</ele>
<time>2022-09-08T07:24:00.999Z</time>
</trkpt>
<trkpt lat="41.9431480" lon="1.9010710">
<ele>400.568146</ele>
<time>2022-09-08T07:24:02.002Z</time>
</trkpt>
<trkpt lat="41.9431400" lon="1.9010480">
<ele>400.476715</ele>
<time>2022-09-08T07:24:03.004Z</time>
</trkpt>
<trkpt lat="41.9431290" lon="1.9010210">
<ele>400.293854</ele>
<time>2022-09-08T07:24:03.997Z</time>
</trkpt>
<trkpt lat="41.9431170" lon="1.9009940">
<ele>400.263336</ele>
<time>2022-09-08T07:24:05.000Z</time>
</trkpt>
<trkpt lat="41.9431000" lon="1.9009640">
<ele>400.202393</ele>
<time>2022-09-08T07:24:06.002Z</time>
</trkpt>
<trkpt lat="41.9430840" lon="1.9009330">
<ele>400.141449</ele>
<time>2022-09-08T07:24:07.004Z</time>
</trkpt>
<trkpt lat="41.9430610" lon="1.9008970">
<ele>400.171936</ele>
<time>2022-09-08T07:24:07.998Z</time>
</trkpt>
<trkpt lat="41.9430440" lon="1.9008730">
<ele>400.263336</ele>
<time>2022-09-08T07:24:09.000Z</time>
</trkpt>
<trkpt lat="41.9430390" lon="1.9008540">
<ele>400.141449</ele>
<time>2022-09-08T07:24:10.002Z</time>
</trkpt>
<trkpt lat="41.9430210" lon="1.9008310">
<ele>400.232880</ele>
<time>2022-09-08T07:24:10.996Z</time>
</trkpt>
<trkpt lat="41.9429950" lon="1.9007950">
<ele>400.324341</ele>
<time>2022-09-08T07:24:11.998Z</time>
</trkpt>
<trkpt lat="41.9429830" lon="1.9007650">
<ele>400.232880</ele>
<time>2022-09-08T07:24:13.000Z</time>
</trkpt>
<trkpt lat="41.9429610" lon="1.9007340">
<ele>400.263336</ele>
<time>2022-09-08T07:24:14.003Z</time>
</trkpt>
<trkpt lat="41.9429280" lon="1.9006970">
<ele>400.385284</ele>
<time>2022-09-08T07:24:14.996Z</time>
</trkpt>
<trkpt lat="41.9428970" lon="1.9006730">
<ele>400.446259</ele>
<time>2022-09-08T07:24:15.998Z</time>
</trkpt>
<trkpt lat="41.9428660" lon="1.9006490">
<ele>400.415741</ele>
<time>2022-09-08T07:24:17.001Z</time>
</trkpt>
<trkpt lat="41.9428350" lon="1.9006140">
<ele>400.324341</ele>
<time>2022-09-08T07:24:18.003Z</time>
</trkpt>
<trkpt lat="41.9428150" lon="1.9005810">
<ele>400.171936</ele>
<time>2022-09-08T07:24:18.996Z</time>
</trkpt>
<trkpt lat="41.9428010" lon="1.9005450">
<ele>400.049988</ele>
<time>2022-09-08T07:24:19.999Z</time>
</trkpt>
<trkpt lat="41.9427910" lon="1.9005190">
<ele>399.989044</ele>
<time>2022-09-08T07:24:21.001Z</time>
</trkpt>
<trkpt lat="41.9427830" lon="1.9004870">
<ele>399.928070</ele>
<time>2022-09-08T07:24:22.003Z</time>
</trkpt>
<trkpt lat="41.9427590" lon="1.9004500">
<ele>399.836670</ele>
<time>2022-09-08T07:24:22.997Z</time>
</trkpt>
<trkpt lat="41.9427410" lon="1.9004110">
<ele>399.745209</ele>
<time>2022-09-08T07:24:23.999Z</time>
</trkpt>
<trkpt lat="41.9427180" lon="1.9003650">
<ele>399.531860</ele>
<time>2022-09-08T07:24:25.001Z</time>
</trkpt>
<trkpt lat="41.9427070" lon="1.9003200">
<ele>399.440399</ele>
<time>2022-09-08T07:24:26.004Z</time>
</trkpt>
<trkpt lat="41.9426830" lon="1.9002850">
<ele>399.287994</ele>
<time>2022-09-08T07:24:26.997Z</time>
</trkpt>
<trkpt lat="41.9426620" lon="1.9002470">
<ele>399.135590</ele>
<time>2022-09-08T07:24:27.999Z</time>
</trkpt>
<trkpt lat="41.9426310" lon="1.9001960">
<ele>398.952728</ele>
<time>2022-09-08T07:24:29.002Z</time>
</trkpt>
<trkpt lat="41.9426220" lon="1.9001580">
<ele>399.013672</ele>
<time>2022-09-08T07:24:30.004Z</time>
</trkpt>
<trkpt lat="41.9426160" lon="1.9001170">
<ele>399.135590</ele>
<time>2022-09-08T07:24:30.997Z</time>
</trkpt>
<trkpt lat="41.9426060" lon="1.9000780">
<ele>399.257538</ele>
<time>2022-09-08T07:24:32.000Z</time>
</trkpt>
<trkpt lat="41.9425960" lon="1.9000490">
<ele>399.257538</ele>
<time>2022-09-08T07:24:33.002Z</time>
</trkpt>
<trkpt lat="41.9425820" lon="1.9000270">
<ele>399.196533</ele>
<time>2022-09-08T07:24:34.004Z</time>
</trkpt>
<trkpt lat="41.9425550" lon="1.8999890">
<ele>399.013672</ele>
<time>2022-09-08T07:24:34.998Z</time>
</trkpt>
<trkpt lat="41.9425470" lon="1.8999550">
<ele>399.135590</ele>
<time>2022-09-08T07:24:36.000Z</time>
</trkpt>
<trkpt lat="41.9425390" lon="1.8999210">
<ele>399.287994</ele>
<time>2022-09-08T07:24:37.002Z</time>
</trkpt>
<trkpt lat="41.9425110" lon="1.8998800">
<ele>399.135590</ele>
<time>2022-09-08T07:24:37.996Z</time>
</trkpt>
<trkpt lat="41.9424800" lon="1.8998470">
<ele>398.739349</ele>
<time>2022-09-08T07:24:38.998Z</time>
</trkpt>
<trkpt lat="41.9424360" lon="1.8998080">
<ele>398.190735</ele>
<time>2022-09-08T07:24:40.000Z</time>
</trkpt>
<trkpt lat="41.9423870" lon="1.8997710">
<ele>397.428741</ele>
<time>2022-09-08T07:24:41.003Z</time>
</trkpt>
<trkpt lat="41.9423350" lon="1.8997400">
<ele>396.453339</ele>
<time>2022-09-08T07:24:41.996Z</time>
</trkpt>
<trkpt lat="41.9422800" lon="1.8997120">
<ele>395.447540</ele>
<time>2022-09-08T07:24:42.998Z</time>
</trkpt>
<trkpt lat="41.9422260" lon="1.8996890">
<ele>394.380737</ele>
<time>2022-09-08T07:24:44.001Z</time>
</trkpt>
<trkpt lat="41.9421730" lon="1.8996680">
<ele>393.313934</ele>
<time>2022-09-08T07:24:45.003Z</time>
</trkpt>
<trkpt lat="41.9421210" lon="1.8996480">
<ele>392.277588</ele>
<time>2022-09-08T07:24:45.996Z</time>
</trkpt>
<trkpt lat="41.9420680" lon="1.8996230">
<ele>391.363190</ele>
<time>2022-09-08T07:24:46.999Z</time>
</trkpt>
<trkpt lat="41.9420250" lon="1.8995930">
<ele>390.845062</ele>
<time>2022-09-08T07:24:48.001Z</time>
</trkpt>
<trkpt lat="41.9419840" lon="1.8995550">
<ele>390.357330</ele>
<time>2022-09-08T07:24:49.003Z</time>
</trkpt>
<trkpt lat="41.9419430" lon="1.8995090">
<ele>389.991608</ele>
<time>2022-09-08T07:24:49.997Z</time>
</trkpt>
<trkpt lat="41.9419010" lon="1.8994640">
<ele>389.656342</ele>
<time>2022-09-08T07:24:50.999Z</time>
</trkpt>
<trkpt lat="41.9418570" lon="1.8994220">
<ele>389.290558</ele>
<time>2022-09-08T07:24:52.001Z</time>
</trkpt>
<trkpt lat="41.9418060" lon="1.8993820">
<ele>388.894318</ele>
<time>2022-09-08T07:24:53.004Z</time>
</trkpt>
<trkpt lat="41.9417520" lon="1.8993470">
<ele>388.406647</ele>
<time>2022-09-08T07:24:53.997Z</time>
</trkpt>
<trkpt lat="41.9417040" lon="1.8993150">
<ele>387.949463</ele>
<time>2022-09-08T07:24:54.999Z</time>
</trkpt>
<trkpt lat="41.9416620" lon="1.8992860">
<ele>387.583679</ele>
<time>2022-09-08T07:24:56.002Z</time>
</trkpt>
<trkpt lat="41.9416220" lon="1.8992630">
<ele>387.217926</ele>
<time>2022-09-08T07:24:57.004Z</time>
</trkpt>
<trkpt lat="41.9415790" lon="1.8992430">
<ele>386.699738</ele>
<time>2022-09-08T07:24:57.997Z</time>
</trkpt>
<trkpt lat="41.9415360" lon="1.8992240">
<ele>386.212067</ele>
<time>2022-09-08T07:24:59.000Z</time>
</trkpt>
<trkpt lat="41.9414950" lon="1.8992080">
<ele>385.693939</ele>
<time>2022-09-08T07:25:00.002Z</time>
</trkpt>
<trkpt lat="41.9414580" lon="1.8991940">
<ele>385.267212</ele>
<time>2022-09-08T07:25:01.004Z</time>
</trkpt>
<trkpt lat="41.9414220" lon="1.8991740">
<ele>384.779541</ele>
<time>2022-09-08T07:25:01.998Z</time>
</trkpt>
<trkpt lat="41.9413840" lon="1.8991500">
<ele>384.291870</ele>
<time>2022-09-08T07:25:03.000Z</time>
</trkpt>
<trkpt lat="41.9413470" lon="1.8991250">
<ele>383.743195</ele>
<time>2022-09-08T07:25:04.002Z</time>
</trkpt>
<trkpt lat="41.9413130" lon="1.8991000">
<ele>383.255524</ele>
<time>2022-09-08T07:25:04.996Z</time>
</trkpt>
<trkpt lat="41.9412810" lon="1.8990770">
<ele>382.706879</ele>
<time>2022-09-08T07:25:05.998Z</time>
</trkpt>
<trkpt lat="41.9412540" lon="1.8990550">
<ele>382.249664</ele>
<time>2022-09-08T07:25:07.000Z</time>
</trkpt>
<trkpt lat="41.9412290" lon="1.8990280">
<ele>381.701050</ele>
<time>2022-09-08T07:25:08.003Z</time>
</trkpt>
<trkpt lat="41.9412060" lon="1.8989930">
<ele>381.121918</ele>
<time>2022-09-08T07:25:08.996Z</time>
</trkpt>
<trkpt lat="41.9411840" lon="1.8989560">
<ele>380.512329</ele>
<time>2022-09-08T07:25:09.998Z</time>
</trkpt>
<trkpt lat="41.9411650" lon="1.8989150">
<ele>380.024658</ele>
<time>2022-09-08T07:25:11.001Z</time>
</trkpt>
<trkpt lat="41.9411510" lon="1.8988810">
<ele>379.628387</ele>
<time>2022-09-08T07:25:12.003Z</time>
</trkpt>
<trkpt lat="41.9411380" lon="1.8988510">
<ele>379.354065</ele>
<time>2022-09-08T07:25:12.996Z</time>
</trkpt>
<trkpt lat="41.9411240" lon="1.8988450">
<ele>379.018799</ele>
<time>2022-09-08T07:25:13.999Z</time>
</trkpt>
<trkpt lat="41.9411100" lon="1.8988510">
<ele>378.744476</ele>
<time>2022-09-08T07:25:15.001Z</time>
</trkpt>
<trkpt lat="41.9410960" lon="1.8988690">
<ele>378.531128</ele>
<time>2022-09-08T07:25:16.003Z</time>
</trkpt>
<trkpt lat="41.9410820" lon="1.8988980">
<ele>378.287262</ele>
<time>2022-09-08T07:25:16.997Z</time>
</trkpt>
<trkpt lat="41.9410680" lon="1.8989340">
<ele>378.104401</ele>
<time>2022-09-08T07:25:17.999Z</time>
</trkpt>
<trkpt lat="41.9410630" lon="1.8989680">
<ele>378.165344</ele>
<time>2022-09-08T07:25:19.001Z</time>
</trkpt>
<trkpt lat="41.9410660" lon="1.8989940">
<ele>378.348267</ele>
<time>2022-09-08T07:25:20.004Z</time>
</trkpt>
<trkpt lat="41.9410720" lon="1.8990220">
<ele>378.531128</ele>
<time>2022-09-08T07:25:20.997Z</time>
</trkpt>
<trkpt lat="41.9410730" lon="1.8990530">
<ele>378.744476</ele>
<time>2022-09-08T07:25:21.999Z</time>
</trkpt>
<trkpt lat="41.9410660" lon="1.8990860">
<ele>378.835938</ele>
<time>2022-09-08T07:25:23.002Z</time>
</trkpt>
<trkpt lat="41.9410540" lon="1.8991170">
<ele>378.866394</ele>
<time>2022-09-08T07:25:24.004Z</time>
</trkpt>
<trkpt lat="41.9410480" lon="1.8991430">
<ele>378.957855</ele>
<time>2022-09-08T07:25:24.997Z</time>
</trkpt>
<trkpt lat="41.9410380" lon="1.8991740">
<ele>379.079742</ele>
<time>2022-09-08T07:25:26.000Z</time>
</trkpt>
<trkpt lat="41.9410320" lon="1.8992130">
<ele>379.415070</ele>
<time>2022-09-08T07:25:27.002Z</time>
</trkpt>
<trkpt lat="41.9410340" lon="1.8992500">
<ele>379.811279</ele>
<time>2022-09-08T07:25:28.004Z</time>
</trkpt>
<trkpt lat="41.9410430" lon="1.8992850">
<ele>380.329468</ele>
<time>2022-09-08T07:25:28.998Z</time>
</trkpt>
<trkpt lat="41.9410500" lon="1.8993170">
<ele>380.786652</ele>
<time>2022-09-08T07:25:30.000Z</time>
</trkpt>
<trkpt lat="41.9410660" lon="1.8993510">
<ele>381.365753</ele>
<time>2022-09-08T07:25:31.002Z</time>
</trkpt>
<trkpt lat="41.9410750" lon="1.8993710">
<ele>381.701050</ele>
<time>2022-09-08T07:25:31.996Z</time>
</trkpt>
<trkpt lat="41.9410830" lon="1.8993970">
<ele>382.127747</ele>
<time>2022-09-08T07:25:32.998Z</time>
</trkpt>
<trkpt lat="41.9410840" lon="1.8994300">
<ele>382.615448</ele>
<time>2022-09-08T07:25:34.000Z</time>
</trkpt>
<trkpt lat="41.9410730" lon="1.8994550">
<ele>382.920258</ele>
<time>2022-09-08T07:25:35.003Z</time>
</trkpt>
<trkpt lat="41.9410560" lon="1.8994710">
<ele>383.042145</ele>
<time>2022-09-08T07:25:35.996Z</time>
</trkpt>
<trkpt lat="41.9410340" lon="1.8994780">
<ele>383.042145</ele>
<time>2022-09-08T07:25:36.998Z</time>
</trkpt>
<trkpt lat="41.9410190" lon="1.8994770">
<ele>382.950714</ele>
<time>2022-09-08T07:25:38.001Z</time>
</trkpt>
<trkpt lat="41.9410010" lon="1.8994720">
<ele>382.798340</ele>
<time>2022-09-08T07:25:39.003Z</time>
</trkpt>
<trkpt lat="41.9409850" lon="1.8994610">
<ele>382.523987</ele>
<time>2022-09-08T07:25:39.996Z</time>
</trkpt>
<trkpt lat="41.9409750" lon="1.8994530">
<ele>382.310669</ele>
<time>2022-09-08T07:25:40.999Z</time>
</trkpt>
<trkpt lat="41.9409600" lon="1.8994430">
<ele>382.066803</ele>
<time>2022-09-08T07:25:42.001Z</time>
</trkpt>
<trkpt lat="41.9409500" lon="1.8994390">
<ele>381.944885</ele>
<time>2022-09-08T07:25:43.003Z</time>
</trkpt>
<trkpt lat="41.9409350" lon="1.8994320">
<ele>381.761993</ele>
<time>2022-09-08T07:25:43.997Z</time>
</trkpt>
<trkpt lat="41.9409180" lon="1.8994260">
<ele>381.609589</ele>
<time>2022-09-08T07:25:44.999Z</time>
</trkpt>
<trkpt lat="41.9409060" lon="1.8994190">
<ele>381.426727</ele>
<time>2022-09-08T07:25:46.001Z</time>
</trkpt>
<trkpt lat="41.9408860" lon="1.8994090">
<ele>381.182861</ele>
<time>2022-09-08T07:25:47.004Z</time>
</trkpt>
<trkpt lat="41.9408730" lon="1.8994050">
<ele>381.060944</ele>
<time>2022-09-08T07:25:47.997Z</time>
</trkpt>
<trkpt lat="41.9408610" lon="1.8993980">
<ele>380.878082</ele>
<time>2022-09-08T07:25:48.999Z</time>
</trkpt>
<trkpt lat="41.9408480" lon="1.8993910">
<ele>380.725677</ele>
<time>2022-09-08T07:25:50.002Z</time>
</trkpt>
<trkpt lat="41.9408250" lon="1.8993860">
<ele>380.573273</ele>
<time>2022-09-08T07:25:51.004Z</time>
</trkpt>
<trkpt lat="41.9408050" lon="1.8993750">
<ele>380.329468</ele>
<time>2022-09-08T07:25:51.997Z</time>
</trkpt>
<trkpt lat="41.9407780" lon="1.8993660">
<ele>380.116058</ele>
<time>2022-09-08T07:25:53.000Z</time>
</trkpt>
<trkpt lat="41.9407520" lon="1.8993590">
<ele>379.963684</ele>
<time>2022-09-08T07:25:54.002Z</time>
</trkpt>
<trkpt lat="41.9407270" lon="1.8993510">
<ele>379.780792</ele>
<time>2022-09-08T07:25:55.004Z</time>
</trkpt>
<trkpt lat="41.9407060" lon="1.8993510">
<ele>379.811279</ele>
<time>2022-09-08T07:25:55.998Z</time>
</trkpt>
<trkpt lat="41.9406840" lon="1.8993470">
<ele>379.750336</ele>
<time>2022-09-08T07:25:57.000Z</time>
</trkpt>
<trkpt lat="41.9406550" lon="1.8993400">
<ele>379.689331</ele>
<time>2022-09-08T07:25:58.002Z</time>
</trkpt>
<trkpt lat="41.9406250" lon="1.8993240">
<ele>379.415070</ele>
<time>2022-09-08T07:25:58.996Z</time>
</trkpt>
<trkpt lat="41.9406020" lon="1.8993170">
<ele>379.354065</ele>
<time>2022-09-08T07:25:59.998Z</time>
</trkpt>
<trkpt lat="41.9405890" lon="1.8993140">
<ele>379.323608</ele>
<time>2022-09-08T07:26:01.000Z</time>
</trkpt>
<trkpt lat="41.9405650" lon="1.8993020">
<ele>379.201660</ele>
<time>2022-09-08T07:26:02.003Z</time>
</trkpt>
<trkpt lat="41.9405490" lon="1.8992880">
<ele>378.957855</ele>
<time>2022-09-08T07:26:02.996Z</time>
</trkpt>
<trkpt lat="41.9405280" lon="1.8992900">
<ele>379.110260</ele>
<time>2022-09-08T07:26:03.998Z</time>
</trkpt>
<trkpt lat="41.9405070" lon="1.8992930">
<ele>379.323608</ele>
<time>2022-09-08T07:26:05.001Z</time>
</trkpt>
<trkpt lat="41.9404740" lon="1.8992970">
<ele>379.658875</ele>
<time>2022-09-08T07:26:06.003Z</time>
</trkpt>
<trkpt lat="41.9404540" lon="1.8993040">
<ele>380.055115</ele>
<time>2022-09-08T07:26:06.996Z</time>
</trkpt>
<trkpt lat="41.9404260" lon="1.8993120">
<ele>380.512329</ele>
<time>2022-09-08T07:26:07.999Z</time>
</trkpt>
<trkpt lat="41.9404060" lon="1.8993210">
<ele>380.817139</ele>
<time>2022-09-08T07:26:09.001Z</time>
</trkpt>
<trkpt lat="41.9403840" lon="1.8993320">
<ele>381.121918</ele>
<time>2022-09-08T07:26:10.003Z</time>
</trkpt>
<trkpt lat="41.9403810" lon="1.8993440">
<ele>381.457214</ele>
<time>2022-09-08T07:26:10.997Z</time>
</trkpt>
<trkpt lat="41.9403790" lon="1.8993630">
<ele>382.005859</ele>
<time>2022-09-08T07:26:11.999Z</time>
</trkpt>
<trkpt lat="41.9403490" lon="1.8993770">
<ele>382.493530</ele>
<time>2022-09-08T07:26:13.001Z</time>
</trkpt>
<trkpt lat="41.9403270" lon="1.8993880">
<ele>382.920258</ele>
<time>2022-09-08T07:26:14.004Z</time>
</trkpt>
<trkpt lat="41.9403060" lon="1.8994010">
<ele>383.407928</ele>
<time>2022-09-08T07:26:14.997Z</time>
</trkpt>
<trkpt lat="41.9402860" lon="1.8994080">
<ele>383.743195</ele>
<time>2022-09-08T07:26:15.999Z</time>
</trkpt>
<trkpt lat="41.9402710" lon="1.8994120">
<ele>383.956543</ele>
<time>2022-09-08T07:26:17.002Z</time>
</trkpt>
<trkpt lat="41.9402650" lon="1.8994150">
<ele>384.078461</ele>
<time>2022-09-08T07:26:18.004Z</time>
</trkpt>
<trkpt lat="41.9402650" lon="1.8994150">
<ele>384.078461</ele>
<time>2022-09-08T07:26:18.997Z</time>
</trkpt>
<trkpt lat="41.9402650" lon="1.8994150">
<ele>384.078461</ele>
<time>2022-09-08T07:26:20.000Z</time>
</trkpt>
<trkpt lat="41.9402360" lon="1.8995010">
<ele>387.339844</ele>
<time>2022-09-08T07:26:36.001Z</time>
</trkpt>
<trkpt lat="41.9402230" lon="1.8995270">
<ele>388.437134</ele>
<time>2022-09-08T07:26:37.003Z</time>
</trkpt>
<trkpt lat="41.9402180" lon="1.8995500">
<ele>389.381989</ele>
<time>2022-09-08T07:26:37.997Z</time>
</trkpt>
<trkpt lat="41.9402180" lon="1.8995750">
<ele>390.357330</ele>
<time>2022-09-08T07:26:38.999Z</time>
</trkpt>
<trkpt lat="41.9402190" lon="1.8996030">
<ele>391.302246</ele>
<time>2022-09-08T07:26:40.001Z</time>
</trkpt>
<trkpt lat="41.9402220" lon="1.8996410">
<ele>392.399536</ele>
<time>2022-09-08T07:26:41.004Z</time>
</trkpt>
<trkpt lat="41.9402230" lon="1.8996710">
<ele>393.313934</ele>
<time>2022-09-08T07:26:41.997Z</time>
</trkpt>
<trkpt lat="41.9402200" lon="1.8996990">
<ele>394.197845</ele>
<time>2022-09-08T07:26:42.999Z</time>
</trkpt>
<trkpt lat="41.9402140" lon="1.8997250">
<ele>395.081757</ele>
<time>2022-09-08T07:26:44.002Z</time>
</trkpt>
<trkpt lat="41.9402070" lon="1.8997510">
<ele>395.904724</ele>
<time>2022-09-08T07:26:45.004Z</time>
</trkpt>
<trkpt lat="41.9401950" lon="1.8997760">
<ele>396.880066</ele>
<time>2022-09-08T07:26:45.997Z</time>
</trkpt>
<trkpt lat="41.9401840" lon="1.8998000">
<ele>397.703064</ele>
<time>2022-09-08T07:26:47.000Z</time>
</trkpt>
<trkpt lat="41.9401650" lon="1.8998220">
<ele>398.647919</ele>
<time>2022-09-08T07:26:48.002Z</time>
</trkpt>
<trkpt lat="41.9401580" lon="1.8998450">
<ele>399.470886</ele>
<time>2022-09-08T07:26:49.004Z</time>
</trkpt>
<trkpt lat="41.9401520" lon="1.8998660">
<ele>400.232880</ele>
<time>2022-09-08T07:26:49.998Z</time>
</trkpt>
<trkpt lat="41.9401510" lon="1.8998830">
<ele>400.751068</ele>
<time>2022-09-08T07:26:51.000Z</time>
</trkpt>
<trkpt lat="41.9401430" lon="1.8999070">
<ele>401.604462</ele>
<time>2022-09-08T07:26:52.002Z</time>
</trkpt>
<trkpt lat="41.9401430" lon="1.8999260">
<ele>402.183594</ele>
<time>2022-09-08T07:26:52.996Z</time>
</trkpt>
<trkpt lat="41.9401550" lon="1.8999440">
<ele>402.549347</ele>
<time>2022-09-08T07:26:53.998Z</time>
</trkpt>
<trkpt lat="41.9401580" lon="1.8999630">
<ele>403.067535</ele>
<time>2022-09-08T07:26:55.000Z</time>
</trkpt>
<trkpt lat="41.9401670" lon="1.8999850">
<ele>403.616150</ele>
<time>2022-09-08T07:26:56.003Z</time>
</trkpt>
<trkpt lat="41.9401760" lon="1.9000070">
<ele>404.164795</ele>
<time>2022-09-08T07:26:56.996Z</time>
</trkpt>
<trkpt lat="41.9402080" lon="1.9000350">
<ele>404.439117</ele>
<time>2022-09-08T07:26:57.998Z</time>
</trkpt>
<trkpt lat="41.9402190" lon="1.9000520">
<ele>404.743927</ele>
<time>2022-09-08T07:26:59.001Z</time>
</trkpt>
<trkpt lat="41.9402280" lon="1.9000650">
<ele>405.018250</ele>
<time>2022-09-08T07:27:00.003Z</time>
</trkpt>
<trkpt lat="41.9402310" lon="1.9000780">
<ele>405.353516</ele>
<time>2022-09-08T07:27:00.996Z</time>
</trkpt>
<trkpt lat="41.9402430" lon="1.9000960">
<ele>405.688812</ele>
<time>2022-09-08T07:27:01.999Z</time>
</trkpt>
<trkpt lat="41.9402850" lon="1.9001200">
<ele>405.719269</ele>
<time>2022-09-08T07:27:03.001Z</time>
</trkpt>
<trkpt lat="41.9403100" lon="1.9001430">
<ele>405.932648</ele>
<time>2022-09-08T07:27:04.003Z</time>
</trkpt>
<trkpt lat="41.9403210" lon="1.9001660">
<ele>406.420319</ele>
<time>2022-09-08T07:27:04.997Z</time>
</trkpt>
<trkpt lat="41.9403310" lon="1.9001870">
<ele>406.877533</ele>
<time>2022-09-08T07:27:05.999Z</time>
</trkpt>
<trkpt lat="41.9403420" lon="1.9002060">
<ele>407.243286</ele>
<time>2022-09-08T07:27:07.001Z</time>
</trkpt>
<trkpt lat="41.9403550" lon="1.9002280">
<ele>407.670013</ele>
<time>2022-09-08T07:27:08.004Z</time>
</trkpt>
<trkpt lat="41.9403710" lon="1.9002390">
<ele>407.639526</ele>
<time>2022-09-08T07:27:08.997Z</time>
</trkpt>
<trkpt lat="41.9403840" lon="1.9002510">
<ele>407.791931</ele>
<time>2022-09-08T07:27:09.999Z</time>
</trkpt>
<trkpt lat="41.9404180" lon="1.9002660">
<ele>407.548065</ele>
<time>2022-09-08T07:27:11.002Z</time>
</trkpt>
<trkpt lat="41.9404510" lon="1.9002930">
<ele>407.456665</ele>
<time>2022-09-08T07:27:12.004Z</time>
</trkpt>
<trkpt lat="41.9404680" lon="1.9003070">
<ele>407.517609</ele>
<time>2022-09-08T07:27:12.997Z</time>
</trkpt>
<trkpt lat="41.9404860" lon="1.9003180">
<ele>407.365204</ele>
<time>2022-09-08T07:27:14.000Z</time>
</trkpt>
<trkpt lat="41.9405020" lon="1.9003270">
<ele>407.243286</ele>
<time>2022-09-08T07:27:15.002Z</time>
</trkpt>
<trkpt lat="41.9405140" lon="1.9003330">
<ele>407.151855</ele>
<time>2022-09-08T07:27:16.004Z</time>
</trkpt>
<trkpt lat="41.9405320" lon="1.9003430">
<ele>406.999451</ele>
<time>2022-09-08T07:27:16.998Z</time>
</trkpt>
<trkpt lat="41.9405510" lon="1.9003600">
<ele>407.029938</ele>
<time>2022-09-08T07:27:18.000Z</time>
</trkpt>
<trkpt lat="41.9405690" lon="1.9003790">
<ele>407.151855</ele>
<time>2022-09-08T07:27:19.002Z</time>
</trkpt>
<trkpt lat="41.9405870" lon="1.9003980">
<ele>407.334717</ele>
<time>2022-09-08T07:27:19.996Z</time>
</trkpt>
<trkpt lat="41.9406050" lon="1.9004150">
<ele>407.395660</ele>
<time>2022-09-08T07:27:20.998Z</time>
</trkpt>
<trkpt lat="41.9406200" lon="1.9004340">
<ele>407.548065</ele>
<time>2022-09-08T07:27:22.000Z</time>
</trkpt>
<trkpt lat="41.9406320" lon="1.9004560">
<ele>407.883331</ele>
<time>2022-09-08T07:27:23.003Z</time>
</trkpt>
<trkpt lat="41.9406420" lon="1.9004810">
<ele>408.249115</ele>
<time>2022-09-08T07:27:23.996Z</time>
</trkpt>
<trkpt lat="41.9406500" lon="1.9005020">
<ele>408.584412</ele>
<time>2022-09-08T07:27:24.998Z</time>
</trkpt>
<trkpt lat="41.9406590" lon="1.9005230">
<ele>408.919678</ele>
<time>2022-09-08T07:27:26.001Z</time>
</trkpt>
<trkpt lat="41.9406650" lon="1.9005410">
<ele>409.163513</ele>
<time>2022-09-08T07:27:27.003Z</time>
</trkpt>
<trkpt lat="41.9406720" lon="1.9005680">
<ele>409.620728</ele>
<time>2022-09-08T07:27:27.996Z</time>
</trkpt>
<trkpt lat="41.9406820" lon="1.9005950">
<ele>410.047455</ele>
<time>2022-09-08T07:27:28.999Z</time>
</trkpt>
<trkpt lat="41.9406890" lon="1.9006220">
<ele>410.443665</ele>
<time>2022-09-08T07:27:30.001Z</time>
</trkpt>
<trkpt lat="41.9406890" lon="1.9006500">
<ele>411.022797</ele>
<time>2022-09-08T07:27:31.003Z</time>
</trkpt>
<trkpt lat="41.9406880" lon="1.9006710">
<ele>411.449524</ele>
<time>2022-09-08T07:27:31.997Z</time>
</trkpt>
<trkpt lat="41.9406840" lon="1.9006970">
<ele>412.089600</ele>
<time>2022-09-08T07:27:32.999Z</time>
</trkpt>
<trkpt lat="41.9406780" lon="1.9007190">
<ele>412.699188</ele>
<time>2022-09-08T07:27:34.001Z</time>
</trkpt>
<trkpt lat="41.9406760" lon="1.9007420">
<ele>413.156403</ele>
<time>2022-09-08T07:27:35.004Z</time>
</trkpt>
<trkpt lat="41.9406740" lon="1.9007650">
<ele>413.674530</ele>
<time>2022-09-08T07:27:35.997Z</time>
</trkpt>
<trkpt lat="41.9406720" lon="1.9007870">
<ele>414.101257</ele>
<time>2022-09-08T07:27:36.999Z</time>
</trkpt>
<trkpt lat="41.9406720" lon="1.9008130">
<ele>414.588959</ele>
<time>2022-09-08T07:27:38.002Z</time>
</trkpt>
<trkpt lat="41.9406730" lon="1.9008430">
<ele>415.168060</ele>
<time>2022-09-08T07:27:39.004Z</time>
</trkpt>
<trkpt lat="41.9406710" lon="1.9008700">
<ele>415.747192</ele>
<time>2022-09-08T07:27:39.997Z</time>
</trkpt>
<trkpt lat="41.9406700" lon="1.9008890">
<ele>416.112946</ele>
<time>2022-09-08T07:27:41.000Z</time>
</trkpt>
<trkpt lat="41.9406700" lon="1.9009060">
<ele>416.417755</ele>
<time>2022-09-08T07:27:42.002Z</time>
</trkpt>
<trkpt lat="41.9406760" lon="1.9009360">
<ele>416.783539</ele>
<time>2022-09-08T07:27:43.004Z</time>
</trkpt>
<trkpt lat="41.9406870" lon="1.9009690">
<ele>417.210266</ele>
<time>2022-09-08T07:27:43.998Z</time>
</trkpt>
<trkpt lat="41.9406890" lon="1.9010130">
<ele>417.911285</ele>
<time>2022-09-08T07:27:45.000Z</time>
</trkpt>
<trkpt lat="41.9406830" lon="1.9010500">
<ele>418.764740</ele>
<time>2022-09-08T07:27:46.002Z</time>
</trkpt>
<trkpt lat="41.9406740" lon="1.9010880">
<ele>419.648651</ele>
<time>2022-09-08T07:27:46.996Z</time>
</trkpt>
<trkpt lat="41.9406660" lon="1.9011250">
<ele>420.563049</ele>
<time>2022-09-08T07:27:47.998Z</time>
</trkpt>
<trkpt lat="41.9406570" lon="1.9011650">
<ele>421.507935</ele>
<time>2022-09-08T07:27:49.000Z</time>
</trkpt>
<trkpt lat="41.9406490" lon="1.9012100">
<ele>422.696655</ele>
<time>2022-09-08T07:27:50.003Z</time>
</trkpt>
<trkpt lat="41.9406430" lon="1.9012550">
<ele>423.732941</ele>
<time>2022-09-08T07:27:50.996Z</time>
</trkpt>
<trkpt lat="41.9406410" lon="1.9012980">
<ele>424.830261</ele>
<time>2022-09-08T07:27:51.998Z</time>
</trkpt>
<trkpt lat="41.9406410" lon="1.9013400">
<ele>425.744659</ele>
<time>2022-09-08T07:27:53.001Z</time>
</trkpt>
<trkpt lat="41.9406390" lon="1.9013780">
<ele>426.567596</ele>
<time>2022-09-08T07:27:54.003Z</time>
</trkpt>
<trkpt lat="41.9406290" lon="1.9014200">
<ele>427.756317</ele>
<time>2022-09-08T07:27:54.996Z</time>
</trkpt>
<trkpt lat="41.9406240" lon="1.9014570">
<ele>428.609741</ele>
<time>2022-09-08T07:27:55.999Z</time>
</trkpt>
<trkpt lat="41.9406190" lon="1.9014950">
<ele>429.463196</ele>
<time>2022-09-08T07:27:57.001Z</time>
</trkpt>
<trkpt lat="41.9405880" lon="1.9015400">
<ele>431.291992</ele>
<time>2022-09-08T07:27:58.003Z</time>
</trkpt>
<trkpt lat="41.9405930" lon="1.9015870">
<ele>432.023529</ele>
<time>2022-09-08T07:27:58.997Z</time>
</trkpt>
<trkpt lat="41.9406000" lon="1.9016330">
<ele>432.572144</ele>
<time>2022-09-08T07:27:59.999Z</time>
</trkpt>
<trkpt lat="41.9405990" lon="1.9016700">
<ele>433.303680</ele>
<time>2022-09-08T07:28:01.001Z</time>
</trkpt>
<trkpt lat="41.9406040" lon="1.9017110">
<ele>433.699921</ele>
<time>2022-09-08T07:28:02.004Z</time>
</trkpt>
<trkpt lat="41.9405910" lon="1.9017670">
<ele>435.101990</ele>
<time>2022-09-08T07:28:02.997Z</time>
</trkpt>
<trkpt lat="41.9405810" lon="1.9018120">
<ele>436.016388</ele>
<time>2022-09-08T07:28:03.999Z</time>
</trkpt>
<trkpt lat="41.9405840" lon="1.9018510">
<ele>436.565063</ele>
<time>2022-09-08T07:28:05.002Z</time>
</trkpt>
<trkpt lat="41.9405960" lon="1.9018900">
<ele>436.504059</ele>
<time>2022-09-08T07:28:06.004Z</time>
</trkpt>
<trkpt lat="41.9405990" lon="1.9019250">
<ele>436.930786</ele>
<time>2022-09-08T07:28:06.997Z</time>
</trkpt>
<trkpt lat="41.9405950" lon="1.9019570">
<ele>437.448944</ele>
<time>2022-09-08T07:28:08.000Z</time>
</trkpt>
<trkpt lat="41.9406070" lon="1.9019880">
<ele>437.388000</ele>
<time>2022-09-08T07:28:09.002Z</time>
</trkpt>
<trkpt lat="41.9406050" lon="1.9020220">
<ele>437.753754</ele>
<time>2022-09-08T07:28:10.004Z</time>
</trkpt>
<trkpt lat="41.9405980" lon="1.9020480">
<ele>438.302399</ele>
<time>2022-09-08T07:28:10.998Z</time>
</trkpt>
<trkpt lat="41.9406100" lon="1.9020860">
<ele>438.271942</ele>
<time>2022-09-08T07:28:12.000Z</time>
</trkpt>
<trkpt lat="41.9406050" lon="1.9021150">
<ele>438.851044</ele>
<time>2022-09-08T07:28:13.002Z</time>
</trkpt>
<trkpt lat="41.9406110" lon="1.9021570">
<ele>439.125336</ele>
<time>2022-09-08T07:28:13.996Z</time>
</trkpt>
<trkpt lat="41.9406230" lon="1.9021970">
<ele>439.186340</ele>
<time>2022-09-08T07:28:14.998Z</time>
</trkpt>
<trkpt lat="41.9406270" lon="1.9022390">
<ele>439.521606</ele>
<time>2022-09-08T07:28:16.000Z</time>
</trkpt>
<trkpt lat="41.9406360" lon="1.9022760">
<ele>439.613068</ele>
<time>2022-09-08T07:28:17.003Z</time>
</trkpt>
<trkpt lat="41.9406410" lon="1.9023090">
<ele>439.795929</ele>
<time>2022-09-08T07:28:17.996Z</time>
</trkpt>
<trkpt lat="41.9406470" lon="1.9023370">
<ele>439.765442</ele>
<time>2022-09-08T07:28:18.998Z</time>
</trkpt>
<trkpt lat="41.9406440" lon="1.9023570">
<ele>440.070251</ele>
<time>2022-09-08T07:28:20.001Z</time>
</trkpt>
<trkpt lat="41.9406430" lon="1.9023820">
<ele>440.283600</ele>
<time>2022-09-08T07:28:21.003Z</time>
</trkpt>
<trkpt lat="41.9406630" lon="1.9024110">
<ele>439.765442</ele>
<time>2022-09-08T07:28:21.996Z</time>
</trkpt>
<trkpt lat="41.9406900" lon="1.9024520">
<ele>439.064392</ele>
<time>2022-09-08T07:28:22.999Z</time>
</trkpt>
<trkpt lat="41.9406750" lon="1.9024950">
<ele>439.887360</ele>
<time>2022-09-08T07:28:24.001Z</time>
</trkpt>
<trkpt lat="41.9406990" lon="1.9025440">
<ele>439.155853</ele>
<time>2022-09-08T07:28:25.003Z</time>
</trkpt>
<trkpt lat="41.9407000" lon="1.9025790">
<ele>439.308258</ele>
<time>2022-09-08T07:28:25.997Z</time>
</trkpt>
<trkpt lat="41.9407030" lon="1.9026120">
<ele>439.308258</ele>
<time>2022-09-08T07:28:26.999Z</time>
</trkpt>
<trkpt lat="41.9407120" lon="1.9026480">
<ele>439.155853</ele>
<time>2022-09-08T07:28:28.001Z</time>
</trkpt>
<trkpt lat="41.9407290" lon="1.9026900">
<ele>438.759613</ele>
<time>2022-09-08T07:28:29.004Z</time>
</trkpt>
<trkpt lat="41.9407470" lon="1.9027260">
<ele>438.210938</ele>
<time>2022-09-08T07:28:29.997Z</time>
</trkpt>
<trkpt lat="41.9407460" lon="1.9027600">
<ele>438.271942</ele>
<time>2022-09-08T07:28:30.999Z</time>
</trkpt>
<trkpt lat="41.9407490" lon="1.9028020">
<ele>438.210938</ele>
<time>2022-09-08T07:28:32.002Z</time>
</trkpt>
<trkpt lat="41.9407520" lon="1.9028350">
<ele>438.241455</ele>
<time>2022-09-08T07:28:33.004Z</time>
</trkpt>
<trkpt lat="41.9407530" lon="1.9028600">
<ele>438.119537</ele>
<time>2022-09-08T07:28:33.997Z</time>
</trkpt>
<trkpt lat="41.9407450" lon="1.9028810">
<ele>438.332886</ele>
<time>2022-09-08T07:28:35.000Z</time>
</trkpt>
<trkpt lat="41.9407460" lon="1.9029120">
<ele>438.332886</ele>
<time>2022-09-08T07:28:36.002Z</time>
</trkpt>
<trkpt lat="41.9407450" lon="1.9029450">
<ele>438.424316</ele>
<time>2022-09-08T07:28:37.004Z</time>
</trkpt>
<trkpt lat="41.9407310" lon="1.9029570">
<ele>438.881531</ele>
<time>2022-09-08T07:28:37.998Z</time>
</trkpt>
<trkpt lat="41.9407090" lon="1.9029580">
<ele>439.521606</ele>
<time>2022-09-08T07:28:39.000Z</time>
</trkpt>
<trkpt lat="41.9406970" lon="1.9029510">
<ele>439.826385</ele>
<time>2022-09-08T07:28:40.002Z</time>
</trkpt>
<trkpt lat="41.9406820" lon="1.9029390">
<ele>440.222656</ele>
<time>2022-09-08T07:28:40.996Z</time>
</trkpt>
<trkpt lat="41.9406700" lon="1.9029220">
<ele>440.496948</ele>
<time>2022-09-08T07:28:41.998Z</time>
</trkpt>
<trkpt lat="41.9406550" lon="1.9029000">
<ele>440.954132</ele>
<time>2022-09-08T07:28:43.000Z</time>
</trkpt>
<trkpt lat="41.9406420" lon="1.9028850">
<ele>441.319916</ele>
<time>2022-09-08T07:28:44.003Z</time>
</trkpt>
<trkpt lat="41.9406250" lon="1.9028670">
<ele>441.929535</ele>
<time>2022-09-08T07:28:44.996Z</time>
</trkpt>
<trkpt lat="41.9406060" lon="1.9028510">
<ele>442.508667</ele>
<time>2022-09-08T07:28:45.998Z</time>
</trkpt>
<trkpt lat="41.9405830" lon="1.9028360">
<ele>443.209686</ele>
<time>2022-09-08T07:28:47.001Z</time>
</trkpt>
<trkpt lat="41.9405680" lon="1.9028220">
<ele>443.697357</ele>
<time>2022-09-08T07:28:48.003Z</time>
</trkpt>
<trkpt lat="41.9405500" lon="1.9028130">
<ele>444.154541</ele>
<time>2022-09-08T07:28:48.996Z</time>
</trkpt>
<trkpt lat="41.9405270" lon="1.9028030">
<ele>444.825134</ele>
<time>2022-09-08T07:28:49.999Z</time>
</trkpt>
<trkpt lat="41.9405010" lon="1.9027950">
<ele>445.617615</ele>
<time>2022-09-08T07:28:51.001Z</time>
</trkpt>
<trkpt lat="41.9404710" lon="1.9027840">
<ele>446.501526</ele>
<time>2022-09-08T07:28:52.003Z</time>
</trkpt>
<trkpt lat="41.9404460" lon="1.9027710">
<ele>447.263519</ele>
<time>2022-09-08T07:28:52.997Z</time>
</trkpt>
<trkpt lat="41.9404250" lon="1.9027630">
<ele>447.812134</ele>
<time>2022-09-08T07:28:53.999Z</time>
</trkpt>
<trkpt lat="41.9404000" lon="1.9027530">
<ele>448.604645</ele>
<time>2022-09-08T07:28:55.001Z</time>
</trkpt>
<trkpt lat="41.9403750" lon="1.9027450">
<ele>449.275208</ele>
<time>2022-09-08T07:28:56.004Z</time>
</trkpt>
<trkpt lat="41.9403500" lon="1.9027350">
<ele>450.037201</ele>
<time>2022-09-08T07:28:56.997Z</time>
</trkpt>
<trkpt lat="41.9403190" lon="1.9027260">
<ele>450.768738</ele>
<time>2022-09-08T07:28:57.999Z</time>
</trkpt>
<trkpt lat="41.9402960" lon="1.9027220">
<ele>451.286865</ele>
<time>2022-09-08T07:28:59.002Z</time>
</trkpt>
<trkpt lat="41.9402670" lon="1.9027170">
<ele>451.896484</ele>
<time>2022-09-08T07:29:00.004Z</time>
</trkpt>
<trkpt lat="41.9402400" lon="1.9027140">
<ele>452.384155</ele>
<time>2022-09-08T07:29:00.997Z</time>
</trkpt>
<trkpt lat="41.9402090" lon="1.9027180">
<ele>452.841339</ele>
<time>2022-09-08T07:29:02.000Z</time>
</trkpt>
<trkpt lat="41.9401820" lon="1.9027250">
<ele>453.207123</ele>
<time>2022-09-08T07:29:03.002Z</time>
</trkpt>
<trkpt lat="41.9401610" lon="1.9027310">
<ele>453.420471</ele>
<time>2022-09-08T07:29:04.004Z</time>
</trkpt>
<trkpt lat="41.9401360" lon="1.9027410">
<ele>453.664337</ele>
<time>2022-09-08T07:29:04.998Z</time>
</trkpt>
<trkpt lat="41.9401080" lon="1.9027530">
<ele>453.877686</ele>
<time>2022-09-08T07:29:06.000Z</time>
</trkpt>
<trkpt lat="41.9400810" lon="1.9027610">
<ele>454.091064</ele>
<time>2022-09-08T07:29:07.002Z</time>
</trkpt>
<trkpt lat="41.9400560" lon="1.9027670">
<ele>454.273926</ele>
<time>2022-09-08T07:29:07.996Z</time>
</trkpt>
<trkpt lat="41.9400370" lon="1.9027690">
<ele>454.426331</ele>
<time>2022-09-08T07:29:08.998Z</time>
</trkpt>
<trkpt lat="41.9400160" lon="1.9027680">
<ele>454.548248</ele>
<time>2022-09-08T07:29:10.000Z</time>
</trkpt>
<trkpt lat="41.9399960" lon="1.9027610">
<ele>454.761597</ele>
<time>2022-09-08T07:29:11.003Z</time>
</trkpt>
<trkpt lat="41.9399750" lon="1.9027490">
<ele>454.944458</ele>
<time>2022-09-08T07:29:11.996Z</time>
</trkpt>
<trkpt lat="41.9399630" lon="1.9027390">
<ele>455.096863</ele>
<time>2022-09-08T07:29:12.998Z</time>
</trkpt>
<trkpt lat="41.9399510" lon="1.9027240">
<ele>455.218811</ele>
<time>2022-09-08T07:29:14.001Z</time>
</trkpt>
<trkpt lat="41.9399420" lon="1.9027050">
<ele>455.401672</ele>
<time>2022-09-08T07:29:15.003Z</time>
</trkpt>
<trkpt lat="41.9399370" lon="1.9026830">
<ele>455.493134</ele>
<time>2022-09-08T07:29:15.996Z</time>
</trkpt>
<trkpt lat="41.9399310" lon="1.9026600">
<ele>455.615051</ele>
<time>2022-09-08T07:29:16.999Z</time>
</trkpt>
<trkpt lat="41.9399280" lon="1.9026380">
<ele>455.706482</ele>
<time>2022-09-08T07:29:18.001Z</time>
</trkpt>
<trkpt lat="41.9399340" lon="1.9026190">
<ele>455.706482</ele>
<time>2022-09-08T07:29:19.003Z</time>
</trkpt>
<trkpt lat="41.9399440" lon="1.9026090">
<ele>455.675995</ele>
<time>2022-09-08T07:29:19.997Z</time>
</trkpt>
<trkpt lat="41.9399580" lon="1.9025980">
<ele>455.615051</ele>
<time>2022-09-08T07:29:20.999Z</time>
</trkpt>
<trkpt lat="41.9399760" lon="1.9025850">
<ele>455.554077</ele>
<time>2022-09-08T07:29:22.001Z</time>
</trkpt>
<trkpt lat="41.9399900" lon="1.9025750">
<ele>455.462646</ele>
<time>2022-09-08T07:29:23.004Z</time>
</trkpt>
<trkpt lat="41.9400020" lon="1.9025640">
<ele>455.401672</ele>
<time>2022-09-08T07:29:23.997Z</time>
</trkpt>
<trkpt lat="41.9400220" lon="1.9025510">
<ele>455.279755</ele>
<time>2022-09-08T07:29:24.999Z</time>
</trkpt>
<trkpt lat="41.9400500" lon="1.9025330">
<ele>455.096863</ele>
<time>2022-09-08T07:29:26.002Z</time>
</trkpt>
<trkpt lat="41.9400720" lon="1.9025180">
<ele>454.914001</ele>
<time>2022-09-08T07:29:27.004Z</time>
</trkpt>
<trkpt lat="41.9400870" lon="1.9024990">
<ele>454.792084</ele>
<time>2022-09-08T07:29:27.997Z</time>
</trkpt>
<trkpt lat="41.9400980" lon="1.9024800">
<ele>454.639679</ele>
<time>2022-09-08T07:29:29.000Z</time>
</trkpt>
<trkpt lat="41.9401100" lon="1.9024560">
<ele>454.487274</ele>
<time>2022-09-08T07:29:30.002Z</time>
</trkpt>
<trkpt lat="41.9401300" lon="1.9024300">
<ele>454.243469</ele>
<time>2022-09-08T07:29:31.004Z</time>
</trkpt>
<trkpt lat="41.9401500" lon="1.9024080">
<ele>453.908142</ele>
<time>2022-09-08T07:29:31.998Z</time>
</trkpt>
<trkpt lat="41.9401620" lon="1.9023930">
<ele>453.694794</ele>
<time>2022-09-08T07:29:33.000Z</time>
</trkpt>
<trkpt lat="41.9401700" lon="1.9023680">
<ele>453.481445</ele>
<time>2022-09-08T07:29:34.002Z</time>
</trkpt>
<trkpt lat="41.9401740" lon="1.9023450">
<ele>453.329041</ele>
<time>2022-09-08T07:29:34.996Z</time>
</trkpt>
<trkpt lat="41.9401770" lon="1.9023210">
<ele>453.115662</ele>
<time>2022-09-08T07:29:35.998Z</time>
</trkpt>
<trkpt lat="41.9401820" lon="1.9022950">
<ele>452.902313</ele>
<time>2022-09-08T07:29:37.000Z</time>
</trkpt>
<trkpt lat="41.9401860" lon="1.9022710">
<ele>452.658478</ele>
<time>2022-09-08T07:29:38.003Z</time>
</trkpt>
<trkpt lat="41.9401880" lon="1.9022480">
<ele>452.414642</ele>
<time>2022-09-08T07:29:38.996Z</time>
</trkpt>
<trkpt lat="41.9401930" lon="1.9022220">
<ele>452.109863</ele>
<time>2022-09-08T07:29:39.998Z</time>
</trkpt>
<trkpt lat="41.9401950" lon="1.9021910">
<ele>451.805054</ele>
<time>2022-09-08T07:29:41.001Z</time>
</trkpt>
<trkpt lat="41.9401920" lon="1.9021640">
<ele>451.500244</ele>
<time>2022-09-08T07:29:42.003Z</time>
</trkpt>
<trkpt lat="41.9401900" lon="1.9021410">
<ele>451.256409</ele>
<time>2022-09-08T07:29:42.996Z</time>
</trkpt>
<trkpt lat="41.9401880" lon="1.9021090">
<ele>450.860138</ele>
<time>2022-09-08T07:29:43.999Z</time>
</trkpt>
<trkpt lat="41.9401840" lon="1.9020700">
<ele>450.463928</ele>
<time>2022-09-08T07:29:45.001Z</time>
</trkpt>
<trkpt lat="41.9401790" lon="1.9020370">
<ele>450.281067</ele>
<time>2022-09-08T07:29:46.003Z</time>
</trkpt>
<trkpt lat="41.9401830" lon="1.9020050">
<ele>449.945740</ele>
<time>2022-09-08T07:29:46.997Z</time>
</trkpt>
<trkpt lat="41.9401820" lon="1.9019710">
<ele>449.610474</ele>
<time>2022-09-08T07:29:47.999Z</time>
</trkpt>
<trkpt lat="41.9401690" lon="1.9019410">
<ele>449.458069</ele>
<time>2022-09-08T07:29:49.001Z</time>
</trkpt>
<trkpt lat="41.9401470" lon="1.9019230">
<ele>449.579987</ele>
<time>2022-09-08T07:29:50.004Z</time>
</trkpt>
<trkpt lat="41.9401190" lon="1.9019240">
<ele>449.976257</ele>
<time>2022-09-08T07:29:50.997Z</time>
</trkpt>
<trkpt lat="41.9400890" lon="1.9019470">
<ele>450.585846</ele>
<time>2022-09-08T07:29:51.999Z</time>
</trkpt>
<trkpt lat="41.9400610" lon="1.9019720">
<ele>451.164948</ele>
<time>2022-09-08T07:29:53.002Z</time>
</trkpt>
<trkpt lat="41.9400400" lon="1.9020020">
<ele>451.622131</ele>
<time>2022-09-08T07:29:54.004Z</time>
</trkpt>
<trkpt lat="41.9400220" lon="1.9020350">
<ele>452.048859</ele>
<time>2022-09-08T07:29:54.997Z</time>
</trkpt>
<trkpt lat="41.9400030" lon="1.9020660">
<ele>452.445129</ele>
<time>2022-09-08T07:29:56.000Z</time>
</trkpt>
<trkpt lat="41.9399740" lon="1.9020910">
<ele>452.841339</ele>
<time>2022-09-08T07:29:57.002Z</time>
</trkpt>
<trkpt lat="41.9399380" lon="1.9021060">
<ele>453.268066</ele>
<time>2022-09-08T07:29:58.004Z</time>
</trkpt>
<trkpt lat="41.9399060" lon="1.9021200">
<ele>453.603333</ele>
<time>2022-09-08T07:29:58.998Z</time>
</trkpt>
<trkpt lat="41.9398750" lon="1.9021400">
<ele>453.999603</ele>
<time>2022-09-08T07:30:00.000Z</time>
</trkpt>
<trkpt lat="41.9398490" lon="1.9021320">
<ele>454.060547</ele>
<time>2022-09-08T07:30:01.002Z</time>
</trkpt>
<trkpt lat="41.9398210" lon="1.9021160">
<ele>454.091064</ele>
<time>2022-09-08T07:30:01.996Z</time>
</trkpt>
<trkpt lat="41.9398000" lon="1.9020970">
<ele>453.999603</ele>
<time>2022-09-08T07:30:02.998Z</time>
</trkpt>
<trkpt lat="41.9397730" lon="1.9020730">
<ele>453.999603</ele>
<time>2022-09-08T07:30:04.000Z</time>
</trkpt>
<trkpt lat="41.9397490" lon="1.9020480">
<ele>454.060547</ele>
<time>2022-09-08T07:30:05.003Z</time>
</trkpt>
<trkpt lat="41.9397280" lon="1.9020270">
<ele>454.152008</ele>
<time>2022-09-08T07:30:05.996Z</time>
</trkpt>
<trkpt lat="41.9397060" lon="1.9020100">
<ele>454.273926</ele>
<time>2022-09-08T07:30:06.998Z</time>
</trkpt>
<trkpt lat="41.9396850" lon="1.9019990">
<ele>454.395844</ele>
<time>2022-09-08T07:30:08.001Z</time>
</trkpt>
<trkpt lat="41.9396300" lon="1.9019890">
<ele>455.005463</ele>
<time>2022-09-08T07:30:09.003Z</time>
</trkpt>
<trkpt lat="41.9395920" lon="1.9019990">
<ele>455.584534</ele>
<time>2022-09-08T07:30:09.996Z</time>
</trkpt>
<trkpt lat="41.9395590" lon="1.9020130">
<ele>456.346558</ele>
<time>2022-09-08T07:30:10.999Z</time>
</trkpt>
<trkpt lat="41.9395290" lon="1.9020320">
<ele>457.230469</ele>
<time>2022-09-08T07:30:12.001Z</time>
</trkpt>
<trkpt lat="41.9395050" lon="1.9020430">
<ele>457.870544</ele>
<time>2022-09-08T07:30:13.003Z</time>
</trkpt>
<trkpt lat="41.9395020" lon="1.9020680">
<ele>458.053467</ele>
<time>2022-09-08T07:30:13.997Z</time>
</trkpt>
<trkpt lat="41.9394900" lon="1.9020980">
<ele>458.510651</ele>
<time>2022-09-08T07:30:14.999Z</time>
</trkpt>
<trkpt lat="41.9394700" lon="1.9021340">
<ele>459.425049</ele>
<time>2022-09-08T07:30:16.001Z</time>
</trkpt>
<trkpt lat="41.9394430" lon="1.9021770">
<ele>460.430878</ele>
<time>2022-09-08T07:30:17.004Z</time>
</trkpt>
<trkpt lat="41.9394160" lon="1.9022240">
<ele>461.467194</ele>
<time>2022-09-08T07:30:17.997Z</time>
</trkpt>
<trkpt lat="41.9393940" lon="1.9022700">
<ele>462.229187</ele>
<time>2022-09-08T07:30:18.999Z</time>
</trkpt>
<trkpt lat="41.9393560" lon="1.9023400">
<ele>463.570313</ele>
<time>2022-09-08T07:30:20.002Z</time>
</trkpt>
<trkpt lat="41.9393350" lon="1.9024070">
<ele>464.393280</ele>
<time>2022-09-08T07:30:21.004Z</time>
</trkpt>
<trkpt lat="41.9393010" lon="1.9024600">
<ele>465.429596</ele>
<time>2022-09-08T07:30:21.997Z</time>
</trkpt>
<trkpt lat="41.9392810" lon="1.9025170">
<ele>465.947754</ele>
<time>2022-09-08T07:30:23.000Z</time>
</trkpt>
<trkpt lat="41.9392710" lon="1.9025750">
<ele>466.222076</ele>
<time>2022-09-08T07:30:24.002Z</time>
</trkpt>
<trkpt lat="41.9392650" lon="1.9026450">
<ele>466.161133</ele>
<time>2022-09-08T07:30:25.004Z</time>
</trkpt>
<trkpt lat="41.9392640" lon="1.9026890">
<ele>466.100159</ele>
<time>2022-09-08T07:30:25.998Z</time>
</trkpt>
<trkpt lat="41.9392580" lon="1.9027400">
<ele>465.947754</ele>
<time>2022-09-08T07:30:27.000Z</time>
</trkpt>
<trkpt lat="41.9392460" lon="1.9027840">
<ele>465.947754</ele>
<time>2022-09-08T07:30:28.002Z</time>
</trkpt>
<trkpt lat="41.9392320" lon="1.9028290">
<ele>466.008728</ele>
<time>2022-09-08T07:30:28.996Z</time>
</trkpt>
<trkpt lat="41.9392080" lon="1.9028760">
<ele>466.130646</ele>
<time>2022-09-08T07:30:29.998Z</time>
</trkpt>
<trkpt lat="41.9391780" lon="1.9029110">
<ele>466.465942</ele>
<time>2022-09-08T07:30:31.000Z</time>
</trkpt>
<trkpt lat="41.9391450" lon="1.9029340">
<ele>467.045044</ele>
<time>2022-09-08T07:30:32.003Z</time>
</trkpt>
<trkpt lat="41.9391040" lon="1.9029530">
<ele>467.807068</ele>
<time>2022-09-08T07:30:32.996Z</time>
</trkpt>
<trkpt lat="41.9390610" lon="1.9029640">
<ele>468.569061</ele>
<time>2022-09-08T07:30:33.998Z</time>
</trkpt>
<trkpt lat="41.9390120" lon="1.9029730">
<ele>469.483459</ele>
<time>2022-09-08T07:30:35.001Z</time>
</trkpt>
<trkpt lat="41.9389640" lon="1.9029850">
<ele>470.214935</ele>
<time>2022-09-08T07:30:36.003Z</time>
</trkpt>
<trkpt lat="41.9389210" lon="1.9030040">
<ele>470.763611</ele>
<time>2022-09-08T07:30:36.996Z</time>
</trkpt>
<trkpt lat="41.9388600" lon="1.9030420">
<ele>471.403687</ele>
<time>2022-09-08T07:30:37.999Z</time>
</trkpt>
<trkpt lat="41.9388080" lon="1.9030920">
<ele>471.678009</ele>
<time>2022-09-08T07:30:39.001Z</time>
</trkpt>
<trkpt lat="41.9387740" lon="1.9031520">
<ele>471.556061</ele>
<time>2022-09-08T07:30:40.003Z</time>
</trkpt>
<trkpt lat="41.9387670" lon="1.9032310">
<ele>470.824554</ele>
<time>2022-09-08T07:30:40.997Z</time>
</trkpt>
<trkpt lat="41.9387660" lon="1.9032830">
<ele>470.245453</ele>
<time>2022-09-08T07:30:41.999Z</time>
</trkpt>
<trkpt lat="41.9387530" lon="1.9033430">
<ele>469.879669</ele>
<time>2022-09-08T07:30:43.001Z</time>
</trkpt>
<trkpt lat="41.9387330" lon="1.9033940">
<ele>469.727264</ele>
<time>2022-09-08T07:30:44.004Z</time>
</trkpt>
<trkpt lat="41.9387160" lon="1.9034470">
<ele>469.544403</ele>
<time>2022-09-08T07:30:44.997Z</time>
</trkpt>
<trkpt lat="41.9386960" lon="1.9034940">
<ele>469.544403</ele>
<time>2022-09-08T07:30:45.999Z</time>
</trkpt>
<trkpt lat="41.9386750" lon="1.9035330">
<ele>469.757751</ele>
<time>2022-09-08T07:30:47.002Z</time>
</trkpt>
<trkpt lat="41.9386410" lon="1.9035750">
<ele>470.275940</ele>
<time>2022-09-08T07:30:48.004Z</time>
</trkpt>
<trkpt lat="41.9386080" lon="1.9036200">
<ele>470.855042</ele>
<time>2022-09-08T07:30:48.997Z</time>
</trkpt>
<trkpt lat="41.9385570" lon="1.9036740">
<ele>471.921844</ele>
<time>2022-09-08T07:30:50.000Z</time>
</trkpt>
<trkpt lat="41.9385180" lon="1.9037140">
<ele>472.866730</ele>
<time>2022-09-08T07:30:51.002Z</time>
</trkpt>
<trkpt lat="41.9384900" lon="1.9037500">
<ele>473.567749</ele>
<time>2022-09-08T07:30:52.004Z</time>
</trkpt>
<trkpt lat="41.9384610" lon="1.9037990">
<ele>474.390717</ele>
<time>2022-09-08T07:30:52.998Z</time>
</trkpt>
<trkpt lat="41.9384460" lon="1.9038770">
<ele>474.847931</ele>
<time>2022-09-08T07:30:54.000Z</time>
</trkpt>
<trkpt lat="41.9384460" lon="1.9039500">
<ele>474.908875</ele>
<time>2022-09-08T07:30:55.002Z</time>
</trkpt>
<trkpt lat="41.9384570" lon="1.9040210">
<ele>474.573608</ele>
<time>2022-09-08T07:30:55.996Z</time>
</trkpt>
<trkpt lat="41.9384690" lon="1.9040930">
<ele>474.207855</ele>
<time>2022-09-08T07:30:56.998Z</time>
</trkpt>
<trkpt lat="41.9384800" lon="1.9041560">
<ele>473.872559</ele>
<time>2022-09-08T07:30:58.000Z</time>
</trkpt>
<trkpt lat="41.9384870" lon="1.9042390">
<ele>473.689667</ele>
<time>2022-09-08T07:30:59.003Z</time>
</trkpt>
<trkpt lat="41.9384920" lon="1.9043040">
<ele>473.659210</ele>
<time>2022-09-08T07:30:59.996Z</time>
</trkpt>
<trkpt lat="41.9384980" lon="1.9043640">
<ele>473.476318</ele>
<time>2022-09-08T07:31:00.998Z</time>
</trkpt>
<trkpt lat="41.9384990" lon="1.9044110">
<ele>473.598267</ele>
<time>2022-09-08T07:31:02.001Z</time>
</trkpt>
<trkpt lat="41.9385240" lon="1.9044680">
<ele>472.836243</ele>
<time>2022-09-08T07:31:03.003Z</time>
</trkpt>
<trkpt lat="41.9385560" lon="1.9045380">
<ele>471.647522</ele>
<time>2022-09-08T07:31:03.996Z</time>
</trkpt>
<trkpt lat="41.9385820" lon="1.9045850">
<ele>470.733124</ele>
<time>2022-09-08T07:31:04.999Z</time>
</trkpt>
<trkpt lat="41.9385970" lon="1.9046310">
<ele>470.275940</ele>
<time>2022-09-08T07:31:06.001Z</time>
</trkpt>
<trkpt lat="41.9386230" lon="1.9046690">
<ele>469.513916</ele>
<time>2022-09-08T07:31:07.003Z</time>
</trkpt>
<trkpt lat="41.9386550" lon="1.9047170">
<ele>468.355682</ele>
<time>2022-09-08T07:31:07.997Z</time>
</trkpt>
<trkpt lat="41.9386850" lon="1.9047600">
<ele>467.349854</ele>
<time>2022-09-08T07:31:08.999Z</time>
</trkpt>
<trkpt lat="41.9387060" lon="1.9047980">
<ele>466.801208</ele>
<time>2022-09-08T07:31:10.001Z</time>
</trkpt>
<trkpt lat="41.9387200" lon="1.9048330">
<ele>466.404938</ele>
<time>2022-09-08T07:31:11.004Z</time>
</trkpt>
<trkpt lat="41.9387410" lon="1.9048640">
<ele>465.856323</ele>
<time>2022-09-08T07:31:11.997Z</time>
</trkpt>
<trkpt lat="41.9387510" lon="1.9048950">
<ele>465.642944</ele>
<time>2022-09-08T07:31:12.999Z</time>
</trkpt>
<trkpt lat="41.9387540" lon="1.9049330">
<ele>465.764862</ele>
<time>2022-09-08T07:31:14.002Z</time>
</trkpt>
<trkpt lat="41.9387620" lon="1.9049640">
<ele>465.703918</ele>
<time>2022-09-08T07:31:15.004Z</time>
</trkpt>
<trkpt lat="41.9387610" lon="1.9049930">
<ele>465.917267</ele>
<time>2022-09-08T07:31:15.997Z</time>
</trkpt>
<trkpt lat="41.9387520" lon="1.9050190">
<ele>466.435455</ele>
<time>2022-09-08T07:31:17.000Z</time>
</trkpt>
<trkpt lat="41.9387350" lon="1.9050360">
<ele>467.075531</ele>
<time>2022-09-08T07:31:18.002Z</time>
</trkpt>
<trkpt lat="41.9387150" lon="1.9050460">
<ele>467.837524</ele>
<time>2022-09-08T07:31:19.004Z</time>
</trkpt>
<trkpt lat="41.9386920" lon="1.9050470">
<ele>468.843353</ele>
<time>2022-09-08T07:31:19.998Z</time>
</trkpt>
<trkpt lat="41.9386720" lon="1.9050440">
<ele>469.544403</ele>
<time>2022-09-08T07:31:21.000Z</time>
</trkpt>
<trkpt lat="41.9386470" lon="1.9050380">
<ele>470.397858</ele>
<time>2022-09-08T07:31:22.002Z</time>
</trkpt>
<trkpt lat="41.9386260" lon="1.9050350">
<ele>471.281738</ele>
<time>2022-09-08T07:31:22.996Z</time>
</trkpt>
<trkpt lat="41.9385990" lon="1.9050320">
<ele>472.348541</ele>
<time>2022-09-08T07:31:23.998Z</time>
</trkpt>
<trkpt lat="41.9385810" lon="1.9050290">
<ele>473.080078</ele>
<time>2022-09-08T07:31:25.000Z</time>
</trkpt>
<trkpt lat="41.9385550" lon="1.9050320">
<ele>474.024933</ele>
<time>2022-09-08T07:31:26.003Z</time>
</trkpt>
<trkpt lat="41.9385400" lon="1.9050380">
<ele>474.665070</ele>
<time>2022-09-08T07:31:26.996Z</time>
</trkpt>
<trkpt lat="41.9385170" lon="1.9050470">
<ele>475.640411</ele>
<time>2022-09-08T07:31:27.998Z</time>
</trkpt>
<trkpt lat="41.9384910" lon="1.9050580">
<ele>476.768158</ele>
<time>2022-09-08T07:31:29.001Z</time>
</trkpt>
<trkpt lat="41.9384560" lon="1.9050720">
<ele>478.231201</ele>
<time>2022-09-08T07:31:30.003Z</time>
</trkpt>
<trkpt lat="41.9384330" lon="1.9050830">
<ele>479.206543</ele>
<time>2022-09-08T07:31:30.996Z</time>
</trkpt>
<trkpt lat="41.9384090" lon="1.9050920">
<ele>480.303864</ele>
<time>2022-09-08T07:31:31.999Z</time>
</trkpt>
<trkpt lat="41.9383880" lon="1.9050930">
<ele>481.065857</ele>
<time>2022-09-08T07:31:33.001Z</time>
</trkpt>
<trkpt lat="41.9383640" lon="1.9050950">
<ele>482.132660</ele>
<time>2022-09-08T07:31:34.003Z</time>
</trkpt>
<trkpt lat="41.9383490" lon="1.9051010">
<ele>482.620331</ele>
<time>2022-09-08T07:31:34.997Z</time>
</trkpt>
<trkpt lat="41.9383340" lon="1.9051070">
<ele>483.229919</ele>
<time>2022-09-08T07:31:35.999Z</time>
</trkpt>
<trkpt lat="41.9383180" lon="1.9051120">
<ele>483.991913</ele>
<time>2022-09-08T07:31:37.001Z</time>
</trkpt>
<trkpt lat="41.9383040" lon="1.9051180">
<ele>484.449127</ele>
<time>2022-09-08T07:31:38.004Z</time>
</trkpt>
<trkpt lat="41.9382940" lon="1.9051310">
<ele>484.906342</ele>
<time>2022-09-08T07:31:38.997Z</time>
</trkpt>
<trkpt lat="41.9382770" lon="1.9051430">
<ele>485.515930</ele>
<time>2022-09-08T07:31:39.999Z</time>
</trkpt>
<trkpt lat="41.9382660" lon="1.9051480">
<ele>485.973114</ele>
<time>2022-09-08T07:31:41.002Z</time>
</trkpt>
<trkpt lat="41.9382540" lon="1.9051540">
<ele>486.399841</ele>
<time>2022-09-08T07:31:42.004Z</time>
</trkpt>
<trkpt lat="41.9382430" lon="1.9051560">
<ele>486.826538</ele>
<time>2022-09-08T07:31:42.997Z</time>
</trkpt>
<trkpt lat="41.9382380" lon="1.9051560">
<ele>487.100861</ele>
<time>2022-09-08T07:31:44.000Z</time>
</trkpt>
<trkpt lat="41.9382380" lon="1.9051560">
<ele>487.100861</ele>
<time>2022-09-08T07:31:45.002Z</time>
</trkpt>
<trkpt lat="41.9382380" lon="1.9051560">
<ele>487.100861</ele>
<time>2022-09-08T07:31:46.004Z</time>
</trkpt>
<trkpt lat="41.9381360" lon="1.9049650">
<ele>489.966003</ele>
<time>2022-09-08T07:32:13.998Z</time>
</trkpt>
<trkpt lat="41.9381260" lon="1.9049360">
<ele>490.209869</ele>
<time>2022-09-08T07:32:15.000Z</time>
</trkpt>
<trkpt lat="41.9381190" lon="1.9049110">
<ele>490.331757</ele>
<time>2022-09-08T07:32:16.002Z</time>
</trkpt>
<trkpt lat="41.9381140" lon="1.9048910">
<ele>490.331757</ele>
<time>2022-09-08T07:32:16.996Z</time>
</trkpt>
<trkpt lat="41.9381090" lon="1.9048720">
<ele>490.362244</ele>
<time>2022-09-08T07:32:17.998Z</time>
</trkpt>
<trkpt lat="41.9380990" lon="1.9048550">
<ele>490.606079</ele>
<time>2022-09-08T07:32:19.000Z</time>
</trkpt>
<trkpt lat="41.9380900" lon="1.9048380">
<ele>490.727997</ele>
<time>2022-09-08T07:32:20.003Z</time>
</trkpt>
<trkpt lat="41.9380810" lon="1.9048210">
<ele>490.971863</ele>
<time>2022-09-08T07:32:20.996Z</time>
</trkpt>
<trkpt lat="41.9380720" lon="1.9048020">
<ele>491.063263</ele>
<time>2022-09-08T07:32:21.998Z</time>
</trkpt>
<trkpt lat="41.9380610" lon="1.9047790">
<ele>491.246155</ele>
<time>2022-09-08T07:32:23.001Z</time>
</trkpt>
<trkpt lat="41.9380510" lon="1.9047580">
<ele>491.429047</ele>
<time>2022-09-08T07:32:24.003Z</time>
</trkpt>
<trkpt lat="41.9380390" lon="1.9047290">
<ele>491.520477</ele>
<time>2022-09-08T07:32:24.996Z</time>
</trkpt>
<trkpt lat="41.9380280" lon="1.9047110">
<ele>491.672882</ele>
<time>2022-09-08T07:32:25.999Z</time>
</trkpt>
<trkpt lat="41.9380200" lon="1.9046970">
<ele>491.764313</ele>
<time>2022-09-08T07:32:27.001Z</time>
</trkpt>
<trkpt lat="41.9380170" lon="1.9046920">
<ele>491.733856</ele>
<time>2022-09-08T07:32:28.003Z</time>
</trkpt>
<trkpt lat="41.9380130" lon="1.9046890">
<ele>491.886261</ele>
<time>2022-09-08T07:32:28.997Z</time>
</trkpt>
<trkpt lat="41.9380120" lon="1.9046860">
<ele>491.855743</ele>
<time>2022-09-08T07:32:29.999Z</time>
</trkpt>
<trkpt lat="41.9380120" lon="1.9046860">
<ele>491.855743</ele>
<time>2022-09-08T07:32:31.001Z</time>
</trkpt>
<trkpt lat="41.9380120" lon="1.9046860">
<ele>491.855743</ele>
<time>2022-09-08T07:32:32.004Z</time>
</trkpt>
<trkpt lat="41.9379320" lon="1.9044010">
<ele>491.825287</ele>
<time>2022-09-08T07:32:50.001Z</time>
</trkpt>
<trkpt lat="41.9379250" lon="1.9043580">
<ele>491.764313</ele>
<time>2022-09-08T07:32:51.003Z</time>
</trkpt>
<trkpt lat="41.9379180" lon="1.9043290">
<ele>491.672882</ele>
<time>2022-09-08T07:32:51.996Z</time>
</trkpt>
<trkpt lat="41.9379120" lon="1.9042990">
<ele>491.672882</ele>
<time>2022-09-08T07:32:52.999Z</time>
</trkpt>
<trkpt lat="41.9378820" lon="1.9042580">
<ele>492.191040</ele>
<time>2022-09-08T07:32:54.001Z</time>
</trkpt>
<trkpt lat="41.9378690" lon="1.9042070">
<ele>492.130066</ele>
<time>2022-09-08T07:32:55.003Z</time>
</trkpt>
<trkpt lat="41.9378650" lon="1.9041380">
<ele>491.703339</ele>
<time>2022-09-08T07:32:55.997Z</time>
</trkpt>
<trkpt lat="41.9378480" lon="1.9040830">
<ele>491.611938</ele>
<time>2022-09-08T07:32:56.999Z</time>
</trkpt>
<trkpt lat="41.9378460" lon="1.9040290">
<ele>491.093750</ele>
<time>2022-09-08T07:32:58.001Z</time>
</trkpt>
<trkpt lat="41.9378530" lon="1.9039890">
<ele>490.545135</ele>
<time>2022-09-08T07:32:59.004Z</time>
</trkpt>
<trkpt lat="41.9378530" lon="1.9039160">
<ele>489.661194</ele>
<time>2022-09-08T07:32:59.997Z</time>
</trkpt>
<trkpt lat="41.9378570" lon="1.9038660">
<ele>488.929688</ele>
<time>2022-09-08T07:33:00.999Z</time>
</trkpt>
<trkpt lat="41.9378590" lon="1.9038260">
<ele>488.350555</ele>
<time>2022-09-08T07:33:02.002Z</time>
</trkpt>
<trkpt lat="41.9378640" lon="1.9037740">
<ele>487.436157</ele>
<time>2022-09-08T07:33:03.004Z</time>
</trkpt>
<trkpt lat="41.9378580" lon="1.9037290">
<ele>486.735138</ele>
<time>2022-09-08T07:33:03.997Z</time>
</trkpt>
<trkpt lat="41.9378670" lon="1.9036720">
<ele>485.576874</ele>
<time>2022-09-08T07:33:05.000Z</time>
</trkpt>
<trkpt lat="41.9378780" lon="1.9036100">
<ele>484.266266</ele>
<time>2022-09-08T07:33:06.002Z</time>
</trkpt>
<trkpt lat="41.9378880" lon="1.9035680">
<ele>483.290863</ele>
<time>2022-09-08T07:33:07.004Z</time>
</trkpt>
<trkpt lat="41.9379020" lon="1.9035120">
<ele>482.041199</ele>
<time>2022-09-08T07:33:07.998Z</time>
</trkpt>
<trkpt lat="41.9379160" lon="1.9034550">
<ele>480.761047</ele>
<time>2022-09-08T07:33:09.000Z</time>
</trkpt>
<trkpt lat="41.9379350" lon="1.9034060">
<ele>479.724731</ele>
<time>2022-09-08T07:33:10.002Z</time>
</trkpt>
<trkpt lat="41.9379530" lon="1.9033700">
<ele>478.993195</ele>
<time>2022-09-08T07:33:10.996Z</time>
</trkpt>
<trkpt lat="41.9379650" lon="1.9033490">
<ele>478.566467</ele>
<time>2022-09-08T07:33:11.998Z</time>
</trkpt>
<trkpt lat="41.9379750" lon="1.9033380">
<ele>478.322662</ele>
<time>2022-09-08T07:33:13.000Z</time>
</trkpt>
<trkpt lat="41.9379830" lon="1.9033340">
<ele>478.231201</ele>
<time>2022-09-08T07:33:14.003Z</time>
</trkpt>
<trkpt lat="41.9379890" lon="1.9033290">
<ele>478.139740</ele>
<time>2022-09-08T07:33:14.996Z</time>
</trkpt>
<trkpt lat="41.9379870" lon="1.9033140">
<ele>477.895935</ele>
<time>2022-09-08T07:33:15.998Z</time>
</trkpt>
<trkpt lat="41.9379830" lon="1.9033040">
<ele>477.713043</ele>
<time>2022-09-08T07:33:17.001Z</time>
</trkpt>
<trkpt lat="41.9379800" lon="1.9032920">
<ele>477.530151</ele>
<time>2022-09-08T07:33:18.003Z</time>
</trkpt>
<trkpt lat="41.9379770" lon="1.9032770">
<ele>477.255859</ele>
<time>2022-09-08T07:33:18.996Z</time>
</trkpt>
<trkpt lat="41.9379760" lon="1.9032650">
<ele>477.072937</ele>
<time>2022-09-08T07:33:19.999Z</time>
</trkpt>
<trkpt lat="41.9379720" lon="1.9032500">
<ele>476.798645</ele>
<time>2022-09-08T07:33:21.001Z</time>
</trkpt>
<trkpt lat="41.9379640" lon="1.9032290">
<ele>476.432861</ele>
<time>2022-09-08T07:33:22.003Z</time>
</trkpt>
<trkpt lat="41.9379530" lon="1.9032080">
<ele>476.067139</ele>
<time>2022-09-08T07:33:22.997Z</time>
</trkpt>
<trkpt lat="41.9379530" lon="1.9032080">
<ele>476.067139</ele>
<time>2022-09-08T07:33:23.999Z</time>
</trkpt>
<trkpt lat="41.9379080" lon="1.9031860">
<ele>475.670868</ele>
<time>2022-09-08T07:33:25.001Z</time>
</trkpt>
<trkpt lat="41.9378840" lon="1.9031980">
<ele>476.006134</ele>
<time>2022-09-08T07:33:26.004Z</time>
</trkpt>
<trkpt lat="41.9378630" lon="1.9032210">
<ele>476.585266</ele>
<time>2022-09-08T07:33:26.997Z</time>
</trkpt>
<trkpt lat="41.9378420" lon="1.9032530">
<ele>477.377747</ele>
<time>2022-09-08T07:33:27.999Z</time>
</trkpt>
<trkpt lat="41.9378280" lon="1.9032890">
<ele>478.231201</ele>
<time>2022-09-08T07:33:29.002Z</time>
</trkpt>
<trkpt lat="41.9378160" lon="1.9033260">
<ele>479.115112</ele>
<time>2022-09-08T07:33:30.004Z</time>
</trkpt>
<trkpt lat="41.9378040" lon="1.9033670">
<ele>480.090485</ele>
<time>2022-09-08T07:33:30.997Z</time>
</trkpt>
<trkpt lat="41.9377910" lon="1.9034050">
<ele>481.035339</ele>
<time>2022-09-08T07:33:32.000Z</time>
</trkpt>
<trkpt lat="41.9377770" lon="1.9034450">
<ele>482.010742</ele>
<time>2022-09-08T07:33:33.002Z</time>
</trkpt>
<trkpt lat="41.9377670" lon="1.9034860">
<ele>483.016541</ele>
<time>2022-09-08T07:33:34.004Z</time>
</trkpt>
<trkpt lat="41.9377580" lon="1.9035280">
<ele>483.991913</ele>
<time>2022-09-08T07:33:34.998Z</time>
</trkpt>
<trkpt lat="41.9377480" lon="1.9035700">
<ele>484.997742</ele>
<time>2022-09-08T07:33:36.000Z</time>
</trkpt>
<trkpt lat="41.9377390" lon="1.9036110">
<ele>485.912140</ele>
<time>2022-09-08T07:33:37.002Z</time>
</trkpt>
<trkpt lat="41.9377290" lon="1.9036520">
<ele>486.857056</ele>
<time>2022-09-08T07:33:37.996Z</time>
</trkpt>
<trkpt lat="41.9377140" lon="1.9036920">
<ele>487.771454</ele>
<time>2022-09-08T07:33:38.998Z</time>
</trkpt>
<trkpt lat="41.9377020" lon="1.9037320">
<ele>488.624878</ele>
<time>2022-09-08T07:33:40.000Z</time>
</trkpt>
<trkpt lat="41.9376950" lon="1.9037760">
<ele>489.508789</ele>
<time>2022-09-08T07:33:41.003Z</time>
</trkpt>
<trkpt lat="41.9376810" lon="1.9038170">
<ele>490.331757</ele>
<time>2022-09-08T07:33:41.996Z</time>
</trkpt>
<trkpt lat="41.9376720" lon="1.9038580">
<ele>491.032806</ele>
<time>2022-09-08T07:33:42.998Z</time>
</trkpt>
<trkpt lat="41.9376670" lon="1.9039030">
<ele>491.703339</ele>
<time>2022-09-08T07:33:44.001Z</time>
</trkpt>
<trkpt lat="41.9376640" lon="1.9039510">
<ele>492.373932</ele>
<time>2022-09-08T07:33:45.003Z</time>
</trkpt>
<trkpt lat="41.9376660" lon="1.9039990">
<ele>492.922546</ele>
<time>2022-09-08T07:33:45.996Z</time>
</trkpt>
<trkpt lat="41.9376670" lon="1.9040450">
<ele>493.410248</ele>
<time>2022-09-08T07:33:46.999Z</time>
</trkpt>
<trkpt lat="41.9376650" lon="1.9040890">
<ele>493.836945</ele>
<time>2022-09-08T07:33:48.001Z</time>
</trkpt>
<trkpt lat="41.9376610" lon="1.9041340">
<ele>494.233185</ele>
<time>2022-09-08T07:33:49.003Z</time>
</trkpt>
<trkpt lat="41.9376510" lon="1.9041810">
<ele>494.629456</ele>
<time>2022-09-08T07:33:49.997Z</time>
</trkpt>
<trkpt lat="41.9376380" lon="1.9042350">
<ele>495.025665</ele>
<time>2022-09-08T07:33:50.999Z</time>
</trkpt>
<trkpt lat="41.9376340" lon="1.9042820">
<ele>495.330475</ele>
<time>2022-09-08T07:33:52.001Z</time>
</trkpt>
<trkpt lat="41.9376270" lon="1.9043350">
<ele>495.635284</ele>
<time>2022-09-08T07:33:53.004Z</time>
</trkpt>
<trkpt lat="41.9376320" lon="1.9043850">
<ele>495.879120</ele>
<time>2022-09-08T07:33:53.997Z</time>
</trkpt>
<trkpt lat="41.9376380" lon="1.9044380">
<ele>496.122955</ele>
<time>2022-09-08T07:33:54.999Z</time>
</trkpt>
<trkpt lat="41.9376410" lon="1.9044910">
<ele>496.366791</ele>
<time>2022-09-08T07:33:56.002Z</time>
</trkpt>
<trkpt lat="41.9376430" lon="1.9045440">
<ele>496.610657</ele>
<time>2022-09-08T07:33:57.004Z</time>
</trkpt>
<trkpt lat="41.9376510" lon="1.9046010">
<ele>496.976410</ele>
<time>2022-09-08T07:33:57.997Z</time>
</trkpt>
<trkpt lat="41.9376700" lon="1.9046580">
<ele>497.433594</ele>
<time>2022-09-08T07:33:59.000Z</time>
</trkpt>
<trkpt lat="41.9376880" lon="1.9047140">
<ele>497.860321</ele>
<time>2022-09-08T07:34:00.002Z</time>
</trkpt>
<trkpt lat="41.9376940" lon="1.9047680">
<ele>498.226074</ele>
<time>2022-09-08T07:34:01.004Z</time>
</trkpt>
<trkpt lat="41.9377010" lon="1.9048210">
<ele>498.561340</ele>
<time>2022-09-08T07:34:01.998Z</time>
</trkpt>
<trkpt lat="41.9376980" lon="1.9048720">
<ele>498.927124</ele>
<time>2022-09-08T07:34:03.000Z</time>
</trkpt>
<trkpt lat="41.9376900" lon="1.9049140">
<ele>499.231934</ele>
<time>2022-09-08T07:34:04.002Z</time>
</trkpt>
<trkpt lat="41.9376770" lon="1.9049520">
<ele>499.506256</ele>
<time>2022-09-08T07:34:04.996Z</time>
</trkpt>
<trkpt lat="41.9376590" lon="1.9049850">
<ele>499.719604</ele>
<time>2022-09-08T07:34:05.998Z</time>
</trkpt>
<trkpt lat="41.9376460" lon="1.9050210">
<ele>499.902466</ele>
<time>2022-09-08T07:34:07.000Z</time>
</trkpt>
<trkpt lat="41.9376260" lon="1.9050670">
<ele>500.085358</ele>
<time>2022-09-08T07:34:08.003Z</time>
</trkpt>
<trkpt lat="41.9375980" lon="1.9051080">
<ele>500.207275</ele>
<time>2022-09-08T07:34:08.996Z</time>
</trkpt>
<trkpt lat="41.9375730" lon="1.9051490">
<ele>500.237732</ele>
<time>2022-09-08T07:34:09.998Z</time>
</trkpt>
<trkpt lat="41.9375610" lon="1.9051990">
<ele>500.298737</ele>
<time>2022-09-08T07:34:11.001Z</time>
</trkpt>
<trkpt lat="41.9375500" lon="1.9052590">
<ele>500.329193</ele>
<time>2022-09-08T07:34:12.003Z</time>
</trkpt>
<trkpt lat="41.9375440" lon="1.9053180">
<ele>500.359680</ele>
<time>2022-09-08T07:34:12.996Z</time>
</trkpt>
<trkpt lat="41.9375390" lon="1.9053750">
<ele>500.329193</ele>
<time>2022-09-08T07:34:13.999Z</time>
</trkpt>
<trkpt lat="41.9375380" lon="1.9054350">
<ele>500.359680</ele>
<time>2022-09-08T07:34:15.001Z</time>
</trkpt>
<trkpt lat="41.9375470" lon="1.9054960">
<ele>500.603516</ele>
<time>2022-09-08T07:34:16.003Z</time>
</trkpt>
<trkpt lat="41.9375520" lon="1.9055560">
<ele>500.816864</ele>
<time>2022-09-08T07:34:16.997Z</time>
</trkpt>
<trkpt lat="41.9375510" lon="1.9056140">
<ele>500.969269</ele>
<time>2022-09-08T07:34:17.999Z</time>
</trkpt>
<trkpt lat="41.9375410" lon="1.9056650">
<ele>501.030243</ele>
<time>2022-09-08T07:34:19.001Z</time>
</trkpt>
<trkpt lat="41.9375170" lon="1.9057030">
<ele>500.999756</ele>
<time>2022-09-08T07:34:20.004Z</time>
</trkpt>
<trkpt lat="41.9374840" lon="1.9057320">
<ele>500.877869</ele>
<time>2022-09-08T07:34:20.997Z</time>
</trkpt>
<trkpt lat="41.9374490" lon="1.9057530">
<ele>500.634003</ele>
<time>2022-09-08T07:34:21.999Z</time>
</trkpt>
<trkpt lat="41.9374150" lon="1.9057690">
<ele>500.359680</ele>
<time>2022-09-08T07:34:23.002Z</time>
</trkpt>
<trkpt lat="41.9373820" lon="1.9057840">
<ele>499.993927</ele>
<time>2022-09-08T07:34:24.004Z</time>
</trkpt>
<trkpt lat="41.9373460" lon="1.9057970">
<ele>499.597687</ele>
<time>2022-09-08T07:34:24.997Z</time>
</trkpt>
<trkpt lat="41.9373130" lon="1.9058140">
<ele>499.140472</ele>
<time>2022-09-08T07:34:26.000Z</time>
</trkpt>
<trkpt lat="41.9372750" lon="1.9058270">
<ele>498.561340</ele>
<time>2022-09-08T07:34:27.002Z</time>
</trkpt>
<trkpt lat="41.9372410" lon="1.9058410">
<ele>498.012726</ele>
<time>2022-09-08T07:34:28.004Z</time>
</trkpt>
<trkpt lat="41.9372090" lon="1.9058540">
<ele>497.494537</ele>
<time>2022-09-08T07:34:28.998Z</time>
</trkpt>
<trkpt lat="41.9371820" lon="1.9058750">
<ele>497.037354</ele>
<time>2022-09-08T07:34:30.000Z</time>
</trkpt>
<trkpt lat="41.9371550" lon="1.9058990">
<ele>496.549683</ele>
<time>2022-09-08T07:34:31.002Z</time>
</trkpt>
<trkpt lat="41.9371300" lon="1.9059250">
<ele>496.092468</ele>
<time>2022-09-08T07:34:31.996Z</time>
</trkpt>
<trkpt lat="41.9371060" lon="1.9059500">
<ele>495.696259</ele>
<time>2022-09-08T07:34:32.998Z</time>
</trkpt>
<trkpt lat="41.9370860" lon="1.9059680">
<ele>495.269531</ele>
<time>2022-09-08T07:34:34.000Z</time>
</trkpt>
<trkpt lat="41.9370690" lon="1.9059860">
<ele>495.147614</ele>
<time>2022-09-08T07:34:35.003Z</time>
</trkpt>
<trkpt lat="41.9370490" lon="1.9060090">
<ele>495.025665</ele>
<time>2022-09-08T07:34:35.996Z</time>
</trkpt>
<trkpt lat="41.9370320" lon="1.9060320">
<ele>494.903748</ele>
<time>2022-09-08T07:34:36.998Z</time>
</trkpt>
<trkpt lat="41.9370150" lon="1.9060540">
<ele>494.812317</ele>
<time>2022-09-08T07:34:38.001Z</time>
</trkpt>
<trkpt lat="41.9369960" lon="1.9060770">
<ele>494.690399</ele>
<time>2022-09-08T07:34:39.003Z</time>
</trkpt>
<trkpt lat="41.9369750" lon="1.9060990">
<ele>494.507538</ele>
<time>2022-09-08T07:34:39.996Z</time>
</trkpt>
<trkpt lat="41.9369580" lon="1.9061200">
<ele>494.416077</ele>
<time>2022-09-08T07:34:40.999Z</time>
</trkpt>
<trkpt lat="41.9369350" lon="1.9061400">
<ele>494.233185</ele>
<time>2022-09-08T07:34:42.001Z</time>
</trkpt>
<trkpt lat="41.9369120" lon="1.9061620">
<ele>494.080811</ele>
<time>2022-09-08T07:34:43.003Z</time>
</trkpt>
<trkpt lat="41.9368850" lon="1.9061900">
<ele>493.897919</ele>
<time>2022-09-08T07:34:43.997Z</time>
</trkpt>
<trkpt lat="41.9368600" lon="1.9062190">
<ele>493.776001</ele>
<time>2022-09-08T07:34:44.999Z</time>
</trkpt>
<trkpt lat="41.9368360" lon="1.9062500">
<ele>493.715057</ele>
<time>2022-09-08T07:34:46.001Z</time>
</trkpt>
<trkpt lat="41.9368190" lon="1.9062890">
<ele>493.928406</ele>
<time>2022-09-08T07:34:47.004Z</time>
</trkpt>
<trkpt lat="41.9367950" lon="1.9063290">
<ele>494.111267</ele>
<time>2022-09-08T07:34:47.997Z</time>
</trkpt>
<trkpt lat="41.9367730" lon="1.9063670">
<ele>494.263672</ele>
<time>2022-09-08T07:34:48.999Z</time>
</trkpt>
<trkpt lat="41.9367540" lon="1.9064060">
<ele>494.537994</ele>
<time>2022-09-08T07:34:50.002Z</time>
</trkpt>
<trkpt lat="41.9367390" lon="1.9064410">
<ele>494.873260</ele>
<time>2022-09-08T07:34:51.004Z</time>
</trkpt>
<trkpt lat="41.9367160" lon="1.9064740">
<ele>494.964722</ele>
<time>2022-09-08T07:34:51.997Z</time>
</trkpt>
<trkpt lat="41.9366950" lon="1.9065070">
<ele>495.147614</ele>
<time>2022-09-08T07:34:53.000Z</time>
</trkpt>
<trkpt lat="41.9366800" lon="1.9065400">
<ele>495.421936</ele>
<time>2022-09-08T07:34:54.002Z</time>
</trkpt>
<trkpt lat="41.9366640" lon="1.9065740">
<ele>495.726715</ele>
<time>2022-09-08T07:34:55.004Z</time>
</trkpt>
<trkpt lat="41.9366510" lon="1.9066120">
<ele>496.062012</ele>
<time>2022-09-08T07:34:55.998Z</time>
</trkpt>
<trkpt lat="41.9366340" lon="1.9066450">
<ele>496.336334</ele>
<time>2022-09-08T07:34:57.000Z</time>
</trkpt>
<trkpt lat="41.9366160" lon="1.9066730">
<ele>496.488739</ele>
<time>2022-09-08T07:34:58.002Z</time>
</trkpt>
<trkpt lat="41.9365990" lon="1.9067020">
<ele>496.702087</ele>
<time>2022-09-08T07:34:58.996Z</time>
</trkpt>
<trkpt lat="41.9365770" lon="1.9067300">
<ele>496.824005</ele>
<time>2022-09-08T07:34:59.998Z</time>
</trkpt>
<trkpt lat="41.9365550" lon="1.9067630">
<ele>497.006866</ele>
<time>2022-09-08T07:35:01.000Z</time>
</trkpt>
<trkpt lat="41.9365330" lon="1.9067910">
<ele>497.159271</ele>
<time>2022-09-08T07:35:02.003Z</time>
</trkpt>
<trkpt lat="41.9365130" lon="1.9068170">
<ele>497.250732</ele>
<time>2022-09-08T07:35:02.996Z</time>
</trkpt>
<trkpt lat="41.9364910" lon="1.9068480">
<ele>497.433594</ele>
<time>2022-09-08T07:35:03.998Z</time>
</trkpt>
<trkpt lat="41.9364670" lon="1.9068750">
<ele>497.555542</ele>
<time>2022-09-08T07:35:05.001Z</time>
</trkpt>
<trkpt lat="41.9364410" lon="1.9068950">
<ele>497.555542</ele>
<time>2022-09-08T07:35:06.003Z</time>
</trkpt>
<trkpt lat="41.9364140" lon="1.9069050">
<ele>497.403137</ele>
<time>2022-09-08T07:35:06.996Z</time>
</trkpt>
<trkpt lat="41.9363930" lon="1.9069060">
<ele>497.220245</ele>
<time>2022-09-08T07:35:07.999Z</time>
</trkpt>
<trkpt lat="41.9363750" lon="1.9069060">
<ele>497.037354</ele>
<time>2022-09-08T07:35:09.001Z</time>
</trkpt>
<trkpt lat="41.9363480" lon="1.9069050">
<ele>496.732544</ele>
<time>2022-09-08T07:35:10.003Z</time>
</trkpt>
<trkpt lat="41.9363220" lon="1.9069060">
<ele>496.488739</ele>
<time>2022-09-08T07:35:10.997Z</time>
</trkpt>
<trkpt lat="41.9362930" lon="1.9069110">
<ele>496.336334</ele>
<time>2022-09-08T07:35:11.999Z</time>
</trkpt>
<trkpt lat="41.9362650" lon="1.9069300">
<ele>496.397278</ele>
<time>2022-09-08T07:35:13.001Z</time>
</trkpt>
<trkpt lat="41.9362410" lon="1.9069630">
<ele>496.884949</ele>
<time>2022-09-08T07:35:14.004Z</time>
</trkpt>
<trkpt lat="41.9362180" lon="1.9070000">
<ele>497.555542</ele>
<time>2022-09-08T07:35:14.997Z</time>
</trkpt>
<trkpt lat="41.9361980" lon="1.9070410">
<ele>498.347992</ele>
<time>2022-09-08T07:35:15.999Z</time>
</trkpt>
<trkpt lat="41.9361770" lon="1.9070780">
<ele>499.109985</ele>
<time>2022-09-08T07:35:17.002Z</time>
</trkpt>
<trkpt lat="41.9361530" lon="1.9071090">
<ele>499.963440</ele>
<time>2022-09-08T07:35:18.004Z</time>
</trkpt>
<trkpt lat="41.9361240" lon="1.9071350">
<ele>500.755920</ele>
<time>2022-09-08T07:35:18.997Z</time>
</trkpt>
<trkpt lat="41.9361000" lon="1.9071580">
<ele>501.456940</ele>
<time>2022-09-08T07:35:20.000Z</time>
</trkpt>
<trkpt lat="41.9360750" lon="1.9071780">
<ele>502.097046</ele>
<time>2022-09-08T07:35:21.002Z</time>
</trkpt>
<trkpt lat="41.9360510" lon="1.9071960">
<ele>502.676147</ele>
<time>2022-09-08T07:35:22.004Z</time>
</trkpt>
<trkpt lat="41.9360230" lon="1.9072140">
<ele>503.285736</ele>
<time>2022-09-08T07:35:22.998Z</time>
</trkpt>
<trkpt lat="41.9360080" lon="1.9072200">
<ele>503.529602</ele>
<time>2022-09-08T07:35:24.000Z</time>
</trkpt>
<trkpt lat="41.9359910" lon="1.9072210">
<ele>503.621063</ele>
<time>2022-09-08T07:35:25.002Z</time>
</trkpt>
<trkpt lat="41.9359720" lon="1.9072170">
<ele>503.621063</ele>
<time>2022-09-08T07:35:25.996Z</time>
</trkpt>
<trkpt lat="41.9359510" lon="1.9072090">
<ele>503.468658</ele>
<time>2022-09-08T07:35:26.998Z</time>
</trkpt>
<trkpt lat="41.9359300" lon="1.9072010">
<ele>503.346741</ele>
<time>2022-09-08T07:35:28.000Z</time>
</trkpt>
<trkpt lat="41.9359080" lon="1.9071960">
<ele>503.255280</ele>
<time>2022-09-08T07:35:29.003Z</time>
</trkpt>
<trkpt lat="41.9358890" lon="1.9071920">
<ele>503.224792</ele>
<time>2022-09-08T07:35:29.996Z</time>
</trkpt>
<trkpt lat="41.9358690" lon="1.9071880">
<ele>503.163849</ele>
<time>2022-09-08T07:35:30.998Z</time>
</trkpt>
<trkpt lat="41.9358490" lon="1.9071840">
<ele>503.133331</ele>
<time>2022-09-08T07:35:32.001Z</time>
</trkpt>
<trkpt lat="41.9358280" lon="1.9071820">
<ele>503.102875</ele>
<time>2022-09-08T07:35:33.003Z</time>
</trkpt>
<trkpt lat="41.9358080" lon="1.9071820">
<ele>503.163849</ele>
<time>2022-09-08T07:35:33.996Z</time>
</trkpt>
<trkpt lat="41.9357880" lon="1.9071890">
<ele>503.438141</ele>
<time>2022-09-08T07:35:34.999Z</time>
</trkpt>
<trkpt lat="41.9357640" lon="1.9072050">
<ele>503.925842</ele>
<time>2022-09-08T07:35:36.001Z</time>
</trkpt>
<trkpt lat="41.9357380" lon="1.9072290">
<ele>504.657349</ele>
<time>2022-09-08T07:35:37.003Z</time>
</trkpt>
<trkpt lat="41.9357190" lon="1.9072530">
<ele>505.358398</ele>
<time>2022-09-08T07:35:37.997Z</time>
</trkpt>
<trkpt lat="41.9357040" lon="1.9072770">
<ele>506.028931</ele>
<time>2022-09-08T07:35:38.999Z</time>
</trkpt>
<trkpt lat="41.9356900" lon="1.9073010">
<ele>506.669067</ele>
<time>2022-09-08T07:35:40.001Z</time>
</trkpt>
<trkpt lat="41.9356780" lon="1.9073250">
<ele>507.278656</ele>
<time>2022-09-08T07:35:41.004Z</time>
</trkpt>
<trkpt lat="41.9356630" lon="1.9073690">
<ele>508.314941</ele>
<time>2022-09-08T07:35:41.997Z</time>
</trkpt>
<trkpt lat="41.9356500" lon="1.9074120">
<ele>509.290314</ele>
<time>2022-09-08T07:35:42.999Z</time>
</trkpt>
<trkpt lat="41.9356330" lon="1.9074510">
<ele>510.113281</ele>
<time>2022-09-08T07:35:44.002Z</time>
</trkpt>
<trkpt lat="41.9356160" lon="1.9074840">
<ele>510.753357</ele>
<time>2022-09-08T07:35:45.004Z</time>
</trkpt>
<trkpt lat="41.9355910" lon="1.9075250">
<ele>511.484863</ele>
<time>2022-09-08T07:35:45.997Z</time>
</trkpt>
<trkpt lat="41.9355630" lon="1.9075570">
<ele>511.972534</ele>
<time>2022-09-08T07:35:47.000Z</time>
</trkpt>
<trkpt lat="41.9355330" lon="1.9075830">
<ele>512.307861</ele>
<time>2022-09-08T07:35:48.002Z</time>
</trkpt>
<trkpt lat="41.9355050" lon="1.9076060">
<ele>512.582153</ele>
<time>2022-09-08T07:35:49.004Z</time>
</trkpt>
<trkpt lat="41.9354840" lon="1.9076260">
<ele>512.825989</ele>
<time>2022-09-08T07:35:49.998Z</time>
</trkpt>
<trkpt lat="41.9354570" lon="1.9076480">
<ele>512.978394</ele>
<time>2022-09-08T07:35:51.000Z</time>
</trkpt>
<trkpt lat="41.9354280" lon="1.9076730">
<ele>513.191772</ele>
<time>2022-09-08T07:35:52.002Z</time>
</trkpt>
<trkpt lat="41.9354050" lon="1.9076870">
<ele>513.344116</ele>
<time>2022-09-08T07:35:52.996Z</time>
</trkpt>
<trkpt lat="41.9353910" lon="1.9076950">
<ele>513.435608</ele>
<time>2022-09-08T07:35:53.998Z</time>
</trkpt>
<trkpt lat="41.9353630" lon="1.9077050">
<ele>513.557556</ele>
<time>2022-09-08T07:35:55.000Z</time>
</trkpt>
<trkpt lat="41.9353350" lon="1.9077170">
<ele>513.648926</ele>
<time>2022-09-08T07:35:56.003Z</time>
</trkpt>
<trkpt lat="41.9353170" lon="1.9077310">
<ele>513.801331</ele>
<time>2022-09-08T07:35:56.996Z</time>
</trkpt>
<trkpt lat="41.9352980" lon="1.9077480">
<ele>513.953735</ele>
<time>2022-09-08T07:35:57.998Z</time>
</trkpt>
<trkpt lat="41.9352790" lon="1.9077690">
<ele>514.167114</ele>
<time>2022-09-08T07:35:59.001Z</time>
</trkpt>
<trkpt lat="41.9352660" lon="1.9077860">
<ele>514.319519</ele>
<time>2022-09-08T07:36:00.003Z</time>
</trkpt>
<trkpt lat="41.9352460" lon="1.9078120">
<ele>514.532898</ele>
<time>2022-09-08T07:36:00.996Z</time>
</trkpt>
<trkpt lat="41.9352340" lon="1.9078390">
<ele>514.837646</ele>
<time>2022-09-08T07:36:01.999Z</time>
</trkpt>
<trkpt lat="41.9352220" lon="1.9078630">
<ele>515.081543</ele>
<time>2022-09-08T07:36:03.001Z</time>
</trkpt>
<trkpt lat="41.9352050" lon="1.9078950">
<ele>515.386353</ele>
<time>2022-09-08T07:36:04.003Z</time>
</trkpt>
<trkpt lat="41.9351900" lon="1.9079320">
<ele>515.874023</ele>
<time>2022-09-08T07:36:04.997Z</time>
</trkpt>
<trkpt lat="41.9351770" lon="1.9079760">
<ele>516.666443</ele>
<time>2022-09-08T07:36:05.999Z</time>
</trkpt>
<trkpt lat="41.9351600" lon="1.9080200">
<ele>517.398010</ele>
<time>2022-09-08T07:36:07.001Z</time>
</trkpt>
<trkpt lat="41.9351400" lon="1.9080660">
<ele>518.099060</ele>
<time>2022-09-08T07:36:08.004Z</time>
</trkpt>
<trkpt lat="41.9351400" lon="1.9080660">
<ele>518.099060</ele>
<time>2022-09-08T07:36:08.997Z</time>
</trkpt>
<trkpt lat="41.9350940" lon="1.9081510">
<ele>519.287720</ele>
<time>2022-09-08T07:36:09.999Z</time>
</trkpt>
<trkpt lat="41.9350710" lon="1.9081970">
<ele>519.927856</ele>
<time>2022-09-08T07:36:11.002Z</time>
</trkpt>
<trkpt lat="41.9350460" lon="1.9082420">
<ele>520.506958</ele>
<time>2022-09-08T07:36:12.004Z</time>
</trkpt>
<trkpt lat="41.9350210" lon="1.9082890">
<ele>521.025146</ele>
<time>2022-09-08T07:36:12.997Z</time>
</trkpt>
<trkpt lat="41.9349970" lon="1.9083360">
<ele>521.573730</ele>
<time>2022-09-08T07:36:14.000Z</time>
</trkpt>
<trkpt lat="41.9349710" lon="1.9083770">
<ele>521.969971</ele>
<time>2022-09-08T07:36:15.002Z</time>
</trkpt>
<trkpt lat="41.9349400" lon="1.9084190">
<ele>522.274780</ele>
<time>2022-09-08T07:36:16.004Z</time>
</trkpt>
<trkpt lat="41.9349040" lon="1.9084580">
<ele>522.427185</ele>
<time>2022-09-08T07:36:16.998Z</time>
</trkpt>
<trkpt lat="41.9348650" lon="1.9084970">
<ele>522.549133</ele>
<time>2022-09-08T07:36:18.000Z</time>
</trkpt>
<trkpt lat="41.9348200" lon="1.9085300">
<ele>522.488159</ele>
<time>2022-09-08T07:36:19.002Z</time>
</trkpt>
<trkpt lat="41.9347720" lon="1.9085590">
<ele>522.335754</ele>
<time>2022-09-08T07:36:19.996Z</time>
</trkpt>
<trkpt lat="41.9347200" lon="1.9085830">
<ele>522.030945</ele>
<time>2022-09-08T07:36:20.998Z</time>
</trkpt>
<trkpt lat="41.9346660" lon="1.9086000">
<ele>521.665222</ele>
<time>2022-09-08T07:36:22.000Z</time>
</trkpt>
<trkpt lat="41.9346120" lon="1.9086150">
<ele>521.299438</ele>
<time>2022-09-08T07:36:23.003Z</time>
</trkpt>
<trkpt lat="41.9345580" lon="1.9086310">
<ele>521.208008</ele>
<time>2022-09-08T07:36:23.996Z</time>
</trkpt>
<trkpt lat="41.9345040" lon="1.9086440">
<ele>521.360413</ele>
<time>2022-09-08T07:36:24.998Z</time>
</trkpt>
<trkpt lat="41.9344500" lon="1.9086560">
<ele>521.482300</ele>
<time>2022-09-08T07:36:26.001Z</time>
</trkpt>
<trkpt lat="41.9343940" lon="1.9086680">
<ele>521.604248</ele>
<time>2022-09-08T07:36:27.003Z</time>
</trkpt>
<trkpt lat="41.9343390" lon="1.9086790">
<ele>521.695679</ele>
<time>2022-09-08T07:36:27.996Z</time>
</trkpt>
<trkpt lat="41.9342840" lon="1.9086920">
<ele>521.787109</ele>
<time>2022-09-08T07:36:28.999Z</time>
</trkpt>
<trkpt lat="41.9342260" lon="1.9087030">
<ele>521.817627</ele>
<time>2022-09-08T07:36:30.001Z</time>
</trkpt>
<trkpt lat="41.9341700" lon="1.9087140">
<ele>521.848083</ele>
<time>2022-09-08T07:36:31.003Z</time>
</trkpt>
<trkpt lat="41.9341160" lon="1.9087220">
<ele>521.817627</ele>
<time>2022-09-08T07:36:31.997Z</time>
</trkpt>
<trkpt lat="41.9340630" lon="1.9087360">
<ele>521.817627</ele>
<time>2022-09-08T07:36:32.999Z</time>
</trkpt>
<trkpt lat="41.9340100" lon="1.9087550">
<ele>521.848083</ele>
<time>2022-09-08T07:36:34.001Z</time>
</trkpt>
<trkpt lat="41.9339590" lon="1.9087780">
<ele>522.030945</ele>
<time>2022-09-08T07:36:35.004Z</time>
</trkpt>
<trkpt lat="41.9339140" lon="1.9088010">
<ele>522.183350</ele>
<time>2022-09-08T07:36:35.997Z</time>
</trkpt>
<trkpt lat="41.9338700" lon="1.9088200">
<ele>522.274780</ele>
<time>2022-09-08T07:36:36.999Z</time>
</trkpt>
<trkpt lat="41.9338260" lon="1.9088360">
<ele>522.335754</ele>
<time>2022-09-08T07:36:38.002Z</time>
</trkpt>
<trkpt lat="41.9337830" lon="1.9088500">
<ele>522.335754</ele>
<time>2022-09-08T07:36:39.004Z</time>
</trkpt>
<trkpt lat="41.9337360" lon="1.9088590">
<ele>522.274780</ele>
<time>2022-09-08T07:36:39.997Z</time>
</trkpt>
<trkpt lat="41.9336890" lon="1.9088640">
<ele>522.183350</ele>
<time>2022-09-08T07:36:41.000Z</time>
</trkpt>
<trkpt lat="41.9336470" lon="1.9088680">
<ele>522.061462</ele>
<time>2022-09-08T07:36:42.002Z</time>
</trkpt>
<trkpt lat="41.9336470" lon="1.9088680">
<ele>522.061462</ele>
<time>2022-09-08T07:36:43.004Z</time>
</trkpt>
<trkpt lat="41.9335730" lon="1.9088670">
<ele>521.726135</ele>
<time>2022-09-08T07:36:43.998Z</time>
</trkpt>
<trkpt lat="41.9335360" lon="1.9088680">
<ele>521.573730</ele>
<time>2022-09-08T07:36:45.000Z</time>
</trkpt>
<trkpt lat="41.9334950" lon="1.9088650">
<ele>521.360413</ele>
<time>2022-09-08T07:36:46.002Z</time>
</trkpt>
<trkpt lat="41.9334550" lon="1.9088620">
<ele>521.147034</ele>
<time>2022-09-08T07:36:46.996Z</time>
</trkpt>
<trkpt lat="41.9334550" lon="1.9088620">
<ele>521.147034</ele>
<time>2022-09-08T07:36:47.998Z</time>
</trkpt>
<trkpt lat="41.9333720" lon="1.9088610">
<ele>520.781250</ele>
<time>2022-09-08T07:36:49.000Z</time>
</trkpt>
<trkpt lat="41.9333290" lon="1.9088580">
<ele>520.567932</ele>
<time>2022-09-08T07:36:50.003Z</time>
</trkpt>
<trkpt lat="41.9332800" lon="1.9088560">
<ele>520.354553</ele>
<time>2022-09-08T07:36:50.996Z</time>
</trkpt>
<trkpt lat="41.9332300" lon="1.9088520">
<ele>520.141174</ele>
<time>2022-09-08T07:36:51.998Z</time>
</trkpt>
<trkpt lat="41.9331810" lon="1.9088530">
<ele>520.019287</ele>
<time>2022-09-08T07:36:53.001Z</time>
</trkpt>
<trkpt lat="41.9331300" lon="1.9088600">
<ele>519.988770</ele>
<time>2022-09-08T07:36:54.003Z</time>
</trkpt>
<trkpt lat="41.9330780" lon="1.9088700">
<ele>520.080261</ele>
<time>2022-09-08T07:36:54.996Z</time>
</trkpt>
<trkpt lat="41.9330280" lon="1.9088840">
<ele>520.293579</ele>
<time>2022-09-08T07:36:55.999Z</time>
</trkpt>
<trkpt lat="41.9329830" lon="1.9089030">
<ele>520.628845</ele>
<time>2022-09-08T07:36:57.001Z</time>
</trkpt>
<trkpt lat="41.9329390" lon="1.9089270">
<ele>521.086060</ele>
<time>2022-09-08T07:36:58.003Z</time>
</trkpt>
<trkpt lat="41.9328940" lon="1.9089520">
<ele>521.512817</ele>
<time>2022-09-08T07:36:58.997Z</time>
</trkpt>
<trkpt lat="41.9328470" lon="1.9089810">
<ele>521.969971</ele>
<time>2022-09-08T07:36:59.999Z</time>
</trkpt>
<trkpt lat="41.9327980" lon="1.9090100">
<ele>522.457703</ele>
<time>2022-09-08T07:37:01.001Z</time>
</trkpt>
<trkpt lat="41.9327480" lon="1.9090360">
<ele>522.975830</ele>
<time>2022-09-08T07:37:02.004Z</time>
</trkpt>
<trkpt lat="41.9326980" lon="1.9090600">
<ele>523.524475</ele>
<time>2022-09-08T07:37:02.997Z</time>
</trkpt>
<trkpt lat="41.9326510" lon="1.9090820">
<ele>524.073120</ele>
<time>2022-09-08T07:37:03.999Z</time>
</trkpt>
<trkpt lat="41.9326050" lon="1.9091160">
<ele>524.835144</ele>
<time>2022-09-08T07:37:05.002Z</time>
</trkpt>
<trkpt lat="41.9326050" lon="1.9091160">
<ele>524.835144</ele>
<time>2022-09-08T07:37:06.004Z</time>
</trkpt>
<trkpt lat="41.9325240" lon="1.9092030">
<ele>526.633484</ele>
<time>2022-09-08T07:37:06.997Z</time>
</trkpt>
<trkpt lat="41.9324870" lon="1.9092440">
<ele>527.456421</ele>
<time>2022-09-08T07:37:08.000Z</time>
</trkpt>
<trkpt lat="41.9324540" lon="1.9092790">
<ele>528.157471</ele>
<time>2022-09-08T07:37:09.002Z</time>
</trkpt>
<trkpt lat="41.9324240" lon="1.9093110">
<ele>528.797546</ele>
<time>2022-09-08T07:37:10.004Z</time>
</trkpt>
<trkpt lat="41.9323950" lon="1.9093460">
<ele>529.346130</ele>
<time>2022-09-08T07:37:10.998Z</time>
</trkpt>
<trkpt lat="41.9323590" lon="1.9093770">
<ele>530.016724</ele>
<time>2022-09-08T07:37:12.000Z</time>
</trkpt>
<trkpt lat="41.9323050" lon="1.9094030">
<ele>530.870117</ele>
<time>2022-09-08T07:37:13.002Z</time>
</trkpt>
<trkpt lat="41.9322470" lon="1.9094270">
<ele>531.815063</ele>
<time>2022-09-08T07:37:13.996Z</time>
</trkpt>
<trkpt lat="41.9321860" lon="1.9094380">
<ele>532.851318</ele>
<time>2022-09-08T07:37:14.998Z</time>
</trkpt>
<trkpt lat="41.9321210" lon="1.9094260">
<ele>534.070557</ele>
<time>2022-09-08T07:37:16.000Z</time>
</trkpt>
<trkpt lat="41.9320670" lon="1.9094060">
<ele>535.137329</ele>
<time>2022-09-08T07:37:17.003Z</time>
</trkpt>
<trkpt lat="41.9320330" lon="1.9093850">
<ele>535.838379</ele>
<time>2022-09-08T07:37:17.996Z</time>
</trkpt>
<trkpt lat="41.9320090" lon="1.9093630">
<ele>536.265137</ele>
<time>2022-09-08T07:37:18.998Z</time>
</trkpt>
<trkpt lat="41.9319930" lon="1.9093360">
<ele>536.539429</ele>
<time>2022-09-08T07:37:20.001Z</time>
</trkpt>
<trkpt lat="41.9319810" lon="1.9093140">
<ele>536.661316</ele>
<time>2022-09-08T07:37:21.003Z</time>
</trkpt>
<trkpt lat="41.9319670" lon="1.9092960">
<ele>536.813721</ele>
<time>2022-09-08T07:37:21.996Z</time>
</trkpt>
<trkpt lat="41.9319510" lon="1.9092740">
<ele>537.057617</ele>
<time>2022-09-08T07:37:22.999Z</time>
</trkpt>
<trkpt lat="41.9319300" lon="1.9092560">
<ele>537.331909</ele>
<time>2022-09-08T07:37:24.001Z</time>
</trkpt>
<trkpt lat="41.9319010" lon="1.9092380">
<ele>537.850098</ele>
<time>2022-09-08T07:37:25.003Z</time>
</trkpt>
<trkpt lat="41.9318730" lon="1.9092250">
<ele>538.368225</ele>
<time>2022-09-08T07:37:25.997Z</time>
</trkpt>
<trkpt lat="41.9318440" lon="1.9092220">
<ele>539.069275</ele>
<time>2022-09-08T07:37:26.999Z</time>
</trkpt>
<trkpt lat="41.9318180" lon="1.9092210">
<ele>539.709351</ele>
<time>2022-09-08T07:37:28.001Z</time>
</trkpt>
<trkpt lat="41.9317960" lon="1.9092180">
<ele>540.166565</ele>
<time>2022-09-08T07:37:29.004Z</time>
</trkpt>
<trkpt lat="41.9317750" lon="1.9092100">
<ele>540.623718</ele>
<time>2022-09-08T07:37:29.997Z</time>
</trkpt>
<trkpt lat="41.9317520" lon="1.9092000">
<ele>541.080933</ele>
<time>2022-09-08T07:37:30.999Z</time>
</trkpt>
<trkpt lat="41.9317370" lon="1.9091930">
<ele>541.385742</ele>
<time>2022-09-08T07:37:32.002Z</time>
</trkpt>
<trkpt lat="41.9317240" lon="1.9091870">
<ele>541.599121</ele>
<time>2022-09-08T07:37:33.004Z</time>
</trkpt>
<trkpt lat="41.9317070" lon="1.9091800">
<ele>541.995361</ele>
<time>2022-09-08T07:37:33.997Z</time>
</trkpt>
<trkpt lat="41.9316910" lon="1.9091750">
<ele>542.330627</ele>
<time>2022-09-08T07:37:35.000Z</time>
</trkpt>
<trkpt lat="41.9316750" lon="1.9091710">
<ele>542.665955</ele>
<time>2022-09-08T07:37:36.002Z</time>
</trkpt>
<trkpt lat="41.9316500" lon="1.9091660">
<ele>543.275513</ele>
<time>2022-09-08T07:37:37.004Z</time>
</trkpt>
<trkpt lat="41.9316280" lon="1.9091590">
<ele>543.671753</ele>
<time>2022-09-08T07:37:37.998Z</time>
</trkpt>
<trkpt lat="41.9316060" lon="1.9091520">
<ele>544.189941</ele>
<time>2022-09-08T07:37:39.000Z</time>
</trkpt>
<trkpt lat="41.9315830" lon="1.9091450">
<ele>544.677612</ele>
<time>2022-09-08T07:37:40.002Z</time>
</trkpt>
<trkpt lat="41.9315620" lon="1.9091400">
<ele>545.165283</ele>
<time>2022-09-08T07:37:40.996Z</time>
</trkpt>
<trkpt lat="41.9315410" lon="1.9091350">
<ele>545.591980</ele>
<time>2022-09-08T07:37:41.998Z</time>
</trkpt>
<trkpt lat="41.9315220" lon="1.9091270">
<ele>545.957764</ele>
<time>2022-09-08T07:37:43.000Z</time>
</trkpt>
<trkpt lat="41.9315040" lon="1.9091230">
<ele>546.384460</ele>
<time>2022-09-08T07:37:44.003Z</time>
</trkpt>
<trkpt lat="41.9314900" lon="1.9091170">
<ele>546.597839</ele>
<time>2022-09-08T07:37:44.996Z</time>
</trkpt>
<trkpt lat="41.9314800" lon="1.9091110">
<ele>546.811218</ele>
<time>2022-09-08T07:37:45.998Z</time>
</trkpt>
<trkpt lat="41.9314700" lon="1.9091060">
<ele>547.024536</ele>
<time>2022-09-08T07:37:47.001Z</time>
</trkpt>
<trkpt lat="41.9314570" lon="1.9091020">
<ele>547.237915</ele>
<time>2022-09-08T07:37:48.003Z</time>
</trkpt>
<trkpt lat="41.9314430" lon="1.9091010">
<ele>547.603699</ele>
<time>2022-09-08T07:37:48.996Z</time>
</trkpt>
<trkpt lat="41.9314280" lon="1.9091030">
<ele>547.999939</ele>
<time>2022-09-08T07:37:49.999Z</time>
</trkpt>
<trkpt lat="41.9314080" lon="1.9091070">
<ele>548.487610</ele>
<time>2022-09-08T07:37:51.001Z</time>
</trkpt>
<trkpt lat="41.9313920" lon="1.9091190">
<ele>548.975281</ele>
<time>2022-09-08T07:37:52.003Z</time>
</trkpt>
<trkpt lat="41.9313760" lon="1.9091320">
<ele>549.462952</ele>
<time>2022-09-08T07:37:52.997Z</time>
</trkpt>
<trkpt lat="41.9313580" lon="1.9091500">
<ele>550.072571</ele>
<time>2022-09-08T07:37:53.999Z</time>
</trkpt>
<trkpt lat="41.9313390" lon="1.9091640">
<ele>550.590698</ele>
<time>2022-09-08T07:37:55.001Z</time>
</trkpt>
<trkpt lat="41.9313070" lon="1.9091850">
<ele>551.383179</ele>
<time>2022-09-08T07:37:56.004Z</time>
</trkpt>
<trkpt lat="41.9312820" lon="1.9091970">
<ele>551.992798</ele>
<time>2022-09-08T07:37:56.997Z</time>
</trkpt>
<trkpt lat="41.9312530" lon="1.9092000">
<ele>552.602417</ele>
<time>2022-09-08T07:37:57.999Z</time>
</trkpt>
<trkpt lat="41.9312290" lon="1.9091980">
<ele>553.120544</ele>
<time>2022-09-08T07:37:59.002Z</time>
</trkpt>
<trkpt lat="41.9311990" lon="1.9091930">
<ele>553.791138</ele>
<time>2022-09-08T07:38:00.004Z</time>
</trkpt>
<trkpt lat="41.9311990" lon="1.9091930">
<ele>553.791138</ele>
<time>2022-09-08T07:38:00.997Z</time>
</trkpt>
<trkpt lat="41.9311770" lon="1.9091950">
<ele>554.309265</ele>
<time>2022-09-08T07:38:02.000Z</time>
</trkpt>
<trkpt lat="41.9311650" lon="1.9091890">
<ele>554.492126</ele>
<time>2022-09-08T07:38:03.002Z</time>
</trkpt>
<trkpt lat="41.9311440" lon="1.9091850">
<ele>554.857910</ele>
<time>2022-09-08T07:38:04.004Z</time>
</trkpt>
<trkpt lat="41.9311250" lon="1.9091900">
<ele>555.254150</ele>
<time>2022-09-08T07:38:04.998Z</time>
</trkpt>
<trkpt lat="41.9311100" lon="1.9091960">
<ele>555.558960</ele>
<time>2022-09-08T07:38:06.000Z</time>
</trkpt>
<trkpt lat="41.9310840" lon="1.9091990">
<ele>556.016174</ele>
<time>2022-09-08T07:38:07.002Z</time>
</trkpt>
<trkpt lat="41.9310670" lon="1.9092020">
<ele>556.290466</ele>
<time>2022-09-08T07:38:07.996Z</time>
</trkpt>
<trkpt lat="41.9310500" lon="1.9092040">
<ele>556.595276</ele>
<time>2022-09-08T07:38:08.998Z</time>
</trkpt>
<trkpt lat="41.9310280" lon="1.9092060">
<ele>556.930542</ele>
<time>2022-09-08T07:38:10.000Z</time>
</trkpt>
<trkpt lat="41.9310080" lon="1.9092040">
<ele>557.174377</ele>
<time>2022-09-08T07:38:11.003Z</time>
</trkpt>
<trkpt lat="41.9309830" lon="1.9092100">
<ele>557.479187</ele>
<time>2022-09-08T07:38:11.996Z</time>
</trkpt>
<trkpt lat="41.9309490" lon="1.9092190">
<ele>557.875427</ele>
<time>2022-09-08T07:38:12.998Z</time>
</trkpt>
<trkpt lat="41.9309160" lon="1.9092270">
<ele>558.210754</ele>
<time>2022-09-08T07:38:14.001Z</time>
</trkpt>
<trkpt lat="41.9308800" lon="1.9092430">
<ele>558.485046</ele>
<time>2022-09-08T07:38:15.003Z</time>
</trkpt>
<trkpt lat="41.9308460" lon="1.9092640">
<ele>558.728882</ele>
<time>2022-09-08T07:38:15.996Z</time>
</trkpt>
<trkpt lat="41.9308120" lon="1.9092880">
<ele>558.881287</ele>
<time>2022-09-08T07:38:16.999Z</time>
</trkpt>
<trkpt lat="41.9307720" lon="1.9093070">
<ele>558.972717</ele>
<time>2022-09-08T07:38:18.001Z</time>
</trkpt>
<trkpt lat="41.9307390" lon="1.9093090">
<ele>559.003174</ele>
<time>2022-09-08T07:38:19.003Z</time>
</trkpt>
<trkpt lat="41.9307050" lon="1.9093150">
<ele>559.003174</ele>
<time>2022-09-08T07:38:19.997Z</time>
</trkpt>
<trkpt lat="41.9306750" lon="1.9093240">
<ele>558.942261</ele>
<time>2022-09-08T07:38:20.999Z</time>
</trkpt>
<trkpt lat="41.9306520" lon="1.9093290">
<ele>558.881287</ele>
<time>2022-09-08T07:38:22.001Z</time>
</trkpt>
<trkpt lat="41.9306240" lon="1.9093390">
<ele>558.728882</ele>
<time>2022-09-08T07:38:23.004Z</time>
</trkpt>
<trkpt lat="41.9305970" lon="1.9093460">
<ele>558.576477</ele>
<time>2022-09-08T07:38:23.997Z</time>
</trkpt>
<trkpt lat="41.9305670" lon="1.9093540">
<ele>558.424072</ele>
<time>2022-09-08T07:38:24.999Z</time>
</trkpt>
<trkpt lat="41.9305440" lon="1.9093690">
<ele>558.210754</ele>
<time>2022-09-08T07:38:26.002Z</time>
</trkpt>
<trkpt lat="41.9305180" lon="1.9093770">
<ele>557.966858</ele>
<time>2022-09-08T07:38:27.004Z</time>
</trkpt>
<trkpt lat="41.9304930" lon="1.9093820">
<ele>557.723083</ele>
<time>2022-09-08T07:38:27.997Z</time>
</trkpt>
<trkpt lat="41.9304650" lon="1.9093850">
<ele>557.479187</ele>
<time>2022-09-08T07:38:29.000Z</time>
</trkpt>
<trkpt lat="41.9304450" lon="1.9093890">
<ele>557.265869</ele>
<time>2022-09-08T07:38:30.002Z</time>
</trkpt>
<trkpt lat="41.9304250" lon="1.9093970">
<ele>556.991516</ele>
<time>2022-09-08T07:38:31.004Z</time>
</trkpt>
<trkpt lat="41.9304030" lon="1.9094050">
<ele>556.839111</ele>
<time>2022-09-08T07:38:31.998Z</time>
</trkpt>
<trkpt lat="41.9303800" lon="1.9094100">
<ele>556.747681</ele>
<time>2022-09-08T07:38:33.000Z</time>
</trkpt>
<trkpt lat="41.9303560" lon="1.9094150">
<ele>556.625732</ele>
<time>2022-09-08T07:38:34.002Z</time>
</trkpt>
<trkpt lat="41.9303300" lon="1.9094210">
<ele>556.473328</ele>
<time>2022-09-08T07:38:34.996Z</time>
</trkpt>
<trkpt lat="41.9302950" lon="1.9094280">
<ele>556.229553</ele>
<time>2022-09-08T07:38:35.998Z</time>
</trkpt>
<trkpt lat="41.9302680" lon="1.9094330">
<ele>556.016174</ele>
<time>2022-09-08T07:38:37.000Z</time>
</trkpt>
<trkpt lat="41.9302380" lon="1.9094380">
<ele>555.741882</ele>
<time>2022-09-08T07:38:38.003Z</time>
</trkpt>
<trkpt lat="41.9302130" lon="1.9094400">
<ele>555.497986</ele>
<time>2022-09-08T07:38:38.996Z</time>
</trkpt>
<trkpt lat="41.9301890" lon="1.9094410">
<ele>555.223694</ele>
<time>2022-09-08T07:38:39.998Z</time>
</trkpt>
<trkpt lat="41.9301620" lon="1.9094360">
<ele>554.949341</ele>
<time>2022-09-08T07:38:41.001Z</time>
</trkpt>
<trkpt lat="41.9301420" lon="1.9094260">
<ele>554.766479</ele>
<time>2022-09-08T07:38:42.003Z</time>
</trkpt>
<trkpt lat="41.9301210" lon="1.9094170">
<ele>554.553101</ele>
<time>2022-09-08T07:38:42.996Z</time>
</trkpt>
<trkpt lat="41.9301080" lon="1.9094100">
<ele>554.370239</ele>
<time>2022-09-08T07:38:43.999Z</time>
</trkpt>
<trkpt lat="41.9300940" lon="1.9094030">
<ele>554.248352</ele>
<time>2022-09-08T07:38:45.001Z</time>
</trkpt>
<trkpt lat="41.9300750" lon="1.9093870">
<ele>554.004456</ele>
<time>2022-09-08T07:38:46.003Z</time>
</trkpt>
<trkpt lat="41.9300620" lon="1.9093700">
<ele>553.791138</ele>
<time>2022-09-08T07:38:46.997Z</time>
</trkpt>
<trkpt lat="41.9300490" lon="1.9093530">
<ele>553.608276</ele>
<time>2022-09-08T07:38:47.999Z</time>
</trkpt>
<trkpt lat="41.9300390" lon="1.9093370">
<ele>553.425354</ele>
<time>2022-09-08T07:38:49.001Z</time>
</trkpt>
<trkpt lat="41.9300270" lon="1.9093140">
<ele>553.211975</ele>
<time>2022-09-08T07:38:50.004Z</time>
</trkpt>
<trkpt lat="41.9300180" lon="1.9092950">
<ele>553.059570</ele>
<time>2022-09-08T07:38:50.997Z</time>
</trkpt>
<trkpt lat="41.9300110" lon="1.9092780">
<ele>552.907227</ele>
<time>2022-09-08T07:38:51.999Z</time>
</trkpt>
<trkpt lat="41.9300040" lon="1.9092610">
<ele>552.724304</ele>
<time>2022-09-08T07:38:53.002Z</time>
</trkpt>
<trkpt lat="41.9300000" lon="1.9092500">
<ele>552.602417</ele>
<time>2022-09-08T07:38:54.004Z</time>
</trkpt>
<trkpt lat="41.9300040" lon="1.9092380">
<ele>552.663330</ele>
<time>2022-09-08T07:38:54.997Z</time>
</trkpt>
<trkpt lat="41.9300040" lon="1.9092290">
<ele>552.632874</ele>
<time>2022-09-08T07:38:56.000Z</time>
</trkpt>
<trkpt lat="41.9300040" lon="1.9092290">
<ele>552.632874</ele>
<time>2022-09-08T07:38:57.002Z</time>
</trkpt>
<trkpt lat="41.9300040" lon="1.9091600">
<ele>552.358521</ele>
<time>2022-09-08T07:39:43.001Z</time>
</trkpt>
<trkpt lat="41.9300060" lon="1.9091100">
<ele>552.145203</ele>
<time>2022-09-08T07:39:44.004Z</time>
</trkpt>
<trkpt lat="41.9300100" lon="1.9090420">
<ele>551.962341</ele>
<time>2022-09-08T07:39:44.997Z</time>
</trkpt>
<trkpt lat="41.9300150" lon="1.9089780">
<ele>551.687988</ele>
<time>2022-09-08T07:39:45.999Z</time>
</trkpt>
<trkpt lat="41.9300190" lon="1.9089210">
<ele>551.474670</ele>
<time>2022-09-08T07:39:47.002Z</time>
</trkpt>
<trkpt lat="41.9300190" lon="1.9088490">
<ele>551.169861</ele>
<time>2022-09-08T07:39:48.004Z</time>
</trkpt>
<trkpt lat="41.9300190" lon="1.9087590">
<ele>550.865051</ele>
<time>2022-09-08T07:39:48.997Z</time>
</trkpt>
<trkpt lat="41.9300180" lon="1.9086920">
<ele>550.926025</ele>
<time>2022-09-08T07:39:50.000Z</time>
</trkpt>
<trkpt lat="41.9300200" lon="1.9085910">
<ele>551.169861</ele>
<time>2022-09-08T07:39:51.002Z</time>
</trkpt>
<trkpt lat="41.9300250" lon="1.9085200">
<ele>551.505127</ele>
<time>2022-09-08T07:39:52.004Z</time>
</trkpt>
<trkpt lat="41.9300300" lon="1.9084340">
<ele>551.962341</ele>
<time>2022-09-08T07:39:52.998Z</time>
</trkpt>
<trkpt lat="41.9300320" lon="1.9083460">
<ele>552.358521</ele>
<time>2022-09-08T07:39:54.000Z</time>
</trkpt>
<trkpt lat="41.9300280" lon="1.9082380">
<ele>552.785278</ele>
<time>2022-09-08T07:39:55.002Z</time>
</trkpt>
<trkpt lat="41.9300200" lon="1.9081450">
<ele>553.090088</ele>
<time>2022-09-08T07:39:55.996Z</time>
</trkpt>
<trkpt lat="41.9300160" lon="1.9080710">
<ele>553.333923</ele>
<time>2022-09-08T07:39:56.998Z</time>
</trkpt>
<trkpt lat="41.9300080" lon="1.9079790">
<ele>553.547302</ele>
<time>2022-09-08T07:39:58.000Z</time>
</trkpt>
<trkpt lat="41.9300020" lon="1.9078850">
<ele>553.699646</ele>
<time>2022-09-08T07:39:59.003Z</time>
</trkpt>
<trkpt lat="41.9300010" lon="1.9078120">
<ele>553.852051</ele>
<time>2022-09-08T07:39:59.996Z</time>
</trkpt>
<trkpt lat="41.9300040" lon="1.9077520">
<ele>553.973999</ele>
<time>2022-09-08T07:40:00.998Z</time>
</trkpt>
<trkpt lat="41.9300060" lon="1.9076820">
<ele>554.004456</ele>
<time>2022-09-08T07:40:02.001Z</time>
</trkpt>
<trkpt lat="41.9300040" lon="1.9076210">
<ele>554.004456</ele>
<time>2022-09-08T07:40:03.003Z</time>
</trkpt>
<trkpt lat="41.9300010" lon="1.9075710">
<ele>553.913025</ele>
<time>2022-09-08T07:40:03.996Z</time>
</trkpt>
<trkpt lat="41.9299920" lon="1.9075300">
<ele>553.791138</ele>
<time>2022-09-08T07:40:04.999Z</time>
</trkpt>
<trkpt lat="41.9299780" lon="1.9074930">
<ele>553.608276</ele>
<time>2022-09-08T07:40:06.001Z</time>
</trkpt>
<trkpt lat="41.9299580" lon="1.9074530">
<ele>553.333923</ele>
<time>2022-09-08T07:40:07.003Z</time>
</trkpt>
<trkpt lat="41.9299300" lon="1.9074090">
<ele>552.968140</ele>
<time>2022-09-08T07:40:07.997Z</time>
</trkpt>
<trkpt lat="41.9299010" lon="1.9073660">
<ele>552.510925</ele>
<time>2022-09-08T07:40:08.999Z</time>
</trkpt>
<trkpt lat="41.9298570" lon="1.9073190">
<ele>551.840393</ele>
<time>2022-09-08T07:40:10.001Z</time>
</trkpt>
<trkpt lat="41.9298190" lon="1.9072940">
<ele>551.230774</ele>
<time>2022-09-08T07:40:11.004Z</time>
</trkpt>
<trkpt lat="41.9297710" lon="1.9072620">
<ele>550.438354</ele>
<time>2022-09-08T07:40:11.997Z</time>
</trkpt>
<trkpt lat="41.9297220" lon="1.9072120">
<ele>549.554382</ele>
<time>2022-09-08T07:40:12.999Z</time>
</trkpt>
<trkpt lat="41.9296920" lon="1.9071620">
<ele>549.036255</ele>
<time>2022-09-08T07:40:14.002Z</time>
</trkpt>
<trkpt lat="41.9296720" lon="1.9071050">
<ele>548.761902</ele>
<time>2022-09-08T07:40:15.004Z</time>
</trkpt>
<trkpt lat="41.9296550" lon="1.9070520">
<ele>548.548523</ele>
<time>2022-09-08T07:40:15.997Z</time>
</trkpt>
<trkpt lat="41.9296320" lon="1.9069870">
<ele>548.335205</ele>
<time>2022-09-08T07:40:17.000Z</time>
</trkpt>
<trkpt lat="41.9296020" lon="1.9069290">
<ele>548.060852</ele>
<time>2022-09-08T07:40:18.002Z</time>
</trkpt>
<trkpt lat="41.9295630" lon="1.9068880">
<ele>547.756042</ele>
<time>2022-09-08T07:40:19.004Z</time>
</trkpt>
<trkpt lat="41.9295250" lon="1.9068520">
<ele>547.664673</ele>
<time>2022-09-08T07:40:19.998Z</time>
</trkpt>
<trkpt lat="41.9294850" lon="1.9067980">
<ele>547.603699</ele>
<time>2022-09-08T07:40:21.000Z</time>
</trkpt>
<trkpt lat="41.9294610" lon="1.9067280">
<ele>547.786560</ele>
<time>2022-09-08T07:40:22.002Z</time>
</trkpt>
<trkpt lat="41.9294540" lon="1.9066320">
<ele>548.213257</ele>
<time>2022-09-08T07:40:22.996Z</time>
</trkpt>
<trkpt lat="41.9294470" lon="1.9065490">
<ele>548.609497</ele>
<time>2022-09-08T07:40:23.998Z</time>
</trkpt>
<trkpt lat="41.9294260" lon="1.9064740">
<ele>548.822876</ele>
<time>2022-09-08T07:40:25.000Z</time>
</trkpt>
<trkpt lat="41.9294040" lon="1.9064130">
<ele>548.975281</ele>
<time>2022-09-08T07:40:26.003Z</time>
</trkpt>
<trkpt lat="41.9293840" lon="1.9063240">
<ele>549.310547</ele>
<time>2022-09-08T07:40:26.996Z</time>
</trkpt>
<trkpt lat="41.9293720" lon="1.9062460">
<ele>549.706787</ele>
<time>2022-09-08T07:40:27.998Z</time>
</trkpt>
<trkpt lat="41.9293640" lon="1.9061590">
<ele>550.377319</ele>
<time>2022-09-08T07:40:29.001Z</time>
</trkpt>
<trkpt lat="41.9293470" lon="1.9061070">
<ele>550.682129</ele>
<time>2022-09-08T07:40:30.003Z</time>
</trkpt>
<trkpt lat="41.9293200" lon="1.9060620">
<ele>550.743103</ele>
<time>2022-09-08T07:40:30.996Z</time>
</trkpt>
<trkpt lat="41.9293200" lon="1.9060620">
<ele>550.743103</ele>
<time>2022-09-08T07:40:31.999Z</time>
</trkpt>
<trkpt lat="41.9292590" lon="1.9059490">
<ele>550.926025</ele>
<time>2022-09-08T07:40:33.001Z</time>
</trkpt>
<trkpt lat="41.9292340" lon="1.9058810">
<ele>551.078430</ele>
<time>2022-09-08T07:40:34.003Z</time>
</trkpt>
<trkpt lat="41.9292110" lon="1.9058180">
<ele>551.230774</ele>
<time>2022-09-08T07:40:34.997Z</time>
</trkpt>
<trkpt lat="41.9291810" lon="1.9057440">
<ele>551.291748</ele>
<time>2022-09-08T07:40:35.999Z</time>
</trkpt>
<trkpt lat="41.9291700" lon="1.9056500">
<ele>551.779480</ele>
<time>2022-09-08T07:40:37.001Z</time>
</trkpt>
<trkpt lat="41.9291830" lon="1.9055950">
<ele>552.358521</ele>
<time>2022-09-08T07:40:38.004Z</time>
</trkpt>
<trkpt lat="41.9292100" lon="1.9055630">
<ele>552.937683</ele>
<time>2022-09-08T07:40:38.997Z</time>
</trkpt>
<trkpt lat="41.9292300" lon="1.9055360">
<ele>553.303467</ele>
<time>2022-09-08T07:40:39.999Z</time>
</trkpt>
<trkpt lat="41.9292460" lon="1.9054980">
<ele>553.638733</ele>
<time>2022-09-08T07:40:41.002Z</time>
</trkpt>
<trkpt lat="41.9292500" lon="1.9054400">
<ele>553.852051</ele>
<time>2022-09-08T07:40:42.004Z</time>
</trkpt>
<trkpt lat="41.9292440" lon="1.9053890">
<ele>554.065430</ele>
<time>2022-09-08T07:40:42.997Z</time>
</trkpt>
<trkpt lat="41.9292380" lon="1.9053500">
<ele>554.248352</ele>
<time>2022-09-08T07:40:44.000Z</time>
</trkpt>
<trkpt lat="41.9292310" lon="1.9053030">
<ele>554.431213</ele>
<time>2022-09-08T07:40:45.002Z</time>
</trkpt>
<trkpt lat="41.9292290" lon="1.9052570">
<ele>554.644531</ele>
<time>2022-09-08T07:40:46.004Z</time>
</trkpt>
<trkpt lat="41.9292360" lon="1.9052100">
<ele>554.857910</ele>
<time>2022-09-08T07:40:46.998Z</time>
</trkpt>
<trkpt lat="41.9292470" lon="1.9051680">
<ele>555.071289</ele>
<time>2022-09-08T07:40:48.000Z</time>
</trkpt>
<trkpt lat="41.9292530" lon="1.9051280">
<ele>555.162720</ele>
<time>2022-09-08T07:40:49.002Z</time>
</trkpt>
<trkpt lat="41.9292590" lon="1.9050850">
<ele>555.254150</ele>
<time>2022-09-08T07:40:49.996Z</time>
</trkpt>
<trkpt lat="41.9292600" lon="1.9050260">
<ele>555.223694</ele>
<time>2022-09-08T07:40:50.998Z</time>
</trkpt>
<trkpt lat="41.9292550" lon="1.9049510">
<ele>555.071289</ele>
<time>2022-09-08T07:40:52.000Z</time>
</trkpt>
<trkpt lat="41.9292510" lon="1.9049000">
<ele>554.888428</ele>
<time>2022-09-08T07:40:53.003Z</time>
</trkpt>
<trkpt lat="41.9292480" lon="1.9048300">
<ele>554.553101</ele>
<time>2022-09-08T07:40:53.996Z</time>
</trkpt>
<trkpt lat="41.9292400" lon="1.9047570">
<ele>554.065430</ele>
<time>2022-09-08T07:40:54.998Z</time>
</trkpt>
<trkpt lat="41.9292190" lon="1.9046720">
<ele>553.181519</ele>
<time>2022-09-08T07:40:56.001Z</time>
</trkpt>
<trkpt lat="41.9291840" lon="1.9045670">
<ele>551.840393</ele>
<time>2022-09-08T07:40:57.003Z</time>
</trkpt>
<trkpt lat="41.9291730" lon="1.9044810">
<ele>551.108887</ele>
<time>2022-09-08T07:40:57.996Z</time>
</trkpt>
<trkpt lat="41.9291860" lon="1.9044140">
<ele>550.682129</ele>
<time>2022-09-08T07:40:58.999Z</time>
</trkpt>
<trkpt lat="41.9292040" lon="1.9043230">
<ele>549.920166</ele>
<time>2022-09-08T07:41:00.001Z</time>
</trkpt>
<trkpt lat="41.9292160" lon="1.9042720">
<ele>549.401978</ele>
<time>2022-09-08T07:41:01.003Z</time>
</trkpt>
<trkpt lat="41.9292280" lon="1.9041920">
<ele>548.487610</ele>
<time>2022-09-08T07:41:01.997Z</time>
</trkpt>
<trkpt lat="41.9292220" lon="1.9041310">
<ele>547.634155</ele>
<time>2022-09-08T07:41:02.999Z</time>
</trkpt>
<trkpt lat="41.9292040" lon="1.9040780">
<ele>546.811218</ele>
<time>2022-09-08T07:41:04.001Z</time>
</trkpt>
<trkpt lat="41.9291730" lon="1.9040090">
<ele>545.652954</ele>
<time>2022-09-08T07:41:05.004Z</time>
</trkpt>
<trkpt lat="41.9291350" lon="1.9039320">
<ele>544.281372</ele>
<time>2022-09-08T07:41:05.997Z</time>
</trkpt>
<trkpt lat="41.9291060" lon="1.9038670">
<ele>543.092651</ele>
<time>2022-09-08T07:41:06.999Z</time>
</trkpt>
<trkpt lat="41.9290830" lon="1.9037950">
<ele>541.781982</ele>
<time>2022-09-08T07:41:08.002Z</time>
</trkpt>
<trkpt lat="41.9290640" lon="1.9037310">
<ele>540.654236</ele>
<time>2022-09-08T07:41:09.004Z</time>
</trkpt>
<trkpt lat="41.9290300" lon="1.9036490">
<ele>539.221680</ele>
<time>2022-09-08T07:41:09.997Z</time>
</trkpt>
<trkpt lat="41.9289770" lon="1.9035640">
<ele>537.545288</ele>
<time>2022-09-08T07:41:11.000Z</time>
</trkpt>
<trkpt lat="41.9289240" lon="1.9034930">
<ele>535.990784</ele>
<time>2022-09-08T07:41:12.002Z</time>
</trkpt>
<trkpt lat="41.9288880" lon="1.9034110">
<ele>534.466797</ele>
<time>2022-09-08T07:41:13.004Z</time>
</trkpt>
<trkpt lat="41.9288790" lon="1.9033320">
<ele>533.430481</ele>
<time>2022-09-08T07:41:13.998Z</time>
</trkpt>
<trkpt lat="41.9288610" lon="1.9032400">
<ele>532.119873</ele>
<time>2022-09-08T07:41:15.000Z</time>
</trkpt>
<trkpt lat="41.9288320" lon="1.9031570">
<ele>530.778748</ele>
<time>2022-09-08T07:41:16.002Z</time>
</trkpt>
<trkpt lat="41.9288020" lon="1.9030890">
<ele>529.559509</ele>
<time>2022-09-08T07:41:16.996Z</time>
</trkpt>
<trkpt lat="41.9287910" lon="1.9030250">
<ele>528.706055</ele>
<time>2022-09-08T07:41:17.998Z</time>
</trkpt>
<trkpt lat="41.9287930" lon="1.9029660">
<ele>528.218384</ele>
<time>2022-09-08T07:41:19.000Z</time>
</trkpt>
<trkpt lat="41.9287970" lon="1.9028880">
<ele>527.517334</ele>
<time>2022-09-08T07:41:20.003Z</time>
</trkpt>
<trkpt lat="41.9287970" lon="1.9027950">
<ele>526.724854</ele>
<time>2022-09-08T07:41:20.996Z</time>
</trkpt>
<trkpt lat="41.9287850" lon="1.9027040">
<ele>525.932373</ele>
<time>2022-09-08T07:41:21.998Z</time>
</trkpt>
<trkpt lat="41.9287640" lon="1.9026320">
<ele>525.353271</ele>
<time>2022-09-08T07:41:23.001Z</time>
</trkpt>
<trkpt lat="41.9287450" lon="1.9025520">
<ele>524.896057</ele>
<time>2022-09-08T07:41:24.003Z</time>
</trkpt>
<trkpt lat="41.9287210" lon="1.9024700">
<ele>524.804626</ele>
<time>2022-09-08T07:41:24.996Z</time>
</trkpt>
<trkpt lat="41.9287010" lon="1.9023820">
<ele>524.774170</ele>
<time>2022-09-08T07:41:25.999Z</time>
</trkpt>
<trkpt lat="41.9286790" lon="1.9022560">
<ele>524.743652</ele>
<time>2022-09-08T07:41:27.001Z</time>
</trkpt>
<trkpt lat="41.9286590" lon="1.9021700">
<ele>524.713196</ele>
<time>2022-09-08T07:41:28.003Z</time>
</trkpt>
<trkpt lat="41.9286380" lon="1.9020590">
<ele>524.621765</ele>
<time>2022-09-08T07:41:28.997Z</time>
</trkpt>
<trkpt lat="41.9286270" lon="1.9019710">
<ele>524.469360</ele>
<time>2022-09-08T07:41:29.999Z</time>
</trkpt>
<trkpt lat="41.9286160" lon="1.9018820">
<ele>524.377930</ele>
<time>2022-09-08T07:41:31.001Z</time>
</trkpt>
<trkpt lat="41.9286060" lon="1.9017610">
<ele>524.286499</ele>
<time>2022-09-08T07:41:32.004Z</time>
</trkpt>
<trkpt lat="41.9286030" lon="1.9016710">
<ele>524.164551</ele>
<time>2022-09-08T07:41:32.997Z</time>
</trkpt>
<trkpt lat="41.9286040" lon="1.9015590">
<ele>523.981689</ele>
<time>2022-09-08T07:41:33.999Z</time>
</trkpt>
<trkpt lat="41.9286040" lon="1.9015590">
<ele>523.981689</ele>
<time>2022-09-08T07:41:35.002Z</time>
</trkpt>
<trkpt lat="41.9285870" lon="1.9013880">
<ele>523.524475</ele>
<time>2022-09-08T07:41:36.004Z</time>
</trkpt>
<trkpt lat="41.9285720" lon="1.9013420">
<ele>523.372070</ele>
<time>2022-09-08T07:41:36.997Z</time>
</trkpt>
<trkpt lat="41.9285610" lon="1.9013250">
<ele>523.341614</ele>
<time>2022-09-08T07:41:38.000Z</time>
</trkpt>
<trkpt lat="41.9285530" lon="1.9013090">
<ele>523.280640</ele>
<time>2022-09-08T07:41:39.002Z</time>
</trkpt>
<trkpt lat="41.9285480" lon="1.9012990">
<ele>523.250122</ele>
<time>2022-09-08T07:41:40.004Z</time>
</trkpt>
<trkpt lat="41.9285450" lon="1.9012940">
<ele>523.250122</ele>
<time>2022-09-08T07:41:40.998Z</time>
</trkpt>
<trkpt lat="41.9285450" lon="1.9012940">
<ele>523.250122</ele>
<time>2022-09-08T07:41:42.000Z</time>
</trkpt>
<trkpt lat="41.9285450" lon="1.9012940">
<ele>523.250122</ele>
<time>2022-09-08T07:41:43.002Z</time>
</trkpt>
<trkpt lat="41.9285350" lon="1.9012700">
<ele>523.128235</ele>
<time>2022-09-08T07:47:53.002Z</time>
</trkpt>
<trkpt lat="41.9285270" lon="1.9012400">
<ele>522.975830</ele>
<time>2022-09-08T07:47:54.004Z</time>
</trkpt>
<trkpt lat="41.9285190" lon="1.9011950">
<ele>522.731995</ele>
<time>2022-09-08T07:47:54.997Z</time>
</trkpt>
<trkpt lat="41.9285070" lon="1.9011490">
<ele>522.457703</ele>
<time>2022-09-08T07:47:56.000Z</time>
</trkpt>
<trkpt lat="41.9284880" lon="1.9010860">
<ele>522.000488</ele>
<time>2022-09-08T07:47:57.002Z</time>
</trkpt>
<trkpt lat="41.9284600" lon="1.9010140">
<ele>521.329956</ele>
<time>2022-09-08T07:47:58.004Z</time>
</trkpt>
<trkpt lat="41.9284180" lon="1.9009280">
<ele>520.293579</ele>
<time>2022-09-08T07:47:58.998Z</time>
</trkpt>
<trkpt lat="41.9283890" lon="1.9008710">
<ele>519.470642</ele>
<time>2022-09-08T07:48:00.000Z</time>
</trkpt>
<trkpt lat="41.9283540" lon="1.9007960">
<ele>518.190491</ele>
<time>2022-09-08T07:48:01.002Z</time>
</trkpt>
<trkpt lat="41.9283240" lon="1.9007150">
<ele>516.849365</ele>
<time>2022-09-08T07:48:01.996Z</time>
</trkpt>
<trkpt lat="41.9282930" lon="1.9006100">
<ele>514.990051</ele>
<time>2022-09-08T07:48:02.998Z</time>
</trkpt>
<trkpt lat="41.9282660" lon="1.9005180">
<ele>513.313660</ele>
<time>2022-09-08T07:48:04.000Z</time>
</trkpt>
<trkpt lat="41.9282560" lon="1.9004560">
<ele>512.399292</ele>
<time>2022-09-08T07:48:05.003Z</time>
</trkpt>
<trkpt lat="41.9282550" lon="1.9003780">
<ele>511.454407</ele>
<time>2022-09-08T07:48:05.996Z</time>
</trkpt>
<trkpt lat="41.9282430" lon="1.9002900">
<ele>510.326660</ele>
<time>2022-09-08T07:48:06.998Z</time>
</trkpt>
<trkpt lat="41.9282280" lon="1.9001880">
<ele>509.107452</ele>
<time>2022-09-08T07:48:08.001Z</time>
</trkpt>
<trkpt lat="41.9282220" lon="1.9001090">
<ele>508.436859</ele>
<time>2022-09-08T07:48:09.003Z</time>
</trkpt>
<trkpt lat="41.9282210" lon="1.9000610">
<ele>508.162537</ele>
<time>2022-09-08T07:48:09.996Z</time>
</trkpt>
<trkpt lat="41.9282150" lon="1.8999930">
<ele>507.583466</ele>
<time>2022-09-08T07:48:10.999Z</time>
</trkpt>
<trkpt lat="41.9282030" lon="1.8999100">
<ele>506.943359</ele>
<time>2022-09-08T07:48:12.001Z</time>
</trkpt>
<trkpt lat="41.9281740" lon="1.8998060">
<ele>505.846069</ele>
<time>2022-09-08T07:48:13.003Z</time>
</trkpt>
<trkpt lat="41.9281520" lon="1.8997120">
<ele>505.084076</ele>
<time>2022-09-08T07:48:13.997Z</time>
</trkpt>
<trkpt lat="41.9281340" lon="1.8996350">
<ele>504.626862</ele>
<time>2022-09-08T07:48:14.999Z</time>
</trkpt>
<trkpt lat="41.9281120" lon="1.8995500">
<ele>504.017273</ele>
<time>2022-09-08T07:48:16.001Z</time>
</trkpt>
<trkpt lat="41.9280900" lon="1.8994360">
<ele>503.590546</ele>
<time>2022-09-08T07:48:17.004Z</time>
</trkpt>
<trkpt lat="41.9280780" lon="1.8993310">
<ele>503.682007</ele>
<time>2022-09-08T07:48:17.997Z</time>
</trkpt>
<trkpt lat="41.9280740" lon="1.8992430">
<ele>504.047760</ele>
<time>2022-09-08T07:48:18.999Z</time>
</trkpt>
<trkpt lat="41.9280650" lon="1.8991900">
<ele>504.200134</ele>
<time>2022-09-08T07:48:20.002Z</time>
</trkpt>
<trkpt lat="41.9280630" lon="1.8991370">
<ele>504.413513</ele>
<time>2022-09-08T07:48:21.004Z</time>
</trkpt>
<trkpt lat="41.9280540" lon="1.8990890">
<ele>504.535461</ele>
<time>2022-09-08T07:48:21.997Z</time>
</trkpt>
<trkpt lat="41.9280310" lon="1.8990370">
<ele>504.322083</ele>
<time>2022-09-08T07:48:23.000Z</time>
</trkpt>
<trkpt lat="41.9280020" lon="1.8989830">
<ele>503.895355</ele>
<time>2022-09-08T07:48:24.002Z</time>
</trkpt>
<trkpt lat="41.9279930" lon="1.8989400">
<ele>503.986786</ele>
<time>2022-09-08T07:48:25.004Z</time>
</trkpt>
<trkpt lat="41.9279780" lon="1.8988840">
<ele>503.925842</ele>
<time>2022-09-08T07:48:25.998Z</time>
</trkpt>
<trkpt lat="41.9279890" lon="1.8988310">
<ele>504.474487</ele>
<time>2022-09-08T07:48:27.000Z</time>
</trkpt>
<trkpt lat="41.9280040" lon="1.8987800">
<ele>504.992645</ele>
<time>2022-09-08T07:48:28.002Z</time>
</trkpt>
<trkpt lat="41.9280200" lon="1.8987180">
<ele>505.510803</ele>
<time>2022-09-08T07:48:28.996Z</time>
</trkpt>
<trkpt lat="41.9280230" lon="1.8986710">
<ele>505.693665</ele>
<time>2022-09-08T07:48:29.998Z</time>
</trkpt>
<trkpt lat="41.9280150" lon="1.8985970">
<ele>505.693665</ele>
<time>2022-09-08T07:48:31.000Z</time>
</trkpt>
<trkpt lat="41.9280030" lon="1.8985010">
<ele>505.480316</ele>
<time>2022-09-08T07:48:32.003Z</time>
</trkpt>
<trkpt lat="41.9279880" lon="1.8984150">
<ele>505.145050</ele>
<time>2022-09-08T07:48:32.996Z</time>
</trkpt>
<trkpt lat="41.9279730" lon="1.8983250">
<ele>504.718323</ele>
<time>2022-09-08T07:48:33.998Z</time>
</trkpt>
<trkpt lat="41.9279690" lon="1.8982550">
<ele>504.383057</ele>
<time>2022-09-08T07:48:35.001Z</time>
</trkpt>
<trkpt lat="41.9279700" lon="1.8981690">
<ele>503.834412</ele>
<time>2022-09-08T07:48:36.003Z</time>
</trkpt>
<trkpt lat="41.9279780" lon="1.8980730">
<ele>503.102875</ele>
<time>2022-09-08T07:48:36.996Z</time>
</trkpt>
<trkpt lat="41.9279840" lon="1.8979860">
<ele>502.188477</ele>
<time>2022-09-08T07:48:37.999Z</time>
</trkpt>
<trkpt lat="41.9279840" lon="1.8979140">
<ele>501.243591</ele>
<time>2022-09-08T07:48:39.001Z</time>
</trkpt>
<trkpt lat="41.9279830" lon="1.8978220">
<ele>500.390137</ele>
<time>2022-09-08T07:48:40.003Z</time>
</trkpt>
<trkpt lat="41.9279770" lon="1.8977380">
<ele>499.475739</ele>
<time>2022-09-08T07:48:40.997Z</time>
</trkpt>
<trkpt lat="41.9279560" lon="1.8976420">
<ele>498.439453</ele>
<time>2022-09-08T07:48:41.999Z</time>
</trkpt>
<trkpt lat="41.9279320" lon="1.8975700">
<ele>497.616486</ele>
<time>2022-09-08T07:48:43.001Z</time>
</trkpt>
<trkpt lat="41.9279050" lon="1.8975140">
<ele>497.128815</ele>
<time>2022-09-08T07:48:44.004Z</time>
</trkpt>
<trkpt lat="41.9278700" lon="1.8974530">
<ele>496.793518</ele>
<time>2022-09-08T07:48:44.997Z</time>
</trkpt>
<trkpt lat="41.9278240" lon="1.8974080">
<ele>496.854462</ele>
<time>2022-09-08T07:48:45.999Z</time>
</trkpt>
<trkpt lat="41.9277830" lon="1.8973870">
<ele>497.037354</ele>
<time>2022-09-08T07:48:47.002Z</time>
</trkpt>
<trkpt lat="41.9277420" lon="1.8973630">
<ele>497.159271</ele>
<time>2022-09-08T07:48:48.004Z</time>
</trkpt>
<trkpt lat="41.9277070" lon="1.8973280">
<ele>497.006866</ele>
<time>2022-09-08T07:48:48.997Z</time>
</trkpt>
<trkpt lat="41.9276730" lon="1.8972810">
<ele>496.641113</ele>
<time>2022-09-08T07:48:50.000Z</time>
</trkpt>
<trkpt lat="41.9276270" lon="1.8972160">
<ele>496.001068</ele>
<time>2022-09-08T07:48:51.002Z</time>
</trkpt>
<trkpt lat="41.9275790" lon="1.8971480">
<ele>495.269531</ele>
<time>2022-09-08T07:48:52.004Z</time>
</trkpt>
<trkpt lat="41.9275310" lon="1.8970850">
<ele>494.477051</ele>
<time>2022-09-08T07:48:52.998Z</time>
</trkpt>
<trkpt lat="41.9274900" lon="1.8970490">
<ele>494.263672</ele>
<time>2022-09-08T07:48:54.000Z</time>
</trkpt>
<trkpt lat="41.9274450" lon="1.8969970">
<ele>493.867462</ele>
<time>2022-09-08T07:48:55.002Z</time>
</trkpt>
<trkpt lat="41.9274080" lon="1.8969430">
<ele>493.349274</ele>
<time>2022-09-08T07:48:55.996Z</time>
</trkpt>
<trkpt lat="41.9273840" lon="1.8968970">
<ele>492.800659</ele>
<time>2022-09-08T07:48:56.998Z</time>
</trkpt>
<trkpt lat="41.9273510" lon="1.8968510">
<ele>492.282471</ele>
<time>2022-09-08T07:48:58.000Z</time>
</trkpt>
<trkpt lat="41.9273210" lon="1.8968120">
<ele>491.825287</ele>
<time>2022-09-08T07:48:59.003Z</time>
</trkpt>
<trkpt lat="41.9272810" lon="1.8967820">
<ele>491.611938</ele>
<time>2022-09-08T07:48:59.996Z</time>
</trkpt>
<trkpt lat="41.9272430" lon="1.8967400">
<ele>491.124268</ele>
<time>2022-09-08T07:49:00.998Z</time>
</trkpt>
<trkpt lat="41.9272060" lon="1.8966990">
<ele>490.636536</ele>
<time>2022-09-08T07:49:02.001Z</time>
</trkpt>
<trkpt lat="41.9271690" lon="1.8966730">
<ele>490.362244</ele>
<time>2022-09-08T07:49:03.003Z</time>
</trkpt>
<trkpt lat="41.9271130" lon="1.8966310">
<ele>489.905060</ele>
<time>2022-09-08T07:49:03.996Z</time>
</trkpt>
<trkpt lat="41.9270650" lon="1.8965640">
<ele>489.021118</ele>
<time>2022-09-08T07:49:04.999Z</time>
</trkpt>
<trkpt lat="41.9270430" lon="1.8965020">
<ele>488.106720</ele>
<time>2022-09-08T07:49:06.001Z</time>
</trkpt>
<trkpt lat="41.9270090" lon="1.8964410">
<ele>487.253265</ele>
<time>2022-09-08T07:49:07.003Z</time>
</trkpt>
<trkpt lat="41.9269760" lon="1.8964170">
<ele>487.161865</ele>
<time>2022-09-08T07:49:07.997Z</time>
</trkpt>
<trkpt lat="41.9269220" lon="1.8963950">
<ele>487.283752</ele>
<time>2022-09-08T07:49:08.999Z</time>
</trkpt>
<trkpt lat="41.9268290" lon="1.8963820">
<ele>487.862885</ele>
<time>2022-09-08T07:49:10.001Z</time>
</trkpt>
<trkpt lat="41.9267600" lon="1.8963920">
<ele>488.533447</ele>
<time>2022-09-08T07:49:11.004Z</time>
</trkpt>
<trkpt lat="41.9266890" lon="1.8963910">
<ele>488.868713</ele>
<time>2022-09-08T07:49:11.997Z</time>
</trkpt>
<trkpt lat="41.9266400" lon="1.8963690">
<ele>488.685852</ele>
<time>2022-09-08T07:49:12.999Z</time>
</trkpt>
<trkpt lat="41.9265710" lon="1.8963360">
<ele>488.320068</ele>
<time>2022-09-08T07:49:14.002Z</time>
</trkpt>
<trkpt lat="41.9264890" lon="1.8963180">
<ele>488.137207</ele>
<time>2022-09-08T07:49:15.004Z</time>
</trkpt>
<trkpt lat="41.9264130" lon="1.8962920">
<ele>487.771454</ele>
<time>2022-09-08T07:49:15.997Z</time>
</trkpt>
<trkpt lat="41.9263420" lon="1.8962560">
<ele>487.253265</ele>
<time>2022-09-08T07:49:17.000Z</time>
</trkpt>
<trkpt lat="41.9262760" lon="1.8962170">
<ele>486.948486</ele>
<time>2022-09-08T07:49:18.002Z</time>
</trkpt>
<trkpt lat="41.9262060" lon="1.8961830">
<ele>487.039917</ele>
<time>2022-09-08T07:49:19.004Z</time>
</trkpt>
<trkpt lat="41.9261270" lon="1.8961710">
<ele>487.344727</ele>
<time>2022-09-08T07:49:19.998Z</time>
</trkpt>
<trkpt lat="41.9260640" lon="1.8961660">
<ele>487.527588</ele>
<time>2022-09-08T07:49:21.000Z</time>
</trkpt>
<trkpt lat="41.9260070" lon="1.8961540">
<ele>487.619049</ele>
<time>2022-09-08T07:49:22.002Z</time>
</trkpt>
<trkpt lat="41.9259490" lon="1.8961290">
<ele>487.679993</ele>
<time>2022-09-08T07:49:22.996Z</time>
</trkpt>
<trkpt lat="41.9258990" lon="1.8960940">
<ele>487.771454</ele>
<time>2022-09-08T07:49:23.998Z</time>
</trkpt>
<trkpt lat="41.9258470" lon="1.8960590">
<ele>487.832397</ele>
<time>2022-09-08T07:49:25.000Z</time>
</trkpt>
<trkpt lat="41.9257950" lon="1.8960250">
<ele>487.893341</ele>
<time>2022-09-08T07:49:26.003Z</time>
</trkpt>
<trkpt lat="41.9257600" lon="1.8960000">
<ele>487.893341</ele>
<time>2022-09-08T07:49:26.996Z</time>
</trkpt>
<trkpt lat="41.9257170" lon="1.8959730">
<ele>487.862885</ele>
<time>2022-09-08T07:49:27.998Z</time>
</trkpt>
<trkpt lat="41.9256640" lon="1.8959400">
<ele>487.801941</ele>
<time>2022-09-08T07:49:29.001Z</time>
</trkpt>
<trkpt lat="41.9256260" lon="1.8959370">
<ele>487.588531</ele>
<time>2022-09-08T07:49:30.003Z</time>
</trkpt>
<trkpt lat="41.9255850" lon="1.8959320">
<ele>487.344727</ele>
<time>2022-09-08T07:49:30.996Z</time>
</trkpt>
<trkpt lat="41.9255480" lon="1.8959070">
<ele>487.192322</ele>
<time>2022-09-08T07:49:31.999Z</time>
</trkpt>
<trkpt lat="41.9254970" lon="1.8958620">
<ele>487.039917</ele>
<time>2022-09-08T07:49:33.001Z</time>
</trkpt>
<trkpt lat="41.9254250" lon="1.8958020">
<ele>486.765594</ele>
<time>2022-09-08T07:49:34.003Z</time>
</trkpt>
<trkpt lat="41.9253010" lon="1.8957400">
<ele>486.491272</ele>
<time>2022-09-08T07:49:34.997Z</time>
</trkpt>
<trkpt lat="41.9252350" lon="1.8957150">
<ele>486.186462</ele>
<time>2022-09-08T07:49:35.999Z</time>
</trkpt>
<trkpt lat="41.9251850" lon="1.8956980">
<ele>485.851196</ele>
<time>2022-09-08T07:49:37.001Z</time>
</trkpt>
<trkpt lat="41.9251300" lon="1.8956660">
<ele>485.515930</ele>
<time>2022-09-08T07:49:38.004Z</time>
</trkpt>
<trkpt lat="41.9250780" lon="1.8956160">
<ele>485.333069</ele>
<time>2022-09-08T07:49:38.997Z</time>
</trkpt>
<trkpt lat="41.9250350" lon="1.8955760">
<ele>485.028259</ele>
<time>2022-09-08T07:49:39.999Z</time>
</trkpt>
<trkpt lat="41.9250000" lon="1.8955660">
<ele>484.631989</ele>
<time>2022-09-08T07:49:41.002Z</time>
</trkpt>
<trkpt lat="41.9249460" lon="1.8955590">
<ele>483.900482</ele>
<time>2022-09-08T07:49:42.004Z</time>
</trkpt>
<trkpt lat="41.9248900" lon="1.8955460">
<ele>483.077515</ele>
<time>2022-09-08T07:49:42.997Z</time>
</trkpt>
<trkpt lat="41.9248340" lon="1.8955120">
<ele>482.406952</ele>
<time>2022-09-08T07:49:44.000Z</time>
</trkpt>
<trkpt lat="41.9247910" lon="1.8954730">
<ele>481.797333</ele>
<time>2022-09-08T07:49:45.002Z</time>
</trkpt>
<trkpt lat="41.9247460" lon="1.8954340">
<ele>481.187744</ele>
<time>2022-09-08T07:49:46.004Z</time>
</trkpt>
<trkpt lat="41.9246860" lon="1.8953910">
<ele>480.334320</ele>
<time>2022-09-08T07:49:46.998Z</time>
</trkpt>
<trkpt lat="41.9246210" lon="1.8953590">
<ele>479.298004</ele>
<time>2022-09-08T07:49:48.000Z</time>
</trkpt>
<trkpt lat="41.9245410" lon="1.8953310">
<ele>478.109283</ele>
<time>2022-09-08T07:49:49.002Z</time>
</trkpt>
<trkpt lat="41.9244730" lon="1.8953120">
<ele>477.225342</ele>
<time>2022-09-08T07:49:49.996Z</time>
</trkpt>
<trkpt lat="41.9244200" lon="1.8953000">
<ele>476.493866</ele>
<time>2022-09-08T07:49:50.998Z</time>
</trkpt>
<trkpt lat="41.9243600" lon="1.8952900">
<ele>475.670868</ele>
<time>2022-09-08T07:49:52.000Z</time>
</trkpt>
<trkpt lat="41.9242830" lon="1.8952860">
<ele>474.543121</ele>
<time>2022-09-08T07:49:53.003Z</time>
</trkpt>
<trkpt lat="41.9242160" lon="1.8952930">
<ele>473.537262</ele>
<time>2022-09-08T07:49:53.996Z</time>
</trkpt>
<trkpt lat="41.9241580" lon="1.8952930">
<ele>472.622864</ele>
<time>2022-09-08T07:49:54.998Z</time>
</trkpt>
<trkpt lat="41.9241160" lon="1.8952870">
<ele>471.982788</ele>
<time>2022-09-08T07:49:56.001Z</time>
</trkpt>
<trkpt lat="41.9240540" lon="1.8952760">
<ele>471.037933</ele>
<time>2022-09-08T07:49:57.003Z</time>
</trkpt>
<trkpt lat="41.9239960" lon="1.8952600">
<ele>470.153992</ele>
<time>2022-09-08T07:49:57.996Z</time>
</trkpt>
<trkpt lat="41.9239200" lon="1.8952400">
<ele>468.904327</ele>
<time>2022-09-08T07:49:58.999Z</time>
</trkpt>
<trkpt lat="41.9238570" lon="1.8952160">
<ele>467.898468</ele>
<time>2022-09-08T07:50:00.001Z</time>
</trkpt>
<trkpt lat="41.9238040" lon="1.8951920">
<ele>466.953613</ele>
<time>2022-09-08T07:50:01.003Z</time>
</trkpt>
<trkpt lat="41.9237410" lon="1.8951660">
<ele>465.734406</ele>
<time>2022-09-08T07:50:01.997Z</time>
</trkpt>
<trkpt lat="41.9236850" lon="1.8951430">
<ele>464.606659</ele>
<time>2022-09-08T07:50:02.999Z</time>
</trkpt>
<trkpt lat="41.9236340" lon="1.8951170">
<ele>463.692261</ele>
<time>2022-09-08T07:50:04.001Z</time>
</trkpt>
<trkpt lat="41.9235940" lon="1.8950960">
<ele>462.991211</ele>
<time>2022-09-08T07:50:05.004Z</time>
</trkpt>
<trkpt lat="41.9235650" lon="1.8950770">
<ele>462.473053</ele>
<time>2022-09-08T07:50:05.997Z</time>
</trkpt>
<trkpt lat="41.9235350" lon="1.8950400">
<ele>461.863464</ele>
<time>2022-09-08T07:50:06.999Z</time>
</trkpt>
<trkpt lat="41.9234970" lon="1.8949850">
<ele>461.010010</ele>
<time>2022-09-08T07:50:08.002Z</time>
</trkpt>
<trkpt lat="41.9234520" lon="1.8949330">
<ele>460.065125</ele>
<time>2022-09-08T07:50:09.004Z</time>
</trkpt>
<trkpt lat="41.9234050" lon="1.8948940">
<ele>459.272644</ele>
<time>2022-09-08T07:50:09.997Z</time>
</trkpt>
<trkpt lat="41.9233410" lon="1.8948710">
<ele>458.449677</ele>
<time>2022-09-08T07:50:11.000Z</time>
</trkpt>
<trkpt lat="41.9232760" lon="1.8948550">
<ele>457.809601</ele>
<time>2022-09-08T07:50:12.002Z</time>
</trkpt>
<trkpt lat="41.9231840" lon="1.8948360">
<ele>457.017120</ele>
<time>2022-09-08T07:50:13.004Z</time>
</trkpt>
<trkpt lat="41.9231170" lon="1.8948040">
<ele>456.407532</ele>
<time>2022-09-08T07:50:13.998Z</time>
</trkpt>
<trkpt lat="41.9230490" lon="1.8947580">
<ele>455.767456</ele>
<time>2022-09-08T07:50:15.000Z</time>
</trkpt>
<trkpt lat="41.9230160" lon="1.8947390">
<ele>455.523590</ele>
<time>2022-09-08T07:50:16.002Z</time>
</trkpt>
<trkpt lat="41.9229790" lon="1.8947210">
<ele>455.249268</ele>
<time>2022-09-08T07:50:16.996Z</time>
</trkpt>
<trkpt lat="41.9229310" lon="1.8947000">
<ele>454.974945</ele>
<time>2022-09-08T07:50:17.998Z</time>
</trkpt>
<trkpt lat="41.9228940" lon="1.8946880">
<ele>454.731140</ele>
<time>2022-09-08T07:50:19.000Z</time>
</trkpt>
<trkpt lat="41.9228510" lon="1.8946690">
<ele>454.426331</ele>
<time>2022-09-08T07:50:20.003Z</time>
</trkpt>
<trkpt lat="41.9227870" lon="1.8946400">
<ele>454.091064</ele>
<time>2022-09-08T07:50:20.996Z</time>
</trkpt>
<trkpt lat="41.9227170" lon="1.8946030">
<ele>453.755737</ele>
<time>2022-09-08T07:50:21.998Z</time>
</trkpt>
<trkpt lat="41.9226380" lon="1.8945450">
<ele>453.694794</ele>
<time>2022-09-08T07:50:23.001Z</time>
</trkpt>
<trkpt lat="41.9225850" lon="1.8945060">
<ele>453.786255</ele>
<time>2022-09-08T07:50:24.003Z</time>
</trkpt>
<trkpt lat="41.9225420" lon="1.8944800">
<ele>453.816742</ele>
<time>2022-09-08T07:50:24.996Z</time>
</trkpt>
<trkpt lat="41.9224850" lon="1.8944570">
<ele>453.877686</ele>
<time>2022-09-08T07:50:25.999Z</time>
</trkpt>
<trkpt lat="41.9224190" lon="1.8944360">
<ele>453.969116</ele>
<time>2022-09-08T07:50:27.001Z</time>
</trkpt>
<trkpt lat="41.9223460" lon="1.8944180">
<ele>454.030060</ele>
<time>2022-09-08T07:50:28.003Z</time>
</trkpt>
<trkpt lat="41.9222870" lon="1.8943950">
<ele>453.999603</ele>
<time>2022-09-08T07:50:28.997Z</time>
</trkpt>
<trkpt lat="41.9222380" lon="1.8943810">
<ele>453.969116</ele>
<time>2022-09-08T07:50:29.999Z</time>
</trkpt>
<trkpt lat="41.9221660" lon="1.8943720">
<ele>453.908142</ele>
<time>2022-09-08T07:50:31.001Z</time>
</trkpt>
<trkpt lat="41.9220810" lon="1.8943640">
<ele>453.694794</ele>
<time>2022-09-08T07:50:32.004Z</time>
</trkpt>
<trkpt lat="41.9220090" lon="1.8943670">
<ele>453.572876</ele>
<time>2022-09-08T07:50:32.997Z</time>
</trkpt>
<trkpt lat="41.9219360" lon="1.8943590">
<ele>453.390015</ele>
<time>2022-09-08T07:50:33.999Z</time>
</trkpt>
<trkpt lat="41.9218790" lon="1.8943470">
<ele>453.176666</ele>
<time>2022-09-08T07:50:35.002Z</time>
</trkpt>
<trkpt lat="41.9217810" lon="1.8943360">
<ele>452.719452</ele>
<time>2022-09-08T07:50:36.004Z</time>
</trkpt>
<trkpt lat="41.9216940" lon="1.8943360">
<ele>452.201263</ele>
<time>2022-09-08T07:50:36.997Z</time>
</trkpt>
<trkpt lat="41.9216480" lon="1.8943480">
<ele>451.805054</ele>
<time>2022-09-08T07:50:38.000Z</time>
</trkpt>
<trkpt lat="41.9216090" lon="1.8943530">
<ele>451.439270</ele>
<time>2022-09-08T07:50:39.002Z</time>
</trkpt>
<trkpt lat="41.9215720" lon="1.8943540">
<ele>451.104004</ele>
<time>2022-09-08T07:50:40.004Z</time>
</trkpt>
<trkpt lat="41.9215370" lon="1.8943520">
<ele>450.707733</ele>
<time>2022-09-08T07:50:40.998Z</time>
</trkpt>
<trkpt lat="41.9215000" lon="1.8943530">
<ele>450.342010</ele>
<time>2022-09-08T07:50:42.000Z</time>
</trkpt>
<trkpt lat="41.9214630" lon="1.8943530">
<ele>449.854340</ele>
<time>2022-09-08T07:50:43.002Z</time>
</trkpt>
<trkpt lat="41.9214150" lon="1.8943410">
<ele>449.244720</ele>
<time>2022-09-08T07:50:43.996Z</time>
</trkpt>
<trkpt lat="41.9213740" lon="1.8943330">
<ele>448.726532</ele>
<time>2022-09-08T07:50:44.998Z</time>
</trkpt>
<trkpt lat="41.9213200" lon="1.8943140">
<ele>447.964539</ele>
<time>2022-09-08T07:50:46.000Z</time>
</trkpt>
<trkpt lat="41.9212450" lon="1.8942820">
<ele>446.836792</ele>
<time>2022-09-08T07:50:47.003Z</time>
</trkpt>
<trkpt lat="41.9211760" lon="1.8942570">
<ele>446.013855</ele>
<time>2022-09-08T07:50:47.996Z</time>
</trkpt>
<trkpt lat="41.9211070" lon="1.8942310">
<ele>445.221344</ele>
<time>2022-09-08T07:50:48.998Z</time>
</trkpt>
<trkpt lat="41.9210500" lon="1.8942100">
<ele>444.550812</ele>
<time>2022-09-08T07:50:50.001Z</time>
</trkpt>
<trkpt lat="41.9210050" lon="1.8941940">
<ele>444.002136</ele>
<time>2022-09-08T07:50:51.003Z</time>
</trkpt>
<trkpt lat="41.9209620" lon="1.8941720">
<ele>443.544952</ele>
<time>2022-09-08T07:50:51.996Z</time>
</trkpt>
<trkpt lat="41.9209280" lon="1.8941500">
<ele>443.209686</ele>
<time>2022-09-08T07:50:52.999Z</time>
</trkpt>
<trkpt lat="41.9208860" lon="1.8941230">
<ele>442.813446</ele>
<time>2022-09-08T07:50:54.001Z</time>
</trkpt>
<trkpt lat="41.9208260" lon="1.8940810">
<ele>442.234314</ele>
<time>2022-09-08T07:50:55.003Z</time>
</trkpt>
<trkpt lat="41.9207730" lon="1.8940470">
<ele>441.716156</ele>
<time>2022-09-08T07:50:55.997Z</time>
</trkpt>
<trkpt lat="41.9207110" lon="1.8940120">
<ele>441.076080</ele>
<time>2022-09-08T07:50:56.999Z</time>
</trkpt>
<trkpt lat="41.9206640" lon="1.8939730">
<ele>440.679840</ele>
<time>2022-09-08T07:50:58.001Z</time>
</trkpt>
<trkpt lat="41.9206190" lon="1.8939370">
<ele>440.222656</ele>
<time>2022-09-08T07:50:59.004Z</time>
</trkpt>
<trkpt lat="41.9205640" lon="1.8938860">
<ele>439.674011</ele>
<time>2022-09-08T07:50:59.997Z</time>
</trkpt>
<trkpt lat="41.9205050" lon="1.8938180">
<ele>439.216797</ele>
<time>2022-09-08T07:51:00.999Z</time>
</trkpt>
<trkpt lat="41.9204470" lon="1.8937670">
<ele>438.515747</ele>
<time>2022-09-08T07:51:02.002Z</time>
</trkpt>
<trkpt lat="41.9203860" lon="1.8937390">
<ele>437.570862</ele>
<time>2022-09-08T07:51:03.004Z</time>
</trkpt>
<trkpt lat="41.9203330" lon="1.8937210">
<ele>436.778412</ele>
<time>2022-09-08T07:51:03.997Z</time>
</trkpt>
<trkpt lat="41.9202770" lon="1.8936890">
<ele>435.985931</ele>
<time>2022-09-08T07:51:05.000Z</time>
</trkpt>
<trkpt lat="41.9202410" lon="1.8936400">
<ele>435.803070</ele>
<time>2022-09-08T07:51:06.002Z</time>
</trkpt>
<trkpt lat="41.9202180" lon="1.8935740">
<ele>435.955444</ele>
<time>2022-09-08T07:51:07.004Z</time>
</trkpt>
<trkpt lat="41.9201960" lon="1.8935170">
<ele>435.894470</ele>
<time>2022-09-08T07:51:07.998Z</time>
</trkpt>
<trkpt lat="41.9201700" lon="1.8934660">
<ele>435.620148</ele>
<time>2022-09-08T07:51:09.000Z</time>
</trkpt>
<trkpt lat="41.9201440" lon="1.8934100">
<ele>435.284882</ele>
<time>2022-09-08T07:51:10.002Z</time>
</trkpt>
<trkpt lat="41.9201080" lon="1.8933180">
<ele>434.827667</ele>
<time>2022-09-08T07:51:10.996Z</time>
</trkpt>
<trkpt lat="41.9200820" lon="1.8932480">
<ele>434.400940</ele>
<time>2022-09-08T07:51:11.998Z</time>
</trkpt>
<trkpt lat="41.9200680" lon="1.8931830">
<ele>434.157135</ele>
<time>2022-09-08T07:51:13.000Z</time>
</trkpt>
<trkpt lat="41.9200510" lon="1.8931330">
<ele>433.852325</ele>
<time>2022-09-08T07:51:14.003Z</time>
</trkpt>
<trkpt lat="41.9200310" lon="1.8930800">
<ele>433.486542</ele>
<time>2022-09-08T07:51:14.996Z</time>
</trkpt>
<trkpt lat="41.9199980" lon="1.8930140">
<ele>432.755066</ele>
<time>2022-09-08T07:51:15.998Z</time>
</trkpt>
<trkpt lat="41.9199520" lon="1.8929430">
<ele>431.840668</ele>
<time>2022-09-08T07:51:17.001Z</time>
</trkpt>
<trkpt lat="41.9199090" lon="1.8928910">
<ele>431.139587</ele>
<time>2022-09-08T07:51:18.003Z</time>
</trkpt>
<trkpt lat="41.9198790" lon="1.8928530">
<ele>430.743347</ele>
<time>2022-09-08T07:51:18.996Z</time>
</trkpt>
<trkpt lat="41.9198630" lon="1.8928160">
<ele>430.712860</ele>
<time>2022-09-08T07:51:19.999Z</time>
</trkpt>
<trkpt lat="41.9198540" lon="1.8927520">
<ele>431.048157</ele>
<time>2022-09-08T07:51:21.001Z</time>
</trkpt>
<trkpt lat="41.9198410" lon="1.8926890">
<ele>431.383453</ele>
<time>2022-09-08T07:51:22.003Z</time>
</trkpt>
<trkpt lat="41.9198320" lon="1.8926360">
<ele>431.627258</ele>
<time>2022-09-08T07:51:22.997Z</time>
</trkpt>
<trkpt lat="41.9198250" lon="1.8925920">
<ele>431.962555</ele>
<time>2022-09-08T07:51:23.999Z</time>
</trkpt>
<trkpt lat="41.9198040" lon="1.8925730">
<ele>431.657745</ele>
<time>2022-09-08T07:51:25.001Z</time>
</trkpt>
<trkpt lat="41.9197900" lon="1.8925990">
<ele>431.078644</ele>
<time>2022-09-08T07:51:26.004Z</time>
</trkpt>
<trkpt lat="41.9197690" lon="1.8926440">
<ele>430.194733</ele>
<time>2022-09-08T07:51:26.997Z</time>
</trkpt>
<trkpt lat="41.9197500" lon="1.8926920">
<ele>429.219360</ele>
<time>2022-09-08T07:51:27.999Z</time>
</trkpt>
<trkpt lat="41.9197260" lon="1.8927570">
<ele>427.908722</ele>
<time>2022-09-08T07:51:29.002Z</time>
</trkpt>
<trkpt lat="41.9197020" lon="1.8928300">
<ele>426.354248</ele>
<time>2022-09-08T07:51:30.004Z</time>
</trkpt>
<trkpt lat="41.9196960" lon="1.8928880">
<ele>425.561737</ele>
<time>2022-09-08T07:51:30.997Z</time>
</trkpt>
<trkpt lat="41.9196830" lon="1.8929260">
<ele>424.738800</ele>
<time>2022-09-08T07:51:32.000Z</time>
</trkpt>
<trkpt lat="41.9196720" lon="1.8929390">
<ele>424.312073</ele>
<time>2022-09-08T07:51:33.002Z</time>
</trkpt>
<trkpt lat="41.9196500" lon="1.8929270">
<ele>423.854858</ele>
<time>2022-09-08T07:51:34.004Z</time>
</trkpt>
<trkpt lat="41.9196210" lon="1.8928880">
<ele>423.428131</ele>
<time>2022-09-08T07:51:34.998Z</time>
</trkpt>
<trkpt lat="41.9196040" lon="1.8928430">
<ele>423.550079</ele>
<time>2022-09-08T07:51:36.000Z</time>
</trkpt>
<trkpt lat="41.9195840" lon="1.8927950">
<ele>423.519592</ele>
<time>2022-09-08T07:51:37.002Z</time>
</trkpt>
<trkpt lat="41.9195720" lon="1.8927520">
<ele>423.824402</ele>
<time>2022-09-08T07:51:37.996Z</time>
</trkpt>
<trkpt lat="41.9195590" lon="1.8926840">
<ele>424.464478</ele>
<time>2022-09-08T07:51:38.998Z</time>
</trkpt>
<trkpt lat="41.9195520" lon="1.8925960">
<ele>425.531281</ele>
<time>2022-09-08T07:51:40.000Z</time>
</trkpt>
<trkpt lat="41.9195420" lon="1.8925270">
<ele>426.201843</ele>
<time>2022-09-08T07:51:41.003Z</time>
</trkpt>
<trkpt lat="41.9195140" lon="1.8924490">
<ele>426.689514</ele>
<time>2022-09-08T07:51:41.996Z</time>
</trkpt>
<trkpt lat="41.9194870" lon="1.8923910">
<ele>426.902863</ele>
<time>2022-09-08T07:51:42.998Z</time>
</trkpt>
<trkpt lat="41.9194450" lon="1.8923220">
<ele>426.902863</ele>
<time>2022-09-08T07:51:44.001Z</time>
</trkpt>
<trkpt lat="41.9193890" lon="1.8922330">
<ele>426.780945</ele>
<time>2022-09-08T07:51:45.003Z</time>
</trkpt>
<trkpt lat="41.9193420" lon="1.8921620">
<ele>426.598083</ele>
<time>2022-09-08T07:51:45.996Z</time>
</trkpt>
<trkpt lat="41.9193020" lon="1.8920990">
<ele>426.384735</ele>
<time>2022-09-08T07:51:46.999Z</time>
</trkpt>
<trkpt lat="41.9192540" lon="1.8920220">
<ele>426.201843</ele>
<time>2022-09-08T07:51:48.001Z</time>
</trkpt>
<trkpt lat="41.9192180" lon="1.8919530">
<ele>426.049469</ele>
<time>2022-09-08T07:51:49.003Z</time>
</trkpt>
<trkpt lat="41.9191760" lon="1.8918750">
<ele>425.744659</ele>
<time>2022-09-08T07:51:49.997Z</time>
</trkpt>
<trkpt lat="41.9191420" lon="1.8918070">
<ele>425.500793</ele>
<time>2022-09-08T07:51:50.999Z</time>
</trkpt>
<trkpt lat="41.9191190" lon="1.8917680">
<ele>425.196014</ele>
<time>2022-09-08T07:51:52.001Z</time>
</trkpt>
<trkpt lat="41.9190590" lon="1.8917170">
<ele>424.129211</ele>
<time>2022-09-08T07:51:53.004Z</time>
</trkpt>
<trkpt lat="41.9190100" lon="1.8916520">
<ele>423.306244</ele>
<time>2022-09-08T07:51:53.997Z</time>
</trkpt>
<trkpt lat="41.9189720" lon="1.8915850">
<ele>422.696655</ele>
<time>2022-09-08T07:51:54.999Z</time>
</trkpt>
<trkpt lat="41.9189340" lon="1.8915090">
<ele>422.056549</ele>
<time>2022-09-08T07:51:56.002Z</time>
</trkpt>
<trkpt lat="41.9189050" lon="1.8914540">
<ele>421.538391</ele>
<time>2022-09-08T07:51:57.004Z</time>
</trkpt>
<trkpt lat="41.9188710" lon="1.8913890">
<ele>421.050720</ele>
<time>2022-09-08T07:51:57.997Z</time>
</trkpt>
<trkpt lat="41.9188340" lon="1.8913080">
<ele>420.441132</ele>
<time>2022-09-08T07:51:59.000Z</time>
</trkpt>
<trkpt lat="41.9188160" lon="1.8912420">
<ele>420.197266</ele>
<time>2022-09-08T07:52:00.002Z</time>
</trkpt>
<trkpt lat="41.9188020" lon="1.8911720">
<ele>420.319214</ele>
<time>2022-09-08T07:52:01.004Z</time>
</trkpt>
<trkpt lat="41.9188010" lon="1.8911130">
<ele>420.563049</ele>
<time>2022-09-08T07:52:01.998Z</time>
</trkpt>
<trkpt lat="41.9188020" lon="1.8910450">
<ele>420.806885</ele>
<time>2022-09-08T07:52:03.000Z</time>
</trkpt>
<trkpt lat="41.9187900" lon="1.8909700">
<ele>420.806885</ele>
<time>2022-09-08T07:52:04.002Z</time>
</trkpt>
<trkpt lat="41.9187690" lon="1.8909150">
<ele>420.684937</ele>
<time>2022-09-08T07:52:04.996Z</time>
</trkpt>
<trkpt lat="41.9187500" lon="1.8908660">
<ele>420.502075</ele>
<time>2022-09-08T07:52:05.998Z</time>
</trkpt>
<trkpt lat="41.9187460" lon="1.8908200">
<ele>420.502075</ele>
<time>2022-09-08T07:52:07.000Z</time>
</trkpt>
<trkpt lat="41.9187510" lon="1.8907610">
<ele>420.502075</ele>
<time>2022-09-08T07:52:08.003Z</time>
</trkpt>
<trkpt lat="41.9187690" lon="1.8906970">
<ele>420.563049</ele>
<time>2022-09-08T07:52:08.996Z</time>
</trkpt>
<trkpt lat="41.9187920" lon="1.8906500">
<ele>420.532532</ele>
<time>2022-09-08T07:52:09.998Z</time>
</trkpt>
<trkpt lat="41.9188190" lon="1.8906170">
<ele>420.502075</ele>
<time>2022-09-08T07:52:11.001Z</time>
</trkpt>
<trkpt lat="41.9188440" lon="1.8905680">
<ele>420.258240</ele>
<time>2022-09-08T07:52:12.003Z</time>
</trkpt>
<trkpt lat="41.9188540" lon="1.8905080">
<ele>419.801056</ele>
<time>2022-09-08T07:52:12.996Z</time>
</trkpt>
<trkpt lat="41.9188460" lon="1.8904570">
<ele>419.343842</ele>
<time>2022-09-08T07:52:13.999Z</time>
</trkpt>
<trkpt lat="41.9188410" lon="1.8904160">
<ele>418.947601</ele>
<time>2022-09-08T07:52:15.001Z</time>
</trkpt>
<trkpt lat="41.9188400" lon="1.8903900">
<ele>418.795197</ele>
<time>2022-09-08T07:52:16.003Z</time>
</trkpt>
<trkpt lat="41.9188520" lon="1.8903630">
<ele>418.581848</ele>
<time>2022-09-08T07:52:16.997Z</time>
</trkpt>
<trkpt lat="41.9188760" lon="1.8903390">
<ele>418.277069</ele>
<time>2022-09-08T07:52:17.999Z</time>
</trkpt>
<trkpt lat="41.9189010" lon="1.8903200">
<ele>417.972260</ele>
<time>2022-09-08T07:52:19.001Z</time>
</trkpt>
<trkpt lat="41.9189220" lon="1.8902970">
<ele>417.606476</ele>
<time>2022-09-08T07:52:20.004Z</time>
</trkpt>
<trkpt lat="41.9189320" lon="1.8902720">
<ele>417.271210</ele>
<time>2022-09-08T07:52:20.997Z</time>
</trkpt>
<trkpt lat="41.9189430" lon="1.8902360">
<ele>416.813995</ele>
<time>2022-09-08T07:52:21.999Z</time>
</trkpt>
<trkpt lat="41.9189460" lon="1.8901790">
<ele>416.143463</ele>
<time>2022-09-08T07:52:23.002Z</time>
</trkpt>
<trkpt lat="41.9189360" lon="1.8901210">
<ele>415.564331</ele>
<time>2022-09-08T07:52:24.004Z</time>
</trkpt>
<trkpt lat="41.9189150" lon="1.8900730">
<ele>415.290009</ele>
<time>2022-09-08T07:52:24.997Z</time>
</trkpt>
<trkpt lat="41.9188880" lon="1.8900370">
<ele>415.168060</ele>
<time>2022-09-08T07:52:26.000Z</time>
</trkpt>
<trkpt lat="41.9188520" lon="1.8899840">
<ele>414.893738</ele>
<time>2022-09-08T07:52:27.002Z</time>
</trkpt>
<trkpt lat="41.9188090" lon="1.8899110">
<ele>414.467041</ele>
<time>2022-09-08T07:52:28.004Z</time>
</trkpt>
<trkpt lat="41.9187690" lon="1.8898290">
<ele>413.765991</ele>
<time>2022-09-08T07:52:28.998Z</time>
</trkpt>
<trkpt lat="41.9187370" lon="1.8897500">
<ele>413.064941</ele>
<time>2022-09-08T07:52:30.000Z</time>
</trkpt>
<trkpt lat="41.9186890" lon="1.8896680">
<ele>412.455353</ele>
<time>2022-09-08T07:52:31.002Z</time>
</trkpt>
<trkpt lat="41.9186390" lon="1.8895750">
<ele>411.601929</ele>
<time>2022-09-08T07:52:31.996Z</time>
</trkpt>
<trkpt lat="41.9185790" lon="1.8894850">
<ele>411.205658</ele>
<time>2022-09-08T07:52:32.998Z</time>
</trkpt>
<trkpt lat="41.9185210" lon="1.8894030">
<ele>410.809448</ele>
<time>2022-09-08T07:52:34.000Z</time>
</trkpt>
<trkpt lat="41.9184630" lon="1.8893360">
<ele>410.565613</ele>
<time>2022-09-08T07:52:35.003Z</time>
</trkpt>
<trkpt lat="41.9184140" lon="1.8892730">
<ele>410.169342</ele>
<time>2022-09-08T07:52:35.996Z</time>
</trkpt>
<trkpt lat="41.9183530" lon="1.8892040">
<ele>409.681671</ele>
<time>2022-09-08T07:52:36.998Z</time>
</trkpt>
<trkpt lat="41.9182930" lon="1.8891630">
<ele>409.529266</ele>
<time>2022-09-08T07:52:38.001Z</time>
</trkpt>
<trkpt lat="41.9182040" lon="1.8891350">
<ele>409.559753</ele>
<time>2022-09-08T07:52:39.003Z</time>
</trkpt>
<trkpt lat="41.9181450" lon="1.8891300">
<ele>409.651215</ele>
<time>2022-09-08T07:52:39.996Z</time>
</trkpt>
<trkpt lat="41.9180710" lon="1.8891280">
<ele>409.651215</ele>
<time>2022-09-08T07:52:40.999Z</time>
</trkpt>
<trkpt lat="41.9179650" lon="1.8891150">
<ele>409.163513</ele>
<time>2022-09-08T07:52:42.001Z</time>
</trkpt>
<trkpt lat="41.9178830" lon="1.8890920">
<ele>408.523468</ele>
<time>2022-09-08T07:52:43.003Z</time>
</trkpt>
<trkpt lat="41.9178180" lon="1.8890580">
<ele>407.852875</ele>
<time>2022-09-08T07:52:43.997Z</time>
</trkpt>
<trkpt lat="41.9177950" lon="1.8890250">
<ele>407.334717</ele>
<time>2022-09-08T07:52:44.999Z</time>
</trkpt>
<trkpt lat="41.9177670" lon="1.8889680">
<ele>406.450806</ele>
<time>2022-09-08T07:52:46.001Z</time>
</trkpt>
<trkpt lat="41.9177160" lon="1.8888720">
<ele>404.804871</ele>
<time>2022-09-08T07:52:47.004Z</time>
</trkpt>
<trkpt lat="41.9176780" lon="1.8887780">
<ele>403.128479</ele>
<time>2022-09-08T07:52:47.997Z</time>
</trkpt>
<trkpt lat="41.9176420" lon="1.8886750">
<ele>401.848328</ele>
<time>2022-09-08T07:52:48.999Z</time>
</trkpt>
<trkpt lat="41.9176000" lon="1.8885820">
<ele>400.964386</ele>
<time>2022-09-08T07:52:50.002Z</time>
</trkpt>
<trkpt lat="41.9175510" lon="1.8884980">
<ele>400.080475</ele>
<time>2022-09-08T07:52:51.004Z</time>
</trkpt>
<trkpt lat="41.9174910" lon="1.8884340">
<ele>399.257538</ele>
<time>2022-09-08T07:52:51.997Z</time>
</trkpt>
<trkpt lat="41.9174370" lon="1.8884160">
<ele>398.739349</ele>
<time>2022-09-08T07:52:53.000Z</time>
</trkpt>
<trkpt lat="41.9173890" lon="1.8884170">
<ele>398.343140</ele>
<time>2022-09-08T07:52:54.002Z</time>
</trkpt>
<trkpt lat="41.9173360" lon="1.8884300">
<ele>397.946869</ele>
<time>2022-09-08T07:52:55.004Z</time>
</trkpt>
<trkpt lat="41.9172980" lon="1.8884250">
<ele>397.550659</ele>
<time>2022-09-08T07:52:55.998Z</time>
</trkpt>
<trkpt lat="41.9172610" lon="1.8884000">
<ele>397.002014</ele>
<time>2022-09-08T07:52:57.000Z</time>
</trkpt>
<trkpt lat="41.9172280" lon="1.8883850">
<ele>396.575287</ele>
<time>2022-09-08T07:52:58.002Z</time>
</trkpt>
<trkpt lat="41.9171980" lon="1.8883930">
<ele>396.300934</ele>
<time>2022-09-08T07:52:58.996Z</time>
</trkpt>
<trkpt lat="41.9171480" lon="1.8883860">
<ele>395.691345</ele>
<time>2022-09-08T07:52:59.998Z</time>
</trkpt>
<trkpt lat="41.9171010" lon="1.8883550">
<ele>394.990326</ele>
<time>2022-09-08T07:53:01.000Z</time>
</trkpt>
<trkpt lat="41.9170810" lon="1.8883040">
<ele>394.441681</ele>
<time>2022-09-08T07:53:02.003Z</time>
</trkpt>
<trkpt lat="41.9170700" lon="1.8882320">
<ele>393.832062</ele>
<time>2022-09-08T07:53:02.996Z</time>
</trkpt>
<trkpt lat="41.9170560" lon="1.8881730">
<ele>393.161530</ele>
<time>2022-09-08T07:53:03.998Z</time>
</trkpt>
<trkpt lat="41.9170380" lon="1.8881110">
<ele>392.247131</ele>
<time>2022-09-08T07:53:05.001Z</time>
</trkpt>
<trkpt lat="41.9170090" lon="1.8880630">
<ele>391.424133</ele>
<time>2022-09-08T07:53:06.003Z</time>
</trkpt>
<trkpt lat="41.9169650" lon="1.8880470">
<ele>391.119354</ele>
<time>2022-09-08T07:53:06.996Z</time>
</trkpt>
<trkpt lat="41.9169270" lon="1.8880360">
<ele>390.906006</ele>
<time>2022-09-08T07:53:07.999Z</time>
</trkpt>
<trkpt lat="41.9169080" lon="1.8880230">
<ele>390.662140</ele>
<time>2022-09-08T07:53:09.001Z</time>
</trkpt>
<trkpt lat="41.9168970" lon="1.8879910">
<ele>390.052551</ele>
<time>2022-09-08T07:53:10.003Z</time>
</trkpt>
<trkpt lat="41.9168690" lon="1.8879350">
<ele>388.833344</ele>
<time>2022-09-08T07:53:10.997Z</time>
</trkpt>
<trkpt lat="41.9168240" lon="1.8879190">
<ele>388.467590</ele>
<time>2022-09-08T07:53:11.999Z</time>
</trkpt>
<trkpt lat="41.9167810" lon="1.8879140">
<ele>388.406647</ele>
<time>2022-09-08T07:53:13.001Z</time>
</trkpt>
<trkpt lat="41.9167210" lon="1.8879150">
<ele>388.437134</ele>
<time>2022-09-08T07:53:14.004Z</time>
</trkpt>
<trkpt lat="41.9166760" lon="1.8879080">
<ele>388.284729</ele>
<time>2022-09-08T07:53:14.997Z</time>
</trkpt>
<trkpt lat="41.9166380" lon="1.8879060">
<ele>388.193268</ele>
<time>2022-09-08T07:53:15.999Z</time>
</trkpt>
<trkpt lat="41.9166040" lon="1.8879100">
<ele>388.162811</ele>
<time>2022-09-08T07:53:17.002Z</time>
</trkpt>
<trkpt lat="41.9165800" lon="1.8879390">
<ele>388.589539</ele>
<time>2022-09-08T07:53:18.004Z</time>
</trkpt>
<trkpt lat="41.9165580" lon="1.8879850">
<ele>389.199127</ele>
<time>2022-09-08T07:53:18.997Z</time>
</trkpt>
<trkpt lat="41.9165280" lon="1.8880510">
<ele>389.808716</ele>
<time>2022-09-08T07:53:20.000Z</time>
</trkpt>
<trkpt lat="41.9164850" lon="1.8880890">
<ele>389.747742</ele>
<time>2022-09-08T07:53:21.002Z</time>
</trkpt>
<trkpt lat="41.9164350" lon="1.8881030">
<ele>389.290558</ele>
<time>2022-09-08T07:53:22.004Z</time>
</trkpt>
<trkpt lat="41.9163950" lon="1.8881050">
<ele>388.741913</ele>
<time>2022-09-08T07:53:22.998Z</time>
</trkpt>
<trkpt lat="41.9163510" lon="1.8880950">
<ele>388.071350</ele>
<time>2022-09-08T07:53:24.000Z</time>
</trkpt>
<trkpt lat="41.9163230" lon="1.8880610">
<ele>387.461731</ele>
<time>2022-09-08T07:53:25.002Z</time>
</trkpt>
<trkpt lat="41.9163020" lon="1.8879840">
<ele>386.516876</ele>
<time>2022-09-08T07:53:25.996Z</time>
</trkpt>
<trkpt lat="41.9162800" lon="1.8878920">
<ele>385.358643</ele>
<time>2022-09-08T07:53:26.998Z</time>
</trkpt>
<trkpt lat="41.9162580" lon="1.8878180">
<ele>384.627136</ele>
<time>2022-09-08T07:53:28.000Z</time>
</trkpt>
<trkpt lat="41.9162270" lon="1.8877590">
<ele>383.773682</ele>
<time>2022-09-08T07:53:29.003Z</time>
</trkpt>
<trkpt lat="41.9161920" lon="1.8877170">
<ele>383.042145</ele>
<time>2022-09-08T07:53:29.996Z</time>
</trkpt>
<trkpt lat="41.9161660" lon="1.8876660">
<ele>382.371613</ele>
<time>2022-09-08T07:53:30.998Z</time>
</trkpt>
<trkpt lat="41.9161400" lon="1.8875780">
<ele>381.365753</ele>
<time>2022-09-08T07:53:32.001Z</time>
</trkpt>
<trkpt lat="41.9161340" lon="1.8875280">
<ele>380.756134</ele>
<time>2022-09-08T07:53:33.003Z</time>
</trkpt>
<trkpt lat="41.9160990" lon="1.8874630">
<ele>379.811279</ele>
<time>2022-09-08T07:53:33.996Z</time>
</trkpt>
<trkpt lat="41.9160530" lon="1.8874010">
<ele>378.805450</ele>
<time>2022-09-08T07:53:34.999Z</time>
</trkpt>
<trkpt lat="41.9160240" lon="1.8873410">
<ele>377.921539</ele>
<time>2022-09-08T07:53:36.001Z</time>
</trkpt>
<trkpt lat="41.9160070" lon="1.8873070">
<ele>377.403351</ele>
<time>2022-09-08T07:53:37.003Z</time>
</trkpt>
<trkpt lat="41.9159930" lon="1.8872960">
<ele>377.190002</ele>
<time>2022-09-08T07:53:37.997Z</time>
</trkpt>
<trkpt lat="41.9159700" lon="1.8872970">
<ele>377.098541</ele>
<time>2022-09-08T07:53:38.999Z</time>
</trkpt>
<trkpt lat="41.9159500" lon="1.8873260">
<ele>377.342407</ele>
<time>2022-09-08T07:53:40.001Z</time>
</trkpt>
<trkpt lat="41.9159270" lon="1.8873640">
<ele>377.525269</ele>
<time>2022-09-08T07:53:41.004Z</time>
</trkpt>
<trkpt lat="41.9159040" lon="1.8874190">
<ele>377.708130</ele>
<time>2022-09-08T07:53:41.997Z</time>
</trkpt>
<trkpt lat="41.9158980" lon="1.8874810">
<ele>377.921539</ele>
<time>2022-09-08T07:53:42.999Z</time>
</trkpt>
<trkpt lat="41.9158930" lon="1.8875440">
<ele>378.043457</ele>
<time>2022-09-08T07:53:44.002Z</time>
</trkpt>
<trkpt lat="41.9158800" lon="1.8876230">
<ele>377.860535</ele>
<time>2022-09-08T07:53:45.004Z</time>
</trkpt>
<trkpt lat="41.9158630" lon="1.8876670">
<ele>377.494812</ele>
<time>2022-09-08T07:53:45.997Z</time>
</trkpt>
<trkpt lat="41.9158370" lon="1.8876910">
<ele>376.885193</ele>
<time>2022-09-08T07:53:47.000Z</time>
</trkpt>
<trkpt lat="41.9158160" lon="1.8876920">
<ele>376.488953</ele>
<time>2022-09-08T07:53:48.002Z</time>
</trkpt>
<trkpt lat="41.9157800" lon="1.8876690">
<ele>375.757446</ele>
<time>2022-09-08T07:53:49.004Z</time>
</trkpt>
<trkpt lat="41.9157240" lon="1.8876440">
<ele>374.721130</ele>
<time>2022-09-08T07:53:49.998Z</time>
</trkpt>
<trkpt lat="41.9156660" lon="1.8876260">
<ele>373.501923</ele>
<time>2022-09-08T07:53:51.000Z</time>
</trkpt>
<trkpt lat="41.9156220" lon="1.8876130">
<ele>372.709442</ele>
<time>2022-09-08T07:53:52.002Z</time>
</trkpt>
<trkpt lat="41.9155720" lon="1.8876100">
<ele>371.673126</ele>
<time>2022-09-08T07:53:52.996Z</time>
</trkpt>
<trkpt lat="41.9155230" lon="1.8876340">
<ele>370.484406</ele>
<time>2022-09-08T07:53:53.998Z</time>
</trkpt>
<trkpt lat="41.9154840" lon="1.8876730">
<ele>369.387115</ele>
<time>2022-09-08T07:53:55.000Z</time>
</trkpt>
<trkpt lat="41.9154380" lon="1.8877330">
<ele>367.954559</ele>
<time>2022-09-08T07:53:56.003Z</time>
</trkpt>
<trkpt lat="41.9154020" lon="1.8877680">
<ele>366.887756</ele>
<time>2022-09-08T07:53:56.996Z</time>
</trkpt>
<trkpt lat="41.9153690" lon="1.8877870">
<ele>366.003845</ele>
<time>2022-09-08T07:53:57.998Z</time>
</trkpt>
<trkpt lat="41.9153310" lon="1.8877630">
<ele>365.546661</ele>
<time>2022-09-08T07:53:59.001Z</time>
</trkpt>
<trkpt lat="41.9152860" lon="1.8877250">
<ele>365.058960</ele>
<time>2022-09-08T07:54:00.003Z</time>
</trkpt>
<trkpt lat="41.9152320" lon="1.8876780">
<ele>364.571259</ele>
<time>2022-09-08T07:54:00.996Z</time>
</trkpt>
<trkpt lat="41.9151910" lon="1.8876510">
<ele>364.175049</ele>
<time>2022-09-08T07:54:01.999Z</time>
</trkpt>
<trkpt lat="41.9151410" lon="1.8876220">
<ele>363.717865</ele>
<time>2022-09-08T07:54:03.001Z</time>
</trkpt>
<trkpt lat="41.9150770" lon="1.8875910">
<ele>363.108246</ele>
<time>2022-09-08T07:54:04.003Z</time>
</trkpt>
<trkpt lat="41.9150290" lon="1.8875740">
<ele>362.620544</ele>
<time>2022-09-08T07:54:04.997Z</time>
</trkpt>
<trkpt lat="41.9149940" lon="1.8875520">
<ele>362.376740</ele>
<time>2022-09-08T07:54:05.999Z</time>
</trkpt>
<trkpt lat="41.9149790" lon="1.8875220">
<ele>362.346252</ele>
<time>2022-09-08T07:54:07.001Z</time>
</trkpt>
<trkpt lat="41.9149780" lon="1.8874800">
<ele>362.529114</ele>
<time>2022-09-08T07:54:08.004Z</time>
</trkpt>
<trkpt lat="41.9149950" lon="1.8874330">
<ele>362.894867</ele>
<time>2022-09-08T07:54:08.997Z</time>
</trkpt>
<trkpt lat="41.9150260" lon="1.8873930">
<ele>363.534943</ele>
<time>2022-09-08T07:54:09.999Z</time>
</trkpt>
<trkpt lat="41.9150600" lon="1.8873500">
<ele>364.175049</ele>
<time>2022-09-08T07:54:11.002Z</time>
</trkpt>
<trkpt lat="41.9150820" lon="1.8873130">
<ele>364.693207</ele>
<time>2022-09-08T07:54:12.004Z</time>
</trkpt>
<trkpt lat="41.9151020" lon="1.8872610">
<ele>365.180878</ele>
<time>2022-09-08T07:54:12.997Z</time>
</trkpt>
<trkpt lat="41.9151100" lon="1.8871890">
<ele>365.546661</ele>
<time>2022-09-08T07:54:14.000Z</time>
</trkpt>
<trkpt lat="41.9150960" lon="1.8871220">
<ele>365.333282</ele>
<time>2022-09-08T07:54:15.002Z</time>
</trkpt>
<trkpt lat="41.9150740" lon="1.8870680">
<ele>364.906555</ele>
<time>2022-09-08T07:54:16.004Z</time>
</trkpt>
<trkpt lat="41.9150310" lon="1.8869990">
<ele>364.235992</ele>
<time>2022-09-08T07:54:16.998Z</time>
</trkpt>
<trkpt lat="41.9149820" lon="1.8869380">
<ele>363.260651</ele>
<time>2022-09-08T07:54:18.000Z</time>
</trkpt>
<trkpt lat="41.9149300" lon="1.8868770">
<ele>362.132874</ele>
<time>2022-09-08T07:54:19.002Z</time>
</trkpt>
<trkpt lat="41.9148840" lon="1.8868450">
<ele>361.127045</ele>
<time>2022-09-08T07:54:19.996Z</time>
</trkpt>
<trkpt lat="41.9148320" lon="1.8868260">
<ele>360.121185</ele>
<time>2022-09-08T07:54:20.998Z</time>
</trkpt>
<trkpt lat="41.9147720" lon="1.8867900">
<ele>358.810547</ele>
<time>2022-09-08T07:54:22.000Z</time>
</trkpt>
<trkpt lat="41.9147100" lon="1.8867310">
<ele>357.377991</ele>
<time>2022-09-08T07:54:23.003Z</time>
</trkpt>
<trkpt lat="41.9146530" lon="1.8866690">
<ele>356.006409</ele>
<time>2022-09-08T07:54:23.996Z</time>
</trkpt>
<trkpt lat="41.9145900" lon="1.8866050">
<ele>354.512878</ele>
<time>2022-09-08T07:54:24.998Z</time>
</trkpt>
<trkpt lat="41.9145390" lon="1.8865540">
<ele>353.567993</ele>
<time>2022-09-08T07:54:26.001Z</time>
</trkpt>
<trkpt lat="41.9144860" lon="1.8864810">
<ele>352.440247</ele>
<time>2022-09-08T07:54:27.003Z</time>
</trkpt>
<trkpt lat="41.9144370" lon="1.8863820">
<ele>351.099121</ele>
<time>2022-09-08T07:54:27.996Z</time>
</trkpt>
<trkpt lat="41.9144130" lon="1.8863020">
<ele>350.093262</ele>
<time>2022-09-08T07:54:28.999Z</time>
</trkpt>
<trkpt lat="41.9143890" lon="1.8861940">
<ele>348.569275</ele>
<time>2022-09-08T07:54:30.001Z</time>
</trkpt>
<trkpt lat="41.9143680" lon="1.8860800">
<ele>346.923340</ele>
<time>2022-09-08T07:54:31.003Z</time>
</trkpt>
<trkpt lat="41.9143490" lon="1.8859630">
<ele>345.368866</ele>
<time>2022-09-08T07:54:31.997Z</time>
</trkpt>
<trkpt lat="41.9143240" lon="1.8858280">
<ele>343.783936</ele>
<time>2022-09-08T07:54:32.999Z</time>
</trkpt>
<trkpt lat="41.9142890" lon="1.8857320">
<ele>342.717133</ele>
<time>2022-09-08T07:54:34.001Z</time>
</trkpt>
<trkpt lat="41.9142450" lon="1.8856550">
<ele>341.985596</ele>
<time>2022-09-08T07:54:35.004Z</time>
</trkpt>
<trkpt lat="41.9142060" lon="1.8856100">
<ele>341.589355</ele>
<time>2022-09-08T07:54:35.997Z</time>
</trkpt>
<trkpt lat="41.9141530" lon="1.8855730">
<ele>341.315063</ele>
<time>2022-09-08T07:54:36.999Z</time>
</trkpt>
<trkpt lat="41.9141190" lon="1.8855540">
<ele>341.193115</ele>
<time>2022-09-08T07:54:38.002Z</time>
</trkpt>
<trkpt lat="41.9140970" lon="1.8855170">
<ele>340.979736</ele>
<time>2022-09-08T07:54:39.004Z</time>
</trkpt>
<trkpt lat="41.9141030" lon="1.8854960">
<ele>340.888336</ele>
<time>2022-09-08T07:54:39.997Z</time>
</trkpt>
<trkpt lat="41.9141220" lon="1.8854640">
<ele>340.705444</ele>
<time>2022-09-08T07:54:41.000Z</time>
</trkpt>
<trkpt lat="41.9141510" lon="1.8854340">
<ele>340.492065</ele>
<time>2022-09-08T07:54:42.002Z</time>
</trkpt>
<trkpt lat="41.9141830" lon="1.8854050">
<ele>340.248260</ele>
<time>2022-09-08T07:54:43.004Z</time>
</trkpt>
<trkpt lat="41.9142120" lon="1.8853860">
<ele>340.034882</ele>
<time>2022-09-08T07:54:43.998Z</time>
</trkpt>
<trkpt lat="41.9142350" lon="1.8853700">
<ele>339.851990</ele>
<time>2022-09-08T07:54:45.000Z</time>
</trkpt>
<trkpt lat="41.9142650" lon="1.8853500">
<ele>339.608154</ele>
<time>2022-09-08T07:54:46.002Z</time>
</trkpt>
<trkpt lat="41.9142960" lon="1.8853350">
<ele>339.425262</ele>
<time>2022-09-08T07:54:46.996Z</time>
</trkpt>
<trkpt lat="41.9143370" lon="1.8853210">
<ele>339.242401</ele>
<time>2022-09-08T07:54:47.998Z</time>
</trkpt>
<trkpt lat="41.9143750" lon="1.8853160">
<ele>339.150940</ele>
<time>2022-09-08T07:54:49.000Z</time>
</trkpt>
<trkpt lat="41.9144050" lon="1.8853130">
<ele>339.089996</ele>
<time>2022-09-08T07:54:50.003Z</time>
</trkpt>
<trkpt lat="41.9144400" lon="1.8853100">
<ele>338.998535</ele>
<time>2022-09-08T07:54:50.996Z</time>
</trkpt>
<trkpt lat="41.9144710" lon="1.8853120">
<ele>338.998535</ele>
<time>2022-09-08T07:54:51.998Z</time>
</trkpt>
<trkpt lat="41.9145120" lon="1.8853140">
<ele>338.968079</ele>
<time>2022-09-08T07:54:53.001Z</time>
</trkpt>
<trkpt lat="41.9145510" lon="1.8853170">
<ele>338.937592</ele>
<time>2022-09-08T07:54:54.003Z</time>
</trkpt>
<trkpt lat="41.9145810" lon="1.8853190">
<ele>338.937592</ele>
<time>2022-09-08T07:54:54.996Z</time>
</trkpt>
<trkpt lat="41.9146150" lon="1.8853210">
<ele>338.876648</ele>
<time>2022-09-08T07:54:55.999Z</time>
</trkpt>
<trkpt lat="41.9146590" lon="1.8853100">
<ele>338.663269</ele>
<time>2022-09-08T07:54:57.001Z</time>
</trkpt>
<trkpt lat="41.9147010" lon="1.8852990">
<ele>338.449921</ele>
<time>2022-09-08T07:54:58.003Z</time>
</trkpt>
<trkpt lat="41.9147400" lon="1.8853010">
<ele>338.388947</ele>
<time>2022-09-08T07:54:58.997Z</time>
</trkpt>
<trkpt lat="41.9147730" lon="1.8853130">
<ele>338.449921</ele>
<time>2022-09-08T07:54:59.999Z</time>
</trkpt>
<trkpt lat="41.9148140" lon="1.8853260">
<ele>338.510864</ele>
<time>2022-09-08T07:55:01.001Z</time>
</trkpt>
<trkpt lat="41.9148620" lon="1.8853350">
<ele>338.541351</ele>
<time>2022-09-08T07:55:02.004Z</time>
</trkpt>
<trkpt lat="41.9149150" lon="1.8853450">
<ele>338.602325</ele>
<time>2022-09-08T07:55:02.997Z</time>
</trkpt>
<trkpt lat="41.9149640" lon="1.8853500">
<ele>338.602325</ele>
<time>2022-09-08T07:55:03.999Z</time>
</trkpt>
<trkpt lat="41.9150080" lon="1.8853590">
<ele>338.693756</ele>
<time>2022-09-08T07:55:05.002Z</time>
</trkpt>
<trkpt lat="41.9150600" lon="1.8853690">
<ele>338.815674</ele>
<time>2022-09-08T07:55:06.004Z</time>
</trkpt>
<trkpt lat="41.9151210" lon="1.8853770">
<ele>338.968079</ele>
<time>2022-09-08T07:55:06.997Z</time>
</trkpt>
<trkpt lat="41.9151850" lon="1.8853930">
<ele>339.242401</ele>
<time>2022-09-08T07:55:08.000Z</time>
</trkpt>
<trkpt lat="41.9152230" lon="1.8854250">
<ele>339.821533</ele>
<time>2022-09-08T07:55:09.002Z</time>
</trkpt>
<trkpt lat="41.9152590" lon="1.8854630">
<ele>340.461609</ele>
<time>2022-09-08T07:55:10.004Z</time>
</trkpt>
<trkpt lat="41.9152920" lon="1.8854890">
<ele>340.888336</ele>
<time>2022-09-08T07:55:10.998Z</time>
</trkpt>
<trkpt lat="41.9153330" lon="1.8855060">
<ele>341.223602</ele>
<time>2022-09-08T07:55:12.000Z</time>
</trkpt>
<trkpt lat="41.9153810" lon="1.8855140">
<ele>341.376007</ele>
<time>2022-09-08T07:55:13.002Z</time>
</trkpt>
<trkpt lat="41.9154230" lon="1.8855260">
<ele>341.558868</ele>
<time>2022-09-08T07:55:13.996Z</time>
</trkpt>
<trkpt lat="41.9154740" lon="1.8855390">
<ele>341.772247</ele>
<time>2022-09-08T07:55:14.998Z</time>
</trkpt>
<trkpt lat="41.9155300" lon="1.8855640">
<ele>342.107513</ele>
<time>2022-09-08T07:55:16.000Z</time>
</trkpt>
<trkpt lat="41.9155820" lon="1.8855990">
<ele>342.595215</ele>
<time>2022-09-08T07:55:17.003Z</time>
</trkpt>
<trkpt lat="41.9156040" lon="1.8856210">
<ele>342.899994</ele>
<time>2022-09-08T07:55:17.996Z</time>
</trkpt>
<trkpt lat="41.9156130" lon="1.8856300">
<ele>343.021942</ele>
<time>2022-09-08T07:55:18.998Z</time>
</trkpt>
<trkpt lat="41.9156270" lon="1.8856290">
<ele>342.960938</ele>
<time>2022-09-08T07:55:20.001Z</time>
</trkpt>
<trkpt lat="41.9156640" lon="1.8856270">
<ele>342.808533</ele>
<time>2022-09-08T07:55:21.003Z</time>
</trkpt>
<trkpt lat="41.9156940" lon="1.8856270">
<ele>342.686646</ele>
<time>2022-09-08T07:55:21.996Z</time>
</trkpt>
<trkpt lat="41.9157390" lon="1.8856400">
<ele>342.717133</ele>
<time>2022-09-08T07:55:22.999Z</time>
</trkpt>
<trkpt lat="41.9157620" lon="1.8856560">
<ele>342.808533</ele>
<time>2022-09-08T07:55:24.001Z</time>
</trkpt>
<trkpt lat="41.9158000" lon="1.8856880">
<ele>343.082886</ele>
<time>2022-09-08T07:55:25.003Z</time>
</trkpt>
<trkpt lat="41.9158590" lon="1.8857290">
<ele>343.235260</ele>
<time>2022-09-08T07:55:25.997Z</time>
</trkpt>
<trkpt lat="41.9159200" lon="1.8857710">
<ele>343.265747</ele>
<time>2022-09-08T07:55:26.999Z</time>
</trkpt>
<trkpt lat="41.9160000" lon="1.8858010">
<ele>342.869537</ele>
<time>2022-09-08T07:55:28.001Z</time>
</trkpt>
<trkpt lat="41.9160320" lon="1.8858250">
<ele>342.808533</ele>
<time>2022-09-08T07:55:29.004Z</time>
</trkpt>
<trkpt lat="41.9160600" lon="1.8858510">
<ele>342.747589</ele>
<time>2022-09-08T07:55:29.997Z</time>
</trkpt>
<trkpt lat="41.9160890" lon="1.8858880">
<ele>342.869537</ele>
<time>2022-09-08T07:55:30.999Z</time>
</trkpt>
<trkpt lat="41.9161120" lon="1.8859120">
<ele>342.839050</ele>
<time>2022-09-08T07:55:32.002Z</time>
</trkpt>
<trkpt lat="41.9161440" lon="1.8859250">
<ele>342.534241</ele>
<time>2022-09-08T07:55:33.004Z</time>
</trkpt>
<trkpt lat="41.9161810" lon="1.8859380">
<ele>342.198944</ele>
<time>2022-09-08T07:55:33.997Z</time>
</trkpt>
<trkpt lat="41.9162300" lon="1.8859640">
<ele>341.802734</ele>
<time>2022-09-08T07:55:35.000Z</time>
</trkpt>
<trkpt lat="41.9162670" lon="1.8860020">
<ele>341.680786</ele>
<time>2022-09-08T07:55:36.002Z</time>
</trkpt>
<trkpt lat="41.9163060" lon="1.8860340">
<ele>341.497925</ele>
<time>2022-09-08T07:55:37.004Z</time>
</trkpt>
<trkpt lat="41.9163330" lon="1.8860450">
<ele>341.254059</ele>
<time>2022-09-08T07:55:37.998Z</time>
</trkpt>
<trkpt lat="41.9163610" lon="1.8860500">
<ele>340.857849</ele>
<time>2022-09-08T07:55:39.000Z</time>
</trkpt>
<trkpt lat="41.9163970" lon="1.8860560">
<ele>340.400665</ele>
<time>2022-09-08T07:55:40.002Z</time>
</trkpt>
<trkpt lat="41.9164560" lon="1.8860720">
<ele>339.791046</ele>
<time>2022-09-08T07:55:40.996Z</time>
</trkpt>
<trkpt lat="41.9164890" lon="1.8861020">
<ele>339.669128</ele>
<time>2022-09-08T07:55:41.998Z</time>
</trkpt>
<trkpt lat="41.9165070" lon="1.8861270">
<ele>339.760559</ele>
<time>2022-09-08T07:55:43.000Z</time>
</trkpt>
<trkpt lat="41.9165080" lon="1.8861420">
<ele>340.004395</ele>
<time>2022-09-08T07:55:44.003Z</time>
</trkpt>
<trkpt lat="41.9165390" lon="1.8861620">
<ele>339.882477</ele>
<time>2022-09-08T07:55:44.996Z</time>
</trkpt>
<trkpt lat="41.9166600" lon="1.8861950">
<ele>338.754730</ele>
<time>2022-09-08T07:55:45.998Z</time>
</trkpt>
<trkpt lat="41.9167370" lon="1.8862120">
<ele>338.084137</ele>
<time>2022-09-08T07:55:47.001Z</time>
</trkpt>
<trkpt lat="41.9167850" lon="1.8862250">
<ele>337.748871</ele>
<time>2022-09-08T07:55:48.003Z</time>
</trkpt>
<trkpt lat="41.9168270" lon="1.8862320">
<ele>337.444061</ele>
<time>2022-09-08T07:55:48.996Z</time>
</trkpt>
<trkpt lat="41.9169040" lon="1.8862360">
<ele>336.803986</ele>
<time>2022-09-08T07:55:49.999Z</time>
</trkpt>
<trkpt lat="41.9169710" lon="1.8862220">
<ele>336.102936</ele>
<time>2022-09-08T07:55:51.001Z</time>
</trkpt>
<trkpt lat="41.9170300" lon="1.8862140">
<ele>335.645752</ele>
<time>2022-09-08T07:55:52.003Z</time>
</trkpt>
<trkpt lat="41.9170650" lon="1.8862010">
<ele>335.371460</ele>
<time>2022-09-08T07:55:52.997Z</time>
</trkpt>
<trkpt lat="41.9171050" lon="1.8861900">
<ele>335.036133</ele>
<time>2022-09-08T07:55:53.999Z</time>
</trkpt>
<trkpt lat="41.9171740" lon="1.8862010">
<ele>334.792328</ele>
<time>2022-09-08T07:55:55.001Z</time>
</trkpt>
<trkpt lat="41.9172430" lon="1.8862080">
<ele>334.639923</ele>
<time>2022-09-08T07:55:56.004Z</time>
</trkpt>
<trkpt lat="41.9172820" lon="1.8861940">
<ele>334.426544</ele>
<time>2022-09-08T07:55:56.997Z</time>
</trkpt>
<trkpt lat="41.9173160" lon="1.8861960">
<ele>334.396088</ele>
<time>2022-09-08T07:55:57.999Z</time>
</trkpt>
<trkpt lat="41.9173630" lon="1.8862000">
<ele>334.457062</ele>
<time>2022-09-08T07:55:59.002Z</time>
</trkpt>
<trkpt lat="41.9174120" lon="1.8862000">
<ele>334.518005</ele>
<time>2022-09-08T07:56:00.004Z</time>
</trkpt>
<trkpt lat="41.9174620" lon="1.8862020">
<ele>334.639923</ele>
<time>2022-09-08T07:56:00.997Z</time>
</trkpt>
<trkpt lat="41.9175240" lon="1.8862050">
<ele>334.883759</ele>
<time>2022-09-08T07:56:02.000Z</time>
</trkpt>
<trkpt lat="41.9175740" lon="1.8862010">
<ele>335.097137</ele>
<time>2022-09-08T07:56:03.002Z</time>
</trkpt>
<trkpt lat="41.9176220" lon="1.8861890">
<ele>335.219055</ele>
<time>2022-09-08T07:56:04.004Z</time>
</trkpt>
<trkpt lat="41.9176690" lon="1.8862010">
<ele>335.615265</ele>
<time>2022-09-08T07:56:04.998Z</time>
</trkpt>
<trkpt lat="41.9177050" lon="1.8862220">
<ele>336.072479</ele>
<time>2022-09-08T07:56:06.000Z</time>
</trkpt>
<trkpt lat="41.9177460" lon="1.8862380">
<ele>336.560150</ele>
<time>2022-09-08T07:56:07.002Z</time>
</trkpt>
<trkpt lat="41.9178000" lon="1.8862540">
<ele>337.078339</ele>
<time>2022-09-08T07:56:07.996Z</time>
</trkpt>
<trkpt lat="41.9178410" lon="1.8862720">
<ele>337.413605</ele>
<time>2022-09-08T07:56:08.998Z</time>
</trkpt>
<trkpt lat="41.9178690" lon="1.8862810">
<ele>337.626953</ele>
<time>2022-09-08T07:56:10.000Z</time>
</trkpt>
<trkpt lat="41.9179250" lon="1.8862850">
<ele>338.053680</ele>
<time>2022-09-08T07:56:11.003Z</time>
</trkpt>
<trkpt lat="41.9180250" lon="1.8862820">
<ele>338.541351</ele>
<time>2022-09-08T07:56:11.996Z</time>
</trkpt>
<trkpt lat="41.9181020" lon="1.8862930">
<ele>338.968079</ele>
<time>2022-09-08T07:56:12.998Z</time>
</trkpt>
<trkpt lat="41.9181470" lon="1.8862790">
<ele>339.242401</ele>
<time>2022-09-08T07:56:14.001Z</time>
</trkpt>
<trkpt lat="41.9182010" lon="1.8862540">
<ele>339.608154</ele>
<time>2022-09-08T07:56:15.003Z</time>
</trkpt>
<trkpt lat="41.9182540" lon="1.8862410">
<ele>339.851990</ele>
<time>2022-09-08T07:56:15.996Z</time>
</trkpt>
<trkpt lat="41.9182930" lon="1.8862300">
<ele>340.004395</ele>
<time>2022-09-08T07:56:16.999Z</time>
</trkpt>
<trkpt lat="41.9183220" lon="1.8862310">
<ele>340.217743</ele>
<time>2022-09-08T07:56:18.001Z</time>
</trkpt>
<trkpt lat="41.9183520" lon="1.8862410">
<ele>340.461609</ele>
<time>2022-09-08T07:56:19.003Z</time>
</trkpt>
<trkpt lat="41.9184090" lon="1.8862570">
<ele>340.857849</ele>
<time>2022-09-08T07:56:19.997Z</time>
</trkpt>
<trkpt lat="41.9184680" lon="1.8862560">
<ele>341.223602</ele>
<time>2022-09-08T07:56:20.999Z</time>
</trkpt>
<trkpt lat="41.9185450" lon="1.8862660">
<ele>341.650330</ele>
<time>2022-09-08T07:56:22.001Z</time>
</trkpt>
<trkpt lat="41.9186000" lon="1.8862690">
<ele>341.985596</ele>
<time>2022-09-08T07:56:23.004Z</time>
</trkpt>
<trkpt lat="41.9186660" lon="1.8862830">
<ele>342.290405</ele>
<time>2022-09-08T07:56:23.997Z</time>
</trkpt>
<trkpt lat="41.9187370" lon="1.8863170">
<ele>342.473267</ele>
<time>2022-09-08T07:56:24.999Z</time>
</trkpt>
<trkpt lat="41.9187830" lon="1.8863440">
<ele>342.595215</ele>
<time>2022-09-08T07:56:26.002Z</time>
</trkpt>
<trkpt lat="41.9188180" lon="1.8863570">
<ele>342.747589</ele>
<time>2022-09-08T07:56:27.004Z</time>
</trkpt>
<trkpt lat="41.9188560" lon="1.8863590">
<ele>342.960938</ele>
<time>2022-09-08T07:56:27.997Z</time>
</trkpt>
<trkpt lat="41.9189030" lon="1.8863330">
<ele>343.387665</ele>
<time>2022-09-08T07:56:29.000Z</time>
</trkpt>
<trkpt lat="41.9189650" lon="1.8863050">
<ele>343.966797</ele>
<time>2022-09-08T07:56:30.002Z</time>
</trkpt>
<trkpt lat="41.9190390" lon="1.8863060">
<ele>344.363068</ele>
<time>2022-09-08T07:56:31.004Z</time>
</trkpt>
<trkpt lat="41.9190910" lon="1.8863140">
<ele>344.515442</ele>
<time>2022-09-08T07:56:31.998Z</time>
</trkpt>
<trkpt lat="41.9191510" lon="1.8863230">
<ele>344.667847</ele>
<time>2022-09-08T07:56:33.000Z</time>
</trkpt>
<trkpt lat="41.9192060" lon="1.8863180">
<ele>344.911682</ele>
<time>2022-09-08T07:56:34.002Z</time>
</trkpt>
<trkpt lat="41.9192790" lon="1.8863040">
<ele>345.246948</ele>
<time>2022-09-08T07:56:34.996Z</time>
</trkpt>
<trkpt lat="41.9193370" lon="1.8862910">
<ele>345.521271</ele>
<time>2022-09-08T07:56:35.998Z</time>
</trkpt>
<trkpt lat="41.9193800" lon="1.8862680">
<ele>345.826080</ele>
<time>2022-09-08T07:56:37.000Z</time>
</trkpt>
<trkpt lat="41.9194330" lon="1.8862320">
<ele>346.130859</ele>
<time>2022-09-08T07:56:38.003Z</time>
</trkpt>
<trkpt lat="41.9194880" lon="1.8862110">
<ele>346.222321</ele>
<time>2022-09-08T07:56:38.996Z</time>
</trkpt>
<trkpt lat="41.9195480" lon="1.8862140">
<ele>346.191864</ele>
<time>2022-09-08T07:56:39.998Z</time>
</trkpt>
<trkpt lat="41.9196080" lon="1.8862190">
<ele>346.100403</ele>
<time>2022-09-08T07:56:41.001Z</time>
</trkpt>
<trkpt lat="41.9196580" lon="1.8862290">
<ele>346.039459</ele>
<time>2022-09-08T07:56:42.003Z</time>
</trkpt>
<trkpt lat="41.9197200" lon="1.8862400">
<ele>345.917542</ele>
<time>2022-09-08T07:56:42.996Z</time>
</trkpt>
<trkpt lat="41.9197860" lon="1.8862530">
<ele>345.704132</ele>
<time>2022-09-08T07:56:43.999Z</time>
</trkpt>
<trkpt lat="41.9198490" lon="1.8862660">
<ele>345.368866</ele>
<time>2022-09-08T07:56:45.001Z</time>
</trkpt>
<trkpt lat="41.9198970" lon="1.8862600">
<ele>345.277466</ele>
<time>2022-09-08T07:56:46.003Z</time>
</trkpt>
<trkpt lat="41.9199340" lon="1.8862560">
<ele>345.186005</ele>
<time>2022-09-08T07:56:46.997Z</time>
</trkpt>
<trkpt lat="41.9199750" lon="1.8862580">
<ele>345.003113</ele>
<time>2022-09-08T07:56:47.999Z</time>
</trkpt>
<trkpt lat="41.9200180" lon="1.8862820">
<ele>344.606873</ele>
<time>2022-09-08T07:56:49.001Z</time>
</trkpt>
<trkpt lat="41.9200570" lon="1.8863030">
<ele>344.271606</ele>
<time>2022-09-08T07:56:50.004Z</time>
</trkpt>
<trkpt lat="41.9201080" lon="1.8863150">
<ele>343.936340</ele>
<time>2022-09-08T07:56:50.997Z</time>
</trkpt>
<trkpt lat="41.9201430" lon="1.8863070">
<ele>343.844879</ele>
<time>2022-09-08T07:56:51.999Z</time>
</trkpt>
<trkpt lat="41.9201810" lon="1.8862990">
<ele>343.722931</ele>
<time>2022-09-08T07:56:53.002Z</time>
</trkpt>
<trkpt lat="41.9202190" lon="1.8862980">
<ele>343.570557</ele>
<time>2022-09-08T07:56:54.004Z</time>
</trkpt>
<trkpt lat="41.9202510" lon="1.8863050">
<ele>343.387665</ele>
<time>2022-09-08T07:56:54.997Z</time>
</trkpt>
<trkpt lat="41.9202790" lon="1.8863230">
<ele>343.113342</ele>
<time>2022-09-08T07:56:56.000Z</time>
</trkpt>
<trkpt lat="41.9203050" lon="1.8863470">
<ele>342.869537</ele>
<time>2022-09-08T07:56:57.002Z</time>
</trkpt>
<trkpt lat="41.9203360" lon="1.8863660">
<ele>342.656158</ele>
<time>2022-09-08T07:56:58.004Z</time>
</trkpt>
<trkpt lat="41.9204050" lon="1.8863740">
<ele>342.351349</ele>
<time>2022-09-08T07:56:58.998Z</time>
</trkpt>
<trkpt lat="41.9204800" lon="1.8863820">
<ele>342.016083</ele>
<time>2022-09-08T07:57:00.000Z</time>
</trkpt>
<trkpt lat="41.9205370" lon="1.8863890">
<ele>341.741760</ele>
<time>2022-09-08T07:57:01.002Z</time>
</trkpt>
<trkpt lat="41.9206120" lon="1.8863770">
<ele>341.467468</ele>
<time>2022-09-08T07:57:01.996Z</time>
</trkpt>
<trkpt lat="41.9206760" lon="1.8863530">
<ele>341.284546</ele>
<time>2022-09-08T07:57:02.998Z</time>
</trkpt>
<trkpt lat="41.9207450" lon="1.8863460">
<ele>341.071198</ele>
<time>2022-09-08T07:57:04.000Z</time>
</trkpt>
<trkpt lat="41.9208130" lon="1.8863260">
<ele>340.918793</ele>
<time>2022-09-08T07:57:05.003Z</time>
</trkpt>
<trkpt lat="41.9208670" lon="1.8863130">
<ele>340.857849</ele>
<time>2022-09-08T07:57:05.996Z</time>
</trkpt>
<trkpt lat="41.9209470" lon="1.8863020">
<ele>340.735931</ele>
<time>2022-09-08T07:57:06.998Z</time>
</trkpt>
<trkpt lat="41.9210120" lon="1.8862750">
<ele>340.766388</ele>
<time>2022-09-08T07:57:08.001Z</time>
</trkpt>
<trkpt lat="41.9210680" lon="1.8862340">
<ele>340.796875</ele>
<time>2022-09-08T07:57:09.003Z</time>
</trkpt>
<trkpt lat="41.9211260" lon="1.8861640">
<ele>340.644470</ele>
<time>2022-09-08T07:57:09.996Z</time>
</trkpt>
<trkpt lat="41.9211680" lon="1.8861190">
<ele>340.644470</ele>
<time>2022-09-08T07:57:10.999Z</time>
</trkpt>
<trkpt lat="41.9212240" lon="1.8860800">
<ele>340.735931</ele>
<time>2022-09-08T07:57:12.001Z</time>
</trkpt>
<trkpt lat="41.9212870" lon="1.8860470">
<ele>340.735931</ele>
<time>2022-09-08T07:57:13.003Z</time>
</trkpt>
<trkpt lat="41.9213380" lon="1.8860230">
<ele>340.705444</ele>
<time>2022-09-08T07:57:13.997Z</time>
</trkpt>
<trkpt lat="41.9213790" lon="1.8859930">
<ele>340.705444</ele>
<time>2022-09-08T07:57:14.999Z</time>
</trkpt>
<trkpt lat="41.9214100" lon="1.8859640">
<ele>340.766388</ele>
<time>2022-09-08T07:57:16.001Z</time>
</trkpt>
<trkpt lat="41.9214530" lon="1.8859250">
<ele>340.888336</ele>
<time>2022-09-08T07:57:17.004Z</time>
</trkpt>
<trkpt lat="41.9214910" lon="1.8858760">
<ele>341.132141</ele>
<time>2022-09-08T07:57:17.997Z</time>
</trkpt>
<trkpt lat="41.9215380" lon="1.8858200">
<ele>341.436951</ele>
<time>2022-09-08T07:57:18.999Z</time>
</trkpt>
<trkpt lat="41.9215740" lon="1.8858000">
<ele>341.497925</ele>
<time>2022-09-08T07:57:20.002Z</time>
</trkpt>
<trkpt lat="41.9216090" lon="1.8857820">
<ele>341.558868</ele>
<time>2022-09-08T07:57:21.004Z</time>
</trkpt>
<trkpt lat="41.9216510" lon="1.8857820">
<ele>341.467468</ele>
<time>2022-09-08T07:57:21.997Z</time>
</trkpt>
<trkpt lat="41.9216900" lon="1.8857730">
<ele>341.467468</ele>
<time>2022-09-08T07:57:23.000Z</time>
</trkpt>
<trkpt lat="41.9217190" lon="1.8857730">
<ele>341.406464</ele>
<time>2022-09-08T07:57:24.002Z</time>
</trkpt>
<trkpt lat="41.9217240" lon="1.8857750">
<ele>341.406464</ele>
<time>2022-09-08T07:57:25.004Z</time>
</trkpt>
<trkpt lat="41.9217240" lon="1.8857750">
<ele>341.406464</ele>
<time>2022-09-08T07:57:25.998Z</time>
</trkpt>
<trkpt lat="41.9217240" lon="1.8857750">
<ele>341.406464</ele>
<time>2022-09-08T07:57:27.000Z</time>
</trkpt>
<trkpt lat="41.9217610" lon="1.8857260">
<ele>341.772247</ele>
<time>2022-09-08T07:58:14.002Z</time>
</trkpt>
<trkpt lat="41.9217760" lon="1.8857040">
<ele>341.955139</ele>
<time>2022-09-08T07:58:15.004Z</time>
</trkpt>
<trkpt lat="41.9217950" lon="1.8856770">
<ele>342.198944</ele>
<time>2022-09-08T07:58:15.997Z</time>
</trkpt>
<trkpt lat="41.9218180" lon="1.8856460">
<ele>342.473267</ele>
<time>2022-09-08T07:58:17.000Z</time>
</trkpt>
<trkpt lat="41.9218450" lon="1.8856100">
<ele>342.808533</ele>
<time>2022-09-08T07:58:18.002Z</time>
</trkpt>
<trkpt lat="41.9218770" lon="1.8855680">
<ele>343.235260</ele>
<time>2022-09-08T07:58:19.004Z</time>
</trkpt>
<trkpt lat="41.9219130" lon="1.8855140">
<ele>343.814392</ele>
<time>2022-09-08T07:58:19.998Z</time>
</trkpt>
<trkpt lat="41.9219490" lon="1.8854670">
<ele>344.363068</ele>
<time>2022-09-08T07:58:21.000Z</time>
</trkpt>
<trkpt lat="41.9219760" lon="1.8854350">
<ele>344.728790</ele>
<time>2022-09-08T07:58:22.002Z</time>
</trkpt>
<trkpt lat="41.9219820" lon="1.8854280">
<ele>344.820251</ele>
<time>2022-09-08T07:58:22.996Z</time>
</trkpt>
<trkpt lat="41.9219820" lon="1.8854280">
<ele>344.820251</ele>
<time>2022-09-08T07:58:23.998Z</time>
</trkpt>
<trkpt lat="41.9219960" lon="1.8853840">
<ele>345.125061</ele>
<time>2022-09-08T07:59:36.004Z</time>
</trkpt>
<trkpt lat="41.9220090" lon="1.8853350">
<ele>345.429840</ele>
<time>2022-09-08T07:59:36.997Z</time>
</trkpt>
<trkpt lat="41.9220260" lon="1.8852690">
<ele>345.826080</ele>
<time>2022-09-08T07:59:38.000Z</time>
</trkpt>
<trkpt lat="41.9220440" lon="1.8852090">
<ele>346.252808</ele>
<time>2022-09-08T07:59:39.002Z</time>
</trkpt>
<trkpt lat="41.9220660" lon="1.8851420">
<ele>346.709991</ele>
<time>2022-09-08T07:59:40.004Z</time>
</trkpt>
<trkpt lat="41.9220810" lon="1.8850830">
<ele>347.136719</ele>
<time>2022-09-08T07:59:40.998Z</time>
</trkpt>
<trkpt lat="41.9220990" lon="1.8850020">
<ele>347.746338</ele>
<time>2022-09-08T07:59:42.000Z</time>
</trkpt>
<trkpt lat="41.9221190" lon="1.8849300">
<ele>348.325470</ele>
<time>2022-09-08T07:59:43.002Z</time>
</trkpt>
<trkpt lat="41.9221420" lon="1.8848540">
<ele>348.935059</ele>
<time>2022-09-08T07:59:43.996Z</time>
</trkpt>
<trkpt lat="41.9221690" lon="1.8847870">
<ele>349.453186</ele>
<time>2022-09-08T07:59:44.998Z</time>
</trkpt>
<trkpt lat="41.9221970" lon="1.8847280">
<ele>349.910400</ele>
<time>2022-09-08T07:59:46.000Z</time>
</trkpt>
<trkpt lat="41.9222250" lon="1.8846830">
<ele>350.154266</ele>
<time>2022-09-08T07:59:47.003Z</time>
</trkpt>
<trkpt lat="41.9222660" lon="1.8846260">
<ele>350.489532</ele>
<time>2022-09-08T07:59:47.996Z</time>
</trkpt>
<trkpt lat="41.9223090" lon="1.8845730">
<ele>350.641937</ele>
<time>2022-09-08T07:59:48.998Z</time>
</trkpt>
<trkpt lat="41.9223500" lon="1.8845170">
<ele>350.763855</ele>
<time>2022-09-08T07:59:50.001Z</time>
</trkpt>
<trkpt lat="41.9223890" lon="1.8844770">
<ele>350.702881</ele>
<time>2022-09-08T07:59:51.003Z</time>
</trkpt>
<trkpt lat="41.9224330" lon="1.8844390">
<ele>350.550476</ele>
<time>2022-09-08T07:59:51.996Z</time>
</trkpt>
<trkpt lat="41.9224810" lon="1.8843790">
<ele>350.489532</ele>
<time>2022-09-08T07:59:52.999Z</time>
</trkpt>
<trkpt lat="41.9225160" lon="1.8843330">
<ele>350.489532</ele>
<time>2022-09-08T07:59:54.001Z</time>
</trkpt>
<trkpt lat="41.9225480" lon="1.8842670">
<ele>350.824799</ele>
<time>2022-09-08T07:59:55.003Z</time>
</trkpt>
<trkpt lat="41.9225860" lon="1.8841950">
<ele>351.129608</ele>
<time>2022-09-08T07:59:55.997Z</time>
</trkpt>
<trkpt lat="41.9226360" lon="1.8841290">
<ele>351.190552</ele>
<time>2022-09-08T07:59:56.999Z</time>
</trkpt>
<trkpt lat="41.9226780" lon="1.8840820">
<ele>351.099121</ele>
<time>2022-09-08T07:59:58.001Z</time>
</trkpt>
<trkpt lat="41.9227240" lon="1.8840240">
<ele>351.190552</ele>
<time>2022-09-08T07:59:59.004Z</time>
</trkpt>
<trkpt lat="41.9227590" lon="1.8839670">
<ele>351.556335</ele>
<time>2022-09-08T07:59:59.997Z</time>
</trkpt>
<trkpt lat="41.9228050" lon="1.8839150">
<ele>351.678253</ele>
<time>2022-09-08T08:00:00.999Z</time>
</trkpt>
<trkpt lat="41.9228660" lon="1.8838470">
<ele>351.891602</ele>
<time>2022-09-08T08:00:02.002Z</time>
</trkpt>
<trkpt lat="41.9229140" lon="1.8837730">
<ele>352.592651</ele>
<time>2022-09-08T08:00:03.004Z</time>
</trkpt>
<trkpt lat="41.9229710" lon="1.8837010">
<ele>352.988861</ele>
<time>2022-09-08T08:00:03.997Z</time>
</trkpt>
<trkpt lat="41.9230160" lon="1.8836320">
<ele>353.476532</ele>
<time>2022-09-08T08:00:05.000Z</time>
</trkpt>
<trkpt lat="41.9230580" lon="1.8835790">
<ele>353.720398</ele>
<time>2022-09-08T08:00:06.002Z</time>
</trkpt>
<trkpt lat="41.9231000" lon="1.8835440">
<ele>353.659454</ele>
<time>2022-09-08T08:00:07.004Z</time>
</trkpt>
<trkpt lat="41.9231470" lon="1.8835080">
<ele>353.507050</ele>
<time>2022-09-08T08:00:07.998Z</time>
</trkpt>
<trkpt lat="41.9231930" lon="1.8834590">
<ele>353.537537</ele>
<time>2022-09-08T08:00:09.000Z</time>
</trkpt>
<trkpt lat="41.9232600" lon="1.8834010">
<ele>353.446075</ele>
<time>2022-09-08T08:00:10.002Z</time>
</trkpt>
<trkpt lat="41.9232990" lon="1.8833690">
<ele>353.354645</ele>
<time>2022-09-08T08:00:10.996Z</time>
</trkpt>
<trkpt lat="41.9233510" lon="1.8833290">
<ele>353.110809</ele>
<time>2022-09-08T08:00:11.998Z</time>
</trkpt>
<trkpt lat="41.9233990" lon="1.8832740">
<ele>353.263214</ele>
<time>2022-09-08T08:00:13.000Z</time>
</trkpt>
<trkpt lat="41.9234320" lon="1.8831960">
<ele>354.329987</ele>
<time>2022-09-08T08:00:14.003Z</time>
</trkpt>
<trkpt lat="41.9234510" lon="1.8831270">
<ele>355.518738</ele>
<time>2022-09-08T08:00:14.996Z</time>
</trkpt>
<trkpt lat="41.9234770" lon="1.8830250">
<ele>357.438934</ele>
<time>2022-09-08T08:00:15.998Z</time>
</trkpt>
<trkpt lat="41.9235130" lon="1.8829450">
<ele>358.810547</ele>
<time>2022-09-08T08:00:17.001Z</time>
</trkpt>
<trkpt lat="41.9235560" lon="1.8828840">
<ele>359.450653</ele>
<time>2022-09-08T08:00:18.003Z</time>
</trkpt>
<trkpt lat="41.9235940" lon="1.8828550">
<ele>359.359192</ele>
<time>2022-09-08T08:00:18.996Z</time>
</trkpt>
<trkpt lat="41.9236580" lon="1.8828720">
<ele>357.743744</ele>
<time>2022-09-08T08:00:19.999Z</time>
</trkpt>
<trkpt lat="41.9237400" lon="1.8828990">
<ele>355.579681</ele>
<time>2022-09-08T08:00:21.001Z</time>
</trkpt>
<trkpt lat="41.9238150" lon="1.8829260">
<ele>353.720398</ele>
<time>2022-09-08T08:00:22.003Z</time>
</trkpt>
<trkpt lat="41.9238930" lon="1.8829500">
<ele>352.104950</ele>
<time>2022-09-08T08:00:22.997Z</time>
</trkpt>
<trkpt lat="41.9239660" lon="1.8829690">
<ele>350.885742</ele>
<time>2022-09-08T08:00:23.999Z</time>
</trkpt>
<trkpt lat="41.9240350" lon="1.8830010">
<ele>349.636078</ele>
<time>2022-09-08T08:00:25.001Z</time>
</trkpt>
<trkpt lat="41.9241140" lon="1.8830200">
<ele>348.782654</ele>
<time>2022-09-08T08:00:26.004Z</time>
</trkpt>
<trkpt lat="41.9241910" lon="1.8830430">
<ele>348.112061</ele>
<time>2022-09-08T08:00:26.997Z</time>
</trkpt>
<trkpt lat="41.9242560" lon="1.8830800">
<ele>347.502472</ele>
<time>2022-09-08T08:00:27.999Z</time>
</trkpt>
<trkpt lat="41.9243090" lon="1.8831210">
<ele>347.045258</ele>
<time>2022-09-08T08:00:29.002Z</time>
</trkpt>
<trkpt lat="41.9243470" lon="1.8831510">
<ele>346.831940</ele>
<time>2022-09-08T08:00:30.004Z</time>
</trkpt>
<trkpt lat="41.9243810" lon="1.8831630">
<ele>346.801453</ele>
<time>2022-09-08T08:00:30.997Z</time>
</trkpt>
<trkpt lat="41.9244110" lon="1.8831560">
<ele>346.892883</ele>
<time>2022-09-08T08:00:32.000Z</time>
</trkpt>
<trkpt lat="41.9244500" lon="1.8831770">
<ele>346.862396</ele>
<time>2022-09-08T08:00:33.002Z</time>
</trkpt>
<trkpt lat="41.9244850" lon="1.8831910">
<ele>346.862396</ele>
<time>2022-09-08T08:00:34.004Z</time>
</trkpt>
<trkpt lat="41.9245190" lon="1.8832060">
<ele>346.892883</ele>
<time>2022-09-08T08:00:34.998Z</time>
</trkpt>
<trkpt lat="41.9245490" lon="1.8832070">
<ele>346.953857</ele>
<time>2022-09-08T08:00:36.000Z</time>
</trkpt>
<trkpt lat="41.9245850" lon="1.8832180">
<ele>347.014801</ele>
<time>2022-09-08T08:00:37.002Z</time>
</trkpt>
<trkpt lat="41.9246090" lon="1.8832480">
<ele>346.923340</ele>
<time>2022-09-08T08:00:37.996Z</time>
</trkpt>
<trkpt lat="41.9246480" lon="1.8832980">
<ele>346.862396</ele>
<time>2022-09-08T08:00:38.998Z</time>
</trkpt>
<trkpt lat="41.9246900" lon="1.8833170">
<ele>346.831940</ele>
<time>2022-09-08T08:00:40.000Z</time>
</trkpt>
<trkpt lat="41.9247670" lon="1.8833510">
<ele>346.770935</ele>
<time>2022-09-08T08:00:41.003Z</time>
</trkpt>
<trkpt lat="41.9247970" lon="1.8833730">
<ele>346.770935</ele>
<time>2022-09-08T08:00:41.996Z</time>
</trkpt>
<trkpt lat="41.9248110" lon="1.8833880">
<ele>346.770935</ele>
<time>2022-09-08T08:00:42.998Z</time>
</trkpt>
<trkpt lat="41.9248180" lon="1.8834060">
<ele>346.801453</ele>
<time>2022-09-08T08:00:44.001Z</time>
</trkpt>
<trkpt lat="41.9248440" lon="1.8834310">
<ele>346.831940</ele>
<time>2022-09-08T08:00:45.003Z</time>
</trkpt>
<trkpt lat="41.9248790" lon="1.8834280">
<ele>346.709991</ele>
<time>2022-09-08T08:00:45.996Z</time>
</trkpt>
<trkpt lat="41.9249230" lon="1.8834110">
<ele>346.557587</ele>
<time>2022-09-08T08:00:46.999Z</time>
</trkpt>
<trkpt lat="41.9249620" lon="1.8834000">
<ele>346.466156</ele>
<time>2022-09-08T08:00:48.001Z</time>
</trkpt>
<trkpt lat="41.9250160" lon="1.8834020">
<ele>346.344269</ele>
<time>2022-09-08T08:00:49.003Z</time>
</trkpt>
<trkpt lat="41.9250650" lon="1.8834140">
<ele>346.222321</ele>
<time>2022-09-08T08:00:49.997Z</time>
</trkpt>
<trkpt lat="41.9251250" lon="1.8834300">
<ele>346.039459</ele>
<time>2022-09-08T08:00:50.999Z</time>
</trkpt>
<trkpt lat="41.9251810" lon="1.8834470">
<ele>345.856537</ele>
<time>2022-09-08T08:00:52.001Z</time>
</trkpt>
<trkpt lat="41.9252360" lon="1.8834590">
<ele>345.704132</ele>
<time>2022-09-08T08:00:53.004Z</time>
</trkpt>
<trkpt lat="41.9252800" lon="1.8834570">
<ele>345.582245</ele>
<time>2022-09-08T08:00:53.997Z</time>
</trkpt>
<trkpt lat="41.9253310" lon="1.8834300">
<ele>345.582245</ele>
<time>2022-09-08T08:00:54.999Z</time>
</trkpt>
<trkpt lat="41.9253680" lon="1.8834300">
<ele>345.521271</ele>
<time>2022-09-08T08:00:56.002Z</time>
</trkpt>
<trkpt lat="41.9254070" lon="1.8834380">
<ele>345.429840</ele>
<time>2022-09-08T08:00:57.004Z</time>
</trkpt>
<trkpt lat="41.9254500" lon="1.8834500">
<ele>345.368866</ele>
<time>2022-09-08T08:00:57.997Z</time>
</trkpt>
<trkpt lat="41.9254920" lon="1.8834580">
<ele>345.307922</ele>
<time>2022-09-08T08:00:59.000Z</time>
</trkpt>
<trkpt lat="41.9255510" lon="1.8834500">
<ele>345.368866</ele>
<time>2022-09-08T08:01:00.002Z</time>
</trkpt>
<trkpt lat="41.9255960" lon="1.8834530">
<ele>345.368866</ele>
<time>2022-09-08T08:01:01.004Z</time>
</trkpt>
<trkpt lat="41.9256280" lon="1.8834540">
<ele>345.399353</ele>
<time>2022-09-08T08:01:01.998Z</time>
</trkpt>
<trkpt lat="41.9256730" lon="1.8834610">
<ele>345.399353</ele>
<time>2022-09-08T08:01:03.000Z</time>
</trkpt>
<trkpt lat="41.9257260" lon="1.8834700">
<ele>345.399353</ele>
<time>2022-09-08T08:01:04.002Z</time>
</trkpt>
<trkpt lat="41.9257830" lon="1.8834840">
<ele>345.429840</ele>
<time>2022-09-08T08:01:04.996Z</time>
</trkpt>
<trkpt lat="41.9258510" lon="1.8835200">
<ele>345.429840</ele>
<time>2022-09-08T08:01:05.998Z</time>
</trkpt>
<trkpt lat="41.9258800" lon="1.8835410">
<ele>345.429840</ele>
<time>2022-09-08T08:01:07.000Z</time>
</trkpt>
<trkpt lat="41.9259120" lon="1.8835480">
<ele>345.490814</ele>
<time>2022-09-08T08:01:08.003Z</time>
</trkpt>
<trkpt lat="41.9259430" lon="1.8835130">
<ele>345.582245</ele>
<time>2022-09-08T08:01:08.996Z</time>
</trkpt>
<trkpt lat="41.9259700" lon="1.8834450">
<ele>345.826080</ele>
<time>2022-09-08T08:01:09.998Z</time>
</trkpt>
<trkpt lat="41.9259940" lon="1.8833740">
<ele>346.222321</ele>
<time>2022-09-08T08:01:11.001Z</time>
</trkpt>
<trkpt lat="41.9260270" lon="1.8833210">
<ele>346.588074</ele>
<time>2022-09-08T08:01:12.003Z</time>
</trkpt>
<trkpt lat="41.9260590" lon="1.8832800">
<ele>346.892883</ele>
<time>2022-09-08T08:01:12.996Z</time>
</trkpt>
<trkpt lat="41.9260970" lon="1.8832390">
<ele>347.197662</ele>
<time>2022-09-08T08:01:13.999Z</time>
</trkpt>
<trkpt lat="41.9261310" lon="1.8832140">
<ele>347.380554</ele>
<time>2022-09-08T08:01:15.001Z</time>
</trkpt>
<trkpt lat="41.9261760" lon="1.8831780">
<ele>347.593933</ele>
<time>2022-09-08T08:01:16.003Z</time>
</trkpt>
<trkpt lat="41.9262130" lon="1.8831360">
<ele>347.837738</ele>
<time>2022-09-08T08:01:16.997Z</time>
</trkpt>
<trkpt lat="41.9262520" lon="1.8830810">
<ele>348.203522</ele>
<time>2022-09-08T08:01:17.999Z</time>
</trkpt>
<trkpt lat="41.9262870" lon="1.8829850">
<ele>348.935059</ele>
<time>2022-09-08T08:01:19.001Z</time>
</trkpt>
<trkpt lat="41.9263130" lon="1.8829130">
<ele>349.544647</ele>
<time>2022-09-08T08:01:20.004Z</time>
</trkpt>
<trkpt lat="41.9263440" lon="1.8828390">
<ele>349.666534</ele>
<time>2022-09-08T08:01:20.997Z</time>
</trkpt>
<trkpt lat="41.9263770" lon="1.8827790">
<ele>349.727539</ele>
<time>2022-09-08T08:01:21.999Z</time>
</trkpt>
<trkpt lat="41.9264070" lon="1.8827440">
<ele>349.636078</ele>
<time>2022-09-08T08:01:23.002Z</time>
</trkpt>
<trkpt lat="41.9264500" lon="1.8827110">
<ele>349.422729</ele>
<time>2022-09-08T08:01:24.004Z</time>
</trkpt>
<trkpt lat="41.9264990" lon="1.8827040">
<ele>348.935059</ele>
<time>2022-09-08T08:01:24.997Z</time>
</trkpt>
<trkpt lat="41.9265440" lon="1.8827040">
<ele>348.477844</ele>
<time>2022-09-08T08:01:26.000Z</time>
</trkpt>
<trkpt lat="41.9266020" lon="1.8826940">
<ele>347.929199</ele>
<time>2022-09-08T08:01:27.002Z</time>
</trkpt>
<trkpt lat="41.9266620" lon="1.8826750">
<ele>347.441528</ele>
<time>2022-09-08T08:01:28.004Z</time>
</trkpt>
<trkpt lat="41.9267220" lon="1.8826560">
<ele>346.953857</ele>
<time>2022-09-08T08:01:28.998Z</time>
</trkpt>
<trkpt lat="41.9267820" lon="1.8826630">
<ele>346.374725</ele>
<time>2022-09-08T08:01:30.000Z</time>
</trkpt>
<trkpt lat="41.9268170" lon="1.8826630">
<ele>346.039459</ele>
<time>2022-09-08T08:01:31.002Z</time>
</trkpt>
<trkpt lat="41.9268620" lon="1.8826740">
<ele>345.643188</ele>
<time>2022-09-08T08:01:31.996Z</time>
</trkpt>
<trkpt lat="41.9268950" lon="1.8826870">
<ele>345.307922</ele>
<time>2022-09-08T08:01:32.998Z</time>
</trkpt>
<trkpt lat="41.9269570" lon="1.8827190">
<ele>344.728790</ele>
<time>2022-09-08T08:01:34.000Z</time>
</trkpt>
<trkpt lat="41.9270120" lon="1.8827600">
<ele>344.302063</ele>
<time>2022-09-08T08:01:35.003Z</time>
</trkpt>
<trkpt lat="41.9270490" lon="1.8827970">
<ele>344.058258</ele>
<time>2022-09-08T08:01:35.996Z</time>
</trkpt>
<trkpt lat="41.9270830" lon="1.8828280">
<ele>343.936340</ele>
<time>2022-09-08T08:01:36.998Z</time>
</trkpt>
<trkpt lat="41.9271240" lon="1.8828500">
<ele>343.692474</ele>
<time>2022-09-08T08:01:38.001Z</time>
</trkpt>
<trkpt lat="41.9271630" lon="1.8828610">
<ele>343.509613</ele>
<time>2022-09-08T08:01:39.003Z</time>
</trkpt>
<trkpt lat="41.9271990" lon="1.8828530">
<ele>343.296265</ele>
<time>2022-09-08T08:01:39.996Z</time>
</trkpt>
<trkpt lat="41.9272280" lon="1.8828330">
<ele>343.174316</ele>
<time>2022-09-08T08:01:40.999Z</time>
</trkpt>
<trkpt lat="41.9272470" lon="1.8828180">
<ele>343.052399</ele>
<time>2022-09-08T08:01:42.001Z</time>
</trkpt>
<trkpt lat="41.9272640" lon="1.8828060">
<ele>342.960938</ele>
<time>2022-09-08T08:01:43.003Z</time>
</trkpt>
<trkpt lat="41.9272800" lon="1.8827920">
<ele>342.899994</ele>
<time>2022-09-08T08:01:43.997Z</time>
</trkpt>
<trkpt lat="41.9272900" lon="1.8827820">
<ele>342.839050</ele>
<time>2022-09-08T08:01:44.999Z</time>
</trkpt>
<trkpt lat="41.9272970" lon="1.8827720">
<ele>342.808533</ele>
<time>2022-09-08T08:01:46.001Z</time>
</trkpt>
<trkpt lat="41.9273120" lon="1.8827620">
<ele>342.747589</ele>
<time>2022-09-08T08:01:47.004Z</time>
</trkpt>
<trkpt lat="41.9273280" lon="1.8827500">
<ele>342.686646</ele>
<time>2022-09-08T08:01:47.997Z</time>
</trkpt>
<trkpt lat="41.9273430" lon="1.8827330">
<ele>342.656158</ele>
<time>2022-09-08T08:01:48.999Z</time>
</trkpt>
<trkpt lat="41.9273530" lon="1.8827120">
<ele>342.595215</ele>
<time>2022-09-08T08:01:50.002Z</time>
</trkpt>
<trkpt lat="41.9273750" lon="1.8826910">
<ele>342.534241</ele>
<time>2022-09-08T08:01:51.004Z</time>
</trkpt>
<trkpt lat="41.9273990" lon="1.8826720">
<ele>342.503754</ele>
<time>2022-09-08T08:01:51.997Z</time>
</trkpt>
<trkpt lat="41.9274190" lon="1.8826730">
<ele>342.442810</ele>
<time>2022-09-08T08:01:53.000Z</time>
</trkpt>
<trkpt lat="41.9274380" lon="1.8826840">
<ele>342.412323</ele>
<time>2022-09-08T08:01:54.002Z</time>
</trkpt>
<trkpt lat="41.9274540" lon="1.8826910">
<ele>342.381866</ele>
<time>2022-09-08T08:01:55.004Z</time>
</trkpt>
<trkpt lat="41.9274720" lon="1.8826980">
<ele>342.381866</ele>
<time>2022-09-08T08:01:55.998Z</time>
</trkpt>
<trkpt lat="41.9274930" lon="1.8827060">
<ele>342.381866</ele>
<time>2022-09-08T08:01:57.000Z</time>
</trkpt>
<trkpt lat="41.9275170" lon="1.8827050">
<ele>342.381866</ele>
<time>2022-09-08T08:01:58.002Z</time>
</trkpt>
<trkpt lat="41.9275510" lon="1.8826910">
<ele>342.381866</ele>
<time>2022-09-08T08:01:58.996Z</time>
</trkpt>
<trkpt lat="41.9275860" lon="1.8826710">
<ele>342.412323</ele>
<time>2022-09-08T08:01:59.998Z</time>
</trkpt>
<trkpt lat="41.9275990" lon="1.8826570">
<ele>342.412323</ele>
<time>2022-09-08T08:02:01.000Z</time>
</trkpt>
<trkpt lat="41.9276020" lon="1.8826370">
<ele>342.412323</ele>
<time>2022-09-08T08:02:02.003Z</time>
</trkpt>
<trkpt lat="41.9275920" lon="1.8826160">
<ele>342.381866</ele>
<time>2022-09-08T08:02:02.996Z</time>
</trkpt>
<trkpt lat="41.9275730" lon="1.8826010">
<ele>342.351349</ele>
<time>2022-09-08T08:02:03.998Z</time>
</trkpt>
<trkpt lat="41.9275570" lon="1.8825760">
<ele>342.381866</ele>
<time>2022-09-08T08:02:05.001Z</time>
</trkpt>
<trkpt lat="41.9275470" lon="1.8825500">
<ele>342.412323</ele>
<time>2022-09-08T08:02:06.003Z</time>
</trkpt>
<trkpt lat="41.9275360" lon="1.8825250">
<ele>342.473267</ele>
<time>2022-09-08T08:02:06.996Z</time>
</trkpt>
<trkpt lat="41.9275250" lon="1.8825070">
<ele>342.534241</ele>
<time>2022-09-08T08:02:07.999Z</time>
</trkpt>
<trkpt lat="41.9275090" lon="1.8824660">
<ele>342.686646</ele>
<time>2022-09-08T08:02:09.001Z</time>
</trkpt>
<trkpt lat="41.9274950" lon="1.8824240">
<ele>342.899994</ele>
<time>2022-09-08T08:02:10.003Z</time>
</trkpt>
<trkpt lat="41.9274820" lon="1.8823880">
<ele>343.143860</ele>
<time>2022-09-08T08:02:10.997Z</time>
</trkpt>
<trkpt lat="41.9274680" lon="1.8823550">
<ele>343.387665</ele>
<time>2022-09-08T08:02:11.999Z</time>
</trkpt>
<trkpt lat="41.9274540" lon="1.8823210">
<ele>343.661987</ele>
<time>2022-09-08T08:02:13.001Z</time>
</trkpt>
<trkpt lat="41.9274410" lon="1.8822980">
<ele>343.905853</ele>
<time>2022-09-08T08:02:14.004Z</time>
</trkpt>
<trkpt lat="41.9274220" lon="1.8822720">
<ele>344.210663</ele>
<time>2022-09-08T08:02:14.997Z</time>
</trkpt>
<trkpt lat="41.9273910" lon="1.8822430">
<ele>344.698334</ele>
<time>2022-09-08T08:02:15.999Z</time>
</trkpt>
<trkpt lat="41.9273720" lon="1.8822180">
<ele>345.064087</ele>
<time>2022-09-08T08:02:17.002Z</time>
</trkpt>
<trkpt lat="41.9273510" lon="1.8821970">
<ele>345.429840</ele>
<time>2022-09-08T08:02:18.004Z</time>
</trkpt>
<trkpt lat="41.9273250" lon="1.8821650">
<ele>346.008942</ele>
<time>2022-09-08T08:02:18.997Z</time>
</trkpt>
<trkpt lat="41.9272930" lon="1.8821240">
<ele>346.801453</ele>
<time>2022-09-08T08:02:20.000Z</time>
</trkpt>
<trkpt lat="41.9272780" lon="1.8820730">
<ele>347.502472</ele>
<time>2022-09-08T08:02:21.002Z</time>
</trkpt>
<trkpt lat="41.9272760" lon="1.8820180">
<ele>347.746338</ele>
<time>2022-09-08T08:02:22.004Z</time>
</trkpt>
<trkpt lat="41.9272840" lon="1.8819650">
<ele>347.807281</ele>
<time>2022-09-08T08:02:22.998Z</time>
</trkpt>
<trkpt lat="41.9273010" lon="1.8819110">
<ele>347.776794</ele>
<time>2022-09-08T08:02:24.000Z</time>
</trkpt>
<trkpt lat="41.9273270" lon="1.8818480">
<ele>347.563446</ele>
<time>2022-09-08T08:02:25.002Z</time>
</trkpt>
<trkpt lat="41.9273640" lon="1.8817790">
<ele>347.167206</ele>
<time>2022-09-08T08:02:25.996Z</time>
</trkpt>
<trkpt lat="41.9273910" lon="1.8817140">
<ele>346.984314</ele>
<time>2022-09-08T08:02:26.998Z</time>
</trkpt>
<trkpt lat="41.9274180" lon="1.8816490">
<ele>346.831940</ele>
<time>2022-09-08T08:02:28.000Z</time>
</trkpt>
<trkpt lat="41.9274460" lon="1.8815830">
<ele>346.801453</ele>
<time>2022-09-08T08:02:29.003Z</time>
</trkpt>
<trkpt lat="41.9274710" lon="1.8815190">
<ele>346.831940</ele>
<time>2022-09-08T08:02:29.996Z</time>
</trkpt>
<trkpt lat="41.9275000" lon="1.8814530">
<ele>346.984314</ele>
<time>2022-09-08T08:02:30.998Z</time>
</trkpt>
<trkpt lat="41.9275260" lon="1.8813900">
<ele>347.411041</ele>
<time>2022-09-08T08:02:32.001Z</time>
</trkpt>
<trkpt lat="41.9275530" lon="1.8813270">
<ele>347.959686</ele>
<time>2022-09-08T08:02:33.003Z</time>
</trkpt>
<trkpt lat="41.9275800" lon="1.8812790">
<ele>348.355927</ele>
<time>2022-09-08T08:02:33.996Z</time>
</trkpt>
<trkpt lat="41.9276240" lon="1.8812060">
<ele>348.965515</ele>
<time>2022-09-08T08:02:34.999Z</time>
</trkpt>
<trkpt lat="41.9276600" lon="1.8811420">
<ele>349.453186</ele>
<time>2022-09-08T08:02:36.001Z</time>
</trkpt>
<trkpt lat="41.9276980" lon="1.8810820">
<ele>350.062805</ele>
<time>2022-09-08T08:02:37.003Z</time>
</trkpt>
<trkpt lat="41.9277380" lon="1.8810270">
<ele>350.489532</ele>
<time>2022-09-08T08:02:37.997Z</time>
</trkpt>
<trkpt lat="41.9277770" lon="1.8809710">
<ele>351.068665</ele>
<time>2022-09-08T08:02:38.999Z</time>
</trkpt>
<trkpt lat="41.9278140" lon="1.8809210">
<ele>351.556335</ele>
<time>2022-09-08T08:02:40.001Z</time>
</trkpt>
<trkpt lat="41.9278560" lon="1.8808750">
<ele>351.891602</ele>
<time>2022-09-08T08:02:41.004Z</time>
</trkpt>
<trkpt lat="41.9279000" lon="1.8808210">
<ele>352.440247</ele>
<time>2022-09-08T08:02:41.997Z</time>
</trkpt>
<trkpt lat="41.9279450" lon="1.8807720">
<ele>352.623138</ele>
<time>2022-09-08T08:02:42.999Z</time>
</trkpt>
<trkpt lat="41.9279940" lon="1.8807240">
<ele>352.592651</ele>
<time>2022-09-08T08:02:44.002Z</time>
</trkpt>
<trkpt lat="41.9280350" lon="1.8806770">
<ele>352.775513</ele>
<time>2022-09-08T08:02:45.004Z</time>
</trkpt>
<trkpt lat="41.9280700" lon="1.8806190">
<ele>353.507050</ele>
<time>2022-09-08T08:02:45.997Z</time>
</trkpt>
<trkpt lat="41.9281020" lon="1.8805520">
<ele>354.695740</ele>
<time>2022-09-08T08:02:47.000Z</time>
</trkpt>
<trkpt lat="41.9281360" lon="1.8804920">
<ele>355.640656</ele>
<time>2022-09-08T08:02:48.002Z</time>
</trkpt>
<trkpt lat="41.9281700" lon="1.8804430">
<ele>356.311188</ele>
<time>2022-09-08T08:02:49.004Z</time>
</trkpt>
<trkpt lat="41.9282040" lon="1.8803700">
<ele>357.560883</ele>
<time>2022-09-08T08:02:49.998Z</time>
</trkpt>
<trkpt lat="41.9282340" lon="1.8803180">
<ele>358.140015</ele>
<time>2022-09-08T08:02:51.000Z</time>
</trkpt>
<trkpt lat="41.9282670" lon="1.8802660">
<ele>358.627686</ele>
<time>2022-09-08T08:02:52.002Z</time>
</trkpt>
<trkpt lat="41.9283050" lon="1.8802240">
<ele>358.719116</ele>
<time>2022-09-08T08:02:52.996Z</time>
</trkpt>
<trkpt lat="41.9283390" lon="1.8801870">
<ele>358.962952</ele>
<time>2022-09-08T08:02:53.998Z</time>
</trkpt>
<trkpt lat="41.9283720" lon="1.8801510">
<ele>359.115356</ele>
<time>2022-09-08T08:02:55.000Z</time>
</trkpt>
<trkpt lat="41.9284030" lon="1.8801180">
<ele>359.328735</ele>
<time>2022-09-08T08:02:56.003Z</time>
</trkpt>
<trkpt lat="41.9284280" lon="1.8800900">
<ele>359.542084</ele>
<time>2022-09-08T08:02:56.996Z</time>
</trkpt>
<trkpt lat="41.9284400" lon="1.8800640">
<ele>360.151672</ele>
<time>2022-09-08T08:02:57.998Z</time>
</trkpt>
<trkpt lat="41.9284420" lon="1.8800440">
<ele>360.852722</ele>
<time>2022-09-08T08:02:59.001Z</time>
</trkpt>
<trkpt lat="41.9284420" lon="1.8800160">
<ele>361.858551</ele>
<time>2022-09-08T08:03:00.003Z</time>
</trkpt>
<trkpt lat="41.9284400" lon="1.8799920">
<ele>362.742462</ele>
<time>2022-09-08T08:03:00.996Z</time>
</trkpt>
<trkpt lat="41.9284330" lon="1.8799640">
<ele>363.992157</ele>
<time>2022-09-08T08:03:01.999Z</time>
</trkpt>
<trkpt lat="41.9284320" lon="1.8799430">
<ele>364.784668</ele>
<time>2022-09-08T08:03:03.001Z</time>
</trkpt>
<trkpt lat="41.9284280" lon="1.8799120">
<ele>366.095276</ele>
<time>2022-09-08T08:03:04.003Z</time>
</trkpt>
<trkpt lat="41.9284210" lon="1.8798740">
<ele>367.832642</ele>
<time>2022-09-08T08:03:04.997Z</time>
</trkpt>
<trkpt lat="41.9284150" lon="1.8798310">
<ele>369.813843</ele>
<time>2022-09-08T08:03:05.999Z</time>
</trkpt>
<trkpt lat="41.9284050" lon="1.8797790">
<ele>372.221741</ele>
<time>2022-09-08T08:03:07.001Z</time>
</trkpt>
<trkpt lat="41.9283980" lon="1.8797450">
<ele>373.928650</ele>
<time>2022-09-08T08:03:08.004Z</time>
</trkpt>
<trkpt lat="41.9283910" lon="1.8797050">
<ele>375.909851</ele>
<time>2022-09-08T08:03:08.997Z</time>
</trkpt>
<trkpt lat="41.9283900" lon="1.8796720">
<ele>377.403351</ele>
<time>2022-09-08T08:03:09.999Z</time>
</trkpt>
<trkpt lat="41.9283980" lon="1.8796530">
<ele>378.104401</ele>
<time>2022-09-08T08:03:11.002Z</time>
</trkpt>
<trkpt lat="41.9284170" lon="1.8796470">
<ele>377.891052</ele>
<time>2022-09-08T08:03:12.004Z</time>
</trkpt>
<trkpt lat="41.9284390" lon="1.8796470">
<ele>377.311920</ele>
<time>2022-09-08T08:03:12.997Z</time>
</trkpt>
<trkpt lat="41.9284550" lon="1.8796500">
<ele>376.793732</ele>
<time>2022-09-08T08:03:14.000Z</time>
</trkpt>
<trkpt lat="41.9284720" lon="1.8796530">
<ele>376.306061</ele>
<time>2022-09-08T08:03:15.002Z</time>
</trkpt>
<trkpt lat="41.9285090" lon="1.8796550">
<ele>375.300262</ele>
<time>2022-09-08T08:03:16.004Z</time>
</trkpt>
<trkpt lat="41.9285440" lon="1.8796640">
<ele>374.111542</ele>
<time>2022-09-08T08:03:16.998Z</time>
</trkpt>
<trkpt lat="41.9285870" lon="1.8796680">
<ele>372.922791</ele>
<time>2022-09-08T08:03:18.000Z</time>
</trkpt>
<trkpt lat="41.9286260" lon="1.8796760">
<ele>371.795044</ele>
<time>2022-09-08T08:03:19.002Z</time>
</trkpt>
<trkpt lat="41.9286630" lon="1.8796830">
<ele>370.789215</ele>
<time>2022-09-08T08:03:19.996Z</time>
</trkpt>
<trkpt lat="41.9287100" lon="1.8796870">
<ele>369.752869</ele>
<time>2022-09-08T08:03:20.998Z</time>
</trkpt>
<trkpt lat="41.9287480" lon="1.8796950">
<ele>368.747040</ele>
<time>2022-09-08T08:03:22.000Z</time>
</trkpt>
<trkpt lat="41.9287880" lon="1.8797080">
<ele>367.375458</ele>
<time>2022-09-08T08:03:23.003Z</time>
</trkpt>
<trkpt lat="41.9288260" lon="1.8797300">
<ele>365.668549</ele>
<time>2022-09-08T08:03:23.996Z</time>
</trkpt>
<trkpt lat="41.9288650" lon="1.8797480">
<ele>364.266479</ele>
<time>2022-09-08T08:03:24.998Z</time>
</trkpt>
<trkpt lat="41.9288930" lon="1.8797650">
<ele>363.077759</ele>
<time>2022-09-08T08:03:26.001Z</time>
</trkpt>
<trkpt lat="41.9289370" lon="1.8797880">
<ele>361.584259</ele>
<time>2022-09-08T08:03:27.003Z</time>
</trkpt>
<trkpt lat="41.9289730" lon="1.8797960">
<ele>360.852722</ele>
<time>2022-09-08T08:03:27.996Z</time>
</trkpt>
<trkpt lat="41.9290010" lon="1.8798010">
<ele>360.425995</ele>
<time>2022-09-08T08:03:28.999Z</time>
</trkpt>
<trkpt lat="41.9290300" lon="1.8798120">
<ele>359.755463</ele>
<time>2022-09-08T08:03:30.001Z</time>
</trkpt>
<trkpt lat="41.9290640" lon="1.8798230">
<ele>359.145844</ele>
<time>2022-09-08T08:03:31.003Z</time>
</trkpt>
<trkpt lat="41.9290960" lon="1.8798350">
<ele>358.566742</ele>
<time>2022-09-08T08:03:31.997Z</time>
</trkpt>
<trkpt lat="41.9291280" lon="1.8798430">
<ele>358.200958</ele>
<time>2022-09-08T08:03:32.999Z</time>
</trkpt>
<trkpt lat="41.9291610" lon="1.8798470">
<ele>358.018066</ele>
<time>2022-09-08T08:03:34.001Z</time>
</trkpt>
<trkpt lat="41.9291960" lon="1.8798460">
<ele>358.048553</ele>
<time>2022-09-08T08:03:35.004Z</time>
</trkpt>
<trkpt lat="41.9292320" lon="1.8798460">
<ele>358.079041</ele>
<time>2022-09-08T08:03:35.997Z</time>
</trkpt>
<trkpt lat="41.9292660" lon="1.8798460">
<ele>358.170471</ele>
<time>2022-09-08T08:03:36.999Z</time>
</trkpt>
<trkpt lat="41.9292950" lon="1.8798400">
<ele>358.444794</ele>
<time>2022-09-08T08:03:38.002Z</time>
</trkpt>
<trkpt lat="41.9293290" lon="1.8798330">
<ele>358.810547</ele>
<time>2022-09-08T08:03:39.004Z</time>
</trkpt>
<trkpt lat="41.9293620" lon="1.8798280">
<ele>359.145844</ele>
<time>2022-09-08T08:03:39.997Z</time>
</trkpt>
<trkpt lat="41.9293960" lon="1.8798330">
<ele>359.206787</ele>
<time>2022-09-08T08:03:41.000Z</time>
</trkpt>
<trkpt lat="41.9294390" lon="1.8798510">
<ele>359.023926</ele>
<time>2022-09-08T08:03:42.002Z</time>
</trkpt>
<trkpt lat="41.9294760" lon="1.8798690">
<ele>358.902008</ele>
<time>2022-09-08T08:03:43.004Z</time>
</trkpt>
<trkpt lat="41.9295100" lon="1.8798890">
<ele>358.688660</ele>
<time>2022-09-08T08:03:43.998Z</time>
</trkpt>
<trkpt lat="41.9295420" lon="1.8799050">
<ele>358.688660</ele>
<time>2022-09-08T08:03:45.000Z</time>
</trkpt>
<trkpt lat="41.9295840" lon="1.8799270">
<ele>358.719116</ele>
<time>2022-09-08T08:03:46.002Z</time>
</trkpt>
<trkpt lat="41.9296230" lon="1.8799440">
<ele>358.688660</ele>
<time>2022-09-08T08:03:46.996Z</time>
</trkpt>
<trkpt lat="41.9296710" lon="1.8799770">
<ele>358.505737</ele>
<time>2022-09-08T08:03:47.998Z</time>
</trkpt>
<trkpt lat="41.9297090" lon="1.8800010">
<ele>358.475281</ele>
<time>2022-09-08T08:03:49.000Z</time>
</trkpt>
<trkpt lat="41.9297470" lon="1.8800220">
<ele>358.536255</ele>
<time>2022-09-08T08:03:50.003Z</time>
</trkpt>
<trkpt lat="41.9297840" lon="1.8800370">
<ele>358.719116</ele>
<time>2022-09-08T08:03:50.996Z</time>
</trkpt>
<trkpt lat="41.9298170" lon="1.8800380">
<ele>359.145844</ele>
<time>2022-09-08T08:03:51.998Z</time>
</trkpt>
<trkpt lat="41.9298500" lon="1.8800450">
<ele>359.481140</ele>
<time>2022-09-08T08:03:53.001Z</time>
</trkpt>
<trkpt lat="41.9298780" lon="1.8800600">
<ele>359.603058</ele>
<time>2022-09-08T08:03:54.003Z</time>
</trkpt>
<trkpt lat="41.9299090" lon="1.8800860">
<ele>359.603058</ele>
<time>2022-09-08T08:03:54.996Z</time>
</trkpt>
<trkpt lat="41.9299390" lon="1.8801110">
<ele>359.664001</ele>
<time>2022-09-08T08:03:55.999Z</time>
</trkpt>
<trkpt lat="41.9299780" lon="1.8801370">
<ele>359.785919</ele>
<time>2022-09-08T08:03:57.001Z</time>
</trkpt>
<trkpt lat="41.9300280" lon="1.8801670">
<ele>360.029755</ele>
<time>2022-09-08T08:03:58.003Z</time>
</trkpt>
<trkpt lat="41.9300820" lon="1.8801970">
<ele>360.273590</ele>
<time>2022-09-08T08:03:58.997Z</time>
</trkpt>
<trkpt lat="41.9301440" lon="1.8802250">
<ele>360.700317</ele>
<time>2022-09-08T08:03:59.999Z</time>
</trkpt>
<trkpt lat="41.9301790" lon="1.8802500">
<ele>360.730804</ele>
<time>2022-09-08T08:04:01.001Z</time>
</trkpt>
<trkpt lat="41.9302030" lon="1.8802700">
<ele>360.669861</ele>
<time>2022-09-08T08:04:02.004Z</time>
</trkpt>
<trkpt lat="41.9302460" lon="1.8802960">
<ele>360.700317</ele>
<time>2022-09-08T08:04:02.997Z</time>
</trkpt>
<trkpt lat="41.9302830" lon="1.8803150">
<ele>360.791748</ele>
<time>2022-09-08T08:04:03.999Z</time>
</trkpt>
<trkpt lat="41.9303220" lon="1.8803340">
<ele>360.822266</ele>
<time>2022-09-08T08:04:05.002Z</time>
</trkpt>
<trkpt lat="41.9303690" lon="1.8803650">
<ele>360.669861</ele>
<time>2022-09-08T08:04:06.004Z</time>
</trkpt>
<trkpt lat="41.9304080" lon="1.8803960">
<ele>360.365051</ele>
<time>2022-09-08T08:04:06.997Z</time>
</trkpt>
<trkpt lat="41.9304440" lon="1.8804260">
<ele>359.968811</ele>
<time>2022-09-08T08:04:08.000Z</time>
</trkpt>
<trkpt lat="41.9304780" lon="1.8804440">
<ele>359.755463</ele>
<time>2022-09-08T08:04:09.002Z</time>
</trkpt>
<trkpt lat="41.9305110" lon="1.8804410">
<ele>360.060242</ele>
<time>2022-09-08T08:04:10.004Z</time>
</trkpt>
<trkpt lat="41.9305340" lon="1.8804210">
<ele>360.730804</ele>
<time>2022-09-08T08:04:10.998Z</time>
</trkpt>
<trkpt lat="41.9305420" lon="1.8803920">
<ele>361.431854</ele>
<time>2022-09-08T08:04:12.000Z</time>
</trkpt>
<trkpt lat="41.9305310" lon="1.8803640">
<ele>361.919525</ele>
<time>2022-09-08T08:04:13.002Z</time>
</trkpt>
<trkpt lat="41.9305070" lon="1.8803400">
<ele>362.224335</ele>
<time>2022-09-08T08:04:13.996Z</time>
</trkpt>
<trkpt lat="41.9304840" lon="1.8803140">
<ele>362.559601</ele>
<time>2022-09-08T08:04:14.998Z</time>
</trkpt>
<trkpt lat="41.9304600" lon="1.8802950">
<ele>362.712006</ele>
<time>2022-09-08T08:04:16.000Z</time>
</trkpt>
<trkpt lat="41.9304350" lon="1.8802760">
<ele>362.833923</ele>
<time>2022-09-08T08:04:17.003Z</time>
</trkpt>
<trkpt lat="41.9304110" lon="1.8802590">
<ele>362.925354</ele>
<time>2022-09-08T08:04:17.996Z</time>
</trkpt>
<trkpt lat="41.9303870" lon="1.8802420">
<ele>362.986328</ele>
<time>2022-09-08T08:04:18.998Z</time>
</trkpt>
<trkpt lat="41.9303640" lon="1.8802230">
<ele>363.108246</ele>
<time>2022-09-08T08:04:20.001Z</time>
</trkpt>
<trkpt lat="41.9303410" lon="1.8802050">
<ele>363.169189</ele>
<time>2022-09-08T08:04:21.003Z</time>
</trkpt>
<trkpt lat="41.9303180" lon="1.8801830">
<ele>363.291138</ele>
<time>2022-09-08T08:04:21.996Z</time>
</trkpt>
<trkpt lat="41.9302950" lon="1.8801610">
<ele>363.413055</ele>
<time>2022-09-08T08:04:22.999Z</time>
</trkpt>
<trkpt lat="41.9302740" lon="1.8801380">
<ele>363.534943</ele>
<time>2022-09-08T08:04:24.001Z</time>
</trkpt>
<trkpt lat="41.9302530" lon="1.8801170">
<ele>363.626404</ele>
<time>2022-09-08T08:04:25.003Z</time>
</trkpt>
<trkpt lat="41.9302320" lon="1.8800930">
<ele>363.748322</ele>
<time>2022-09-08T08:04:25.997Z</time>
</trkpt>
<trkpt lat="41.9302120" lon="1.8800680">
<ele>363.870270</ele>
<time>2022-09-08T08:04:26.999Z</time>
</trkpt>
<trkpt lat="41.9301910" lon="1.8800420">
<ele>364.022644</ele>
<time>2022-09-08T08:04:28.001Z</time>
</trkpt>
<trkpt lat="41.9301700" lon="1.8800170">
<ele>364.114075</ele>
<time>2022-09-08T08:04:29.004Z</time>
</trkpt>
<trkpt lat="41.9301480" lon="1.8799950">
<ele>364.235992</ele>
<time>2022-09-08T08:04:29.997Z</time>
</trkpt>
<trkpt lat="41.9301260" lon="1.8799720">
<ele>364.296936</ele>
<time>2022-09-08T08:04:30.999Z</time>
</trkpt>
<trkpt lat="41.9301040" lon="1.8799510">
<ele>364.357941</ele>
<time>2022-09-08T08:04:32.002Z</time>
</trkpt>
<trkpt lat="41.9300840" lon="1.8799270">
<ele>364.479858</ele>
<time>2022-09-08T08:04:33.004Z</time>
</trkpt>
<trkpt lat="41.9300630" lon="1.8799020">
<ele>364.632263</ele>
<time>2022-09-08T08:04:33.997Z</time>
</trkpt>
<trkpt lat="41.9300430" lon="1.8798790">
<ele>364.784668</ele>
<time>2022-09-08T08:04:35.000Z</time>
</trkpt>
<trkpt lat="41.9300210" lon="1.8798570">
<ele>364.876068</ele>
<time>2022-09-08T08:04:36.002Z</time>
</trkpt>
<trkpt lat="41.9299980" lon="1.8798340">
<ele>365.028473</ele>
<time>2022-09-08T08:04:37.004Z</time>
</trkpt>
<trkpt lat="41.9299730" lon="1.8798120">
<ele>365.180878</ele>
<time>2022-09-08T08:04:37.998Z</time>
</trkpt>
<trkpt lat="41.9299500" lon="1.8797900">
<ele>365.333282</ele>
<time>2022-09-08T08:04:39.000Z</time>
</trkpt>
<trkpt lat="41.9299300" lon="1.8797690">
<ele>365.546661</ele>
<time>2022-09-08T08:04:40.002Z</time>
</trkpt>
<trkpt lat="41.9299100" lon="1.8797480">
<ele>365.729523</ele>
<time>2022-09-08T08:04:40.996Z</time>
</trkpt>
<trkpt lat="41.9298880" lon="1.8797250">
<ele>366.034332</ele>
<time>2022-09-08T08:04:41.998Z</time>
</trkpt>
<trkpt lat="41.9298660" lon="1.8797010">
<ele>366.369598</ele>
<time>2022-09-08T08:04:43.000Z</time>
</trkpt>
<trkpt lat="41.9298460" lon="1.8796820">
<ele>366.643921</ele>
<time>2022-09-08T08:04:44.003Z</time>
</trkpt>
<trkpt lat="41.9298180" lon="1.8796560">
<ele>367.040131</ele>
<time>2022-09-08T08:04:44.996Z</time>
</trkpt>
<trkpt lat="41.9298030" lon="1.8796390">
<ele>367.344940</ele>
<time>2022-09-08T08:04:45.998Z</time>
</trkpt>
<trkpt lat="41.9297840" lon="1.8796140">
<ele>367.893585</ele>
<time>2022-09-08T08:04:47.001Z</time>
</trkpt>
<trkpt lat="41.9297690" lon="1.8795830">
<ele>368.655609</ele>
<time>2022-09-08T08:04:48.003Z</time>
</trkpt>
<trkpt lat="41.9297660" lon="1.8795530">
<ele>369.387115</ele>
<time>2022-09-08T08:04:48.996Z</time>
</trkpt>
<trkpt lat="41.9297700" lon="1.8795180">
<ele>370.271057</ele>
<time>2022-09-08T08:04:49.999Z</time>
</trkpt>
<trkpt lat="41.9297810" lon="1.8794930">
<ele>370.911133</ele>
<time>2022-09-08T08:04:51.001Z</time>
</trkpt>
<trkpt lat="41.9297940" lon="1.8794700">
<ele>371.520721</ele>
<time>2022-09-08T08:04:52.003Z</time>
</trkpt>
<trkpt lat="41.9298090" lon="1.8794500">
<ele>372.038879</ele>
<time>2022-09-08T08:04:52.997Z</time>
</trkpt>
<trkpt lat="41.9298240" lon="1.8794350">
<ele>372.465607</ele>
<time>2022-09-08T08:04:53.999Z</time>
</trkpt>
<trkpt lat="41.9298460" lon="1.8794260">
<ele>372.770386</ele>
<time>2022-09-08T08:04:55.001Z</time>
</trkpt>
<trkpt lat="41.9298720" lon="1.8794160">
<ele>373.105682</ele>
<time>2022-09-08T08:04:56.004Z</time>
</trkpt>
<trkpt lat="41.9299000" lon="1.8794100">
<ele>373.410461</ele>
<time>2022-09-08T08:04:56.997Z</time>
</trkpt>
<trkpt lat="41.9299260" lon="1.8794060">
<ele>373.623840</ele>
<time>2022-09-08T08:04:57.999Z</time>
</trkpt>
<trkpt lat="41.9299530" lon="1.8794020">
<ele>373.867676</ele>
<time>2022-09-08T08:04:59.002Z</time>
</trkpt>
<trkpt lat="41.9299780" lon="1.8794010">
<ele>374.020081</ele>
<time>2022-09-08T08:05:00.004Z</time>
</trkpt>
<trkpt lat="41.9300030" lon="1.8793990">
<ele>374.233459</ele>
<time>2022-09-08T08:05:00.997Z</time>
</trkpt>
<trkpt lat="41.9300310" lon="1.8793920">
<ele>374.538269</ele>
<time>2022-09-08T08:05:02.000Z</time>
</trkpt>
<trkpt lat="41.9300590" lon="1.8793850">
<ele>374.843048</ele>
<time>2022-09-08T08:05:03.002Z</time>
</trkpt>
<trkpt lat="41.9300860" lon="1.8793810">
<ele>375.086884</ele>
<time>2022-09-08T08:05:04.004Z</time>
</trkpt>
<trkpt lat="41.9301170" lon="1.8793740">
<ele>375.422150</ele>
<time>2022-09-08T08:05:04.998Z</time>
</trkpt>
<trkpt lat="41.9301480" lon="1.8793660">
<ele>375.726959</ele>
<time>2022-09-08T08:05:06.000Z</time>
</trkpt>
<trkpt lat="41.9301780" lon="1.8793540">
<ele>376.092712</ele>
<time>2022-09-08T08:05:07.002Z</time>
</trkpt>
<trkpt lat="41.9302090" lon="1.8793440">
<ele>376.428009</ele>
<time>2022-09-08T08:05:07.996Z</time>
</trkpt>
<trkpt lat="41.9302350" lon="1.8793370">
<ele>376.671844</ele>
<time>2022-09-08T08:05:08.998Z</time>
</trkpt>
<trkpt lat="41.9302670" lon="1.8793240">
<ele>376.976654</ele>
<time>2022-09-08T08:05:10.000Z</time>
</trkpt>
<trkpt lat="41.9302970" lon="1.8793070">
<ele>377.372864</ele>
<time>2022-09-08T08:05:11.003Z</time>
</trkpt>
<trkpt lat="41.9303260" lon="1.8792910">
<ele>377.677673</ele>
<time>2022-09-08T08:05:11.996Z</time>
</trkpt>
<trkpt lat="41.9303450" lon="1.8792850">
<ele>377.799591</ele>
<time>2022-09-08T08:05:12.998Z</time>
</trkpt>
<trkpt lat="41.9303730" lon="1.8792730">
<ele>378.012939</ele>
<time>2022-09-08T08:05:14.001Z</time>
</trkpt>
<trkpt lat="41.9304040" lon="1.8792590">
<ele>378.226318</ele>
<time>2022-09-08T08:05:15.003Z</time>
</trkpt>
<trkpt lat="41.9304370" lon="1.8792380">
<ele>378.470154</ele>
<time>2022-09-08T08:05:15.996Z</time>
</trkpt>
<trkpt lat="41.9304600" lon="1.8792210">
<ele>378.653046</ele>
<time>2022-09-08T08:05:16.999Z</time>
</trkpt>
<trkpt lat="41.9304860" lon="1.8791980">
<ele>378.896881</ele>
<time>2022-09-08T08:05:18.001Z</time>
</trkpt>
<trkpt lat="41.9305190" lon="1.8791770">
<ele>379.049286</ele>
<time>2022-09-08T08:05:19.003Z</time>
</trkpt>
<trkpt lat="41.9305520" lon="1.8791570">
<ele>379.171204</ele>
<time>2022-09-08T08:05:19.997Z</time>
</trkpt>
<trkpt lat="41.9305810" lon="1.8791380">
<ele>379.293121</ele>
<time>2022-09-08T08:05:20.999Z</time>
</trkpt>
<trkpt lat="41.9306110" lon="1.8791130">
<ele>379.476013</ele>
<time>2022-09-08T08:05:22.001Z</time>
</trkpt>
<trkpt lat="41.9306410" lon="1.8790860">
<ele>379.628387</ele>
<time>2022-09-08T08:05:23.004Z</time>
</trkpt>
<trkpt lat="41.9306640" lon="1.8790550">
<ele>379.902740</ele>
<time>2022-09-08T08:05:23.997Z</time>
</trkpt>
<trkpt lat="41.9306920" lon="1.8790300">
<ele>380.055115</ele>
<time>2022-09-08T08:05:24.999Z</time>
</trkpt>
<trkpt lat="41.9307250" lon="1.8789980">
<ele>380.268463</ele>
<time>2022-09-08T08:05:26.002Z</time>
</trkpt>
<trkpt lat="41.9307600" lon="1.8789670">
<ele>380.451355</ele>
<time>2022-09-08T08:05:27.004Z</time>
</trkpt>
<trkpt lat="41.9307950" lon="1.8789370">
<ele>380.603760</ele>
<time>2022-09-08T08:05:27.997Z</time>
</trkpt>
<trkpt lat="41.9308290" lon="1.8789030">
<ele>380.847595</ele>
<time>2022-09-08T08:05:29.000Z</time>
</trkpt>
<trkpt lat="41.9308660" lon="1.8788730">
<ele>381.000000</ele>
<time>2022-09-08T08:05:30.002Z</time>
</trkpt>
<trkpt lat="41.9309000" lon="1.8788400">
<ele>381.243866</ele>
<time>2022-09-08T08:05:31.004Z</time>
</trkpt>
<trkpt lat="41.9309330" lon="1.8788080">
<ele>381.487671</ele>
<time>2022-09-08T08:05:31.998Z</time>
</trkpt>
<trkpt lat="41.9309650" lon="1.8787780">
<ele>381.761993</ele>
<time>2022-09-08T08:05:33.000Z</time>
</trkpt>
<trkpt lat="41.9309950" lon="1.8787540">
<ele>381.944885</ele>
<time>2022-09-08T08:05:34.002Z</time>
</trkpt>
<trkpt lat="41.9310210" lon="1.8787250">
<ele>382.219208</ele>
<time>2022-09-08T08:05:34.996Z</time>
</trkpt>
<trkpt lat="41.9310450" lon="1.8786970">
<ele>382.463043</ele>
<time>2022-09-08T08:05:35.998Z</time>
</trkpt>
<trkpt lat="41.9310700" lon="1.8786640">
<ele>382.798340</ele>
<time>2022-09-08T08:05:37.000Z</time>
</trkpt>
<trkpt lat="41.9310980" lon="1.8786300">
<ele>383.072662</ele>
<time>2022-09-08T08:05:38.003Z</time>
</trkpt>
<trkpt lat="41.9311290" lon="1.8786010">
<ele>383.255524</ele>
<time>2022-09-08T08:05:38.996Z</time>
</trkpt>
<trkpt lat="41.9311600" lon="1.8785690">
<ele>383.468872</ele>
<time>2022-09-08T08:05:39.998Z</time>
</trkpt>
<trkpt lat="41.9311930" lon="1.8785350">
<ele>383.682251</ele>
<time>2022-09-08T08:05:41.001Z</time>
</trkpt>
<trkpt lat="41.9312240" lon="1.8785080">
<ele>383.834656</ele>
<time>2022-09-08T08:05:42.003Z</time>
</trkpt>
<trkpt lat="41.9312550" lon="1.8784790">
<ele>383.987061</ele>
<time>2022-09-08T08:05:42.996Z</time>
</trkpt>
<trkpt lat="41.9312870" lon="1.8784490">
<ele>384.139465</ele>
<time>2022-09-08T08:05:43.999Z</time>
</trkpt>
<trkpt lat="41.9313150" lon="1.8784250">
<ele>384.230865</ele>
<time>2022-09-08T08:05:45.001Z</time>
</trkpt>
<trkpt lat="41.9313450" lon="1.8784050">
<ele>384.230865</ele>
<time>2022-09-08T08:05:46.003Z</time>
</trkpt>
<trkpt lat="41.9313760" lon="1.8783770">
<ele>384.383270</ele>
<time>2022-09-08T08:05:46.997Z</time>
</trkpt>
<trkpt lat="41.9314120" lon="1.8783400">
<ele>384.657593</ele>
<time>2022-09-08T08:05:47.999Z</time>
</trkpt>
<trkpt lat="41.9314410" lon="1.8783090">
<ele>384.870941</ele>
<time>2022-09-08T08:05:49.001Z</time>
</trkpt>
<trkpt lat="41.9314710" lon="1.8782810">
<ele>385.023346</ele>
<time>2022-09-08T08:05:50.004Z</time>
</trkpt>
<trkpt lat="41.9315070" lon="1.8782490">
<ele>385.236725</ele>
<time>2022-09-08T08:05:50.997Z</time>
</trkpt>
<trkpt lat="41.9315380" lon="1.8782150">
<ele>385.541534</ele>
<time>2022-09-08T08:05:51.999Z</time>
</trkpt>
<trkpt lat="41.9315690" lon="1.8781870">
<ele>385.754883</ele>
<time>2022-09-08T08:05:53.002Z</time>
</trkpt>
<trkpt lat="41.9316000" lon="1.8781550">
<ele>386.059662</ele>
<time>2022-09-08T08:05:54.004Z</time>
</trkpt>
<trkpt lat="41.9316340" lon="1.8781210">
<ele>386.364471</ele>
<time>2022-09-08T08:05:54.997Z</time>
</trkpt>
<trkpt lat="41.9316650" lon="1.8780950">
<ele>386.608337</ele>
<time>2022-09-08T08:05:56.000Z</time>
</trkpt>
<trkpt lat="41.9316940" lon="1.8780720">
<ele>386.791199</ele>
<time>2022-09-08T08:05:57.002Z</time>
</trkpt>
<trkpt lat="41.9317310" lon="1.8780530">
<ele>386.821686</ele>
<time>2022-09-08T08:05:58.004Z</time>
</trkpt>
<trkpt lat="41.9317770" lon="1.8780330">
<ele>386.821686</ele>
<time>2022-09-08T08:05:58.998Z</time>
</trkpt>
<trkpt lat="41.9318120" lon="1.8780200">
<ele>386.821686</ele>
<time>2022-09-08T08:06:00.000Z</time>
</trkpt>
<trkpt lat="41.9318510" lon="1.8780020">
<ele>386.882660</ele>
<time>2022-09-08T08:06:01.002Z</time>
</trkpt>
<trkpt lat="41.9318940" lon="1.8779750">
<ele>387.126465</ele>
<time>2022-09-08T08:06:01.996Z</time>
</trkpt>
<trkpt lat="41.9319310" lon="1.8779590">
<ele>387.187469</ele>
<time>2022-09-08T08:06:02.998Z</time>
</trkpt>
<trkpt lat="41.9319630" lon="1.8779300">
<ele>387.583679</ele>
<time>2022-09-08T08:06:04.000Z</time>
</trkpt>
<trkpt lat="41.9320000" lon="1.8778990">
<ele>388.071350</ele>
<time>2022-09-08T08:06:05.003Z</time>
</trkpt>
<trkpt lat="41.9320460" lon="1.8778760">
<ele>388.254242</ele>
<time>2022-09-08T08:06:05.996Z</time>
</trkpt>
<trkpt lat="41.9320890" lon="1.8778490">
<ele>388.589539</ele>
<time>2022-09-08T08:06:06.998Z</time>
</trkpt>
<trkpt lat="41.9321260" lon="1.8778080">
<ele>389.321045</ele>
<time>2022-09-08T08:06:08.001Z</time>
</trkpt>
<trkpt lat="41.9321610" lon="1.8777770">
<ele>389.808716</ele>
<time>2022-09-08T08:06:09.003Z</time>
</trkpt>
<trkpt lat="41.9321970" lon="1.8777550">
<ele>390.083069</ele>
<time>2022-09-08T08:06:09.996Z</time>
</trkpt>
<trkpt lat="41.9322270" lon="1.8777260">
<ele>390.601196</ele>
<time>2022-09-08T08:06:10.999Z</time>
</trkpt>
<trkpt lat="41.9322570" lon="1.8776940">
<ele>391.210785</ele>
<time>2022-09-08T08:06:12.001Z</time>
</trkpt>
<trkpt lat="41.9322930" lon="1.8776690">
<ele>391.607056</ele>
<time>2022-09-08T08:06:13.003Z</time>
</trkpt>
<trkpt lat="41.9323320" lon="1.8776520">
<ele>391.820404</ele>
<time>2022-09-08T08:06:13.997Z</time>
</trkpt>
<trkpt lat="41.9323650" lon="1.8776190">
<ele>392.429993</ele>
<time>2022-09-08T08:06:14.999Z</time>
</trkpt>
<trkpt lat="41.9323930" lon="1.8775960">
<ele>392.856720</ele>
<time>2022-09-08T08:06:16.001Z</time>
</trkpt>
<trkpt lat="41.9324240" lon="1.8775780">
<ele>393.161530</ele>
<time>2022-09-08T08:06:17.004Z</time>
</trkpt>
<trkpt lat="41.9324610" lon="1.8775540">
<ele>393.527283</ele>
<time>2022-09-08T08:06:17.997Z</time>
</trkpt>
<trkpt lat="41.9324960" lon="1.8775250">
<ele>394.075928</ele>
<time>2022-09-08T08:06:18.999Z</time>
</trkpt>
<trkpt lat="41.9325310" lon="1.8774960">
<ele>394.594086</ele>
<time>2022-09-08T08:06:20.002Z</time>
</trkpt>
<trkpt lat="41.9325540" lon="1.8774740">
<ele>394.990326</ele>
<time>2022-09-08T08:06:21.004Z</time>
</trkpt>
<trkpt lat="41.9325820" lon="1.8774530">
<ele>395.325592</ele>
<time>2022-09-08T08:06:21.997Z</time>
</trkpt>
<trkpt lat="41.9326150" lon="1.8774310">
<ele>395.660858</ele>
<time>2022-09-08T08:06:23.000Z</time>
</trkpt>
<trkpt lat="41.9326450" lon="1.8774120">
<ele>395.935211</ele>
<time>2022-09-08T08:06:24.002Z</time>
</trkpt>
<trkpt lat="41.9326750" lon="1.8773980">
<ele>396.087585</ele>
<time>2022-09-08T08:06:25.004Z</time>
</trkpt>
<trkpt lat="41.9327090" lon="1.8773860">
<ele>396.148560</ele>
<time>2022-09-08T08:06:25.998Z</time>
</trkpt>
<trkpt lat="41.9327450" lon="1.8773730">
<ele>396.239990</ele>
<time>2022-09-08T08:06:27.000Z</time>
</trkpt>
<trkpt lat="41.9327840" lon="1.8773610">
<ele>396.270477</ele>
<time>2022-09-08T08:06:28.002Z</time>
</trkpt>
<trkpt lat="41.9328220" lon="1.8773510">
<ele>396.239990</ele>
<time>2022-09-08T08:06:28.996Z</time>
</trkpt>
<trkpt lat="41.9328600" lon="1.8773450">
<ele>396.118073</ele>
<time>2022-09-08T08:06:29.998Z</time>
</trkpt>
<trkpt lat="41.9328940" lon="1.8773390">
<ele>396.026642</ele>
<time>2022-09-08T08:06:31.000Z</time>
</trkpt>
<trkpt lat="41.9329250" lon="1.8773290">
<ele>395.996155</ele>
<time>2022-09-08T08:06:32.003Z</time>
</trkpt>
<trkpt lat="41.9329530" lon="1.8773160">
<ele>396.026642</ele>
<time>2022-09-08T08:06:32.996Z</time>
</trkpt>
<trkpt lat="41.9329760" lon="1.8772970">
<ele>396.209534</ele>
<time>2022-09-08T08:06:33.998Z</time>
</trkpt>
<trkpt lat="41.9329890" lon="1.8772680">
<ele>396.666718</ele>
<time>2022-09-08T08:06:35.001Z</time>
</trkpt>
<trkpt lat="41.9329920" lon="1.8772370">
<ele>397.245850</ele>
<time>2022-09-08T08:06:36.003Z</time>
</trkpt>
<trkpt lat="41.9329900" lon="1.8772040">
<ele>397.885925</ele>
<time>2022-09-08T08:06:36.996Z</time>
</trkpt>
<trkpt lat="41.9329880" lon="1.8771690">
<ele>398.586945</ele>
<time>2022-09-08T08:06:37.999Z</time>
</trkpt>
<trkpt lat="41.9329920" lon="1.8771430">
<ele>399.074646</ele>
<time>2022-09-08T08:06:39.001Z</time>
</trkpt>
<trkpt lat="41.9329960" lon="1.8771190">
<ele>399.501343</ele>
<time>2022-09-08T08:06:40.003Z</time>
</trkpt>
<trkpt lat="41.9329980" lon="1.8771000">
<ele>399.836670</ele>
<time>2022-09-08T08:06:40.997Z</time>
</trkpt>
<trkpt lat="41.9330200" lon="1.8766910">
<ele>407.822388</ele>
<time>2022-09-08T08:06:52.998Z</time>
</trkpt>
<trkpt lat="41.9330500" lon="1.8766920">
<ele>407.487122</ele>
<time>2022-09-08T08:06:54.000Z</time>
</trkpt>
<trkpt lat="41.9330900" lon="1.8766900">
<ele>407.029938</ele>
<time>2022-09-08T08:06:55.002Z</time>
</trkpt>
<trkpt lat="41.9331230" lon="1.8766690">
<ele>406.938477</ele>
<time>2022-09-08T08:06:55.996Z</time>
</trkpt>
<trkpt lat="41.9331540" lon="1.8766570">
<ele>406.786072</ele>
<time>2022-09-08T08:06:56.998Z</time>
</trkpt>
<trkpt lat="41.9331920" lon="1.8766400">
<ele>406.603210</ele>
<time>2022-09-08T08:06:58.000Z</time>
</trkpt>
<trkpt lat="41.9332280" lon="1.8766270">
<ele>406.389862</ele>
<time>2022-09-08T08:06:59.003Z</time>
</trkpt>
<trkpt lat="41.9332620" lon="1.8766170">
<ele>406.176483</ele>
<time>2022-09-08T08:06:59.996Z</time>
</trkpt>
<trkpt lat="41.9332960" lon="1.8766040">
<ele>405.963135</ele>
<time>2022-09-08T08:07:00.998Z</time>
</trkpt>
<trkpt lat="41.9333300" lon="1.8765900">
<ele>405.780243</ele>
<time>2022-09-08T08:07:02.001Z</time>
</trkpt>
<trkpt lat="41.9333630" lon="1.8765750">
<ele>405.627869</ele>
<time>2022-09-08T08:07:03.003Z</time>
</trkpt>
<trkpt lat="41.9333910" lon="1.8765600">
<ele>405.536407</ele>
<time>2022-09-08T08:07:03.996Z</time>
</trkpt>
<trkpt lat="41.9334170" lon="1.8765440">
<ele>405.444946</ele>
<time>2022-09-08T08:07:04.999Z</time>
</trkpt>
<trkpt lat="41.9334390" lon="1.8765230">
<ele>405.475464</ele>
<time>2022-09-08T08:07:06.001Z</time>
</trkpt>
<trkpt lat="41.9334560" lon="1.8765000">
<ele>405.505920</ele>
<time>2022-09-08T08:07:07.003Z</time>
</trkpt>
<trkpt lat="41.9334550" lon="1.8764740">
<ele>405.749756</ele>
<time>2022-09-08T08:07:07.997Z</time>
</trkpt>
<trkpt lat="41.9334390" lon="1.8764550">
<ele>406.085052</ele>
<time>2022-09-08T08:07:08.999Z</time>
</trkpt>
<trkpt lat="41.9334110" lon="1.8764500">
<ele>406.389862</ele>
<time>2022-09-08T08:07:10.001Z</time>
</trkpt>
<trkpt lat="41.9333750" lon="1.8764530">
<ele>406.694641</ele>
<time>2022-09-08T08:07:11.004Z</time>
</trkpt>
<trkpt lat="41.9333370" lon="1.8764580">
<ele>407.029938</ele>
<time>2022-09-08T08:07:11.997Z</time>
</trkpt>
<trkpt lat="41.9332950" lon="1.8764600">
<ele>407.456665</ele>
<time>2022-09-08T08:07:12.999Z</time>
</trkpt>
<trkpt lat="41.9332540" lon="1.8764620">
<ele>407.883331</ele>
<time>2022-09-08T08:07:14.002Z</time>
</trkpt>
<trkpt lat="41.9332140" lon="1.8764550">
<ele>408.401520</ele>
<time>2022-09-08T08:07:15.004Z</time>
</trkpt>
<trkpt lat="41.9331810" lon="1.8764360">
<ele>408.919678</ele>
<time>2022-09-08T08:07:15.997Z</time>
</trkpt>
<trkpt lat="41.9331630" lon="1.8764040">
<ele>409.376862</ele>
<time>2022-09-08T08:07:17.000Z</time>
</trkpt>
<trkpt lat="41.9331610" lon="1.8763610">
<ele>409.681671</ele>
<time>2022-09-08T08:07:18.002Z</time>
</trkpt>
<trkpt lat="41.9331770" lon="1.8763210">
<ele>409.742645</ele>
<time>2022-09-08T08:07:19.004Z</time>
</trkpt>
<trkpt lat="41.9332060" lon="1.8762910">
<ele>409.590240</ele>
<time>2022-09-08T08:07:19.998Z</time>
</trkpt>
<trkpt lat="41.9332390" lon="1.8762690">
<ele>409.285461</ele>
<time>2022-09-08T08:07:21.000Z</time>
</trkpt>
<trkpt lat="41.9332720" lon="1.8762520">
<ele>408.980652</ele>
<time>2022-09-08T08:07:22.002Z</time>
</trkpt>
<trkpt lat="41.9333050" lon="1.8762370">
<ele>408.797760</ele>
<time>2022-09-08T08:07:22.996Z</time>
</trkpt>
<trkpt lat="41.9333380" lon="1.8762200">
<ele>408.614868</ele>
<time>2022-09-08T08:07:23.998Z</time>
</trkpt>
<trkpt lat="41.9333680" lon="1.8762020">
<ele>408.492950</ele>
<time>2022-09-08T08:07:25.000Z</time>
</trkpt>
<trkpt lat="41.9334000" lon="1.8761900">
<ele>408.279602</ele>
<time>2022-09-08T08:07:26.003Z</time>
</trkpt>
<trkpt lat="41.9334360" lon="1.8761790">
<ele>408.005280</ele>
<time>2022-09-08T08:07:26.996Z</time>
</trkpt>
<trkpt lat="41.9334630" lon="1.8761700">
<ele>407.852875</ele>
<time>2022-09-08T08:07:27.998Z</time>
</trkpt>
<trkpt lat="41.9334980" lon="1.8761600">
<ele>407.609070</ele>
<time>2022-09-08T08:07:29.001Z</time>
</trkpt>
<trkpt lat="41.9335330" lon="1.8761490">
<ele>407.426147</ele>
<time>2022-09-08T08:07:30.003Z</time>
</trkpt>
<trkpt lat="41.9335630" lon="1.8761430">
<ele>407.212799</ele>
<time>2022-09-08T08:07:30.996Z</time>
</trkpt>
<trkpt lat="41.9335920" lon="1.8761340">
<ele>407.029938</ele>
<time>2022-09-08T08:07:31.999Z</time>
</trkpt>
<trkpt lat="41.9336230" lon="1.8761260">
<ele>406.877533</ele>
<time>2022-09-08T08:07:33.001Z</time>
</trkpt>
<trkpt lat="41.9336540" lon="1.8761200">
<ele>406.725128</ele>
<time>2022-09-08T08:07:34.003Z</time>
</trkpt>
<trkpt lat="41.9336860" lon="1.8761150">
<ele>406.542267</ele>
<time>2022-09-08T08:07:34.997Z</time>
</trkpt>
<trkpt lat="41.9337220" lon="1.8761090">
<ele>406.389862</ele>
<time>2022-09-08T08:07:35.999Z</time>
</trkpt>
<trkpt lat="41.9337550" lon="1.8761030">
<ele>406.237457</ele>
<time>2022-09-08T08:07:37.001Z</time>
</trkpt>
<trkpt lat="41.9337880" lon="1.8760990">
<ele>406.024078</ele>
<time>2022-09-08T08:07:38.004Z</time>
</trkpt>
<trkpt lat="41.9338220" lon="1.8760940">
<ele>405.810730</ele>
<time>2022-09-08T08:07:38.997Z</time>
</trkpt>
<trkpt lat="41.9338560" lon="1.8760870">
<ele>405.627869</ele>
<time>2022-09-08T08:07:39.999Z</time>
</trkpt>
<trkpt lat="41.9338910" lon="1.8760760">
<ele>405.505920</ele>
<time>2022-09-08T08:07:41.002Z</time>
</trkpt>
<trkpt lat="41.9339230" lon="1.8760640">
<ele>405.384003</ele>
<time>2022-09-08T08:07:42.004Z</time>
</trkpt>
<trkpt lat="41.9339560" lon="1.8760500">
<ele>405.323059</ele>
<time>2022-09-08T08:07:42.997Z</time>
</trkpt>
<trkpt lat="41.9339890" lon="1.8760370">
<ele>405.231598</ele>
<time>2022-09-08T08:07:44.000Z</time>
</trkpt>
<trkpt lat="41.9340180" lon="1.8760220">
<ele>405.201141</ele>
<time>2022-09-08T08:07:45.002Z</time>
</trkpt>
<trkpt lat="41.9340470" lon="1.8760070">
<ele>405.170654</ele>
<time>2022-09-08T08:07:46.004Z</time>
</trkpt>
<trkpt lat="41.9340750" lon="1.8759900">
<ele>405.140137</ele>
<time>2022-09-08T08:07:46.998Z</time>
</trkpt>
<trkpt lat="41.9341080" lon="1.8759710">
<ele>405.140137</ele>
<time>2022-09-08T08:07:48.000Z</time>
</trkpt>
<trkpt lat="41.9341290" lon="1.8759560">
<ele>405.140137</ele>
<time>2022-09-08T08:07:49.002Z</time>
</trkpt>
<trkpt lat="41.9341520" lon="1.8759320">
<ele>405.170654</ele>
<time>2022-09-08T08:07:49.996Z</time>
</trkpt>
<trkpt lat="41.9341640" lon="1.8758980">
<ele>405.201141</ele>
<time>2022-09-08T08:07:50.998Z</time>
</trkpt>
<trkpt lat="41.9341690" lon="1.8758620">
<ele>405.231598</ele>
<time>2022-09-08T08:07:52.000Z</time>
</trkpt>
<trkpt lat="41.9341650" lon="1.8758260">
<ele>405.262085</ele>
<time>2022-09-08T08:07:53.003Z</time>
</trkpt>
<trkpt lat="41.9341480" lon="1.8757910">
<ele>405.292542</ele>
<time>2022-09-08T08:07:53.996Z</time>
</trkpt>
<trkpt lat="41.9341250" lon="1.8757600">
<ele>405.292542</ele>
<time>2022-09-08T08:07:54.998Z</time>
</trkpt>
<trkpt lat="41.9340990" lon="1.8757310">
<ele>405.323059</ele>
<time>2022-09-08T08:07:56.001Z</time>
</trkpt>
<trkpt lat="41.9340720" lon="1.8757040">
<ele>405.323059</ele>
<time>2022-09-08T08:07:57.003Z</time>
</trkpt>
<trkpt lat="41.9340470" lon="1.8756740">
<ele>405.323059</ele>
<time>2022-09-08T08:07:57.996Z</time>
</trkpt>
<trkpt lat="41.9340250" lon="1.8756470">
<ele>405.323059</ele>
<time>2022-09-08T08:07:58.999Z</time>
</trkpt>
<trkpt lat="41.9340000" lon="1.8756190">
<ele>405.292542</ele>
<time>2022-09-08T08:08:00.001Z</time>
</trkpt>
<trkpt lat="41.9339750" lon="1.8755920">
<ele>405.262085</ele>
<time>2022-09-08T08:08:01.003Z</time>
</trkpt>
<trkpt lat="41.9339500" lon="1.8755620">
<ele>405.231598</ele>
<time>2022-09-08T08:08:01.997Z</time>
</trkpt>
<trkpt lat="41.9339230" lon="1.8755290">
<ele>405.170654</ele>
<time>2022-09-08T08:08:02.999Z</time>
</trkpt>
<trkpt lat="41.9338960" lon="1.8754930">
<ele>405.048737</ele>
<time>2022-09-08T08:08:04.001Z</time>
</trkpt>
<trkpt lat="41.9338680" lon="1.8754560">
<ele>404.896332</ele>
<time>2022-09-08T08:08:05.004Z</time>
</trkpt>
<trkpt lat="41.9338420" lon="1.8754180">
<ele>404.713440</ele>
<time>2022-09-08T08:08:05.997Z</time>
</trkpt>
<trkpt lat="41.9338190" lon="1.8753780">
<ele>404.622009</ele>
<time>2022-09-08T08:08:06.999Z</time>
</trkpt>
<trkpt lat="41.9337940" lon="1.8753370">
<ele>404.500061</ele>
<time>2022-09-08T08:08:08.002Z</time>
</trkpt>
<trkpt lat="41.9337700" lon="1.8752960">
<ele>404.286713</ele>
<time>2022-09-08T08:08:09.004Z</time>
</trkpt>
<trkpt lat="41.9337470" lon="1.8752520">
<ele>404.042877</ele>
<time>2022-09-08T08:08:09.997Z</time>
</trkpt>
<trkpt lat="41.9337240" lon="1.8752040">
<ele>403.646667</ele>
<time>2022-09-08T08:08:11.000Z</time>
</trkpt>
<trkpt lat="41.9336980" lon="1.8751530">
<ele>403.219940</ele>
<time>2022-09-08T08:08:12.002Z</time>
</trkpt>
<trkpt lat="41.9336740" lon="1.8751030">
<ele>402.762726</ele>
<time>2022-09-08T08:08:13.004Z</time>
</trkpt>
<trkpt lat="41.9336540" lon="1.8750550">
<ele>402.305542</ele>
<time>2022-09-08T08:08:13.998Z</time>
</trkpt>
<trkpt lat="41.9336320" lon="1.8750040">
<ele>401.817841</ele>
<time>2022-09-08T08:08:15.000Z</time>
</trkpt>
<trkpt lat="41.9336080" lon="1.8749460">
<ele>401.238739</ele>
<time>2022-09-08T08:08:16.002Z</time>
</trkpt>
<trkpt lat="41.9335830" lon="1.8748840">
<ele>400.629120</ele>
<time>2022-09-08T08:08:16.996Z</time>
</trkpt>
<trkpt lat="41.9335540" lon="1.8748190">
<ele>400.019531</ele>
<time>2022-09-08T08:08:17.998Z</time>
</trkpt>
<trkpt lat="41.9335240" lon="1.8747490">
<ele>399.379456</ele>
<time>2022-09-08T08:08:19.000Z</time>
</trkpt>
<trkpt lat="41.9334940" lon="1.8746770">
<ele>398.800323</ele>
<time>2022-09-08T08:08:20.003Z</time>
</trkpt>
<trkpt lat="41.9334630" lon="1.8746020">
<ele>398.221191</ele>
<time>2022-09-08T08:08:20.996Z</time>
</trkpt>
<trkpt lat="41.9334270" lon="1.8745280">
<ele>397.733521</ele>
<time>2022-09-08T08:08:21.998Z</time>
</trkpt>
<trkpt lat="41.9333870" lon="1.8744620">
<ele>397.398254</ele>
<time>2022-09-08T08:08:23.001Z</time>
</trkpt>
<trkpt lat="41.9333420" lon="1.8744080">
<ele>397.276337</ele>
<time>2022-09-08T08:08:24.003Z</time>
</trkpt>
<trkpt lat="41.9332890" lon="1.8743730">
<ele>397.337280</ele>
<time>2022-09-08T08:08:24.996Z</time>
</trkpt>
<trkpt lat="41.9332340" lon="1.8743540">
<ele>397.520142</ele>
<time>2022-09-08T08:08:25.999Z</time>
</trkpt>
<trkpt lat="41.9331830" lon="1.8743390">
<ele>397.733521</ele>
<time>2022-09-08T08:08:27.001Z</time>
</trkpt>
<trkpt lat="41.9331280" lon="1.8743220">
<ele>397.885925</ele>
<time>2022-09-08T08:08:28.003Z</time>
</trkpt>
<trkpt lat="41.9330720" lon="1.8742960">
<ele>397.946869</ele>
<time>2022-09-08T08:08:28.997Z</time>
</trkpt>
<trkpt lat="41.9330120" lon="1.8742580">
<ele>397.855469</ele>
<time>2022-09-08T08:08:29.999Z</time>
</trkpt>
<trkpt lat="41.9329520" lon="1.8742080">
<ele>397.550659</ele>
<time>2022-09-08T08:08:31.001Z</time>
</trkpt>
<trkpt lat="41.9328910" lon="1.8741470">
<ele>396.971527</ele>
<time>2022-09-08T08:08:32.004Z</time>
</trkpt>
<trkpt lat="41.9328310" lon="1.8740710">
<ele>396.087585</ele>
<time>2022-09-08T08:08:32.997Z</time>
</trkpt>
<trkpt lat="41.9327660" lon="1.8739860">
<ele>394.959869</ele>
<time>2022-09-08T08:08:33.999Z</time>
</trkpt>
<trkpt lat="41.9327000" lon="1.8738960">
<ele>393.649200</ele>
<time>2022-09-08T08:08:35.002Z</time>
</trkpt>
<trkpt lat="41.9326320" lon="1.8738080">
<ele>392.186157</ele>
<time>2022-09-08T08:08:36.004Z</time>
</trkpt>
<trkpt lat="41.9325590" lon="1.8737220">
<ele>390.601196</ele>
<time>2022-09-08T08:08:36.997Z</time>
</trkpt>
<trkpt lat="41.9324870" lon="1.8736350">
<ele>388.894318</ele>
<time>2022-09-08T08:08:38.000Z</time>
</trkpt>
<trkpt lat="41.9323520" lon="1.8734340">
<ele>385.846313</ele>
<time>2022-09-08T08:08:39.002Z</time>
</trkpt>
<trkpt lat="41.9323520" lon="1.8734340">
<ele>385.846313</ele>
<time>2022-09-08T08:08:40.004Z</time>
</trkpt>
<trkpt lat="41.9322790" lon="1.8733280">
<ele>384.627136</ele>
<time>2022-09-08T08:08:40.998Z</time>
</trkpt>
<trkpt lat="41.9322070" lon="1.8732220">
<ele>383.712738</ele>
<time>2022-09-08T08:08:42.000Z</time>
</trkpt>
<trkpt lat="41.9321450" lon="1.8731130">
<ele>383.194550</ele>
<time>2022-09-08T08:08:43.002Z</time>
</trkpt>
<trkpt lat="41.9321000" lon="1.8730010">
<ele>382.981201</ele>
<time>2022-09-08T08:08:43.996Z</time>
</trkpt>
<trkpt lat="41.9320750" lon="1.8728820">
<ele>382.798340</ele>
<time>2022-09-08T08:08:44.998Z</time>
</trkpt>
<trkpt lat="41.9320700" lon="1.8726370">
<ele>382.066803</ele>
<time>2022-09-08T08:08:46.000Z</time>
</trkpt>
<trkpt lat="41.9321010" lon="1.8725180">
<ele>382.066803</ele>
<time>2022-09-08T08:08:47.003Z</time>
</trkpt>
<trkpt lat="41.9321310" lon="1.8724130">
<ele>382.280151</ele>
<time>2022-09-08T08:08:47.996Z</time>
</trkpt>
<trkpt lat="41.9321310" lon="1.8724130">
<ele>382.280151</ele>
<time>2022-09-08T08:08:48.998Z</time>
</trkpt>
<trkpt lat="41.9321520" lon="1.8723180">
<ele>382.584930</ele>
<time>2022-09-08T08:08:50.001Z</time>
</trkpt>
<trkpt lat="41.9321410" lon="1.8721300">
<ele>383.651733</ele>
<time>2022-09-08T08:08:51.003Z</time>
</trkpt>
<trkpt lat="41.9321060" lon="1.8720480">
<ele>384.230865</ele>
<time>2022-09-08T08:08:51.996Z</time>
</trkpt>
<trkpt lat="41.9321060" lon="1.8720480">
<ele>384.230865</ele>
<time>2022-09-08T08:08:52.999Z</time>
</trkpt>
<trkpt lat="41.9320580" lon="1.8719750">
<ele>384.688080</ele>
<time>2022-09-08T08:08:54.001Z</time>
</trkpt>
<trkpt lat="41.9320090" lon="1.8719040">
<ele>385.328156</ele>
<time>2022-09-08T08:08:55.003Z</time>
</trkpt>
<trkpt lat="41.9319240" lon="1.8717690">
<ele>387.004547</ele>
<time>2022-09-08T08:08:55.997Z</time>
</trkpt>
<trkpt lat="41.9319240" lon="1.8717690">
<ele>387.004547</ele>
<time>2022-09-08T08:08:56.999Z</time>
</trkpt>
<trkpt lat="41.9318810" lon="1.8717090">
<ele>387.888458</ele>
<time>2022-09-08T08:08:58.001Z</time>
</trkpt>
<trkpt lat="41.9318330" lon="1.8716580">
<ele>388.711456</ele>
<time>2022-09-08T08:08:59.004Z</time>
</trkpt>
<trkpt lat="41.9317820" lon="1.8716280">
<ele>389.229614</ele>
<time>2022-09-08T08:08:59.997Z</time>
</trkpt>
<trkpt lat="41.9317320" lon="1.8716250">
<ele>389.260071</ele>
<time>2022-09-08T08:09:00.999Z</time>
</trkpt>
<trkpt lat="41.9316870" lon="1.8716430">
<ele>388.924805</ele>
<time>2022-09-08T08:09:02.002Z</time>
</trkpt>
<trkpt lat="41.9316020" lon="1.8716980">
<ele>387.858002</ele>
<time>2022-09-08T08:09:03.004Z</time>
</trkpt>
<trkpt lat="41.9315700" lon="1.8717310">
<ele>387.248413</ele>
<time>2022-09-08T08:09:03.997Z</time>
</trkpt>
<trkpt lat="41.9315700" lon="1.8717310">
<ele>387.248413</ele>
<time>2022-09-08T08:09:05.000Z</time>
</trkpt>
<trkpt lat="41.9315260" lon="1.8717880">
<ele>386.303528</ele>
<time>2022-09-08T08:09:06.002Z</time>
</trkpt>
<trkpt lat="41.9315160" lon="1.8718030">
<ele>386.029205</ele>
<time>2022-09-08T08:09:07.004Z</time>
</trkpt>
<trkpt lat="41.9315020" lon="1.8718160">
<ele>385.815857</ele>
<time>2022-09-08T08:09:07.998Z</time>
</trkpt>
<trkpt lat="41.9315020" lon="1.8718160">
<ele>385.815857</ele>
<time>2022-09-08T08:09:09.000Z</time>
</trkpt>
<trkpt lat="41.9314890" lon="1.8718310">
<ele>385.571991</ele>
<time>2022-09-08T08:09:10.002Z</time>
</trkpt>
<trkpt lat="41.9314850" lon="1.8718350">
<ele>385.511047</ele>
<time>2022-09-08T08:09:10.996Z</time>
</trkpt>
<trkpt lat="41.9314850" lon="1.8718350">
<ele>385.511047</ele>
<time>2022-09-08T08:09:11.998Z</time>
</trkpt>
<trkpt lat="41.9314370" lon="1.8719090">
<ele>384.444244</ele>
<time>2022-09-08T08:09:48.001Z</time>
</trkpt>
<trkpt lat="41.9314210" lon="1.8719360">
<ele>384.048004</ele>
<time>2022-09-08T08:09:49.003Z</time>
</trkpt>
<trkpt lat="41.9314030" lon="1.8719650">
<ele>383.682251</ele>
<time>2022-09-08T08:09:49.997Z</time>
</trkpt>
<trkpt lat="41.9313840" lon="1.8719940">
<ele>383.346954</ele>
<time>2022-09-08T08:09:50.999Z</time>
</trkpt>
<trkpt lat="41.9313630" lon="1.8720220">
<ele>382.981201</ele>
<time>2022-09-08T08:09:52.001Z</time>
</trkpt>
<trkpt lat="41.9313380" lon="1.8720480">
<ele>382.676392</ele>
<time>2022-09-08T08:09:53.004Z</time>
</trkpt>
<trkpt lat="41.9313150" lon="1.8720680">
<ele>382.432556</ele>
<time>2022-09-08T08:09:53.997Z</time>
</trkpt>
<trkpt lat="41.9312910" lon="1.8720780">
<ele>382.219208</ele>
<time>2022-09-08T08:09:54.999Z</time>
</trkpt>
<trkpt lat="41.9312910" lon="1.8720780">
<ele>382.219208</ele>
<time>2022-09-08T08:09:56.002Z</time>
</trkpt>
<trkpt lat="41.9312370" lon="1.8720810">
<ele>381.944885</ele>
<time>2022-09-08T08:09:57.004Z</time>
</trkpt>
<trkpt lat="41.9312370" lon="1.8720810">
<ele>381.944885</ele>
<time>2022-09-08T08:09:57.997Z</time>
</trkpt>
<trkpt lat="41.9312100" lon="1.8720690">
<ele>381.853455</ele>
<time>2022-09-08T08:09:59.000Z</time>
</trkpt>
<trkpt lat="41.9311520" lon="1.8720100">
<ele>381.975342</ele>
<time>2022-09-08T08:10:00.002Z</time>
</trkpt>
<trkpt lat="41.9311230" lon="1.8719680">
<ele>382.127747</ele>
<time>2022-09-08T08:10:01.004Z</time>
</trkpt>
<trkpt lat="41.9310930" lon="1.8719220">
<ele>382.341125</ele>
<time>2022-09-08T08:10:01.998Z</time>
</trkpt>
<trkpt lat="41.9310580" lon="1.8718730">
<ele>382.615448</ele>
<time>2022-09-08T08:10:03.000Z</time>
</trkpt>
<trkpt lat="41.9310140" lon="1.8718250">
<ele>382.859283</ele>
<time>2022-09-08T08:10:04.002Z</time>
</trkpt>
<trkpt lat="41.9309600" lon="1.8717830">
<ele>382.950714</ele>
<time>2022-09-08T08:10:04.996Z</time>
</trkpt>
<trkpt lat="41.9309030" lon="1.8717430">
<ele>383.011658</ele>
<time>2022-09-08T08:10:05.998Z</time>
</trkpt>
<trkpt lat="41.9308400" lon="1.8717050">
<ele>382.981201</ele>
<time>2022-09-08T08:10:07.000Z</time>
</trkpt>
<trkpt lat="41.9307690" lon="1.8716730">
<ele>382.828796</ele>
<time>2022-09-08T08:10:08.003Z</time>
</trkpt>
<trkpt lat="41.9306950" lon="1.8716400">
<ele>382.615448</ele>
<time>2022-09-08T08:10:08.996Z</time>
</trkpt>
<trkpt lat="41.9306230" lon="1.8715960">
<ele>382.615448</ele>
<time>2022-09-08T08:10:09.998Z</time>
</trkpt>
<trkpt lat="41.9305550" lon="1.8715450">
<ele>382.767853</ele>
<time>2022-09-08T08:10:11.001Z</time>
</trkpt>
<trkpt lat="41.9304870" lon="1.8714940">
<ele>382.981201</ele>
<time>2022-09-08T08:10:12.003Z</time>
</trkpt>
<trkpt lat="41.9304170" lon="1.8714470">
<ele>383.103119</ele>
<time>2022-09-08T08:10:12.996Z</time>
</trkpt>
<trkpt lat="41.9304170" lon="1.8714470">
<ele>383.103119</ele>
<time>2022-09-08T08:10:13.999Z</time>
</trkpt>
<trkpt lat="41.9302680" lon="1.8713440">
<ele>383.590790</ele>
<time>2022-09-08T08:10:15.001Z</time>
</trkpt>
<trkpt lat="41.9301880" lon="1.8713000">
<ele>383.712738</ele>
<time>2022-09-08T08:10:16.003Z</time>
</trkpt>
<trkpt lat="41.9301110" lon="1.8712500">
<ele>383.987061</ele>
<time>2022-09-08T08:10:16.997Z</time>
</trkpt>
<trkpt lat="41.9300290" lon="1.8711960">
<ele>384.200409</ele>
<time>2022-09-08T08:10:17.999Z</time>
</trkpt>
<trkpt lat="41.9299460" lon="1.8711420">
<ele>384.322327</ele>
<time>2022-09-08T08:10:19.001Z</time>
</trkpt>
<trkpt lat="41.9298610" lon="1.8710910">
<ele>384.261353</ele>
<time>2022-09-08T08:10:20.004Z</time>
</trkpt>
<trkpt lat="41.9297760" lon="1.8710400">
<ele>384.200409</ele>
<time>2022-09-08T08:10:20.997Z</time>
</trkpt>
<trkpt lat="41.9296900" lon="1.8709880">
<ele>384.108948</ele>
<time>2022-09-08T08:10:21.999Z</time>
</trkpt>
<trkpt lat="41.9296080" lon="1.8709380">
<ele>383.956543</ele>
<time>2022-09-08T08:10:23.002Z</time>
</trkpt>
<trkpt lat="41.9295300" lon="1.8708880">
<ele>383.743195</ele>
<time>2022-09-08T08:10:24.004Z</time>
</trkpt>
<trkpt lat="41.9295300" lon="1.8708880">
<ele>383.743195</ele>
<time>2022-09-08T08:10:24.997Z</time>
</trkpt>
<trkpt lat="41.9293960" lon="1.8708080">
<ele>383.346954</ele>
<time>2022-09-08T08:10:26.000Z</time>
</trkpt>
<trkpt lat="41.9293320" lon="1.8707790">
<ele>383.194550</ele>
<time>2022-09-08T08:10:27.002Z</time>
</trkpt>
<trkpt lat="41.9292650" lon="1.8707490">
<ele>383.133606</ele>
<time>2022-09-08T08:10:28.004Z</time>
</trkpt>
<trkpt lat="41.9291970" lon="1.8707240">
<ele>383.133606</ele>
<time>2022-09-08T08:10:28.998Z</time>
</trkpt>
<trkpt lat="41.9291300" lon="1.8707010">
<ele>383.255524</ele>
<time>2022-09-08T08:10:30.000Z</time>
</trkpt>
<trkpt lat="41.9290660" lon="1.8706750">
<ele>383.529846</ele>
<time>2022-09-08T08:10:31.002Z</time>
</trkpt>
<trkpt lat="41.9290010" lon="1.8706450">
<ele>383.987061</ele>
<time>2022-09-08T08:10:31.996Z</time>
</trkpt>
<trkpt lat="41.9289350" lon="1.8706110">
<ele>384.627136</ele>
<time>2022-09-08T08:10:32.998Z</time>
</trkpt>
<trkpt lat="41.9288780" lon="1.8705840">
<ele>385.297668</ele>
<time>2022-09-08T08:10:34.000Z</time>
</trkpt>
<trkpt lat="41.9288200" lon="1.8705640">
<ele>385.968262</ele>
<time>2022-09-08T08:10:35.003Z</time>
</trkpt>
<trkpt lat="41.9287620" lon="1.8705370">
<ele>386.943604</ele>
<time>2022-09-08T08:10:35.996Z</time>
</trkpt>
<trkpt lat="41.9287120" lon="1.8705010">
<ele>387.797058</ele>
<time>2022-09-08T08:10:36.998Z</time>
</trkpt>
<trkpt lat="41.9286640" lon="1.8704600">
<ele>388.772400</ele>
<time>2022-09-08T08:10:38.001Z</time>
</trkpt>
<trkpt lat="41.9286200" lon="1.8704160">
<ele>389.961121</ele>
<time>2022-09-08T08:10:39.003Z</time>
</trkpt>
<trkpt lat="41.9285850" lon="1.8703750">
<ele>391.210785</ele>
<time>2022-09-08T08:10:39.996Z</time>
</trkpt>
<trkpt lat="41.9285520" lon="1.8703360">
<ele>392.429993</ele>
<time>2022-09-08T08:10:40.999Z</time>
</trkpt>
<trkpt lat="41.9285200" lon="1.8702980">
<ele>393.649200</ele>
<time>2022-09-08T08:10:42.001Z</time>
</trkpt>
<trkpt lat="41.9284890" lon="1.8702700">
<ele>394.655060</ele>
<time>2022-09-08T08:10:43.003Z</time>
</trkpt>
<trkpt lat="41.9284550" lon="1.8702590">
<ele>395.417053</ele>
<time>2022-09-08T08:10:43.997Z</time>
</trkpt>
<trkpt lat="41.9284550" lon="1.8702590">
<ele>395.417053</ele>
<time>2022-09-08T08:10:44.999Z</time>
</trkpt>
<trkpt lat="41.9284050" lon="1.8702820">
<ele>395.721863</ele>
<time>2022-09-08T08:10:46.001Z</time>
</trkpt>
<trkpt lat="41.9284050" lon="1.8702820">
<ele>395.721863</ele>
<time>2022-09-08T08:10:47.004Z</time>
</trkpt>
<trkpt lat="41.9282920" lon="1.8703480">
<ele>396.087585</ele>
<time>2022-09-08T08:10:47.997Z</time>
</trkpt>
<trkpt lat="41.9282500" lon="1.8703710">
<ele>396.209534</ele>
<time>2022-09-08T08:10:48.999Z</time>
</trkpt>
<trkpt lat="41.9282280" lon="1.8704150">
<ele>395.417053</ele>
<time>2022-09-08T08:10:50.002Z</time>
</trkpt>
<trkpt lat="41.9282210" lon="1.8704700">
<ele>394.014954</ele>
<time>2022-09-08T08:10:51.004Z</time>
</trkpt>
<trkpt lat="41.9282200" lon="1.8705120">
<ele>392.948151</ele>
<time>2022-09-08T08:10:51.997Z</time>
</trkpt>
<trkpt lat="41.9282200" lon="1.8705120">
<ele>392.948151</ele>
<time>2022-09-08T08:10:53.000Z</time>
</trkpt>
<trkpt lat="41.9282450" lon="1.8705740">
<ele>390.875519</ele>
<time>2022-09-08T08:10:54.002Z</time>
</trkpt>
<trkpt lat="41.9282590" lon="1.8706030">
<ele>389.900146</ele>
<time>2022-09-08T08:10:55.004Z</time>
</trkpt>
<trkpt lat="41.9282890" lon="1.8706330">
<ele>388.772400</ele>
<time>2022-09-08T08:10:55.998Z</time>
</trkpt>
<trkpt lat="41.9282910" lon="1.8706630">
<ele>387.949463</ele>
<time>2022-09-08T08:10:57.000Z</time>
</trkpt>
<trkpt lat="41.9282920" lon="1.8706930">
<ele>387.187469</ele>
<time>2022-09-08T08:10:58.002Z</time>
</trkpt>
<trkpt lat="41.9282730" lon="1.8707230">
<ele>386.608337</ele>
<time>2022-09-08T08:10:58.996Z</time>
</trkpt>
<trkpt lat="41.9282500" lon="1.8707380">
<ele>386.455933</ele>
<time>2022-09-08T08:10:59.998Z</time>
</trkpt>
<trkpt lat="41.9282230" lon="1.8707570">
<ele>386.242554</ele>
<time>2022-09-08T08:11:01.000Z</time>
</trkpt>
<trkpt lat="41.9281970" lon="1.8707650">
<ele>386.334015</ele>
<time>2022-09-08T08:11:02.003Z</time>
</trkpt>
<trkpt lat="41.9281730" lon="1.8707690">
<ele>386.516876</ele>
<time>2022-09-08T08:11:02.996Z</time>
</trkpt>
<trkpt lat="41.9281600" lon="1.8707510">
<ele>387.156952</ele>
<time>2022-09-08T08:11:03.998Z</time>
</trkpt>
<trkpt lat="41.9281570" lon="1.8707180">
<ele>388.132324</ele>
<time>2022-09-08T08:11:05.001Z</time>
</trkpt>
<trkpt lat="41.9281470" lon="1.8706820">
<ele>389.321045</ele>
<time>2022-09-08T08:11:06.003Z</time>
</trkpt>
<trkpt lat="41.9281330" lon="1.8706500">
<ele>390.448792</ele>
<time>2022-09-08T08:11:06.996Z</time>
</trkpt>
<trkpt lat="41.9281250" lon="1.8706220">
<ele>391.363190</ele>
<time>2022-09-08T08:11:07.999Z</time>
</trkpt>
<trkpt lat="41.9281190" lon="1.8705950">
<ele>392.216644</ele>
<time>2022-09-08T08:11:09.001Z</time>
</trkpt>
<trkpt lat="41.9281100" lon="1.8705700">
<ele>393.131042</ele>
<time>2022-09-08T08:11:10.003Z</time>
</trkpt>
<trkpt lat="41.9280950" lon="1.8705470">
<ele>393.984467</ele>
<time>2022-09-08T08:11:10.997Z</time>
</trkpt>
<trkpt lat="41.9280800" lon="1.8705260">
<ele>394.837921</ele>
<time>2022-09-08T08:11:11.999Z</time>
</trkpt>
<trkpt lat="41.9280800" lon="1.8705260">
<ele>394.837921</ele>
<time>2022-09-08T08:11:13.001Z</time>
</trkpt>
<trkpt lat="41.9280770" lon="1.8704700">
<ele>396.514313</ele>
<time>2022-09-08T08:11:14.004Z</time>
</trkpt>
<trkpt lat="41.9280660" lon="1.8704360">
<ele>397.703064</ele>
<time>2022-09-08T08:11:14.997Z</time>
</trkpt>
<trkpt lat="41.9280480" lon="1.8704100">
<ele>398.769867</ele>
<time>2022-09-08T08:11:15.999Z</time>
</trkpt>
<trkpt lat="41.9280240" lon="1.8703910">
<ele>399.745209</ele>
<time>2022-09-08T08:11:17.002Z</time>
</trkpt>
<trkpt lat="41.9280010" lon="1.8703790">
<ele>400.537659</ele>
<time>2022-09-08T08:11:18.004Z</time>
</trkpt>
<trkpt lat="41.9279800" lon="1.8703760">
<ele>401.025360</ele>
<time>2022-09-08T08:11:18.997Z</time>
</trkpt>
<trkpt lat="41.9279600" lon="1.8703690">
<ele>401.574005</ele>
<time>2022-09-08T08:11:20.000Z</time>
</trkpt>
<trkpt lat="41.9279510" lon="1.8703610">
<ele>401.939758</ele>
<time>2022-09-08T08:11:21.002Z</time>
</trkpt>
<trkpt lat="41.9279340" lon="1.8703580">
<ele>402.366486</ele>
<time>2022-09-08T08:11:22.004Z</time>
</trkpt>
<trkpt lat="41.9279130" lon="1.8703570">
<ele>402.732269</ele>
<time>2022-09-08T08:11:22.998Z</time>
</trkpt>
<trkpt lat="41.9278940" lon="1.8703580">
<ele>402.976074</ele>
<time>2022-09-08T08:11:24.000Z</time>
</trkpt>
<trkpt lat="41.9278700" lon="1.8703600">
<ele>403.219940</ele>
<time>2022-09-08T08:11:25.002Z</time>
</trkpt>
<trkpt lat="41.9278440" lon="1.8703580">
<ele>403.616150</ele>
<time>2022-09-08T08:11:25.996Z</time>
</trkpt>
<trkpt lat="41.9278160" lon="1.8703590">
<ele>403.920959</ele>
<time>2022-09-08T08:11:26.998Z</time>
</trkpt>
<trkpt lat="41.9277950" lon="1.8703640">
<ele>404.012390</ele>
<time>2022-09-08T08:11:28.000Z</time>
</trkpt>
<trkpt lat="41.9277720" lon="1.8703680">
<ele>404.134338</ele>
<time>2022-09-08T08:11:29.003Z</time>
</trkpt>
<trkpt lat="41.9277430" lon="1.8703690">
<ele>404.408661</ele>
<time>2022-09-08T08:11:29.996Z</time>
</trkpt>
<trkpt lat="41.9277160" lon="1.8703590">
<ele>404.926788</ele>
<time>2022-09-08T08:11:30.998Z</time>
</trkpt>
<trkpt lat="41.9276880" lon="1.8703600">
<ele>405.140137</ele>
<time>2022-09-08T08:11:32.001Z</time>
</trkpt>
<trkpt lat="41.9276620" lon="1.8703610">
<ele>405.323059</ele>
<time>2022-09-08T08:11:33.003Z</time>
</trkpt>
<trkpt lat="41.9276310" lon="1.8703570">
<ele>405.658325</ele>
<time>2022-09-08T08:11:33.996Z</time>
</trkpt>
<trkpt lat="41.9276010" lon="1.8703550">
<ele>405.932648</ele>
<time>2022-09-08T08:11:34.999Z</time>
</trkpt>
<trkpt lat="41.9275750" lon="1.8703520">
<ele>406.206940</ele>
<time>2022-09-08T08:11:36.001Z</time>
</trkpt>
<trkpt lat="41.9275440" lon="1.8703420">
<ele>406.664154</ele>
<time>2022-09-08T08:11:37.003Z</time>
</trkpt>
<trkpt lat="41.9275060" lon="1.8703330">
<ele>407.121338</ele>
<time>2022-09-08T08:11:37.997Z</time>
</trkpt>
<trkpt lat="41.9274620" lon="1.8703330">
<ele>407.456665</ele>
<time>2022-09-08T08:11:38.999Z</time>
</trkpt>
<trkpt lat="41.9274250" lon="1.8703340">
<ele>407.730957</ele>
<time>2022-09-08T08:11:40.001Z</time>
</trkpt>
<trkpt lat="41.9273840" lon="1.8703260">
<ele>408.218658</ele>
<time>2022-09-08T08:11:41.004Z</time>
</trkpt>
<trkpt lat="41.9273510" lon="1.8703150">
<ele>408.675842</ele>
<time>2022-09-08T08:11:41.997Z</time>
</trkpt>
<trkpt lat="41.9273030" lon="1.8702980">
<ele>409.437866</ele>
<time>2022-09-08T08:11:42.999Z</time>
</trkpt>
<trkpt lat="41.9272550" lon="1.8702740">
<ele>410.382721</ele>
<time>2022-09-08T08:11:44.002Z</time>
</trkpt>
<trkpt lat="41.9272080" lon="1.8702550">
<ele>411.205658</ele>
<time>2022-09-08T08:11:45.004Z</time>
</trkpt>
<trkpt lat="41.9271660" lon="1.8702440">
<ele>411.937195</ele>
<time>2022-09-08T08:11:45.997Z</time>
</trkpt>
<trkpt lat="41.9271230" lon="1.8702420">
<ele>412.577271</ele>
<time>2022-09-08T08:11:47.000Z</time>
</trkpt>
<trkpt lat="41.9270600" lon="1.8702590">
<ele>413.491669</ele>
<time>2022-09-08T08:11:48.002Z</time>
</trkpt>
<trkpt lat="41.9270120" lon="1.8702850">
<ele>414.009857</ele>
<time>2022-09-08T08:11:49.004Z</time>
</trkpt>
<trkpt lat="41.9269930" lon="1.8703250">
<ele>413.857452</ele>
<time>2022-09-08T08:11:49.998Z</time>
</trkpt>
<trkpt lat="41.9269770" lon="1.8703780">
<ele>413.613586</ele>
<time>2022-09-08T08:11:51.000Z</time>
</trkpt>
<trkpt lat="41.9269800" lon="1.8704370">
<ele>412.882080</ele>
<time>2022-09-08T08:11:52.002Z</time>
</trkpt>
<trkpt lat="41.9269800" lon="1.8704920">
<ele>412.333466</ele>
<time>2022-09-08T08:11:52.996Z</time>
</trkpt>
<trkpt lat="41.9269740" lon="1.8705340">
<ele>412.089600</ele>
<time>2022-09-08T08:11:53.998Z</time>
</trkpt>
<trkpt lat="41.9269600" lon="1.8705720">
<ele>412.120087</ele>
<time>2022-09-08T08:11:55.000Z</time>
</trkpt>
<trkpt lat="41.9269600" lon="1.8705720">
<ele>412.120087</ele>
<time>2022-09-08T08:11:56.003Z</time>
</trkpt>
<trkpt lat="41.9269320" lon="1.8706290">
<ele>412.363922</ele>
<time>2022-09-08T08:11:56.996Z</time>
</trkpt>
<trkpt lat="41.9269210" lon="1.8706560">
<ele>412.455353</ele>
<time>2022-09-08T08:11:57.998Z</time>
</trkpt>
<trkpt lat="41.9269110" lon="1.8706830">
<ele>412.577271</ele>
<time>2022-09-08T08:11:59.001Z</time>
</trkpt>
<trkpt lat="41.9269000" lon="1.8707070">
<ele>412.699188</ele>
<time>2022-09-08T08:12:00.003Z</time>
</trkpt>
<trkpt lat="41.9268850" lon="1.8707330">
<ele>412.882080</ele>
<time>2022-09-08T08:12:00.996Z</time>
</trkpt>
<trkpt lat="41.9268720" lon="1.8707650">
<ele>412.973541</ele>
<time>2022-09-08T08:12:01.999Z</time>
</trkpt>
<trkpt lat="41.9268630" lon="1.8708050">
<ele>412.943054</ele>
<time>2022-09-08T08:12:03.001Z</time>
</trkpt>
<trkpt lat="41.9268490" lon="1.8708380">
<ele>413.064941</ele>
<time>2022-09-08T08:12:04.003Z</time>
</trkpt>
<trkpt lat="41.9268250" lon="1.8708850">
<ele>413.247864</ele>
<time>2022-09-08T08:12:04.997Z</time>
</trkpt>
<trkpt lat="41.9268000" lon="1.8709220">
<ele>413.491669</ele>
<time>2022-09-08T08:12:05.999Z</time>
</trkpt>
<trkpt lat="41.9267850" lon="1.8709560">
<ele>413.522156</ele>
<time>2022-09-08T08:12:07.001Z</time>
</trkpt>
<trkpt lat="41.9267760" lon="1.8710000">
<ele>413.278320</ele>
<time>2022-09-08T08:12:08.004Z</time>
</trkpt>
<trkpt lat="41.9267730" lon="1.8710440">
<ele>412.973541</ele>
<time>2022-09-08T08:12:08.997Z</time>
</trkpt>
<trkpt lat="41.9267640" lon="1.8710870">
<ele>412.668732</ele>
<time>2022-09-08T08:12:09.999Z</time>
</trkpt>
<trkpt lat="41.9267510" lon="1.8711400">
<ele>412.302948</ele>
<time>2022-09-08T08:12:11.002Z</time>
</trkpt>
<trkpt lat="41.9267330" lon="1.8711760">
<ele>412.089600</ele>
<time>2022-09-08T08:12:12.004Z</time>
</trkpt>
<trkpt lat="41.9267070" lon="1.8712330">
<ele>411.601929</ele>
<time>2022-09-08T08:12:12.997Z</time>
</trkpt>
<trkpt lat="41.9266950" lon="1.8712890">
<ele>410.931335</ele>
<time>2022-09-08T08:12:14.000Z</time>
</trkpt>
<trkpt lat="41.9266860" lon="1.8713380">
<ele>410.382721</ele>
<time>2022-09-08T08:12:15.002Z</time>
</trkpt>
<trkpt lat="41.9266600" lon="1.8713800">
<ele>410.108398</ele>
<time>2022-09-08T08:12:16.004Z</time>
</trkpt>
<trkpt lat="41.9266330" lon="1.8714040">
<ele>410.077942</ele>
<time>2022-09-08T08:12:16.998Z</time>
</trkpt>
<trkpt lat="41.9266120" lon="1.8714200">
<ele>410.077942</ele>
<time>2022-09-08T08:12:18.000Z</time>
</trkpt>
<trkpt lat="41.9265900" lon="1.8714350">
<ele>410.138885</ele>
<time>2022-09-08T08:12:19.002Z</time>
</trkpt>
<trkpt lat="41.9265490" lon="1.8714710">
<ele>410.108398</ele>
<time>2022-09-08T08:12:19.996Z</time>
</trkpt>
<trkpt lat="41.9265090" lon="1.8715120">
<ele>410.016937</ele>
<time>2022-09-08T08:12:20.998Z</time>
</trkpt>
<trkpt lat="41.9264690" lon="1.8715430">
<ele>410.108398</ele>
<time>2022-09-08T08:12:22.000Z</time>
</trkpt>
<trkpt lat="41.9264280" lon="1.8715670">
<ele>410.260803</ele>
<time>2022-09-08T08:12:23.003Z</time>
</trkpt>
<trkpt lat="41.9263870" lon="1.8715920">
<ele>410.474152</ele>
<time>2022-09-08T08:12:23.996Z</time>
</trkpt>
<trkpt lat="41.9263510" lon="1.8716390">
<ele>410.474152</ele>
<time>2022-09-08T08:12:24.998Z</time>
</trkpt>
<trkpt lat="41.9263260" lon="1.8716610">
<ele>410.565613</ele>
<time>2022-09-08T08:12:26.001Z</time>
</trkpt>
<trkpt lat="41.9263020" lon="1.8716860">
<ele>410.626556</ele>
<time>2022-09-08T08:12:27.003Z</time>
</trkpt>
<trkpt lat="41.9262810" lon="1.8717020">
<ele>410.809448</ele>
<time>2022-09-08T08:12:27.996Z</time>
</trkpt>
<trkpt lat="41.9262650" lon="1.8717040">
<ele>411.022797</ele>
<time>2022-09-08T08:12:28.999Z</time>
</trkpt>
<trkpt lat="41.9262380" lon="1.8717340">
<ele>411.175201</ele>
<time>2022-09-08T08:12:30.001Z</time>
</trkpt>
<trkpt lat="41.9262120" lon="1.8717400">
<ele>411.632385</ele>
<time>2022-09-08T08:12:31.003Z</time>
</trkpt>
<trkpt lat="41.9261810" lon="1.8717510">
<ele>412.059113</ele>
<time>2022-09-08T08:12:31.997Z</time>
</trkpt>
<trkpt lat="41.9261410" lon="1.8717730">
<ele>412.546814</ele>
<time>2022-09-08T08:12:32.999Z</time>
</trkpt>
<trkpt lat="41.9261080" lon="1.8717820">
<ele>412.943054</ele>
<time>2022-09-08T08:12:34.001Z</time>
</trkpt>
<trkpt lat="41.9260730" lon="1.8717880">
<ele>413.461212</ele>
<time>2022-09-08T08:12:35.004Z</time>
</trkpt>
<trkpt lat="41.9260360" lon="1.8718010">
<ele>413.826935</ele>
<time>2022-09-08T08:12:35.997Z</time>
</trkpt>
<trkpt lat="41.9260010" lon="1.8718280">
<ele>413.979340</ele>
<time>2022-09-08T08:12:36.999Z</time>
</trkpt>
<trkpt lat="41.9259760" lon="1.8718530">
<ele>414.070801</ele>
<time>2022-09-08T08:12:38.002Z</time>
</trkpt>
<trkpt lat="41.9259660" lon="1.8718780">
<ele>413.918396</ele>
<time>2022-09-08T08:12:39.004Z</time>
</trkpt>
<trkpt lat="41.9259670" lon="1.8719160">
<ele>413.430725</ele>
<time>2022-09-08T08:12:39.997Z</time>
</trkpt>
<trkpt lat="41.9259640" lon="1.8719670">
<ele>412.912537</ele>
<time>2022-09-08T08:12:41.000Z</time>
</trkpt>
<trkpt lat="41.9259550" lon="1.8720260">
<ele>412.272461</ele>
<time>2022-09-08T08:12:42.002Z</time>
</trkpt>
<trkpt lat="41.9259480" lon="1.8720950">
<ele>411.510468</ele>
<time>2022-09-08T08:12:43.004Z</time>
</trkpt>
<trkpt lat="41.9259420" lon="1.8721660">
<ele>410.717987</ele>
<time>2022-09-08T08:12:43.998Z</time>
</trkpt>
<trkpt lat="41.9259250" lon="1.8722440">
<ele>410.016937</ele>
<time>2022-09-08T08:12:45.000Z</time>
</trkpt>
<trkpt lat="41.9259100" lon="1.8723310">
<ele>409.346405</ele>
<time>2022-09-08T08:12:46.002Z</time>
</trkpt>
<trkpt lat="41.9259000" lon="1.8724070">
<ele>408.797760</ele>
<time>2022-09-08T08:12:46.996Z</time>
</trkpt>
<trkpt lat="41.9258960" lon="1.8724750">
<ele>408.279602</ele>
<time>2022-09-08T08:12:47.998Z</time>
</trkpt>
<trkpt lat="41.9258810" lon="1.8725300">
<ele>408.005280</ele>
<time>2022-09-08T08:12:49.000Z</time>
</trkpt>
<trkpt lat="41.9258620" lon="1.8725920">
<ele>407.730957</ele>
<time>2022-09-08T08:12:50.003Z</time>
</trkpt>
<trkpt lat="41.9258420" lon="1.8726490">
<ele>407.517609</ele>
<time>2022-09-08T08:12:50.996Z</time>
</trkpt>
<trkpt lat="41.9258190" lon="1.8727060">
<ele>407.334717</ele>
<time>2022-09-08T08:12:51.998Z</time>
</trkpt>
<trkpt lat="41.9257920" lon="1.8727560">
<ele>407.212799</ele>
<time>2022-09-08T08:12:53.001Z</time>
</trkpt>
<trkpt lat="41.9257670" lon="1.8728020">
<ele>407.121338</ele>
<time>2022-09-08T08:12:54.003Z</time>
</trkpt>
<trkpt lat="41.9257670" lon="1.8728020">
<ele>407.121338</ele>
<time>2022-09-08T08:12:54.996Z</time>
</trkpt>
<trkpt lat="41.9257100" lon="1.8728910">
<ele>406.877533</ele>
<time>2022-09-08T08:12:55.999Z</time>
</trkpt>
<trkpt lat="41.9256770" lon="1.8729350">
<ele>406.786072</ele>
<time>2022-09-08T08:12:57.001Z</time>
</trkpt>
<trkpt lat="41.9256410" lon="1.8729790">
<ele>406.816559</ele>
<time>2022-09-08T08:12:58.003Z</time>
</trkpt>
<trkpt lat="41.9256000" lon="1.8730240">
<ele>406.877533</ele>
<time>2022-09-08T08:12:58.997Z</time>
</trkpt>
<trkpt lat="41.9255600" lon="1.8730700">
<ele>406.877533</ele>
<time>2022-09-08T08:12:59.999Z</time>
</trkpt>
<trkpt lat="41.9255170" lon="1.8731090">
<ele>406.938477</ele>
<time>2022-09-08T08:13:01.001Z</time>
</trkpt>
<trkpt lat="41.9255170" lon="1.8731090">
<ele>406.938477</ele>
<time>2022-09-08T08:13:02.004Z</time>
</trkpt>
<trkpt lat="41.9254280" lon="1.8731760">
<ele>407.090881</ele>
<time>2022-09-08T08:13:02.997Z</time>
</trkpt>
<trkpt lat="41.9253860" lon="1.8732070">
<ele>407.151855</ele>
<time>2022-09-08T08:13:03.999Z</time>
</trkpt>
<trkpt lat="41.9253450" lon="1.8732330">
<ele>407.151855</ele>
<time>2022-09-08T08:13:05.002Z</time>
</trkpt>
<trkpt lat="41.9253010" lon="1.8732640">
<ele>407.029938</ele>
<time>2022-09-08T08:13:06.004Z</time>
</trkpt>
<trkpt lat="41.9252570" lon="1.8733040">
<ele>406.633667</ele>
<time>2022-09-08T08:13:06.997Z</time>
</trkpt>
<trkpt lat="41.9252130" lon="1.8733440">
<ele>406.176483</ele>
<time>2022-09-08T08:13:08.000Z</time>
</trkpt>
<trkpt lat="41.9251680" lon="1.8733840">
<ele>405.566864</ele>
<time>2022-09-08T08:13:09.002Z</time>
</trkpt>
<trkpt lat="41.9251210" lon="1.8734220">
<ele>404.865845</ele>
<time>2022-09-08T08:13:10.004Z</time>
</trkpt>
<trkpt lat="41.9250710" lon="1.8734570">
<ele>404.134338</ele>
<time>2022-09-08T08:13:10.998Z</time>
</trkpt>
<trkpt lat="41.9250240" lon="1.8734890">
<ele>403.372314</ele>
<time>2022-09-08T08:13:12.000Z</time>
</trkpt>
<trkpt lat="41.9249770" lon="1.8735120">
<ele>402.762726</ele>
<time>2022-09-08T08:13:13.002Z</time>
</trkpt>
<trkpt lat="41.9249310" lon="1.8735290">
<ele>402.244537</ele>
<time>2022-09-08T08:13:13.996Z</time>
</trkpt>
<trkpt lat="41.9248820" lon="1.8735390">
<ele>401.848328</ele>
<time>2022-09-08T08:13:14.998Z</time>
</trkpt>
<trkpt lat="41.9248200" lon="1.8735540">
<ele>401.360657</ele>
<time>2022-09-08T08:13:16.000Z</time>
</trkpt>
<trkpt lat="41.9247750" lon="1.8735620">
<ele>401.086334</ele>
<time>2022-09-08T08:13:17.003Z</time>
</trkpt>
<trkpt lat="41.9247200" lon="1.8735700">
<ele>400.903442</ele>
<time>2022-09-08T08:13:17.996Z</time>
</trkpt>
<trkpt lat="41.9246660" lon="1.8735720">
<ele>400.933929</ele>
<time>2022-09-08T08:13:18.998Z</time>
</trkpt>
<trkpt lat="41.9246110" lon="1.8735660">
<ele>401.299683</ele>
<time>2022-09-08T08:13:20.001Z</time>
</trkpt>
<trkpt lat="41.9245480" lon="1.8735510">
<ele>402.000732</ele>
<time>2022-09-08T08:13:21.003Z</time>
</trkpt>
<trkpt lat="41.9245090" lon="1.8735370">
<ele>402.671265</ele>
<time>2022-09-08T08:13:21.996Z</time>
</trkpt>
<trkpt lat="41.9244620" lon="1.8735130">
<ele>403.646667</ele>
<time>2022-09-08T08:13:22.999Z</time>
</trkpt>
<trkpt lat="41.9244180" lon="1.8734830">
<ele>404.804871</ele>
<time>2022-09-08T08:13:24.001Z</time>
</trkpt>
<trkpt lat="41.9243690" lon="1.8734550">
<ele>406.085052</ele>
<time>2022-09-08T08:13:25.003Z</time>
</trkpt>
<trkpt lat="41.9243140" lon="1.8734270">
<ele>407.578552</ele>
<time>2022-09-08T08:13:25.997Z</time>
</trkpt>
<trkpt lat="41.9242580" lon="1.8733960">
<ele>409.194000</ele>
<time>2022-09-08T08:13:26.999Z</time>
</trkpt>
<trkpt lat="41.9242040" lon="1.8733650">
<ele>410.931335</ele>
<time>2022-09-08T08:13:28.001Z</time>
</trkpt>
<trkpt lat="41.9241560" lon="1.8733290">
<ele>412.790649</ele>
<time>2022-09-08T08:13:29.004Z</time>
</trkpt>
<trkpt lat="41.9241080" lon="1.8732970">
<ele>414.649933</ele>
<time>2022-09-08T08:13:29.997Z</time>
</trkpt>
<trkpt lat="41.9240560" lon="1.8732760">
<ele>416.295868</ele>
<time>2022-09-08T08:13:30.999Z</time>
</trkpt>
<trkpt lat="41.9240030" lon="1.8732770">
<ele>417.515045</ele>
<time>2022-09-08T08:13:32.002Z</time>
</trkpt>
<trkpt lat="41.9239520" lon="1.8732930">
<ele>418.338013</ele>
<time>2022-09-08T08:13:33.004Z</time>
</trkpt>
<trkpt lat="41.9239210" lon="1.8733180">
<ele>418.398956</ele>
<time>2022-09-08T08:13:33.997Z</time>
</trkpt>
<trkpt lat="41.9238960" lon="1.8733560">
<ele>417.941742</ele>
<time>2022-09-08T08:13:35.000Z</time>
</trkpt>
<trkpt lat="41.9238770" lon="1.8733950">
<ele>417.362640</ele>
<time>2022-09-08T08:13:36.002Z</time>
</trkpt>
<trkpt lat="41.9238570" lon="1.8734300">
<ele>416.905457</ele>
<time>2022-09-08T08:13:37.004Z</time>
</trkpt>
<trkpt lat="41.9238350" lon="1.8734620">
<ele>416.631134</ele>
<time>2022-09-08T08:13:37.998Z</time>
</trkpt>
<trkpt lat="41.9238120" lon="1.8734880">
<ele>416.509186</ele>
<time>2022-09-08T08:13:39.000Z</time>
</trkpt>
<trkpt lat="41.9237920" lon="1.8735250">
<ele>416.021515</ele>
<time>2022-09-08T08:13:40.002Z</time>
</trkpt>
<trkpt lat="41.9237920" lon="1.8735250">
<ele>416.021515</ele>
<time>2022-09-08T08:13:40.996Z</time>
</trkpt>
<trkpt lat="41.9237650" lon="1.8735950">
<ele>414.954742</ele>
<time>2022-09-08T08:13:41.998Z</time>
</trkpt>
<trkpt lat="41.9237520" lon="1.8736340">
<ele>414.192719</ele>
<time>2022-09-08T08:13:43.000Z</time>
</trkpt>
<trkpt lat="41.9237220" lon="1.8736890">
<ele>413.400269</ele>
<time>2022-09-08T08:13:44.003Z</time>
</trkpt>
<trkpt lat="41.9236910" lon="1.8737300">
<ele>412.973541</ele>
<time>2022-09-08T08:13:44.996Z</time>
</trkpt>
<trkpt lat="41.9236610" lon="1.8737570">
<ele>412.912537</ele>
<time>2022-09-08T08:13:45.998Z</time>
</trkpt>
<trkpt lat="41.9236310" lon="1.8737720">
<ele>413.217346</ele>
<time>2022-09-08T08:13:47.001Z</time>
</trkpt>
<trkpt lat="41.9235960" lon="1.8737790">
<ele>413.796478</ele>
<time>2022-09-08T08:13:48.003Z</time>
</trkpt>
<trkpt lat="41.9235530" lon="1.8737840">
<ele>414.649933</ele>
<time>2022-09-08T08:13:48.996Z</time>
</trkpt>
<trkpt lat="41.9235160" lon="1.8737910">
<ele>415.320465</ele>
<time>2022-09-08T08:13:49.999Z</time>
</trkpt>
<trkpt lat="41.9234780" lon="1.8738020">
<ele>415.960541</ele>
<time>2022-09-08T08:13:51.001Z</time>
</trkpt>
<trkpt lat="41.9234390" lon="1.8738160">
<ele>416.509186</ele>
<time>2022-09-08T08:13:52.003Z</time>
</trkpt>
<trkpt lat="41.9233970" lon="1.8738240">
<ele>417.332153</ele>
<time>2022-09-08T08:13:52.997Z</time>
</trkpt>
<trkpt lat="41.9233540" lon="1.8738330">
<ele>418.124664</ele>
<time>2022-09-08T08:13:53.999Z</time>
</trkpt>
<trkpt lat="41.9233120" lon="1.8738380">
<ele>419.039063</ele>
<time>2022-09-08T08:13:55.001Z</time>
</trkpt>
<trkpt lat="41.9232750" lon="1.8738480">
<ele>419.801056</ele>
<time>2022-09-08T08:13:56.004Z</time>
</trkpt>
<trkpt lat="41.9232380" lon="1.8738660">
<ele>420.410645</ele>
<time>2022-09-08T08:13:56.997Z</time>
</trkpt>
<trkpt lat="41.9232080" lon="1.8738990">
<ele>420.623993</ele>
<time>2022-09-08T08:13:57.999Z</time>
</trkpt>
<trkpt lat="41.9231850" lon="1.8739420">
<ele>420.563049</ele>
<time>2022-09-08T08:13:59.002Z</time>
</trkpt>
<trkpt lat="41.9231780" lon="1.8739900">
<ele>419.953461</ele>
<time>2022-09-08T08:14:00.004Z</time>
</trkpt>
<trkpt lat="41.9231810" lon="1.8740390">
<ele>419.282867</ele>
<time>2022-09-08T08:14:00.997Z</time>
</trkpt>
<trkpt lat="41.9231870" lon="1.8740840">
<ele>418.459930</ele>
<time>2022-09-08T08:14:02.000Z</time>
</trkpt>
<trkpt lat="41.9231960" lon="1.8741300">
<ele>417.667450</ele>
<time>2022-09-08T08:14:03.002Z</time>
</trkpt>
<trkpt lat="41.9232040" lon="1.8741800">
<ele>416.813995</ele>
<time>2022-09-08T08:14:04.004Z</time>
</trkpt>
<trkpt lat="41.9232050" lon="1.8742280">
<ele>416.082458</ele>
<time>2022-09-08T08:14:04.998Z</time>
</trkpt>
<trkpt lat="41.9232020" lon="1.8742740">
<ele>415.625275</ele>
<time>2022-09-08T08:14:06.000Z</time>
</trkpt>
<trkpt lat="41.9231910" lon="1.8743210">
<ele>415.350952</ele>
<time>2022-09-08T08:14:07.002Z</time>
</trkpt>
<trkpt lat="41.9231750" lon="1.8743660">
<ele>415.229065</ele>
<time>2022-09-08T08:14:07.996Z</time>
</trkpt>
<trkpt lat="41.9231600" lon="1.8744060">
<ele>415.168060</ele>
<time>2022-09-08T08:14:08.998Z</time>
</trkpt>
<trkpt lat="41.9231400" lon="1.8744390">
<ele>415.290009</ele>
<time>2022-09-08T08:14:10.000Z</time>
</trkpt>
<trkpt lat="41.9231240" lon="1.8744690">
<ele>415.411926</ele>
<time>2022-09-08T08:14:11.003Z</time>
</trkpt>
<trkpt lat="41.9231090" lon="1.8744990">
<ele>415.442413</ele>
<time>2022-09-08T08:14:11.996Z</time>
</trkpt>
<trkpt lat="41.9230900" lon="1.8745300">
<ele>415.411926</ele>
<time>2022-09-08T08:14:12.998Z</time>
</trkpt>
<trkpt lat="41.9230750" lon="1.8745600">
<ele>415.381470</ele>
<time>2022-09-08T08:14:14.001Z</time>
</trkpt>
<trkpt lat="41.9230630" lon="1.8745940">
<ele>415.259521</ele>
<time>2022-09-08T08:14:15.003Z</time>
</trkpt>
<trkpt lat="41.9230500" lon="1.8746260">
<ele>415.046143</ele>
<time>2022-09-08T08:14:15.996Z</time>
</trkpt>
<trkpt lat="41.9230400" lon="1.8746580">
<ele>414.863281</ele>
<time>2022-09-08T08:14:16.999Z</time>
</trkpt>
<trkpt lat="41.9230270" lon="1.8746890">
<ele>414.710876</ele>
<time>2022-09-08T08:14:18.001Z</time>
</trkpt>
<trkpt lat="41.9230160" lon="1.8747220">
<ele>414.528015</ele>
<time>2022-09-08T08:14:19.003Z</time>
</trkpt>
<trkpt lat="41.9230090" lon="1.8747570">
<ele>414.162262</ele>
<time>2022-09-08T08:14:19.997Z</time>
</trkpt>
<trkpt lat="41.9229970" lon="1.8748020">
<ele>413.796478</ele>
<time>2022-09-08T08:14:20.999Z</time>
</trkpt>
<trkpt lat="41.9229890" lon="1.8748440">
<ele>413.339264</ele>
<time>2022-09-08T08:14:22.001Z</time>
</trkpt>
<trkpt lat="41.9229890" lon="1.8748820">
<ele>412.729675</ele>
<time>2022-09-08T08:14:23.004Z</time>
</trkpt>
<trkpt lat="41.9229840" lon="1.8749230">
<ele>412.181061</ele>
<time>2022-09-08T08:14:23.997Z</time>
</trkpt>
<trkpt lat="41.9229770" lon="1.8749640">
<ele>411.754333</ele>
<time>2022-09-08T08:14:24.999Z</time>
</trkpt>
<trkpt lat="41.9229680" lon="1.8749990">
<ele>411.419067</ele>
<time>2022-09-08T08:14:26.002Z</time>
</trkpt>
<trkpt lat="41.9229500" lon="1.8750450">
<ele>411.266663</ele>
<time>2022-09-08T08:14:27.004Z</time>
</trkpt>
<trkpt lat="41.9229310" lon="1.8750830">
<ele>411.236145</ele>
<time>2022-09-08T08:14:27.997Z</time>
</trkpt>
<trkpt lat="41.9229020" lon="1.8751130">
<ele>411.723846</ele>
<time>2022-09-08T08:14:29.000Z</time>
</trkpt>
<trkpt lat="41.9228760" lon="1.8751240">
<ele>412.424866</ele>
<time>2022-09-08T08:14:30.002Z</time>
</trkpt>
<trkpt lat="41.9228400" lon="1.8751300">
<ele>413.369751</ele>
<time>2022-09-08T08:14:31.004Z</time>
</trkpt>
<trkpt lat="41.9228150" lon="1.8751380">
<ele>414.040314</ele>
<time>2022-09-08T08:14:31.998Z</time>
</trkpt>
<trkpt lat="41.9227830" lon="1.8751350">
<ele>414.954742</ele>
<time>2022-09-08T08:14:33.000Z</time>
</trkpt>
<trkpt lat="41.9227430" lon="1.8751270">
<ele>416.082458</ele>
<time>2022-09-08T08:14:34.002Z</time>
</trkpt>
<trkpt lat="41.9226940" lon="1.8751150">
<ele>417.515045</ele>
<time>2022-09-08T08:14:34.996Z</time>
</trkpt>
<trkpt lat="41.9226420" lon="1.8750790">
<ele>419.313354</ele>
<time>2022-09-08T08:14:35.998Z</time>
</trkpt>
<trkpt lat="41.9226040" lon="1.8750460">
<ele>420.654480</ele>
<time>2022-09-08T08:14:37.000Z</time>
</trkpt>
<trkpt lat="41.9225580" lon="1.8750100">
<ele>422.148010</ele>
<time>2022-09-08T08:14:38.003Z</time>
</trkpt>
<trkpt lat="41.9225110" lon="1.8749800">
<ele>423.489136</ele>
<time>2022-09-08T08:14:38.996Z</time>
</trkpt>
<trkpt lat="41.9224630" lon="1.8749670">
<ele>424.586395</ele>
<time>2022-09-08T08:14:39.998Z</time>
</trkpt>
<trkpt lat="41.9224630" lon="1.8749670">
<ele>424.586395</ele>
<time>2022-09-08T08:14:41.001Z</time>
</trkpt>
<trkpt lat="41.9223780" lon="1.8750130">
<ele>425.226471</ele>
<time>2022-09-08T08:14:42.003Z</time>
</trkpt>
<trkpt lat="41.9223590" lon="1.8750580">
<ele>424.830261</ele>
<time>2022-09-08T08:14:42.996Z</time>
</trkpt>
<trkpt lat="41.9223510" lon="1.8751110">
<ele>424.159668</ele>
<time>2022-09-08T08:14:43.999Z</time>
</trkpt>
<trkpt lat="41.9223370" lon="1.8751670">
<ele>423.580536</ele>
<time>2022-09-08T08:14:45.001Z</time>
</trkpt>
<trkpt lat="41.9223130" lon="1.8752220">
<ele>423.153870</ele>
<time>2022-09-08T08:14:46.003Z</time>
</trkpt>
<trkpt lat="41.9222780" lon="1.8752750">
<ele>422.970947</ele>
<time>2022-09-08T08:14:46.997Z</time>
</trkpt>
<trkpt lat="41.9222340" lon="1.8753180">
<ele>423.214813</ele>
<time>2022-09-08T08:14:47.999Z</time>
</trkpt>
<trkpt lat="41.9221850" lon="1.8753580">
<ele>423.641541</ele>
<time>2022-09-08T08:14:49.001Z</time>
</trkpt>
<trkpt lat="41.9221330" lon="1.8754000">
<ele>424.098724</ele>
<time>2022-09-08T08:14:50.004Z</time>
</trkpt>
<trkpt lat="41.9220860" lon="1.8754490">
<ele>424.586395</ele>
<time>2022-09-08T08:14:50.997Z</time>
</trkpt>
<trkpt lat="41.9220560" lon="1.8755030">
<ele>424.891205</ele>
<time>2022-09-08T08:14:51.999Z</time>
</trkpt>
<trkpt lat="41.9220370" lon="1.8755690">
<ele>424.830261</ele>
<time>2022-09-08T08:14:53.002Z</time>
</trkpt>
<trkpt lat="41.9220220" lon="1.8756400">
<ele>424.555939</ele>
<time>2022-09-08T08:14:54.004Z</time>
</trkpt>
<trkpt lat="41.9220210" lon="1.8757130">
<ele>424.098724</ele>
<time>2022-09-08T08:14:54.997Z</time>
</trkpt>
<trkpt lat="41.9220290" lon="1.8757840">
<ele>423.336731</ele>
<time>2022-09-08T08:14:56.000Z</time>
</trkpt>
<trkpt lat="41.9220350" lon="1.8758540">
<ele>422.635681</ele>
<time>2022-09-08T08:14:57.002Z</time>
</trkpt>
<trkpt lat="41.9220460" lon="1.8759220">
<ele>421.812714</ele>
<time>2022-09-08T08:14:58.004Z</time>
</trkpt>
<trkpt lat="41.9220500" lon="1.8759840">
<ele>421.264069</ele>
<time>2022-09-08T08:14:58.998Z</time>
</trkpt>
<trkpt lat="41.9220500" lon="1.8759840">
<ele>421.264069</ele>
<time>2022-09-08T08:15:00.000Z</time>
</trkpt>
<trkpt lat="41.9220530" lon="1.8761000">
<ele>420.349670</ele>
<time>2022-09-08T08:15:01.002Z</time>
</trkpt>
<trkpt lat="41.9220330" lon="1.8761690">
<ele>420.654480</ele>
<time>2022-09-08T08:15:01.996Z</time>
</trkpt>
<trkpt lat="41.9220160" lon="1.8762100">
<ele>420.898315</ele>
<time>2022-09-08T08:15:02.998Z</time>
</trkpt>
<trkpt lat="41.9219980" lon="1.8762560">
<ele>421.233612</ele>
<time>2022-09-08T08:15:04.000Z</time>
</trkpt>
<trkpt lat="41.9219730" lon="1.8763180">
<ele>421.873688</ele>
<time>2022-09-08T08:15:05.003Z</time>
</trkpt>
<trkpt lat="41.9219730" lon="1.8763180">
<ele>421.873688</ele>
<time>2022-09-08T08:15:05.996Z</time>
</trkpt>
<trkpt lat="41.9219010" lon="1.8764140">
<ele>424.403534</ele>
<time>2022-09-08T08:15:06.998Z</time>
</trkpt>
<trkpt lat="41.9218730" lon="1.8764460">
<ele>425.500793</ele>
<time>2022-09-08T08:15:08.001Z</time>
</trkpt>
<trkpt lat="41.9218330" lon="1.8764870">
<ele>426.902863</ele>
<time>2022-09-08T08:15:09.003Z</time>
</trkpt>
<trkpt lat="41.9217850" lon="1.8765390">
<ele>428.701202</ele>
<time>2022-09-08T08:15:09.996Z</time>
</trkpt>
<trkpt lat="41.9217380" lon="1.8765810">
<ele>430.316650</ele>
<time>2022-09-08T08:15:10.999Z</time>
</trkpt>
<trkpt lat="41.9216940" lon="1.8766200">
<ele>431.810150</ele>
<time>2022-09-08T08:15:12.001Z</time>
</trkpt>
<trkpt lat="41.9216550" lon="1.8766450">
<ele>433.242737</ele>
<time>2022-09-08T08:15:13.003Z</time>
</trkpt>
<trkpt lat="41.9216220" lon="1.8766770">
<ele>434.279053</ele>
<time>2022-09-08T08:15:13.997Z</time>
</trkpt>
<trkpt lat="41.9215870" lon="1.8767240">
<ele>435.406799</ele>
<time>2022-09-08T08:15:14.999Z</time>
</trkpt>
<trkpt lat="41.9215630" lon="1.8767720">
<ele>436.199280</ele>
<time>2022-09-08T08:15:16.001Z</time>
</trkpt>
<trkpt lat="41.9215490" lon="1.8768200">
<ele>436.443115</ele>
<time>2022-09-08T08:15:17.004Z</time>
</trkpt>
<trkpt lat="41.9215380" lon="1.8768730">
<ele>436.595520</ele>
<time>2022-09-08T08:15:17.997Z</time>
</trkpt>
<trkpt lat="41.9215410" lon="1.8769430">
<ele>436.107849</ele>
<time>2022-09-08T08:15:18.999Z</time>
</trkpt>
<trkpt lat="41.9215460" lon="1.8770290">
<ele>434.919128</ele>
<time>2022-09-08T08:15:20.002Z</time>
</trkpt>
<trkpt lat="41.9215460" lon="1.8770830">
<ele>434.096130</ele>
<time>2022-09-08T08:15:21.004Z</time>
</trkpt>
<trkpt lat="41.9215340" lon="1.8771270">
<ele>434.096130</ele>
<time>2022-09-08T08:15:21.997Z</time>
</trkpt>
<trkpt lat="41.9215280" lon="1.8771710">
<ele>433.943756</ele>
<time>2022-09-08T08:15:23.000Z</time>
</trkpt>
<trkpt lat="41.9215260" lon="1.8772180">
<ele>433.425598</ele>
<time>2022-09-08T08:15:24.002Z</time>
</trkpt>
<trkpt lat="41.9215070" lon="1.8772730">
<ele>433.486542</ele>
<time>2022-09-08T08:15:25.004Z</time>
</trkpt>
<trkpt lat="41.9214950" lon="1.8773150">
<ele>433.517059</ele>
<time>2022-09-08T08:15:25.998Z</time>
</trkpt>
<trkpt lat="41.9214820" lon="1.8773610">
<ele>433.303680</ele>
<time>2022-09-08T08:15:27.000Z</time>
</trkpt>
<trkpt lat="41.9214670" lon="1.8773890">
<ele>433.456085</ele>
<time>2022-09-08T08:15:28.002Z</time>
</trkpt>
<trkpt lat="41.9214450" lon="1.8774360">
<ele>433.547516</ele>
<time>2022-09-08T08:15:28.996Z</time>
</trkpt>
<trkpt lat="41.9214250" lon="1.8774920">
<ele>433.273193</ele>
<time>2022-09-08T08:15:29.998Z</time>
</trkpt>
<trkpt lat="41.9214010" lon="1.8775290">
<ele>433.425598</ele>
<time>2022-09-08T08:15:31.000Z</time>
</trkpt>
<trkpt lat="41.9213690" lon="1.8775600">
<ele>433.974243</ele>
<time>2022-09-08T08:15:32.003Z</time>
</trkpt>
<trkpt lat="41.9213420" lon="1.8775850">
<ele>434.339996</ele>
<time>2022-09-08T08:15:32.996Z</time>
</trkpt>
<trkpt lat="41.9213030" lon="1.8776220">
<ele>434.736267</ele>
<time>2022-09-08T08:15:33.998Z</time>
</trkpt>
<trkpt lat="41.9212590" lon="1.8776670">
<ele>434.888641</ele>
<time>2022-09-08T08:15:35.001Z</time>
</trkpt>
<trkpt lat="41.9212350" lon="1.8777080">
<ele>434.766724</ele>
<time>2022-09-08T08:15:36.003Z</time>
</trkpt>
<trkpt lat="41.9212210" lon="1.8777460">
<ele>434.218079</ele>
<time>2022-09-08T08:15:36.996Z</time>
</trkpt>
<trkpt lat="41.9212030" lon="1.8777870">
<ele>433.699921</ele>
<time>2022-09-08T08:15:37.999Z</time>
</trkpt>
<trkpt lat="41.9211840" lon="1.8778260">
<ele>433.151276</ele>
<time>2022-09-08T08:15:39.001Z</time>
</trkpt>
<trkpt lat="41.9211560" lon="1.8778790">
<ele>432.175934</ele>
<time>2022-09-08T08:15:40.003Z</time>
</trkpt>
<trkpt lat="41.9211220" lon="1.8779190">
<ele>431.627258</ele>
<time>2022-09-08T08:15:40.997Z</time>
</trkpt>
<trkpt lat="41.9210780" lon="1.8779500">
<ele>431.627258</ele>
<time>2022-09-08T08:15:41.999Z</time>
</trkpt>
<trkpt lat="41.9210240" lon="1.8779890">
<ele>431.200531</ele>
<time>2022-09-08T08:15:43.001Z</time>
</trkpt>
<trkpt lat="41.9210240" lon="1.8779890">
<ele>431.200531</ele>
<time>2022-09-08T08:15:44.004Z</time>
</trkpt>
<trkpt lat="41.9209280" lon="1.8780640">
<ele>429.524139</ele>
<time>2022-09-08T08:15:44.997Z</time>
</trkpt>
<trkpt lat="41.9208810" lon="1.8780940">
<ele>428.548798</ele>
<time>2022-09-08T08:15:45.999Z</time>
</trkpt>
<trkpt lat="41.9208300" lon="1.8781200">
<ele>427.481995</ele>
<time>2022-09-08T08:15:47.002Z</time>
</trkpt>
<trkpt lat="41.9207820" lon="1.8781390">
<ele>426.476135</ele>
<time>2022-09-08T08:15:48.004Z</time>
</trkpt>
<trkpt lat="41.9207310" lon="1.8781500">
<ele>425.561737</ele>
<time>2022-09-08T08:15:48.997Z</time>
</trkpt>
<trkpt lat="41.9206780" lon="1.8781470">
<ele>424.921661</ele>
<time>2022-09-08T08:15:50.000Z</time>
</trkpt>
<trkpt lat="41.9206220" lon="1.8781460">
<ele>424.129211</ele>
<time>2022-09-08T08:15:51.002Z</time>
</trkpt>
<trkpt lat="41.9205750" lon="1.8781350">
<ele>423.641541</ele>
<time>2022-09-08T08:15:52.004Z</time>
</trkpt>
<trkpt lat="41.9205280" lon="1.8781220">
<ele>423.275757</ele>
<time>2022-09-08T08:15:52.998Z</time>
</trkpt>
<trkpt lat="41.9204820" lon="1.8781030">
<ele>423.062408</ele>
<time>2022-09-08T08:15:54.000Z</time>
</trkpt>
<trkpt lat="41.9204340" lon="1.8780770">
<ele>423.001465</ele>
<time>2022-09-08T08:15:55.002Z</time>
</trkpt>
<trkpt lat="41.9203910" lon="1.8780440">
<ele>423.732941</ele>
<time>2022-09-08T08:15:55.996Z</time>
</trkpt>
<trkpt lat="41.9203520" lon="1.8780070">
<ele>424.799744</ele>
<time>2022-09-08T08:15:56.998Z</time>
</trkpt>
<trkpt lat="41.9203130" lon="1.8779710">
<ele>425.866547</ele>
<time>2022-09-08T08:15:58.000Z</time>
</trkpt>
<trkpt lat="41.9202690" lon="1.8779430">
<ele>426.598083</ele>
<time>2022-09-08T08:15:59.003Z</time>
</trkpt>
<trkpt lat="41.9202190" lon="1.8779290">
<ele>426.811462</ele>
<time>2022-09-08T08:15:59.996Z</time>
</trkpt>
<trkpt lat="41.9201630" lon="1.8779270">
<ele>426.537140</ele>
<time>2022-09-08T08:16:00.998Z</time>
</trkpt>
<trkpt lat="41.9201020" lon="1.8779260">
<ele>426.140869</ele>
<time>2022-09-08T08:16:02.001Z</time>
</trkpt>
<trkpt lat="41.9200400" lon="1.8779240">
<ele>425.683685</ele>
<time>2022-09-08T08:16:03.003Z</time>
</trkpt>
<trkpt lat="41.9199790" lon="1.8779190">
<ele>425.256958</ele>
<time>2022-09-08T08:16:03.996Z</time>
</trkpt>
<trkpt lat="41.9199790" lon="1.8779190">
<ele>425.256958</ele>
<time>2022-09-08T08:16:04.999Z</time>
</trkpt>
<trkpt lat="41.9198610" lon="1.8779200">
<ele>423.824402</ele>
<time>2022-09-08T08:16:06.001Z</time>
</trkpt>
<trkpt lat="41.9198020" lon="1.8779280">
<ele>422.757599</ele>
<time>2022-09-08T08:16:07.003Z</time>
</trkpt>
<trkpt lat="41.9197470" lon="1.8779360">
<ele>421.599335</ele>
<time>2022-09-08T08:16:07.997Z</time>
</trkpt>
<trkpt lat="41.9196920" lon="1.8779400">
<ele>420.563049</ele>
<time>2022-09-08T08:16:08.999Z</time>
</trkpt>
<trkpt lat="41.9196350" lon="1.8779310">
<ele>419.740082</ele>
<time>2022-09-08T08:16:10.001Z</time>
</trkpt>
<trkpt lat="41.9195810" lon="1.8779210">
<ele>418.886658</ele>
<time>2022-09-08T08:16:11.004Z</time>
</trkpt>
<trkpt lat="41.9195240" lon="1.8779160">
<ele>417.941742</ele>
<time>2022-09-08T08:16:11.997Z</time>
</trkpt>
<trkpt lat="41.9194650" lon="1.8779120">
<ele>416.874939</ele>
<time>2022-09-08T08:16:12.999Z</time>
</trkpt>
<trkpt lat="41.9194140" lon="1.8779110">
<ele>415.899597</ele>
<time>2022-09-08T08:16:14.002Z</time>
</trkpt>
<trkpt lat="41.9193660" lon="1.8779130">
<ele>414.832794</ele>
<time>2022-09-08T08:16:15.004Z</time>
</trkpt>
<trkpt lat="41.9193200" lon="1.8779110">
<ele>413.918396</ele>
<time>2022-09-08T08:16:15.997Z</time>
</trkpt>
<trkpt lat="41.9192830" lon="1.8779050">
<ele>413.339264</ele>
<time>2022-09-08T08:16:17.000Z</time>
</trkpt>
<trkpt lat="41.9192290" lon="1.8778960">
<ele>412.302948</ele>
<time>2022-09-08T08:16:18.002Z</time>
</trkpt>
<trkpt lat="41.9191800" lon="1.8778850">
<ele>411.540955</ele>
<time>2022-09-08T08:16:19.004Z</time>
</trkpt>
<trkpt lat="41.9191300" lon="1.8778650">
<ele>410.748474</ele>
<time>2022-09-08T08:16:19.998Z</time>
</trkpt>
<trkpt lat="41.9190830" lon="1.8778230">
<ele>410.596069</ele>
<time>2022-09-08T08:16:21.000Z</time>
</trkpt>
<trkpt lat="41.9190510" lon="1.8777620">
<ele>411.205658</ele>
<time>2022-09-08T08:16:22.002Z</time>
</trkpt>
<trkpt lat="41.9190330" lon="1.8777050">
<ele>411.967682</ele>
<time>2022-09-08T08:16:22.996Z</time>
</trkpt>
<trkpt lat="41.9190180" lon="1.8776500">
<ele>412.760132</ele>
<time>2022-09-08T08:16:23.998Z</time>
</trkpt>
<trkpt lat="41.9190060" lon="1.8775990">
<ele>413.552643</ele>
<time>2022-09-08T08:16:25.000Z</time>
</trkpt>
<trkpt lat="41.9189950" lon="1.8775490">
<ele>414.284149</ele>
<time>2022-09-08T08:16:26.003Z</time>
</trkpt>
<trkpt lat="41.9189880" lon="1.8775130">
<ele>414.802338</ele>
<time>2022-09-08T08:16:26.996Z</time>
</trkpt>
<trkpt lat="41.9189720" lon="1.8774630">
<ele>415.350952</ele>
<time>2022-09-08T08:16:27.998Z</time>
</trkpt>
<trkpt lat="41.9189590" lon="1.8774340">
<ele>415.564331</ele>
<time>2022-09-08T08:16:29.001Z</time>
</trkpt>
<trkpt lat="41.9189370" lon="1.8773950">
<ele>415.594788</ele>
<time>2022-09-08T08:16:30.003Z</time>
</trkpt>
<trkpt lat="41.9189110" lon="1.8773650">
<ele>415.290009</ele>
<time>2022-09-08T08:16:30.996Z</time>
</trkpt>
<trkpt lat="41.9188840" lon="1.8773370">
<ele>414.924255</ele>
<time>2022-09-08T08:16:31.999Z</time>
</trkpt>
<trkpt lat="41.9188560" lon="1.8773120">
<ele>414.467041</ele>
<time>2022-09-08T08:16:33.001Z</time>
</trkpt>
<trkpt lat="41.9188120" lon="1.8772700">
<ele>413.583130</ele>
<time>2022-09-08T08:16:34.003Z</time>
</trkpt>
<trkpt lat="41.9187490" lon="1.8772100">
<ele>412.333466</ele>
<time>2022-09-08T08:16:34.997Z</time>
</trkpt>
<trkpt lat="41.9186950" lon="1.8771480">
<ele>410.931335</ele>
<time>2022-09-08T08:16:35.999Z</time>
</trkpt>
<trkpt lat="41.9186490" lon="1.8770790">
<ele>410.016937</ele>
<time>2022-09-08T08:16:37.001Z</time>
</trkpt>
<trkpt lat="41.9186110" lon="1.8770080">
<ele>409.315918</ele>
<time>2022-09-08T08:16:38.004Z</time>
</trkpt>
<trkpt lat="41.9185770" lon="1.8769360">
<ele>408.553925</ele>
<time>2022-09-08T08:16:38.997Z</time>
</trkpt>
<trkpt lat="41.9185380" lon="1.8768600">
<ele>407.487122</ele>
<time>2022-09-08T08:16:39.999Z</time>
</trkpt>
<trkpt lat="41.9184920" lon="1.8767930">
<ele>406.024078</ele>
<time>2022-09-08T08:16:41.002Z</time>
</trkpt>
<trkpt lat="41.9184370" lon="1.8767300">
<ele>404.225739</ele>
<time>2022-09-08T08:16:42.004Z</time>
</trkpt>
<trkpt lat="41.9183770" lon="1.8766790">
<ele>402.183594</ele>
<time>2022-09-08T08:16:42.997Z</time>
</trkpt>
<trkpt lat="41.9183080" lon="1.8766340">
<ele>399.989044</ele>
<time>2022-09-08T08:16:44.000Z</time>
</trkpt>
<trkpt lat="41.9182350" lon="1.8765780">
<ele>397.885925</ele>
<time>2022-09-08T08:16:45.002Z</time>
</trkpt>
<trkpt lat="41.9181720" lon="1.8765050">
<ele>396.239990</ele>
<time>2022-09-08T08:16:46.004Z</time>
</trkpt>
<trkpt lat="41.9181240" lon="1.8764250">
<ele>395.356079</ele>
<time>2022-09-08T08:16:46.998Z</time>
</trkpt>
<trkpt lat="41.9181020" lon="1.8763370">
<ele>395.295135</ele>
<time>2022-09-08T08:16:48.000Z</time>
</trkpt>
<trkpt lat="41.9181050" lon="1.8762500">
<ele>396.026642</ele>
<time>2022-09-08T08:16:49.002Z</time>
</trkpt>
<trkpt lat="41.9181260" lon="1.8761720">
<ele>397.276337</ele>
<time>2022-09-08T08:16:49.996Z</time>
</trkpt>
<trkpt lat="41.9181610" lon="1.8760940">
<ele>398.983185</ele>
<time>2022-09-08T08:16:50.998Z</time>
</trkpt>
<trkpt lat="41.9181950" lon="1.8760110">
<ele>400.812012</ele>
<time>2022-09-08T08:16:52.000Z</time>
</trkpt>
<trkpt lat="41.9182210" lon="1.8759230">
<ele>402.549347</ele>
<time>2022-09-08T08:16:53.003Z</time>
</trkpt>
<trkpt lat="41.9182280" lon="1.8758330">
<ele>403.829529</ele>
<time>2022-09-08T08:16:53.996Z</time>
</trkpt>
<trkpt lat="41.9182240" lon="1.8757540">
<ele>404.682953</ele>
<time>2022-09-08T08:16:54.998Z</time>
</trkpt>
<trkpt lat="41.9182160" lon="1.8756900">
<ele>405.231598</ele>
<time>2022-09-08T08:16:56.001Z</time>
</trkpt>
<trkpt lat="41.9182020" lon="1.8756360">
<ele>405.475464</ele>
<time>2022-09-08T08:16:57.003Z</time>
</trkpt>
<trkpt lat="41.9181780" lon="1.8755930">
<ele>405.353516</ele>
<time>2022-09-08T08:16:57.996Z</time>
</trkpt>
<trkpt lat="41.9181440" lon="1.8755520">
<ele>404.926788</ele>
<time>2022-09-08T08:16:58.999Z</time>
</trkpt>
<trkpt lat="41.9181050" lon="1.8755080">
<ele>404.469604</ele>
<time>2022-09-08T08:17:00.001Z</time>
</trkpt>
<trkpt lat="41.9180600" lon="1.8754570">
<ele>403.859985</ele>
<time>2022-09-08T08:17:01.003Z</time>
</trkpt>
<trkpt lat="41.9180100" lon="1.8754080">
<ele>403.189453</ele>
<time>2022-09-08T08:17:01.997Z</time>
</trkpt>
<trkpt lat="41.9179570" lon="1.8753710">
<ele>402.396942</ele>
<time>2022-09-08T08:17:02.999Z</time>
</trkpt>
<trkpt lat="41.9179040" lon="1.8753390">
<ele>401.452087</ele>
<time>2022-09-08T08:17:04.001Z</time>
</trkpt>
<trkpt lat="41.9178500" lon="1.8753110">
<ele>400.110931</ele>
<time>2022-09-08T08:17:05.004Z</time>
</trkpt>
<trkpt lat="41.9177960" lon="1.8752800">
<ele>398.861267</ele>
<time>2022-09-08T08:17:05.997Z</time>
</trkpt>
<trkpt lat="41.9177480" lon="1.8752400">
<ele>397.885925</ele>
<time>2022-09-08T08:17:06.999Z</time>
</trkpt>
<trkpt lat="41.9177090" lon="1.8751890">
<ele>397.337280</ele>
<time>2022-09-08T08:17:08.002Z</time>
</trkpt>
<trkpt lat="41.9176870" lon="1.8751420">
<ele>397.093445</ele>
<time>2022-09-08T08:17:09.004Z</time>
</trkpt>
<trkpt lat="41.9176850" lon="1.8751000">
<ele>397.306793</ele>
<time>2022-09-08T08:17:09.997Z</time>
</trkpt>
<trkpt lat="41.9177030" lon="1.8750540">
<ele>397.855469</ele>
<time>2022-09-08T08:17:11.000Z</time>
</trkpt>
<trkpt lat="41.9177320" lon="1.8749990">
<ele>398.769867</ele>
<time>2022-09-08T08:17:12.002Z</time>
</trkpt>
<trkpt lat="41.9177580" lon="1.8749540">
<ele>399.562317</ele>
<time>2022-09-08T08:17:13.004Z</time>
</trkpt>
<trkpt lat="41.9177930" lon="1.8748940">
<ele>400.598663</ele>
<time>2022-09-08T08:17:13.998Z</time>
</trkpt>
<trkpt lat="41.9178330" lon="1.8748180">
<ele>401.726410</ele>
<time>2022-09-08T08:17:15.000Z</time>
</trkpt>
<trkpt lat="41.9178470" lon="1.8747440">
<ele>402.183594</ele>
<time>2022-09-08T08:17:16.002Z</time>
</trkpt>
<trkpt lat="41.9178350" lon="1.8746780">
<ele>401.878815</ele>
<time>2022-09-08T08:17:16.996Z</time>
</trkpt>
<trkpt lat="41.9178090" lon="1.8746330">
<ele>401.147278</ele>
<time>2022-09-08T08:17:17.998Z</time>
</trkpt>
<trkpt lat="41.9177640" lon="1.8745800">
<ele>400.080475</ele>
<time>2022-09-08T08:17:19.000Z</time>
</trkpt>
<trkpt lat="41.9177180" lon="1.8745250">
<ele>399.257538</ele>
<time>2022-09-08T08:17:20.003Z</time>
</trkpt>
<trkpt lat="41.9176590" lon="1.8744550">
<ele>398.434540</ele>
<time>2022-09-08T08:17:20.996Z</time>
</trkpt>
<trkpt lat="41.9176100" lon="1.8744050">
<ele>397.885925</ele>
<time>2022-09-08T08:17:21.998Z</time>
</trkpt>
<trkpt lat="41.9175590" lon="1.8743600">
<ele>397.520142</ele>
<time>2022-09-08T08:17:23.001Z</time>
</trkpt>
<trkpt lat="41.9175190" lon="1.8743240">
<ele>397.367737</ele>
<time>2022-09-08T08:17:24.003Z</time>
</trkpt>
<trkpt lat="41.9174700" lon="1.8742730">
<ele>397.398254</ele>
<time>2022-09-08T08:17:24.996Z</time>
</trkpt>
<trkpt lat="41.9174300" lon="1.8742070">
<ele>397.703064</ele>
<time>2022-09-08T08:17:25.999Z</time>
</trkpt>
<trkpt lat="41.9174170" lon="1.8741540">
<ele>398.007843</ele>
<time>2022-09-08T08:17:27.001Z</time>
</trkpt>
<trkpt lat="41.9174040" lon="1.8741080">
<ele>398.282135</ele>
<time>2022-09-08T08:17:28.003Z</time>
</trkpt>
<trkpt lat="41.9173910" lon="1.8740770">
<ele>398.495514</ele>
<time>2022-09-08T08:17:28.997Z</time>
</trkpt>
<trkpt lat="41.9173820" lon="1.8740430">
<ele>398.769867</ele>
<time>2022-09-08T08:17:29.999Z</time>
</trkpt>
<trkpt lat="41.9173860" lon="1.8739970">
<ele>398.983185</ele>
<time>2022-09-08T08:17:31.001Z</time>
</trkpt>
<trkpt lat="41.9174000" lon="1.8739500">
<ele>399.074646</ele>
<time>2022-09-08T08:17:32.004Z</time>
</trkpt>
<trkpt lat="41.9174120" lon="1.8739040">
<ele>399.227051</ele>
<time>2022-09-08T08:17:32.997Z</time>
</trkpt>
<trkpt lat="41.9174230" lon="1.8738560">
<ele>399.379456</ele>
<time>2022-09-08T08:17:33.999Z</time>
</trkpt>
<trkpt lat="41.9174410" lon="1.8738060">
<ele>399.470886</ele>
<time>2022-09-08T08:17:35.002Z</time>
</trkpt>
<trkpt lat="41.9174700" lon="1.8737510">
<ele>399.531860</ele>
<time>2022-09-08T08:17:36.004Z</time>
</trkpt>
<trkpt lat="41.9174980" lon="1.8736980">
<ele>399.531860</ele>
<time>2022-09-08T08:17:36.997Z</time>
</trkpt>
<trkpt lat="41.9175320" lon="1.8736480">
<ele>399.470886</ele>
<time>2022-09-08T08:17:38.000Z</time>
</trkpt>
<trkpt lat="41.9175730" lon="1.8735890">
<ele>399.440399</ele>
<time>2022-09-08T08:17:39.002Z</time>
</trkpt>
<trkpt lat="41.9176090" lon="1.8735400">
<ele>399.409943</ele>
<time>2022-09-08T08:17:40.004Z</time>
</trkpt>
<trkpt lat="41.9176610" lon="1.8734790">
<ele>399.470886</ele>
<time>2022-09-08T08:17:40.998Z</time>
</trkpt>
<trkpt lat="41.9177010" lon="1.8733920">
<ele>399.684265</ele>
<time>2022-09-08T08:17:42.000Z</time>
</trkpt>
<trkpt lat="41.9177080" lon="1.8733090">
<ele>399.989044</ele>
<time>2022-09-08T08:17:43.002Z</time>
</trkpt>
<trkpt lat="41.9177100" lon="1.8732410">
<ele>400.293854</ele>
<time>2022-09-08T08:17:43.996Z</time>
</trkpt>
<trkpt lat="41.9177080" lon="1.8731550">
<ele>400.781525</ele>
<time>2022-09-08T08:17:44.998Z</time>
</trkpt>
<trkpt lat="41.9177060" lon="1.8730640">
<ele>401.391113</ele>
<time>2022-09-08T08:17:46.000Z</time>
</trkpt>
<trkpt lat="41.9177220" lon="1.8729680">
<ele>402.092133</ele>
<time>2022-09-08T08:17:47.003Z</time>
</trkpt>
<trkpt lat="41.9177550" lon="1.8728700">
<ele>402.671265</ele>
<time>2022-09-08T08:17:47.996Z</time>
</trkpt>
<trkpt lat="41.9177950" lon="1.8727840">
<ele>403.067535</ele>
<time>2022-09-08T08:17:48.998Z</time>
</trkpt>
<trkpt lat="41.9178330" lon="1.8727180">
<ele>403.280884</ele>
<time>2022-09-08T08:17:50.001Z</time>
</trkpt>
<trkpt lat="41.9178850" lon="1.8726410">
<ele>403.494263</ele>
<time>2022-09-08T08:17:51.003Z</time>
</trkpt>
<trkpt lat="41.9179490" lon="1.8725690">
<ele>403.494263</ele>
<time>2022-09-08T08:17:51.996Z</time>
</trkpt>
<trkpt lat="41.9179780" lon="1.8725250">
<ele>403.585663</ele>
<time>2022-09-08T08:17:52.999Z</time>
</trkpt>
<trkpt lat="41.9179990" lon="1.8724790">
<ele>403.738068</ele>
<time>2022-09-08T08:17:54.001Z</time>
</trkpt>
<trkpt lat="41.9179950" lon="1.8724300">
<ele>404.134338</ele>
<time>2022-09-08T08:17:55.003Z</time>
</trkpt>
<trkpt lat="41.9179600" lon="1.8723850">
<ele>404.743927</ele>
<time>2022-09-08T08:17:55.997Z</time>
</trkpt>
<trkpt lat="41.9179010" lon="1.8723480">
<ele>405.597351</ele>
<time>2022-09-08T08:17:56.999Z</time>
</trkpt>
<trkpt lat="41.9178520" lon="1.8723110">
<ele>406.328857</ele>
<time>2022-09-08T08:17:58.001Z</time>
</trkpt>
<trkpt lat="41.9178050" lon="1.8722670">
<ele>407.273743</ele>
<time>2022-09-08T08:17:59.004Z</time>
</trkpt>
<trkpt lat="41.9177670" lon="1.8722260">
<ele>408.249115</ele>
<time>2022-09-08T08:17:59.997Z</time>
</trkpt>
<trkpt lat="41.9177360" lon="1.8721770">
<ele>409.346405</ele>
<time>2022-09-08T08:18:00.999Z</time>
</trkpt>
<trkpt lat="41.9177170" lon="1.8721180">
<ele>410.443665</ele>
<time>2022-09-08T08:18:02.002Z</time>
</trkpt>
<trkpt lat="41.9177160" lon="1.8720400">
<ele>411.449524</ele>
<time>2022-09-08T08:18:03.004Z</time>
</trkpt>
<trkpt lat="41.9177130" lon="1.8719730">
<ele>412.363922</ele>
<time>2022-09-08T08:18:03.997Z</time>
</trkpt>
<trkpt lat="41.9176960" lon="1.8719280">
<ele>413.278320</ele>
<time>2022-09-08T08:18:05.000Z</time>
</trkpt>
<trkpt lat="41.9176540" lon="1.8718810">
<ele>415.076660</ele>
<time>2022-09-08T08:18:06.002Z</time>
</trkpt>
<trkpt lat="41.9176040" lon="1.8718600">
<ele>416.844482</ele>
<time>2022-09-08T08:18:07.004Z</time>
</trkpt>
<trkpt lat="41.9175530" lon="1.8718750">
<ele>418.246552</ele>
<time>2022-09-08T08:18:07.998Z</time>
</trkpt>
<trkpt lat="41.9175180" lon="1.8719160">
<ele>418.764740</ele>
<time>2022-09-08T08:18:09.000Z</time>
</trkpt>
<trkpt lat="41.9174950" lon="1.8719640">
<ele>418.764740</ele>
<time>2022-09-08T08:18:10.002Z</time>
</trkpt>
<trkpt lat="41.9174730" lon="1.8720150">
<ele>418.612335</ele>
<time>2022-09-08T08:18:10.996Z</time>
</trkpt>
<trkpt lat="41.9174550" lon="1.8720750">
<ele>418.094147</ele>
<time>2022-09-08T08:18:11.998Z</time>
</trkpt>
<trkpt lat="41.9174420" lon="1.8721240">
<ele>417.515045</ele>
<time>2022-09-08T08:18:13.000Z</time>
</trkpt>
<trkpt lat="41.9174290" lon="1.8721700">
<ele>416.966400</ele>
<time>2022-09-08T08:18:14.003Z</time>
</trkpt>
<trkpt lat="41.9174150" lon="1.8722130">
<ele>416.600647</ele>
<time>2022-09-08T08:18:14.996Z</time>
</trkpt>
<trkpt lat="41.9173990" lon="1.8722750">
<ele>415.869141</ele>
<time>2022-09-08T08:18:15.998Z</time>
</trkpt>
<trkpt lat="41.9173910" lon="1.8723410">
<ele>414.863281</ele>
<time>2022-09-08T08:18:17.001Z</time>
</trkpt>
<trkpt lat="41.9173760" lon="1.8724160">
<ele>413.918396</ele>
<time>2022-09-08T08:18:18.003Z</time>
</trkpt>
<trkpt lat="41.9173530" lon="1.8724750">
<ele>413.461212</ele>
<time>2022-09-08T08:18:18.996Z</time>
</trkpt>
<trkpt lat="41.9173220" lon="1.8725340">
<ele>413.247864</ele>
<time>2022-09-08T08:18:19.999Z</time>
</trkpt>
<trkpt lat="41.9173010" lon="1.8725880">
<ele>412.790649</ele>
<time>2022-09-08T08:18:21.001Z</time>
</trkpt>
<trkpt lat="41.9172670" lon="1.8726420">
<ele>412.668732</ele>
<time>2022-09-08T08:18:22.003Z</time>
</trkpt>
<trkpt lat="41.9172210" lon="1.8726940">
<ele>412.912537</ele>
<time>2022-09-08T08:18:22.997Z</time>
</trkpt>
<trkpt lat="41.9171880" lon="1.8727210">
<ele>413.308807</ele>
<time>2022-09-08T08:18:23.999Z</time>
</trkpt>
<trkpt lat="41.9171420" lon="1.8727550">
<ele>413.918396</ele>
<time>2022-09-08T08:18:25.001Z</time>
</trkpt>
<trkpt lat="41.9171100" lon="1.8727750">
<ele>414.406067</ele>
<time>2022-09-08T08:18:26.004Z</time>
</trkpt>
<trkpt lat="41.9170860" lon="1.8727890">
<ele>414.832794</ele>
<time>2022-09-08T08:18:26.997Z</time>
</trkpt>
<trkpt lat="41.9170560" lon="1.8727850">
<ele>415.625275</ele>
<time>2022-09-08T08:18:27.999Z</time>
</trkpt>
<trkpt lat="41.9170370" lon="1.8727730">
<ele>416.265350</ele>
<time>2022-09-08T08:18:29.002Z</time>
</trkpt>
<trkpt lat="41.9170340" lon="1.8727500">
<ele>416.722534</ele>
<time>2022-09-08T08:18:30.004Z</time>
</trkpt>
<trkpt lat="41.9170450" lon="1.8727350">
<ele>416.722534</ele>
<time>2022-09-08T08:18:30.997Z</time>
</trkpt>
<trkpt lat="41.9170580" lon="1.8727200">
<ele>416.722534</ele>
<time>2022-09-08T08:18:32.000Z</time>
</trkpt>
<trkpt lat="41.9170800" lon="1.8727020">
<ele>416.478729</ele>
<time>2022-09-08T08:18:33.002Z</time>
</trkpt>
<trkpt lat="41.9170940" lon="1.8726880">
<ele>416.326324</ele>
<time>2022-09-08T08:18:34.004Z</time>
</trkpt>
<trkpt lat="41.9171110" lon="1.8726670">
<ele>416.265350</ele>
<time>2022-09-08T08:18:34.998Z</time>
</trkpt>
<trkpt lat="41.9171110" lon="1.8726490">
<ele>416.600647</ele>
<time>2022-09-08T08:18:36.000Z</time>
</trkpt>
<trkpt lat="41.9170980" lon="1.8726360">
<ele>417.149261</ele>
<time>2022-09-08T08:18:37.002Z</time>
</trkpt>
<trkpt lat="41.9170820" lon="1.8726300">
<ele>417.697937</ele>
<time>2022-09-08T08:18:37.996Z</time>
</trkpt>
<trkpt lat="41.9170650" lon="1.8726270">
<ele>418.216064</ele>
<time>2022-09-08T08:18:38.998Z</time>
</trkpt>
<trkpt lat="41.9170410" lon="1.8726310">
<ele>418.673279</ele>
<time>2022-09-08T08:18:40.000Z</time>
</trkpt>
<trkpt lat="41.9170250" lon="1.8726310">
<ele>419.008545</ele>
<time>2022-09-08T08:18:41.003Z</time>
</trkpt>
<trkpt lat="41.9170060" lon="1.8726240">
<ele>419.587677</ele>
<time>2022-09-08T08:18:41.996Z</time>
</trkpt>
<trkpt lat="41.9169830" lon="1.8726090">
<ele>420.380157</ele>
<time>2022-09-08T08:18:42.998Z</time>
</trkpt>
<trkpt lat="41.9169630" lon="1.8725910">
<ele>421.233612</ele>
<time>2022-09-08T08:18:44.001Z</time>
</trkpt>
<trkpt lat="41.9169360" lon="1.8725660">
<ele>422.300415</ele>
<time>2022-09-08T08:18:45.003Z</time>
</trkpt>
<trkpt lat="41.9169210" lon="1.8725510">
<ele>422.910004</ele>
<time>2022-09-08T08:18:45.996Z</time>
</trkpt>
<trkpt lat="41.9169050" lon="1.8725320">
<ele>423.580536</ele>
<time>2022-09-08T08:18:46.999Z</time>
</trkpt>
<trkpt lat="41.9168910" lon="1.8725140">
<ele>424.251129</ele>
<time>2022-09-08T08:18:48.001Z</time>
</trkpt>
<trkpt lat="41.9168820" lon="1.8724910">
<ele>424.860718</ele>
<time>2022-09-08T08:18:49.003Z</time>
</trkpt>
<trkpt lat="41.9168730" lon="1.8724740">
<ele>425.348389</ele>
<time>2022-09-08T08:18:49.997Z</time>
</trkpt>
<trkpt lat="41.9168590" lon="1.8724550">
<ele>426.049469</ele>
<time>2022-09-08T08:18:50.999Z</time>
</trkpt>
<trkpt lat="41.9168470" lon="1.8724360">
<ele>426.628540</ele>
<time>2022-09-08T08:18:52.001Z</time>
</trkpt>
<trkpt lat="41.9168290" lon="1.8724110">
<ele>427.512482</ele>
<time>2022-09-08T08:18:53.004Z</time>
</trkpt>
<trkpt lat="41.9168150" lon="1.8723890">
<ele>428.183044</ele>
<time>2022-09-08T08:18:53.997Z</time>
</trkpt>
<trkpt lat="41.9167980" lon="1.8723700">
<ele>428.914551</ele>
<time>2022-09-08T08:18:54.999Z</time>
</trkpt>
<trkpt lat="41.9167820" lon="1.8723520">
<ele>429.554657</ele>
<time>2022-09-08T08:18:56.002Z</time>
</trkpt>
<trkpt lat="41.9167630" lon="1.8723340">
<ele>430.255676</ele>
<time>2022-09-08T08:18:57.004Z</time>
</trkpt>
<trkpt lat="41.9167500" lon="1.8723160">
<ele>430.804321</ele>
<time>2022-09-08T08:18:57.997Z</time>
</trkpt>
<trkpt lat="41.9167380" lon="1.8722970">
<ele>431.444397</ele>
<time>2022-09-08T08:18:59.000Z</time>
</trkpt>
<trkpt lat="41.9167260" lon="1.8722790">
<ele>432.023529</ele>
<time>2022-09-08T08:19:00.002Z</time>
</trkpt>
<trkpt lat="41.9167100" lon="1.8722600">
<ele>432.663605</ele>
<time>2022-09-08T08:19:01.004Z</time>
</trkpt>
<trkpt lat="41.9166950" lon="1.8722470">
<ele>433.181732</ele>
<time>2022-09-08T08:19:01.998Z</time>
</trkpt>
<trkpt lat="41.9166790" lon="1.8722260">
<ele>433.852325</ele>
<time>2022-09-08T08:19:03.000Z</time>
</trkpt>
<trkpt lat="41.9166700" lon="1.8722140">
<ele>434.218079</ele>
<time>2022-09-08T08:19:04.002Z</time>
</trkpt>
<trkpt lat="41.9166620" lon="1.8722000">
<ele>434.675262</ele>
<time>2022-09-08T08:19:04.996Z</time>
</trkpt>
<trkpt lat="41.9166490" lon="1.8721800">
<ele>435.284882</ele>
<time>2022-09-08T08:19:05.998Z</time>
</trkpt>
<trkpt lat="41.9166300" lon="1.8721620">
<ele>435.955444</ele>
<time>2022-09-08T08:19:07.000Z</time>
</trkpt>
<trkpt lat="41.9166170" lon="1.8721490">
<ele>436.382141</ele>
<time>2022-09-08T08:19:08.003Z</time>
</trkpt>
<trkpt lat="41.9166060" lon="1.8721350">
<ele>436.839355</ele>
<time>2022-09-08T08:19:08.996Z</time>
</trkpt>
<trkpt lat="41.9165880" lon="1.8721090">
<ele>437.692810</ele>
<time>2022-09-08T08:19:09.998Z</time>
</trkpt>
<trkpt lat="41.9165670" lon="1.8720850">
<ele>438.485260</ele>
<time>2022-09-08T08:19:11.001Z</time>
</trkpt>
<trkpt lat="41.9165540" lon="1.8720680">
<ele>439.064392</ele>
<time>2022-09-08T08:19:12.003Z</time>
</trkpt>
<trkpt lat="41.9165440" lon="1.8720540">
<ele>439.491119</ele>
<time>2022-09-08T08:19:12.996Z</time>
</trkpt>
<trkpt lat="41.9165310" lon="1.8720360">
<ele>440.070251</ele>
<time>2022-09-08T08:19:13.999Z</time>
</trkpt>
<trkpt lat="41.9165200" lon="1.8720220">
<ele>440.527466</ele>
<time>2022-09-08T08:19:15.001Z</time>
</trkpt>
<trkpt lat="41.9165110" lon="1.8720130">
<ele>440.801758</ele>
<time>2022-09-08T08:19:16.003Z</time>
</trkpt>
<trkpt lat="41.9165070" lon="1.8720080">
<ele>440.954132</ele>
<time>2022-09-08T08:19:16.997Z</time>
</trkpt>
<trkpt lat="41.9165060" lon="1.8720090">
<ele>440.954132</ele>
<time>2022-09-08T08:19:17.999Z</time>
</trkpt>
<trkpt lat="41.9164950" lon="1.8719950">
<ele>441.380859</ele>
<time>2022-09-08T08:19:19.001Z</time>
</trkpt>
<trkpt lat="41.9164830" lon="1.8719800">
<ele>441.868530</ele>
<time>2022-09-08T08:19:20.004Z</time>
</trkpt>
<trkpt lat="41.9164690" lon="1.8719580">
<ele>442.508667</ele>
<time>2022-09-08T08:19:20.997Z</time>
</trkpt>
<trkpt lat="41.9164590" lon="1.8719400">
<ele>443.057281</ele>
<time>2022-09-08T08:19:21.999Z</time>
</trkpt>
<trkpt lat="41.9164470" lon="1.8719210">
<ele>443.605927</ele>
<time>2022-09-08T08:19:23.002Z</time>
</trkpt>
<trkpt lat="41.9164320" lon="1.8719060">
<ele>444.124084</ele>
<time>2022-09-08T08:19:24.004Z</time>
</trkpt>
<trkpt lat="41.9164240" lon="1.8718960">
<ele>444.428864</ele>
<time>2022-09-08T08:19:24.997Z</time>
</trkpt>
<trkpt lat="41.9164100" lon="1.8718840">
<ele>444.886078</ele>
<time>2022-09-08T08:19:26.000Z</time>
</trkpt>
<trkpt lat="41.9163940" lon="1.8718760">
<ele>445.221344</ele>
<time>2022-09-08T08:19:27.002Z</time>
</trkpt>
<trkpt lat="41.9163830" lon="1.8718630">
<ele>445.648071</ele>
<time>2022-09-08T08:19:28.004Z</time>
</trkpt>
<trkpt lat="41.9163700" lon="1.8718500">
<ele>446.074799</ele>
<time>2022-09-08T08:19:28.998Z</time>
</trkpt>
<trkpt lat="41.9163560" lon="1.8718350">
<ele>446.592957</ele>
<time>2022-09-08T08:19:30.000Z</time>
</trkpt>
<trkpt lat="41.9163390" lon="1.8718180">
<ele>447.141602</ele>
<time>2022-09-08T08:19:31.002Z</time>
</trkpt>
<trkpt lat="41.9163210" lon="1.8718050">
<ele>447.659760</ele>
<time>2022-09-08T08:19:31.996Z</time>
</trkpt>
<trkpt lat="41.9163000" lon="1.8717890">
<ele>448.269348</ele>
<time>2022-09-08T08:19:32.998Z</time>
</trkpt>
<trkpt lat="41.9162810" lon="1.8717780">
<ele>448.757050</ele>
<time>2022-09-08T08:19:34.000Z</time>
</trkpt>
<trkpt lat="41.9162690" lon="1.8717730">
<ele>449.092316</ele>
<time>2022-09-08T08:19:35.003Z</time>
</trkpt>
<trkpt lat="41.9162490" lon="1.8717710">
<ele>449.366669</ele>
<time>2022-09-08T08:19:35.996Z</time>
</trkpt>
<trkpt lat="41.9162190" lon="1.8717660">
<ele>450.098145</ele>
<time>2022-09-08T08:19:36.998Z</time>
</trkpt>
<trkpt lat="41.9161940" lon="1.8717700">
<ele>450.463928</ele>
<time>2022-09-08T08:19:38.001Z</time>
</trkpt>
<trkpt lat="41.9161840" lon="1.8717660">
<ele>450.768738</ele>
<time>2022-09-08T08:19:39.003Z</time>
</trkpt>
<trkpt lat="41.9161590" lon="1.8717520">
<ele>451.561188</ele>
<time>2022-09-08T08:19:39.996Z</time>
</trkpt>
<trkpt lat="41.9161410" lon="1.8717450">
<ele>452.079346</ele>
<time>2022-09-08T08:19:40.999Z</time>
</trkpt>
<trkpt lat="41.9161200" lon="1.8717540">
<ele>452.323212</ele>
<time>2022-09-08T08:19:42.001Z</time>
</trkpt>
<trkpt lat="41.9160990" lon="1.8717490">
<ele>452.780396</ele>
<time>2022-09-08T08:19:43.003Z</time>
</trkpt>
<trkpt lat="41.9160790" lon="1.8717490">
<ele>453.146149</ele>
<time>2022-09-08T08:19:43.997Z</time>
</trkpt>
<trkpt lat="41.9160520" lon="1.8717420">
<ele>453.816742</ele>
<time>2022-09-08T08:19:44.999Z</time>
</trkpt>
<trkpt lat="41.9160340" lon="1.8717410">
<ele>454.182465</ele>
<time>2022-09-08T08:19:46.001Z</time>
</trkpt>
<trkpt lat="41.9160070" lon="1.8717470">
<ele>454.548248</ele>
<time>2022-09-08T08:19:47.004Z</time>
</trkpt>
<trkpt lat="41.9159880" lon="1.8717500">
<ele>454.822540</ele>
<time>2022-09-08T08:19:47.997Z</time>
</trkpt>
<trkpt lat="41.9159560" lon="1.8717470">
<ele>455.523590</ele>
<time>2022-09-08T08:19:48.999Z</time>
</trkpt>
<trkpt lat="41.9159440" lon="1.8717550">
<ele>455.554077</ele>
<time>2022-09-08T08:19:50.002Z</time>
</trkpt>
<trkpt lat="41.9159320" lon="1.8717740">
<ele>455.371185</ele>
<time>2022-09-08T08:19:51.004Z</time>
</trkpt>
<trkpt lat="41.9159200" lon="1.8718020">
<ele>455.005463</ele>
<time>2022-09-08T08:19:51.997Z</time>
</trkpt>
<trkpt lat="41.9159030" lon="1.8718270">
<ele>454.883514</ele>
<time>2022-09-08T08:19:53.000Z</time>
</trkpt>
<trkpt lat="41.9158970" lon="1.8718490">
<ele>454.517731</ele>
<time>2022-09-08T08:19:54.002Z</time>
</trkpt>
<trkpt lat="41.9158830" lon="1.8718730">
<ele>454.365356</ele>
<time>2022-09-08T08:19:55.004Z</time>
</trkpt>
<trkpt lat="41.9158650" lon="1.8718930">
<ele>454.334869</ele>
<time>2022-09-08T08:19:55.998Z</time>
</trkpt>
<trkpt lat="41.9158440" lon="1.8719140">
<ele>454.426331</ele>
<time>2022-09-08T08:19:57.000Z</time>
</trkpt>
<trkpt lat="41.9158240" lon="1.8719600">
<ele>454.091064</ele>
<time>2022-09-08T08:19:58.002Z</time>
</trkpt>
<trkpt lat="41.9158100" lon="1.8719940">
<ele>453.908142</ele>
<time>2022-09-08T08:19:58.996Z</time>
</trkpt>
<trkpt lat="41.9158100" lon="1.8720280">
<ele>453.450958</ele>
<time>2022-09-08T08:19:59.998Z</time>
</trkpt>
<trkpt lat="41.9158160" lon="1.8720500">
<ele>453.024261</ele>
<time>2022-09-08T08:20:01.000Z</time>
</trkpt>
<trkpt lat="41.9158290" lon="1.8720780">
<ele>452.445129</ele>
<time>2022-09-08T08:20:02.003Z</time>
</trkpt>
<trkpt lat="41.9158360" lon="1.8721090">
<ele>451.926941</ele>
<time>2022-09-08T08:20:02.996Z</time>
</trkpt>
<trkpt lat="41.9158390" lon="1.8721370">
<ele>451.530731</ele>
<time>2022-09-08T08:20:03.998Z</time>
</trkpt>
<trkpt lat="41.9158440" lon="1.8721610">
<ele>451.195465</ele>
<time>2022-09-08T08:20:05.001Z</time>
</trkpt>
<trkpt lat="41.9158470" lon="1.8722040">
<ele>450.738251</ele>
<time>2022-09-08T08:20:06.003Z</time>
</trkpt>
<trkpt lat="41.9158580" lon="1.8722200">
<ele>450.372467</ele>
<time>2022-09-08T08:20:06.996Z</time>
</trkpt>
<trkpt lat="41.9158540" lon="1.8722530">
<ele>450.250549</ele>
<time>2022-09-08T08:20:07.999Z</time>
</trkpt>
<trkpt lat="41.9158570" lon="1.8722950">
<ele>450.037201</ele>
<time>2022-09-08T08:20:09.001Z</time>
</trkpt>
<trkpt lat="41.9158530" lon="1.8723330">
<ele>449.976257</ele>
<time>2022-09-08T08:20:10.003Z</time>
</trkpt>
<trkpt lat="41.9158590" lon="1.8723560">
<ele>449.701935</ele>
<time>2022-09-08T08:20:10.997Z</time>
</trkpt>
<trkpt lat="41.9158710" lon="1.8723700">
<ele>449.397125</ele>
<time>2022-09-08T08:20:11.999Z</time>
</trkpt>
<trkpt lat="41.9158760" lon="1.8723910">
<ele>449.244720</ele>
<time>2022-09-08T08:20:13.001Z</time>
</trkpt>
<trkpt lat="41.9158870" lon="1.8724210">
<ele>448.878937</ele>
<time>2022-09-08T08:20:14.004Z</time>
</trkpt>
<trkpt lat="41.9158790" lon="1.8724440">
<ele>449.061859</ele>
<time>2022-09-08T08:20:14.997Z</time>
</trkpt>
<trkpt lat="41.9158630" lon="1.8724610">
<ele>449.427612</ele>
<time>2022-09-08T08:20:15.999Z</time>
</trkpt>
<trkpt lat="41.9158530" lon="1.8724730">
<ele>449.732391</ele>
<time>2022-09-08T08:20:17.002Z</time>
</trkpt>
<trkpt lat="41.9158410" lon="1.8724890">
<ele>450.037201</ele>
<time>2022-09-08T08:20:18.004Z</time>
</trkpt>
<trkpt lat="41.9158300" lon="1.8725050">
<ele>450.311523</ele>
<time>2022-09-08T08:20:18.997Z</time>
</trkpt>
<trkpt lat="41.9158240" lon="1.8725150">
<ele>450.433441</ele>
<time>2022-09-08T08:20:20.000Z</time>
</trkpt>
<trkpt lat="41.9158130" lon="1.8725270">
<ele>450.707733</ele>
<time>2022-09-08T08:20:21.002Z</time>
</trkpt>
<trkpt lat="41.9158030" lon="1.8725340">
<ele>451.012543</ele>
<time>2022-09-08T08:20:22.004Z</time>
</trkpt>
<trkpt lat="41.9157920" lon="1.8725450">
<ele>451.317352</ele>
<time>2022-09-08T08:20:22.998Z</time>
</trkpt>
<trkpt lat="41.9157790" lon="1.8725590">
<ele>451.622131</ele>
<time>2022-09-08T08:20:24.000Z</time>
</trkpt>
<trkpt lat="41.9157690" lon="1.8725800">
<ele>451.926941</ele>
<time>2022-09-08T08:20:25.002Z</time>
</trkpt>
<trkpt lat="41.9157630" lon="1.8726020">
<ele>452.048859</ele>
<time>2022-09-08T08:20:25.996Z</time>
</trkpt>
<trkpt lat="41.9157600" lon="1.8726240">
<ele>452.170807</ele>
<time>2022-09-08T08:20:26.998Z</time>
</trkpt>
<trkpt lat="41.9157530" lon="1.8726460">
<ele>452.384155</ele>
<time>2022-09-08T08:20:28.000Z</time>
</trkpt>
<trkpt lat="41.9157430" lon="1.8726650">
<ele>452.567047</ele>
<time>2022-09-08T08:20:29.003Z</time>
</trkpt>
<trkpt lat="41.9157330" lon="1.8726840">
<ele>452.871857</ele>
<time>2022-09-08T08:20:29.996Z</time>
</trkpt>
<trkpt lat="41.9157250" lon="1.8727040">
<ele>453.085205</ele>
<time>2022-09-08T08:20:30.998Z</time>
</trkpt>
<trkpt lat="41.9157160" lon="1.8727320">
<ele>453.359528</ele>
<time>2022-09-08T08:20:32.001Z</time>
</trkpt>
<trkpt lat="41.9157070" lon="1.8727660">
<ele>453.542389</ele>
<time>2022-09-08T08:20:33.003Z</time>
</trkpt>
<trkpt lat="41.9157090" lon="1.8727980">
<ele>453.450958</ele>
<time>2022-09-08T08:20:33.996Z</time>
</trkpt>
<trkpt lat="41.9157110" lon="1.8728320">
<ele>453.390015</ele>
<time>2022-09-08T08:20:34.999Z</time>
</trkpt>
<trkpt lat="41.9157010" lon="1.8728660">
<ele>453.511932</ele>
<time>2022-09-08T08:20:36.001Z</time>
</trkpt>
<trkpt lat="41.9156990" lon="1.8729080">
<ele>453.481445</ele>
<time>2022-09-08T08:20:37.003Z</time>
</trkpt>
<trkpt lat="41.9157010" lon="1.8729540">
<ele>453.146149</ele>
<time>2022-09-08T08:20:37.997Z</time>
</trkpt>
<trkpt lat="41.9157040" lon="1.8729960">
<ele>452.932800</ele>
<time>2022-09-08T08:20:38.999Z</time>
</trkpt>
<trkpt lat="41.9157030" lon="1.8730380">
<ele>452.719452</ele>
<time>2022-09-08T08:20:40.001Z</time>
</trkpt>
<trkpt lat="41.9157000" lon="1.8730750">
<ele>452.597534</ele>
<time>2022-09-08T08:20:41.004Z</time>
</trkpt>
<trkpt lat="41.9156960" lon="1.8731070">
<ele>452.475586</ele>
<time>2022-09-08T08:20:41.997Z</time>
</trkpt>
<trkpt lat="41.9156970" lon="1.8731330">
<ele>452.323212</ele>
<time>2022-09-08T08:20:42.999Z</time>
</trkpt>
<trkpt lat="41.9156960" lon="1.8731640">
<ele>452.140320</ele>
<time>2022-09-08T08:20:44.002Z</time>
</trkpt>
<trkpt lat="41.9156850" lon="1.8731940">
<ele>452.170807</ele>
<time>2022-09-08T08:20:45.004Z</time>
</trkpt>
<trkpt lat="41.9156710" lon="1.8732240">
<ele>452.201263</ele>
<time>2022-09-08T08:20:45.997Z</time>
</trkpt>
<trkpt lat="41.9156610" lon="1.8732670">
<ele>452.109863</ele>
<time>2022-09-08T08:20:47.000Z</time>
</trkpt>
<trkpt lat="41.9156520" lon="1.8732930">
<ele>452.079346</ele>
<time>2022-09-08T08:20:48.002Z</time>
</trkpt>
<trkpt lat="41.9156390" lon="1.8733230">
<ele>452.109863</ele>
<time>2022-09-08T08:20:49.004Z</time>
</trkpt>
<trkpt lat="41.9156220" lon="1.8733460">
<ele>452.201263</ele>
<time>2022-09-08T08:20:49.998Z</time>
</trkpt>
<trkpt lat="41.9155970" lon="1.8733780">
<ele>452.384155</ele>
<time>2022-09-08T08:20:51.000Z</time>
</trkpt>
<trkpt lat="41.9155790" lon="1.8733980">
<ele>452.475586</ele>
<time>2022-09-08T08:20:52.002Z</time>
</trkpt>
<trkpt lat="41.9155530" lon="1.8734130">
<ele>452.780396</ele>
<time>2022-09-08T08:20:52.996Z</time>
</trkpt>
<trkpt lat="41.9155280" lon="1.8734280">
<ele>453.054718</ele>
<time>2022-09-08T08:20:53.998Z</time>
</trkpt>
<trkpt lat="41.9155030" lon="1.8734400">
<ele>453.298553</ele>
<time>2022-09-08T08:20:55.000Z</time>
</trkpt>
<trkpt lat="41.9154600" lon="1.8734640">
<ele>453.755737</ele>
<time>2022-09-08T08:20:56.003Z</time>
</trkpt>
<trkpt lat="41.9154160" lon="1.8734990">
<ele>454.030060</ele>
<time>2022-09-08T08:20:56.996Z</time>
</trkpt>
<trkpt lat="41.9153980" lon="1.8735090">
<ele>454.426331</ele>
<time>2022-09-08T08:20:57.998Z</time>
</trkpt>
<trkpt lat="41.9153750" lon="1.8735120">
<ele>454.974945</ele>
<time>2022-09-08T08:20:59.001Z</time>
</trkpt>
<trkpt lat="41.9153360" lon="1.8735090">
<ele>455.858887</ele>
<time>2022-09-08T08:21:00.003Z</time>
</trkpt>
<trkpt lat="41.9153050" lon="1.8735160">
<ele>456.468475</ele>
<time>2022-09-08T08:21:00.996Z</time>
</trkpt>
<trkpt lat="41.9152810" lon="1.8735220">
<ele>456.986664</ele>
<time>2022-09-08T08:21:01.999Z</time>
</trkpt>
<trkpt lat="41.9152580" lon="1.8735350">
<ele>457.352386</ele>
<time>2022-09-08T08:21:03.001Z</time>
</trkpt>
<trkpt lat="41.9152380" lon="1.8735460">
<ele>457.626740</ele>
<time>2022-09-08T08:21:04.003Z</time>
</trkpt>
<trkpt lat="41.9152110" lon="1.8735570">
<ele>458.022949</ele>
<time>2022-09-08T08:21:04.997Z</time>
</trkpt>
<trkpt lat="41.9151760" lon="1.8735650">
<ele>458.571594</ele>
<time>2022-09-08T08:21:05.999Z</time>
</trkpt>
<trkpt lat="41.9151380" lon="1.8735790">
<ele>459.089752</ele>
<time>2022-09-08T08:21:07.001Z</time>
</trkpt>
<trkpt lat="41.9151150" lon="1.8735990">
<ele>459.303131</ele>
<time>2022-09-08T08:21:08.004Z</time>
</trkpt>
<trkpt lat="41.9150910" lon="1.8736310">
<ele>459.425049</ele>
<time>2022-09-08T08:21:08.997Z</time>
</trkpt>
<trkpt lat="41.9150880" lon="1.8736720">
<ele>459.242157</ele>
<time>2022-09-08T08:21:09.999Z</time>
</trkpt>
<trkpt lat="41.9150910" lon="1.8737090">
<ele>458.998322</ele>
<time>2022-09-08T08:21:11.002Z</time>
</trkpt>
<trkpt lat="41.9150870" lon="1.8737370">
<ele>458.906860</ele>
<time>2022-09-08T08:21:12.004Z</time>
</trkpt>
<trkpt lat="41.9150770" lon="1.8737480">
<ele>458.998322</ele>
<time>2022-09-08T08:21:12.997Z</time>
</trkpt>
<trkpt lat="41.9150640" lon="1.8737620">
<ele>459.089752</ele>
<time>2022-09-08T08:21:14.000Z</time>
</trkpt>
<trkpt lat="41.9150530" lon="1.8737810">
<ele>459.150726</ele>
<time>2022-09-08T08:21:15.002Z</time>
</trkpt>
<trkpt lat="41.9150500" lon="1.8738000">
<ele>459.120270</ele>
<time>2022-09-08T08:21:16.004Z</time>
</trkpt>
<trkpt lat="41.9150480" lon="1.8738240">
<ele>459.028809</ele>
<time>2022-09-08T08:21:16.998Z</time>
</trkpt>
<trkpt lat="41.9150430" lon="1.8738510">
<ele>458.967865</ele>
<time>2022-09-08T08:21:18.000Z</time>
</trkpt>
<trkpt lat="41.9150400" lon="1.8738800">
<ele>458.906860</ele>
<time>2022-09-08T08:21:19.002Z</time>
</trkpt>
<trkpt lat="41.9150380" lon="1.8739180">
<ele>458.754486</ele>
<time>2022-09-08T08:21:19.996Z</time>
</trkpt>
<trkpt lat="41.9150310" lon="1.8739560">
<ele>458.723999</ele>
<time>2022-09-08T08:21:20.998Z</time>
</trkpt>
<trkpt lat="41.9150240" lon="1.8739840">
<ele>458.754486</ele>
<time>2022-09-08T08:21:22.000Z</time>
</trkpt>
<trkpt lat="41.9150100" lon="1.8740070">
<ele>458.906860</ele>
<time>2022-09-08T08:21:23.003Z</time>
</trkpt>
<trkpt lat="41.9149920" lon="1.8740400">
<ele>459.028809</ele>
<time>2022-09-08T08:21:23.996Z</time>
</trkpt>
<trkpt lat="41.9149840" lon="1.8740780">
<ele>459.028809</ele>
<time>2022-09-08T08:21:24.998Z</time>
</trkpt>
<trkpt lat="41.9149850" lon="1.8741140">
<ele>458.967865</ele>
<time>2022-09-08T08:21:26.001Z</time>
</trkpt>
<trkpt lat="41.9149830" lon="1.8741620">
<ele>458.937347</ele>
<time>2022-09-08T08:21:27.003Z</time>
</trkpt>
<trkpt lat="41.9149790" lon="1.8742080">
<ele>458.906860</ele>
<time>2022-09-08T08:21:27.996Z</time>
</trkpt>
<trkpt lat="41.9149700" lon="1.8742550">
<ele>458.967865</ele>
<time>2022-09-08T08:21:28.999Z</time>
</trkpt>
<trkpt lat="41.9149700" lon="1.8742920">
<ele>458.906860</ele>
<time>2022-09-08T08:21:30.001Z</time>
</trkpt>
<trkpt lat="41.9149810" lon="1.8743310">
<ele>458.723999</ele>
<time>2022-09-08T08:21:31.003Z</time>
</trkpt>
<trkpt lat="41.9149980" lon="1.8743620">
<ele>458.510651</ele>
<time>2022-09-08T08:21:31.997Z</time>
</trkpt>
<trkpt lat="41.9150280" lon="1.8743850">
<ele>458.053467</ele>
<time>2022-09-08T08:21:32.999Z</time>
</trkpt>
<trkpt lat="41.9150520" lon="1.8744080">
<ele>457.687683</ele>
<time>2022-09-08T08:21:34.001Z</time>
</trkpt>
<trkpt lat="41.9150710" lon="1.8744330">
<ele>457.382874</ele>
<time>2022-09-08T08:21:35.004Z</time>
</trkpt>
<trkpt lat="41.9150930" lon="1.8744690">
<ele>456.986664</ele>
<time>2022-09-08T08:21:35.997Z</time>
</trkpt>
<trkpt lat="41.9151090" lon="1.8745140">
<ele>456.742798</ele>
<time>2022-09-08T08:21:36.999Z</time>
</trkpt>
<trkpt lat="41.9151180" lon="1.8745700">
<ele>456.559937</ele>
<time>2022-09-08T08:21:38.002Z</time>
</trkpt>
<trkpt lat="41.9151260" lon="1.8746180">
<ele>456.498932</ele>
<time>2022-09-08T08:21:39.004Z</time>
</trkpt>
<trkpt lat="41.9151380" lon="1.8746700">
<ele>456.407532</ele>
<time>2022-09-08T08:21:39.997Z</time>
</trkpt>
<trkpt lat="41.9151320" lon="1.8747190">
<ele>456.681854</ele>
<time>2022-09-08T08:21:41.000Z</time>
</trkpt>
<trkpt lat="41.9151320" lon="1.8747570">
<ele>456.803741</ele>
<time>2022-09-08T08:21:42.002Z</time>
</trkpt>
<trkpt lat="41.9151320" lon="1.8748140">
<ele>456.986664</ele>
<time>2022-09-08T08:21:43.004Z</time>
</trkpt>
<trkpt lat="41.9151430" lon="1.8748610">
<ele>456.986664</ele>
<time>2022-09-08T08:21:43.998Z</time>
</trkpt>
<trkpt lat="41.9151470" lon="1.8749060">
<ele>457.078064</ele>
<time>2022-09-08T08:21:45.000Z</time>
</trkpt>
<trkpt lat="41.9151430" lon="1.8749520">
<ele>457.291443</ele>
<time>2022-09-08T08:21:46.002Z</time>
</trkpt>
<trkpt lat="41.9151370" lon="1.8749920">
<ele>457.474335</ele>
<time>2022-09-08T08:21:46.996Z</time>
</trkpt>
<trkpt lat="41.9151270" lon="1.8750250">
<ele>457.748657</ele>
<time>2022-09-08T08:21:47.998Z</time>
</trkpt>
<trkpt lat="41.9151150" lon="1.8750540">
<ele>457.962006</ele>
<time>2022-09-08T08:21:49.000Z</time>
</trkpt>
<trkpt lat="41.9151080" lon="1.8750900">
<ele>458.144867</ele>
<time>2022-09-08T08:21:50.003Z</time>
</trkpt>
<trkpt lat="41.9150870" lon="1.8751290">
<ele>458.388733</ele>
<time>2022-09-08T08:21:50.996Z</time>
</trkpt>
<trkpt lat="41.9150690" lon="1.8751730">
<ele>458.602081</ele>
<time>2022-09-08T08:21:51.998Z</time>
</trkpt>
<trkpt lat="41.9150600" lon="1.8751970">
<ele>458.693542</ele>
<time>2022-09-08T08:21:53.001Z</time>
</trkpt>
<trkpt lat="41.9150450" lon="1.8752210">
<ele>458.754486</ele>
<time>2022-09-08T08:21:54.003Z</time>
</trkpt>
<trkpt lat="41.9150310" lon="1.8752370">
<ele>458.815460</ele>
<time>2022-09-08T08:21:54.996Z</time>
</trkpt>
<trkpt lat="41.9150130" lon="1.8752350">
<ele>458.906860</ele>
<time>2022-09-08T08:21:55.999Z</time>
</trkpt>
<trkpt lat="41.9150030" lon="1.8752250">
<ele>458.967865</ele>
<time>2022-09-08T08:21:57.001Z</time>
</trkpt>
<trkpt lat="41.9150030" lon="1.8752100">
<ele>458.967865</ele>
<time>2022-09-08T08:21:58.003Z</time>
</trkpt>
<trkpt lat="41.9150060" lon="1.8751960">
<ele>458.998322</ele>
<time>2022-09-08T08:21:58.997Z</time>
</trkpt>
<trkpt lat="41.9150040" lon="1.8751750">
<ele>459.028809</ele>
<time>2022-09-08T08:21:59.999Z</time>
</trkpt>
<trkpt lat="41.9150080" lon="1.8751670">
<ele>458.998322</ele>
<time>2022-09-08T08:22:01.001Z</time>
</trkpt>
<trkpt lat="41.9150100" lon="1.8751600">
<ele>458.998322</ele>
<time>2022-09-08T08:22:02.004Z</time>
</trkpt>
<trkpt lat="41.9150120" lon="1.8751480">
<ele>458.998322</ele>
<time>2022-09-08T08:22:02.997Z</time>
</trkpt>
<trkpt lat="41.9150200" lon="1.8751330">
<ele>458.967865</ele>
<time>2022-09-08T08:22:03.999Z</time>
</trkpt>
<trkpt lat="41.9150290" lon="1.8751210">
<ele>458.906860</ele>
<time>2022-09-08T08:22:05.002Z</time>
</trkpt>
<trkpt lat="41.9150410" lon="1.8750980">
<ele>458.784943</ele>
<time>2022-09-08T08:22:06.004Z</time>
</trkpt>
<trkpt lat="41.9150500" lon="1.8750710">
<ele>458.693542</ele>
<time>2022-09-08T08:22:06.997Z</time>
</trkpt>
<trkpt lat="41.9150530" lon="1.8750470">
<ele>458.632538</ele>
<time>2022-09-08T08:22:08.000Z</time>
</trkpt>
<trkpt lat="41.9150610" lon="1.8750200">
<ele>458.510651</ele>
<time>2022-09-08T08:22:09.002Z</time>
</trkpt>
<trkpt lat="41.9150710" lon="1.8749980">
<ele>458.388733</ele>
<time>2022-09-08T08:22:10.004Z</time>
</trkpt>
<trkpt lat="41.9150800" lon="1.8749710">
<ele>458.205841</ele>
<time>2022-09-08T08:22:10.998Z</time>
</trkpt>
<trkpt lat="41.9150780" lon="1.8749460">
<ele>458.175354</ele>
<time>2022-09-08T08:22:12.000Z</time>
</trkpt>
<trkpt lat="41.9150730" lon="1.8749200">
<ele>458.144867</ele>
<time>2022-09-08T08:22:13.002Z</time>
</trkpt>
<trkpt lat="41.9150650" lon="1.8748780">
<ele>458.144867</ele>
<time>2022-09-08T08:22:13.996Z</time>
</trkpt>
<trkpt lat="41.9150560" lon="1.8748460">
<ele>458.205841</ele>
<time>2022-09-08T08:22:14.998Z</time>
</trkpt>
<trkpt lat="41.9150430" lon="1.8748050">
<ele>458.236328</ele>
<time>2022-09-08T08:22:16.000Z</time>
</trkpt>
<trkpt lat="41.9150250" lon="1.8747600">
<ele>458.358246</ele>
<time>2022-09-08T08:22:17.003Z</time>
</trkpt>
<trkpt lat="41.9150040" lon="1.8747110">
<ele>458.480133</ele>
<time>2022-09-08T08:22:17.996Z</time>
</trkpt>
<trkpt lat="41.9149860" lon="1.8746590">
<ele>458.602081</ele>
<time>2022-09-08T08:22:18.998Z</time>
</trkpt>
<trkpt lat="41.9149710" lon="1.8746250">
<ele>458.723999</ele>
<time>2022-09-08T08:22:20.001Z</time>
</trkpt>
<trkpt lat="41.9149520" lon="1.8745960">
<ele>458.906860</ele>
<time>2022-09-08T08:22:21.003Z</time>
</trkpt>
<trkpt lat="41.9149350" lon="1.8745880">
<ele>459.059265</ele>
<time>2022-09-08T08:22:21.996Z</time>
</trkpt>
<trkpt lat="41.9149140" lon="1.8745860">
<ele>459.242157</ele>
<time>2022-09-08T08:22:22.999Z</time>
</trkpt>
<trkpt lat="41.9148970" lon="1.8745970">
<ele>459.333588</ele>
<time>2022-09-08T08:22:24.001Z</time>
</trkpt>
<trkpt lat="41.9148830" lon="1.8746140">
<ele>459.425049</ele>
<time>2022-09-08T08:22:25.003Z</time>
</trkpt>
<trkpt lat="41.9148690" lon="1.8746270">
<ele>459.516479</ele>
<time>2022-09-08T08:22:25.997Z</time>
</trkpt>
<trkpt lat="41.9148600" lon="1.8746390">
<ele>459.546936</ele>
<time>2022-09-08T08:22:26.999Z</time>
</trkpt>
<trkpt lat="41.9148500" lon="1.8746510">
<ele>459.577454</ele>
<time>2022-09-08T08:22:28.001Z</time>
</trkpt>
<trkpt lat="41.9148390" lon="1.8746490">
<ele>459.607941</ele>
<time>2022-09-08T08:22:29.004Z</time>
</trkpt>
<trkpt lat="41.9148300" lon="1.8746270">
<ele>459.668884</ele>
<time>2022-09-08T08:22:29.997Z</time>
</trkpt>
<trkpt lat="41.9148180" lon="1.8745980">
<ele>459.729858</ele>
<time>2022-09-08T08:22:30.999Z</time>
</trkpt>
<trkpt lat="41.9147940" lon="1.8745650">
<ele>459.821259</ele>
<time>2022-09-08T08:22:32.002Z</time>
</trkpt>
<trkpt lat="41.9147710" lon="1.8745490">
<ele>459.912720</ele>
<time>2022-09-08T08:22:33.004Z</time>
</trkpt>
<trkpt lat="41.9147380" lon="1.8745380">
<ele>459.943207</ele>
<time>2022-09-08T08:22:33.997Z</time>
</trkpt>
<trkpt lat="41.9147160" lon="1.8745470">
<ele>459.882263</ele>
<time>2022-09-08T08:22:35.000Z</time>
</trkpt>
<trkpt lat="41.9147180" lon="1.8745730">
<ele>459.790802</ele>
<time>2022-09-08T08:22:36.002Z</time>
</trkpt>
<trkpt lat="41.9147290" lon="1.8746030">
<ele>459.760315</ele>
<time>2022-09-08T08:22:37.004Z</time>
</trkpt>
<trkpt lat="41.9147410" lon="1.8746340">
<ele>459.729858</ele>
<time>2022-09-08T08:22:37.998Z</time>
</trkpt>
<trkpt lat="41.9147560" lon="1.8746540">
<ele>459.729858</ele>
<time>2022-09-08T08:22:39.000Z</time>
</trkpt>
<trkpt lat="41.9147960" lon="1.8746940">
<ele>459.699341</ele>
<time>2022-09-08T08:22:40.002Z</time>
</trkpt>
<trkpt lat="41.9148150" lon="1.8747090">
<ele>459.668884</ele>
<time>2022-09-08T08:22:40.996Z</time>
</trkpt>
<trkpt lat="41.9148300" lon="1.8747250">
<ele>459.638397</ele>
<time>2022-09-08T08:22:41.998Z</time>
</trkpt>
<trkpt lat="41.9148350" lon="1.8747410">
<ele>459.607941</ele>
<time>2022-09-08T08:22:43.000Z</time>
</trkpt>
<trkpt lat="41.9148360" lon="1.8747580">
<ele>459.607941</ele>
<time>2022-09-08T08:22:44.003Z</time>
</trkpt>
<trkpt lat="41.9148300" lon="1.8747760">
<ele>459.607941</ele>
<time>2022-09-08T08:22:44.996Z</time>
</trkpt>
<trkpt lat="41.9148210" lon="1.8747860">
<ele>459.607941</ele>
<time>2022-09-08T08:22:45.998Z</time>
</trkpt>
<trkpt lat="41.9148060" lon="1.8747850">
<ele>459.638397</ele>
<time>2022-09-08T08:22:47.001Z</time>
</trkpt>
<trkpt lat="41.9147910" lon="1.8747720">
<ele>459.638397</ele>
<time>2022-09-08T08:22:48.003Z</time>
</trkpt>
<trkpt lat="41.9147780" lon="1.8747510">
<ele>459.638397</ele>
<time>2022-09-08T08:22:48.996Z</time>
</trkpt>
<trkpt lat="41.9147630" lon="1.8747270">
<ele>459.668884</ele>
<time>2022-09-08T08:22:49.999Z</time>
</trkpt>
<trkpt lat="41.9147390" lon="1.8746910">
<ele>459.638397</ele>
<time>2022-09-08T08:22:51.001Z</time>
</trkpt>
<trkpt lat="41.9147180" lon="1.8746610">
<ele>459.638397</ele>
<time>2022-09-08T08:22:52.003Z</time>
</trkpt>
<trkpt lat="41.9146950" lon="1.8746260">
<ele>459.607941</ele>
<time>2022-09-08T08:22:52.997Z</time>
</trkpt>
<trkpt lat="41.9146780" lon="1.8746010">
<ele>459.577454</ele>
<time>2022-09-08T08:22:53.999Z</time>
</trkpt>
<trkpt lat="41.9146540" lon="1.8745820">
<ele>459.516479</ele>
<time>2022-09-08T08:22:55.001Z</time>
</trkpt>
<trkpt lat="41.9146360" lon="1.8745760">
<ele>459.425049</ele>
<time>2022-09-08T08:22:56.004Z</time>
</trkpt>
<trkpt lat="41.9146170" lon="1.8745670">
<ele>459.333588</ele>
<time>2022-09-08T08:22:56.997Z</time>
</trkpt>
<trkpt lat="41.9146080" lon="1.8745520">
<ele>459.333588</ele>
<time>2022-09-08T08:22:57.999Z</time>
</trkpt>
<trkpt lat="41.9146000" lon="1.8745290">
<ele>459.364075</ele>
<time>2022-09-08T08:22:59.002Z</time>
</trkpt>
<trkpt lat="41.9146000" lon="1.8745080">
<ele>459.455536</ele>
<time>2022-09-08T08:23:00.004Z</time>
</trkpt>
<trkpt lat="41.9146030" lon="1.8744930">
<ele>459.546936</ele>
<time>2022-09-08T08:23:00.997Z</time>
</trkpt>
<trkpt lat="41.9146070" lon="1.8744750">
<ele>459.638397</ele>
<time>2022-09-08T08:23:02.000Z</time>
</trkpt>
<trkpt lat="41.9146080" lon="1.8744550">
<ele>459.699341</ele>
<time>2022-09-08T08:23:03.002Z</time>
</trkpt>
<trkpt lat="41.9146020" lon="1.8744290">
<ele>459.729858</ele>
<time>2022-09-08T08:23:04.004Z</time>
</trkpt>
<trkpt lat="41.9145830" lon="1.8744030">
<ele>459.699341</ele>
<time>2022-09-08T08:23:04.998Z</time>
</trkpt>
<trkpt lat="41.9145720" lon="1.8743810">
<ele>459.760315</ele>
<time>2022-09-08T08:23:06.000Z</time>
</trkpt>
<trkpt lat="41.9145690" lon="1.8743530">
<ele>459.851746</ele>
<time>2022-09-08T08:23:07.002Z</time>
</trkpt>
<trkpt lat="41.9145710" lon="1.8743280">
<ele>459.912720</ele>
<time>2022-09-08T08:23:07.996Z</time>
</trkpt>
<trkpt lat="41.9145690" lon="1.8742960">
<ele>460.004150</ele>
<time>2022-09-08T08:23:08.998Z</time>
</trkpt>
<trkpt lat="41.9145510" lon="1.8742520">
<ele>460.095612</ele>
<time>2022-09-08T08:23:10.000Z</time>
</trkpt>
<trkpt lat="41.9145330" lon="1.8742060">
<ele>460.187042</ele>
<time>2022-09-08T08:23:11.003Z</time>
</trkpt>
<trkpt lat="41.9145170" lon="1.8741680">
<ele>460.217529</ele>
<time>2022-09-08T08:23:11.996Z</time>
</trkpt>
<trkpt lat="41.9145010" lon="1.8741180">
<ele>460.247986</ele>
<time>2022-09-08T08:23:12.998Z</time>
</trkpt>
<trkpt lat="41.9144920" lon="1.8740640">
<ele>460.278473</ele>
<time>2022-09-08T08:23:14.001Z</time>
</trkpt>
<trkpt lat="41.9144840" lon="1.8740090">
<ele>460.308960</ele>
<time>2022-09-08T08:23:15.003Z</time>
</trkpt>
<trkpt lat="41.9144790" lon="1.8739570">
<ele>460.339447</ele>
<time>2022-09-08T08:23:15.996Z</time>
</trkpt>
<trkpt lat="41.9144830" lon="1.8739280">
<ele>460.400391</ele>
<time>2022-09-08T08:23:16.999Z</time>
</trkpt>
<trkpt lat="41.9144850" lon="1.8738960">
<ele>460.461334</ele>
<time>2022-09-08T08:23:18.001Z</time>
</trkpt>
<trkpt lat="41.9144830" lon="1.8738670">
<ele>460.491852</ele>
<time>2022-09-08T08:23:19.003Z</time>
</trkpt>
<trkpt lat="41.9144700" lon="1.8738270">
<ele>460.491852</ele>
<time>2022-09-08T08:23:19.997Z</time>
</trkpt>
<trkpt lat="41.9144530" lon="1.8737730">
<ele>460.491852</ele>
<time>2022-09-08T08:23:20.999Z</time>
</trkpt>
<trkpt lat="41.9144450" lon="1.8737230">
<ele>460.552795</ele>
<time>2022-09-08T08:23:22.001Z</time>
</trkpt>
<trkpt lat="41.9144380" lon="1.8736710">
<ele>460.583282</ele>
<time>2022-09-08T08:23:23.004Z</time>
</trkpt>
<trkpt lat="41.9144420" lon="1.8736290">
<ele>460.705200</ele>
<time>2022-09-08T08:23:23.997Z</time>
</trkpt>
<trkpt lat="41.9144360" lon="1.8735840">
<ele>460.766144</ele>
<time>2022-09-08T08:23:24.999Z</time>
</trkpt>
<trkpt lat="41.9144360" lon="1.8735500">
<ele>460.857605</ele>
<time>2022-09-08T08:23:26.002Z</time>
</trkpt>
<trkpt lat="41.9144390" lon="1.8735080">
<ele>460.979523</ele>
<time>2022-09-08T08:23:27.004Z</time>
</trkpt>
<trkpt lat="41.9144430" lon="1.8734590">
<ele>461.101440</ele>
<time>2022-09-08T08:23:27.997Z</time>
</trkpt>
<trkpt lat="41.9144450" lon="1.8734240">
<ele>461.192871</ele>
<time>2022-09-08T08:23:29.000Z</time>
</trkpt>
<trkpt lat="41.9144450" lon="1.8733820">
<ele>461.314789</ele>
<time>2022-09-08T08:23:30.002Z</time>
</trkpt>
<trkpt lat="41.9144480" lon="1.8733350">
<ele>461.467194</ele>
<time>2022-09-08T08:23:31.004Z</time>
</trkpt>
<trkpt lat="41.9144490" lon="1.8732750">
<ele>461.650085</ele>
<time>2022-09-08T08:23:31.998Z</time>
</trkpt>
<trkpt lat="41.9144700" lon="1.8732010">
<ele>462.076813</ele>
<time>2022-09-08T08:23:33.000Z</time>
</trkpt>
<trkpt lat="41.9144830" lon="1.8731690">
<ele>462.290131</ele>
<time>2022-09-08T08:23:34.002Z</time>
</trkpt>
<trkpt lat="41.9144990" lon="1.8731400">
<ele>462.503540</ele>
<time>2022-09-08T08:23:34.996Z</time>
</trkpt>
<trkpt lat="41.9145250" lon="1.8731170">
<ele>462.716858</ele>
<time>2022-09-08T08:23:35.998Z</time>
</trkpt>
<trkpt lat="41.9145580" lon="1.8730970">
<ele>462.899750</ele>
<time>2022-09-08T08:23:37.000Z</time>
</trkpt>
<trkpt lat="41.9145820" lon="1.8730560">
<ele>463.113129</ele>
<time>2022-09-08T08:23:38.003Z</time>
</trkpt>
<trkpt lat="41.9146030" lon="1.8730340">
<ele>463.417938</ele>
<time>2022-09-08T08:23:38.996Z</time>
</trkpt>
<trkpt lat="41.9146320" lon="1.8729740">
<ele>463.997040</ele>
<time>2022-09-08T08:23:39.998Z</time>
</trkpt>
<trkpt lat="41.9146350" lon="1.8729530">
<ele>464.149445</ele>
<time>2022-09-08T08:23:41.001Z</time>
</trkpt>
<trkpt lat="41.9146080" lon="1.8729370">
<ele>464.058014</ele>
<time>2022-09-08T08:23:42.003Z</time>
</trkpt>
<trkpt lat="41.9145820" lon="1.8729140">
<ele>464.027527</ele>
<time>2022-09-08T08:23:42.996Z</time>
</trkpt>
<trkpt lat="41.9145500" lon="1.8729140">
<ele>463.997040</ele>
<time>2022-09-08T08:23:43.999Z</time>
</trkpt>
<trkpt lat="41.9145220" lon="1.8729200">
<ele>463.875122</ele>
<time>2022-09-08T08:23:45.001Z</time>
</trkpt>
<trkpt lat="41.9144980" lon="1.8729220">
<ele>463.783661</ele>
<time>2022-09-08T08:23:46.003Z</time>
</trkpt>
<trkpt lat="41.9144690" lon="1.8729320">
<ele>463.600800</ele>
<time>2022-09-08T08:23:46.997Z</time>
</trkpt>
<trkpt lat="41.9144360" lon="1.8729440">
<ele>463.326477</ele>
<time>2022-09-08T08:23:47.999Z</time>
</trkpt>
<trkpt lat="41.9144150" lon="1.8729640">
<ele>463.052155</ele>
<time>2022-09-08T08:23:49.001Z</time>
</trkpt>
<trkpt lat="41.9143840" lon="1.8729800">
<ele>462.686401</ele>
<time>2022-09-08T08:23:50.004Z</time>
</trkpt>
<trkpt lat="41.9143500" lon="1.8729890">
<ele>462.351135</ele>
<time>2022-09-08T08:23:50.997Z</time>
</trkpt>
<trkpt lat="41.9143140" lon="1.8729920">
<ele>461.985352</ele>
<time>2022-09-08T08:23:51.999Z</time>
</trkpt>
<trkpt lat="41.9142740" lon="1.8729900">
<ele>461.558655</ele>
<time>2022-09-08T08:23:53.002Z</time>
</trkpt>
<trkpt lat="41.9142490" lon="1.8729840">
<ele>461.345276</ele>
<time>2022-09-08T08:23:54.004Z</time>
</trkpt>
<trkpt lat="41.9142320" lon="1.8729720">
<ele>461.223358</ele>
<time>2022-09-08T08:23:54.997Z</time>
</trkpt>
<trkpt lat="41.9142330" lon="1.8729510">
<ele>461.467194</ele>
<time>2022-09-08T08:23:56.000Z</time>
</trkpt>
<trkpt lat="41.9142480" lon="1.8729240">
<ele>461.893921</ele>
<time>2022-09-08T08:23:57.002Z</time>
</trkpt>
<trkpt lat="41.9142610" lon="1.8728850">
<ele>462.320648</ele>
<time>2022-09-08T08:23:58.004Z</time>
</trkpt>
<trkpt lat="41.9142500" lon="1.8728400">
<ele>462.594940</ele>
<time>2022-09-08T08:23:58.998Z</time>
</trkpt>
<trkpt lat="41.9142470" lon="1.8727920">
<ele>462.960724</ele>
<time>2022-09-08T08:24:00.000Z</time>
</trkpt>
<trkpt lat="41.9142520" lon="1.8727630">
<ele>463.295990</ele>
<time>2022-09-08T08:24:01.002Z</time>
</trkpt>
<trkpt lat="41.9142650" lon="1.8727310">
<ele>463.692261</ele>
<time>2022-09-08T08:24:01.996Z</time>
</trkpt>
<trkpt lat="41.9142840" lon="1.8727030">
<ele>464.118958</ele>
<time>2022-09-08T08:24:02.998Z</time>
</trkpt>
<trkpt lat="41.9143040" lon="1.8726760">
<ele>464.515198</ele>
<time>2022-09-08T08:24:04.000Z</time>
</trkpt>
<trkpt lat="41.9143190" lon="1.8726430">
<ele>464.941925</ele>
<time>2022-09-08T08:24:05.003Z</time>
</trkpt>
<trkpt lat="41.9143240" lon="1.8726180">
<ele>465.216248</ele>
<time>2022-09-08T08:24:05.996Z</time>
</trkpt>
<trkpt lat="41.9143320" lon="1.8725890">
<ele>465.551514</ele>
<time>2022-09-08T08:24:06.998Z</time>
</trkpt>
<trkpt lat="41.9143400" lon="1.8725590">
<ele>465.886810</ele>
<time>2022-09-08T08:24:08.001Z</time>
</trkpt>
<trkpt lat="41.9143540" lon="1.8725340">
<ele>466.191589</ele>
<time>2022-09-08T08:24:09.003Z</time>
</trkpt>
<trkpt lat="41.9143740" lon="1.8725100">
<ele>466.557343</ele>
<time>2022-09-08T08:24:09.996Z</time>
</trkpt>
<trkpt lat="41.9143940" lon="1.8724900">
<ele>466.862152</ele>
<time>2022-09-08T08:24:10.999Z</time>
</trkpt>
<trkpt lat="41.9144110" lon="1.8724730">
<ele>467.075531</ele>
<time>2022-09-08T08:24:12.001Z</time>
</trkpt>
<trkpt lat="41.9144300" lon="1.8724650">
<ele>467.227936</ele>
<time>2022-09-08T08:24:13.003Z</time>
</trkpt>
<trkpt lat="41.9144480" lon="1.8724530">
<ele>467.410797</ele>
<time>2022-09-08T08:24:13.997Z</time>
</trkpt>
<trkpt lat="41.9144600" lon="1.8724290">
<ele>467.654663</ele>
<time>2022-09-08T08:24:14.999Z</time>
</trkpt>
<trkpt lat="41.9144700" lon="1.8724010">
<ele>467.959442</ele>
<time>2022-09-08T08:24:16.001Z</time>
</trkpt>
<trkpt lat="41.9144750" lon="1.8723710">
<ele>468.233734</ele>
<time>2022-09-08T08:24:17.004Z</time>
</trkpt>
<trkpt lat="41.9144730" lon="1.8723470">
<ele>468.477600</ele>
<time>2022-09-08T08:24:17.997Z</time>
</trkpt>
<trkpt lat="41.9144680" lon="1.8723210">
<ele>468.751923</ele>
<time>2022-09-08T08:24:18.999Z</time>
</trkpt>
<trkpt lat="41.9144660" lon="1.8722920">
<ele>469.026245</ele>
<time>2022-09-08T08:24:20.002Z</time>
</trkpt>
<trkpt lat="41.9144620" lon="1.8722660">
<ele>469.300537</ele>
<time>2022-09-08T08:24:21.004Z</time>
</trkpt>
<trkpt lat="41.9144580" lon="1.8722460">
<ele>469.513916</ele>
<time>2022-09-08T08:24:21.997Z</time>
</trkpt>
<trkpt lat="41.9144490" lon="1.8722190">
<ele>469.788269</ele>
<time>2022-09-08T08:24:23.000Z</time>
</trkpt>
<trkpt lat="41.9144430" lon="1.8721910">
<ele>470.093048</ele>
<time>2022-09-08T08:24:24.002Z</time>
</trkpt>
<trkpt lat="41.9144390" lon="1.8721640">
<ele>470.367340</ele>
<time>2022-09-08T08:24:25.004Z</time>
</trkpt>
<trkpt lat="41.9144380" lon="1.8721400">
<ele>470.641663</ele>
<time>2022-09-08T08:24:25.998Z</time>
</trkpt>
<trkpt lat="41.9144360" lon="1.8721140">
<ele>470.915985</ele>
<time>2022-09-08T08:24:27.000Z</time>
</trkpt>
<trkpt lat="41.9144340" lon="1.8720870">
<ele>471.220795</ele>
<time>2022-09-08T08:24:28.002Z</time>
</trkpt>
<trkpt lat="41.9144350" lon="1.8720630">
<ele>471.464661</ele>
<time>2022-09-08T08:24:28.996Z</time>
</trkpt>
<trkpt lat="41.9144280" lon="1.8720320">
<ele>471.738953</ele>
<time>2022-09-08T08:24:29.998Z</time>
</trkpt>
<trkpt lat="41.9144190" lon="1.8719930">
<ele>472.043732</ele>
<time>2022-09-08T08:24:31.000Z</time>
</trkpt>
<trkpt lat="41.9144180" lon="1.8719740">
<ele>472.196136</ele>
<time>2022-09-08T08:24:32.003Z</time>
</trkpt>
<trkpt lat="41.9144120" lon="1.8719440">
<ele>472.440002</ele>
<time>2022-09-08T08:24:32.996Z</time>
</trkpt>
<trkpt lat="41.9144140" lon="1.8719150">
<ele>472.653351</ele>
<time>2022-09-08T08:24:33.998Z</time>
</trkpt>
<trkpt lat="41.9144210" lon="1.8718750">
<ele>472.958130</ele>
<time>2022-09-08T08:24:35.001Z</time>
</trkpt>
<trkpt lat="41.9144270" lon="1.8718400">
<ele>473.201996</ele>
<time>2022-09-08T08:24:36.003Z</time>
</trkpt>
<trkpt lat="41.9144340" lon="1.8718020">
<ele>473.476318</ele>
<time>2022-09-08T08:24:36.996Z</time>
</trkpt>
<trkpt lat="41.9144460" lon="1.8717650">
<ele>473.750641</ele>
<time>2022-09-08T08:24:37.999Z</time>
</trkpt>
<trkpt lat="41.9144570" lon="1.8717260">
<ele>474.024933</ele>
<time>2022-09-08T08:24:39.001Z</time>
</trkpt>
<trkpt lat="41.9144680" lon="1.8716890">
<ele>474.268799</ele>
<time>2022-09-08T08:24:40.003Z</time>
</trkpt>
<trkpt lat="41.9144840" lon="1.8716480">
<ele>474.573608</ele>
<time>2022-09-08T08:24:40.997Z</time>
</trkpt>
<trkpt lat="41.9145040" lon="1.8715990">
<ele>474.939331</ele>
<time>2022-09-08T08:24:41.999Z</time>
</trkpt>
<trkpt lat="41.9145180" lon="1.8715710">
<ele>475.183197</ele>
<time>2022-09-08T08:24:43.001Z</time>
</trkpt>
<trkpt lat="41.9145320" lon="1.8715290">
<ele>475.518463</ele>
<time>2022-09-08T08:24:44.004Z</time>
</trkpt>
<trkpt lat="41.9145420" lon="1.8714850">
<ele>475.945190</ele>
<time>2022-09-08T08:24:44.997Z</time>
</trkpt>
<trkpt lat="41.9145520" lon="1.8714360">
<ele>476.463348</ele>
<time>2022-09-08T08:24:45.999Z</time>
</trkpt>
<trkpt lat="41.9145630" lon="1.8713980">
<ele>476.890076</ele>
<time>2022-09-08T08:24:47.002Z</time>
</trkpt>
<trkpt lat="41.9145730" lon="1.8713700">
<ele>477.225342</ele>
<time>2022-09-08T08:24:48.004Z</time>
</trkpt>
<trkpt lat="41.9145800" lon="1.8713440">
<ele>477.560669</ele>
<time>2022-09-08T08:24:48.997Z</time>
</trkpt>
<trkpt lat="41.9145850" lon="1.8713160">
<ele>477.956879</ele>
<time>2022-09-08T08:24:50.000Z</time>
</trkpt>
<trkpt lat="41.9145950" lon="1.8712650">
<ele>478.810333</ele>
<time>2022-09-08T08:24:51.002Z</time>
</trkpt>
<trkpt lat="41.9145980" lon="1.8712310">
<ele>479.358948</ele>
<time>2022-09-08T08:24:52.004Z</time>
</trkpt>
<trkpt lat="41.9146050" lon="1.8712030">
<ele>479.816132</ele>
<time>2022-09-08T08:24:52.998Z</time>
</trkpt>
<trkpt lat="41.9146100" lon="1.8711770">
<ele>480.242859</ele>
<time>2022-09-08T08:24:54.000Z</time>
</trkpt>
<trkpt lat="41.9146100" lon="1.8711400">
<ele>480.821991</ele>
<time>2022-09-08T08:24:55.002Z</time>
</trkpt>
<trkpt lat="41.9146130" lon="1.8711050">
<ele>481.340149</ele>
<time>2022-09-08T08:24:55.996Z</time>
</trkpt>
<trkpt lat="41.9146130" lon="1.8710730">
<ele>481.858337</ele>
<time>2022-09-08T08:24:56.998Z</time>
</trkpt>
<trkpt lat="41.9146150" lon="1.8710390">
<ele>482.437469</ele>
<time>2022-09-08T08:24:58.000Z</time>
</trkpt>
<trkpt lat="41.9146130" lon="1.8710100">
<ele>482.864136</ele>
<time>2022-09-08T08:24:59.003Z</time>
</trkpt>
<trkpt lat="41.9146110" lon="1.8709800">
<ele>483.382324</ele>
<time>2022-09-08T08:24:59.996Z</time>
</trkpt>
<trkpt lat="41.9146180" lon="1.8709470">
<ele>483.991913</ele>
<time>2022-09-08T08:25:00.998Z</time>
</trkpt>
<trkpt lat="41.9146290" lon="1.8709110">
<ele>484.723450</ele>
<time>2022-09-08T08:25:02.001Z</time>
</trkpt>
<trkpt lat="41.9146390" lon="1.8708830">
<ele>485.272064</ele>
<time>2022-09-08T08:25:03.003Z</time>
</trkpt>
<trkpt lat="41.9146480" lon="1.8708580">
<ele>485.820740</ele>
<time>2022-09-08T08:25:03.996Z</time>
</trkpt>
<trkpt lat="41.9146500" lon="1.8708360">
<ele>486.247467</ele>
<time>2022-09-08T08:25:04.999Z</time>
</trkpt>
<trkpt lat="41.9146620" lon="1.8708000">
<ele>487.039917</ele>
<time>2022-09-08T08:25:06.001Z</time>
</trkpt>
<trkpt lat="41.9146780" lon="1.8707750">
<ele>487.679993</ele>
<time>2022-09-08T08:25:07.003Z</time>
</trkpt>
<trkpt lat="41.9146970" lon="1.8707520">
<ele>488.289612</ele>
<time>2022-09-08T08:25:07.997Z</time>
</trkpt>
<trkpt lat="41.9147180" lon="1.8707210">
<ele>489.112549</ele>
<time>2022-09-08T08:25:08.999Z</time>
</trkpt>
<trkpt lat="41.9147380" lon="1.8706980">
<ele>489.752655</ele>
<time>2022-09-08T08:25:10.001Z</time>
</trkpt>
<trkpt lat="41.9147630" lon="1.8706720">
<ele>490.484131</ele>
<time>2022-09-08T08:25:11.004Z</time>
</trkpt>
<trkpt lat="41.9147910" lon="1.8706460">
<ele>491.185211</ele>
<time>2022-09-08T08:25:11.997Z</time>
</trkpt>
<trkpt lat="41.9148160" lon="1.8706230">
<ele>491.825287</ele>
<time>2022-09-08T08:25:12.999Z</time>
</trkpt>
<trkpt lat="41.9148350" lon="1.8706010">
<ele>492.373932</ele>
<time>2022-09-08T08:25:14.002Z</time>
</trkpt>
<trkpt lat="41.9148620" lon="1.8705730">
<ele>493.074951</ele>
<time>2022-09-08T08:25:15.004Z</time>
</trkpt>
<trkpt lat="41.9148860" lon="1.8705600">
<ele>493.410248</ele>
<time>2022-09-08T08:25:15.997Z</time>
</trkpt>
<trkpt lat="41.9149210" lon="1.8705390">
<ele>493.867462</ele>
<time>2022-09-08T08:25:17.000Z</time>
</trkpt>
<trkpt lat="41.9149550" lon="1.8705040">
<ele>494.598938</ele>
<time>2022-09-08T08:25:18.002Z</time>
</trkpt>
<trkpt lat="41.9149910" lon="1.8704680">
<ele>495.299988</ele>
<time>2022-09-08T08:25:19.004Z</time>
</trkpt>
<trkpt lat="41.9150340" lon="1.8704360">
<ele>495.726715</ele>
<time>2022-09-08T08:25:19.998Z</time>
</trkpt>
<trkpt lat="41.9150790" lon="1.8704070">
<ele>496.001068</ele>
<time>2022-09-08T08:25:21.000Z</time>
</trkpt>
<trkpt lat="41.9151110" lon="1.8703650">
<ele>496.641113</ele>
<time>2022-09-08T08:25:22.002Z</time>
</trkpt>
<trkpt lat="41.9151570" lon="1.8702920">
<ele>497.555542</ele>
<time>2022-09-08T08:25:22.996Z</time>
</trkpt>
<trkpt lat="41.9151980" lon="1.8702190">
<ele>498.134644</ele>
<time>2022-09-08T08:25:23.998Z</time>
</trkpt>
<trkpt lat="41.9152370" lon="1.8701480">
<ele>498.378479</ele>
<time>2022-09-08T08:25:25.000Z</time>
</trkpt>
<trkpt lat="41.9152660" lon="1.8700880">
<ele>498.439453</ele>
<time>2022-09-08T08:25:26.003Z</time>
</trkpt>
<trkpt lat="41.9153020" lon="1.8700060">
<ele>498.165131</ele>
<time>2022-09-08T08:25:26.996Z</time>
</trkpt>
<trkpt lat="41.9153460" lon="1.8699150">
<ele>497.403137</ele>
<time>2022-09-08T08:25:27.998Z</time>
</trkpt>
<trkpt lat="41.9153900" lon="1.8698450">
<ele>496.092468</ele>
<time>2022-09-08T08:25:29.001Z</time>
</trkpt>
<trkpt lat="41.9154340" lon="1.8697700">
<ele>494.690399</ele>
<time>2022-09-08T08:25:30.003Z</time>
</trkpt>
<trkpt lat="41.9154640" lon="1.8697020">
<ele>493.958862</ele>
<time>2022-09-08T08:25:30.996Z</time>
</trkpt>
<trkpt lat="41.9154780" lon="1.8696160">
<ele>493.379730</ele>
<time>2022-09-08T08:25:31.999Z</time>
</trkpt>
<trkpt lat="41.9154920" lon="1.8694950">
<ele>492.800659</ele>
<time>2022-09-08T08:25:33.001Z</time>
</trkpt>
<trkpt lat="41.9154860" lon="1.8693990">
<ele>492.678741</ele>
<time>2022-09-08T08:25:34.003Z</time>
</trkpt>
<trkpt lat="41.9154770" lon="1.8693130">
<ele>492.465332</ele>
<time>2022-09-08T08:25:34.997Z</time>
</trkpt>
<trkpt lat="41.9154310" lon="1.8692380">
<ele>493.471191</ele>
<time>2022-09-08T08:25:35.999Z</time>
</trkpt>
<trkpt lat="41.9154000" lon="1.8692070">
<ele>494.416077</ele>
<time>2022-09-08T08:25:37.001Z</time>
</trkpt>
<trkpt lat="41.9153690" lon="1.8691710">
<ele>495.604797</ele>
<time>2022-09-08T08:25:38.004Z</time>
</trkpt>
<trkpt lat="41.9153510" lon="1.8691280">
<ele>496.001068</ele>
<time>2022-09-08T08:25:38.997Z</time>
</trkpt>
<trkpt lat="41.9153380" lon="1.8690710">
<ele>496.336334</ele>
<time>2022-09-08T08:25:39.999Z</time>
</trkpt>
<trkpt lat="41.9153480" lon="1.8690170">
<ele>495.635284</ele>
<time>2022-09-08T08:25:41.002Z</time>
</trkpt>
<trkpt lat="41.9153710" lon="1.8689610">
<ele>494.537994</ele>
<time>2022-09-08T08:25:42.004Z</time>
</trkpt>
<trkpt lat="41.9154000" lon="1.8689120">
<ele>493.257843</ele>
<time>2022-09-08T08:25:42.997Z</time>
</trkpt>
<trkpt lat="41.9154360" lon="1.8688370">
<ele>492.069122</ele>
<time>2022-09-08T08:25:44.000Z</time>
</trkpt>
<trkpt lat="41.9154680" lon="1.8687620">
<ele>491.337585</ele>
<time>2022-09-08T08:25:45.002Z</time>
</trkpt>
<trkpt lat="41.9155030" lon="1.8686940">
<ele>490.484131</ele>
<time>2022-09-08T08:25:46.004Z</time>
</trkpt>
<trkpt lat="41.9155570" lon="1.8686040">
<ele>489.508789</ele>
<time>2022-09-08T08:25:46.998Z</time>
</trkpt>
<trkpt lat="41.9155920" lon="1.8685400">
<ele>489.173523</ele>
<time>2022-09-08T08:25:48.000Z</time>
</trkpt>
<trkpt lat="41.9156200" lon="1.8684590">
<ele>489.325928</ele>
<time>2022-09-08T08:25:49.002Z</time>
</trkpt>
<trkpt lat="41.9156310" lon="1.8683760">
<ele>490.118408</ele>
<time>2022-09-08T08:25:49.996Z</time>
</trkpt>
<trkpt lat="41.9156440" lon="1.8683100">
<ele>490.727997</ele>
<time>2022-09-08T08:25:50.998Z</time>
</trkpt>
<trkpt lat="41.9156680" lon="1.8682710">
<ele>490.788940</ele>
<time>2022-09-08T08:25:52.000Z</time>
</trkpt>
<trkpt lat="41.9157030" lon="1.8682570">
<ele>490.240326</ele>
<time>2022-09-08T08:25:53.003Z</time>
</trkpt>
<trkpt lat="41.9157590" lon="1.8682610">
<ele>488.960144</ele>
<time>2022-09-08T08:25:53.996Z</time>
</trkpt>
<trkpt lat="41.9158110" lon="1.8682730">
<ele>487.771454</ele>
<time>2022-09-08T08:25:54.998Z</time>
</trkpt>
<trkpt lat="41.9158630" lon="1.8682770">
<ele>486.674133</ele>
<time>2022-09-08T08:25:56.001Z</time>
</trkpt>
<trkpt lat="41.9158990" lon="1.8682730">
<ele>486.095062</ele>
<time>2022-09-08T08:25:57.003Z</time>
</trkpt>
<trkpt lat="41.9159420" lon="1.8682770">
<ele>485.211121</ele>
<time>2022-09-08T08:25:57.996Z</time>
</trkpt>
<trkpt lat="41.9159830" lon="1.8682750">
<ele>484.571045</ele>
<time>2022-09-08T08:25:58.999Z</time>
</trkpt>
<trkpt lat="41.9160380" lon="1.8682590">
<ele>483.778534</ele>
<time>2022-09-08T08:26:00.001Z</time>
</trkpt>
<trkpt lat="41.9160910" lon="1.8682380">
<ele>483.138458</ele>
<time>2022-09-08T08:26:01.003Z</time>
</trkpt>
<trkpt lat="41.9161390" lon="1.8682120">
<ele>482.711731</ele>
<time>2022-09-08T08:26:01.997Z</time>
</trkpt>
<trkpt lat="41.9161950" lon="1.8681780">
<ele>482.132660</ele>
<time>2022-09-08T08:26:02.999Z</time>
</trkpt>
<trkpt lat="41.9162400" lon="1.8681420">
<ele>481.797333</ele>
<time>2022-09-08T08:26:04.001Z</time>
</trkpt>
<trkpt lat="41.9162750" lon="1.8680990">
<ele>481.736389</ele>
<time>2022-09-08T08:26:05.004Z</time>
</trkpt>
<trkpt lat="41.9163100" lon="1.8680270">
<ele>482.254547</ele>
<time>2022-09-08T08:26:05.997Z</time>
</trkpt>
<trkpt lat="41.9163260" lon="1.8679490">
<ele>483.473755</ele>
<time>2022-09-08T08:26:06.999Z</time>
</trkpt>
<trkpt lat="41.9163250" lon="1.8678570">
<ele>485.333069</ele>
<time>2022-09-08T08:26:08.002Z</time>
</trkpt>
<trkpt lat="41.9163260" lon="1.8677750">
<ele>486.917999</ele>
<time>2022-09-08T08:26:09.004Z</time>
</trkpt>
<trkpt lat="41.9163280" lon="1.8676700">
<ele>488.899200</ele>
<time>2022-09-08T08:26:09.997Z</time>
</trkpt>
<trkpt lat="41.9163250" lon="1.8675880">
<ele>490.636536</ele>
<time>2022-09-08T08:26:11.000Z</time>
</trkpt>
<trkpt lat="41.9162970" lon="1.8675070">
<ele>492.892059</ele>
<time>2022-09-08T08:26:12.002Z</time>
</trkpt>
<trkpt lat="41.9162870" lon="1.8674450">
<ele>494.477051</ele>
<time>2022-09-08T08:26:13.004Z</time>
</trkpt>
<trkpt lat="41.9162940" lon="1.8673650">
<ele>496.062012</ele>
<time>2022-09-08T08:26:13.998Z</time>
</trkpt>
<trkpt lat="41.9163150" lon="1.8673230">
<ele>496.580139</ele>
<time>2022-09-08T08:26:15.000Z</time>
</trkpt>
<trkpt lat="41.9163400" lon="1.8673250">
<ele>495.970551</ele>
<time>2022-09-08T08:26:16.002Z</time>
</trkpt>
<trkpt lat="41.9163780" lon="1.8673310">
<ele>495.056152</ele>
<time>2022-09-08T08:26:16.996Z</time>
</trkpt>
<trkpt lat="41.9164190" lon="1.8673500">
<ele>493.776001</ele>
<time>2022-09-08T08:26:17.998Z</time>
</trkpt>
<trkpt lat="41.9164660" lon="1.8674080">
<ele>491.581451</ele>
<time>2022-09-08T08:26:19.000Z</time>
</trkpt>
<trkpt lat="41.9165260" lon="1.8674500">
<ele>489.539276</ele>
<time>2022-09-08T08:26:20.003Z</time>
</trkpt>
<trkpt lat="41.9165880" lon="1.8675040">
<ele>487.314270</ele>
<time>2022-09-08T08:26:20.996Z</time>
</trkpt>
<trkpt lat="41.9166520" lon="1.8675170">
<ele>485.973114</ele>
<time>2022-09-08T08:26:21.998Z</time>
</trkpt>
<trkpt lat="41.9166960" lon="1.8675260">
<ele>485.119659</ele>
<time>2022-09-08T08:26:23.001Z</time>
</trkpt>
<trkpt lat="41.9167550" lon="1.8675370">
<ele>483.991913</ele>
<time>2022-09-08T08:26:24.003Z</time>
</trkpt>
<trkpt lat="41.9168110" lon="1.8675460">
<ele>482.955597</ele>
<time>2022-09-08T08:26:24.996Z</time>
</trkpt>
<trkpt lat="41.9168690" lon="1.8675240">
<ele>482.620331</ele>
<time>2022-09-08T08:26:25.999Z</time>
</trkpt>
<trkpt lat="41.9169330" lon="1.8674620">
<ele>483.077515</ele>
<time>2022-09-08T08:26:27.001Z</time>
</trkpt>
<trkpt lat="41.9169790" lon="1.8674110">
<ele>483.443268</ele>
<time>2022-09-08T08:26:28.003Z</time>
</trkpt>
<trkpt lat="41.9170170" lon="1.8673470">
<ele>484.205261</ele>
<time>2022-09-08T08:26:28.997Z</time>
</trkpt>
<trkpt lat="41.9170490" lon="1.8672660">
<ele>485.454956</ele>
<time>2022-09-08T08:26:29.999Z</time>
</trkpt>
<trkpt lat="41.9170740" lon="1.8671900">
<ele>486.735138</ele>
<time>2022-09-08T08:26:31.001Z</time>
</trkpt>
<trkpt lat="41.9170920" lon="1.8671030">
<ele>488.411530</ele>
<time>2022-09-08T08:26:32.004Z</time>
</trkpt>
<trkpt lat="41.9171090" lon="1.8670380">
<ele>489.630737</ele>
<time>2022-09-08T08:26:32.997Z</time>
</trkpt>
<trkpt lat="41.9171400" lon="1.8669720">
<ele>490.606079</ele>
<time>2022-09-08T08:26:33.999Z</time>
</trkpt>
<trkpt lat="41.9171780" lon="1.8669320">
<ele>490.819458</ele>
<time>2022-09-08T08:26:35.002Z</time>
</trkpt>
<trkpt lat="41.9172310" lon="1.8669160">
<ele>490.331757</ele>
<time>2022-09-08T08:26:36.004Z</time>
</trkpt>
<trkpt lat="41.9172840" lon="1.8669390">
<ele>489.143066</ele>
<time>2022-09-08T08:26:36.997Z</time>
</trkpt>
<trkpt lat="41.9173310" lon="1.8669640">
<ele>487.923859</ele>
<time>2022-09-08T08:26:38.000Z</time>
</trkpt>
<trkpt lat="41.9173690" lon="1.8670000">
<ele>486.674133</ele>
<time>2022-09-08T08:26:39.002Z</time>
</trkpt>
<trkpt lat="41.9174150" lon="1.8670710">
<ele>484.601532</ele>
<time>2022-09-08T08:26:40.004Z</time>
</trkpt>
<trkpt lat="41.9174660" lon="1.8671340">
<ele>482.772736</ele>
<time>2022-09-08T08:26:40.998Z</time>
</trkpt>
<trkpt lat="41.9175270" lon="1.8671950">
<ele>481.004883</ele>
<time>2022-09-08T08:26:42.000Z</time>
</trkpt>
<trkpt lat="41.9175830" lon="1.8672520">
<ele>479.511353</ele>
<time>2022-09-08T08:26:43.002Z</time>
</trkpt>
<trkpt lat="41.9176240" lon="1.8672970">
<ele>478.414063</ele>
<time>2022-09-08T08:26:43.996Z</time>
</trkpt>
<trkpt lat="41.9176650" lon="1.8673340">
<ele>477.499664</ele>
<time>2022-09-08T08:26:44.998Z</time>
</trkpt>
<trkpt lat="41.9177200" lon="1.8673810">
<ele>476.250000</ele>
<time>2022-09-08T08:26:46.000Z</time>
</trkpt>
<trkpt lat="41.9177940" lon="1.8674210">
<ele>474.847931</ele>
<time>2022-09-08T08:26:47.003Z</time>
</trkpt>
<trkpt lat="41.9178600" lon="1.8674160">
<ele>473.903046</ele>
<time>2022-09-08T08:26:47.996Z</time>
</trkpt>
<trkpt lat="41.9179090" lon="1.8673700">
<ele>473.415344</ele>
<time>2022-09-08T08:26:48.998Z</time>
</trkpt>
<trkpt lat="41.9179500" lon="1.8673220">
<ele>472.988647</ele>
<time>2022-09-08T08:26:50.001Z</time>
</trkpt>
<trkpt lat="41.9179990" lon="1.8672520">
<ele>472.531464</ele>
<time>2022-09-08T08:26:51.003Z</time>
</trkpt>
<trkpt lat="41.9180470" lon="1.8671550">
<ele>472.165680</ele>
<time>2022-09-08T08:26:51.996Z</time>
</trkpt>
<trkpt lat="41.9180800" lon="1.8670630">
<ele>472.257141</ele>
<time>2022-09-08T08:26:52.999Z</time>
</trkpt>
<trkpt lat="41.9180920" lon="1.8669780">
<ele>472.958130</ele>
<time>2022-09-08T08:26:54.001Z</time>
</trkpt>
<trkpt lat="41.9180970" lon="1.8669080">
<ele>473.537262</ele>
<time>2022-09-08T08:26:55.003Z</time>
</trkpt>
<trkpt lat="41.9180950" lon="1.8667780">
<ele>475.030792</ele>
<time>2022-09-08T08:26:55.997Z</time>
</trkpt>
<trkpt lat="41.9180790" lon="1.8667080">
<ele>476.250000</ele>
<time>2022-09-08T08:26:56.999Z</time>
</trkpt>
<trkpt lat="41.9180470" lon="1.8666390">
<ele>477.987335</ele>
<time>2022-09-08T08:26:58.001Z</time>
</trkpt>
<trkpt lat="41.9180060" lon="1.8665710">
<ele>480.151459</ele>
<time>2022-09-08T08:26:59.004Z</time>
</trkpt>
<trkpt lat="41.9179770" lon="1.8664980">
<ele>482.071686</ele>
<time>2022-09-08T08:26:59.997Z</time>
</trkpt>
<trkpt lat="41.9179570" lon="1.8664440">
<ele>483.473755</ele>
<time>2022-09-08T08:27:00.999Z</time>
</trkpt>
<trkpt lat="41.9179430" lon="1.8663790">
<ele>484.936798</ele>
<time>2022-09-08T08:27:02.002Z</time>
</trkpt>
<trkpt lat="41.9179500" lon="1.8662900">
<ele>486.156006</ele>
<time>2022-09-08T08:27:03.004Z</time>
</trkpt>
<trkpt lat="41.9179760" lon="1.8662180">
<ele>486.521759</ele>
<time>2022-09-08T08:27:03.997Z</time>
</trkpt>
<trkpt lat="41.9180040" lon="1.8661670">
<ele>486.460785</ele>
<time>2022-09-08T08:27:05.000Z</time>
</trkpt>
<trkpt lat="41.9180430" lon="1.8661340">
<ele>485.668335</ele>
<time>2022-09-08T08:27:06.002Z</time>
</trkpt>
<trkpt lat="41.9181060" lon="1.8660920">
<ele>484.113861</ele>
<time>2022-09-08T08:27:07.004Z</time>
</trkpt>
<trkpt lat="41.9181510" lon="1.8660510">
<ele>483.168945</ele>
<time>2022-09-08T08:27:07.998Z</time>
</trkpt>
<trkpt lat="41.9182150" lon="1.8659870">
<ele>481.919281</ele>
<time>2022-09-08T08:27:09.000Z</time>
</trkpt>
<trkpt lat="41.9182520" lon="1.8659430">
<ele>481.431610</ele>
<time>2022-09-08T08:27:10.002Z</time>
</trkpt>
<trkpt lat="41.9182730" lon="1.8658800">
<ele>481.584015</ele>
<time>2022-09-08T08:27:10.996Z</time>
</trkpt>
<trkpt lat="41.9182800" lon="1.8658130">
<ele>482.346008</ele>
<time>2022-09-08T08:27:11.998Z</time>
</trkpt>
<trkpt lat="41.9182830" lon="1.8657450">
<ele>483.412811</ele>
<time>2022-09-08T08:27:13.000Z</time>
</trkpt>
<trkpt lat="41.9183060" lon="1.8656710">
<ele>483.930939</ele>
<time>2022-09-08T08:27:14.003Z</time>
</trkpt>
<trkpt lat="41.9183530" lon="1.8655910">
<ele>483.839539</ele>
<time>2022-09-08T08:27:14.996Z</time>
</trkpt>
<trkpt lat="41.9183960" lon="1.8655560">
<ele>483.290863</ele>
<time>2022-09-08T08:27:15.998Z</time>
</trkpt>
<trkpt lat="41.9184480" lon="1.8655330">
<ele>482.254547</ele>
<time>2022-09-08T08:27:17.001Z</time>
</trkpt>
<trkpt lat="41.9185020" lon="1.8655290">
<ele>480.913452</ele>
<time>2022-09-08T08:27:18.003Z</time>
</trkpt>
<trkpt lat="41.9185350" lon="1.8655420">
<ele>479.877136</ele>
<time>2022-09-08T08:27:18.996Z</time>
</trkpt>
<trkpt lat="41.9186010" lon="1.8655490">
<ele>478.078796</ele>
<time>2022-09-08T08:27:19.999Z</time>
</trkpt>
<trkpt lat="41.9186580" lon="1.8655400">
<ele>477.011993</ele>
<time>2022-09-08T08:27:21.001Z</time>
</trkpt>
<trkpt lat="41.9187310" lon="1.8655150">
<ele>476.128082</ele>
<time>2022-09-08T08:27:22.003Z</time>
</trkpt>
<trkpt lat="41.9188020" lon="1.8654820">
<ele>475.152740</ele>
<time>2022-09-08T08:27:22.997Z</time>
</trkpt>
<trkpt lat="41.9188720" lon="1.8654110">
<ele>474.969849</ele>
<time>2022-09-08T08:27:23.999Z</time>
</trkpt>
<trkpt lat="41.9189320" lon="1.8653430">
<ele>475.091736</ele>
<time>2022-09-08T08:27:25.001Z</time>
</trkpt>
<trkpt lat="41.9189850" lon="1.8652850">
<ele>475.366058</ele>
<time>2022-09-08T08:27:26.004Z</time>
</trkpt>
<trkpt lat="41.9190250" lon="1.8652530">
<ele>475.335602</ele>
<time>2022-09-08T08:27:26.997Z</time>
</trkpt>
<trkpt lat="41.9190800" lon="1.8652370">
<ele>474.908875</ele>
<time>2022-09-08T08:27:27.999Z</time>
</trkpt>
<trkpt lat="41.9191300" lon="1.8652570">
<ele>473.872559</ele>
<time>2022-09-08T08:27:29.002Z</time>
</trkpt>
<trkpt lat="41.9191680" lon="1.8653080">
<ele>472.409515</ele>
<time>2022-09-08T08:27:30.004Z</time>
</trkpt>
<trkpt lat="41.9191960" lon="1.8653730">
<ele>470.855042</ele>
<time>2022-09-08T08:27:30.997Z</time>
</trkpt>
<trkpt lat="41.9192230" lon="1.8654440">
<ele>469.239594</ele>
<time>2022-09-08T08:27:32.000Z</time>
</trkpt>
<trkpt lat="41.9192570" lon="1.8655160">
<ele>467.776550</ele>
<time>2022-09-08T08:27:33.002Z</time>
</trkpt>
<trkpt lat="41.9192830" lon="1.8655780">
<ele>466.740265</ele>
<time>2022-09-08T08:27:34.004Z</time>
</trkpt>
<trkpt lat="41.9193060" lon="1.8656470">
<ele>465.825867</ele>
<time>2022-09-08T08:27:34.998Z</time>
</trkpt>
<trkpt lat="41.9193240" lon="1.8657190">
<ele>465.033356</ele>
<time>2022-09-08T08:27:36.000Z</time>
</trkpt>
<trkpt lat="41.9193370" lon="1.8657700">
<ele>464.545685</ele>
<time>2022-09-08T08:27:37.002Z</time>
</trkpt>
<trkpt lat="41.9193480" lon="1.8658250">
<ele>464.088470</ele>
<time>2022-09-08T08:27:37.996Z</time>
</trkpt>
<trkpt lat="41.9193530" lon="1.8658780">
<ele>463.600800</ele>
<time>2022-09-08T08:27:38.998Z</time>
</trkpt>
<trkpt lat="41.9193570" lon="1.8659330">
<ele>463.113129</ele>
<time>2022-09-08T08:27:40.000Z</time>
</trkpt>
<trkpt lat="41.9193490" lon="1.8659810">
<ele>462.625458</ele>
<time>2022-09-08T08:27:41.003Z</time>
</trkpt>
<trkpt lat="41.9193500" lon="1.8660270">
<ele>462.168243</ele>
<time>2022-09-08T08:27:41.996Z</time>
</trkpt>
<trkpt lat="41.9193430" lon="1.8660630">
<ele>461.741516</ele>
<time>2022-09-08T08:27:42.998Z</time>
</trkpt>
<trkpt lat="41.9193240" lon="1.8660950">
<ele>461.314789</ele>
<time>2022-09-08T08:27:44.001Z</time>
</trkpt>
<trkpt lat="41.9193190" lon="1.8661550">
<ele>460.583282</ele>
<time>2022-09-08T08:27:45.003Z</time>
</trkpt>
<trkpt lat="41.9193250" lon="1.8662090">
<ele>459.912720</ele>
<time>2022-09-08T08:27:45.996Z</time>
</trkpt>
<trkpt lat="41.9193290" lon="1.8662530">
<ele>459.272644</ele>
<time>2022-09-08T08:27:46.999Z</time>
</trkpt>
<trkpt lat="41.9193400" lon="1.8663010">
<ele>458.571594</ele>
<time>2022-09-08T08:27:48.001Z</time>
</trkpt>
<trkpt lat="41.9193690" lon="1.8663310">
<ele>458.266815</ele>
<time>2022-09-08T08:27:49.003Z</time>
</trkpt>
<trkpt lat="41.9194070" lon="1.8663450">
<ele>458.297272</ele>
<time>2022-09-08T08:27:49.997Z</time>
</trkpt>
<trkpt lat="41.9194220" lon="1.8663310">
<ele>458.663055</ele>
<time>2022-09-08T08:27:50.999Z</time>
</trkpt>
<trkpt lat="41.9194480" lon="1.8662990">
<ele>459.425049</ele>
<time>2022-09-08T08:27:52.001Z</time>
</trkpt>
<trkpt lat="41.9194660" lon="1.8662680">
<ele>460.065125</ele>
<time>2022-09-08T08:27:53.004Z</time>
</trkpt>
<trkpt lat="41.9194800" lon="1.8662370">
<ele>460.735687</ele>
<time>2022-09-08T08:27:53.997Z</time>
</trkpt>
<trkpt lat="41.9194890" lon="1.8662060">
<ele>461.345276</ele>
<time>2022-09-08T08:27:54.999Z</time>
</trkpt>
<trkpt lat="41.9194940" lon="1.8661770">
<ele>461.832947</ele>
<time>2022-09-08T08:27:56.002Z</time>
</trkpt>
<trkpt lat="41.9194980" lon="1.8661520">
<ele>462.198730</ele>
<time>2022-09-08T08:27:57.004Z</time>
</trkpt>
<trkpt lat="41.9195030" lon="1.8661280">
<ele>462.564484</ele>
<time>2022-09-08T08:27:57.997Z</time>
</trkpt>
<trkpt lat="41.9195070" lon="1.8661070">
<ele>462.869263</ele>
<time>2022-09-08T08:27:59.000Z</time>
</trkpt>
<trkpt lat="41.9195130" lon="1.8660890">
<ele>463.204559</ele>
<time>2022-09-08T08:28:00.002Z</time>
</trkpt>
<trkpt lat="41.9195190" lon="1.8660720">
<ele>463.448395</ele>
<time>2022-09-08T08:28:01.004Z</time>
</trkpt>
<trkpt lat="41.9195280" lon="1.8660490">
<ele>463.875122</ele>
<time>2022-09-08T08:28:01.998Z</time>
</trkpt>
<trkpt lat="41.9195380" lon="1.8660210">
<ele>464.301849</ele>
<time>2022-09-08T08:28:03.000Z</time>
</trkpt>
<trkpt lat="41.9195510" lon="1.8659970">
<ele>464.789520</ele>
<time>2022-09-08T08:28:04.002Z</time>
</trkpt>
<trkpt lat="41.9195710" lon="1.8659740">
<ele>465.368652</ele>
<time>2022-09-08T08:28:04.996Z</time>
</trkpt>
<trkpt lat="41.9195950" lon="1.8659510">
<ele>465.917267</ele>
<time>2022-09-08T08:28:05.998Z</time>
</trkpt>
<trkpt lat="41.9196250" lon="1.8659310">
<ele>466.465942</ele>
<time>2022-09-08T08:28:07.000Z</time>
</trkpt>
<trkpt lat="41.9196700" lon="1.8659250">
<ele>467.136475</ele>
<time>2022-09-08T08:28:08.003Z</time>
</trkpt>
<trkpt lat="41.9196990" lon="1.8659260">
<ele>467.593658</ele>
<time>2022-09-08T08:28:08.996Z</time>
</trkpt>
<trkpt lat="41.9197300" lon="1.8659270">
<ele>468.050873</ele>
<time>2022-09-08T08:28:09.998Z</time>
</trkpt>
<trkpt lat="41.9197580" lon="1.8659220">
<ele>468.569061</ele>
<time>2022-09-08T08:28:11.001Z</time>
</trkpt>
<trkpt lat="41.9197780" lon="1.8659170">
<ele>468.965271</ele>
<time>2022-09-08T08:28:12.003Z</time>
</trkpt>
<trkpt lat="41.9197990" lon="1.8659070">
<ele>469.483459</ele>
<time>2022-09-08T08:28:12.996Z</time>
</trkpt>
<trkpt lat="41.9198160" lon="1.8658980">
<ele>469.849213</ele>
<time>2022-09-08T08:28:13.999Z</time>
</trkpt>
<trkpt lat="41.9198390" lon="1.8658830">
<ele>470.458801</ele>
<time>2022-09-08T08:28:15.001Z</time>
</trkpt>
<trkpt lat="41.9198620" lon="1.8658690">
<ele>471.068390</ele>
<time>2022-09-08T08:28:16.003Z</time>
</trkpt>
<trkpt lat="41.9198930" lon="1.8658520">
<ele>471.891357</ele>
<time>2022-09-08T08:28:16.997Z</time>
</trkpt>
<trkpt lat="41.9199170" lon="1.8658420">
<ele>472.592407</ele>
<time>2022-09-08T08:28:17.999Z</time>
</trkpt>
<trkpt lat="41.9199520" lon="1.8658360">
<ele>473.415344</ele>
<time>2022-09-08T08:28:19.001Z</time>
</trkpt>
<trkpt lat="41.9199730" lon="1.8658390">
<ele>473.842072</ele>
<time>2022-09-08T08:28:20.004Z</time>
</trkpt>
<trkpt lat="41.9200050" lon="1.8658410">
<ele>474.604065</ele>
<time>2022-09-08T08:28:20.997Z</time>
</trkpt>
<trkpt lat="41.9200330" lon="1.8658320">
<ele>475.335602</ele>
<time>2022-09-08T08:28:21.999Z</time>
</trkpt>
<trkpt lat="41.9200620" lon="1.8658200">
<ele>476.219513</ele>
<time>2022-09-08T08:28:23.002Z</time>
</trkpt>
<trkpt lat="41.9200930" lon="1.8658090">
<ele>477.103455</ele>
<time>2022-09-08T08:28:24.004Z</time>
</trkpt>
<trkpt lat="41.9201260" lon="1.8657990">
<ele>478.078796</ele>
<time>2022-09-08T08:28:24.997Z</time>
</trkpt>
<trkpt lat="41.9201560" lon="1.8657950">
<ele>478.779846</ele>
<time>2022-09-08T08:28:26.000Z</time>
</trkpt>
<trkpt lat="41.9201810" lon="1.8657940">
<ele>479.480865</ele>
<time>2022-09-08T08:28:27.002Z</time>
</trkpt>
<trkpt lat="41.9202130" lon="1.8658070">
<ele>480.059998</ele>
<time>2022-09-08T08:28:28.004Z</time>
</trkpt>
<trkpt lat="41.9202520" lon="1.8658230">
<ele>480.882935</ele>
<time>2022-09-08T08:28:28.998Z</time>
</trkpt>
<trkpt lat="41.9202910" lon="1.8658430">
<ele>481.523041</ele>
<time>2022-09-08T08:28:30.000Z</time>
</trkpt>
<trkpt lat="41.9203230" lon="1.8658550">
<ele>482.041199</ele>
<time>2022-09-08T08:28:31.002Z</time>
</trkpt>
<trkpt lat="41.9203560" lon="1.8658600">
<ele>482.772736</ele>
<time>2022-09-08T08:28:31.996Z</time>
</trkpt>
<trkpt lat="41.9203840" lon="1.8658640">
<ele>483.290863</ele>
<time>2022-09-08T08:28:32.998Z</time>
</trkpt>
<trkpt lat="41.9204080" lon="1.8658730">
<ele>483.656647</ele>
<time>2022-09-08T08:28:34.000Z</time>
</trkpt>
<trkpt lat="41.9204260" lon="1.8658880">
<ele>483.778534</ele>
<time>2022-09-08T08:28:35.003Z</time>
</trkpt>
<trkpt lat="41.9204380" lon="1.8659040">
<ele>483.687134</ele>
<time>2022-09-08T08:28:35.996Z</time>
</trkpt>
<trkpt lat="41.9204640" lon="1.8659260">
<ele>483.687134</ele>
<time>2022-09-08T08:28:36.998Z</time>
</trkpt>
<trkpt lat="41.9204910" lon="1.8659490">
<ele>483.626160</ele>
<time>2022-09-08T08:28:38.001Z</time>
</trkpt>
<trkpt lat="41.9205180" lon="1.8659800">
<ele>483.382324</ele>
<time>2022-09-08T08:28:39.003Z</time>
</trkpt>
<trkpt lat="41.9205460" lon="1.8660160">
<ele>483.016541</ele>
<time>2022-09-08T08:28:39.996Z</time>
</trkpt>
<trkpt lat="41.9205840" lon="1.8660560">
<ele>482.620331</ele>
<time>2022-09-08T08:28:40.999Z</time>
</trkpt>
<trkpt lat="41.9206170" lon="1.8660870">
<ele>482.224060</ele>
<time>2022-09-08T08:28:42.001Z</time>
</trkpt>
<trkpt lat="41.9206440" lon="1.8661220">
<ele>481.736389</ele>
<time>2022-09-08T08:28:43.003Z</time>
</trkpt>
<trkpt lat="41.9206490" lon="1.8661650">
<ele>480.882935</ele>
<time>2022-09-08T08:28:43.997Z</time>
</trkpt>
<trkpt lat="41.9206530" lon="1.8662180">
<ele>479.816132</ele>
<time>2022-09-08T08:28:44.999Z</time>
</trkpt>
<trkpt lat="41.9206600" lon="1.8662720">
<ele>478.779846</ele>
<time>2022-09-08T08:28:46.001Z</time>
</trkpt>
<trkpt lat="41.9206810" lon="1.8663480">
<ele>477.652069</ele>
<time>2022-09-08T08:28:47.004Z</time>
</trkpt>
<trkpt lat="41.9206880" lon="1.8663880">
<ele>477.072937</ele>
<time>2022-09-08T08:28:47.997Z</time>
</trkpt>
<trkpt lat="41.9206890" lon="1.8664190">
<ele>476.615753</ele>
<time>2022-09-08T08:28:48.999Z</time>
</trkpt>
<trkpt lat="41.9206980" lon="1.8664550">
<ele>476.128082</ele>
<time>2022-09-08T08:28:50.002Z</time>
</trkpt>
<trkpt lat="41.9207070" lon="1.8664890">
<ele>475.731842</ele>
<time>2022-09-08T08:28:51.004Z</time>
</trkpt>
<trkpt lat="41.9207190" lon="1.8665110">
<ele>475.518463</ele>
<time>2022-09-08T08:28:51.997Z</time>
</trkpt>
<trkpt lat="41.9207320" lon="1.8665340">
<ele>475.274658</ele>
<time>2022-09-08T08:28:53.000Z</time>
</trkpt>
<trkpt lat="41.9207400" lon="1.8665650">
<ele>474.939331</ele>
<time>2022-09-08T08:28:54.002Z</time>
</trkpt>
<trkpt lat="41.9207550" lon="1.8666120">
<ele>474.451660</ele>
<time>2022-09-08T08:28:55.004Z</time>
</trkpt>
<trkpt lat="41.9207570" lon="1.8666410">
<ele>474.116394</ele>
<time>2022-09-08T08:28:55.998Z</time>
</trkpt>
<trkpt lat="41.9207570" lon="1.8666680">
<ele>473.781128</ele>
<time>2022-09-08T08:28:57.000Z</time>
</trkpt>
<trkpt lat="41.9207560" lon="1.8666890">
<ele>473.537262</ele>
<time>2022-09-08T08:28:58.002Z</time>
</trkpt>
<trkpt lat="41.9207540" lon="1.8667080">
<ele>473.262939</ele>
<time>2022-09-08T08:28:58.996Z</time>
</trkpt>
<trkpt lat="41.9207490" lon="1.8667320">
<ele>472.958130</ele>
<time>2022-09-08T08:28:59.998Z</time>
</trkpt>
<trkpt lat="41.9207430" lon="1.8667680">
<ele>472.440002</ele>
<time>2022-09-08T08:29:01.000Z</time>
</trkpt>
<trkpt lat="41.9207440" lon="1.8668140">
<ele>471.891357</ele>
<time>2022-09-08T08:29:02.003Z</time>
</trkpt>
<trkpt lat="41.9207530" lon="1.8668520">
<ele>471.464661</ele>
<time>2022-09-08T08:29:02.996Z</time>
</trkpt>
<trkpt lat="41.9207750" lon="1.8668700">
<ele>471.434143</ele>
<time>2022-09-08T08:29:03.998Z</time>
</trkpt>
<trkpt lat="41.9208030" lon="1.8668760">
<ele>471.617065</ele>
<time>2022-09-08T08:29:05.001Z</time>
</trkpt>
<trkpt lat="41.9208310" lon="1.8668720">
<ele>471.891357</ele>
<time>2022-09-08T08:29:06.003Z</time>
</trkpt>
<trkpt lat="41.9208520" lon="1.8668660">
<ele>472.165680</ele>
<time>2022-09-08T08:29:06.996Z</time>
</trkpt>
<trkpt lat="41.9208690" lon="1.8668600">
<ele>472.379059</ele>
<time>2022-09-08T08:29:07.999Z</time>
</trkpt>
<trkpt lat="41.9208750" lon="1.8668560">
<ele>472.500946</ele>
<time>2022-09-08T08:29:09.001Z</time>
</trkpt>
<trkpt lat="41.9208750" lon="1.8668560">
<ele>472.500946</ele>
<time>2022-09-08T08:29:10.003Z</time>
</trkpt>
<trkpt lat="41.9208750" lon="1.8668560">
<ele>472.500946</ele>
<time>2022-09-08T08:29:10.997Z</time>
</trkpt>
<trkpt lat="41.9209460" lon="1.8668260">
<ele>473.476318</ele>
<time>2022-09-08T08:33:52.998Z</time>
</trkpt>
<trkpt lat="41.9209760" lon="1.8668190">
<ele>473.872559</ele>
<time>2022-09-08T08:33:54.000Z</time>
</trkpt>
<trkpt lat="41.9210070" lon="1.8668140">
<ele>474.238342</ele>
<time>2022-09-08T08:33:55.002Z</time>
</trkpt>
<trkpt lat="41.9210370" lon="1.8668150">
<ele>474.543121</ele>
<time>2022-09-08T08:33:55.996Z</time>
</trkpt>
<trkpt lat="41.9210640" lon="1.8668250">
<ele>474.726013</ele>
<time>2022-09-08T08:33:56.998Z</time>
</trkpt>
<trkpt lat="41.9210930" lon="1.8668460">
<ele>474.878387</ele>
<time>2022-09-08T08:33:58.000Z</time>
</trkpt>
<trkpt lat="41.9211220" lon="1.8668800">
<ele>474.847931</ele>
<time>2022-09-08T08:33:59.003Z</time>
</trkpt>
<trkpt lat="41.9211480" lon="1.8669290">
<ele>474.573608</ele>
<time>2022-09-08T08:33:59.996Z</time>
</trkpt>
<trkpt lat="41.9211630" lon="1.8669740">
<ele>474.207855</ele>
<time>2022-09-08T08:34:00.998Z</time>
</trkpt>
<trkpt lat="41.9211760" lon="1.8670140">
<ele>473.872559</ele>
<time>2022-09-08T08:34:02.001Z</time>
</trkpt>
<trkpt lat="41.9211860" lon="1.8670670">
<ele>473.201996</ele>
<time>2022-09-08T08:34:03.003Z</time>
</trkpt>
<trkpt lat="41.9211880" lon="1.8671180">
<ele>472.409515</ele>
<time>2022-09-08T08:34:03.996Z</time>
</trkpt>
<trkpt lat="41.9211940" lon="1.8671680">
<ele>471.617065</ele>
<time>2022-09-08T08:34:04.999Z</time>
</trkpt>
<trkpt lat="41.9212070" lon="1.8672170">
<ele>471.068390</ele>
<time>2022-09-08T08:34:06.001Z</time>
</trkpt>
<trkpt lat="41.9212210" lon="1.8672750">
<ele>470.367340</ele>
<time>2022-09-08T08:34:07.003Z</time>
</trkpt>
<trkpt lat="41.9212410" lon="1.8673310">
<ele>469.818726</ele>
<time>2022-09-08T08:34:07.997Z</time>
</trkpt>
<trkpt lat="41.9212620" lon="1.8673870">
<ele>469.239594</ele>
<time>2022-09-08T08:34:08.999Z</time>
</trkpt>
<trkpt lat="41.9212850" lon="1.8674360">
<ele>468.782410</ele>
<time>2022-09-08T08:34:10.001Z</time>
</trkpt>
<trkpt lat="41.9213120" lon="1.8674720">
<ele>468.569061</ele>
<time>2022-09-08T08:34:11.004Z</time>
</trkpt>
<trkpt lat="41.9213450" lon="1.8675170">
<ele>468.355682</ele>
<time>2022-09-08T08:34:11.997Z</time>
</trkpt>
<trkpt lat="41.9213740" lon="1.8675550">
<ele>468.203278</ele>
<time>2022-09-08T08:34:12.999Z</time>
</trkpt>
<trkpt lat="41.9213970" lon="1.8675850">
<ele>468.111847</ele>
<time>2022-09-08T08:34:14.002Z</time>
</trkpt>
<trkpt lat="41.9214240" lon="1.8676110">
<ele>468.111847</ele>
<time>2022-09-08T08:34:15.004Z</time>
</trkpt>
<trkpt lat="41.9214630" lon="1.8676260">
<ele>468.416656</ele>
<time>2022-09-08T08:34:15.997Z</time>
</trkpt>
<trkpt lat="41.9214960" lon="1.8676430">
<ele>468.660461</ele>
<time>2022-09-08T08:34:17.000Z</time>
</trkpt>
<trkpt lat="41.9215230" lon="1.8676620">
<ele>468.812866</ele>
<time>2022-09-08T08:34:18.002Z</time>
</trkpt>
<trkpt lat="41.9215480" lon="1.8676860">
<ele>468.873840</ele>
<time>2022-09-08T08:34:19.004Z</time>
</trkpt>
<trkpt lat="41.9215760" lon="1.8677090">
<ele>469.056732</ele>
<time>2022-09-08T08:34:19.998Z</time>
</trkpt>
<trkpt lat="41.9216070" lon="1.8677380">
<ele>469.239594</ele>
<time>2022-09-08T08:34:21.000Z</time>
</trkpt>
<trkpt lat="41.9216360" lon="1.8677650">
<ele>469.391998</ele>
<time>2022-09-08T08:34:22.002Z</time>
</trkpt>
<trkpt lat="41.9216630" lon="1.8677870">
<ele>469.605347</ele>
<time>2022-09-08T08:34:22.996Z</time>
</trkpt>
<trkpt lat="41.9216900" lon="1.8678050">
<ele>469.971130</ele>
<time>2022-09-08T08:34:23.998Z</time>
</trkpt>
<trkpt lat="41.9217160" lon="1.8678240">
<ele>470.214935</ele>
<time>2022-09-08T08:34:25.000Z</time>
</trkpt>
<trkpt lat="41.9217420" lon="1.8678450">
<ele>470.519745</ele>
<time>2022-09-08T08:34:26.003Z</time>
</trkpt>
<trkpt lat="41.9217640" lon="1.8678760">
<ele>470.672150</ele>
<time>2022-09-08T08:34:26.996Z</time>
</trkpt>
<trkpt lat="41.9217860" lon="1.8679120">
<ele>470.733124</ele>
<time>2022-09-08T08:34:27.998Z</time>
</trkpt>
<trkpt lat="41.9218060" lon="1.8679500">
<ele>470.580719</ele>
<time>2022-09-08T08:34:29.001Z</time>
</trkpt>
<trkpt lat="41.9218310" lon="1.8679900">
<ele>470.428314</ele>
<time>2022-09-08T08:34:30.003Z</time>
</trkpt>
<trkpt lat="41.9218520" lon="1.8680350">
<ele>470.245453</ele>
<time>2022-09-08T08:34:30.996Z</time>
</trkpt>
<trkpt lat="41.9218670" lon="1.8680780">
<ele>469.940643</ele>
<time>2022-09-08T08:34:31.999Z</time>
</trkpt>
<trkpt lat="41.9218790" lon="1.8681170">
<ele>469.605347</ele>
<time>2022-09-08T08:34:33.001Z</time>
</trkpt>
<trkpt lat="41.9218900" lon="1.8681500">
<ele>469.391998</ele>
<time>2022-09-08T08:34:34.003Z</time>
</trkpt>
<trkpt lat="41.9219000" lon="1.8681810">
<ele>469.209137</ele>
<time>2022-09-08T08:34:34.997Z</time>
</trkpt>
<trkpt lat="41.9219090" lon="1.8682160">
<ele>468.904327</ele>
<time>2022-09-08T08:34:35.999Z</time>
</trkpt>
<trkpt lat="41.9219210" lon="1.8682550">
<ele>468.660461</ele>
<time>2022-09-08T08:34:37.001Z</time>
</trkpt>
<trkpt lat="41.9219340" lon="1.8682870">
<ele>468.508087</ele>
<time>2022-09-08T08:34:38.004Z</time>
</trkpt>
<trkpt lat="41.9219520" lon="1.8683270">
<ele>468.508087</ele>
<time>2022-09-08T08:34:38.997Z</time>
</trkpt>
<trkpt lat="41.9219630" lon="1.8683580">
<ele>468.416656</ele>
<time>2022-09-08T08:34:39.999Z</time>
</trkpt>
<trkpt lat="41.9219790" lon="1.8683950">
<ele>468.416656</ele>
<time>2022-09-08T08:34:41.002Z</time>
</trkpt>
<trkpt lat="41.9219940" lon="1.8684270">
<ele>468.477600</ele>
<time>2022-09-08T08:34:42.004Z</time>
</trkpt>
<trkpt lat="41.9220120" lon="1.8684600">
<ele>468.660461</ele>
<time>2022-09-08T08:34:42.997Z</time>
</trkpt>
<trkpt lat="41.9220330" lon="1.8684940">
<ele>468.873840</ele>
<time>2022-09-08T08:34:44.000Z</time>
</trkpt>
<trkpt lat="41.9220600" lon="1.8685370">
<ele>469.270081</ele>
<time>2022-09-08T08:34:45.002Z</time>
</trkpt>
<trkpt lat="41.9220870" lon="1.8685720">
<ele>469.879669</ele>
<time>2022-09-08T08:34:46.004Z</time>
</trkpt>
<trkpt lat="41.9221240" lon="1.8686010">
<ele>470.550262</ele>
<time>2022-09-08T08:34:46.998Z</time>
</trkpt>
<trkpt lat="41.9221490" lon="1.8686260">
<ele>471.037933</ele>
<time>2022-09-08T08:34:48.000Z</time>
</trkpt>
<trkpt lat="41.9221760" lon="1.8686570">
<ele>471.495117</ele>
<time>2022-09-08T08:34:49.002Z</time>
</trkpt>
<trkpt lat="41.9222020" lon="1.8686910">
<ele>471.952332</ele>
<time>2022-09-08T08:34:49.996Z</time>
</trkpt>
<trkpt lat="41.9222250" lon="1.8687250">
<ele>472.348541</ele>
<time>2022-09-08T08:34:50.998Z</time>
</trkpt>
<trkpt lat="41.9222460" lon="1.8687600">
<ele>472.622864</ele>
<time>2022-09-08T08:34:52.000Z</time>
</trkpt>
<trkpt lat="41.9222660" lon="1.8687940">
<ele>472.866730</ele>
<time>2022-09-08T08:34:53.003Z</time>
</trkpt>
<trkpt lat="41.9222840" lon="1.8688430">
<ele>473.019135</ele>
<time>2022-09-08T08:34:53.996Z</time>
</trkpt>
<trkpt lat="41.9223000" lon="1.8688860">
<ele>473.201996</ele>
<time>2022-09-08T08:34:54.998Z</time>
</trkpt>
<trkpt lat="41.9223140" lon="1.8689250">
<ele>473.415344</ele>
<time>2022-09-08T08:34:56.001Z</time>
</trkpt>
<trkpt lat="41.9223310" lon="1.8689690">
<ele>473.689667</ele>
<time>2022-09-08T08:34:57.003Z</time>
</trkpt>
<trkpt lat="41.9223510" lon="1.8690090">
<ele>474.024933</ele>
<time>2022-09-08T08:34:57.996Z</time>
</trkpt>
<trkpt lat="41.9223690" lon="1.8690480">
<ele>474.299286</ele>
<time>2022-09-08T08:34:58.999Z</time>
</trkpt>
<trkpt lat="41.9223890" lon="1.8690940">
<ele>474.695526</ele>
<time>2022-09-08T08:35:00.001Z</time>
</trkpt>
<trkpt lat="41.9223930" lon="1.8691160">
<ele>474.786957</ele>
<time>2022-09-08T08:35:01.003Z</time>
</trkpt>
<trkpt lat="41.9224040" lon="1.8691320">
<ele>475.000336</ele>
<time>2022-09-08T08:35:01.997Z</time>
</trkpt>
<trkpt lat="41.9224080" lon="1.8691670">
<ele>475.091736</ele>
<time>2022-09-08T08:35:02.999Z</time>
</trkpt>
<trkpt lat="41.9224120" lon="1.8692010">
<ele>475.213684</ele>
<time>2022-09-08T08:35:04.001Z</time>
</trkpt>
<trkpt lat="41.9224060" lon="1.8692310">
<ele>475.152740</ele>
<time>2022-09-08T08:35:05.004Z</time>
</trkpt>
<trkpt lat="41.9223880" lon="1.8692510">
<ele>474.908875</ele>
<time>2022-09-08T08:35:05.997Z</time>
</trkpt>
<trkpt lat="41.9223740" lon="1.8692700">
<ele>474.786957</ele>
<time>2022-09-08T08:35:06.999Z</time>
</trkpt>
<trkpt lat="41.9223580" lon="1.8692860">
<ele>474.604065</ele>
<time>2022-09-08T08:35:08.002Z</time>
</trkpt>
<trkpt lat="41.9223370" lon="1.8693070">
<ele>474.390717</ele>
<time>2022-09-08T08:35:09.004Z</time>
</trkpt>
<trkpt lat="41.9223140" lon="1.8693250">
<ele>474.146881</ele>
<time>2022-09-08T08:35:09.997Z</time>
</trkpt>
<trkpt lat="41.9222920" lon="1.8693420">
<ele>473.903046</ele>
<time>2022-09-08T08:35:11.000Z</time>
</trkpt>
<trkpt lat="41.9222710" lon="1.8693660">
<ele>473.811615</ele>
<time>2022-09-08T08:35:12.002Z</time>
</trkpt>
<trkpt lat="41.9222530" lon="1.8693980">
<ele>473.750641</ele>
<time>2022-09-08T08:35:13.004Z</time>
</trkpt>
<trkpt lat="41.9222360" lon="1.8694330">
<ele>473.781128</ele>
<time>2022-09-08T08:35:13.998Z</time>
</trkpt>
<trkpt lat="41.9222160" lon="1.8694650">
<ele>473.720154</ele>
<time>2022-09-08T08:35:15.000Z</time>
</trkpt>
<trkpt lat="41.9221920" lon="1.8695020">
<ele>473.689667</ele>
<time>2022-09-08T08:35:16.002Z</time>
</trkpt>
<trkpt lat="41.9221640" lon="1.8695310">
<ele>473.567749</ele>
<time>2022-09-08T08:35:16.996Z</time>
</trkpt>
<trkpt lat="41.9221290" lon="1.8695390">
<ele>473.232483</ele>
<time>2022-09-08T08:35:17.998Z</time>
</trkpt>
<trkpt lat="41.9221000" lon="1.8695320">
<ele>472.836243</ele>
<time>2022-09-08T08:35:19.000Z</time>
</trkpt>
<trkpt lat="41.9220740" lon="1.8695170">
<ele>472.379059</ele>
<time>2022-09-08T08:35:20.003Z</time>
</trkpt>
<trkpt lat="41.9220450" lon="1.8694990">
<ele>471.860870</ele>
<time>2022-09-08T08:35:20.996Z</time>
</trkpt>
<trkpt lat="41.9220180" lon="1.8694800">
<ele>471.312256</ele>
<time>2022-09-08T08:35:21.998Z</time>
</trkpt>
<trkpt lat="41.9219790" lon="1.8694510">
<ele>470.580719</ele>
<time>2022-09-08T08:35:23.001Z</time>
</trkpt>
<trkpt lat="41.9219420" lon="1.8694330">
<ele>470.032074</ele>
<time>2022-09-08T08:35:24.003Z</time>
</trkpt>
<trkpt lat="41.9219030" lon="1.8694230">
<ele>469.483459</ele>
<time>2022-09-08T08:35:24.996Z</time>
</trkpt>
<trkpt lat="41.9218570" lon="1.8694170">
<ele>468.995758</ele>
<time>2022-09-08T08:35:25.999Z</time>
</trkpt>
<trkpt lat="41.9217950" lon="1.8694390">
<ele>468.690948</ele>
<time>2022-09-08T08:35:27.001Z</time>
</trkpt>
<trkpt lat="41.9217540" lon="1.8694720">
<ele>468.690948</ele>
<time>2022-09-08T08:35:28.003Z</time>
</trkpt>
<trkpt lat="41.9217200" lon="1.8695080">
<ele>468.782410</ele>
<time>2022-09-08T08:35:28.997Z</time>
</trkpt>
<trkpt lat="41.9216910" lon="1.8695330">
<ele>468.812866</ele>
<time>2022-09-08T08:35:29.999Z</time>
</trkpt>
<trkpt lat="41.9216700" lon="1.8695450">
<ele>468.751923</ele>
<time>2022-09-08T08:35:31.001Z</time>
</trkpt>
<trkpt lat="41.9216290" lon="1.8695500">
<ele>468.508087</ele>
<time>2022-09-08T08:35:32.004Z</time>
</trkpt>
<trkpt lat="41.9215680" lon="1.8695610">
<ele>468.142334</ele>
<time>2022-09-08T08:35:32.997Z</time>
</trkpt>
<trkpt lat="41.9215070" lon="1.8695820">
<ele>467.837524</ele>
<time>2022-09-08T08:35:33.999Z</time>
</trkpt>
<trkpt lat="41.9214620" lon="1.8695910">
<ele>467.532715</ele>
<time>2022-09-08T08:35:35.002Z</time>
</trkpt>
<trkpt lat="41.9214290" lon="1.8695990">
<ele>467.288879</ele>
<time>2022-09-08T08:35:36.004Z</time>
</trkpt>
<trkpt lat="41.9213960" lon="1.8696110">
<ele>467.075531</ele>
<time>2022-09-08T08:35:36.997Z</time>
</trkpt>
<trkpt lat="41.9213540" lon="1.8696290">
<ele>466.831665</ele>
<time>2022-09-08T08:35:38.000Z</time>
</trkpt>
<trkpt lat="41.9213280" lon="1.8696530">
<ele>466.801208</ele>
<time>2022-09-08T08:35:39.002Z</time>
</trkpt>
<trkpt lat="41.9212970" lon="1.8696850">
<ele>466.709747</ele>
<time>2022-09-08T08:35:40.004Z</time>
</trkpt>
<trkpt lat="41.9212660" lon="1.8697150">
<ele>466.587860</ele>
<time>2022-09-08T08:35:40.998Z</time>
</trkpt>
<trkpt lat="41.9212400" lon="1.8697350">
<ele>466.465942</ele>
<time>2022-09-08T08:35:42.000Z</time>
</trkpt>
<trkpt lat="41.9212120" lon="1.8697520">
<ele>466.191589</ele>
<time>2022-09-08T08:35:43.002Z</time>
</trkpt>
<trkpt lat="41.9212000" lon="1.8697650">
<ele>466.161133</ele>
<time>2022-09-08T08:35:43.996Z</time>
</trkpt>
<trkpt lat="41.9211730" lon="1.8697810">
<ele>465.947754</ele>
<time>2022-09-08T08:35:44.998Z</time>
</trkpt>
<trkpt lat="41.9211330" lon="1.8697980">
<ele>465.551514</ele>
<time>2022-09-08T08:35:46.000Z</time>
</trkpt>
<trkpt lat="41.9211060" lon="1.8697940">
<ele>465.155273</ele>
<time>2022-09-08T08:35:47.003Z</time>
</trkpt>
<trkpt lat="41.9210820" lon="1.8697840">
<ele>464.789520</ele>
<time>2022-09-08T08:35:47.996Z</time>
</trkpt>
<trkpt lat="41.9210520" lon="1.8697710">
<ele>464.271332</ele>
<time>2022-09-08T08:35:48.998Z</time>
</trkpt>
<trkpt lat="41.9210250" lon="1.8697590">
<ele>463.783661</ele>
<time>2022-09-08T08:35:50.001Z</time>
</trkpt>
<trkpt lat="41.9209960" lon="1.8697530">
<ele>463.356934</ele>
<time>2022-09-08T08:35:51.003Z</time>
</trkpt>
<trkpt lat="41.9209760" lon="1.8697600">
<ele>463.113129</ele>
<time>2022-09-08T08:35:51.996Z</time>
</trkpt>
<trkpt lat="41.9209570" lon="1.8697820">
<ele>463.052155</ele>
<time>2022-09-08T08:35:52.999Z</time>
</trkpt>
<trkpt lat="41.9209460" lon="1.8698090">
<ele>463.113129</ele>
<time>2022-09-08T08:35:54.001Z</time>
</trkpt>
<trkpt lat="41.9209460" lon="1.8698450">
<ele>463.417938</ele>
<time>2022-09-08T08:35:55.003Z</time>
</trkpt>
<trkpt lat="41.9209540" lon="1.8698950">
<ele>463.905609</ele>
<time>2022-09-08T08:35:55.997Z</time>
</trkpt>
<trkpt lat="41.9209540" lon="1.8699390">
<ele>464.149445</ele>
<time>2022-09-08T08:35:56.999Z</time>
</trkpt>
<trkpt lat="41.9209520" lon="1.8699970">
<ele>464.332336</ele>
<time>2022-09-08T08:35:58.001Z</time>
</trkpt>
<trkpt lat="41.9209630" lon="1.8700490">
<ele>464.545685</ele>
<time>2022-09-08T08:35:59.004Z</time>
</trkpt>
<trkpt lat="41.9209870" lon="1.8700850">
<ele>464.820007</ele>
<time>2022-09-08T08:35:59.997Z</time>
</trkpt>
<trkpt lat="41.9210250" lon="1.8701150">
<ele>465.246735</ele>
<time>2022-09-08T08:36:00.999Z</time>
</trkpt>
<trkpt lat="41.9210500" lon="1.8701370">
<ele>465.490540</ele>
<time>2022-09-08T08:36:02.002Z</time>
</trkpt>
<trkpt lat="41.9210850" lon="1.8701650">
<ele>465.764862</ele>
<time>2022-09-08T08:36:03.004Z</time>
</trkpt>
<trkpt lat="41.9211170" lon="1.8701860">
<ele>466.008728</ele>
<time>2022-09-08T08:36:03.997Z</time>
</trkpt>
<trkpt lat="41.9211480" lon="1.8702050">
<ele>466.252533</ele>
<time>2022-09-08T08:36:05.000Z</time>
</trkpt>
<trkpt lat="41.9211830" lon="1.8702350">
<ele>466.465942</ele>
<time>2022-09-08T08:36:06.002Z</time>
</trkpt>
<trkpt lat="41.9212220" lon="1.8702650">
<ele>466.679260</ele>
<time>2022-09-08T08:36:07.004Z</time>
</trkpt>
<trkpt lat="41.9212660" lon="1.8702960">
<ele>466.892670</ele>
<time>2022-09-08T08:36:07.998Z</time>
</trkpt>
<trkpt lat="41.9213090" lon="1.8703210">
<ele>467.197449</ele>
<time>2022-09-08T08:36:09.000Z</time>
</trkpt>
<trkpt lat="41.9213630" lon="1.8703520">
<ele>467.441284</ele>
<time>2022-09-08T08:36:10.002Z</time>
</trkpt>
<trkpt lat="41.9213980" lon="1.8703720">
<ele>467.563202</ele>
<time>2022-09-08T08:36:10.996Z</time>
</trkpt>
<trkpt lat="41.9214510" lon="1.8704080">
<ele>467.624146</ele>
<time>2022-09-08T08:36:11.998Z</time>
</trkpt>
<trkpt lat="41.9214820" lon="1.8704420">
<ele>467.502258</ele>
<time>2022-09-08T08:36:13.000Z</time>
</trkpt>
<trkpt lat="41.9215240" lon="1.8704900">
<ele>467.319336</ele>
<time>2022-09-08T08:36:14.003Z</time>
</trkpt>
<trkpt lat="41.9215660" lon="1.8705380">
<ele>467.105988</ele>
<time>2022-09-08T08:36:14.996Z</time>
</trkpt>
<trkpt lat="41.9215990" lon="1.8705820">
<ele>466.862152</ele>
<time>2022-09-08T08:36:15.998Z</time>
</trkpt>
<trkpt lat="41.9216280" lon="1.8706330">
<ele>466.404938</ele>
<time>2022-09-08T08:36:17.001Z</time>
</trkpt>
<trkpt lat="41.9216500" lon="1.8706820">
<ele>465.947754</ele>
<time>2022-09-08T08:36:18.003Z</time>
</trkpt>
<trkpt lat="41.9216550" lon="1.8707400">
<ele>465.033356</ele>
<time>2022-09-08T08:36:18.996Z</time>
</trkpt>
<trkpt lat="41.9216530" lon="1.8707960">
<ele>464.118958</ele>
<time>2022-09-08T08:36:19.999Z</time>
</trkpt>
<trkpt lat="41.9216570" lon="1.8708530">
<ele>463.235046</ele>
<time>2022-09-08T08:36:21.001Z</time>
</trkpt>
<trkpt lat="41.9216630" lon="1.8709060">
<ele>462.442535</ele>
<time>2022-09-08T08:36:22.003Z</time>
</trkpt>
<trkpt lat="41.9216850" lon="1.8709520">
<ele>462.168243</ele>
<time>2022-09-08T08:36:22.997Z</time>
</trkpt>
<trkpt lat="41.9217080" lon="1.8709990">
<ele>461.954865</ele>
<time>2022-09-08T08:36:23.999Z</time>
</trkpt>
<trkpt lat="41.9217270" lon="1.8710450">
<ele>461.772003</ele>
<time>2022-09-08T08:36:25.001Z</time>
</trkpt>
<trkpt lat="41.9217460" lon="1.8710880">
<ele>461.650085</ele>
<time>2022-09-08T08:36:26.004Z</time>
</trkpt>
<trkpt lat="41.9217660" lon="1.8711300">
<ele>461.650085</ele>
<time>2022-09-08T08:36:26.997Z</time>
</trkpt>
<trkpt lat="41.9217870" lon="1.8711710">
<ele>461.772003</ele>
<time>2022-09-08T08:36:27.999Z</time>
</trkpt>
<trkpt lat="41.9218090" lon="1.8712140">
<ele>461.985352</ele>
<time>2022-09-08T08:36:29.002Z</time>
</trkpt>
<trkpt lat="41.9218330" lon="1.8712510">
<ele>462.259674</ele>
<time>2022-09-08T08:36:30.004Z</time>
</trkpt>
<trkpt lat="41.9218600" lon="1.8712940">
<ele>462.777863</ele>
<time>2022-09-08T08:36:30.997Z</time>
</trkpt>
<trkpt lat="41.9218910" lon="1.8713350">
<ele>463.417938</ele>
<time>2022-09-08T08:36:32.000Z</time>
</trkpt>
<trkpt lat="41.9219220" lon="1.8713800">
<ele>464.088470</ele>
<time>2022-09-08T08:36:33.002Z</time>
</trkpt>
<trkpt lat="41.9219430" lon="1.8714110">
<ele>464.606659</ele>
<time>2022-09-08T08:36:34.004Z</time>
</trkpt>
<trkpt lat="41.9219690" lon="1.8714510">
<ele>465.246735</ele>
<time>2022-09-08T08:36:34.998Z</time>
</trkpt>
<trkpt lat="41.9219960" lon="1.8714830">
<ele>465.825867</ele>
<time>2022-09-08T08:36:36.000Z</time>
</trkpt>
<trkpt lat="41.9220310" lon="1.8715230">
<ele>466.587860</ele>
<time>2022-09-08T08:36:37.002Z</time>
</trkpt>
<trkpt lat="41.9220590" lon="1.8715420">
<ele>467.105988</ele>
<time>2022-09-08T08:36:37.996Z</time>
</trkpt>
<trkpt lat="41.9220960" lon="1.8715600">
<ele>467.868011</ele>
<time>2022-09-08T08:36:38.998Z</time>
</trkpt>
<trkpt lat="41.9221310" lon="1.8715660">
<ele>468.660461</ele>
<time>2022-09-08T08:36:40.000Z</time>
</trkpt>
<trkpt lat="41.9221650" lon="1.8715560">
<ele>469.391998</ele>
<time>2022-09-08T08:36:41.003Z</time>
</trkpt>
<trkpt lat="41.9222080" lon="1.8715350">
<ele>470.275940</ele>
<time>2022-09-08T08:36:41.996Z</time>
</trkpt>
<trkpt lat="41.9222370" lon="1.8715200">
<ele>470.915985</ele>
<time>2022-09-08T08:36:42.998Z</time>
</trkpt>
<trkpt lat="41.9222710" lon="1.8715030">
<ele>471.586548</ele>
<time>2022-09-08T08:36:44.001Z</time>
</trkpt>
<trkpt lat="41.9223090" lon="1.8714940">
<ele>472.257141</ele>
<time>2022-09-08T08:36:45.003Z</time>
</trkpt>
<trkpt lat="41.9223480" lon="1.8714800">
<ele>472.927673</ele>
<time>2022-09-08T08:36:45.996Z</time>
</trkpt>
<trkpt lat="41.9223880" lon="1.8714650">
<ele>473.567749</ele>
<time>2022-09-08T08:36:46.999Z</time>
</trkpt>
<trkpt lat="41.9224250" lon="1.8714520">
<ele>474.177338</ele>
<time>2022-09-08T08:36:48.001Z</time>
</trkpt>
<trkpt lat="41.9224700" lon="1.8714300">
<ele>474.878387</ele>
<time>2022-09-08T08:36:49.003Z</time>
</trkpt>
<trkpt lat="41.9225020" lon="1.8714210">
<ele>475.274658</ele>
<time>2022-09-08T08:36:49.997Z</time>
</trkpt>
<trkpt lat="41.9225420" lon="1.8714150">
<ele>475.762329</ele>
<time>2022-09-08T08:36:50.999Z</time>
</trkpt>
<trkpt lat="41.9225780" lon="1.8714140">
<ele>476.097595</ele>
<time>2022-09-08T08:36:52.001Z</time>
</trkpt>
<trkpt lat="41.9226160" lon="1.8714100">
<ele>476.432861</ele>
<time>2022-09-08T08:36:53.004Z</time>
</trkpt>
<trkpt lat="41.9226580" lon="1.8713910">
<ele>476.890076</ele>
<time>2022-09-08T08:36:53.997Z</time>
</trkpt>
<trkpt lat="41.9226940" lon="1.8713830">
<ele>477.164398</ele>
<time>2022-09-08T08:36:54.999Z</time>
</trkpt>
<trkpt lat="41.9227290" lon="1.8713710">
<ele>477.438721</ele>
<time>2022-09-08T08:36:56.002Z</time>
</trkpt>
<trkpt lat="41.9227680" lon="1.8713490">
<ele>477.773987</ele>
<time>2022-09-08T08:36:57.004Z</time>
</trkpt>
<trkpt lat="41.9227990" lon="1.8713210">
<ele>478.139740</ele>
<time>2022-09-08T08:36:57.997Z</time>
</trkpt>
<trkpt lat="41.9228230" lon="1.8712840">
<ele>478.566467</ele>
<time>2022-09-08T08:36:59.000Z</time>
</trkpt>
<trkpt lat="41.9228460" lon="1.8712360">
<ele>479.206543</ele>
<time>2022-09-08T08:37:00.002Z</time>
</trkpt>
<trkpt lat="41.9228690" lon="1.8711950">
<ele>479.938080</ele>
<time>2022-09-08T08:37:01.004Z</time>
</trkpt>
<trkpt lat="41.9228960" lon="1.8711570">
<ele>480.578156</ele>
<time>2022-09-08T08:37:01.998Z</time>
</trkpt>
<trkpt lat="41.9229180" lon="1.8711480">
<ele>480.730560</ele>
<time>2022-09-08T08:37:03.000Z</time>
</trkpt>
<trkpt lat="41.9229440" lon="1.8711540">
<ele>480.882935</ele>
<time>2022-09-08T08:37:04.002Z</time>
</trkpt>
<trkpt lat="41.9229670" lon="1.8711510">
<ele>481.126801</ele>
<time>2022-09-08T08:37:04.996Z</time>
</trkpt>
<trkpt lat="41.9230010" lon="1.8711400">
<ele>481.584015</ele>
<time>2022-09-08T08:37:05.998Z</time>
</trkpt>
<trkpt lat="41.9230400" lon="1.8711260">
<ele>482.071686</ele>
<time>2022-09-08T08:37:07.000Z</time>
</trkpt>
<trkpt lat="41.9230890" lon="1.8710980">
<ele>482.803192</ele>
<time>2022-09-08T08:37:08.003Z</time>
</trkpt>
<trkpt lat="41.9231590" lon="1.8710890">
<ele>483.229919</ele>
<time>2022-09-08T08:37:08.996Z</time>
</trkpt>
<trkpt lat="41.9232320" lon="1.8710630">
<ele>483.809052</ele>
<time>2022-09-08T08:37:09.998Z</time>
</trkpt>
<trkpt lat="41.9232950" lon="1.8710510">
<ele>483.991913</ele>
<time>2022-09-08T08:37:11.001Z</time>
</trkpt>
<trkpt lat="41.9233490" lon="1.8710470">
<ele>483.930939</ele>
<time>2022-09-08T08:37:12.003Z</time>
</trkpt>
<trkpt lat="41.9233950" lon="1.8710760">
<ele>483.108002</ele>
<time>2022-09-08T08:37:12.996Z</time>
</trkpt>
<trkpt lat="41.9234390" lon="1.8711060">
<ele>482.163116</ele>
<time>2022-09-08T08:37:13.999Z</time>
</trkpt>
<trkpt lat="41.9234790" lon="1.8711340">
<ele>481.187744</ele>
<time>2022-09-08T08:37:15.001Z</time>
</trkpt>
<trkpt lat="41.9235280" lon="1.8711680">
<ele>479.816132</ele>
<time>2022-09-08T08:37:16.003Z</time>
</trkpt>
<trkpt lat="41.9235650" lon="1.8711910">
<ele>478.749359</ele>
<time>2022-09-08T08:37:16.997Z</time>
</trkpt>
<trkpt lat="41.9236180" lon="1.8712100">
<ele>477.499664</ele>
<time>2022-09-08T08:37:17.999Z</time>
</trkpt>
<trkpt lat="41.9236610" lon="1.8712220">
<ele>476.493866</ele>
<time>2022-09-08T08:37:19.001Z</time>
</trkpt>
<trkpt lat="41.9237040" lon="1.8712360">
<ele>475.366058</ele>
<time>2022-09-08T08:37:20.004Z</time>
</trkpt>
<trkpt lat="41.9237420" lon="1.8712530">
<ele>474.146881</ele>
<time>2022-09-08T08:37:20.997Z</time>
</trkpt>
<trkpt lat="41.9237760" lon="1.8712750">
<ele>473.171539</ele>
<time>2022-09-08T08:37:21.999Z</time>
</trkpt>
<trkpt lat="41.9238250" lon="1.8712910">
<ele>472.257141</ele>
<time>2022-09-08T08:37:23.002Z</time>
</trkpt>
<trkpt lat="41.9238670" lon="1.8712700">
<ele>472.287598</ele>
<time>2022-09-08T08:37:24.004Z</time>
</trkpt>
<trkpt lat="41.9239000" lon="1.8712310">
<ele>472.927673</ele>
<time>2022-09-08T08:37:24.997Z</time>
</trkpt>
<trkpt lat="41.9239270" lon="1.8711930">
<ele>473.689667</ele>
<time>2022-09-08T08:37:26.000Z</time>
</trkpt>
<trkpt lat="41.9239480" lon="1.8711340">
<ele>475.030792</ele>
<time>2022-09-08T08:37:27.002Z</time>
</trkpt>
<trkpt lat="41.9239800" lon="1.8710710">
<ele>476.189056</ele>
<time>2022-09-08T08:37:28.004Z</time>
</trkpt>
<trkpt lat="41.9240120" lon="1.8710080">
<ele>477.255859</ele>
<time>2022-09-08T08:37:28.998Z</time>
</trkpt>
<trkpt lat="41.9240460" lon="1.8709240">
<ele>478.627441</ele>
<time>2022-09-08T08:37:30.000Z</time>
</trkpt>
<trkpt lat="41.9240630" lon="1.8708470">
<ele>479.907593</ele>
<time>2022-09-08T08:37:31.002Z</time>
</trkpt>
<trkpt lat="41.9240750" lon="1.8707690">
<ele>481.218262</ele>
<time>2022-09-08T08:37:31.996Z</time>
</trkpt>
<trkpt lat="41.9240790" lon="1.8706950">
<ele>482.528870</ele>
<time>2022-09-08T08:37:32.998Z</time>
</trkpt>
<trkpt lat="41.9240800" lon="1.8706360">
<ele>483.626160</ele>
<time>2022-09-08T08:37:34.000Z</time>
</trkpt>
<trkpt lat="41.9240930" lon="1.8705560">
<ele>484.875854</ele>
<time>2022-09-08T08:37:35.003Z</time>
</trkpt>
<trkpt lat="41.9241180" lon="1.8704860">
<ele>485.576874</ele>
<time>2022-09-08T08:37:35.996Z</time>
</trkpt>
<trkpt lat="41.9241520" lon="1.8704280">
<ele>485.912140</ele>
<time>2022-09-08T08:37:36.998Z</time>
</trkpt>
<trkpt lat="41.9241860" lon="1.8703970">
<ele>485.790253</ele>
<time>2022-09-08T08:37:38.001Z</time>
</trkpt>
<trkpt lat="41.9242270" lon="1.8703690">
<ele>485.363525</ele>
<time>2022-09-08T08:37:39.003Z</time>
</trkpt>
<trkpt lat="41.9242790" lon="1.8703310">
<ele>484.875854</ele>
<time>2022-09-08T08:37:39.996Z</time>
</trkpt>
<trkpt lat="41.9243180" lon="1.8702850">
<ele>484.692932</ele>
<time>2022-09-08T08:37:40.999Z</time>
</trkpt>
<trkpt lat="41.9243560" lon="1.8702160">
<ele>484.814880</ele>
<time>2022-09-08T08:37:42.001Z</time>
</trkpt>
<trkpt lat="41.9243820" lon="1.8701580">
<ele>484.906342</ele>
<time>2022-09-08T08:37:43.003Z</time>
</trkpt>
<trkpt lat="41.9244040" lon="1.8700880">
<ele>485.211121</ele>
<time>2022-09-08T08:37:43.997Z</time>
</trkpt>
<trkpt lat="41.9244150" lon="1.8700200">
<ele>485.729279</ele>
<time>2022-09-08T08:37:44.999Z</time>
</trkpt>
<trkpt lat="41.9244260" lon="1.8699610">
<ele>486.064545</ele>
<time>2022-09-08T08:37:46.001Z</time>
</trkpt>
<trkpt lat="41.9244310" lon="1.8699010">
<ele>486.613190</ele>
<time>2022-09-08T08:37:47.004Z</time>
</trkpt>
<trkpt lat="41.9244320" lon="1.8698560">
<ele>487.100861</ele>
<time>2022-09-08T08:37:47.997Z</time>
</trkpt>
<trkpt lat="41.9244290" lon="1.8698280">
<ele>487.405670</ele>
<time>2022-09-08T08:37:48.999Z</time>
</trkpt>
<trkpt lat="41.9244160" lon="1.8698180">
<ele>488.015259</ele>
<time>2022-09-08T08:37:50.002Z</time>
</trkpt>
<trkpt lat="41.9243960" lon="1.8698100">
<ele>488.746796</ele>
<time>2022-09-08T08:37:51.004Z</time>
</trkpt>
<trkpt lat="41.9243700" lon="1.8698070">
<ele>489.630737</ele>
<time>2022-09-08T08:37:51.997Z</time>
</trkpt>
<trkpt lat="41.9243500" lon="1.8698130">
<ele>490.148865</ele>
<time>2022-09-08T08:37:53.000Z</time>
</trkpt>
<trkpt lat="41.9243340" lon="1.8698300">
<ele>490.423187</ele>
<time>2022-09-08T08:37:54.002Z</time>
</trkpt>
<trkpt lat="41.9243180" lon="1.8698580">
<ele>490.697540</ele>
<time>2022-09-08T08:37:55.004Z</time>
</trkpt>
<trkpt lat="41.9243060" lon="1.8698880">
<ele>490.667053</ele>
<time>2022-09-08T08:37:55.998Z</time>
</trkpt>
<trkpt lat="41.9242950" lon="1.8699370">
<ele>490.423187</ele>
<time>2022-09-08T08:37:57.000Z</time>
</trkpt>
<trkpt lat="41.9242880" lon="1.8699780">
<ele>490.026947</ele>
<time>2022-09-08T08:37:58.002Z</time>
</trkpt>
<trkpt lat="41.9242790" lon="1.8700140">
<ele>489.905060</ele>
<time>2022-09-08T08:37:58.996Z</time>
</trkpt>
<trkpt lat="41.9242650" lon="1.8700380">
<ele>489.905060</ele>
<time>2022-09-08T08:37:59.998Z</time>
</trkpt>
<trkpt lat="41.9242390" lon="1.8700600">
<ele>490.301270</ele>
<time>2022-09-08T08:38:01.000Z</time>
</trkpt>
<trkpt lat="41.9242100" lon="1.8700710">
<ele>490.941345</ele>
<time>2022-09-08T08:38:02.003Z</time>
</trkpt>
<trkpt lat="41.9241770" lon="1.8700650">
<ele>491.855743</ele>
<time>2022-09-08T08:38:02.996Z</time>
</trkpt>
<trkpt lat="41.9241590" lon="1.8700520">
<ele>492.373932</ele>
<time>2022-09-08T08:38:03.998Z</time>
</trkpt>
<trkpt lat="41.9241520" lon="1.8700390">
<ele>492.709198</ele>
<time>2022-09-08T08:38:05.001Z</time>
</trkpt>
<trkpt lat="41.9241470" lon="1.8700220">
<ele>493.044464</ele>
<time>2022-09-08T08:38:06.003Z</time>
</trkpt>
<trkpt lat="41.9241460" lon="1.8699900">
<ele>493.532135</ele>
<time>2022-09-08T08:38:06.996Z</time>
</trkpt>
<trkpt lat="41.9241440" lon="1.8699640">
<ele>493.836945</ele>
<time>2022-09-08T08:38:07.999Z</time>
</trkpt>
<trkpt lat="41.9241430" lon="1.8699470">
<ele>494.050323</ele>
<time>2022-09-08T08:38:09.001Z</time>
</trkpt>
<trkpt lat="41.9241370" lon="1.8699350">
<ele>494.355133</ele>
<time>2022-09-08T08:38:10.003Z</time>
</trkpt>
<trkpt lat="41.9241340" lon="1.8699180">
<ele>494.659943</ele>
<time>2022-09-08T08:38:10.997Z</time>
</trkpt>
<trkpt lat="41.9241260" lon="1.8699020">
<ele>494.995209</ele>
<time>2022-09-08T08:38:11.999Z</time>
</trkpt>
<trkpt lat="41.9241170" lon="1.8698840">
<ele>495.360931</ele>
<time>2022-09-08T08:38:13.001Z</time>
</trkpt>
<trkpt lat="41.9241190" lon="1.8698550">
<ele>495.696259</ele>
<time>2022-09-08T08:38:14.004Z</time>
</trkpt>
<trkpt lat="41.9241370" lon="1.8698170">
<ele>495.726715</ele>
<time>2022-09-08T08:38:14.997Z</time>
</trkpt>
<trkpt lat="41.9241470" lon="1.8697790">
<ele>495.909607</ele>
<time>2022-09-08T08:38:15.999Z</time>
</trkpt>
<trkpt lat="41.9241580" lon="1.8697390">
<ele>496.183929</ele>
<time>2022-09-08T08:38:17.002Z</time>
</trkpt>
<trkpt lat="41.9241720" lon="1.8697030">
<ele>496.244873</ele>
<time>2022-09-08T08:38:18.004Z</time>
</trkpt>
<trkpt lat="41.9241830" lon="1.8696700">
<ele>496.366791</ele>
<time>2022-09-08T08:38:18.997Z</time>
</trkpt>
<trkpt lat="41.9241930" lon="1.8696460">
<ele>496.366791</ele>
<time>2022-09-08T08:38:20.000Z</time>
</trkpt>
<trkpt lat="41.9242100" lon="1.8696160">
<ele>496.336334</ele>
<time>2022-09-08T08:38:21.002Z</time>
</trkpt>
<trkpt lat="41.9242290" lon="1.8695830">
<ele>496.244873</ele>
<time>2022-09-08T08:38:22.004Z</time>
</trkpt>
<trkpt lat="41.9242570" lon="1.8695490">
<ele>496.001068</ele>
<time>2022-09-08T08:38:22.998Z</time>
</trkpt>
<trkpt lat="41.9242940" lon="1.8695200">
<ele>495.269531</ele>
<time>2022-09-08T08:38:24.000Z</time>
</trkpt>
<trkpt lat="41.9243220" lon="1.8694900">
<ele>494.812317</ele>
<time>2022-09-08T08:38:25.002Z</time>
</trkpt>
<trkpt lat="41.9243380" lon="1.8694630">
<ele>494.507538</ele>
<time>2022-09-08T08:38:25.996Z</time>
</trkpt>
<trkpt lat="41.9243500" lon="1.8694300">
<ele>494.446533</ele>
<time>2022-09-08T08:38:26.998Z</time>
</trkpt>
<trkpt lat="41.9243570" lon="1.8693990">
<ele>494.477051</ele>
<time>2022-09-08T08:38:28.000Z</time>
</trkpt>
<trkpt lat="41.9243490" lon="1.8693610">
<ele>495.086670</ele>
<time>2022-09-08T08:38:29.003Z</time>
</trkpt>
<trkpt lat="41.9243320" lon="1.8693220">
<ele>496.062012</ele>
<time>2022-09-08T08:38:29.996Z</time>
</trkpt>
<trkpt lat="41.9243250" lon="1.8692840">
<ele>496.610657</ele>
<time>2022-09-08T08:38:30.998Z</time>
</trkpt>
<trkpt lat="41.9243170" lon="1.8692320">
<ele>497.281189</ele>
<time>2022-09-08T08:38:32.001Z</time>
</trkpt>
<trkpt lat="41.9243080" lon="1.8691680">
<ele>498.012726</ele>
<time>2022-09-08T08:38:33.003Z</time>
</trkpt>
<trkpt lat="41.9242930" lon="1.8691090">
<ele>498.957611</ele>
<time>2022-09-08T08:38:33.996Z</time>
</trkpt>
<trkpt lat="41.9242730" lon="1.8690410">
<ele>500.146332</ele>
<time>2022-09-08T08:38:34.999Z</time>
</trkpt>
<trkpt lat="41.9242600" lon="1.8689750">
<ele>501.213135</ele>
<time>2022-09-08T08:38:36.001Z</time>
</trkpt>
<trkpt lat="41.9242520" lon="1.8689190">
<ele>501.975128</ele>
<time>2022-09-08T08:38:37.003Z</time>
</trkpt>
<trkpt lat="41.9242390" lon="1.8688440">
<ele>503.163849</ele>
<time>2022-09-08T08:38:37.997Z</time>
</trkpt>
<trkpt lat="41.9242310" lon="1.8687510">
<ele>504.596405</ele>
<time>2022-09-08T08:38:38.999Z</time>
</trkpt>
<trkpt lat="41.9242370" lon="1.8686670">
<ele>505.754669</ele>
<time>2022-09-08T08:38:40.001Z</time>
</trkpt>
<trkpt lat="41.9242550" lon="1.8685960">
<ele>506.181335</ele>
<time>2022-09-08T08:38:41.004Z</time>
</trkpt>
<trkpt lat="41.9242820" lon="1.8685350">
<ele>506.089935</ele>
<time>2022-09-08T08:38:41.997Z</time>
</trkpt>
<trkpt lat="41.9243280" lon="1.8684660">
<ele>505.266937</ele>
<time>2022-09-08T08:38:42.999Z</time>
</trkpt>
<trkpt lat="41.9243750" lon="1.8684060">
<ele>504.230652</ele>
<time>2022-09-08T08:38:44.002Z</time>
</trkpt>
<trkpt lat="41.9244120" lon="1.8683570">
<ele>503.285736</ele>
<time>2022-09-08T08:38:45.004Z</time>
</trkpt>
<trkpt lat="41.9244420" lon="1.8683090">
<ele>502.645660</ele>
<time>2022-09-08T08:38:45.997Z</time>
</trkpt>
<trkpt lat="41.9244580" lon="1.8682640">
<ele>502.645660</ele>
<time>2022-09-08T08:38:47.000Z</time>
</trkpt>
<trkpt lat="41.9244680" lon="1.8681930">
<ele>503.285736</ele>
<time>2022-09-08T08:38:48.002Z</time>
</trkpt>
<trkpt lat="41.9244850" lon="1.8681200">
<ele>503.803925</ele>
<time>2022-09-08T08:38:49.004Z</time>
</trkpt>
<trkpt lat="41.9245090" lon="1.8680350">
<ele>504.261139</ele>
<time>2022-09-08T08:38:49.998Z</time>
</trkpt>
<trkpt lat="41.9245530" lon="1.8679680">
<ele>503.407684</ele>
<time>2022-09-08T08:38:51.000Z</time>
</trkpt>
<trkpt lat="41.9245760" lon="1.8679180">
<ele>503.316254</ele>
<time>2022-09-08T08:38:52.002Z</time>
</trkpt>
<trkpt lat="41.9245890" lon="1.8678760">
<ele>503.773468</ele>
<time>2022-09-08T08:38:52.996Z</time>
</trkpt>
<trkpt lat="41.9246020" lon="1.8678400">
<ele>503.986786</ele>
<time>2022-09-08T08:38:53.998Z</time>
</trkpt>
<trkpt lat="41.9246210" lon="1.8677820">
<ele>504.565918</ele>
<time>2022-09-08T08:38:55.000Z</time>
</trkpt>
<trkpt lat="41.9246350" lon="1.8677370">
<ele>504.962158</ele>
<time>2022-09-08T08:38:56.003Z</time>
</trkpt>
<trkpt lat="41.9246430" lon="1.8677090">
<ele>505.266937</ele>
<time>2022-09-08T08:38:56.996Z</time>
</trkpt>
<trkpt lat="41.9246530" lon="1.8676760">
<ele>505.663208</ele>
<time>2022-09-08T08:38:57.998Z</time>
</trkpt>
<trkpt lat="41.9246730" lon="1.8676520">
<ele>505.449860</ele>
<time>2022-09-08T08:38:59.001Z</time>
</trkpt>
<trkpt lat="41.9246840" lon="1.8676110">
<ele>505.815613</ele>
<time>2022-09-08T08:39:00.003Z</time>
</trkpt>
<trkpt lat="41.9246870" lon="1.8675860">
<ele>506.150879</ele>
<time>2022-09-08T08:39:00.996Z</time>
</trkpt>
<trkpt lat="41.9246990" lon="1.8675630">
<ele>506.150879</ele>
<time>2022-09-08T08:39:01.999Z</time>
</trkpt>
<trkpt lat="41.9247170" lon="1.8675230">
<ele>506.150879</ele>
<time>2022-09-08T08:39:03.001Z</time>
</trkpt>
<trkpt lat="41.9247340" lon="1.8674980">
<ele>505.998474</ele>
<time>2022-09-08T08:39:04.003Z</time>
</trkpt>
<trkpt lat="41.9247570" lon="1.8674790">
<ele>505.449860</ele>
<time>2022-09-08T08:39:04.997Z</time>
</trkpt>
<trkpt lat="41.9247750" lon="1.8674650">
<ele>504.962158</ele>
<time>2022-09-08T08:39:05.999Z</time>
</trkpt>
<trkpt lat="41.9247790" lon="1.8674560">
<ele>504.931671</ele>
<time>2022-09-08T08:39:07.001Z</time>
</trkpt>
<trkpt lat="41.9247890" lon="1.8674490">
<ele>504.626862</ele>
<time>2022-09-08T08:39:08.004Z</time>
</trkpt>
<trkpt lat="41.9248050" lon="1.8674430">
<ele>504.139191</ele>
<time>2022-09-08T08:39:08.997Z</time>
</trkpt>
<trkpt lat="41.9248200" lon="1.8674420">
<ele>503.560059</ele>
<time>2022-09-08T08:39:09.999Z</time>
</trkpt>
<trkpt lat="41.9248390" lon="1.8674380">
<ele>502.920013</ele>
<time>2022-09-08T08:39:11.002Z</time>
</trkpt>
<trkpt lat="41.9248650" lon="1.8674240">
<ele>502.097046</ele>
<time>2022-09-08T08:39:12.004Z</time>
</trkpt>
<trkpt lat="41.9248860" lon="1.8674150">
<ele>501.487457</ele>
<time>2022-09-08T08:39:12.997Z</time>
</trkpt>
<trkpt lat="41.9249050" lon="1.8674070">
<ele>500.877869</ele>
<time>2022-09-08T08:39:14.000Z</time>
</trkpt>
<trkpt lat="41.9249360" lon="1.8673950">
<ele>499.841522</ele>
<time>2022-09-08T08:39:15.002Z</time>
</trkpt>
<trkpt lat="41.9249730" lon="1.8673900">
<ele>498.469940</ele>
<time>2022-09-08T08:39:16.004Z</time>
</trkpt>
<trkpt lat="41.9249980" lon="1.8673880">
<ele>497.464081</ele>
<time>2022-09-08T08:39:16.998Z</time>
</trkpt>
<trkpt lat="41.9250350" lon="1.8673790">
<ele>496.244873</ele>
<time>2022-09-08T08:39:18.000Z</time>
</trkpt>
<trkpt lat="41.9250610" lon="1.8673650">
<ele>495.360931</ele>
<time>2022-09-08T08:39:19.002Z</time>
</trkpt>
<trkpt lat="41.9250920" lon="1.8673470">
<ele>494.324646</ele>
<time>2022-09-08T08:39:19.996Z</time>
</trkpt>
<trkpt lat="41.9251230" lon="1.8673210">
<ele>493.318787</ele>
<time>2022-09-08T08:39:20.998Z</time>
</trkpt>
<trkpt lat="41.9251430" lon="1.8672960">
<ele>492.556793</ele>
<time>2022-09-08T08:39:22.000Z</time>
</trkpt>
<trkpt lat="41.9251590" lon="1.8672700">
<ele>492.069122</ele>
<time>2022-09-08T08:39:23.003Z</time>
</trkpt>
<trkpt lat="41.9251680" lon="1.8672520">
<ele>491.825287</ele>
<time>2022-09-08T08:39:23.996Z</time>
</trkpt>
<trkpt lat="41.9251780" lon="1.8672380">
<ele>491.398560</ele>
<time>2022-09-08T08:39:24.998Z</time>
</trkpt>
<trkpt lat="41.9251880" lon="1.8672320">
<ele>491.124268</ele>
<time>2022-09-08T08:39:26.001Z</time>
</trkpt>
<trkpt lat="41.9251990" lon="1.8672280">
<ele>490.667053</ele>
<time>2022-09-08T08:39:27.003Z</time>
</trkpt>
<trkpt lat="41.9252150" lon="1.8672240">
<ele>489.935516</ele>
<time>2022-09-08T08:39:27.996Z</time>
</trkpt>
<trkpt lat="41.9252340" lon="1.8672190">
<ele>489.204010</ele>
<time>2022-09-08T08:39:28.999Z</time>
</trkpt>
<trkpt lat="41.9252490" lon="1.8672020">
<ele>488.746796</ele>
<time>2022-09-08T08:39:30.001Z</time>
</trkpt>
<trkpt lat="41.9252630" lon="1.8671760">
<ele>488.137207</ele>
<time>2022-09-08T08:39:31.003Z</time>
</trkpt>
<trkpt lat="41.9252690" lon="1.8671450">
<ele>487.801941</ele>
<time>2022-09-08T08:39:31.997Z</time>
</trkpt>
<trkpt lat="41.9252680" lon="1.8671050">
<ele>487.862885</ele>
<time>2022-09-08T08:39:32.999Z</time>
</trkpt>
<trkpt lat="41.9252560" lon="1.8670600">
<ele>488.350555</ele>
<time>2022-09-08T08:39:34.001Z</time>
</trkpt>
<trkpt lat="41.9252400" lon="1.8670130">
<ele>489.082062</ele>
<time>2022-09-08T08:39:35.004Z</time>
</trkpt>
<trkpt lat="41.9252200" lon="1.8669660">
<ele>489.905060</ele>
<time>2022-09-08T08:39:35.997Z</time>
</trkpt>
<trkpt lat="41.9251950" lon="1.8669180">
<ele>491.032806</ele>
<time>2022-09-08T08:39:36.999Z</time>
</trkpt>
<trkpt lat="41.9251670" lon="1.8668630">
<ele>492.069122</ele>
<time>2022-09-08T08:39:38.002Z</time>
</trkpt>
<trkpt lat="41.9251490" lon="1.8668140">
<ele>492.739685</ele>
<time>2022-09-08T08:39:39.004Z</time>
</trkpt>
<trkpt lat="41.9251390" lon="1.8667810">
<ele>492.953064</ele>
<time>2022-09-08T08:39:39.997Z</time>
</trkpt>
<trkpt lat="41.9251310" lon="1.8667580">
<ele>493.166412</ele>
<time>2022-09-08T08:39:41.000Z</time>
</trkpt>
<trkpt lat="41.9251270" lon="1.8667400">
<ele>493.379730</ele>
<time>2022-09-08T08:39:42.002Z</time>
</trkpt>
<trkpt lat="41.9251270" lon="1.8667190">
<ele>493.257843</ele>
<time>2022-09-08T08:39:43.004Z</time>
</trkpt>
<trkpt lat="41.9251250" lon="1.8666900">
<ele>493.074951</ele>
<time>2022-09-08T08:39:43.998Z</time>
</trkpt>
<trkpt lat="41.9251140" lon="1.8666670">
<ele>493.410248</ele>
<time>2022-09-08T08:39:45.000Z</time>
</trkpt>
<trkpt lat="41.9250900" lon="1.8666290">
<ele>494.111267</ele>
<time>2022-09-08T08:39:46.002Z</time>
</trkpt>
<trkpt lat="41.9250720" lon="1.8666000">
<ele>494.690399</ele>
<time>2022-09-08T08:39:46.996Z</time>
</trkpt>
<trkpt lat="41.9250560" lon="1.8665680">
<ele>495.056152</ele>
<time>2022-09-08T08:39:47.998Z</time>
</trkpt>
<trkpt lat="41.9250440" lon="1.8665360">
<ele>495.239044</ele>
<time>2022-09-08T08:39:49.000Z</time>
</trkpt>
<trkpt lat="41.9250280" lon="1.8665080">
<ele>495.604797</ele>
<time>2022-09-08T08:39:50.003Z</time>
</trkpt>
<trkpt lat="41.9250080" lon="1.8664880">
<ele>496.366791</ele>
<time>2022-09-08T08:39:50.996Z</time>
</trkpt>
<trkpt lat="41.9249850" lon="1.8664650">
<ele>497.098328</ele>
<time>2022-09-08T08:39:51.998Z</time>
</trkpt>
<trkpt lat="41.9249640" lon="1.8664560">
<ele>497.799347</ele>
<time>2022-09-08T08:39:53.001Z</time>
</trkpt>
<trkpt lat="41.9249560" lon="1.8664440">
<ele>497.951752</ele>
<time>2022-09-08T08:39:54.003Z</time>
</trkpt>
<trkpt lat="41.9249510" lon="1.8664180">
<ele>497.951752</ele>
<time>2022-09-08T08:39:54.996Z</time>
</trkpt>
<trkpt lat="41.9249470" lon="1.8664030">
<ele>497.921265</ele>
<time>2022-09-08T08:39:55.999Z</time>
</trkpt>
<trkpt lat="41.9249320" lon="1.8663760">
<ele>498.226074</ele>
<time>2022-09-08T08:39:57.001Z</time>
</trkpt>
<trkpt lat="41.9248880" lon="1.8663310">
<ele>499.323334</ele>
<time>2022-09-08T08:39:58.003Z</time>
</trkpt>
<trkpt lat="41.9248620" lon="1.8662980">
<ele>499.932953</ele>
<time>2022-09-08T08:39:58.997Z</time>
</trkpt>
<trkpt lat="41.9248620" lon="1.8662690">
<ele>499.506256</ele>
<time>2022-09-08T08:39:59.999Z</time>
</trkpt>
<trkpt lat="41.9248640" lon="1.8662410">
<ele>499.018555</ele>
<time>2022-09-08T08:40:01.001Z</time>
</trkpt>
<trkpt lat="41.9248760" lon="1.8662060">
<ele>498.287048</ele>
<time>2022-09-08T08:40:02.004Z</time>
</trkpt>
<trkpt lat="41.9248950" lon="1.8661700">
<ele>497.311676</ele>
<time>2022-09-08T08:40:02.997Z</time>
</trkpt>
<trkpt lat="41.9249060" lon="1.8661500">
<ele>496.732544</ele>
<time>2022-09-08T08:40:03.999Z</time>
</trkpt>
<trkpt lat="41.9249260" lon="1.8661220">
<ele>495.818146</ele>
<time>2022-09-08T08:40:05.002Z</time>
</trkpt>
<trkpt lat="41.9249450" lon="1.8660910">
<ele>494.903748</ele>
<time>2022-09-08T08:40:06.004Z</time>
</trkpt>
<trkpt lat="41.9249720" lon="1.8660420">
<ele>493.623596</ele>
<time>2022-09-08T08:40:06.997Z</time>
</trkpt>
<trkpt lat="41.9250010" lon="1.8659830">
<ele>492.312958</ele>
<time>2022-09-08T08:40:08.000Z</time>
</trkpt>
<trkpt lat="41.9250000" lon="1.8659250">
<ele>492.038666</ele>
<time>2022-09-08T08:40:09.002Z</time>
</trkpt>
<trkpt lat="41.9250000" lon="1.8659250">
<ele>492.038666</ele>
<time>2022-09-08T08:40:10.004Z</time>
</trkpt>
<trkpt lat="41.9250060" lon="1.8658350">
<ele>491.276642</ele>
<time>2022-09-08T08:40:10.998Z</time>
</trkpt>
<trkpt lat="41.9250110" lon="1.8658050">
<ele>490.971863</ele>
<time>2022-09-08T08:40:12.000Z</time>
</trkpt>
<trkpt lat="41.9250150" lon="1.8657600">
<ele>490.545135</ele>
<time>2022-09-08T08:40:13.002Z</time>
</trkpt>
<trkpt lat="41.9250100" lon="1.8657340">
<ele>490.484131</ele>
<time>2022-09-08T08:40:13.996Z</time>
</trkpt>
<trkpt lat="41.9250150" lon="1.8657160">
<ele>490.240326</ele>
<time>2022-09-08T08:40:14.998Z</time>
</trkpt>
<trkpt lat="41.9250210" lon="1.8656970">
<ele>489.874542</ele>
<time>2022-09-08T08:40:16.000Z</time>
</trkpt>
<trkpt lat="41.9250330" lon="1.8656620">
<ele>489.234467</ele>
<time>2022-09-08T08:40:17.003Z</time>
</trkpt>
<trkpt lat="41.9250290" lon="1.8656340">
<ele>489.112549</ele>
<time>2022-09-08T08:40:17.996Z</time>
</trkpt>
<trkpt lat="41.9250410" lon="1.8656030">
<ele>488.502960</ele>
<time>2022-09-08T08:40:18.998Z</time>
</trkpt>
<trkpt lat="41.9250600" lon="1.8655710">
<ele>487.619049</ele>
<time>2022-09-08T08:40:20.001Z</time>
</trkpt>
<trkpt lat="41.9250700" lon="1.8655460">
<ele>487.039917</ele>
<time>2022-09-08T08:40:21.003Z</time>
</trkpt>
<trkpt lat="41.9250660" lon="1.8655230">
<ele>486.917999</ele>
<time>2022-09-08T08:40:21.996Z</time>
</trkpt>
<trkpt lat="41.9250880" lon="1.8654950">
<ele>486.064545</ele>
<time>2022-09-08T08:40:22.999Z</time>
</trkpt>
<trkpt lat="41.9251060" lon="1.8654780">
<ele>485.302551</ele>
<time>2022-09-08T08:40:24.001Z</time>
</trkpt>
<trkpt lat="41.9251060" lon="1.8654780">
<ele>485.302551</ele>
<time>2022-09-08T08:40:25.003Z</time>
</trkpt>
<trkpt lat="41.9251130" lon="1.8653910">
<ele>483.991913</ele>
<time>2022-09-08T08:40:25.997Z</time>
</trkpt>
<trkpt lat="41.9251140" lon="1.8653570">
<ele>483.565186</ele>
<time>2022-09-08T08:40:26.999Z</time>
</trkpt>
<trkpt lat="41.9251310" lon="1.8653100">
<ele>482.376465</ele>
<time>2022-09-08T08:40:28.001Z</time>
</trkpt>
<trkpt lat="41.9251610" lon="1.8652550">
<ele>480.882935</ele>
<time>2022-09-08T08:40:29.004Z</time>
</trkpt>
<trkpt lat="41.9251930" lon="1.8651720">
<ele>478.718872</ele>
<time>2022-09-08T08:40:29.997Z</time>
</trkpt>
<trkpt lat="41.9251930" lon="1.8651290">
<ele>478.048340</ele>
<time>2022-09-08T08:40:30.999Z</time>
</trkpt>
<trkpt lat="41.9251970" lon="1.8651020">
<ele>477.530151</ele>
<time>2022-09-08T08:40:32.002Z</time>
</trkpt>
<trkpt lat="41.9251990" lon="1.8650650">
<ele>476.920532</ele>
<time>2022-09-08T08:40:33.004Z</time>
</trkpt>
<trkpt lat="41.9252020" lon="1.8650330">
<ele>476.280487</ele>
<time>2022-09-08T08:40:33.997Z</time>
</trkpt>
<trkpt lat="41.9252130" lon="1.8649840">
<ele>475.122253</ele>
<time>2022-09-08T08:40:35.000Z</time>
</trkpt>
<trkpt lat="41.9252270" lon="1.8649410">
<ele>473.994476</ele>
<time>2022-09-08T08:40:36.002Z</time>
</trkpt>
<trkpt lat="41.9252370" lon="1.8649030">
<ele>473.110535</ele>
<time>2022-09-08T08:40:37.004Z</time>
</trkpt>
<trkpt lat="41.9252310" lon="1.8648610">
<ele>472.440002</ele>
<time>2022-09-08T08:40:37.998Z</time>
</trkpt>
<trkpt lat="41.9252180" lon="1.8648430">
<ele>472.500946</ele>
<time>2022-09-08T08:40:39.000Z</time>
</trkpt>
<trkpt lat="41.9252200" lon="1.8648170">
<ele>471.921844</ele>
<time>2022-09-08T08:40:40.002Z</time>
</trkpt>
<trkpt lat="41.9252220" lon="1.8647930">
<ele>471.464661</ele>
<time>2022-09-08T08:40:40.996Z</time>
</trkpt>
<trkpt lat="41.9252180" lon="1.8647830">
<ele>471.373199</ele>
<time>2022-09-08T08:40:41.998Z</time>
</trkpt>
<trkpt lat="41.9252040" lon="1.8647700">
<ele>471.403687</ele>
<time>2022-09-08T08:40:43.000Z</time>
</trkpt>
<trkpt lat="41.9251760" lon="1.8647500">
<ele>471.799927</ele>
<time>2022-09-08T08:40:44.003Z</time>
</trkpt>
<trkpt lat="41.9251760" lon="1.8647500">
<ele>471.799927</ele>
<time>2022-09-08T08:40:44.996Z</time>
</trkpt>
<trkpt lat="41.9251530" lon="1.8647340">
<ele>472.043732</ele>
<time>2022-09-08T08:40:45.998Z</time>
</trkpt>
<trkpt lat="41.9250880" lon="1.8646860">
<ele>472.775269</ele>
<time>2022-09-08T08:40:47.001Z</time>
</trkpt>
<trkpt lat="41.9250630" lon="1.8646710">
<ele>473.080078</ele>
<time>2022-09-08T08:40:48.003Z</time>
</trkpt>
<trkpt lat="41.9250360" lon="1.8646660">
<ele>473.659210</ele>
<time>2022-09-08T08:40:48.996Z</time>
</trkpt>
<trkpt lat="41.9250130" lon="1.8646690">
<ele>474.329742</ele>
<time>2022-09-08T08:40:49.999Z</time>
</trkpt>
<trkpt lat="41.9249810" lon="1.8646810">
<ele>475.488007</ele>
<time>2022-09-08T08:40:51.001Z</time>
</trkpt>
<trkpt lat="41.9249500" lon="1.8646910">
<ele>476.524323</ele>
<time>2022-09-08T08:40:52.003Z</time>
</trkpt>
<trkpt lat="41.9249260" lon="1.8646870">
<ele>477.103455</ele>
<time>2022-09-08T08:40:52.997Z</time>
</trkpt>
<trkpt lat="41.9249240" lon="1.8646720">
<ele>476.951050</ele>
<time>2022-09-08T08:40:53.999Z</time>
</trkpt>
<trkpt lat="41.9249330" lon="1.8646560">
<ele>476.310944</ele>
<time>2022-09-08T08:40:55.001Z</time>
</trkpt>
<trkpt lat="41.9249360" lon="1.8646340">
<ele>475.914734</ele>
<time>2022-09-08T08:40:56.004Z</time>
</trkpt>
<trkpt lat="41.9249390" lon="1.8646050">
<ele>475.244141</ele>
<time>2022-09-08T08:40:56.997Z</time>
</trkpt>
<trkpt lat="41.9249550" lon="1.8645790">
<ele>474.329742</ele>
<time>2022-09-08T08:40:57.999Z</time>
</trkpt>
<trkpt lat="41.9249610" lon="1.8645450">
<ele>473.354401</ele>
<time>2022-09-08T08:40:59.002Z</time>
</trkpt>
<trkpt lat="41.9249760" lon="1.8645090">
<ele>472.165680</ele>
<time>2022-09-08T08:41:00.004Z</time>
</trkpt>
<trkpt lat="41.9249940" lon="1.8644750">
<ele>470.946472</ele>
<time>2022-09-08T08:41:00.997Z</time>
</trkpt>
<trkpt lat="41.9250100" lon="1.8644540">
<ele>470.093048</ele>
<time>2022-09-08T08:41:02.000Z</time>
</trkpt>
<trkpt lat="41.9250260" lon="1.8644400">
<ele>469.391998</ele>
<time>2022-09-08T08:41:03.002Z</time>
</trkpt>
<trkpt lat="41.9250440" lon="1.8644250">
<ele>468.599518</ele>
<time>2022-09-08T08:41:04.004Z</time>
</trkpt>
<trkpt lat="41.9250640" lon="1.8644060">
<ele>467.715607</ele>
<time>2022-09-08T08:41:04.998Z</time>
</trkpt>
<trkpt lat="41.9250780" lon="1.8643860">
<ele>466.953613</ele>
<time>2022-09-08T08:41:06.000Z</time>
</trkpt>
<trkpt lat="41.9250790" lon="1.8643620">
<ele>466.496399</ele>
<time>2022-09-08T08:41:07.002Z</time>
</trkpt>
<trkpt lat="41.9250780" lon="1.8643230">
<ele>465.825867</ele>
<time>2022-09-08T08:41:07.996Z</time>
</trkpt>
<trkpt lat="41.9250600" lon="1.8642890">
<ele>465.764862</ele>
<time>2022-09-08T08:41:08.998Z</time>
</trkpt>
<trkpt lat="41.9250560" lon="1.8642670">
<ele>465.521057</ele>
<time>2022-09-08T08:41:10.000Z</time>
</trkpt>
<trkpt lat="41.9250620" lon="1.8642490">
<ele>465.124786</ele>
<time>2022-09-08T08:41:11.003Z</time>
</trkpt>
<trkpt lat="41.9250750" lon="1.8642180">
<ele>464.240875</ele>
<time>2022-09-08T08:41:11.996Z</time>
</trkpt>
<trkpt lat="41.9250890" lon="1.8641950">
<ele>463.509338</ele>
<time>2022-09-08T08:41:12.998Z</time>
</trkpt>
<trkpt lat="41.9251030" lon="1.8641470">
<ele>462.564484</ele>
<time>2022-09-08T08:41:14.001Z</time>
</trkpt>
<trkpt lat="41.9251220" lon="1.8641100">
<ele>461.619598</ele>
<time>2022-09-08T08:41:15.003Z</time>
</trkpt>
<trkpt lat="41.9251320" lon="1.8640890">
<ele>461.070953</ele>
<time>2022-09-08T08:41:15.996Z</time>
</trkpt>
<trkpt lat="41.9251500" lon="1.8640720">
<ele>460.400391</ele>
<time>2022-09-08T08:41:16.999Z</time>
</trkpt>
<trkpt lat="41.9251680" lon="1.8640630">
<ele>459.943207</ele>
<time>2022-09-08T08:41:18.001Z</time>
</trkpt>
<trkpt lat="41.9251810" lon="1.8640360">
<ele>459.303131</ele>
<time>2022-09-08T08:41:19.003Z</time>
</trkpt>
<trkpt lat="41.9251930" lon="1.8640000">
<ele>458.663055</ele>
<time>2022-09-08T08:41:19.997Z</time>
</trkpt>
<trkpt lat="41.9251970" lon="1.8639760">
<ele>458.388733</ele>
<time>2022-09-08T08:41:20.999Z</time>
</trkpt>
<trkpt lat="41.9251990" lon="1.8639510">
<ele>458.175354</ele>
<time>2022-09-08T08:41:22.001Z</time>
</trkpt>
<trkpt lat="41.9252060" lon="1.8639270">
<ele>457.840057</ele>
<time>2022-09-08T08:41:23.004Z</time>
</trkpt>
<trkpt lat="41.9252180" lon="1.8639120">
<ele>457.474335</ele>
<time>2022-09-08T08:41:23.997Z</time>
</trkpt>
<trkpt lat="41.9252360" lon="1.8639030">
<ele>456.986664</ele>
<time>2022-09-08T08:41:24.999Z</time>
</trkpt>
<trkpt lat="41.9252580" lon="1.8639030">
<ele>456.498932</ele>
<time>2022-09-08T08:41:26.002Z</time>
</trkpt>
<trkpt lat="41.9252840" lon="1.8638970">
<ele>455.889343</ele>
<time>2022-09-08T08:41:27.004Z</time>
</trkpt>
<trkpt lat="41.9253150" lon="1.8638500">
<ele>455.035919</ele>
<time>2022-09-08T08:41:27.997Z</time>
</trkpt>
<trkpt lat="41.9253350" lon="1.8638250">
<ele>454.578735</ele>
<time>2022-09-08T08:41:29.000Z</time>
</trkpt>
<trkpt lat="41.9253460" lon="1.8638140">
<ele>454.304413</ele>
<time>2022-09-08T08:41:30.002Z</time>
</trkpt>
<trkpt lat="41.9253610" lon="1.8638170">
<ele>454.030060</ele>
<time>2022-09-08T08:41:31.004Z</time>
</trkpt>
<trkpt lat="41.9253790" lon="1.8638150">
<ele>453.694794</ele>
<time>2022-09-08T08:41:31.998Z</time>
</trkpt>
<trkpt lat="41.9253970" lon="1.8638120">
<ele>453.420471</ele>
<time>2022-09-08T08:41:33.000Z</time>
</trkpt>
<trkpt lat="41.9254190" lon="1.8637870">
<ele>452.963287</ele>
<time>2022-09-08T08:41:34.002Z</time>
</trkpt>
<trkpt lat="41.9254280" lon="1.8637750">
<ele>452.780396</ele>
<time>2022-09-08T08:41:34.996Z</time>
</trkpt>
<trkpt lat="41.9254400" lon="1.8637560">
<ele>452.475586</ele>
<time>2022-09-08T08:41:35.998Z</time>
</trkpt>
<trkpt lat="41.9254460" lon="1.8637250">
<ele>452.140320</ele>
<time>2022-09-08T08:41:37.000Z</time>
</trkpt>
<trkpt lat="41.9254490" lon="1.8636950">
<ele>451.805054</ele>
<time>2022-09-08T08:41:38.003Z</time>
</trkpt>
<trkpt lat="41.9254400" lon="1.8636700">
<ele>451.774536</ele>
<time>2022-09-08T08:41:38.996Z</time>
</trkpt>
<trkpt lat="41.9254320" lon="1.8636520">
<ele>451.865997</ele>
<time>2022-09-08T08:41:39.998Z</time>
</trkpt>
<trkpt lat="41.9254180" lon="1.8636260">
<ele>451.926941</ele>
<time>2022-09-08T08:41:41.001Z</time>
</trkpt>
<trkpt lat="41.9254080" lon="1.8636080">
<ele>452.018402</ele>
<time>2022-09-08T08:41:42.003Z</time>
</trkpt>
<trkpt lat="41.9253840" lon="1.8635960">
<ele>452.323212</ele>
<time>2022-09-08T08:41:42.996Z</time>
</trkpt>
<trkpt lat="41.9253610" lon="1.8635870">
<ele>452.658478</ele>
<time>2022-09-08T08:41:43.999Z</time>
</trkpt>
<trkpt lat="41.9253520" lon="1.8635830">
<ele>452.841339</ele>
<time>2022-09-08T08:41:45.001Z</time>
</trkpt>
<trkpt lat="41.9253560" lon="1.8635770">
<ele>452.688934</ele>
<time>2022-09-08T08:41:46.003Z</time>
</trkpt>
<trkpt lat="41.9253650" lon="1.8635630">
<ele>452.506073</ele>
<time>2022-09-08T08:41:46.997Z</time>
</trkpt>
<trkpt lat="41.9253740" lon="1.8635400">
<ele>452.323212</ele>
<time>2022-09-08T08:41:47.999Z</time>
</trkpt>
<trkpt lat="41.9253800" lon="1.8635200">
<ele>452.170807</ele>
<time>2022-09-08T08:41:49.001Z</time>
</trkpt>
<trkpt lat="41.9253910" lon="1.8634970">
<ele>451.957458</ele>
<time>2022-09-08T08:41:50.004Z</time>
</trkpt>
<trkpt lat="41.9253970" lon="1.8634830">
<ele>451.896484</ele>
<time>2022-09-08T08:41:50.997Z</time>
</trkpt>
<trkpt lat="41.9254150" lon="1.8634370">
<ele>451.713593</ele>
<time>2022-09-08T08:41:51.999Z</time>
</trkpt>
<trkpt lat="41.9254310" lon="1.8633850">
<ele>451.622131</ele>
<time>2022-09-08T08:41:53.002Z</time>
</trkpt>
<trkpt lat="41.9254480" lon="1.8633380">
<ele>451.591675</ele>
<time>2022-09-08T08:41:54.004Z</time>
</trkpt>
<trkpt lat="41.9254490" lon="1.8633040">
<ele>451.865997</ele>
<time>2022-09-08T08:41:54.997Z</time>
</trkpt>
<trkpt lat="41.9254350" lon="1.8632760">
<ele>452.414642</ele>
<time>2022-09-08T08:41:56.000Z</time>
</trkpt>
<trkpt lat="41.9254160" lon="1.8632580">
<ele>452.932800</ele>
<time>2022-09-08T08:41:57.002Z</time>
</trkpt>
<trkpt lat="41.9253910" lon="1.8632390">
<ele>453.450958</ele>
<time>2022-09-08T08:41:58.004Z</time>
</trkpt>
<trkpt lat="41.9253550" lon="1.8632240">
<ele>454.212952</ele>
<time>2022-09-08T08:41:58.998Z</time>
</trkpt>
<trkpt lat="41.9253260" lon="1.8632150">
<ele>454.731140</ele>
<time>2022-09-08T08:42:00.000Z</time>
</trkpt>
<trkpt lat="41.9252920" lon="1.8632010">
<ele>455.493134</ele>
<time>2022-09-08T08:42:01.002Z</time>
</trkpt>
<trkpt lat="41.9252370" lon="1.8631760">
<ele>456.864716</ele>
<time>2022-09-08T08:42:01.996Z</time>
</trkpt>
<trkpt lat="41.9252020" lon="1.8631530">
<ele>457.870544</ele>
<time>2022-09-08T08:42:02.998Z</time>
</trkpt>
<trkpt lat="41.9251640" lon="1.8631350">
<ele>458.967865</ele>
<time>2022-09-08T08:42:04.000Z</time>
</trkpt>
<trkpt lat="41.9251280" lon="1.8631260">
<ele>459.851746</ele>
<time>2022-09-08T08:42:05.003Z</time>
</trkpt>
<trkpt lat="41.9251000" lon="1.8631170">
<ele>460.705200</ele>
<time>2022-09-08T08:42:05.996Z</time>
</trkpt>
<trkpt lat="41.9250740" lon="1.8631100">
<ele>461.375732</ele>
<time>2022-09-08T08:42:06.998Z</time>
</trkpt>
<trkpt lat="41.9250360" lon="1.8630850">
<ele>462.777863</ele>
<time>2022-09-08T08:42:08.001Z</time>
</trkpt>
<trkpt lat="41.9249920" lon="1.8630640">
<ele>464.393280</ele>
<time>2022-09-08T08:42:09.003Z</time>
</trkpt>
<trkpt lat="41.9249500" lon="1.8630550">
<ele>465.734406</ele>
<time>2022-09-08T08:42:09.996Z</time>
</trkpt>
<trkpt lat="41.9249260" lon="1.8630370">
<ele>466.770721</ele>
<time>2022-09-08T08:42:10.999Z</time>
</trkpt>
<trkpt lat="41.9249010" lon="1.8630170">
<ele>467.989929</ele>
<time>2022-09-08T08:42:12.001Z</time>
</trkpt>
<trkpt lat="41.9248900" lon="1.8629960">
<ele>468.812866</ele>
<time>2022-09-08T08:42:13.003Z</time>
</trkpt>
<trkpt lat="41.9248890" lon="1.8629710">
<ele>469.422485</ele>
<time>2022-09-08T08:42:13.997Z</time>
</trkpt>
<trkpt lat="41.9248940" lon="1.8629480">
<ele>469.910156</ele>
<time>2022-09-08T08:42:14.999Z</time>
</trkpt>
<trkpt lat="41.9248800" lon="1.8629170">
<ele>471.129333</ele>
<time>2022-09-08T08:42:16.001Z</time>
</trkpt>
<trkpt lat="41.9248640" lon="1.8628950">
<ele>472.043732</ele>
<time>2022-09-08T08:42:17.004Z</time>
</trkpt>
<trkpt lat="41.9248560" lon="1.8628730">
<ele>472.866730</ele>
<time>2022-09-08T08:42:17.997Z</time>
</trkpt>
<trkpt lat="41.9248460" lon="1.8628540">
<ele>473.506805</ele>
<time>2022-09-08T08:42:18.999Z</time>
</trkpt>
<trkpt lat="41.9248380" lon="1.8628380">
<ele>474.116394</ele>
<time>2022-09-08T08:42:20.002Z</time>
</trkpt>
<trkpt lat="41.9248400" lon="1.8628200">
<ele>474.543121</ele>
<time>2022-09-08T08:42:21.004Z</time>
</trkpt>
<trkpt lat="41.9248420" lon="1.8628070">
<ele>474.756470</ele>
<time>2022-09-08T08:42:21.997Z</time>
</trkpt>
<trkpt lat="41.9248450" lon="1.8628040">
<ele>474.726013</ele>
<time>2022-09-08T08:42:23.000Z</time>
</trkpt>
<trkpt lat="41.9248540" lon="1.8628060">
<ele>474.451660</ele>
<time>2022-09-08T08:42:24.002Z</time>
</trkpt>
<trkpt lat="41.9248600" lon="1.8628070">
<ele>474.299286</ele>
<time>2022-09-08T08:42:25.004Z</time>
</trkpt>
<trkpt lat="41.9248710" lon="1.8628090">
<ele>473.933533</ele>
<time>2022-09-08T08:42:25.998Z</time>
</trkpt>
<trkpt lat="41.9248850" lon="1.8628150">
<ele>473.354401</ele>
<time>2022-09-08T08:42:27.000Z</time>
</trkpt>
<trkpt lat="41.9249030" lon="1.8628200">
<ele>472.683868</ele>
<time>2022-09-08T08:42:28.002Z</time>
</trkpt>
<trkpt lat="41.9249240" lon="1.8628220">
<ele>472.104736</ele>
<time>2022-09-08T08:42:28.996Z</time>
</trkpt>
<trkpt lat="41.9249340" lon="1.8628240">
<ele>471.769440</ele>
<time>2022-09-08T08:42:29.998Z</time>
</trkpt>
<trkpt lat="41.9249460" lon="1.8628290">
<ele>471.342712</ele>
<time>2022-09-08T08:42:31.000Z</time>
</trkpt>
<trkpt lat="41.9249590" lon="1.8628310">
<ele>470.976959</ele>
<time>2022-09-08T08:42:32.003Z</time>
</trkpt>
<trkpt lat="41.9249730" lon="1.8628320">
<ele>470.580719</ele>
<time>2022-09-08T08:42:32.996Z</time>
</trkpt>
<trkpt lat="41.9249860" lon="1.8628380">
<ele>470.032074</ele>
<time>2022-09-08T08:42:33.998Z</time>
</trkpt>
<trkpt lat="41.9250050" lon="1.8628450">
<ele>469.391998</ele>
<time>2022-09-08T08:42:35.001Z</time>
</trkpt>
<trkpt lat="41.9250210" lon="1.8628500">
<ele>468.904327</ele>
<time>2022-09-08T08:42:36.003Z</time>
</trkpt>
<trkpt lat="41.9250390" lon="1.8628530">
<ele>468.477600</ele>
<time>2022-09-08T08:42:36.996Z</time>
</trkpt>
<trkpt lat="41.9250530" lon="1.8628590">
<ele>467.959442</ele>
<time>2022-09-08T08:42:37.999Z</time>
</trkpt>
<trkpt lat="41.9250720" lon="1.8628670">
<ele>467.349854</ele>
<time>2022-09-08T08:42:39.001Z</time>
</trkpt>
<trkpt lat="41.9250880" lon="1.8628710">
<ele>466.892670</ele>
<time>2022-09-08T08:42:40.003Z</time>
</trkpt>
<trkpt lat="41.9251080" lon="1.8628690">
<ele>466.465942</ele>
<time>2022-09-08T08:42:40.997Z</time>
</trkpt>
<trkpt lat="41.9251300" lon="1.8628550">
<ele>466.435455</ele>
<time>2022-09-08T08:42:41.999Z</time>
</trkpt>
<trkpt lat="41.9251520" lon="1.8628370">
<ele>466.435455</ele>
<time>2022-09-08T08:42:43.001Z</time>
</trkpt>
<trkpt lat="41.9251730" lon="1.8628240">
<ele>466.343994</ele>
<time>2022-09-08T08:42:44.004Z</time>
</trkpt>
<trkpt lat="41.9251970" lon="1.8628160">
<ele>466.130646</ele>
<time>2022-09-08T08:42:44.997Z</time>
</trkpt>
<trkpt lat="41.9252150" lon="1.8628130">
<ele>465.886810</ele>
<time>2022-09-08T08:42:45.999Z</time>
</trkpt>
<trkpt lat="41.9252380" lon="1.8628120">
<ele>465.490540</ele>
<time>2022-09-08T08:42:47.002Z</time>
</trkpt>
<trkpt lat="41.9252620" lon="1.8628140">
<ele>465.033356</ele>
<time>2022-09-08T08:42:48.004Z</time>
</trkpt>
<trkpt lat="41.9252920" lon="1.8628120">
<ele>464.576141</ele>
<time>2022-09-08T08:42:48.997Z</time>
</trkpt>
<trkpt lat="41.9253270" lon="1.8627900">
<ele>464.667603</ele>
<time>2022-09-08T08:42:50.000Z</time>
</trkpt>
<trkpt lat="41.9253450" lon="1.8627770">
<ele>464.728546</ele>
<time>2022-09-08T08:42:51.002Z</time>
</trkpt>
<trkpt lat="41.9253630" lon="1.8627680">
<ele>464.759064</ele>
<time>2022-09-08T08:42:52.004Z</time>
</trkpt>
<trkpt lat="41.9253870" lon="1.8627570">
<ele>464.667603</ele>
<time>2022-09-08T08:42:52.998Z</time>
</trkpt>
<trkpt lat="41.9254080" lon="1.8627480">
<ele>464.637115</ele>
<time>2022-09-08T08:42:54.000Z</time>
</trkpt>
<trkpt lat="41.9254300" lon="1.8627420">
<ele>464.423737</ele>
<time>2022-09-08T08:42:55.002Z</time>
</trkpt>
<trkpt lat="41.9254600" lon="1.8627380">
<ele>464.027527</ele>
<time>2022-09-08T08:42:55.996Z</time>
</trkpt>
<trkpt lat="41.9254870" lon="1.8627330">
<ele>463.722717</ele>
<time>2022-09-08T08:42:56.998Z</time>
</trkpt>
<trkpt lat="41.9255160" lon="1.8627250">
<ele>463.570313</ele>
<time>2022-09-08T08:42:58.000Z</time>
</trkpt>
<trkpt lat="41.9255450" lon="1.8627130">
<ele>463.509338</ele>
<time>2022-09-08T08:42:59.003Z</time>
</trkpt>
<trkpt lat="41.9255660" lon="1.8627100">
<ele>463.295990</ele>
<time>2022-09-08T08:42:59.996Z</time>
</trkpt>
<trkpt lat="41.9255910" lon="1.8627200">
<ele>462.747345</ele>
<time>2022-09-08T08:43:00.998Z</time>
</trkpt>
<trkpt lat="41.9256170" lon="1.8627400">
<ele>461.863464</ele>
<time>2022-09-08T08:43:02.001Z</time>
</trkpt>
<trkpt lat="41.9256500" lon="1.8627600">
<ele>460.979523</ele>
<time>2022-09-08T08:43:03.003Z</time>
</trkpt>
<trkpt lat="41.9256770" lon="1.8627710">
<ele>460.430878</ele>
<time>2022-09-08T08:43:03.996Z</time>
</trkpt>
<trkpt lat="41.9257020" lon="1.8627700">
<ele>460.278473</ele>
<time>2022-09-08T08:43:04.999Z</time>
</trkpt>
<trkpt lat="41.9257280" lon="1.8627650">
<ele>460.217529</ele>
<time>2022-09-08T08:43:06.001Z</time>
</trkpt>
<trkpt lat="41.9257490" lon="1.8627510">
<ele>460.400391</ele>
<time>2022-09-08T08:43:07.003Z</time>
</trkpt>
<trkpt lat="41.9257740" lon="1.8627330">
<ele>460.705200</ele>
<time>2022-09-08T08:43:07.997Z</time>
</trkpt>
<trkpt lat="41.9258050" lon="1.8626940">
<ele>461.467194</ele>
<time>2022-09-08T08:43:08.999Z</time>
</trkpt>
<trkpt lat="41.9258240" lon="1.8626640">
<ele>462.107269</ele>
<time>2022-09-08T08:43:10.001Z</time>
</trkpt>
<trkpt lat="41.9258480" lon="1.8626270">
<ele>462.869263</ele>
<time>2022-09-08T08:43:11.004Z</time>
</trkpt>
<trkpt lat="41.9258620" lon="1.8626050">
<ele>463.295990</ele>
<time>2022-09-08T08:43:11.997Z</time>
</trkpt>
<trkpt lat="41.9258710" lon="1.8625760">
<ele>463.936066</ele>
<time>2022-09-08T08:43:12.999Z</time>
</trkpt>
<trkpt lat="41.9258770" lon="1.8625460">
<ele>464.667603</ele>
<time>2022-09-08T08:43:14.002Z</time>
</trkpt>
<trkpt lat="41.9258760" lon="1.8625230">
<ele>465.277191</ele>
<time>2022-09-08T08:43:15.004Z</time>
</trkpt>
<trkpt lat="41.9258690" lon="1.8625090">
<ele>465.734406</ele>
<time>2022-09-08T08:43:15.997Z</time>
</trkpt>
<trkpt lat="41.9258460" lon="1.8624910">
<ele>466.496399</ele>
<time>2022-09-08T08:43:17.000Z</time>
</trkpt>
<trkpt lat="41.9258340" lon="1.8624750">
<ele>467.105988</ele>
<time>2022-09-08T08:43:18.002Z</time>
</trkpt>
<trkpt lat="41.9258120" lon="1.8624560">
<ele>467.959442</ele>
<time>2022-09-08T08:43:19.004Z</time>
</trkpt>
<trkpt lat="41.9257990" lon="1.8624490">
<ele>468.325195</ele>
<time>2022-09-08T08:43:19.998Z</time>
</trkpt>
<trkpt lat="41.9257850" lon="1.8624530">
<ele>468.416656</ele>
<time>2022-09-08T08:43:21.000Z</time>
</trkpt>
<trkpt lat="41.9257700" lon="1.8624550">
<ele>468.569061</ele>
<time>2022-09-08T08:43:22.002Z</time>
</trkpt>
<trkpt lat="41.9257540" lon="1.8624500">
<ele>468.934814</ele>
<time>2022-09-08T08:43:22.996Z</time>
</trkpt>
<trkpt lat="41.9257510" lon="1.8624400">
<ele>469.300537</ele>
<time>2022-09-08T08:43:23.998Z</time>
</trkpt>
<trkpt lat="41.9257550" lon="1.8624210">
<ele>469.818726</ele>
<time>2022-09-08T08:43:25.000Z</time>
</trkpt>
<trkpt lat="41.9257640" lon="1.8624050">
<ele>470.184479</ele>
<time>2022-09-08T08:43:26.003Z</time>
</trkpt>
<trkpt lat="41.9257710" lon="1.8623840">
<ele>470.733124</ele>
<time>2022-09-08T08:43:26.996Z</time>
</trkpt>
<trkpt lat="41.9257830" lon="1.8623570">
<ele>471.342712</ele>
<time>2022-09-08T08:43:27.998Z</time>
</trkpt>
<trkpt lat="41.9257940" lon="1.8623420">
<ele>471.617065</ele>
<time>2022-09-08T08:43:29.001Z</time>
</trkpt>
<trkpt lat="41.9258100" lon="1.8623200">
<ele>471.921844</ele>
<time>2022-09-08T08:43:30.003Z</time>
</trkpt>
<trkpt lat="41.9258220" lon="1.8622920">
<ele>472.531464</ele>
<time>2022-09-08T08:43:30.996Z</time>
</trkpt>
<trkpt lat="41.9258290" lon="1.8622660">
<ele>473.141052</ele>
<time>2022-09-08T08:43:31.999Z</time>
</trkpt>
<trkpt lat="41.9258350" lon="1.8622420">
<ele>473.750641</ele>
<time>2022-09-08T08:43:33.001Z</time>
</trkpt>
<trkpt lat="41.9258440" lon="1.8622120">
<ele>474.451660</ele>
<time>2022-09-08T08:43:34.003Z</time>
</trkpt>
<trkpt lat="41.9258520" lon="1.8621910">
<ele>474.786957</ele>
<time>2022-09-08T08:43:34.997Z</time>
</trkpt>
<trkpt lat="41.9258590" lon="1.8621630">
<ele>475.488007</ele>
<time>2022-09-08T08:43:35.999Z</time>
</trkpt>
<trkpt lat="41.9258680" lon="1.8621310">
<ele>476.097595</ele>
<time>2022-09-08T08:43:37.001Z</time>
</trkpt>
<trkpt lat="41.9258810" lon="1.8620990">
<ele>476.676727</ele>
<time>2022-09-08T08:43:38.004Z</time>
</trkpt>
<trkpt lat="41.9258960" lon="1.8620790">
<ele>476.829132</ele>
<time>2022-09-08T08:43:38.997Z</time>
</trkpt>
<trkpt lat="41.9259130" lon="1.8620580">
<ele>476.890076</ele>
<time>2022-09-08T08:43:39.999Z</time>
</trkpt>
<trkpt lat="41.9259260" lon="1.8620380">
<ele>477.072937</ele>
<time>2022-09-08T08:43:41.002Z</time>
</trkpt>
<trkpt lat="41.9259350" lon="1.8620220">
<ele>477.225342</ele>
<time>2022-09-08T08:43:42.004Z</time>
</trkpt>
<trkpt lat="41.9259450" lon="1.8619980">
<ele>477.438721</ele>
<time>2022-09-08T08:43:42.997Z</time>
</trkpt>
<trkpt lat="41.9259490" lon="1.8619680">
<ele>477.956879</ele>
<time>2022-09-08T08:43:44.000Z</time>
</trkpt>
<trkpt lat="41.9259470" lon="1.8619460">
<ele>478.475067</ele>
<time>2022-09-08T08:43:45.002Z</time>
</trkpt>
<trkpt lat="41.9259410" lon="1.8619300">
<ele>478.871277</ele>
<time>2022-09-08T08:43:46.004Z</time>
</trkpt>
<trkpt lat="41.9259380" lon="1.8619130">
<ele>479.267517</ele>
<time>2022-09-08T08:43:46.998Z</time>
</trkpt>
<trkpt lat="41.9259370" lon="1.8618920">
<ele>479.633270</ele>
<time>2022-09-08T08:43:48.000Z</time>
</trkpt>
<trkpt lat="41.9259390" lon="1.8618660">
<ele>480.059998</ele>
<time>2022-09-08T08:43:49.002Z</time>
</trkpt>
<trkpt lat="41.9259380" lon="1.8618390">
<ele>480.486725</ele>
<time>2022-09-08T08:43:49.996Z</time>
</trkpt>
<trkpt lat="41.9259360" lon="1.8618160">
<ele>480.821991</ele>
<time>2022-09-08T08:43:50.998Z</time>
</trkpt>
<trkpt lat="41.9259350" lon="1.8617930">
<ele>481.248718</ele>
<time>2022-09-08T08:43:52.000Z</time>
</trkpt>
<trkpt lat="41.9259370" lon="1.8617700">
<ele>481.462067</ele>
<time>2022-09-08T08:43:53.003Z</time>
</trkpt>
<trkpt lat="41.9259440" lon="1.8617500">
<ele>481.492554</ele>
<time>2022-09-08T08:43:53.996Z</time>
</trkpt>
<trkpt lat="41.9259510" lon="1.8617210">
<ele>481.736389</ele>
<time>2022-09-08T08:43:54.998Z</time>
</trkpt>
<trkpt lat="41.9259560" lon="1.8617040">
<ele>481.705933</ele>
<time>2022-09-08T08:43:56.001Z</time>
</trkpt>
<trkpt lat="41.9259720" lon="1.8616790">
<ele>481.553528</ele>
<time>2022-09-08T08:43:57.003Z</time>
</trkpt>
<trkpt lat="41.9259820" lon="1.8616550">
<ele>481.462067</ele>
<time>2022-09-08T08:43:57.996Z</time>
</trkpt>
<trkpt lat="41.9259900" lon="1.8616310">
<ele>481.523041</ele>
<time>2022-09-08T08:43:58.999Z</time>
</trkpt>
<trkpt lat="41.9260000" lon="1.8616140">
<ele>481.462067</ele>
<time>2022-09-08T08:44:00.001Z</time>
</trkpt>
<trkpt lat="41.9260120" lon="1.8615940">
<ele>481.340149</ele>
<time>2022-09-08T08:44:01.003Z</time>
</trkpt>
<trkpt lat="41.9260300" lon="1.8615640">
<ele>481.096313</ele>
<time>2022-09-08T08:44:01.997Z</time>
</trkpt>
<trkpt lat="41.9260490" lon="1.8615410">
<ele>480.791534</ele>
<time>2022-09-08T08:44:02.999Z</time>
</trkpt>
<trkpt lat="41.9260690" lon="1.8615160">
<ele>480.517212</ele>
<time>2022-09-08T08:44:04.001Z</time>
</trkpt>
<trkpt lat="41.9260890" lon="1.8614780">
<ele>480.303864</ele>
<time>2022-09-08T08:44:05.004Z</time>
</trkpt>
<trkpt lat="41.9260950" lon="1.8614380">
<ele>480.700073</ele>
<time>2022-09-08T08:44:05.997Z</time>
</trkpt>
<trkpt lat="41.9261070" lon="1.8613930">
<ele>480.974396</ele>
<time>2022-09-08T08:44:06.999Z</time>
</trkpt>
<trkpt lat="41.9261150" lon="1.8613420">
<ele>481.523041</ele>
<time>2022-09-08T08:44:08.002Z</time>
</trkpt>
<trkpt lat="41.9261090" lon="1.8613030">
<ele>482.224060</ele>
<time>2022-09-08T08:44:09.004Z</time>
</trkpt>
<trkpt lat="41.9260980" lon="1.8612750">
<ele>482.986084</ele>
<time>2022-09-08T08:44:09.997Z</time>
</trkpt>
<trkpt lat="41.9261070" lon="1.8612590">
<ele>483.047058</ele>
<time>2022-09-08T08:44:11.000Z</time>
</trkpt>
<trkpt lat="41.9261240" lon="1.8612480">
<ele>482.772736</ele>
<time>2022-09-08T08:44:12.002Z</time>
</trkpt>
<trkpt lat="41.9261370" lon="1.8612330">
<ele>482.772736</ele>
<time>2022-09-08T08:44:13.004Z</time>
</trkpt>
<trkpt lat="41.9261500" lon="1.8612110">
<ele>482.803192</ele>
<time>2022-09-08T08:44:13.998Z</time>
</trkpt>
<trkpt lat="41.9261660" lon="1.8611940">
<ele>482.742249</ele>
<time>2022-09-08T08:44:15.000Z</time>
</trkpt>
<trkpt lat="41.9261880" lon="1.8611900">
<ele>482.346008</ele>
<time>2022-09-08T08:44:16.002Z</time>
</trkpt>
<trkpt lat="41.9262140" lon="1.8612000">
<ele>481.675446</ele>
<time>2022-09-08T08:44:16.996Z</time>
</trkpt>
<trkpt lat="41.9262390" lon="1.8612080">
<ele>481.004883</ele>
<time>2022-09-08T08:44:17.998Z</time>
</trkpt>
<trkpt lat="41.9262640" lon="1.8612320">
<ele>479.999054</ele>
<time>2022-09-08T08:44:19.000Z</time>
</trkpt>
<trkpt lat="41.9262850" lon="1.8612630">
<ele>478.962738</ele>
<time>2022-09-08T08:44:20.003Z</time>
</trkpt>
<trkpt lat="41.9263080" lon="1.8613190">
<ele>477.377747</ele>
<time>2022-09-08T08:44:20.996Z</time>
</trkpt>
<trkpt lat="41.9263260" lon="1.8613510">
<ele>476.402405</ele>
<time>2022-09-08T08:44:21.998Z</time>
</trkpt>
<trkpt lat="41.9263400" lon="1.8613740">
<ele>475.731842</ele>
<time>2022-09-08T08:44:23.001Z</time>
</trkpt>
<trkpt lat="41.9263430" lon="1.8614000">
<ele>475.183197</ele>
<time>2022-09-08T08:44:24.003Z</time>
</trkpt>
<trkpt lat="41.9263490" lon="1.8614280">
<ele>474.543121</ele>
<time>2022-09-08T08:44:24.996Z</time>
</trkpt>
<trkpt lat="41.9263660" lon="1.8614640">
<ele>473.628723</ele>
<time>2022-09-08T08:44:25.999Z</time>
</trkpt>
<trkpt lat="41.9263840" lon="1.8614830">
<ele>472.927673</ele>
<time>2022-09-08T08:44:27.001Z</time>
</trkpt>
<trkpt lat="41.9264020" lon="1.8614990">
<ele>472.287598</ele>
<time>2022-09-08T08:44:28.003Z</time>
</trkpt>
<trkpt lat="41.9264170" lon="1.8615040">
<ele>471.891357</ele>
<time>2022-09-08T08:44:28.997Z</time>
</trkpt>
<trkpt lat="41.9264360" lon="1.8615050">
<ele>471.525604</ele>
<time>2022-09-08T08:44:29.999Z</time>
</trkpt>
<trkpt lat="41.9264600" lon="1.8614980">
<ele>471.220795</ele>
<time>2022-09-08T08:44:31.001Z</time>
</trkpt>
<trkpt lat="41.9264740" lon="1.8614970">
<ele>471.007446</ele>
<time>2022-09-08T08:44:32.004Z</time>
</trkpt>
<trkpt lat="41.9264920" lon="1.8614940">
<ele>470.794067</ele>
<time>2022-09-08T08:44:32.997Z</time>
</trkpt>
<trkpt lat="41.9265100" lon="1.8614910">
<ele>470.580719</ele>
<time>2022-09-08T08:44:33.999Z</time>
</trkpt>
<trkpt lat="41.9265290" lon="1.8614900">
<ele>470.306396</ele>
<time>2022-09-08T08:44:35.002Z</time>
</trkpt>
<trkpt lat="41.9265500" lon="1.8614900">
<ele>470.001587</ele>
<time>2022-09-08T08:44:36.004Z</time>
</trkpt>
<trkpt lat="41.9265640" lon="1.8614970">
<ele>469.727264</ele>
<time>2022-09-08T08:44:36.997Z</time>
</trkpt>
<trkpt lat="41.9265770" lon="1.8615100">
<ele>469.270081</ele>
<time>2022-09-08T08:44:38.000Z</time>
</trkpt>
<trkpt lat="41.9265840" lon="1.8615260">
<ele>468.904327</ele>
<time>2022-09-08T08:44:39.002Z</time>
</trkpt>
<trkpt lat="41.9265890" lon="1.8615450">
<ele>468.416656</ele>
<time>2022-09-08T08:44:40.004Z</time>
</trkpt>
<trkpt lat="41.9265940" lon="1.8615600">
<ele>468.050873</ele>
<time>2022-09-08T08:44:40.998Z</time>
</trkpt>
<trkpt lat="41.9266030" lon="1.8615890">
<ele>467.380341</ele>
<time>2022-09-08T08:44:42.000Z</time>
</trkpt>
<trkpt lat="41.9266070" lon="1.8616120">
<ele>466.862152</ele>
<time>2022-09-08T08:44:43.002Z</time>
</trkpt>
<trkpt lat="41.9266160" lon="1.8616460">
<ele>466.039215</ele>
<time>2022-09-08T08:44:43.996Z</time>
</trkpt>
<trkpt lat="41.9266300" lon="1.8616810">
<ele>465.216248</ele>
<time>2022-09-08T08:44:44.998Z</time>
</trkpt>
<trkpt lat="41.9266470" lon="1.8617000">
<ele>464.576141</ele>
<time>2022-09-08T08:44:46.000Z</time>
</trkpt>
<trkpt lat="41.9266620" lon="1.8617150">
<ele>464.088470</ele>
<time>2022-09-08T08:44:47.003Z</time>
</trkpt>
<trkpt lat="41.9266790" lon="1.8617300">
<ele>463.570313</ele>
<time>2022-09-08T08:44:47.996Z</time>
</trkpt>
<trkpt lat="41.9267000" lon="1.8617410">
<ele>463.052155</ele>
<time>2022-09-08T08:44:48.998Z</time>
</trkpt>
<trkpt lat="41.9267220" lon="1.8617500">
<ele>462.564484</ele>
<time>2022-09-08T08:44:50.001Z</time>
</trkpt>
<trkpt lat="41.9267420" lon="1.8617590">
<ele>462.168243</ele>
<time>2022-09-08T08:44:51.003Z</time>
</trkpt>
<trkpt lat="41.9267660" lon="1.8617670">
<ele>461.741516</ele>
<time>2022-09-08T08:44:51.996Z</time>
</trkpt>
<trkpt lat="41.9267940" lon="1.8617860">
<ele>461.040466</ele>
<time>2022-09-08T08:44:52.999Z</time>
</trkpt>
<trkpt lat="41.9268200" lon="1.8618000">
<ele>460.491852</ele>
<time>2022-09-08T08:44:54.001Z</time>
</trkpt>
<trkpt lat="41.9268480" lon="1.8618060">
<ele>460.065125</ele>
<time>2022-09-08T08:44:55.003Z</time>
</trkpt>
<trkpt lat="41.9268780" lon="1.8618010">
<ele>459.943207</ele>
<time>2022-09-08T08:44:55.997Z</time>
</trkpt>
<trkpt lat="41.9269040" lon="1.8617980">
<ele>459.851746</ele>
<time>2022-09-08T08:44:56.999Z</time>
</trkpt>
<trkpt lat="41.9269280" lon="1.8617990">
<ele>459.699341</ele>
<time>2022-09-08T08:44:58.001Z</time>
</trkpt>
<trkpt lat="41.9269510" lon="1.8617900">
<ele>459.790802</ele>
<time>2022-09-08T08:44:59.004Z</time>
</trkpt>
<trkpt lat="41.9269690" lon="1.8617660">
<ele>460.308960</ele>
<time>2022-09-08T08:44:59.997Z</time>
</trkpt>
<trkpt lat="41.9269830" lon="1.8617460">
<ele>460.735687</ele>
<time>2022-09-08T08:45:00.999Z</time>
</trkpt>
<trkpt lat="41.9269970" lon="1.8617310">
<ele>461.070953</ele>
<time>2022-09-08T08:45:02.002Z</time>
</trkpt>
<trkpt lat="41.9270250" lon="1.8617070">
<ele>461.650085</ele>
<time>2022-09-08T08:45:03.004Z</time>
</trkpt>
<trkpt lat="41.9270540" lon="1.8616950">
<ele>461.924408</ele>
<time>2022-09-08T08:45:03.997Z</time>
</trkpt>
<trkpt lat="41.9270850" lon="1.8617110">
<ele>461.528137</ele>
<time>2022-09-08T08:45:05.000Z</time>
</trkpt>
<trkpt lat="41.9271130" lon="1.8617430">
<ele>460.674713</ele>
<time>2022-09-08T08:45:06.002Z</time>
</trkpt>
<trkpt lat="41.9271350" lon="1.8617630">
<ele>460.187042</ele>
<time>2022-09-08T08:45:07.004Z</time>
</trkpt>
<trkpt lat="41.9271600" lon="1.8617630">
<ele>460.217529</ele>
<time>2022-09-08T08:45:07.998Z</time>
</trkpt>
<trkpt lat="41.9271950" lon="1.8617810">
<ele>459.851746</ele>
<time>2022-09-08T08:45:09.000Z</time>
</trkpt>
<trkpt lat="41.9272260" lon="1.8617970">
<ele>459.577454</ele>
<time>2022-09-08T08:45:10.002Z</time>
</trkpt>
<trkpt lat="41.9272530" lon="1.8618070">
<ele>459.485992</ele>
<time>2022-09-08T08:45:10.996Z</time>
</trkpt>
<trkpt lat="41.9272880" lon="1.8618200">
<ele>459.394531</ele>
<time>2022-09-08T08:45:11.998Z</time>
</trkpt>
<trkpt lat="41.9273210" lon="1.8618280">
<ele>459.455536</ele>
<time>2022-09-08T08:45:13.000Z</time>
</trkpt>
<trkpt lat="41.9273540" lon="1.8618350">
<ele>459.546936</ele>
<time>2022-09-08T08:45:14.003Z</time>
</trkpt>
<trkpt lat="41.9273910" lon="1.8618500">
<ele>459.546936</ele>
<time>2022-09-08T08:45:14.996Z</time>
</trkpt>
<trkpt lat="41.9274090" lon="1.8618690">
<ele>459.303131</ele>
<time>2022-09-08T08:45:15.998Z</time>
</trkpt>
<trkpt lat="41.9274300" lon="1.8618820">
<ele>459.211670</ele>
<time>2022-09-08T08:45:17.001Z</time>
</trkpt>
<trkpt lat="41.9274480" lon="1.8619100">
<ele>458.815460</ele>
<time>2022-09-08T08:45:18.003Z</time>
</trkpt>
<trkpt lat="41.9274660" lon="1.8619340">
<ele>458.510651</ele>
<time>2022-09-08T08:45:18.996Z</time>
</trkpt>
<trkpt lat="41.9274820" lon="1.8619560">
<ele>458.236328</ele>
<time>2022-09-08T08:45:19.999Z</time>
</trkpt>
<trkpt lat="41.9274940" lon="1.8619840">
<ele>457.809601</ele>
<time>2022-09-08T08:45:21.001Z</time>
</trkpt>
<trkpt lat="41.9275050" lon="1.8620160">
<ele>457.291443</ele>
<time>2022-09-08T08:45:22.003Z</time>
</trkpt>
<trkpt lat="41.9275090" lon="1.8620450">
<ele>456.773285</ele>
<time>2022-09-08T08:45:22.997Z</time>
</trkpt>
<trkpt lat="41.9275080" lon="1.8620720">
<ele>456.255127</ele>
<time>2022-09-08T08:45:23.999Z</time>
</trkpt>
<trkpt lat="41.9275060" lon="1.8620990">
<ele>455.645538</ele>
<time>2022-09-08T08:45:25.001Z</time>
</trkpt>
<trkpt lat="41.9275040" lon="1.8621320">
<ele>455.005463</ele>
<time>2022-09-08T08:45:26.004Z</time>
</trkpt>
<trkpt lat="41.9275040" lon="1.8621650">
<ele>454.395844</ele>
<time>2022-09-08T08:45:26.997Z</time>
</trkpt>
<trkpt lat="41.9275090" lon="1.8621970">
<ele>453.908142</ele>
<time>2022-09-08T08:45:27.999Z</time>
</trkpt>
<trkpt lat="41.9275150" lon="1.8622210">
<ele>453.542389</ele>
<time>2022-09-08T08:45:29.002Z</time>
</trkpt>
<trkpt lat="41.9275270" lon="1.8622430">
<ele>453.420471</ele>
<time>2022-09-08T08:45:30.004Z</time>
</trkpt>
<trkpt lat="41.9275410" lon="1.8622680">
<ele>453.237610</ele>
<time>2022-09-08T08:45:30.997Z</time>
</trkpt>
<trkpt lat="41.9275540" lon="1.8622920">
<ele>453.115662</ele>
<time>2022-09-08T08:45:32.000Z</time>
</trkpt>
<trkpt lat="41.9275730" lon="1.8623040">
<ele>453.237610</ele>
<time>2022-09-08T08:45:33.002Z</time>
</trkpt>
<trkpt lat="41.9275880" lon="1.8622970">
<ele>453.572876</ele>
<time>2022-09-08T08:45:34.004Z</time>
</trkpt>
<trkpt lat="41.9275940" lon="1.8622820">
<ele>453.816742</ele>
<time>2022-09-08T08:45:34.998Z</time>
</trkpt>
<trkpt lat="41.9276010" lon="1.8622640">
<ele>454.182465</ele>
<time>2022-09-08T08:45:36.000Z</time>
</trkpt>
<trkpt lat="41.9276170" lon="1.8622540">
<ele>454.548248</ele>
<time>2022-09-08T08:45:37.002Z</time>
</trkpt>
<trkpt lat="41.9276390" lon="1.8622570">
<ele>454.822540</ele>
<time>2022-09-08T08:45:37.996Z</time>
</trkpt>
<trkpt lat="41.9276560" lon="1.8622720">
<ele>454.822540</ele>
<time>2022-09-08T08:45:38.998Z</time>
</trkpt>
<trkpt lat="41.9276730" lon="1.8622910">
<ele>454.853058</ele>
<time>2022-09-08T08:45:40.000Z</time>
</trkpt>
<trkpt lat="41.9276920" lon="1.8623060">
<ele>454.914001</ele>
<time>2022-09-08T08:45:41.003Z</time>
</trkpt>
<trkpt lat="41.9277120" lon="1.8623140">
<ele>455.096863</ele>
<time>2022-09-08T08:45:41.996Z</time>
</trkpt>
<trkpt lat="41.9277360" lon="1.8623170">
<ele>455.340729</ele>
<time>2022-09-08T08:45:42.998Z</time>
</trkpt>
<trkpt lat="41.9277610" lon="1.8623230">
<ele>455.615051</ele>
<time>2022-09-08T08:45:44.001Z</time>
</trkpt>
<trkpt lat="41.9277890" lon="1.8623330">
<ele>455.828400</ele>
<time>2022-09-08T08:45:45.003Z</time>
</trkpt>
<trkpt lat="41.9278120" lon="1.8623380">
<ele>456.011261</ele>
<time>2022-09-08T08:45:45.996Z</time>
</trkpt>
<trkpt lat="41.9278380" lon="1.8623550">
<ele>456.102722</ele>
<time>2022-09-08T08:45:46.999Z</time>
</trkpt>
<trkpt lat="41.9278630" lon="1.8623750">
<ele>456.163666</ele>
<time>2022-09-08T08:45:48.001Z</time>
</trkpt>
<trkpt lat="41.9278860" lon="1.8623990">
<ele>456.133209</ele>
<time>2022-09-08T08:45:49.003Z</time>
</trkpt>
<trkpt lat="41.9279120" lon="1.8624230">
<ele>456.133209</ele>
<time>2022-09-08T08:45:49.997Z</time>
</trkpt>
<trkpt lat="41.9279440" lon="1.8624520">
<ele>456.194153</ele>
<time>2022-09-08T08:45:50.999Z</time>
</trkpt>
<trkpt lat="41.9279710" lon="1.8624760">
<ele>456.255127</ele>
<time>2022-09-08T08:45:52.001Z</time>
</trkpt>
<trkpt lat="41.9279870" lon="1.8625010">
<ele>456.224640</ele>
<time>2022-09-08T08:45:53.004Z</time>
</trkpt>
<trkpt lat="41.9279990" lon="1.8625290">
<ele>456.133209</ele>
<time>2022-09-08T08:45:53.997Z</time>
</trkpt>
<trkpt lat="41.9280120" lon="1.8625620">
<ele>456.041748</ele>
<time>2022-09-08T08:45:54.999Z</time>
</trkpt>
<trkpt lat="41.9280230" lon="1.8626040">
<ele>455.889343</ele>
<time>2022-09-08T08:45:56.002Z</time>
</trkpt>
<trkpt lat="41.9280250" lon="1.8626420">
<ele>455.615051</ele>
<time>2022-09-08T08:45:57.004Z</time>
</trkpt>
<trkpt lat="41.9280210" lon="1.8626740">
<ele>455.340729</ele>
<time>2022-09-08T08:45:57.997Z</time>
</trkpt>
<trkpt lat="41.9280300" lon="1.8627030">
<ele>455.218811</ele>
<time>2022-09-08T08:45:59.000Z</time>
</trkpt>
<trkpt lat="41.9280500" lon="1.8627260">
<ele>455.310242</ele>
<time>2022-09-08T08:46:00.002Z</time>
</trkpt>
<trkpt lat="41.9280750" lon="1.8627400">
<ele>455.462646</ele>
<time>2022-09-08T08:46:01.004Z</time>
</trkpt>
<trkpt lat="41.9281040" lon="1.8627550">
<ele>455.675995</ele>
<time>2022-09-08T08:46:01.998Z</time>
</trkpt>
<trkpt lat="41.9281260" lon="1.8627720">
<ele>455.797913</ele>
<time>2022-09-08T08:46:03.000Z</time>
</trkpt>
<trkpt lat="41.9281530" lon="1.8627960">
<ele>455.889343</ele>
<time>2022-09-08T08:46:04.002Z</time>
</trkpt>
<trkpt lat="41.9281730" lon="1.8628140">
<ele>455.919861</ele>
<time>2022-09-08T08:46:04.996Z</time>
</trkpt>
<trkpt lat="41.9281930" lon="1.8628220">
<ele>456.041748</ele>
<time>2022-09-08T08:46:05.998Z</time>
</trkpt>
<trkpt lat="41.9282060" lon="1.8628100">
<ele>456.255127</ele>
<time>2022-09-08T08:46:07.000Z</time>
</trkpt>
<trkpt lat="41.9282200" lon="1.8627880">
<ele>456.468475</ele>
<time>2022-09-08T08:46:08.003Z</time>
</trkpt>
<trkpt lat="41.9282330" lon="1.8627720">
<ele>456.651337</ele>
<time>2022-09-08T08:46:08.996Z</time>
</trkpt>
<trkpt lat="41.9282460" lon="1.8627450">
<ele>456.895203</ele>
<time>2022-09-08T08:46:09.998Z</time>
</trkpt>
<trkpt lat="41.9282550" lon="1.8627050">
<ele>457.139069</ele>
<time>2022-09-08T08:46:11.001Z</time>
</trkpt>
<trkpt lat="41.9282550" lon="1.8626620">
<ele>457.352386</ele>
<time>2022-09-08T08:46:12.003Z</time>
</trkpt>
<trkpt lat="41.9282490" lon="1.8626270">
<ele>457.504791</ele>
<time>2022-09-08T08:46:12.996Z</time>
</trkpt>
<trkpt lat="41.9282450" lon="1.8625980">
<ele>457.626740</ele>
<time>2022-09-08T08:46:13.999Z</time>
</trkpt>
<trkpt lat="41.9282300" lon="1.8625830">
<ele>457.626740</ele>
<time>2022-09-08T08:46:15.001Z</time>
</trkpt>
<trkpt lat="41.9282170" lon="1.8625700">
<ele>457.626740</ele>
<time>2022-09-08T08:46:16.003Z</time>
</trkpt>
<trkpt lat="41.9282100" lon="1.8625450">
<ele>457.718140</ele>
<time>2022-09-08T08:46:16.997Z</time>
</trkpt>
<trkpt lat="41.9282150" lon="1.8625110">
<ele>457.901062</ele>
<time>2022-09-08T08:46:17.999Z</time>
</trkpt>
<trkpt lat="41.9282230" lon="1.8624730">
<ele>458.114410</ele>
<time>2022-09-08T08:46:19.001Z</time>
</trkpt>
<trkpt lat="41.9282300" lon="1.8624330">
<ele>458.327759</ele>
<time>2022-09-08T08:46:20.004Z</time>
</trkpt>
<trkpt lat="41.9282290" lon="1.8623910">
<ele>458.541138</ele>
<time>2022-09-08T08:46:20.997Z</time>
</trkpt>
<trkpt lat="41.9282160" lon="1.8623650">
<ele>458.663055</ele>
<time>2022-09-08T08:46:21.999Z</time>
</trkpt>
<trkpt lat="41.9281770" lon="1.8623340">
<ele>458.723999</ele>
<time>2022-09-08T08:46:23.002Z</time>
</trkpt>
<trkpt lat="41.9281730" lon="1.8623180">
<ele>458.784943</ele>
<time>2022-09-08T08:46:24.004Z</time>
</trkpt>
<trkpt lat="41.9281750" lon="1.8622860">
<ele>459.028809</ele>
<time>2022-09-08T08:46:24.997Z</time>
</trkpt>
<trkpt lat="41.9281580" lon="1.8622460">
<ele>459.242157</ele>
<time>2022-09-08T08:46:26.000Z</time>
</trkpt>
<trkpt lat="41.9281340" lon="1.8622050">
<ele>459.516479</ele>
<time>2022-09-08T08:46:27.002Z</time>
</trkpt>
<trkpt lat="41.9281160" lon="1.8621630">
<ele>459.821259</ele>
<time>2022-09-08T08:46:28.004Z</time>
</trkpt>
<trkpt lat="41.9281170" lon="1.8621310">
<ele>460.126068</ele>
<time>2022-09-08T08:46:28.998Z</time>
</trkpt>
<trkpt lat="41.9281220" lon="1.8621030">
<ele>460.430878</ele>
<time>2022-09-08T08:46:30.000Z</time>
</trkpt>
<trkpt lat="41.9281270" lon="1.8620830">
<ele>460.644257</ele>
<time>2022-09-08T08:46:31.002Z</time>
</trkpt>
<trkpt lat="41.9281390" lon="1.8620550">
<ele>460.949066</ele>
<time>2022-09-08T08:46:31.996Z</time>
</trkpt>
<trkpt lat="41.9281660" lon="1.8620220">
<ele>461.253845</ele>
<time>2022-09-08T08:46:32.998Z</time>
</trkpt>
<trkpt lat="41.9281790" lon="1.8619710">
<ele>461.741516</ele>
<time>2022-09-08T08:46:34.000Z</time>
</trkpt>
<trkpt lat="41.9281950" lon="1.8619180">
<ele>462.198730</ele>
<time>2022-09-08T08:46:35.003Z</time>
</trkpt>
<trkpt lat="41.9281960" lon="1.8618860">
<ele>462.503540</ele>
<time>2022-09-08T08:46:35.996Z</time>
</trkpt>
<trkpt lat="41.9281780" lon="1.8618570">
<ele>462.869263</ele>
<time>2022-09-08T08:46:36.998Z</time>
</trkpt>
<trkpt lat="41.9281560" lon="1.8618350">
<ele>463.204559</ele>
<time>2022-09-08T08:46:38.001Z</time>
</trkpt>
<trkpt lat="41.9281250" lon="1.8618110">
<ele>463.600800</ele>
<time>2022-09-08T08:46:39.003Z</time>
</trkpt>
<trkpt lat="41.9280980" lon="1.8617910">
<ele>463.966553</ele>
<time>2022-09-08T08:46:39.996Z</time>
</trkpt>
<trkpt lat="41.9280730" lon="1.8617670">
<ele>464.332336</ele>
<time>2022-09-08T08:46:40.999Z</time>
</trkpt>
<trkpt lat="41.9280490" lon="1.8617460">
<ele>464.698059</ele>
<time>2022-09-08T08:46:42.001Z</time>
</trkpt>
<trkpt lat="41.9280220" lon="1.8617400">
<ele>464.880951</ele>
<time>2022-09-08T08:46:43.003Z</time>
</trkpt>
<trkpt lat="41.9279890" lon="1.8617270">
<ele>465.124786</ele>
<time>2022-09-08T08:46:43.997Z</time>
</trkpt>
<trkpt lat="41.9279660" lon="1.8617090">
<ele>465.460083</ele>
<time>2022-09-08T08:46:44.999Z</time>
</trkpt>
<trkpt lat="41.9279500" lon="1.8616830">
<ele>465.856323</ele>
<time>2022-09-08T08:46:46.001Z</time>
</trkpt>
<trkpt lat="41.9279290" lon="1.8616510">
<ele>466.404938</ele>
<time>2022-09-08T08:46:47.004Z</time>
</trkpt>
<trkpt lat="41.9279150" lon="1.8616020">
<ele>467.227936</ele>
<time>2022-09-08T08:46:47.997Z</time>
</trkpt>
<trkpt lat="41.9278930" lon="1.8615570">
<ele>468.081360</ele>
<time>2022-09-08T08:46:48.999Z</time>
</trkpt>
<trkpt lat="41.9278860" lon="1.8615360">
<ele>468.477600</ele>
<time>2022-09-08T08:46:50.002Z</time>
</trkpt>
<trkpt lat="41.9278860" lon="1.8615080">
<ele>468.934814</ele>
<time>2022-09-08T08:46:51.004Z</time>
</trkpt>
<trkpt lat="41.9278830" lon="1.8614830">
<ele>469.391998</ele>
<time>2022-09-08T08:46:51.997Z</time>
</trkpt>
<trkpt lat="41.9278840" lon="1.8614490">
<ele>469.971130</ele>
<time>2022-09-08T08:46:53.000Z</time>
</trkpt>
<trkpt lat="41.9278960" lon="1.8614140">
<ele>470.458801</ele>
<time>2022-09-08T08:46:54.002Z</time>
</trkpt>
<trkpt lat="41.9279180" lon="1.8613940">
<ele>470.550262</ele>
<time>2022-09-08T08:46:55.004Z</time>
</trkpt>
<trkpt lat="41.9279360" lon="1.8613860">
<ele>470.519745</ele>
<time>2022-09-08T08:46:55.998Z</time>
</trkpt>
<trkpt lat="41.9279590" lon="1.8613780">
<ele>470.458801</ele>
<time>2022-09-08T08:46:57.000Z</time>
</trkpt>
<trkpt lat="41.9279780" lon="1.8613670">
<ele>470.428314</ele>
<time>2022-09-08T08:46:58.002Z</time>
</trkpt>
<trkpt lat="41.9279960" lon="1.8613630">
<ele>470.306396</ele>
<time>2022-09-08T08:46:58.996Z</time>
</trkpt>
<trkpt lat="41.9280100" lon="1.8613570">
<ele>470.275940</ele>
<time>2022-09-08T08:46:59.998Z</time>
</trkpt>
<trkpt lat="41.9280200" lon="1.8613420">
<ele>470.367340</ele>
<time>2022-09-08T08:47:01.000Z</time>
</trkpt>
<trkpt lat="41.9280310" lon="1.8613230">
<ele>470.489258</ele>
<time>2022-09-08T08:47:02.003Z</time>
</trkpt>
<trkpt lat="41.9280470" lon="1.8613080">
<ele>470.519745</ele>
<time>2022-09-08T08:47:02.996Z</time>
</trkpt>
<trkpt lat="41.9280680" lon="1.8612950">
<ele>470.458801</ele>
<time>2022-09-08T08:47:03.998Z</time>
</trkpt>
<trkpt lat="41.9280880" lon="1.8612730">
<ele>470.428314</ele>
<time>2022-09-08T08:47:05.001Z</time>
</trkpt>
<trkpt lat="41.9280940" lon="1.8612510">
<ele>470.672150</ele>
<time>2022-09-08T08:47:06.003Z</time>
</trkpt>
<trkpt lat="41.9281070" lon="1.8612350">
<ele>470.672150</ele>
<time>2022-09-08T08:47:06.996Z</time>
</trkpt>
<trkpt lat="41.9281290" lon="1.8612200">
<ele>470.550262</ele>
<time>2022-09-08T08:47:07.999Z</time>
</trkpt>
<trkpt lat="41.9281510" lon="1.8612060">
<ele>470.336884</ele>
<time>2022-09-08T08:47:09.001Z</time>
</trkpt>
<trkpt lat="41.9281820" lon="1.8611870">
<ele>470.001587</ele>
<time>2022-09-08T08:47:10.003Z</time>
</trkpt>
<trkpt lat="41.9282170" lon="1.8611700">
<ele>469.483459</ele>
<time>2022-09-08T08:47:10.997Z</time>
</trkpt>
<trkpt lat="41.9282530" lon="1.8611650">
<ele>468.843353</ele>
<time>2022-09-08T08:47:11.999Z</time>
</trkpt>
<trkpt lat="41.9282930" lon="1.8611630">
<ele>468.111847</ele>
<time>2022-09-08T08:47:13.001Z</time>
</trkpt>
<trkpt lat="41.9283290" lon="1.8611530">
<ele>467.380341</ele>
<time>2022-09-08T08:47:14.004Z</time>
</trkpt>
<trkpt lat="41.9283620" lon="1.8611260">
<ele>466.831665</ele>
<time>2022-09-08T08:47:14.997Z</time>
</trkpt>
<trkpt lat="41.9283880" lon="1.8610850">
<ele>466.557343</ele>
<time>2022-09-08T08:47:15.999Z</time>
</trkpt>
<trkpt lat="41.9284120" lon="1.8610450">
<ele>466.161133</ele>
<time>2022-09-08T08:47:17.002Z</time>
</trkpt>
<trkpt lat="41.9284380" lon="1.8610120">
<ele>465.764862</ele>
<time>2022-09-08T08:47:18.004Z</time>
</trkpt>
<trkpt lat="41.9284650" lon="1.8609930">
<ele>465.094330</ele>
<time>2022-09-08T08:47:18.997Z</time>
</trkpt>
<trkpt lat="41.9284870" lon="1.8609880">
<ele>464.637115</ele>
<time>2022-09-08T08:47:20.000Z</time>
</trkpt>
<trkpt lat="41.9285090" lon="1.8609760">
<ele>464.088470</ele>
<time>2022-09-08T08:47:21.002Z</time>
</trkpt>
<trkpt lat="41.9285320" lon="1.8609600">
<ele>463.570313</ele>
<time>2022-09-08T08:47:22.004Z</time>
</trkpt>
<trkpt lat="41.9285560" lon="1.8609540">
<ele>462.991211</ele>
<time>2022-09-08T08:47:22.998Z</time>
</trkpt>
<trkpt lat="41.9285810" lon="1.8609630">
<ele>462.259674</ele>
<time>2022-09-08T08:47:24.000Z</time>
</trkpt>
<trkpt lat="41.9286010" lon="1.8609820">
<ele>461.711060</ele>
<time>2022-09-08T08:47:25.002Z</time>
</trkpt>
<trkpt lat="41.9286190" lon="1.8609970">
<ele>461.162415</ele>
<time>2022-09-08T08:47:25.996Z</time>
</trkpt>
<trkpt lat="41.9286320" lon="1.8610180">
<ele>460.796661</ele>
<time>2022-09-08T08:47:26.998Z</time>
</trkpt>
<trkpt lat="41.9286420" lon="1.8610460">
<ele>460.400391</ele>
<time>2022-09-08T08:47:28.000Z</time>
</trkpt>
<trkpt lat="41.9286460" lon="1.8610720">
<ele>460.217529</ele>
<time>2022-09-08T08:47:29.003Z</time>
</trkpt>
<trkpt lat="41.9286450" lon="1.8610940">
<ele>460.156555</ele>
<time>2022-09-08T08:47:29.996Z</time>
</trkpt>
<trkpt lat="41.9286430" lon="1.8611150">
<ele>460.187042</ele>
<time>2022-09-08T08:47:30.998Z</time>
</trkpt>
<trkpt lat="41.9286370" lon="1.8611360">
<ele>460.217529</ele>
<time>2022-09-08T08:47:32.001Z</time>
</trkpt>
<trkpt lat="41.9286330" lon="1.8611590">
<ele>460.217529</ele>
<time>2022-09-08T08:47:33.003Z</time>
</trkpt>
<trkpt lat="41.9286370" lon="1.8611940">
<ele>460.004150</ele>
<time>2022-09-08T08:47:33.996Z</time>
</trkpt>
<trkpt lat="41.9286400" lon="1.8612190">
<ele>459.912720</ele>
<time>2022-09-08T08:47:34.999Z</time>
</trkpt>
<trkpt lat="41.9286520" lon="1.8612410">
<ele>459.455536</ele>
<time>2022-09-08T08:47:36.001Z</time>
</trkpt>
<trkpt lat="41.9286620" lon="1.8612580">
<ele>459.181213</ele>
<time>2022-09-08T08:47:37.003Z</time>
</trkpt>
<trkpt lat="41.9286670" lon="1.8612650">
<ele>459.059265</ele>
<time>2022-09-08T08:47:37.997Z</time>
</trkpt>
<trkpt lat="41.9286710" lon="1.8612720">
<ele>458.845917</ele>
<time>2022-09-08T08:47:38.999Z</time>
</trkpt>
<trkpt lat="41.9286830" lon="1.8612830">
<ele>458.541138</ele>
<time>2022-09-08T08:47:40.001Z</time>
</trkpt>
<trkpt lat="41.9287010" lon="1.8612990">
<ele>458.083923</ele>
<time>2022-09-08T08:47:41.004Z</time>
</trkpt>
<trkpt lat="41.9287190" lon="1.8612970">
<ele>457.626740</ele>
<time>2022-09-08T08:47:41.997Z</time>
</trkpt>
<trkpt lat="41.9287350" lon="1.8612820">
<ele>457.291443</ele>
<time>2022-09-08T08:47:42.999Z</time>
</trkpt>
<trkpt lat="41.9287480" lon="1.8612570">
<ele>456.986664</ele>
<time>2022-09-08T08:47:44.002Z</time>
</trkpt>
<trkpt lat="41.9287580" lon="1.8612300">
<ele>456.834259</ele>
<time>2022-09-08T08:47:45.004Z</time>
</trkpt>
<trkpt lat="41.9287640" lon="1.8611980">
<ele>456.712341</ele>
<time>2022-09-08T08:47:45.997Z</time>
</trkpt>
<trkpt lat="41.9287640" lon="1.8611700">
<ele>456.773285</ele>
<time>2022-09-08T08:47:47.000Z</time>
</trkpt>
<trkpt lat="41.9287620" lon="1.8611450">
<ele>456.956146</ele>
<time>2022-09-08T08:47:48.002Z</time>
</trkpt>
<trkpt lat="41.9287640" lon="1.8611180">
<ele>456.925659</ele>
<time>2022-09-08T08:47:49.004Z</time>
</trkpt>
<trkpt lat="41.9287690" lon="1.8610800">
<ele>456.925659</ele>
<time>2022-09-08T08:47:49.998Z</time>
</trkpt>
<trkpt lat="41.9287750" lon="1.8610310">
<ele>456.803741</ele>
<time>2022-09-08T08:47:51.000Z</time>
</trkpt>
<trkpt lat="41.9287780" lon="1.8609710">
<ele>456.864716</ele>
<time>2022-09-08T08:47:52.002Z</time>
</trkpt>
<trkpt lat="41.9287770" lon="1.8609030">
<ele>457.169525</ele>
<time>2022-09-08T08:47:52.996Z</time>
</trkpt>
<trkpt lat="41.9287720" lon="1.8608440">
<ele>457.474335</ele>
<time>2022-09-08T08:47:53.998Z</time>
</trkpt>
<trkpt lat="41.9287740" lon="1.8607920">
<ele>457.535278</ele>
<time>2022-09-08T08:47:55.000Z</time>
</trkpt>
<trkpt lat="41.9287840" lon="1.8607560">
<ele>457.413330</ele>
<time>2022-09-08T08:47:56.003Z</time>
</trkpt>
<trkpt lat="41.9287990" lon="1.8607240">
<ele>457.078064</ele>
<time>2022-09-08T08:47:56.996Z</time>
</trkpt>
<trkpt lat="41.9288200" lon="1.8606910">
<ele>456.529449</ele>
<time>2022-09-08T08:47:57.998Z</time>
</trkpt>
<trkpt lat="41.9288410" lon="1.8606640">
<ele>456.102722</ele>
<time>2022-09-08T08:47:59.001Z</time>
</trkpt>
<trkpt lat="41.9288740" lon="1.8606300">
<ele>455.310242</ele>
<time>2022-09-08T08:48:00.003Z</time>
</trkpt>
<trkpt lat="41.9289000" lon="1.8606090">
<ele>454.700653</ele>
<time>2022-09-08T08:48:00.996Z</time>
</trkpt>
<trkpt lat="41.9289210" lon="1.8605990">
<ele>454.273926</ele>
<time>2022-09-08T08:48:01.999Z</time>
</trkpt>
<trkpt lat="41.9289450" lon="1.8605830">
<ele>453.816742</ele>
<time>2022-09-08T08:48:03.001Z</time>
</trkpt>
<trkpt lat="41.9289710" lon="1.8605440">
<ele>453.390015</ele>
<time>2022-09-08T08:48:04.003Z</time>
</trkpt>
<trkpt lat="41.9289940" lon="1.8604960">
<ele>453.207123</ele>
<time>2022-09-08T08:48:04.997Z</time>
</trkpt>
<trkpt lat="41.9289820" lon="1.8604620">
<ele>453.694794</ele>
<time>2022-09-08T08:48:05.999Z</time>
</trkpt>
<trkpt lat="41.9289760" lon="1.8604270">
<ele>454.091064</ele>
<time>2022-09-08T08:48:07.001Z</time>
</trkpt>
<trkpt lat="41.9289790" lon="1.8603880">
<ele>454.212952</ele>
<time>2022-09-08T08:48:08.004Z</time>
</trkpt>
<trkpt lat="41.9289970" lon="1.8603300">
<ele>454.091064</ele>
<time>2022-09-08T08:48:08.997Z</time>
</trkpt>
<trkpt lat="41.9290020" lon="1.8602970">
<ele>454.121521</ele>
<time>2022-09-08T08:48:09.999Z</time>
</trkpt>
<trkpt lat="41.9290170" lon="1.8602380">
<ele>454.091064</ele>
<time>2022-09-08T08:48:11.002Z</time>
</trkpt>
<trkpt lat="41.9290180" lon="1.8601960">
<ele>454.243469</ele>
<time>2022-09-08T08:48:12.004Z</time>
</trkpt>
<trkpt lat="41.9290190" lon="1.8601380">
<ele>454.426331</ele>
<time>2022-09-08T08:48:12.997Z</time>
</trkpt>
<trkpt lat="41.9290270" lon="1.8600970">
<ele>454.487274</ele>
<time>2022-09-08T08:48:14.000Z</time>
</trkpt>
<trkpt lat="41.9290470" lon="1.8600590">
<ele>454.365356</ele>
<time>2022-09-08T08:48:15.002Z</time>
</trkpt>
<trkpt lat="41.9290740" lon="1.8600070">
<ele>454.243469</ele>
<time>2022-09-08T08:48:16.004Z</time>
</trkpt>
<trkpt lat="41.9290910" lon="1.8599840">
<ele>454.121521</ele>
<time>2022-09-08T08:48:16.998Z</time>
</trkpt>
<trkpt lat="41.9291150" lon="1.8599580">
<ele>453.999603</ele>
<time>2022-09-08T08:48:18.000Z</time>
</trkpt>
<trkpt lat="41.9291380" lon="1.8599410">
<ele>453.847198</ele>
<time>2022-09-08T08:48:19.002Z</time>
</trkpt>
<trkpt lat="41.9291550" lon="1.8599110">
<ele>453.908142</ele>
<time>2022-09-08T08:48:19.996Z</time>
</trkpt>
<trkpt lat="41.9291600" lon="1.8598900">
<ele>453.999603</ele>
<time>2022-09-08T08:48:20.998Z</time>
</trkpt>
<trkpt lat="41.9291730" lon="1.8598720">
<ele>454.060547</ele>
<time>2022-09-08T08:48:22.000Z</time>
</trkpt>
<trkpt lat="41.9291930" lon="1.8598530">
<ele>454.060547</ele>
<time>2022-09-08T08:48:23.003Z</time>
</trkpt>
<trkpt lat="41.9292180" lon="1.8598250">
<ele>454.091064</ele>
<time>2022-09-08T08:48:23.996Z</time>
</trkpt>
<trkpt lat="41.9292370" lon="1.8597950">
<ele>454.273926</ele>
<time>2022-09-08T08:48:24.998Z</time>
</trkpt>
<trkpt lat="41.9292560" lon="1.8597620">
<ele>454.517731</ele>
<time>2022-09-08T08:48:26.001Z</time>
</trkpt>
<trkpt lat="41.9292730" lon="1.8597400">
<ele>454.670135</ele>
<time>2022-09-08T08:48:27.003Z</time>
</trkpt>
<trkpt lat="41.9292920" lon="1.8597180">
<ele>454.853058</ele>
<time>2022-09-08T08:48:27.996Z</time>
</trkpt>
<trkpt lat="41.9293100" lon="1.8596990">
<ele>455.005463</ele>
<time>2022-09-08T08:48:28.999Z</time>
</trkpt>
<trkpt lat="41.9293280" lon="1.8596700">
<ele>455.310242</ele>
<time>2022-09-08T08:48:30.001Z</time>
</trkpt>
<trkpt lat="41.9293480" lon="1.8596300">
<ele>455.828400</ele>
<time>2022-09-08T08:48:31.003Z</time>
</trkpt>
<trkpt lat="41.9293660" lon="1.8596030">
<ele>456.163666</ele>
<time>2022-09-08T08:48:31.997Z</time>
</trkpt>
<trkpt lat="41.9293840" lon="1.8595770">
<ele>456.529449</ele>
<time>2022-09-08T08:48:32.999Z</time>
</trkpt>
<trkpt lat="41.9294090" lon="1.8595440">
<ele>456.864716</ele>
<time>2022-09-08T08:48:34.001Z</time>
</trkpt>
<trkpt lat="41.9294440" lon="1.8595100">
<ele>457.230469</ele>
<time>2022-09-08T08:48:35.004Z</time>
</trkpt>
<trkpt lat="41.9294690" lon="1.8594690">
<ele>457.718140</ele>
<time>2022-09-08T08:48:35.997Z</time>
</trkpt>
<trkpt lat="41.9295020" lon="1.8594230">
<ele>458.236328</ele>
<time>2022-09-08T08:48:36.999Z</time>
</trkpt>
<trkpt lat="41.9295190" lon="1.8594000">
<ele>458.480133</ele>
<time>2022-09-08T08:48:38.002Z</time>
</trkpt>
<trkpt lat="41.9295410" lon="1.8593610">
<ele>458.937347</ele>
<time>2022-09-08T08:48:39.004Z</time>
</trkpt>
<trkpt lat="41.9295540" lon="1.8593370">
<ele>459.242157</ele>
<time>2022-09-08T08:48:39.997Z</time>
</trkpt>
<trkpt lat="41.9295760" lon="1.8592960">
<ele>459.699341</ele>
<time>2022-09-08T08:48:41.000Z</time>
</trkpt>
<trkpt lat="41.9295750" lon="1.8592580">
<ele>460.217529</ele>
<time>2022-09-08T08:48:42.002Z</time>
</trkpt>
<trkpt lat="41.9295790" lon="1.8592230">
<ele>460.705200</ele>
<time>2022-09-08T08:48:43.004Z</time>
</trkpt>
<trkpt lat="41.9295860" lon="1.8591900">
<ele>461.162415</ele>
<time>2022-09-08T08:48:43.998Z</time>
</trkpt>
<trkpt lat="41.9295960" lon="1.8591660">
<ele>461.345276</ele>
<time>2022-09-08T08:48:45.000Z</time>
</trkpt>
<trkpt lat="41.9296130" lon="1.8591470">
<ele>461.375732</ele>
<time>2022-09-08T08:48:46.002Z</time>
</trkpt>
<trkpt lat="41.9296370" lon="1.8591360">
<ele>461.070953</ele>
<time>2022-09-08T08:48:46.996Z</time>
</trkpt>
<trkpt lat="41.9296580" lon="1.8591340">
<ele>460.796661</ele>
<time>2022-09-08T08:48:47.998Z</time>
</trkpt>
<trkpt lat="41.9296800" lon="1.8591260">
<ele>460.522339</ele>
<time>2022-09-08T08:48:49.000Z</time>
</trkpt>
<trkpt lat="41.9296960" lon="1.8591360">
<ele>460.095612</ele>
<time>2022-09-08T08:48:50.003Z</time>
</trkpt>
<trkpt lat="41.9297110" lon="1.8591530">
<ele>459.607941</ele>
<time>2022-09-08T08:48:50.996Z</time>
</trkpt>
<trkpt lat="41.9297240" lon="1.8591720">
<ele>459.089752</ele>
<time>2022-09-08T08:48:51.998Z</time>
</trkpt>
<trkpt lat="41.9297380" lon="1.8591850">
<ele>458.754486</ele>
<time>2022-09-08T08:48:53.001Z</time>
</trkpt>
<trkpt lat="41.9297560" lon="1.8592030">
<ele>458.205841</ele>
<time>2022-09-08T08:48:54.003Z</time>
</trkpt>
<trkpt lat="41.9297760" lon="1.8592190">
<ele>457.748657</ele>
<time>2022-09-08T08:48:54.996Z</time>
</trkpt>
<trkpt lat="41.9297940" lon="1.8592290">
<ele>457.352386</ele>
<time>2022-09-08T08:48:55.999Z</time>
</trkpt>
<trkpt lat="41.9298110" lon="1.8592300">
<ele>457.108551</ele>
<time>2022-09-08T08:48:57.001Z</time>
</trkpt>
<trkpt lat="41.9298320" lon="1.8592320">
<ele>456.773285</ele>
<time>2022-09-08T08:48:58.003Z</time>
</trkpt>
<trkpt lat="41.9298520" lon="1.8592380">
<ele>456.468475</ele>
<time>2022-09-08T08:48:58.997Z</time>
</trkpt>
<trkpt lat="41.9298670" lon="1.8592530">
<ele>456.102722</ele>
<time>2022-09-08T08:48:59.999Z</time>
</trkpt>
<trkpt lat="41.9298780" lon="1.8592640">
<ele>455.858887</ele>
<time>2022-09-08T08:49:01.001Z</time>
</trkpt>
<trkpt lat="41.9298920" lon="1.8592780">
<ele>455.523590</ele>
<time>2022-09-08T08:49:02.004Z</time>
</trkpt>
<trkpt lat="41.9299090" lon="1.8592940">
<ele>455.218811</ele>
<time>2022-09-08T08:49:02.997Z</time>
</trkpt>
<trkpt lat="41.9299230" lon="1.8593160">
<ele>454.853058</ele>
<time>2022-09-08T08:49:03.999Z</time>
</trkpt>
<trkpt lat="41.9299360" lon="1.8593310">
<ele>454.609192</ele>
<time>2022-09-08T08:49:05.002Z</time>
</trkpt>
<trkpt lat="41.9299470" lon="1.8593510">
<ele>454.334869</ele>
<time>2022-09-08T08:49:06.004Z</time>
</trkpt>
<trkpt lat="41.9299580" lon="1.8593700">
<ele>454.091064</ele>
<time>2022-09-08T08:49:06.997Z</time>
</trkpt>
<trkpt lat="41.9299760" lon="1.8593920">
<ele>453.755737</ele>
<time>2022-09-08T08:49:08.000Z</time>
</trkpt>
<trkpt lat="41.9299960" lon="1.8594070">
<ele>453.542389</ele>
<time>2022-09-08T08:49:09.002Z</time>
</trkpt>
<trkpt lat="41.9300170" lon="1.8594180">
<ele>453.359528</ele>
<time>2022-09-08T08:49:10.004Z</time>
</trkpt>
<trkpt lat="41.9300360" lon="1.8594270">
<ele>453.207123</ele>
<time>2022-09-08T08:49:10.998Z</time>
</trkpt>
<trkpt lat="41.9300550" lon="1.8594440">
<ele>453.024261</ele>
<time>2022-09-08T08:49:12.000Z</time>
</trkpt>
<trkpt lat="41.9300760" lon="1.8594570">
<ele>452.902313</ele>
<time>2022-09-08T08:49:13.002Z</time>
</trkpt>
<trkpt lat="41.9300960" lon="1.8594680">
<ele>452.810883</ele>
<time>2022-09-08T08:49:13.996Z</time>
</trkpt>
<trkpt lat="41.9301140" lon="1.8594830">
<ele>452.719452</ele>
<time>2022-09-08T08:49:14.998Z</time>
</trkpt>
<trkpt lat="41.9301360" lon="1.8595030">
<ele>452.627991</ele>
<time>2022-09-08T08:49:16.000Z</time>
</trkpt>
<trkpt lat="41.9301580" lon="1.8595180">
<ele>452.597534</ele>
<time>2022-09-08T08:49:17.003Z</time>
</trkpt>
<trkpt lat="41.9301810" lon="1.8595260">
<ele>452.627991</ele>
<time>2022-09-08T08:49:17.996Z</time>
</trkpt>
<trkpt lat="41.9302020" lon="1.8595330">
<ele>452.688934</ele>
<time>2022-09-08T08:49:18.998Z</time>
</trkpt>
<trkpt lat="41.9302250" lon="1.8595370">
<ele>452.810883</ele>
<time>2022-09-08T08:49:20.001Z</time>
</trkpt>
<trkpt lat="41.9302600" lon="1.8595510">
<ele>453.024261</ele>
<time>2022-09-08T08:49:21.003Z</time>
</trkpt>
<trkpt lat="41.9302840" lon="1.8595670">
<ele>453.176666</ele>
<time>2022-09-08T08:49:21.996Z</time>
</trkpt>
<trkpt lat="41.9303020" lon="1.8595850">
<ele>453.298553</ele>
<time>2022-09-08T08:49:22.999Z</time>
</trkpt>
<trkpt lat="41.9303170" lon="1.8595960">
<ele>453.420471</ele>
<time>2022-09-08T08:49:24.001Z</time>
</trkpt>
<trkpt lat="41.9303350" lon="1.8596160">
<ele>453.542389</ele>
<time>2022-09-08T08:49:25.003Z</time>
</trkpt>
<trkpt lat="41.9303700" lon="1.8596350">
<ele>453.938660</ele>
<time>2022-09-08T08:49:25.997Z</time>
</trkpt>
<trkpt lat="41.9304010" lon="1.8596530">
<ele>454.334869</ele>
<time>2022-09-08T08:49:26.999Z</time>
</trkpt>
<trkpt lat="41.9304180" lon="1.8596700">
<ele>454.517731</ele>
<time>2022-09-08T08:49:28.001Z</time>
</trkpt>
<trkpt lat="41.9304280" lon="1.8596870">
<ele>454.639679</ele>
<time>2022-09-08T08:49:29.004Z</time>
</trkpt>
<trkpt lat="41.9304320" lon="1.8597110">
<ele>454.578735</ele>
<time>2022-09-08T08:49:29.997Z</time>
</trkpt>
<trkpt lat="41.9304460" lon="1.8597280">
<ele>454.761597</ele>
<time>2022-09-08T08:49:30.999Z</time>
</trkpt>
<trkpt lat="41.9304620" lon="1.8597430">
<ele>454.974945</ele>
<time>2022-09-08T08:49:32.002Z</time>
</trkpt>
<trkpt lat="41.9304730" lon="1.8597470">
<ele>455.188324</ele>
<time>2022-09-08T08:49:33.004Z</time>
</trkpt>
<trkpt lat="41.9304860" lon="1.8597570">
<ele>455.371185</ele>
<time>2022-09-08T08:49:33.997Z</time>
</trkpt>
<trkpt lat="41.9304990" lon="1.8597680">
<ele>455.615051</ele>
<time>2022-09-08T08:49:35.000Z</time>
</trkpt>
<trkpt lat="41.9305110" lon="1.8597770">
<ele>455.797913</ele>
<time>2022-09-08T08:49:36.002Z</time>
</trkpt>
<trkpt lat="41.9305260" lon="1.8597890">
<ele>456.041748</ele>
<time>2022-09-08T08:49:37.004Z</time>
</trkpt>
<trkpt lat="41.9305400" lon="1.8598090">
<ele>456.224640</ele>
<time>2022-09-08T08:49:37.998Z</time>
</trkpt>
<trkpt lat="41.9305550" lon="1.8598260">
<ele>456.468475</ele>
<time>2022-09-08T08:49:39.000Z</time>
</trkpt>
<trkpt lat="41.9305730" lon="1.8598430">
<ele>456.803741</ele>
<time>2022-09-08T08:49:40.002Z</time>
</trkpt>
<trkpt lat="41.9305820" lon="1.8598530">
<ele>456.925659</ele>
<time>2022-09-08T08:49:40.996Z</time>
</trkpt>
<trkpt lat="41.9305920" lon="1.8598820">
<ele>457.047607</ele>
<time>2022-09-08T08:49:41.998Z</time>
</trkpt>
<trkpt lat="41.9305950" lon="1.8599040">
<ele>457.047607</ele>
<time>2022-09-08T08:49:43.000Z</time>
</trkpt>
<trkpt lat="41.9306030" lon="1.8599330">
<ele>457.108551</ele>
<time>2022-09-08T08:49:44.003Z</time>
</trkpt>
<trkpt lat="41.9306180" lon="1.8599600">
<ele>457.352386</ele>
<time>2022-09-08T08:49:44.996Z</time>
</trkpt>
<trkpt lat="41.9306320" lon="1.8599760">
<ele>457.596252</ele>
<time>2022-09-08T08:49:45.998Z</time>
</trkpt>
<trkpt lat="41.9306460" lon="1.8599950">
<ele>457.779114</ele>
<time>2022-09-08T08:49:47.001Z</time>
</trkpt>
<trkpt lat="41.9306570" lon="1.8600140">
<ele>457.962006</ele>
<time>2022-09-08T08:49:48.003Z</time>
</trkpt>
<trkpt lat="41.9306670" lon="1.8600270">
<ele>458.144867</ele>
<time>2022-09-08T08:49:48.996Z</time>
</trkpt>
<trkpt lat="41.9306800" lon="1.8600500">
<ele>458.327759</ele>
<time>2022-09-08T08:49:49.999Z</time>
</trkpt>
<trkpt lat="41.9307020" lon="1.8600880">
<ele>458.663055</ele>
<time>2022-09-08T08:49:51.001Z</time>
</trkpt>
<trkpt lat="41.9307230" lon="1.8601240">
<ele>458.906860</ele>
<time>2022-09-08T08:49:52.003Z</time>
</trkpt>
<trkpt lat="41.9307320" lon="1.8601550">
<ele>459.059265</ele>
<time>2022-09-08T08:49:52.997Z</time>
</trkpt>
<trkpt lat="41.9307500" lon="1.8601960">
<ele>459.303131</ele>
<time>2022-09-08T08:49:53.999Z</time>
</trkpt>
<trkpt lat="41.9307620" lon="1.8602150">
<ele>459.455536</ele>
<time>2022-09-08T08:49:55.001Z</time>
</trkpt>
<trkpt lat="41.9307750" lon="1.8602340">
<ele>459.607941</ele>
<time>2022-09-08T08:49:56.004Z</time>
</trkpt>
<trkpt lat="41.9307850" lon="1.8602550">
<ele>459.760315</ele>
<time>2022-09-08T08:49:56.997Z</time>
</trkpt>
<trkpt lat="41.9307890" lon="1.8602770">
<ele>459.760315</ele>
<time>2022-09-08T08:49:57.999Z</time>
</trkpt>
<trkpt lat="41.9307800" lon="1.8603000">
<ele>459.516479</ele>
<time>2022-09-08T08:49:59.002Z</time>
</trkpt>
<trkpt lat="41.9307820" lon="1.8603280">
<ele>459.516479</ele>
<time>2022-09-08T08:50:00.004Z</time>
</trkpt>
<trkpt lat="41.9307870" lon="1.8603630">
<ele>459.516479</ele>
<time>2022-09-08T08:50:00.997Z</time>
</trkpt>
<trkpt lat="41.9307920" lon="1.8603980">
<ele>459.577454</ele>
<time>2022-09-08T08:50:02.000Z</time>
</trkpt>
<trkpt lat="41.9307990" lon="1.8604450">
<ele>459.577454</ele>
<time>2022-09-08T08:50:03.002Z</time>
</trkpt>
<trkpt lat="41.9307900" lon="1.8605020">
<ele>459.425049</ele>
<time>2022-09-08T08:50:04.004Z</time>
</trkpt>
<trkpt lat="41.9307720" lon="1.8605680">
<ele>459.150726</ele>
<time>2022-09-08T08:50:04.998Z</time>
</trkpt>
<trkpt lat="41.9307510" lon="1.8606280">
<ele>458.876404</ele>
<time>2022-09-08T08:50:06.000Z</time>
</trkpt>
<trkpt lat="41.9307310" lon="1.8606800">
<ele>458.571594</ele>
<time>2022-09-08T08:50:07.002Z</time>
</trkpt>
<trkpt lat="41.9307020" lon="1.8607110">
<ele>458.053467</ele>
<time>2022-09-08T08:50:07.996Z</time>
</trkpt>
<trkpt lat="41.9306780" lon="1.8607400">
<ele>457.657196</ele>
<time>2022-09-08T08:50:08.998Z</time>
</trkpt>
<trkpt lat="41.9306610" lon="1.8607770">
<ele>457.321930</ele>
<time>2022-09-08T08:50:10.000Z</time>
</trkpt>
<trkpt lat="41.9306480" lon="1.8608260">
<ele>457.108551</ele>
<time>2022-09-08T08:50:11.003Z</time>
</trkpt>
<trkpt lat="41.9306390" lon="1.8608830">
<ele>456.895203</ele>
<time>2022-09-08T08:50:11.996Z</time>
</trkpt>
<trkpt lat="41.9306250" lon="1.8609300">
<ele>456.620880</ele>
<time>2022-09-08T08:50:12.998Z</time>
</trkpt>
<trkpt lat="41.9306100" lon="1.8609590">
<ele>456.285614</ele>
<time>2022-09-08T08:50:14.001Z</time>
</trkpt>
<trkpt lat="41.9305890" lon="1.8609640">
<ele>455.767456</ele>
<time>2022-09-08T08:50:15.003Z</time>
</trkpt>
<trkpt lat="41.9305620" lon="1.8609660">
<ele>455.188324</ele>
<time>2022-09-08T08:50:15.996Z</time>
</trkpt>
<trkpt lat="41.9305300" lon="1.8609610">
<ele>454.517731</ele>
<time>2022-09-08T08:50:16.999Z</time>
</trkpt>
<trkpt lat="41.9304980" lon="1.8609450">
<ele>453.786255</ele>
<time>2022-09-08T08:50:18.001Z</time>
</trkpt>
<trkpt lat="41.9304720" lon="1.8609200">
<ele>453.329041</ele>
<time>2022-09-08T08:50:19.003Z</time>
</trkpt>
<trkpt lat="41.9304420" lon="1.8608920">
<ele>452.719452</ele>
<time>2022-09-08T08:50:19.997Z</time>
</trkpt>
<trkpt lat="41.9304110" lon="1.8608650">
<ele>452.170807</ele>
<time>2022-09-08T08:50:20.999Z</time>
</trkpt>
<trkpt lat="41.9303790" lon="1.8608450">
<ele>451.561188</ele>
<time>2022-09-08T08:50:22.001Z</time>
</trkpt>
<trkpt lat="41.9303510" lon="1.8608260">
<ele>451.104004</ele>
<time>2022-09-08T08:50:23.004Z</time>
</trkpt>
<trkpt lat="41.9303210" lon="1.8608140">
<ele>450.585846</ele>
<time>2022-09-08T08:50:23.997Z</time>
</trkpt>
<trkpt lat="41.9302800" lon="1.8607990">
<ele>449.884796</ele>
<time>2022-09-08T08:50:24.999Z</time>
</trkpt>
<trkpt lat="41.9302330" lon="1.8607820">
<ele>449.153259</ele>
<time>2022-09-08T08:50:26.002Z</time>
</trkpt>
<trkpt lat="41.9301830" lon="1.8607550">
<ele>448.452240</ele>
<time>2022-09-08T08:50:27.004Z</time>
</trkpt>
<trkpt lat="41.9301440" lon="1.8607260">
<ele>447.964539</ele>
<time>2022-09-08T08:50:27.997Z</time>
</trkpt>
<trkpt lat="41.9301120" lon="1.8606970">
<ele>447.629272</ele>
<time>2022-09-08T08:50:29.000Z</time>
</trkpt>
<trkpt lat="41.9300850" lon="1.8606610">
<ele>447.446411</ele>
<time>2022-09-08T08:50:30.002Z</time>
</trkpt>
<trkpt lat="41.9300640" lon="1.8606180">
<ele>447.446411</ele>
<time>2022-09-08T08:50:31.004Z</time>
</trkpt>
<trkpt lat="41.9300450" lon="1.8605790">
<ele>447.446411</ele>
<time>2022-09-08T08:50:31.998Z</time>
</trkpt>
<trkpt lat="41.9300280" lon="1.8605410">
<ele>447.476868</ele>
<time>2022-09-08T08:50:33.000Z</time>
</trkpt>
<trkpt lat="41.9300210" lon="1.8604930">
<ele>447.690247</ele>
<time>2022-09-08T08:50:34.002Z</time>
</trkpt>
<trkpt lat="41.9300300" lon="1.8604360">
<ele>448.147461</ele>
<time>2022-09-08T08:50:34.996Z</time>
</trkpt>
<trkpt lat="41.9300450" lon="1.8603790">
<ele>448.543671</ele>
<time>2022-09-08T08:50:35.998Z</time>
</trkpt>
<trkpt lat="41.9300580" lon="1.8603260">
<ele>448.878937</ele>
<time>2022-09-08T08:50:37.000Z</time>
</trkpt>
<trkpt lat="41.9300650" lon="1.8602720">
<ele>449.122803</ele>
<time>2022-09-08T08:50:38.003Z</time>
</trkpt>
<trkpt lat="41.9300670" lon="1.8602120">
<ele>449.305664</ele>
<time>2022-09-08T08:50:38.996Z</time>
</trkpt>
<trkpt lat="41.9300610" lon="1.8601460">
<ele>449.488556</ele>
<time>2022-09-08T08:50:39.998Z</time>
</trkpt>
<trkpt lat="41.9300490" lon="1.8600840">
<ele>449.610474</ele>
<time>2022-09-08T08:50:41.001Z</time>
</trkpt>
<trkpt lat="41.9300350" lon="1.8600300">
<ele>449.732391</ele>
<time>2022-09-08T08:50:42.003Z</time>
</trkpt>
<trkpt lat="41.9300210" lon="1.8599810">
<ele>449.854340</ele>
<time>2022-09-08T08:50:42.996Z</time>
</trkpt>
<trkpt lat="41.9300000" lon="1.8599350">
<ele>450.006714</ele>
<time>2022-09-08T08:50:43.999Z</time>
</trkpt>
<trkpt lat="41.9299820" lon="1.8598890">
<ele>450.189606</ele>
<time>2022-09-08T08:50:45.001Z</time>
</trkpt>
<trkpt lat="41.9299650" lon="1.8598410">
<ele>450.463928</ele>
<time>2022-09-08T08:50:46.003Z</time>
</trkpt>
<trkpt lat="41.9299390" lon="1.8598040">
<ele>450.707733</ele>
<time>2022-09-08T08:50:46.997Z</time>
</trkpt>
<trkpt lat="41.9299050" lon="1.8597770">
<ele>450.982086</ele>
<time>2022-09-08T08:50:47.999Z</time>
</trkpt>
<trkpt lat="41.9298670" lon="1.8597590">
<ele>451.286865</ele>
<time>2022-09-08T08:50:49.001Z</time>
</trkpt>
<trkpt lat="41.9298280" lon="1.8597480">
<ele>451.591675</ele>
<time>2022-09-08T08:50:50.004Z</time>
</trkpt>
<trkpt lat="41.9297870" lon="1.8597450">
<ele>451.896484</ele>
<time>2022-09-08T08:50:50.997Z</time>
</trkpt>
<trkpt lat="41.9297500" lon="1.8597500">
<ele>452.170807</ele>
<time>2022-09-08T08:50:51.999Z</time>
</trkpt>
<trkpt lat="41.9297230" lon="1.8597490">
<ele>452.384155</ele>
<time>2022-09-08T08:50:53.002Z</time>
</trkpt>
<trkpt lat="41.9296970" lon="1.8597450">
<ele>452.688934</ele>
<time>2022-09-08T08:50:54.004Z</time>
</trkpt>
<trkpt lat="41.9296720" lon="1.8597570">
<ele>452.780396</ele>
<time>2022-09-08T08:50:54.997Z</time>
</trkpt>
<trkpt lat="41.9296500" lon="1.8597780">
<ele>452.780396</ele>
<time>2022-09-08T08:50:56.000Z</time>
</trkpt>
<trkpt lat="41.9296360" lon="1.8598220">
<ele>452.506073</ele>
<time>2022-09-08T08:50:57.002Z</time>
</trkpt>
<trkpt lat="41.9296290" lon="1.8598700">
<ele>452.079346</ele>
<time>2022-09-08T08:50:58.004Z</time>
</trkpt>
<trkpt lat="41.9296160" lon="1.8599240">
<ele>451.744080</ele>
<time>2022-09-08T08:50:58.998Z</time>
</trkpt>
<trkpt lat="41.9296070" lon="1.8599760">
<ele>451.378326</ele>
<time>2022-09-08T08:51:00.000Z</time>
</trkpt>
<trkpt lat="41.9296140" lon="1.8600150">
<ele>451.012543</ele>
<time>2022-09-08T08:51:01.002Z</time>
</trkpt>
<trkpt lat="41.9296180" lon="1.8600690">
<ele>450.555359</ele>
<time>2022-09-08T08:51:01.996Z</time>
</trkpt>
<trkpt lat="41.9296260" lon="1.8601340">
<ele>450.006714</ele>
<time>2022-09-08T08:51:02.998Z</time>
</trkpt>
<trkpt lat="41.9296480" lon="1.8601930">
<ele>449.427612</ele>
<time>2022-09-08T08:51:04.000Z</time>
</trkpt>
<trkpt lat="41.9296810" lon="1.8602440">
<ele>448.848480</ele>
<time>2022-09-08T08:51:05.003Z</time>
</trkpt>
<trkpt lat="41.9296990" lon="1.8602890">
<ele>448.452240</ele>
<time>2022-09-08T08:51:05.996Z</time>
</trkpt>
<trkpt lat="41.9296960" lon="1.8603200">
<ele>448.208405</ele>
<time>2022-09-08T08:51:06.998Z</time>
</trkpt>
<trkpt lat="41.9296760" lon="1.8603480">
<ele>448.086487</ele>
<time>2022-09-08T08:51:08.001Z</time>
</trkpt>
<trkpt lat="41.9296440" lon="1.8603760">
<ele>447.995056</ele>
<time>2022-09-08T08:51:09.003Z</time>
</trkpt>
<trkpt lat="41.9296010" lon="1.8603930">
<ele>448.116943</ele>
<time>2022-09-08T08:51:09.996Z</time>
</trkpt>
<trkpt lat="41.9295520" lon="1.8603990">
<ele>448.147461</ele>
<time>2022-09-08T08:51:10.999Z</time>
</trkpt>
<trkpt lat="41.9295030" lon="1.8604050">
<ele>448.116943</ele>
<time>2022-09-08T08:51:12.001Z</time>
</trkpt>
<trkpt lat="41.9294610" lon="1.8604210">
<ele>448.056000</ele>
<time>2022-09-08T08:51:13.003Z</time>
</trkpt>
<trkpt lat="41.9294390" lon="1.8604310">
<ele>448.025513</ele>
<time>2022-09-08T08:51:13.997Z</time>
</trkpt>
<trkpt lat="41.9294160" lon="1.8604380">
<ele>448.056000</ele>
<time>2022-09-08T08:51:14.999Z</time>
</trkpt>
<trkpt lat="41.9293860" lon="1.8604400">
<ele>448.208405</ele>
<time>2022-09-08T08:51:16.001Z</time>
</trkpt>
<trkpt lat="41.9293570" lon="1.8604370">
<ele>448.452240</ele>
<time>2022-09-08T08:51:17.004Z</time>
</trkpt>
<trkpt lat="41.9293260" lon="1.8604430">
<ele>448.635132</ele>
<time>2022-09-08T08:51:17.997Z</time>
</trkpt>
<trkpt lat="41.9292890" lon="1.8604580">
<ele>448.787537</ele>
<time>2022-09-08T08:51:18.999Z</time>
</trkpt>
<trkpt lat="41.9292450" lon="1.8604860">
<ele>449.031342</ele>
<time>2022-09-08T08:51:20.002Z</time>
</trkpt>
<trkpt lat="41.9292060" lon="1.8605290">
<ele>449.122803</ele>
<time>2022-09-08T08:51:21.004Z</time>
</trkpt>
<trkpt lat="41.9291700" lon="1.8605860">
<ele>449.214264</ele>
<time>2022-09-08T08:51:21.997Z</time>
</trkpt>
<trkpt lat="41.9291400" lon="1.8606590">
<ele>449.183746</ele>
<time>2022-09-08T08:51:23.000Z</time>
</trkpt>
<trkpt lat="41.9291140" lon="1.8607410">
<ele>449.061859</ele>
<time>2022-09-08T08:51:24.002Z</time>
</trkpt>
<trkpt lat="41.9291030" lon="1.8608230">
<ele>448.817993</ele>
<time>2022-09-08T08:51:25.004Z</time>
</trkpt>
<trkpt lat="41.9290970" lon="1.8609200">
<ele>448.513214</ele>
<time>2022-09-08T08:51:25.998Z</time>
</trkpt>
<trkpt lat="41.9290830" lon="1.8610270">
<ele>448.330322</ele>
<time>2022-09-08T08:51:27.000Z</time>
</trkpt>
<trkpt lat="41.9290710" lon="1.8611280">
<ele>448.330322</ele>
<time>2022-09-08T08:51:28.002Z</time>
</trkpt>
<trkpt lat="41.9290520" lon="1.8612250">
<ele>448.543671</ele>
<time>2022-09-08T08:51:28.996Z</time>
</trkpt>
<trkpt lat="41.9290360" lon="1.8613130">
<ele>448.757050</ele>
<time>2022-09-08T08:51:29.998Z</time>
</trkpt>
<trkpt lat="41.9290160" lon="1.8614020">
<ele>449.153259</ele>
<time>2022-09-08T08:51:31.000Z</time>
</trkpt>
<trkpt lat="41.9290070" lon="1.8614860">
<ele>449.305664</ele>
<time>2022-09-08T08:51:32.003Z</time>
</trkpt>
<trkpt lat="41.9289960" lon="1.8615630">
<ele>449.610474</ele>
<time>2022-09-08T08:51:32.996Z</time>
</trkpt>
<trkpt lat="41.9289870" lon="1.8616280">
<ele>449.884796</ele>
<time>2022-09-08T08:51:33.998Z</time>
</trkpt>
<trkpt lat="41.9289870" lon="1.8616810">
<ele>449.884796</ele>
<time>2022-09-08T08:51:35.001Z</time>
</trkpt>
<trkpt lat="41.9289880" lon="1.8617140">
<ele>449.793335</ele>
<time>2022-09-08T08:51:36.003Z</time>
</trkpt>
<trkpt lat="41.9289740" lon="1.8617490">
<ele>450.189606</ele>
<time>2022-09-08T08:51:36.996Z</time>
</trkpt>
<trkpt lat="41.9289570" lon="1.8617780">
<ele>450.555359</ele>
<time>2022-09-08T08:51:37.999Z</time>
</trkpt>
<trkpt lat="41.9289430" lon="1.8617990">
<ele>450.921143</ele>
<time>2022-09-08T08:51:39.001Z</time>
</trkpt>
<trkpt lat="41.9289290" lon="1.8618110">
<ele>451.286865</ele>
<time>2022-09-08T08:51:40.003Z</time>
</trkpt>
<trkpt lat="41.9289150" lon="1.8618130">
<ele>451.683136</ele>
<time>2022-09-08T08:51:40.997Z</time>
</trkpt>
<trkpt lat="41.9289050" lon="1.8618100">
<ele>451.865997</ele>
<time>2022-09-08T08:51:41.999Z</time>
</trkpt>
<trkpt lat="41.9288920" lon="1.8618040">
<ele>452.262268</ele>
<time>2022-09-08T08:51:43.001Z</time>
</trkpt>
<trkpt lat="41.9288850" lon="1.8617950">
<ele>452.353668</ele>
<time>2022-09-08T08:51:44.004Z</time>
</trkpt>
<trkpt lat="41.9288810" lon="1.8617760">
<ele>452.475586</ele>
<time>2022-09-08T08:51:44.997Z</time>
</trkpt>
<trkpt lat="41.9288840" lon="1.8617640">
<ele>452.475586</ele>
<time>2022-09-08T08:51:45.999Z</time>
</trkpt>
<trkpt lat="41.9288830" lon="1.8617490">
<ele>452.475586</ele>
<time>2022-09-08T08:51:47.002Z</time>
</trkpt>
<trkpt lat="41.9288730" lon="1.8617370">
<ele>452.780396</ele>
<time>2022-09-08T08:51:48.004Z</time>
</trkpt>
<trkpt lat="41.9288640" lon="1.8617270">
<ele>452.993744</ele>
<time>2022-09-08T08:51:48.997Z</time>
</trkpt>
<trkpt lat="41.9288610" lon="1.8617230">
<ele>453.085205</ele>
<time>2022-09-08T08:51:50.000Z</time>
</trkpt>
<trkpt lat="41.9288610" lon="1.8617230">
<ele>453.085205</ele>
<time>2022-09-08T08:51:51.002Z</time>
</trkpt>
<trkpt lat="41.9288460" lon="1.8617110">
<ele>453.481445</ele>
<time>2022-09-08T08:52:07.003Z</time>
</trkpt>
<trkpt lat="41.9288370" lon="1.8617080">
<ele>453.694794</ele>
<time>2022-09-08T08:52:07.997Z</time>
</trkpt>
<trkpt lat="41.9288250" lon="1.8617110">
<ele>453.969116</ele>
<time>2022-09-08T08:52:08.999Z</time>
</trkpt>
<trkpt lat="41.9288140" lon="1.8617140">
<ele>454.243469</ele>
<time>2022-09-08T08:52:10.001Z</time>
</trkpt>
<trkpt lat="41.9288000" lon="1.8617170">
<ele>454.609192</ele>
<time>2022-09-08T08:52:11.004Z</time>
</trkpt>
<trkpt lat="41.9287830" lon="1.8617160">
<ele>455.005463</ele>
<time>2022-09-08T08:52:11.997Z</time>
</trkpt>
<trkpt lat="41.9287680" lon="1.8617130">
<ele>455.371185</ele>
<time>2022-09-08T08:52:12.999Z</time>
</trkpt>
<trkpt lat="41.9287530" lon="1.8617110">
<ele>455.736938</ele>
<time>2022-09-08T08:52:14.002Z</time>
</trkpt>
<trkpt lat="41.9287380" lon="1.8617050">
<ele>456.102722</ele>
<time>2022-09-08T08:52:15.004Z</time>
</trkpt>
<trkpt lat="41.9287230" lon="1.8617000">
<ele>456.437988</ele>
<time>2022-09-08T08:52:15.997Z</time>
</trkpt>
<trkpt lat="41.9287070" lon="1.8617020">
<ele>456.773285</ele>
<time>2022-09-08T08:52:17.000Z</time>
</trkpt>
<trkpt lat="41.9286900" lon="1.8616980">
<ele>457.108551</ele>
<time>2022-09-08T08:52:18.002Z</time>
</trkpt>
<trkpt lat="41.9286850" lon="1.8617110">
<ele>457.230469</ele>
<time>2022-09-08T08:52:19.004Z</time>
</trkpt>
<trkpt lat="41.9286790" lon="1.8617300">
<ele>457.260956</ele>
<time>2022-09-08T08:52:19.998Z</time>
</trkpt>
<trkpt lat="41.9286730" lon="1.8617490">
<ele>457.352386</ele>
<time>2022-09-08T08:52:21.000Z</time>
</trkpt>
<trkpt lat="41.9286600" lon="1.8617640">
<ele>457.535278</ele>
<time>2022-09-08T08:52:22.002Z</time>
</trkpt>
<trkpt lat="41.9286440" lon="1.8617720">
<ele>457.901062</ele>
<time>2022-09-08T08:52:22.996Z</time>
</trkpt>
<trkpt lat="41.9286310" lon="1.8617710">
<ele>458.114410</ele>
<time>2022-09-08T08:52:23.998Z</time>
</trkpt>
<trkpt lat="41.9286200" lon="1.8617700">
<ele>458.327759</ele>
<time>2022-09-08T08:52:25.000Z</time>
</trkpt>
<trkpt lat="41.9286040" lon="1.8617700">
<ele>458.602081</ele>
<time>2022-09-08T08:52:26.003Z</time>
</trkpt>
<trkpt lat="41.9285910" lon="1.8617730">
<ele>458.784943</ele>
<time>2022-09-08T08:52:26.996Z</time>
</trkpt>
<trkpt lat="41.9285780" lon="1.8617770">
<ele>459.028809</ele>
<time>2022-09-08T08:52:27.998Z</time>
</trkpt>
<trkpt lat="41.9285660" lon="1.8617760">
<ele>459.242157</ele>
<time>2022-09-08T08:52:29.001Z</time>
</trkpt>
<trkpt lat="41.9285560" lon="1.8617690">
<ele>459.455536</ele>
<time>2022-09-08T08:52:30.003Z</time>
</trkpt>
<trkpt lat="41.9285460" lon="1.8617680">
<ele>459.577454</ele>
<time>2022-09-08T08:52:30.996Z</time>
</trkpt>
<trkpt lat="41.9285340" lon="1.8617800">
<ele>459.699341</ele>
<time>2022-09-08T08:52:31.999Z</time>
</trkpt>
<trkpt lat="41.9285220" lon="1.8618040">
<ele>459.851746</ele>
<time>2022-09-08T08:52:33.001Z</time>
</trkpt>
<trkpt lat="41.9285070" lon="1.8618270">
<ele>459.912720</ele>
<time>2022-09-08T08:52:34.003Z</time>
</trkpt>
<trkpt lat="41.9284890" lon="1.8618480">
<ele>460.065125</ele>
<time>2022-09-08T08:52:34.997Z</time>
</trkpt>
<trkpt lat="41.9284630" lon="1.8618680">
<ele>460.308960</ele>
<time>2022-09-08T08:52:35.999Z</time>
</trkpt>
<trkpt lat="41.9284460" lon="1.8618860">
<ele>460.400391</ele>
<time>2022-09-08T08:52:37.001Z</time>
</trkpt>
<trkpt lat="41.9284290" lon="1.8618990">
<ele>460.552795</ele>
<time>2022-09-08T08:52:38.004Z</time>
</trkpt>
<trkpt lat="41.9284140" lon="1.8619090">
<ele>460.644257</ele>
<time>2022-09-08T08:52:38.997Z</time>
</trkpt>
<trkpt lat="41.9284040" lon="1.8619240">
<ele>460.644257</ele>
<time>2022-09-08T08:52:39.999Z</time>
</trkpt>
<trkpt lat="41.9283970" lon="1.8619490">
<ele>460.552795</ele>
<time>2022-09-08T08:52:41.002Z</time>
</trkpt>
<trkpt lat="41.9283920" lon="1.8619710">
<ele>460.491852</ele>
<time>2022-09-08T08:52:42.004Z</time>
</trkpt>
<trkpt lat="41.9283850" lon="1.8619910">
<ele>460.400391</ele>
<time>2022-09-08T08:52:42.997Z</time>
</trkpt>
<trkpt lat="41.9283690" lon="1.8620060">
<ele>460.461334</ele>
<time>2022-09-08T08:52:44.000Z</time>
</trkpt>
<trkpt lat="41.9283470" lon="1.8620390">
<ele>460.369934</ele>
<time>2022-09-08T08:52:45.002Z</time>
</trkpt>
<trkpt lat="41.9283360" lon="1.8620750">
<ele>460.187042</ele>
<time>2022-09-08T08:52:46.004Z</time>
</trkpt>
<trkpt lat="41.9283400" lon="1.8620990">
<ele>460.004150</ele>
<time>2022-09-08T08:52:46.998Z</time>
</trkpt>
<trkpt lat="41.9283590" lon="1.8621290">
<ele>459.729858</ele>
<time>2022-09-08T08:52:48.000Z</time>
</trkpt>
<trkpt lat="41.9283680" lon="1.8621590">
<ele>459.546936</ele>
<time>2022-09-08T08:52:49.002Z</time>
</trkpt>
<trkpt lat="41.9283860" lon="1.8621790">
<ele>459.333588</ele>
<time>2022-09-08T08:52:49.996Z</time>
</trkpt>
<trkpt lat="41.9284020" lon="1.8621890">
<ele>459.211670</ele>
<time>2022-09-08T08:52:50.998Z</time>
</trkpt>
<trkpt lat="41.9284100" lon="1.8622120">
<ele>459.059265</ele>
<time>2022-09-08T08:52:52.000Z</time>
</trkpt>
<trkpt lat="41.9284150" lon="1.8622530">
<ele>458.876404</ele>
<time>2022-09-08T08:52:53.003Z</time>
</trkpt>
<trkpt lat="41.9284120" lon="1.8622790">
<ele>458.784943</ele>
<time>2022-09-08T08:52:53.996Z</time>
</trkpt>
<trkpt lat="41.9283970" lon="1.8623070">
<ele>458.784943</ele>
<time>2022-09-08T08:52:54.998Z</time>
</trkpt>
<trkpt lat="41.9283850" lon="1.8623290">
<ele>458.754486</ele>
<time>2022-09-08T08:52:56.001Z</time>
</trkpt>
<trkpt lat="41.9283700" lon="1.8623530">
<ele>458.723999</ele>
<time>2022-09-08T08:52:57.003Z</time>
</trkpt>
<trkpt lat="41.9283610" lon="1.8623830">
<ele>458.632538</ele>
<time>2022-09-08T08:52:57.996Z</time>
</trkpt>
<trkpt lat="41.9283500" lon="1.8624060">
<ele>458.571594</ele>
<time>2022-09-08T08:52:58.999Z</time>
</trkpt>
<trkpt lat="41.9283600" lon="1.8624200">
<ele>458.510651</ele>
<time>2022-09-08T08:53:00.001Z</time>
</trkpt>
<trkpt lat="41.9283670" lon="1.8624470">
<ele>458.388733</ele>
<time>2022-09-08T08:53:01.003Z</time>
</trkpt>
<trkpt lat="41.9283770" lon="1.8624830">
<ele>458.266815</ele>
<time>2022-09-08T08:53:01.997Z</time>
</trkpt>
<trkpt lat="41.9283800" lon="1.8625180">
<ele>458.144867</ele>
<time>2022-09-08T08:53:02.999Z</time>
</trkpt>
<trkpt lat="41.9283800" lon="1.8625570">
<ele>458.022949</ele>
<time>2022-09-08T08:53:04.001Z</time>
</trkpt>
<trkpt lat="41.9283740" lon="1.8625790">
<ele>457.962006</ele>
<time>2022-09-08T08:53:05.004Z</time>
</trkpt>
<trkpt lat="41.9283710" lon="1.8626030">
<ele>457.870544</ele>
<time>2022-09-08T08:53:05.997Z</time>
</trkpt>
<trkpt lat="41.9283730" lon="1.8626400">
<ele>457.748657</ele>
<time>2022-09-08T08:53:06.999Z</time>
</trkpt>
<trkpt lat="41.9283890" lon="1.8626640">
<ele>457.626740</ele>
<time>2022-09-08T08:53:08.002Z</time>
</trkpt>
<trkpt lat="41.9284080" lon="1.8626930">
<ele>457.504791</ele>
<time>2022-09-08T08:53:09.004Z</time>
</trkpt>
<trkpt lat="41.9284190" lon="1.8627110">
<ele>457.443848</ele>
<time>2022-09-08T08:53:09.997Z</time>
</trkpt>
<trkpt lat="41.9284320" lon="1.8627290">
<ele>457.352386</ele>
<time>2022-09-08T08:53:11.000Z</time>
</trkpt>
<trkpt lat="41.9284200" lon="1.8627410">
<ele>457.321930</ele>
<time>2022-09-08T08:53:12.002Z</time>
</trkpt>
<trkpt lat="41.9284070" lon="1.8627440">
<ele>457.321930</ele>
<time>2022-09-08T08:53:13.004Z</time>
</trkpt>
<trkpt lat="41.9283900" lon="1.8627580">
<ele>457.260956</ele>
<time>2022-09-08T08:53:13.998Z</time>
</trkpt>
<trkpt lat="41.9283720" lon="1.8627750">
<ele>457.169525</ele>
<time>2022-09-08T08:53:15.000Z</time>
</trkpt>
<trkpt lat="41.9283670" lon="1.8627960">
<ele>457.078064</ele>
<time>2022-09-08T08:53:16.002Z</time>
</trkpt>
<trkpt lat="41.9283560" lon="1.8628150">
<ele>456.956146</ele>
<time>2022-09-08T08:53:16.996Z</time>
</trkpt>
<trkpt lat="41.9283400" lon="1.8628360">
<ele>456.803741</ele>
<time>2022-09-08T08:53:17.998Z</time>
</trkpt>
<trkpt lat="41.9283110" lon="1.8628620">
<ele>456.559937</ele>
<time>2022-09-08T08:53:19.000Z</time>
</trkpt>
<trkpt lat="41.9282890" lon="1.8628810">
<ele>456.316071</ele>
<time>2022-09-08T08:53:20.003Z</time>
</trkpt>
<trkpt lat="41.9282750" lon="1.8629030">
<ele>456.102722</ele>
<time>2022-09-08T08:53:20.996Z</time>
</trkpt>
<trkpt lat="41.9282590" lon="1.8629250">
<ele>455.858887</ele>
<time>2022-09-08T08:53:21.998Z</time>
</trkpt>
<trkpt lat="41.9282390" lon="1.8629470">
<ele>455.584534</ele>
<time>2022-09-08T08:53:23.001Z</time>
</trkpt>
<trkpt lat="41.9282150" lon="1.8629620">
<ele>455.310242</ele>
<time>2022-09-08T08:53:24.003Z</time>
</trkpt>
<trkpt lat="41.9281900" lon="1.8629670">
<ele>455.035919</ele>
<time>2022-09-08T08:53:24.996Z</time>
</trkpt>
<trkpt lat="41.9281670" lon="1.8629670">
<ele>454.822540</ele>
<time>2022-09-08T08:53:25.999Z</time>
</trkpt>
<trkpt lat="41.9281420" lon="1.8629670">
<ele>454.548248</ele>
<time>2022-09-08T08:53:27.001Z</time>
</trkpt>
<trkpt lat="41.9281140" lon="1.8629570">
<ele>454.304413</ele>
<time>2022-09-08T08:53:28.003Z</time>
</trkpt>
<trkpt lat="41.9280910" lon="1.8629500">
<ele>454.030060</ele>
<time>2022-09-08T08:53:28.997Z</time>
</trkpt>
<trkpt lat="41.9280680" lon="1.8629450">
<ele>453.786255</ele>
<time>2022-09-08T08:53:29.999Z</time>
</trkpt>
<trkpt lat="41.9280510" lon="1.8629400">
<ele>453.633850</ele>
<time>2022-09-08T08:53:31.001Z</time>
</trkpt>
<trkpt lat="41.9280320" lon="1.8629480">
<ele>453.329041</ele>
<time>2022-09-08T08:53:32.004Z</time>
</trkpt>
<trkpt lat="41.9280080" lon="1.8629720">
<ele>452.841339</ele>
<time>2022-09-08T08:53:32.997Z</time>
</trkpt>
<trkpt lat="41.9279880" lon="1.8630060">
<ele>452.262268</ele>
<time>2022-09-08T08:53:33.999Z</time>
</trkpt>
<trkpt lat="41.9279740" lon="1.8630370">
<ele>451.865997</ele>
<time>2022-09-08T08:53:35.002Z</time>
</trkpt>
<trkpt lat="41.9279600" lon="1.8630590">
<ele>451.469757</ele>
<time>2022-09-08T08:53:36.004Z</time>
</trkpt>
<trkpt lat="41.9279320" lon="1.8630810">
<ele>450.890656</ele>
<time>2022-09-08T08:53:36.997Z</time>
</trkpt>
<trkpt lat="41.9279070" lon="1.8630980">
<ele>450.402954</ele>
<time>2022-09-08T08:53:38.000Z</time>
</trkpt>
<trkpt lat="41.9278850" lon="1.8631220">
<ele>449.976257</ele>
<time>2022-09-08T08:53:39.002Z</time>
</trkpt>
<trkpt lat="41.9278720" lon="1.8631450">
<ele>449.701935</ele>
<time>2022-09-08T08:53:40.004Z</time>
</trkpt>
<trkpt lat="41.9278720" lon="1.8631700">
<ele>449.519043</ele>
<time>2022-09-08T08:53:40.998Z</time>
</trkpt>
<trkpt lat="41.9278940" lon="1.8631910">
<ele>449.610474</ele>
<time>2022-09-08T08:53:42.000Z</time>
</trkpt>
<trkpt lat="41.9279280" lon="1.8632170">
<ele>449.884796</ele>
<time>2022-09-08T08:53:43.002Z</time>
</trkpt>
<trkpt lat="41.9279550" lon="1.8632400">
<ele>450.189606</ele>
<time>2022-09-08T08:53:43.996Z</time>
</trkpt>
<trkpt lat="41.9279590" lon="1.8632760">
<ele>450.006714</ele>
<time>2022-09-08T08:53:44.998Z</time>
</trkpt>
<trkpt lat="41.9279540" lon="1.8633110">
<ele>449.701935</ele>
<time>2022-09-08T08:53:46.000Z</time>
</trkpt>
<trkpt lat="41.9279350" lon="1.8633390">
<ele>449.183746</ele>
<time>2022-09-08T08:53:47.003Z</time>
</trkpt>
<trkpt lat="41.9278990" lon="1.8633630">
<ele>448.482727</ele>
<time>2022-09-08T08:53:47.996Z</time>
</trkpt>
<trkpt lat="41.9278660" lon="1.8633680">
<ele>448.056000</ele>
<time>2022-09-08T08:53:48.998Z</time>
</trkpt>
<trkpt lat="41.9278410" lon="1.8633320">
<ele>447.995056</ele>
<time>2022-09-08T08:53:50.001Z</time>
</trkpt>
<trkpt lat="41.9278100" lon="1.8632920">
<ele>447.873138</ele>
<time>2022-09-08T08:53:51.003Z</time>
</trkpt>
<trkpt lat="41.9277850" lon="1.8632650">
<ele>447.720734</ele>
<time>2022-09-08T08:53:51.996Z</time>
</trkpt>
<trkpt lat="41.9277630" lon="1.8632520">
<ele>447.537842</ele>
<time>2022-09-08T08:53:52.999Z</time>
</trkpt>
<trkpt lat="41.9277390" lon="1.8632370">
<ele>447.263519</ele>
<time>2022-09-08T08:53:54.001Z</time>
</trkpt>
<trkpt lat="41.9277110" lon="1.8632120">
<ele>447.050140</ele>
<time>2022-09-08T08:53:55.003Z</time>
</trkpt>
<trkpt lat="41.9276910" lon="1.8631780">
<ele>447.019684</ele>
<time>2022-09-08T08:53:55.997Z</time>
</trkpt>
<trkpt lat="41.9276720" lon="1.8631430">
<ele>447.019684</ele>
<time>2022-09-08T08:53:56.999Z</time>
</trkpt>
<trkpt lat="41.9276520" lon="1.8631100">
<ele>446.928253</ele>
<time>2022-09-08T08:53:58.001Z</time>
</trkpt>
<trkpt lat="41.9276340" lon="1.8630780">
<ele>446.958740</ele>
<time>2022-09-08T08:53:59.004Z</time>
</trkpt>
<trkpt lat="41.9276210" lon="1.8630510">
<ele>446.958740</ele>
<time>2022-09-08T08:53:59.997Z</time>
</trkpt>
<trkpt lat="41.9276030" lon="1.8630400">
<ele>446.836792</ele>
<time>2022-09-08T08:54:00.999Z</time>
</trkpt>
<trkpt lat="41.9275840" lon="1.8630450">
<ele>446.501526</ele>
<time>2022-09-08T08:54:02.002Z</time>
</trkpt>
<trkpt lat="41.9275640" lon="1.8630640">
<ele>446.013855</ele>
<time>2022-09-08T08:54:03.004Z</time>
</trkpt>
<trkpt lat="41.9275500" lon="1.8630910">
<ele>445.617615</ele>
<time>2022-09-08T08:54:03.997Z</time>
</trkpt>
<trkpt lat="41.9275400" lon="1.8631220">
<ele>445.190887</ele>
<time>2022-09-08T08:54:05.000Z</time>
</trkpt>
<trkpt lat="41.9275410" lon="1.8631530">
<ele>444.947052</ele>
<time>2022-09-08T08:54:06.002Z</time>
</trkpt>
<trkpt lat="41.9275450" lon="1.8631780">
<ele>444.794647</ele>
<time>2022-09-08T08:54:07.004Z</time>
</trkpt>
<trkpt lat="41.9275580" lon="1.8632040">
<ele>444.825134</ele>
<time>2022-09-08T08:54:07.998Z</time>
</trkpt>
<trkpt lat="41.9275820" lon="1.8632270">
<ele>445.007996</ele>
<time>2022-09-08T08:54:09.000Z</time>
</trkpt>
<trkpt lat="41.9276070" lon="1.8632550">
<ele>445.221344</ele>
<time>2022-09-08T08:54:10.002Z</time>
</trkpt>
<trkpt lat="41.9276320" lon="1.8632860">
<ele>445.343262</ele>
<time>2022-09-08T08:54:10.996Z</time>
</trkpt>
<trkpt lat="41.9276530" lon="1.8633240">
<ele>445.404266</ele>
<time>2022-09-08T08:54:11.998Z</time>
</trkpt>
<trkpt lat="41.9276590" lon="1.8633620">
<ele>445.221344</ele>
<time>2022-09-08T08:54:13.000Z</time>
</trkpt>
<trkpt lat="41.9276580" lon="1.8633940">
<ele>444.977539</ele>
<time>2022-09-08T08:54:14.003Z</time>
</trkpt>
<trkpt lat="41.9276520" lon="1.8634210">
<ele>444.672729</ele>
<time>2022-09-08T08:54:14.996Z</time>
</trkpt>
<trkpt lat="41.9276470" lon="1.8634490">
<ele>444.428864</ele>
<time>2022-09-08T08:54:15.998Z</time>
</trkpt>
<trkpt lat="41.9276480" lon="1.8634820">
<ele>444.185059</ele>
<time>2022-09-08T08:54:17.001Z</time>
</trkpt>
<trkpt lat="41.9276340" lon="1.8635080">
<ele>443.819275</ele>
<time>2022-09-08T08:54:18.003Z</time>
</trkpt>
<trkpt lat="41.9276120" lon="1.8635300">
<ele>443.331604</ele>
<time>2022-09-08T08:54:18.996Z</time>
</trkpt>
<trkpt lat="41.9275880" lon="1.8635460">
<ele>442.904877</ele>
<time>2022-09-08T08:54:19.999Z</time>
</trkpt>
<trkpt lat="41.9275680" lon="1.8635540">
<ele>442.539124</ele>
<time>2022-09-08T08:54:21.001Z</time>
</trkpt>
<trkpt lat="41.9275450" lon="1.8635480">
<ele>442.264801</ele>
<time>2022-09-08T08:54:22.003Z</time>
</trkpt>
<trkpt lat="41.9275130" lon="1.8635380">
<ele>441.929535</ele>
<time>2022-09-08T08:54:22.997Z</time>
</trkpt>
<trkpt lat="41.9274840" lon="1.8635250">
<ele>441.624725</ele>
<time>2022-09-08T08:54:23.999Z</time>
</trkpt>
<trkpt lat="41.9274650" lon="1.8635080">
<ele>441.472321</ele>
<time>2022-09-08T08:54:25.001Z</time>
</trkpt>
<trkpt lat="41.9274470" lon="1.8634740">
<ele>441.472321</ele>
<time>2022-09-08T08:54:26.004Z</time>
</trkpt>
<trkpt lat="41.9274390" lon="1.8634380">
<ele>441.594269</ele>
<time>2022-09-08T08:54:26.997Z</time>
</trkpt>
<trkpt lat="41.9274350" lon="1.8634030">
<ele>441.777130</ele>
<time>2022-09-08T08:54:27.999Z</time>
</trkpt>
<trkpt lat="41.9274250" lon="1.8633620">
<ele>441.868530</ele>
<time>2022-09-08T08:54:29.002Z</time>
</trkpt>
<trkpt lat="41.9274140" lon="1.8633250">
<ele>441.959991</ele>
<time>2022-09-08T08:54:30.004Z</time>
</trkpt>
<trkpt lat="41.9273940" lon="1.8632940">
<ele>441.899048</ele>
<time>2022-09-08T08:54:30.997Z</time>
</trkpt>
<trkpt lat="41.9273730" lon="1.8632670">
<ele>441.807587</ele>
<time>2022-09-08T08:54:32.000Z</time>
</trkpt>
<trkpt lat="41.9273540" lon="1.8632350">
<ele>441.807587</ele>
<time>2022-09-08T08:54:33.002Z</time>
</trkpt>
<trkpt lat="41.9273350" lon="1.8632030">
<ele>441.807587</ele>
<time>2022-09-08T08:54:34.004Z</time>
</trkpt>
<trkpt lat="41.9273160" lon="1.8631770">
<ele>441.807587</ele>
<time>2022-09-08T08:54:34.998Z</time>
</trkpt>
<trkpt lat="41.9272930" lon="1.8631630">
<ele>441.685669</ele>
<time>2022-09-08T08:54:36.000Z</time>
</trkpt>
<trkpt lat="41.9272700" lon="1.8631490">
<ele>441.563751</ele>
<time>2022-09-08T08:54:37.002Z</time>
</trkpt>
<trkpt lat="41.9272460" lon="1.8631310">
<ele>441.533264</ele>
<time>2022-09-08T08:54:37.996Z</time>
</trkpt>
<trkpt lat="41.9272260" lon="1.8631130">
<ele>441.533264</ele>
<time>2022-09-08T08:54:38.998Z</time>
</trkpt>
<trkpt lat="41.9272040" lon="1.8630860">
<ele>441.624725</ele>
<time>2022-09-08T08:54:40.000Z</time>
</trkpt>
<trkpt lat="41.9271820" lon="1.8630450">
<ele>441.868530</ele>
<time>2022-09-08T08:54:41.003Z</time>
</trkpt>
<trkpt lat="41.9271670" lon="1.8630050">
<ele>442.203857</ele>
<time>2022-09-08T08:54:41.996Z</time>
</trkpt>
<trkpt lat="41.9271540" lon="1.8629720">
<ele>442.508667</ele>
<time>2022-09-08T08:54:42.998Z</time>
</trkpt>
<trkpt lat="41.9271330" lon="1.8629380">
<ele>442.813446</ele>
<time>2022-09-08T08:54:44.001Z</time>
</trkpt>
<trkpt lat="41.9271120" lon="1.8629010">
<ele>443.148743</ele>
<time>2022-09-08T08:54:45.003Z</time>
</trkpt>
<trkpt lat="41.9270990" lon="1.8628700">
<ele>443.362061</ele>
<time>2022-09-08T08:54:45.996Z</time>
</trkpt>
<trkpt lat="41.9270840" lon="1.8628340">
<ele>443.605927</ele>
<time>2022-09-08T08:54:46.999Z</time>
</trkpt>
<trkpt lat="41.9270730" lon="1.8628100">
<ele>443.758331</ele>
<time>2022-09-08T08:54:48.001Z</time>
</trkpt>
<trkpt lat="41.9270520" lon="1.8627900">
<ele>443.880249</ele>
<time>2022-09-08T08:54:49.003Z</time>
</trkpt>
<trkpt lat="41.9270350" lon="1.8627730">
<ele>444.002136</ele>
<time>2022-09-08T08:54:49.997Z</time>
</trkpt>
<trkpt lat="41.9270300" lon="1.8627500">
<ele>444.185059</ele>
<time>2022-09-08T08:54:50.999Z</time>
</trkpt>
<trkpt lat="41.9270330" lon="1.8627250">
<ele>444.367920</ele>
<time>2022-09-08T08:54:52.001Z</time>
</trkpt>
<trkpt lat="41.9270300" lon="1.8626980">
<ele>444.581268</ele>
<time>2022-09-08T08:54:53.004Z</time>
</trkpt>
<trkpt lat="41.9270140" lon="1.8626660">
<ele>444.855591</ele>
<time>2022-09-08T08:54:53.997Z</time>
</trkpt>
<trkpt lat="41.9269880" lon="1.8626360">
<ele>445.190887</ele>
<time>2022-09-08T08:54:54.999Z</time>
</trkpt>
<trkpt lat="41.9269560" lon="1.8626010">
<ele>445.648071</ele>
<time>2022-09-08T08:54:56.002Z</time>
</trkpt>
<trkpt lat="41.9269270" lon="1.8625750">
<ele>446.105286</ele>
<time>2022-09-08T08:54:57.004Z</time>
</trkpt>
<trkpt lat="41.9269060" lon="1.8625700">
<ele>446.318665</ele>
<time>2022-09-08T08:54:57.997Z</time>
</trkpt>
<trkpt lat="41.9268910" lon="1.8625830">
<ele>446.349121</ele>
<time>2022-09-08T08:54:59.000Z</time>
</trkpt>
<trkpt lat="41.9268840" lon="1.8626110">
<ele>446.166260</ele>
<time>2022-09-08T08:55:00.002Z</time>
</trkpt>
<trkpt lat="41.9268850" lon="1.8626500">
<ele>445.830933</ele>
<time>2022-09-08T08:55:01.004Z</time>
</trkpt>
<trkpt lat="41.9268810" lon="1.8626830">
<ele>445.587128</ele>
<time>2022-09-08T08:55:01.998Z</time>
</trkpt>
<trkpt lat="41.9268720" lon="1.8627110">
<ele>445.434723</ele>
<time>2022-09-08T08:55:03.000Z</time>
</trkpt>
<trkpt lat="41.9268580" lon="1.8627330">
<ele>445.404266</ele>
<time>2022-09-08T08:55:04.002Z</time>
</trkpt>
<trkpt lat="41.9268460" lon="1.8627500">
<ele>445.373749</ele>
<time>2022-09-08T08:55:04.996Z</time>
</trkpt>
<trkpt lat="41.9268370" lon="1.8627700">
<ele>445.312805</ele>
<time>2022-09-08T08:55:05.998Z</time>
</trkpt>
<trkpt lat="41.9268200" lon="1.8627770">
<ele>445.465210</ele>
<time>2022-09-08T08:55:07.000Z</time>
</trkpt>
<trkpt lat="41.9267970" lon="1.8627930">
<ele>445.648071</ele>
<time>2022-09-08T08:55:08.003Z</time>
</trkpt>
<trkpt lat="41.9267700" lon="1.8628190">
<ele>445.769989</ele>
<time>2022-09-08T08:55:08.996Z</time>
</trkpt>
<trkpt lat="41.9267440" lon="1.8628460">
<ele>445.922394</ele>
<time>2022-09-08T08:55:09.998Z</time>
</trkpt>
<trkpt lat="41.9267170" lon="1.8628820">
<ele>446.013855</ele>
<time>2022-09-08T08:55:11.001Z</time>
</trkpt>
<trkpt lat="41.9266880" lon="1.8629150">
<ele>446.105286</ele>
<time>2022-09-08T08:55:12.003Z</time>
</trkpt>
<trkpt lat="41.9266640" lon="1.8629360">
<ele>446.257660</ele>
<time>2022-09-08T08:55:12.996Z</time>
</trkpt>
<trkpt lat="41.9266410" lon="1.8629410">
<ele>446.562469</ele>
<time>2022-09-08T08:55:13.999Z</time>
</trkpt>
<trkpt lat="41.9266190" lon="1.8629470">
<ele>446.806335</ele>
<time>2022-09-08T08:55:15.001Z</time>
</trkpt>
<trkpt lat="41.9266000" lon="1.8629530">
<ele>447.050140</ele>
<time>2022-09-08T08:55:16.003Z</time>
</trkpt>
<trkpt lat="41.9265810" lon="1.8629760">
<ele>447.050140</ele>
<time>2022-09-08T08:55:16.997Z</time>
</trkpt>
<trkpt lat="41.9265540" lon="1.8630230">
<ele>446.897736</ele>
<time>2022-09-08T08:55:17.999Z</time>
</trkpt>
<trkpt lat="41.9265430" lon="1.8630740">
<ele>446.440552</ele>
<time>2022-09-08T08:55:19.001Z</time>
</trkpt>
<trkpt lat="41.9265320" lon="1.8631210">
<ele>446.074799</ele>
<time>2022-09-08T08:55:20.004Z</time>
</trkpt>
<trkpt lat="41.9265080" lon="1.8631650">
<ele>445.952881</ele>
<time>2022-09-08T08:55:20.997Z</time>
</trkpt>
<trkpt lat="41.9264800" lon="1.8632110">
<ele>445.983337</ele>
<time>2022-09-08T08:55:21.999Z</time>
</trkpt>
<trkpt lat="41.9264550" lon="1.8632580">
<ele>445.922394</ele>
<time>2022-09-08T08:55:23.002Z</time>
</trkpt>
<trkpt lat="41.9264410" lon="1.8633080">
<ele>445.709045</ele>
<time>2022-09-08T08:55:24.004Z</time>
</trkpt>
<trkpt lat="41.9264450" lon="1.8633610">
<ele>445.221344</ele>
<time>2022-09-08T08:55:24.997Z</time>
</trkpt>
<trkpt lat="41.9264610" lon="1.8634270">
<ele>444.550812</ele>
<time>2022-09-08T08:55:26.000Z</time>
</trkpt>
<trkpt lat="41.9265110" lon="1.8635140">
<ele>443.331604</ele>
<time>2022-09-08T08:55:27.002Z</time>
</trkpt>
<trkpt lat="41.9265440" lon="1.8635740">
<ele>442.600067</ele>
<time>2022-09-08T08:55:28.004Z</time>
</trkpt>
<trkpt lat="41.9265740" lon="1.8636340">
<ele>442.020935</ele>
<time>2022-09-08T08:55:28.998Z</time>
</trkpt>
<trkpt lat="41.9266050" lon="1.8636810">
<ele>441.563751</ele>
<time>2022-09-08T08:55:30.000Z</time>
</trkpt>
<trkpt lat="41.9266230" lon="1.8637340">
<ele>441.319916</ele>
<time>2022-09-08T08:55:31.002Z</time>
</trkpt>
<trkpt lat="41.9266320" lon="1.8637890">
<ele>441.197998</ele>
<time>2022-09-08T08:55:31.996Z</time>
</trkpt>
<trkpt lat="41.9266340" lon="1.8638430">
<ele>441.167542</ele>
<time>2022-09-08T08:55:32.998Z</time>
</trkpt>
<trkpt lat="41.9266340" lon="1.8638910">
<ele>441.258942</ele>
<time>2022-09-08T08:55:34.000Z</time>
</trkpt>
<trkpt lat="41.9266300" lon="1.8639310">
<ele>441.441864</ele>
<time>2022-09-08T08:55:35.003Z</time>
</trkpt>
<trkpt lat="41.9266230" lon="1.8639650">
<ele>441.624725</ele>
<time>2022-09-08T08:55:35.996Z</time>
</trkpt>
<trkpt lat="41.9266130" lon="1.8639940">
<ele>441.868530</ele>
<time>2022-09-08T08:55:36.998Z</time>
</trkpt>
<trkpt lat="41.9266110" lon="1.8640250">
<ele>441.990479</ele>
<time>2022-09-08T08:55:38.001Z</time>
</trkpt>
<trkpt lat="41.9266130" lon="1.8640600">
<ele>442.142883</ele>
<time>2022-09-08T08:55:39.003Z</time>
</trkpt>
<trkpt lat="41.9266230" lon="1.8641060">
<ele>442.203857</ele>
<time>2022-09-08T08:55:39.996Z</time>
</trkpt>
<trkpt lat="41.9266280" lon="1.8641650">
<ele>442.478149</ele>
<time>2022-09-08T08:55:40.999Z</time>
</trkpt>
<trkpt lat="41.9266250" lon="1.8642250">
<ele>442.874390</ele>
<time>2022-09-08T08:55:42.001Z</time>
</trkpt>
<trkpt lat="41.9266180" lon="1.8642870">
<ele>443.331604</ele>
<time>2022-09-08T08:55:43.003Z</time>
</trkpt>
<trkpt lat="41.9266060" lon="1.8643480">
<ele>443.849731</ele>
<time>2022-09-08T08:55:43.997Z</time>
</trkpt>
<trkpt lat="41.9265950" lon="1.8643990">
<ele>444.306946</ele>
<time>2022-09-08T08:55:44.999Z</time>
</trkpt>
<trkpt lat="41.9265770" lon="1.8644500">
<ele>444.825134</ele>
<time>2022-09-08T08:55:46.001Z</time>
</trkpt>
<trkpt lat="41.9265660" lon="1.8644910">
<ele>445.190887</ele>
<time>2022-09-08T08:55:47.004Z</time>
</trkpt>
<trkpt lat="41.9265710" lon="1.8645270">
<ele>445.312805</ele>
<time>2022-09-08T08:55:47.997Z</time>
</trkpt>
<trkpt lat="41.9265810" lon="1.8645600">
<ele>445.251862</ele>
<time>2022-09-08T08:55:48.999Z</time>
</trkpt>
<trkpt lat="41.9265930" lon="1.8645930">
<ele>445.190887</ele>
<time>2022-09-08T08:55:50.002Z</time>
</trkpt>
<trkpt lat="41.9266120" lon="1.8646230">
<ele>444.947052</ele>
<time>2022-09-08T08:55:51.004Z</time>
</trkpt>
<trkpt lat="41.9266330" lon="1.8646600">
<ele>444.672729</ele>
<time>2022-09-08T08:55:51.997Z</time>
</trkpt>
<trkpt lat="41.9266500" lon="1.8646990">
<ele>444.398407</ele>
<time>2022-09-08T08:55:53.000Z</time>
</trkpt>
<trkpt lat="41.9266680" lon="1.8647500">
<ele>444.185059</ele>
<time>2022-09-08T08:55:54.002Z</time>
</trkpt>
<trkpt lat="41.9266850" lon="1.8648230">
<ele>443.849731</ele>
<time>2022-09-08T08:55:55.004Z</time>
</trkpt>
<trkpt lat="41.9266950" lon="1.8648860">
<ele>443.636414</ele>
<time>2022-09-08T08:55:55.998Z</time>
</trkpt>
<trkpt lat="41.9267060" lon="1.8649480">
<ele>443.453522</ele>
<time>2022-09-08T08:55:57.000Z</time>
</trkpt>
<trkpt lat="41.9267220" lon="1.8650350">
<ele>443.087738</ele>
<time>2022-09-08T08:55:58.002Z</time>
</trkpt>
<trkpt lat="41.9267520" lon="1.8650980">
<ele>442.661041</ele>
<time>2022-09-08T08:55:58.996Z</time>
</trkpt>
<trkpt lat="41.9267700" lon="1.8651720">
<ele>442.386719</ele>
<time>2022-09-08T08:55:59.998Z</time>
</trkpt>
<trkpt lat="41.9267630" lon="1.8652390">
<ele>442.508667</ele>
<time>2022-09-08T08:56:01.000Z</time>
</trkpt>
<trkpt lat="41.9267660" lon="1.8652970">
<ele>442.508667</ele>
<time>2022-09-08T08:56:02.003Z</time>
</trkpt>
<trkpt lat="41.9267750" lon="1.8653420">
<ele>442.447662</ele>
<time>2022-09-08T08:56:02.996Z</time>
</trkpt>
<trkpt lat="41.9267860" lon="1.8653910">
<ele>442.447662</ele>
<time>2022-09-08T08:56:03.998Z</time>
</trkpt>
<trkpt lat="41.9267840" lon="1.8654430">
<ele>442.600067</ele>
<time>2022-09-08T08:56:05.001Z</time>
</trkpt>
<trkpt lat="41.9267750" lon="1.8654820">
<ele>442.782959</ele>
<time>2022-09-08T08:56:06.003Z</time>
</trkpt>
<trkpt lat="41.9267630" lon="1.8655180">
<ele>443.057281</ele>
<time>2022-09-08T08:56:06.996Z</time>
</trkpt>
<trkpt lat="41.9267750" lon="1.8655500">
<ele>442.965851</ele>
<time>2022-09-08T08:56:07.999Z</time>
</trkpt>
<trkpt lat="41.9267880" lon="1.8655710">
<ele>442.874390</ele>
<time>2022-09-08T08:56:09.001Z</time>
</trkpt>
<trkpt lat="41.9268050" lon="1.8655910">
<ele>442.721985</ele>
<time>2022-09-08T08:56:10.003Z</time>
</trkpt>
<trkpt lat="41.9268320" lon="1.8656050">
<ele>442.447662</ele>
<time>2022-09-08T08:56:10.997Z</time>
</trkpt>
<trkpt lat="41.9268710" lon="1.8656070">
<ele>441.899048</ele>
<time>2022-09-08T08:56:11.999Z</time>
</trkpt>
<trkpt lat="41.9269030" lon="1.8656090">
<ele>441.502808</ele>
<time>2022-09-08T08:56:13.001Z</time>
</trkpt>
<trkpt lat="41.9269420" lon="1.8656110">
<ele>440.954132</ele>
<time>2022-09-08T08:56:14.004Z</time>
</trkpt>
<trkpt lat="41.9269800" lon="1.8656080">
<ele>440.375061</ele>
<time>2022-09-08T08:56:14.997Z</time>
</trkpt>
<trkpt lat="41.9270140" lon="1.8656110">
<ele>439.826385</ele>
<time>2022-09-08T08:56:15.999Z</time>
</trkpt>
<trkpt lat="41.9270480" lon="1.8656170">
<ele>439.277740</ele>
<time>2022-09-08T08:56:17.002Z</time>
</trkpt>
<trkpt lat="41.9270750" lon="1.8656230">
<ele>438.851044</ele>
<time>2022-09-08T08:56:18.004Z</time>
</trkpt>
<trkpt lat="41.9270930" lon="1.8656250">
<ele>438.424316</ele>
<time>2022-09-08T08:56:18.997Z</time>
</trkpt>
<trkpt lat="41.9271180" lon="1.8656320">
<ele>437.906158</ele>
<time>2022-09-08T08:56:20.000Z</time>
</trkpt>
<trkpt lat="41.9271510" lon="1.8656500">
<ele>437.144135</ele>
<time>2022-09-08T08:56:21.002Z</time>
</trkpt>
<trkpt lat="41.9271770" lon="1.8656710">
<ele>436.565063</ele>
<time>2022-09-08T08:56:22.004Z</time>
</trkpt>
<trkpt lat="41.9271990" lon="1.8656910">
<ele>436.107849</ele>
<time>2022-09-08T08:56:22.998Z</time>
</trkpt>
<trkpt lat="41.9272130" lon="1.8657090">
<ele>435.924957</ele>
<time>2022-09-08T08:56:24.000Z</time>
</trkpt>
<trkpt lat="41.9272300" lon="1.8657330">
<ele>435.589661</ele>
<time>2022-09-08T08:56:25.002Z</time>
</trkpt>
<trkpt lat="41.9272390" lon="1.8657550">
<ele>435.528717</ele>
<time>2022-09-08T08:56:25.996Z</time>
</trkpt>
<trkpt lat="41.9272570" lon="1.8657870">
<ele>435.284882</ele>
<time>2022-09-08T08:56:26.998Z</time>
</trkpt>
<trkpt lat="41.9272720" lon="1.8658110">
<ele>435.041046</ele>
<time>2022-09-08T08:56:28.000Z</time>
</trkpt>
<trkpt lat="41.9272860" lon="1.8658360">
<ele>434.949585</ele>
<time>2022-09-08T08:56:29.003Z</time>
</trkpt>
<trkpt lat="41.9273030" lon="1.8658640">
<ele>434.675262</ele>
<time>2022-09-08T08:56:29.996Z</time>
</trkpt>
<trkpt lat="41.9273230" lon="1.8658970">
<ele>434.431458</ele>
<time>2022-09-08T08:56:30.998Z</time>
</trkpt>
<trkpt lat="41.9273480" lon="1.8659390">
<ele>434.126648</ele>
<time>2022-09-08T08:56:32.001Z</time>
</trkpt>
<trkpt lat="41.9273790" lon="1.8659670">
<ele>433.608459</ele>
<time>2022-09-08T08:56:33.003Z</time>
</trkpt>
<trkpt lat="41.9274090" lon="1.8659860">
<ele>433.059845</ele>
<time>2022-09-08T08:56:33.996Z</time>
</trkpt>
<trkpt lat="41.9274400" lon="1.8660000">
<ele>432.480713</ele>
<time>2022-09-08T08:56:34.999Z</time>
</trkpt>
<trkpt lat="41.9274620" lon="1.8660080">
<ele>432.053986</ele>
<time>2022-09-08T08:56:36.001Z</time>
</trkpt>
<trkpt lat="41.9274780" lon="1.8660280">
<ele>431.871124</ele>
<time>2022-09-08T08:56:37.003Z</time>
</trkpt>
<trkpt lat="41.9275070" lon="1.8660460">
<ele>431.413940</ele>
<time>2022-09-08T08:56:37.997Z</time>
</trkpt>
<trkpt lat="41.9275530" lon="1.8660690">
<ele>430.621460</ele>
<time>2022-09-08T08:56:38.999Z</time>
</trkpt>
<trkpt lat="41.9275720" lon="1.8660820">
<ele>430.347137</ele>
<time>2022-09-08T08:56:40.001Z</time>
</trkpt>
<trkpt lat="41.9275920" lon="1.8660890">
<ele>429.920410</ele>
<time>2022-09-08T08:56:41.004Z</time>
</trkpt>
<trkpt lat="41.9276270" lon="1.8661040">
<ele>429.341278</ele>
<time>2022-09-08T08:56:41.997Z</time>
</trkpt>
<trkpt lat="41.9276630" lon="1.8661140">
<ele>428.762146</ele>
<time>2022-09-08T08:56:42.999Z</time>
</trkpt>
<trkpt lat="41.9276920" lon="1.8661140">
<ele>428.213531</ele>
<time>2022-09-08T08:56:44.002Z</time>
</trkpt>
<trkpt lat="41.9277140" lon="1.8660940">
<ele>427.695343</ele>
<time>2022-09-08T08:56:45.004Z</time>
</trkpt>
<trkpt lat="41.9277340" lon="1.8660680">
<ele>427.238159</ele>
<time>2022-09-08T08:56:45.997Z</time>
</trkpt>
<trkpt lat="41.9277570" lon="1.8660420">
<ele>426.750458</ele>
<time>2022-09-08T08:56:47.000Z</time>
</trkpt>
<trkpt lat="41.9277790" lon="1.8660150">
<ele>426.262787</ele>
<time>2022-09-08T08:56:48.002Z</time>
</trkpt>
<trkpt lat="41.9278090" lon="1.8659710">
<ele>425.653198</ele>
<time>2022-09-08T08:56:49.004Z</time>
</trkpt>
<trkpt lat="41.9278250" lon="1.8659450">
<ele>425.348389</ele>
<time>2022-09-08T08:56:49.998Z</time>
</trkpt>
<trkpt lat="41.9278290" lon="1.8659210">
<ele>425.196014</ele>
<time>2022-09-08T08:56:51.000Z</time>
</trkpt>
<trkpt lat="41.9278360" lon="1.8659000">
<ele>425.043610</ele>
<time>2022-09-08T08:56:52.002Z</time>
</trkpt>
<trkpt lat="41.9278490" lon="1.8658810">
<ele>424.860718</ele>
<time>2022-09-08T08:56:52.996Z</time>
</trkpt>
<trkpt lat="41.9278750" lon="1.8658560">
<ele>424.525452</ele>
<time>2022-09-08T08:56:53.998Z</time>
</trkpt>
<trkpt lat="41.9279100" lon="1.8658370">
<ele>424.220642</ele>
<time>2022-09-08T08:56:55.000Z</time>
</trkpt>
<trkpt lat="41.9279530" lon="1.8658150">
<ele>423.824402</ele>
<time>2022-09-08T08:56:56.003Z</time>
</trkpt>
<trkpt lat="41.9279920" lon="1.8658200">
<ele>423.489136</ele>
<time>2022-09-08T08:56:56.996Z</time>
</trkpt>
<trkpt lat="41.9280210" lon="1.8658470">
<ele>423.275757</ele>
<time>2022-09-08T08:56:57.998Z</time>
</trkpt>
<trkpt lat="41.9280590" lon="1.8658650">
<ele>423.031921</ele>
<time>2022-09-08T08:56:59.001Z</time>
</trkpt>
<trkpt lat="41.9280960" lon="1.8658910">
<ele>422.757599</ele>
<time>2022-09-08T08:57:00.003Z</time>
</trkpt>
<trkpt lat="41.9281290" lon="1.8659080">
<ele>422.574738</ele>
<time>2022-09-08T08:57:00.996Z</time>
</trkpt>
<trkpt lat="41.9281570" lon="1.8659060">
<ele>422.483276</ele>
<time>2022-09-08T08:57:01.999Z</time>
</trkpt>
<trkpt lat="41.9281810" lon="1.8658990">
<ele>422.452789</ele>
<time>2022-09-08T08:57:03.001Z</time>
</trkpt>
<trkpt lat="41.9282010" lon="1.8659050">
<ele>422.361359</ele>
<time>2022-09-08T08:57:04.003Z</time>
</trkpt>
<trkpt lat="41.9282170" lon="1.8659250">
<ele>422.239441</ele>
<time>2022-09-08T08:57:04.997Z</time>
</trkpt>
<trkpt lat="41.9282350" lon="1.8659480">
<ele>422.056549</ele>
<time>2022-09-08T08:57:05.999Z</time>
</trkpt>
<trkpt lat="41.9282560" lon="1.8659650">
<ele>421.904144</ele>
<time>2022-09-08T08:57:07.001Z</time>
</trkpt>
<trkpt lat="41.9282760" lon="1.8659840">
<ele>421.751740</ele>
<time>2022-09-08T08:57:08.004Z</time>
</trkpt>
<trkpt lat="41.9282940" lon="1.8660080">
<ele>421.538391</ele>
<time>2022-09-08T08:57:08.997Z</time>
</trkpt>
<trkpt lat="41.9283140" lon="1.8660360">
<ele>421.264069</ele>
<time>2022-09-08T08:57:09.999Z</time>
</trkpt>
<trkpt lat="41.9283360" lon="1.8660610">
<ele>420.989746</ele>
<time>2022-09-08T08:57:11.002Z</time>
</trkpt>
<trkpt lat="41.9283570" lon="1.8660860">
<ele>420.715454</ele>
<time>2022-09-08T08:57:12.004Z</time>
</trkpt>
<trkpt lat="41.9283740" lon="1.8661110">
<ele>420.441132</ele>
<time>2022-09-08T08:57:12.997Z</time>
</trkpt>
<trkpt lat="41.9283960" lon="1.8661290">
<ele>420.197266</ele>
<time>2022-09-08T08:57:14.000Z</time>
</trkpt>
<trkpt lat="41.9284220" lon="1.8661580">
<ele>419.831512</ele>
<time>2022-09-08T08:57:15.002Z</time>
</trkpt>
<trkpt lat="41.9284430" lon="1.8661860">
<ele>419.465759</ele>
<time>2022-09-08T08:57:16.004Z</time>
</trkpt>
<trkpt lat="41.9284630" lon="1.8662050">
<ele>419.191467</ele>
<time>2022-09-08T08:57:16.998Z</time>
</trkpt>
<trkpt lat="41.9284880" lon="1.8662250">
<ele>418.886658</ele>
<time>2022-09-08T08:57:18.000Z</time>
</trkpt>
<trkpt lat="41.9285150" lon="1.8662540">
<ele>418.459930</ele>
<time>2022-09-08T08:57:19.002Z</time>
</trkpt>
<trkpt lat="41.9285330" lon="1.8662700">
<ele>418.216064</ele>
<time>2022-09-08T08:57:19.996Z</time>
</trkpt>
<trkpt lat="41.9285550" lon="1.8663050">
<ele>417.728394</ele>
<time>2022-09-08T08:57:20.998Z</time>
</trkpt>
<trkpt lat="41.9285710" lon="1.8663380">
<ele>417.301666</ele>
<time>2022-09-08T08:57:22.000Z</time>
</trkpt>
<trkpt lat="41.9285890" lon="1.8663670">
<ele>416.935913</ele>
<time>2022-09-08T08:57:23.003Z</time>
</trkpt>
<trkpt lat="41.9286090" lon="1.8663900">
<ele>416.631134</ele>
<time>2022-09-08T08:57:23.996Z</time>
</trkpt>
<trkpt lat="41.9286270" lon="1.8664130">
<ele>416.356812</ele>
<time>2022-09-08T08:57:24.998Z</time>
</trkpt>
<trkpt lat="41.9286460" lon="1.8664390">
<ele>416.052002</ele>
<time>2022-09-08T08:57:26.001Z</time>
</trkpt>
<trkpt lat="41.9286660" lon="1.8664660">
<ele>415.747192</ele>
<time>2022-09-08T08:57:27.003Z</time>
</trkpt>
<trkpt lat="41.9286830" lon="1.8664940">
<ele>415.411926</ele>
<time>2022-09-08T08:57:27.996Z</time>
</trkpt>
<trkpt lat="41.9287000" lon="1.8665230">
<ele>415.107117</ele>
<time>2022-09-08T08:57:28.999Z</time>
</trkpt>
<trkpt lat="41.9287230" lon="1.8665600">
<ele>414.710876</ele>
<time>2022-09-08T08:57:30.001Z</time>
</trkpt>
<trkpt lat="41.9287420" lon="1.8665940">
<ele>414.375610</ele>
<time>2022-09-08T08:57:31.003Z</time>
</trkpt>
<trkpt lat="41.9287570" lon="1.8666230">
<ele>414.101257</ele>
<time>2022-09-08T08:57:31.997Z</time>
</trkpt>
<trkpt lat="41.9287600" lon="1.8666660">
<ele>413.644073</ele>
<time>2022-09-08T08:57:32.999Z</time>
</trkpt>
<trkpt lat="41.9287610" lon="1.8667170">
<ele>413.095459</ele>
<time>2022-09-08T08:57:34.001Z</time>
</trkpt>
<trkpt lat="41.9287640" lon="1.8667580">
<ele>412.668732</ele>
<time>2022-09-08T08:57:35.004Z</time>
</trkpt>
<trkpt lat="41.9287730" lon="1.8667810">
<ele>412.424866</ele>
<time>2022-09-08T08:57:35.997Z</time>
</trkpt>
<trkpt lat="41.9287880" lon="1.8668070">
<ele>412.150543</ele>
<time>2022-09-08T08:57:36.999Z</time>
</trkpt>
<trkpt lat="41.9288130" lon="1.8668320">
<ele>411.937195</ele>
<time>2022-09-08T08:57:38.002Z</time>
</trkpt>
<trkpt lat="41.9288440" lon="1.8668380">
<ele>411.967682</ele>
<time>2022-09-08T08:57:39.004Z</time>
</trkpt>
<trkpt lat="41.9288680" lon="1.8668250">
<ele>412.242004</ele>
<time>2022-09-08T08:57:39.997Z</time>
</trkpt>
<trkpt lat="41.9288900" lon="1.8668150">
<ele>412.485840</ele>
<time>2022-09-08T08:57:41.000Z</time>
</trkpt>
<trkpt lat="41.9289150" lon="1.8668210">
<ele>412.577271</ele>
<time>2022-09-08T08:57:42.002Z</time>
</trkpt>
<trkpt lat="41.9289290" lon="1.8668360">
<ele>412.485840</ele>
<time>2022-09-08T08:57:43.004Z</time>
</trkpt>
<trkpt lat="41.9289470" lon="1.8668560">
<ele>412.394409</ele>
<time>2022-09-08T08:57:43.998Z</time>
</trkpt>
<trkpt lat="41.9289650" lon="1.8668860">
<ele>412.120087</ele>
<time>2022-09-08T08:57:45.000Z</time>
</trkpt>
<trkpt lat="41.9289840" lon="1.8669110">
<ele>411.937195</ele>
<time>2022-09-08T08:57:46.002Z</time>
</trkpt>
<trkpt lat="41.9290060" lon="1.8669200">
<ele>411.967682</ele>
<time>2022-09-08T08:57:46.996Z</time>
</trkpt>
<trkpt lat="41.9290250" lon="1.8669270">
<ele>412.059113</ele>
<time>2022-09-08T08:57:47.998Z</time>
</trkpt>
<trkpt lat="41.9290380" lon="1.8669400">
<ele>411.998138</ele>
<time>2022-09-08T08:57:49.000Z</time>
</trkpt>
<trkpt lat="41.9290470" lon="1.8669540">
<ele>411.845734</ele>
<time>2022-09-08T08:57:50.003Z</time>
</trkpt>
<trkpt lat="41.9290610" lon="1.8669710">
<ele>411.723846</ele>
<time>2022-09-08T08:57:50.996Z</time>
</trkpt>
<trkpt lat="41.9290750" lon="1.8669920">
<ele>411.510468</ele>
<time>2022-09-08T08:57:51.998Z</time>
</trkpt>
<trkpt lat="41.9290970" lon="1.8670210">
<ele>411.266663</ele>
<time>2022-09-08T08:57:53.001Z</time>
</trkpt>
<trkpt lat="41.9291100" lon="1.8670590">
<ele>410.778931</ele>
<time>2022-09-08T08:57:54.003Z</time>
</trkpt>
<trkpt lat="41.9291130" lon="1.8670990">
<ele>410.108398</ele>
<time>2022-09-08T08:57:54.996Z</time>
</trkpt>
<trkpt lat="41.9291000" lon="1.8671310">
<ele>409.468323</ele>
<time>2022-09-08T08:57:55.999Z</time>
</trkpt>
<trkpt lat="41.9290830" lon="1.8671600">
<ele>408.889191</ele>
<time>2022-09-08T08:57:57.001Z</time>
</trkpt>
<trkpt lat="41.9290680" lon="1.8671950">
<ele>408.249115</ele>
<time>2022-09-08T08:57:58.003Z</time>
</trkpt>
<trkpt lat="41.9290490" lon="1.8672380">
<ele>407.456665</ele>
<time>2022-09-08T08:57:58.997Z</time>
</trkpt>
<trkpt lat="41.9290340" lon="1.8672840">
<ele>406.725128</ele>
<time>2022-09-08T08:57:59.999Z</time>
</trkpt>
<trkpt lat="41.9290300" lon="1.8673270">
<ele>406.115540</ele>
<time>2022-09-08T08:58:01.001Z</time>
</trkpt>
<trkpt lat="41.9290330" lon="1.8673660">
<ele>405.627869</ele>
<time>2022-09-08T08:58:02.004Z</time>
</trkpt>
<trkpt lat="41.9290460" lon="1.8674200">
<ele>405.079193</ele>
<time>2022-09-08T08:58:02.997Z</time>
</trkpt>
<trkpt lat="41.9290670" lon="1.8674790">
<ele>404.530548</ele>
<time>2022-09-08T08:58:03.999Z</time>
</trkpt>
<trkpt lat="41.9290820" lon="1.8675310">
<ele>404.042877</ele>
<time>2022-09-08T08:58:05.002Z</time>
</trkpt>
<trkpt lat="41.9291010" lon="1.8675810">
<ele>403.616150</ele>
<time>2022-09-08T08:58:06.004Z</time>
</trkpt>
<trkpt lat="41.9291180" lon="1.8676010">
<ele>403.555206</ele>
<time>2022-09-08T08:58:06.997Z</time>
</trkpt>
<trkpt lat="41.9291330" lon="1.8675960">
<ele>403.738068</ele>
<time>2022-09-08T08:58:08.000Z</time>
</trkpt>
<trkpt lat="41.9291480" lon="1.8675800">
<ele>404.042877</ele>
<time>2022-09-08T08:58:09.002Z</time>
</trkpt>
<trkpt lat="41.9291640" lon="1.8675580">
<ele>404.439117</ele>
<time>2022-09-08T08:58:10.004Z</time>
</trkpt>
<trkpt lat="41.9291750" lon="1.8675370">
<ele>404.774414</ele>
<time>2022-09-08T08:58:10.998Z</time>
</trkpt>
<trkpt lat="41.9291890" lon="1.8675130">
<ele>405.140137</ele>
<time>2022-09-08T08:58:12.000Z</time>
</trkpt>
<trkpt lat="41.9291990" lon="1.8675030">
<ele>405.353516</ele>
<time>2022-09-08T08:58:13.002Z</time>
</trkpt>
<trkpt lat="41.9292120" lon="1.8675030">
<ele>405.475464</ele>
<time>2022-09-08T08:58:13.996Z</time>
</trkpt>
<trkpt lat="41.9292260" lon="1.8674800">
<ele>405.871674</ele>
<time>2022-09-08T08:58:14.998Z</time>
</trkpt>
<trkpt lat="41.9292400" lon="1.8674370">
<ele>406.511749</ele>
<time>2022-09-08T08:58:16.000Z</time>
</trkpt>
<trkpt lat="41.9292630" lon="1.8674140">
<ele>406.999451</ele>
<time>2022-09-08T08:58:17.003Z</time>
</trkpt>
<trkpt lat="41.9292900" lon="1.8674040">
<ele>407.334717</ele>
<time>2022-09-08T08:58:17.996Z</time>
</trkpt>
<trkpt lat="41.9293150" lon="1.8673990">
<ele>407.609070</ele>
<time>2022-09-08T08:58:18.998Z</time>
</trkpt>
<trkpt lat="41.9293400" lon="1.8673930">
<ele>407.883331</ele>
<time>2022-09-08T08:58:20.001Z</time>
</trkpt>
<trkpt lat="41.9293700" lon="1.8673590">
<ele>408.523468</ele>
<time>2022-09-08T08:58:21.003Z</time>
</trkpt>
<trkpt lat="41.9294030" lon="1.8673040">
<ele>409.437866</ele>
<time>2022-09-08T08:58:21.996Z</time>
</trkpt>
<trkpt lat="41.9294200" lon="1.8672490">
<ele>410.291260</ele>
<time>2022-09-08T08:58:22.999Z</time>
</trkpt>
<trkpt lat="41.9294260" lon="1.8672070">
<ele>410.900879</ele>
<time>2022-09-08T08:58:24.001Z</time>
</trkpt>
<trkpt lat="41.9294320" lon="1.8671770">
<ele>411.388550</ele>
<time>2022-09-08T08:58:25.003Z</time>
</trkpt>
<trkpt lat="41.9294320" lon="1.8671690">
<ele>411.510468</ele>
<time>2022-09-08T08:58:25.997Z</time>
</trkpt>
<trkpt lat="41.9294320" lon="1.8671690">
<ele>411.510468</ele>
<time>2022-09-08T08:58:26.999Z</time>
</trkpt>
<trkpt lat="41.9294320" lon="1.8671690">
<ele>411.510468</ele>
<time>2022-09-08T08:58:28.001Z</time>
</trkpt>
<trkpt lat="41.9294580" lon="1.8671310">
<ele>412.211517</ele>
<time>2022-09-08T09:00:06.998Z</time>
</trkpt>
<trkpt lat="41.9294830" lon="1.8670840">
<ele>413.034485</ele>
<time>2022-09-08T09:00:08.001Z</time>
</trkpt>
<trkpt lat="41.9295050" lon="1.8670290">
<ele>414.040314</ele>
<time>2022-09-08T09:00:09.003Z</time>
</trkpt>
<trkpt lat="41.9295320" lon="1.8669680">
<ele>415.107117</ele>
<time>2022-09-08T09:00:09.996Z</time>
</trkpt>
<trkpt lat="41.9295570" lon="1.8668960">
<ele>416.265350</ele>
<time>2022-09-08T09:00:10.999Z</time>
</trkpt>
<trkpt lat="41.9295880" lon="1.8668220">
<ele>417.332153</ele>
<time>2022-09-08T09:00:12.001Z</time>
</trkpt>
<trkpt lat="41.9296200" lon="1.8667500">
<ele>418.124664</ele>
<time>2022-09-08T09:00:13.003Z</time>
</trkpt>
<trkpt lat="41.9296520" lon="1.8666810">
<ele>418.764740</ele>
<time>2022-09-08T09:00:13.997Z</time>
</trkpt>
<trkpt lat="41.9296910" lon="1.8666150">
<ele>419.160950</ele>
<time>2022-09-08T09:00:14.999Z</time>
</trkpt>
<trkpt lat="41.9297400" lon="1.8665600">
<ele>419.069519</ele>
<time>2022-09-08T09:00:16.001Z</time>
</trkpt>
<trkpt lat="41.9297940" lon="1.8665140">
<ele>418.642792</ele>
<time>2022-09-08T09:00:17.004Z</time>
</trkpt>
<trkpt lat="41.9298470" lon="1.8664610">
<ele>418.155121</ele>
<time>2022-09-08T09:00:17.997Z</time>
</trkpt>
<trkpt lat="41.9298970" lon="1.8663930">
<ele>417.850342</ele>
<time>2022-09-08T09:00:18.999Z</time>
</trkpt>
<trkpt lat="41.9299340" lon="1.8663360">
<ele>417.606476</ele>
<time>2022-09-08T09:00:20.002Z</time>
</trkpt>
<trkpt lat="41.9299650" lon="1.8662800">
<ele>417.484558</ele>
<time>2022-09-08T09:00:21.004Z</time>
</trkpt>
<trkpt lat="41.9299910" lon="1.8662280">
<ele>417.454071</ele>
<time>2022-09-08T09:00:21.997Z</time>
</trkpt>
<trkpt lat="41.9300110" lon="1.8661690">
<ele>417.728394</ele>
<time>2022-09-08T09:00:23.000Z</time>
</trkpt>
<trkpt lat="41.9300430" lon="1.8661010">
<ele>417.697937</ele>
<time>2022-09-08T09:00:24.002Z</time>
</trkpt>
<trkpt lat="41.9300840" lon="1.8660260">
<ele>417.332153</ele>
<time>2022-09-08T09:00:25.004Z</time>
</trkpt>
<trkpt lat="41.9301240" lon="1.8659650">
<ele>416.874939</ele>
<time>2022-09-08T09:00:25.998Z</time>
</trkpt>
<trkpt lat="41.9301620" lon="1.8659170">
<ele>416.265350</ele>
<time>2022-09-08T09:00:27.000Z</time>
</trkpt>
<trkpt lat="41.9302030" lon="1.8658810">
<ele>415.472870</ele>
<time>2022-09-08T09:00:28.002Z</time>
</trkpt>
<trkpt lat="41.9302390" lon="1.8658590">
<ele>414.710876</ele>
<time>2022-09-08T09:00:28.996Z</time>
</trkpt>
<trkpt lat="41.9302750" lon="1.8658410">
<ele>414.040314</ele>
<time>2022-09-08T09:00:29.998Z</time>
</trkpt>
<trkpt lat="41.9303120" lon="1.8658190">
<ele>413.369751</ele>
<time>2022-09-08T09:00:31.000Z</time>
</trkpt>
<trkpt lat="41.9303520" lon="1.8657970">
<ele>412.760132</ele>
<time>2022-09-08T09:00:32.003Z</time>
</trkpt>
<trkpt lat="41.9303920" lon="1.8657750">
<ele>412.150543</ele>
<time>2022-09-08T09:00:32.996Z</time>
</trkpt>
<trkpt lat="41.9304250" lon="1.8657540">
<ele>411.815277</ele>
<time>2022-09-08T09:00:33.998Z</time>
</trkpt>
<trkpt lat="41.9304530" lon="1.8657230">
<ele>411.540955</ele>
<time>2022-09-08T09:00:35.001Z</time>
</trkpt>
<trkpt lat="41.9304770" lon="1.8656870">
<ele>411.449524</ele>
<time>2022-09-08T09:00:36.003Z</time>
</trkpt>
<trkpt lat="41.9305010" lon="1.8656570">
<ele>411.388550</ele>
<time>2022-09-08T09:00:36.996Z</time>
</trkpt>
<trkpt lat="41.9305200" lon="1.8656290">
<ele>411.358063</ele>
<time>2022-09-08T09:00:37.999Z</time>
</trkpt>
<trkpt lat="41.9305330" lon="1.8656000">
<ele>411.388550</ele>
<time>2022-09-08T09:00:39.001Z</time>
</trkpt>
<trkpt lat="41.9305460" lon="1.8655690">
<ele>411.540955</ele>
<time>2022-09-08T09:00:40.003Z</time>
</trkpt>
<trkpt lat="41.9305580" lon="1.8655410">
<ele>411.662872</ele>
<time>2022-09-08T09:00:40.997Z</time>
</trkpt>
<trkpt lat="41.9305690" lon="1.8655150">
<ele>411.784790</ele>
<time>2022-09-08T09:00:41.999Z</time>
</trkpt>
<trkpt lat="41.9305790" lon="1.8654890">
<ele>411.906738</ele>
<time>2022-09-08T09:00:43.001Z</time>
</trkpt>
<trkpt lat="41.9305950" lon="1.8654590">
<ele>412.028656</ele>
<time>2022-09-08T09:00:44.004Z</time>
</trkpt>
<trkpt lat="41.9306040" lon="1.8654320">
<ele>412.211517</ele>
<time>2022-09-08T09:00:44.997Z</time>
</trkpt>
<trkpt lat="41.9306110" lon="1.8654080">
<ele>412.363922</ele>
<time>2022-09-08T09:00:45.999Z</time>
</trkpt>
<trkpt lat="41.9306210" lon="1.8653750">
<ele>412.516327</ele>
<time>2022-09-08T09:00:47.002Z</time>
</trkpt>
<trkpt lat="41.9306330" lon="1.8653390">
<ele>412.668732</ele>
<time>2022-09-08T09:00:48.004Z</time>
</trkpt>
<trkpt lat="41.9306440" lon="1.8653120">
<ele>412.760132</ele>
<time>2022-09-08T09:00:48.997Z</time>
</trkpt>
<trkpt lat="41.9306530" lon="1.8652880">
<ele>412.851593</ele>
<time>2022-09-08T09:00:50.000Z</time>
</trkpt>
<trkpt lat="41.9306600" lon="1.8652660">
<ele>412.943054</ele>
<time>2022-09-08T09:00:51.002Z</time>
</trkpt>
<trkpt lat="41.9306690" lon="1.8652410">
<ele>413.034485</ele>
<time>2022-09-08T09:00:52.004Z</time>
</trkpt>
<trkpt lat="41.9306770" lon="1.8652070">
<ele>413.186859</ele>
<time>2022-09-08T09:00:52.998Z</time>
</trkpt>
<trkpt lat="41.9306810" lon="1.8651860">
<ele>413.278320</ele>
<time>2022-09-08T09:00:54.000Z</time>
</trkpt>
<trkpt lat="41.9306970" lon="1.8651480">
<ele>413.369751</ele>
<time>2022-09-08T09:00:55.002Z</time>
</trkpt>
<trkpt lat="41.9307050" lon="1.8651140">
<ele>413.522156</ele>
<time>2022-09-08T09:00:55.996Z</time>
</trkpt>
<trkpt lat="41.9307080" lon="1.8650850">
<ele>413.674530</ele>
<time>2022-09-08T09:00:56.998Z</time>
</trkpt>
<trkpt lat="41.9307120" lon="1.8650560">
<ele>413.826935</ele>
<time>2022-09-08T09:00:58.000Z</time>
</trkpt>
<trkpt lat="41.9307090" lon="1.8650380">
<ele>413.979340</ele>
<time>2022-09-08T09:00:59.003Z</time>
</trkpt>
<trkpt lat="41.9307030" lon="1.8650010">
<ele>414.284149</ele>
<time>2022-09-08T09:00:59.996Z</time>
</trkpt>
<trkpt lat="41.9306970" lon="1.8649580">
<ele>414.619446</ele>
<time>2022-09-08T09:01:00.998Z</time>
</trkpt>
<trkpt lat="41.9306950" lon="1.8649350">
<ele>414.832794</ele>
<time>2022-09-08T09:01:02.001Z</time>
</trkpt>
<trkpt lat="41.9306940" lon="1.8649080">
<ele>415.046143</ele>
<time>2022-09-08T09:01:03.003Z</time>
</trkpt>
<trkpt lat="41.9306940" lon="1.8648780">
<ele>415.259521</ele>
<time>2022-09-08T09:01:03.996Z</time>
</trkpt>
<trkpt lat="41.9306910" lon="1.8648500">
<ele>415.533844</ele>
<time>2022-09-08T09:01:04.999Z</time>
</trkpt>
<trkpt lat="41.9306900" lon="1.8648220">
<ele>415.777679</ele>
<time>2022-09-08T09:01:06.001Z</time>
</trkpt>
<trkpt lat="41.9306980" lon="1.8647800">
<ele>416.112946</ele>
<time>2022-09-08T09:01:07.003Z</time>
</trkpt>
<trkpt lat="41.9307040" lon="1.8647460">
<ele>416.417755</ele>
<time>2022-09-08T09:01:07.997Z</time>
</trkpt>
<trkpt lat="41.9306990" lon="1.8647100">
<ele>416.844482</ele>
<time>2022-09-08T09:01:08.999Z</time>
</trkpt>
<trkpt lat="41.9306950" lon="1.8646570">
<ele>417.484558</ele>
<time>2022-09-08T09:01:10.001Z</time>
</trkpt>
<trkpt lat="41.9307040" lon="1.8646110">
<ele>418.033203</ele>
<time>2022-09-08T09:01:11.004Z</time>
</trkpt>
<trkpt lat="41.9307090" lon="1.8645630">
<ele>418.612335</ele>
<time>2022-09-08T09:01:11.997Z</time>
</trkpt>
<trkpt lat="41.9307180" lon="1.8645220">
<ele>419.130463</ele>
<time>2022-09-08T09:01:12.999Z</time>
</trkpt>
<trkpt lat="41.9307230" lon="1.8644850">
<ele>419.587677</ele>
<time>2022-09-08T09:01:14.002Z</time>
</trkpt>
<trkpt lat="41.9307280" lon="1.8644480">
<ele>420.044861</ele>
<time>2022-09-08T09:01:15.004Z</time>
</trkpt>
<trkpt lat="41.9307210" lon="1.8644120">
<ele>420.593536</ele>
<time>2022-09-08T09:01:15.997Z</time>
</trkpt>
<trkpt lat="41.9307170" lon="1.8643940">
<ele>420.867859</ele>
<time>2022-09-08T09:01:17.000Z</time>
</trkpt>
<trkpt lat="41.9307300" lon="1.8643650">
<ele>421.203125</ele>
<time>2022-09-08T09:01:18.002Z</time>
</trkpt>
<trkpt lat="41.9307260" lon="1.8643280">
<ele>421.751740</ele>
<time>2022-09-08T09:01:19.004Z</time>
</trkpt>
<trkpt lat="41.9307070" lon="1.8642880">
<ele>422.483276</ele>
<time>2022-09-08T09:01:19.998Z</time>
</trkpt>
<trkpt lat="41.9306990" lon="1.8642440">
<ele>423.184326</ele>
<time>2022-09-08T09:01:21.000Z</time>
</trkpt>
<trkpt lat="41.9306870" lon="1.8642260">
<ele>423.519592</ele>
<time>2022-09-08T09:01:22.002Z</time>
</trkpt>
<trkpt lat="41.9306780" lon="1.8642160">
<ele>423.732941</ele>
<time>2022-09-08T09:01:22.996Z</time>
</trkpt>
<trkpt lat="41.9306770" lon="1.8642010">
<ele>423.976807</ele>
<time>2022-09-08T09:01:23.998Z</time>
</trkpt>
<trkpt lat="41.9306670" lon="1.8641860">
<ele>424.281586</ele>
<time>2022-09-08T09:01:25.000Z</time>
</trkpt>
<trkpt lat="41.9306650" lon="1.8641720">
<ele>424.525452</ele>
<time>2022-09-08T09:01:26.003Z</time>
</trkpt>
<trkpt lat="41.9306690" lon="1.8641560">
<ele>424.738800</ele>
<time>2022-09-08T09:01:26.996Z</time>
</trkpt>
<trkpt lat="41.9306690" lon="1.8641390">
<ele>425.013123</ele>
<time>2022-09-08T09:01:27.998Z</time>
</trkpt>
<trkpt lat="41.9306680" lon="1.8641100">
<ele>425.470337</ele>
<time>2022-09-08T09:01:29.001Z</time>
</trkpt>
<trkpt lat="41.9306720" lon="1.8640810">
<ele>425.897064</ele>
<time>2022-09-08T09:01:30.003Z</time>
</trkpt>
<trkpt lat="41.9306770" lon="1.8640490">
<ele>426.384735</ele>
<time>2022-09-08T09:01:30.996Z</time>
</trkpt>
<trkpt lat="41.9306810" lon="1.8640090">
<ele>427.024811</ele>
<time>2022-09-08T09:01:31.999Z</time>
</trkpt>
<trkpt lat="41.9306840" lon="1.8639600">
<ele>427.847748</ele>
<time>2022-09-08T09:01:33.001Z</time>
</trkpt>
<trkpt lat="41.9306930" lon="1.8639110">
<ele>428.640259</ele>
<time>2022-09-08T09:01:34.003Z</time>
</trkpt>
<trkpt lat="41.9307030" lon="1.8638700">
<ele>429.341278</ele>
<time>2022-09-08T09:01:34.997Z</time>
</trkpt>
<trkpt lat="41.9307130" lon="1.8638270">
<ele>430.072815</ele>
<time>2022-09-08T09:01:35.999Z</time>
</trkpt>
<trkpt lat="41.9307200" lon="1.8637800">
<ele>430.926270</ele>
<time>2022-09-08T09:01:37.001Z</time>
</trkpt>
<trkpt lat="41.9307280" lon="1.8637290">
<ele>431.932068</ele>
<time>2022-09-08T09:01:38.004Z</time>
</trkpt>
<trkpt lat="41.9307400" lon="1.8636860">
<ele>432.724548</ele>
<time>2022-09-08T09:01:38.997Z</time>
</trkpt>
<trkpt lat="41.9307530" lon="1.8636430">
<ele>433.517059</ele>
<time>2022-09-08T09:01:39.999Z</time>
</trkpt>
<trkpt lat="41.9307680" lon="1.8635980">
<ele>434.309540</ele>
<time>2022-09-08T09:01:41.002Z</time>
</trkpt>
<trkpt lat="41.9307940" lon="1.8635300">
<ele>435.437286</ele>
<time>2022-09-08T09:01:42.004Z</time>
</trkpt>
<trkpt lat="41.9308260" lon="1.8634620">
<ele>436.504059</ele>
<time>2022-09-08T09:01:42.997Z</time>
</trkpt>
<trkpt lat="41.9308580" lon="1.8633910">
<ele>437.570862</ele>
<time>2022-09-08T09:01:44.000Z</time>
</trkpt>
<trkpt lat="41.9308850" lon="1.8633460">
<ele>438.210938</ele>
<time>2022-09-08T09:01:45.002Z</time>
</trkpt>
<trkpt lat="41.9309200" lon="1.8632970">
<ele>438.820557</ele>
<time>2022-09-08T09:01:46.004Z</time>
</trkpt>
<trkpt lat="41.9309460" lon="1.8632540">
<ele>439.369202</ele>
<time>2022-09-08T09:01:46.998Z</time>
</trkpt>
<trkpt lat="41.9309740" lon="1.8632050">
<ele>440.009277</ele>
<time>2022-09-08T09:01:48.000Z</time>
</trkpt>
<trkpt lat="41.9310040" lon="1.8631530">
<ele>440.649353</ele>
<time>2022-09-08T09:01:49.002Z</time>
</trkpt>
<trkpt lat="41.9310530" lon="1.8630830">
<ele>441.350403</ele>
<time>2022-09-08T09:01:49.996Z</time>
</trkpt>
<trkpt lat="41.9310920" lon="1.8630090">
<ele>442.173340</ele>
<time>2022-09-08T09:01:50.998Z</time>
</trkpt>
<trkpt lat="41.9311260" lon="1.8629570">
<ele>442.600067</ele>
<time>2022-09-08T09:01:52.000Z</time>
</trkpt>
<trkpt lat="41.9311650" lon="1.8629110">
<ele>442.813446</ele>
<time>2022-09-08T09:01:53.003Z</time>
</trkpt>
<trkpt lat="41.9312030" lon="1.8628590">
<ele>443.057281</ele>
<time>2022-09-08T09:01:53.996Z</time>
</trkpt>
<trkpt lat="41.9312460" lon="1.8627920">
<ele>443.179199</ele>
<time>2022-09-08T09:01:54.998Z</time>
</trkpt>
<trkpt lat="41.9312910" lon="1.8627310">
<ele>442.996338</ele>
<time>2022-09-08T09:01:56.001Z</time>
</trkpt>
<trkpt lat="41.9313370" lon="1.8626620">
<ele>442.600067</ele>
<time>2022-09-08T09:01:57.003Z</time>
</trkpt>
<trkpt lat="41.9313840" lon="1.8625920">
<ele>441.929535</ele>
<time>2022-09-08T09:01:57.996Z</time>
</trkpt>
<trkpt lat="41.9314090" lon="1.8625430">
<ele>441.746643</ele>
<time>2022-09-08T09:01:58.999Z</time>
</trkpt>
<trkpt lat="41.9314220" lon="1.8625020">
<ele>441.685669</ele>
<time>2022-09-08T09:02:00.001Z</time>
</trkpt>
<trkpt lat="41.9314060" lon="1.8624400">
<ele>442.996338</ele>
<time>2022-09-08T09:02:01.003Z</time>
</trkpt>
<trkpt lat="41.9314060" lon="1.8623750">
<ele>443.697357</ele>
<time>2022-09-08T09:02:01.997Z</time>
</trkpt>
<trkpt lat="41.9314110" lon="1.8623120">
<ele>444.185059</ele>
<time>2022-09-08T09:02:02.999Z</time>
</trkpt>
<trkpt lat="41.9314180" lon="1.8622500">
<ele>444.672729</ele>
<time>2022-09-08T09:02:04.001Z</time>
</trkpt>
<trkpt lat="41.9314230" lon="1.8621930">
<ele>445.251862</ele>
<time>2022-09-08T09:02:05.004Z</time>
</trkpt>
<trkpt lat="41.9314240" lon="1.8621370">
<ele>446.013855</ele>
<time>2022-09-08T09:02:05.997Z</time>
</trkpt>
<trkpt lat="41.9314450" lon="1.8620700">
<ele>446.318665</ele>
<time>2022-09-08T09:02:06.999Z</time>
</trkpt>
<trkpt lat="41.9314710" lon="1.8620340">
<ele>446.135742</ele>
<time>2022-09-08T09:02:08.002Z</time>
</trkpt>
<trkpt lat="41.9315170" lon="1.8619730">
<ele>445.709045</ele>
<time>2022-09-08T09:02:09.004Z</time>
</trkpt>
<trkpt lat="41.9315690" lon="1.8619200">
<ele>444.977539</ele>
<time>2022-09-08T09:02:09.997Z</time>
</trkpt>
<trkpt lat="41.9316290" lon="1.8618830">
<ele>443.575470</ele>
<time>2022-09-08T09:02:11.000Z</time>
</trkpt>
<trkpt lat="41.9316900" lon="1.8618470">
<ele>442.112396</ele>
<time>2022-09-08T09:02:12.002Z</time>
</trkpt>
<trkpt lat="41.9317500" lon="1.8618170">
<ele>440.557922</ele>
<time>2022-09-08T09:02:13.004Z</time>
</trkpt>
<trkpt lat="41.9318020" lon="1.8618030">
<ele>439.186340</ele>
<time>2022-09-08T09:02:13.998Z</time>
</trkpt>
<trkpt lat="41.9318360" lon="1.8618210">
<ele>437.784241</ele>
<time>2022-09-08T09:02:15.000Z</time>
</trkpt>
<trkpt lat="41.9318780" lon="1.8618520">
<ele>436.016388</ele>
<time>2022-09-08T09:02:16.002Z</time>
</trkpt>
<trkpt lat="41.9319240" lon="1.8618640">
<ele>434.522858</ele>
<time>2022-09-08T09:02:16.996Z</time>
</trkpt>
<trkpt lat="41.9319650" lon="1.8619130">
<ele>432.663605</ele>
<time>2022-09-08T09:02:17.998Z</time>
</trkpt>
<trkpt lat="41.9319950" lon="1.8619600">
<ele>431.261536</ele>
<time>2022-09-08T09:02:19.000Z</time>
</trkpt>
<trkpt lat="41.9319980" lon="1.8619850">
<ele>430.804321</ele>
<time>2022-09-08T09:02:20.003Z</time>
</trkpt>
<trkpt lat="41.9319830" lon="1.8620260">
<ele>430.560486</ele>
<time>2022-09-08T09:02:20.996Z</time>
</trkpt>
<trkpt lat="41.9319490" lon="1.8620670">
<ele>430.743347</ele>
<time>2022-09-08T09:02:21.998Z</time>
</trkpt>
<trkpt lat="41.9319140" lon="1.8621220">
<ele>430.651917</ele>
<time>2022-09-08T09:02:23.001Z</time>
</trkpt>
<trkpt lat="41.9319010" lon="1.8621600">
<ele>430.438538</ele>
<time>2022-09-08T09:02:24.003Z</time>
</trkpt>
<trkpt lat="41.9319100" lon="1.8621950">
<ele>429.585114</ele>
<time>2022-09-08T09:02:24.996Z</time>
</trkpt>
<trkpt lat="41.9319240" lon="1.8622250">
<ele>428.853607</ele>
<time>2022-09-08T09:02:25.999Z</time>
</trkpt>
<trkpt lat="41.9319390" lon="1.8622630">
<ele>427.939209</ele>
<time>2022-09-08T09:02:27.001Z</time>
</trkpt>
<trkpt lat="41.9319540" lon="1.8623090">
<ele>426.994324</ele>
<time>2022-09-08T09:02:28.003Z</time>
</trkpt>
<trkpt lat="41.9319680" lon="1.8623510">
<ele>426.171356</ele>
<time>2022-09-08T09:02:28.997Z</time>
</trkpt>
<trkpt lat="41.9319810" lon="1.8623950">
<ele>425.439850</ele>
<time>2022-09-08T09:02:29.999Z</time>
</trkpt>
<trkpt lat="41.9319910" lon="1.8624380">
<ele>424.769287</ele>
<time>2022-09-08T09:02:31.001Z</time>
</trkpt>
<trkpt lat="41.9320020" lon="1.8624870">
<ele>424.098724</ele>
<time>2022-09-08T09:02:32.004Z</time>
</trkpt>
<trkpt lat="41.9320060" lon="1.8625190">
<ele>423.763458</ele>
<time>2022-09-08T09:02:32.997Z</time>
</trkpt>
<trkpt lat="41.9320090" lon="1.8625650">
<ele>423.306244</ele>
<time>2022-09-08T09:02:33.999Z</time>
</trkpt>
<trkpt lat="41.9320090" lon="1.8625940">
<ele>423.092865</ele>
<time>2022-09-08T09:02:35.002Z</time>
</trkpt>
<trkpt lat="41.9320050" lon="1.8626280">
<ele>422.910004</ele>
<time>2022-09-08T09:02:36.004Z</time>
</trkpt>
<trkpt lat="41.9320000" lon="1.8626680">
<ele>422.727142</ele>
<time>2022-09-08T09:02:36.997Z</time>
</trkpt>
<trkpt lat="41.9319970" lon="1.8627120">
<ele>422.483276</ele>
<time>2022-09-08T09:02:38.000Z</time>
</trkpt>
<trkpt lat="41.9319810" lon="1.8627530">
<ele>422.452789</ele>
<time>2022-09-08T09:02:39.002Z</time>
</trkpt>
<trkpt lat="41.9319690" lon="1.8627980">
<ele>422.361359</ele>
<time>2022-09-08T09:02:40.004Z</time>
</trkpt>
<trkpt lat="41.9319580" lon="1.8628460">
<ele>422.269928</ele>
<time>2022-09-08T09:02:40.998Z</time>
</trkpt>
<trkpt lat="41.9319520" lon="1.8628910">
<ele>422.087067</ele>
<time>2022-09-08T09:02:42.000Z</time>
</trkpt>
<trkpt lat="41.9319450" lon="1.8629350">
<ele>421.965118</ele>
<time>2022-09-08T09:02:43.002Z</time>
</trkpt>
<trkpt lat="41.9319370" lon="1.8629880">
<ele>421.721283</ele>
<time>2022-09-08T09:02:43.996Z</time>
</trkpt>
<trkpt lat="41.9319300" lon="1.8630520">
<ele>421.477448</ele>
<time>2022-09-08T09:02:44.998Z</time>
</trkpt>
<trkpt lat="41.9319250" lon="1.8631220">
<ele>421.203125</ele>
<time>2022-09-08T09:02:46.000Z</time>
</trkpt>
<trkpt lat="41.9319160" lon="1.8631860">
<ele>421.111664</ele>
<time>2022-09-08T09:02:47.003Z</time>
</trkpt>
<trkpt lat="41.9319120" lon="1.8632490">
<ele>420.989746</ele>
<time>2022-09-08T09:02:47.996Z</time>
</trkpt>
<trkpt lat="41.9319050" lon="1.8633010">
<ele>420.928802</ele>
<time>2022-09-08T09:02:48.998Z</time>
</trkpt>
<trkpt lat="41.9318900" lon="1.8633490">
<ele>420.959259</ele>
<time>2022-09-08T09:02:50.001Z</time>
</trkpt>
<trkpt lat="41.9318770" lon="1.8634030">
<ele>420.959259</ele>
<time>2022-09-08T09:02:51.003Z</time>
</trkpt>
<trkpt lat="41.9318620" lon="1.8634600">
<ele>420.959259</ele>
<time>2022-09-08T09:02:51.996Z</time>
</trkpt>
<trkpt lat="41.9318580" lon="1.8635130">
<ele>420.867859</ele>
<time>2022-09-08T09:02:52.999Z</time>
</trkpt>
<trkpt lat="41.9318550" lon="1.8635640">
<ele>420.776398</ele>
<time>2022-09-08T09:02:54.001Z</time>
</trkpt>
<trkpt lat="41.9318490" lon="1.8636130">
<ele>420.684937</ele>
<time>2022-09-08T09:02:55.003Z</time>
</trkpt>
<trkpt lat="41.9318340" lon="1.8636480">
<ele>420.654480</ele>
<time>2022-09-08T09:02:55.997Z</time>
</trkpt>
<trkpt lat="41.9318140" lon="1.8636730">
<ele>420.715454</ele>
<time>2022-09-08T09:02:56.999Z</time>
</trkpt>
<trkpt lat="41.9317930" lon="1.8636840">
<ele>420.806885</ele>
<time>2022-09-08T09:02:58.001Z</time>
</trkpt>
<trkpt lat="41.9317670" lon="1.8636710">
<ele>421.081207</ele>
<time>2022-09-08T09:02:59.004Z</time>
</trkpt>
<trkpt lat="41.9317370" lon="1.8636510">
<ele>421.477448</ele>
<time>2022-09-08T09:02:59.997Z</time>
</trkpt>
<trkpt lat="41.9316900" lon="1.8636370">
<ele>422.087067</ele>
<time>2022-09-08T09:03:00.999Z</time>
</trkpt>
<trkpt lat="41.9316550" lon="1.8636390">
<ele>422.513733</ele>
<time>2022-09-08T09:03:02.002Z</time>
</trkpt>
<trkpt lat="41.9316260" lon="1.8636590">
<ele>422.757599</ele>
<time>2022-09-08T09:03:03.004Z</time>
</trkpt>
<trkpt lat="41.9316010" lon="1.8636900">
<ele>422.788086</ele>
<time>2022-09-08T09:03:03.997Z</time>
</trkpt>
<trkpt lat="41.9315820" lon="1.8637260">
<ele>422.696655</ele>
<time>2022-09-08T09:03:05.000Z</time>
</trkpt>
<trkpt lat="41.9315710" lon="1.8637640">
<ele>422.452789</ele>
<time>2022-09-08T09:03:06.002Z</time>
</trkpt>
<trkpt lat="41.9315640" lon="1.8638060">
<ele>422.087067</ele>
<time>2022-09-08T09:03:07.004Z</time>
</trkpt>
<trkpt lat="41.9315560" lon="1.8638490">
<ele>421.721283</ele>
<time>2022-09-08T09:03:07.998Z</time>
</trkpt>
<trkpt lat="41.9315490" lon="1.8638920">
<ele>421.385986</ele>
<time>2022-09-08T09:03:09.000Z</time>
</trkpt>
<trkpt lat="41.9315340" lon="1.8639490">
<ele>420.959259</ele>
<time>2022-09-08T09:03:10.002Z</time>
</trkpt>
<trkpt lat="41.9315130" lon="1.8640000">
<ele>420.654480</ele>
<time>2022-09-08T09:03:10.996Z</time>
</trkpt>
<trkpt lat="41.9314860" lon="1.8640640">
<ele>420.319214</ele>
<time>2022-09-08T09:03:11.998Z</time>
</trkpt>
<trkpt lat="41.9314670" lon="1.8641300">
<ele>419.862000</ele>
<time>2022-09-08T09:03:13.000Z</time>
</trkpt>
<trkpt lat="41.9314530" lon="1.8642020">
<ele>419.313354</ele>
<time>2022-09-08T09:03:14.003Z</time>
</trkpt>
<trkpt lat="41.9314490" lon="1.8642610">
<ele>418.856140</ele>
<time>2022-09-08T09:03:14.996Z</time>
</trkpt>
<trkpt lat="41.9314590" lon="1.8643100">
<ele>418.429443</ele>
<time>2022-09-08T09:03:15.998Z</time>
</trkpt>
<trkpt lat="41.9314790" lon="1.8643480">
<ele>418.063660</ele>
<time>2022-09-08T09:03:17.001Z</time>
</trkpt>
<trkpt lat="41.9315030" lon="1.8643820">
<ele>417.758881</ele>
<time>2022-09-08T09:03:18.003Z</time>
</trkpt>
<trkpt lat="41.9315270" lon="1.8644130">
<ele>417.484558</ele>
<time>2022-09-08T09:03:18.996Z</time>
</trkpt>
<trkpt lat="41.9315520" lon="1.8644540">
<ele>417.179749</ele>
<time>2022-09-08T09:03:19.999Z</time>
</trkpt>
<trkpt lat="41.9315680" lon="1.8645140">
<ele>416.783539</ele>
<time>2022-09-08T09:03:21.001Z</time>
</trkpt>
<trkpt lat="41.9315780" lon="1.8645980">
<ele>416.204407</ele>
<time>2022-09-08T09:03:22.003Z</time>
</trkpt>
<trkpt lat="41.9315750" lon="1.8646830">
<ele>415.533844</ele>
<time>2022-09-08T09:03:22.997Z</time>
</trkpt>
<trkpt lat="41.9315640" lon="1.8647670">
<ele>414.893738</ele>
<time>2022-09-08T09:03:23.999Z</time>
</trkpt>
<trkpt lat="41.9315620" lon="1.8648490">
<ele>414.314667</ele>
<time>2022-09-08T09:03:25.001Z</time>
</trkpt>
<trkpt lat="41.9315600" lon="1.8649190">
<ele>413.918396</ele>
<time>2022-09-08T09:03:26.004Z</time>
</trkpt>
<trkpt lat="41.9315740" lon="1.8649820">
<ele>413.583130</ele>
<time>2022-09-08T09:03:26.997Z</time>
</trkpt>
<trkpt lat="41.9315850" lon="1.8650610">
<ele>413.217346</ele>
<time>2022-09-08T09:03:27.999Z</time>
</trkpt>
<trkpt lat="41.9315970" lon="1.8651050">
<ele>413.095459</ele>
<time>2022-09-08T09:03:29.002Z</time>
</trkpt>
<trkpt lat="41.9316120" lon="1.8651590">
<ele>412.912537</ele>
<time>2022-09-08T09:03:30.004Z</time>
</trkpt>
<trkpt lat="41.9316350" lon="1.8652170">
<ele>412.821136</ele>
<time>2022-09-08T09:03:30.997Z</time>
</trkpt>
<trkpt lat="41.9316570" lon="1.8652560">
<ele>412.821136</ele>
<time>2022-09-08T09:03:32.000Z</time>
</trkpt>
<trkpt lat="41.9316910" lon="1.8653020">
<ele>412.912537</ele>
<time>2022-09-08T09:03:33.002Z</time>
</trkpt>
<trkpt lat="41.9317180" lon="1.8653570">
<ele>413.003998</ele>
<time>2022-09-08T09:03:34.004Z</time>
</trkpt>
<trkpt lat="41.9317270" lon="1.8654090">
<ele>413.034485</ele>
<time>2022-09-08T09:03:34.998Z</time>
</trkpt>
<trkpt lat="41.9317080" lon="1.8654600">
<ele>412.699188</ele>
<time>2022-09-08T09:03:36.000Z</time>
</trkpt>
<trkpt lat="41.9316740" lon="1.8655030">
<ele>412.302948</ele>
<time>2022-09-08T09:03:37.002Z</time>
</trkpt>
<trkpt lat="41.9316330" lon="1.8655540">
<ele>411.815277</ele>
<time>2022-09-08T09:03:37.996Z</time>
</trkpt>
<trkpt lat="41.9316000" lon="1.8656030">
<ele>411.449524</ele>
<time>2022-09-08T09:03:38.998Z</time>
</trkpt>
<trkpt lat="41.9315730" lon="1.8656580">
<ele>411.114258</ele>
<time>2022-09-08T09:03:40.000Z</time>
</trkpt>
<trkpt lat="41.9315520" lon="1.8657130">
<ele>410.870392</ele>
<time>2022-09-08T09:03:41.003Z</time>
</trkpt>
<trkpt lat="41.9315300" lon="1.8657600">
<ele>410.657043</ele>
<time>2022-09-08T09:03:41.996Z</time>
</trkpt>
<trkpt lat="41.9314940" lon="1.8657970">
<ele>410.413208</ele>
<time>2022-09-08T09:03:42.998Z</time>
</trkpt>
<trkpt lat="41.9314450" lon="1.8658360">
<ele>410.138885</ele>
<time>2022-09-08T09:03:44.001Z</time>
</trkpt>
<trkpt lat="41.9313850" lon="1.8658680">
<ele>409.864532</ele>
<time>2022-09-08T09:03:45.003Z</time>
</trkpt>
<trkpt lat="41.9313220" lon="1.8658930">
<ele>409.651215</ele>
<time>2022-09-08T09:03:45.996Z</time>
</trkpt>
<trkpt lat="41.9312730" lon="1.8659170">
<ele>409.498810</ele>
<time>2022-09-08T09:03:46.999Z</time>
</trkpt>
<trkpt lat="41.9312460" lon="1.8659370">
<ele>409.376862</ele>
<time>2022-09-08T09:03:48.001Z</time>
</trkpt>
<trkpt lat="41.9312270" lon="1.8659490">
<ele>409.133057</ele>
<time>2022-09-08T09:03:49.003Z</time>
</trkpt>
<trkpt lat="41.9312040" lon="1.8659600">
<ele>408.858734</ele>
<time>2022-09-08T09:03:49.997Z</time>
</trkpt>
<trkpt lat="41.9311790" lon="1.8659720">
<ele>408.553925</ele>
<time>2022-09-08T09:03:50.999Z</time>
</trkpt>
<trkpt lat="41.9311530" lon="1.8660070">
<ele>408.249115</ele>
<time>2022-09-08T09:03:52.001Z</time>
</trkpt>
<trkpt lat="41.9311310" lon="1.8660570">
<ele>407.974792</ele>
<time>2022-09-08T09:03:53.004Z</time>
</trkpt>
<trkpt lat="41.9311140" lon="1.8660950">
<ele>407.791931</ele>
<time>2022-09-08T09:03:53.997Z</time>
</trkpt>
<trkpt lat="41.9310950" lon="1.8661540">
<ele>407.639526</ele>
<time>2022-09-08T09:03:54.999Z</time>
</trkpt>
<trkpt lat="41.9310810" lon="1.8661990">
<ele>407.578552</ele>
<time>2022-09-08T09:03:56.002Z</time>
</trkpt>
<trkpt lat="41.9310580" lon="1.8662380">
<ele>407.426147</ele>
<time>2022-09-08T09:03:57.004Z</time>
</trkpt>
<trkpt lat="41.9310260" lon="1.8662800">
<ele>407.182343</ele>
<time>2022-09-08T09:03:57.997Z</time>
</trkpt>
<trkpt lat="41.9309940" lon="1.8663170">
<ele>406.938477</ele>
<time>2022-09-08T09:03:59.000Z</time>
</trkpt>
<trkpt lat="41.9309630" lon="1.8663630">
<ele>406.755615</ele>
<time>2022-09-08T09:04:00.002Z</time>
</trkpt>
<trkpt lat="41.9309290" lon="1.8664110">
<ele>406.572723</ele>
<time>2022-09-08T09:04:01.004Z</time>
</trkpt>
<trkpt lat="41.9309040" lon="1.8664370">
<ele>406.450806</ele>
<time>2022-09-08T09:04:01.998Z</time>
</trkpt>
<trkpt lat="41.9308750" lon="1.8664540">
<ele>406.237457</ele>
<time>2022-09-08T09:04:03.000Z</time>
</trkpt>
<trkpt lat="41.9308460" lon="1.8664740">
<ele>406.085052</ele>
<time>2022-09-08T09:04:04.002Z</time>
</trkpt>
<trkpt lat="41.9308210" lon="1.8665090">
<ele>405.993591</ele>
<time>2022-09-08T09:04:04.996Z</time>
</trkpt>
<trkpt lat="41.9308030" lon="1.8665580">
<ele>405.963135</ele>
<time>2022-09-08T09:04:05.998Z</time>
</trkpt>
<trkpt lat="41.9307890" lon="1.8666160">
<ele>406.024078</ele>
<time>2022-09-08T09:04:07.000Z</time>
</trkpt>
<trkpt lat="41.9307790" lon="1.8666870">
<ele>406.115540</ele>
<time>2022-09-08T09:04:08.003Z</time>
</trkpt>
<trkpt lat="41.9307750" lon="1.8667370">
<ele>406.237457</ele>
<time>2022-09-08T09:04:08.996Z</time>
</trkpt>
<trkpt lat="41.9307730" lon="1.8667920">
<ele>406.359344</ele>
<time>2022-09-08T09:04:09.998Z</time>
</trkpt>
<trkpt lat="41.9308020" lon="1.8668280">
<ele>406.755615</ele>
<time>2022-09-08T09:04:11.001Z</time>
</trkpt>
<trkpt lat="41.9308240" lon="1.8668640">
<ele>407.121338</ele>
<time>2022-09-08T09:04:12.003Z</time>
</trkpt>
<trkpt lat="41.9308340" lon="1.8668950">
<ele>407.334717</ele>
<time>2022-09-08T09:04:12.996Z</time>
</trkpt>
<trkpt lat="41.9308410" lon="1.8669200">
<ele>407.456665</ele>
<time>2022-09-08T09:04:13.999Z</time>
</trkpt>
<trkpt lat="41.9308500" lon="1.8669300">
<ele>407.639526</ele>
<time>2022-09-08T09:04:15.001Z</time>
</trkpt>
<trkpt lat="41.9308680" lon="1.8669580">
<ele>407.944336</ele>
<time>2022-09-08T09:04:16.003Z</time>
</trkpt>
<trkpt lat="41.9308890" lon="1.8669770">
<ele>408.340546</ele>
<time>2022-09-08T09:04:16.997Z</time>
</trkpt>
<trkpt lat="41.9309110" lon="1.8669990">
<ele>408.767273</ele>
<time>2022-09-08T09:04:17.999Z</time>
</trkpt>
<trkpt lat="41.9309360" lon="1.8670300">
<ele>409.224487</ele>
<time>2022-09-08T09:04:19.001Z</time>
</trkpt>
<trkpt lat="41.9309500" lon="1.8670590">
<ele>409.529266</ele>
<time>2022-09-08T09:04:20.004Z</time>
</trkpt>
<trkpt lat="41.9309690" lon="1.8670930">
<ele>409.925537</ele>
<time>2022-09-08T09:04:20.997Z</time>
</trkpt>
<trkpt lat="41.9309940" lon="1.8671320">
<ele>410.443665</ele>
<time>2022-09-08T09:04:21.999Z</time>
</trkpt>
<trkpt lat="41.9310130" lon="1.8671750">
<ele>410.870392</ele>
<time>2022-09-08T09:04:23.002Z</time>
</trkpt>
<trkpt lat="41.9310300" lon="1.8672200">
<ele>411.297119</ele>
<time>2022-09-08T09:04:24.004Z</time>
</trkpt>
<trkpt lat="41.9310480" lon="1.8672540">
<ele>411.723846</ele>
<time>2022-09-08T09:04:24.997Z</time>
</trkpt>
<trkpt lat="41.9310630" lon="1.8672880">
<ele>412.089600</ele>
<time>2022-09-08T09:04:26.000Z</time>
</trkpt>
<trkpt lat="41.9310890" lon="1.8673310">
<ele>412.607758</ele>
<time>2022-09-08T09:04:27.002Z</time>
</trkpt>
<trkpt lat="41.9311150" lon="1.8673660">
<ele>413.247864</ele>
<time>2022-09-08T09:04:28.004Z</time>
</trkpt>
<trkpt lat="41.9311270" lon="1.8673970">
<ele>413.491669</ele>
<time>2022-09-08T09:04:28.998Z</time>
</trkpt>
<trkpt lat="41.9311310" lon="1.8674490">
<ele>413.522156</ele>
<time>2022-09-08T09:04:30.000Z</time>
</trkpt>
<trkpt lat="41.9311340" lon="1.8675150">
<ele>413.491669</ele>
<time>2022-09-08T09:04:31.002Z</time>
</trkpt>
<trkpt lat="41.9311380" lon="1.8675830">
<ele>413.430725</ele>
<time>2022-09-08T09:04:31.996Z</time>
</trkpt>
<trkpt lat="41.9311520" lon="1.8676450">
<ele>413.613586</ele>
<time>2022-09-08T09:04:32.998Z</time>
</trkpt>
<trkpt lat="41.9311690" lon="1.8676980">
<ele>413.826935</ele>
<time>2022-09-08T09:04:34.000Z</time>
</trkpt>
<trkpt lat="41.9311780" lon="1.8677720">
<ele>413.796478</ele>
<time>2022-09-08T09:04:35.003Z</time>
</trkpt>
<trkpt lat="41.9311830" lon="1.8678340">
<ele>413.583130</ele>
<time>2022-09-08T09:04:35.996Z</time>
</trkpt>
<trkpt lat="41.9311890" lon="1.8678840">
<ele>413.522156</ele>
<time>2022-09-08T09:04:36.998Z</time>
</trkpt>
<trkpt lat="41.9311910" lon="1.8679180">
<ele>413.308807</ele>
<time>2022-09-08T09:04:38.001Z</time>
</trkpt>
<trkpt lat="41.9311940" lon="1.8679460">
<ele>413.247864</ele>
<time>2022-09-08T09:04:39.003Z</time>
</trkpt>
<trkpt lat="41.9312080" lon="1.8679710">
<ele>413.522156</ele>
<time>2022-09-08T09:04:39.996Z</time>
</trkpt>
<trkpt lat="41.9312480" lon="1.8680170">
<ele>414.314667</ele>
<time>2022-09-08T09:04:40.999Z</time>
</trkpt>
<trkpt lat="41.9312720" lon="1.8680810">
<ele>414.406067</ele>
<time>2022-09-08T09:04:42.001Z</time>
</trkpt>
<trkpt lat="41.9313040" lon="1.8681520">
<ele>414.588959</ele>
<time>2022-09-08T09:04:43.003Z</time>
</trkpt>
<trkpt lat="41.9313460" lon="1.8682110">
<ele>414.954742</ele>
<time>2022-09-08T09:04:43.997Z</time>
</trkpt>
<trkpt lat="41.9313670" lon="1.8682490">
<ele>415.015686</ele>
<time>2022-09-08T09:04:44.999Z</time>
</trkpt>
<trkpt lat="41.9313910" lon="1.8682820">
<ele>415.229065</ele>
<time>2022-09-08T09:04:46.001Z</time>
</trkpt>
<trkpt lat="41.9314110" lon="1.8683330">
<ele>415.168060</ele>
<time>2022-09-08T09:04:47.004Z</time>
</trkpt>
<trkpt lat="41.9314280" lon="1.8684180">
<ele>414.710876</ele>
<time>2022-09-08T09:04:47.997Z</time>
</trkpt>
<trkpt lat="41.9314480" lon="1.8684970">
<ele>414.436554</ele>
<time>2022-09-08T09:04:48.999Z</time>
</trkpt>
<trkpt lat="41.9314610" lon="1.8685880">
<ele>413.918396</ele>
<time>2022-09-08T09:04:50.002Z</time>
</trkpt>
<trkpt lat="41.9314680" lon="1.8686840">
<ele>413.339264</ele>
<time>2022-09-08T09:04:51.004Z</time>
</trkpt>
<trkpt lat="41.9314660" lon="1.8687560">
<ele>412.851593</ele>
<time>2022-09-08T09:04:51.997Z</time>
</trkpt>
<trkpt lat="41.9314520" lon="1.8688560">
<ele>412.242004</ele>
<time>2022-09-08T09:04:53.000Z</time>
</trkpt>
<trkpt lat="41.9314330" lon="1.8689130">
<ele>411.845734</ele>
<time>2022-09-08T09:04:54.002Z</time>
</trkpt>
<trkpt lat="41.9313880" lon="1.8690020">
<ele>411.175201</ele>
<time>2022-09-08T09:04:55.004Z</time>
</trkpt>
<trkpt lat="41.9313920" lon="1.8690730">
<ele>411.144714</ele>
<time>2022-09-08T09:04:55.998Z</time>
</trkpt>
<trkpt lat="41.9314110" lon="1.8691220">
<ele>411.297119</ele>
<time>2022-09-08T09:04:57.000Z</time>
</trkpt>
<trkpt lat="41.9314290" lon="1.8691870">
<ele>411.419067</ele>
<time>2022-09-08T09:04:58.002Z</time>
</trkpt>
<trkpt lat="41.9314390" lon="1.8692640">
<ele>411.449524</ele>
<time>2022-09-08T09:04:58.996Z</time>
</trkpt>
<trkpt lat="41.9314310" lon="1.8693420">
<ele>411.358063</ele>
<time>2022-09-08T09:04:59.998Z</time>
</trkpt>
<trkpt lat="41.9314120" lon="1.8694210">
<ele>411.175201</ele>
<time>2022-09-08T09:05:01.000Z</time>
</trkpt>
<trkpt lat="41.9313830" lon="1.8695000">
<ele>410.931335</ele>
<time>2022-09-08T09:05:02.003Z</time>
</trkpt>
<trkpt lat="41.9313440" lon="1.8695720">
<ele>410.626556</ele>
<time>2022-09-08T09:05:02.996Z</time>
</trkpt>
<trkpt lat="41.9313090" lon="1.8696450">
<ele>410.535126</ele>
<time>2022-09-08T09:05:03.998Z</time>
</trkpt>
<trkpt lat="41.9312860" lon="1.8697240">
<ele>410.596069</ele>
<time>2022-09-08T09:05:05.001Z</time>
</trkpt>
<trkpt lat="41.9312700" lon="1.8698110">
<ele>410.717987</ele>
<time>2022-09-08T09:05:06.003Z</time>
</trkpt>
<trkpt lat="41.9312740" lon="1.8699090">
<ele>410.900879</ele>
<time>2022-09-08T09:05:06.996Z</time>
</trkpt>
<trkpt lat="41.9312900" lon="1.8700050">
<ele>411.022797</ele>
<time>2022-09-08T09:05:07.999Z</time>
</trkpt>
<trkpt lat="41.9313190" lon="1.8700850">
<ele>411.083740</ele>
<time>2022-09-08T09:05:09.001Z</time>
</trkpt>
<trkpt lat="41.9313660" lon="1.8701740">
<ele>410.992340</ele>
<time>2022-09-08T09:05:10.003Z</time>
</trkpt>
<trkpt lat="41.9313980" lon="1.8702360">
<ele>410.778931</ele>
<time>2022-09-08T09:05:10.997Z</time>
</trkpt>
<trkpt lat="41.9314330" lon="1.8703160">
<ele>410.321747</ele>
<time>2022-09-08T09:05:11.999Z</time>
</trkpt>
<trkpt lat="41.9314590" lon="1.8704260">
<ele>409.133057</ele>
<time>2022-09-08T09:05:13.001Z</time>
</trkpt>
<trkpt lat="41.9314690" lon="1.8705280">
<ele>408.035736</ele>
<time>2022-09-08T09:05:14.004Z</time>
</trkpt>
<trkpt lat="41.9314780" lon="1.8706080">
<ele>407.060394</ele>
<time>2022-09-08T09:05:14.997Z</time>
</trkpt>
<trkpt lat="41.9314960" lon="1.8707000">
<ele>405.871674</ele>
<time>2022-09-08T09:05:15.999Z</time>
</trkpt>
<trkpt lat="41.9315190" lon="1.8707750">
<ele>404.835358</ele>
<time>2022-09-08T09:05:17.002Z</time>
</trkpt>
<trkpt lat="41.9315480" lon="1.8708370">
<ele>403.951447</ele>
<time>2022-09-08T09:05:18.004Z</time>
</trkpt>
<trkpt lat="41.9315810" lon="1.8708860">
<ele>403.250397</ele>
<time>2022-09-08T09:05:18.997Z</time>
</trkpt>
<trkpt lat="41.9316190" lon="1.8709120">
<ele>402.945587</ele>
<time>2022-09-08T09:05:20.000Z</time>
</trkpt>
<trkpt lat="41.9316580" lon="1.8709170">
<ele>402.976074</ele>
<time>2022-09-08T09:05:21.002Z</time>
</trkpt>
<trkpt lat="41.9316960" lon="1.8709020">
<ele>403.341858</ele>
<time>2022-09-08T09:05:22.004Z</time>
</trkpt>
<trkpt lat="41.9317300" lon="1.8708730">
<ele>403.890472</ele>
<time>2022-09-08T09:05:22.998Z</time>
</trkpt>
<trkpt lat="41.9317630" lon="1.8708400">
<ele>404.530548</ele>
<time>2022-09-08T09:05:24.000Z</time>
</trkpt>
<trkpt lat="41.9317950" lon="1.8708090">
<ele>405.048737</ele>
<time>2022-09-08T09:05:25.002Z</time>
</trkpt>
<trkpt lat="41.9318320" lon="1.8707760">
<ele>405.597351</ele>
<time>2022-09-08T09:05:25.996Z</time>
</trkpt>
<trkpt lat="41.9318700" lon="1.8707420">
<ele>406.145996</ele>
<time>2022-09-08T09:05:26.998Z</time>
</trkpt>
<trkpt lat="41.9319190" lon="1.8707040">
<ele>406.694641</ele>
<time>2022-09-08T09:05:28.000Z</time>
</trkpt>
<trkpt lat="41.9319550" lon="1.8706780">
<ele>407.060394</ele>
<time>2022-09-08T09:05:29.003Z</time>
</trkpt>
<trkpt lat="41.9319990" lon="1.8706480">
<ele>407.426147</ele>
<time>2022-09-08T09:05:29.996Z</time>
</trkpt>
<trkpt lat="41.9320470" lon="1.8706160">
<ele>407.791931</ele>
<time>2022-09-08T09:05:30.998Z</time>
</trkpt>
<trkpt lat="41.9320940" lon="1.8705870">
<ele>408.127197</ele>
<time>2022-09-08T09:05:32.001Z</time>
</trkpt>
<trkpt lat="41.9321460" lon="1.8705600">
<ele>408.553925</ele>
<time>2022-09-08T09:05:33.003Z</time>
</trkpt>
<trkpt lat="41.9322040" lon="1.8705260">
<ele>409.133057</ele>
<time>2022-09-08T09:05:33.996Z</time>
</trkpt>
<trkpt lat="41.9322590" lon="1.8705020">
<ele>409.529266</ele>
<time>2022-09-08T09:05:34.999Z</time>
</trkpt>
<trkpt lat="41.9323160" lon="1.8704750">
<ele>410.047455</ele>
<time>2022-09-08T09:05:36.001Z</time>
</trkpt>
<trkpt lat="41.9323810" lon="1.8704450">
<ele>410.657043</ele>
<time>2022-09-08T09:05:37.003Z</time>
</trkpt>
<trkpt lat="41.9324240" lon="1.8704230">
<ele>411.144714</ele>
<time>2022-09-08T09:05:37.997Z</time>
</trkpt>
<trkpt lat="41.9324780" lon="1.8703880">
<ele>411.998138</ele>
<time>2022-09-08T09:05:38.999Z</time>
</trkpt>
<trkpt lat="41.9325280" lon="1.8703500">
<ele>412.943054</ele>
<time>2022-09-08T09:05:40.001Z</time>
</trkpt>
<trkpt lat="41.9325740" lon="1.8703120">
<ele>413.887939</ele>
<time>2022-09-08T09:05:41.004Z</time>
</trkpt>
<trkpt lat="41.9326200" lon="1.8702740">
<ele>414.863281</ele>
<time>2022-09-08T09:05:41.997Z</time>
</trkpt>
<trkpt lat="41.9326690" lon="1.8702370">
<ele>415.777679</ele>
<time>2022-09-08T09:05:42.999Z</time>
</trkpt>
<trkpt lat="41.9327180" lon="1.8702000">
<ele>416.661591</ele>
<time>2022-09-08T09:05:44.002Z</time>
</trkpt>
<trkpt lat="41.9327640" lon="1.8701680">
<ele>417.423615</ele>
<time>2022-09-08T09:05:45.004Z</time>
</trkpt>
<trkpt lat="41.9328080" lon="1.8701390">
<ele>418.063660</ele>
<time>2022-09-08T09:05:45.997Z</time>
</trkpt>
<trkpt lat="41.9328570" lon="1.8701090">
<ele>418.673279</ele>
<time>2022-09-08T09:05:47.000Z</time>
</trkpt>
<trkpt lat="41.9329060" lon="1.8700850">
<ele>419.069519</ele>
<time>2022-09-08T09:05:48.002Z</time>
</trkpt>
<trkpt lat="41.9329490" lon="1.8700630">
<ele>419.465759</ele>
<time>2022-09-08T09:05:49.004Z</time>
</trkpt>
<trkpt lat="41.9329970" lon="1.8700430">
<ele>419.770538</ele>
<time>2022-09-08T09:05:49.998Z</time>
</trkpt>
<trkpt lat="41.9330400" lon="1.8700200">
<ele>420.166809</ele>
<time>2022-09-08T09:05:51.000Z</time>
</trkpt>
<trkpt lat="41.9330810" lon="1.8699950">
<ele>420.593536</ele>
<time>2022-09-08T09:05:52.002Z</time>
</trkpt>
<trkpt lat="41.9331230" lon="1.8699730">
<ele>420.898315</ele>
<time>2022-09-08T09:05:52.996Z</time>
</trkpt>
<trkpt lat="41.9331660" lon="1.8699480">
<ele>421.233612</ele>
<time>2022-09-08T09:05:53.998Z</time>
</trkpt>
<trkpt lat="41.9332170" lon="1.8699180">
<ele>421.629852</ele>
<time>2022-09-08T09:05:55.000Z</time>
</trkpt>
<trkpt lat="41.9332690" lon="1.8698930">
<ele>421.812714</ele>
<time>2022-09-08T09:05:56.003Z</time>
</trkpt>
<trkpt lat="41.9333200" lon="1.8698700">
<ele>421.965118</ele>
<time>2022-09-08T09:05:56.996Z</time>
</trkpt>
<trkpt lat="41.9333680" lon="1.8698580">
<ele>421.721283</ele>
<time>2022-09-08T09:05:57.998Z</time>
</trkpt>
<trkpt lat="41.9334190" lon="1.8698620">
<ele>421.020264</ele>
<time>2022-09-08T09:05:59.001Z</time>
</trkpt>
<trkpt lat="41.9334750" lon="1.8698670">
<ele>420.136322</ele>
<time>2022-09-08T09:06:00.003Z</time>
</trkpt>
<trkpt lat="41.9335310" lon="1.8698540">
<ele>419.740082</ele>
<time>2022-09-08T09:06:00.996Z</time>
</trkpt>
<trkpt lat="41.9335900" lon="1.8698320">
<ele>419.618134</ele>
<time>2022-09-08T09:06:01.999Z</time>
</trkpt>
<trkpt lat="41.9336520" lon="1.8698140">
<ele>419.343842</ele>
<time>2022-09-08T09:06:03.001Z</time>
</trkpt>
<trkpt lat="41.9337200" lon="1.8698120">
<ele>418.459930</ele>
<time>2022-09-08T09:06:04.003Z</time>
</trkpt>
<trkpt lat="41.9337810" lon="1.8698200">
<ele>417.575989</ele>
<time>2022-09-08T09:06:04.997Z</time>
</trkpt>
<trkpt lat="41.9338440" lon="1.8698240">
<ele>416.996887</ele>
<time>2022-09-08T09:06:05.999Z</time>
</trkpt>
<trkpt lat="41.9339110" lon="1.8698240">
<ele>416.631134</ele>
<time>2022-09-08T09:06:07.001Z</time>
</trkpt>
<trkpt lat="41.9339910" lon="1.8698480">
<ele>415.472870</ele>
<time>2022-09-08T09:06:08.004Z</time>
</trkpt>
<trkpt lat="41.9340650" lon="1.8698870">
<ele>413.948883</ele>
<time>2022-09-08T09:06:08.997Z</time>
</trkpt>
<trkpt lat="41.9341300" lon="1.8699200">
<ele>412.668732</ele>
<time>2022-09-08T09:06:09.999Z</time>
</trkpt>
<trkpt lat="41.9341890" lon="1.8699400">
<ele>411.845734</ele>
<time>2022-09-08T09:06:11.002Z</time>
</trkpt>
<trkpt lat="41.9342420" lon="1.8699630">
<ele>410.931335</ele>
<time>2022-09-08T09:06:12.004Z</time>
</trkpt>
<trkpt lat="41.9342900" lon="1.8699950">
<ele>409.803589</ele>
<time>2022-09-08T09:06:12.997Z</time>
</trkpt>
<trkpt lat="41.9343370" lon="1.8700250">
<ele>408.767273</ele>
<time>2022-09-08T09:06:14.000Z</time>
</trkpt>
<trkpt lat="41.9343860" lon="1.8700510">
<ele>407.791931</ele>
<time>2022-09-08T09:06:15.002Z</time>
</trkpt>
<trkpt lat="41.9344310" lon="1.8700660">
<ele>407.151855</ele>
<time>2022-09-08T09:06:16.004Z</time>
</trkpt>
<trkpt lat="41.9344740" lon="1.8700870">
<ele>406.298401</ele>
<time>2022-09-08T09:06:16.998Z</time>
</trkpt>
<trkpt lat="41.9345310" lon="1.8701290">
<ele>404.865845</ele>
<time>2022-09-08T09:06:18.000Z</time>
</trkpt>
<trkpt lat="41.9345840" lon="1.8701560">
<ele>403.799042</ele>
<time>2022-09-08T09:06:19.002Z</time>
</trkpt>
<trkpt lat="41.9346120" lon="1.8701750">
<ele>403.158936</ele>
<time>2022-09-08T09:06:19.996Z</time>
</trkpt>
<trkpt lat="41.9346640" lon="1.8701850">
<ele>402.488403</ele>
<time>2022-09-08T09:06:20.998Z</time>
</trkpt>
<trkpt lat="41.9347190" lon="1.8701730">
<ele>402.183594</ele>
<time>2022-09-08T09:06:22.000Z</time>
</trkpt>
<trkpt lat="41.9347590" lon="1.8701190">
<ele>402.701752</ele>
<time>2022-09-08T09:06:23.003Z</time>
</trkpt>
<trkpt lat="41.9347910" lon="1.8700500">
<ele>403.524719</ele>
<time>2022-09-08T09:06:23.996Z</time>
</trkpt>
<trkpt lat="41.9348320" lon="1.8699590">
<ele>404.561066</ele>
<time>2022-09-08T09:06:24.998Z</time>
</trkpt>
<trkpt lat="41.9348910" lon="1.8698570">
<ele>405.444946</ele>
<time>2022-09-08T09:06:26.001Z</time>
</trkpt>
<trkpt lat="41.9349600" lon="1.8697650">
<ele>405.810730</ele>
<time>2022-09-08T09:06:27.003Z</time>
</trkpt>
<trkpt lat="41.9350310" lon="1.8696860">
<ele>405.658325</ele>
<time>2022-09-08T09:06:27.996Z</time>
</trkpt>
<trkpt lat="41.9351090" lon="1.8696370">
<ele>404.774414</ele>
<time>2022-09-08T09:06:28.999Z</time>
</trkpt>
<trkpt lat="41.9351930" lon="1.8696090">
<ele>403.341858</ele>
<time>2022-09-08T09:06:30.001Z</time>
</trkpt>
<trkpt lat="41.9352680" lon="1.8695900">
<ele>401.939758</ele>
<time>2022-09-08T09:06:31.003Z</time>
</trkpt>
<trkpt lat="41.9353210" lon="1.8695870">
<ele>400.872955</ele>
<time>2022-09-08T09:06:31.997Z</time>
</trkpt>
<trkpt lat="41.9353690" lon="1.8695790">
<ele>400.019531</ele>
<time>2022-09-08T09:06:32.999Z</time>
</trkpt>
<trkpt lat="41.9353880" lon="1.8695840">
<ele>399.592804</ele>
<time>2022-09-08T09:06:34.001Z</time>
</trkpt>
<trkpt lat="41.9354000" lon="1.8696010">
<ele>399.257538</ele>
<time>2022-09-08T09:06:35.004Z</time>
</trkpt>
<trkpt lat="41.9354120" lon="1.8696180">
<ele>398.830811</ele>
<time>2022-09-08T09:06:35.997Z</time>
</trkpt>
<trkpt lat="41.9354240" lon="1.8696340">
<ele>398.465057</ele>
<time>2022-09-08T09:06:36.999Z</time>
</trkpt>
<trkpt lat="41.9354470" lon="1.8696500">
<ele>397.824951</ele>
<time>2022-09-08T09:06:38.002Z</time>
</trkpt>
<trkpt lat="41.9354680" lon="1.8696680">
<ele>397.276337</ele>
<time>2022-09-08T09:06:39.004Z</time>
</trkpt>
<trkpt lat="41.9354910" lon="1.8696910">
<ele>396.636261</ele>
<time>2022-09-08T09:06:39.997Z</time>
</trkpt>
<trkpt lat="41.9355110" lon="1.8697140">
<ele>396.026642</ele>
<time>2022-09-08T09:06:41.000Z</time>
</trkpt>
<trkpt lat="41.9355300" lon="1.8697410">
<ele>395.508484</ele>
<time>2022-09-08T09:06:42.002Z</time>
</trkpt>
<trkpt lat="41.9355520" lon="1.8697690">
<ele>394.990326</ele>
<time>2022-09-08T09:06:43.004Z</time>
</trkpt>
<trkpt lat="41.9355720" lon="1.8698010">
<ele>394.411194</ele>
<time>2022-09-08T09:06:43.998Z</time>
</trkpt>
<trkpt lat="41.9355880" lon="1.8698350">
<ele>393.954010</ele>
<time>2022-09-08T09:06:45.000Z</time>
</trkpt>
<trkpt lat="41.9355960" lon="1.8698740">
<ele>393.649200</ele>
<time>2022-09-08T09:06:46.002Z</time>
</trkpt>
<trkpt lat="41.9356030" lon="1.8699110">
<ele>393.374878</ele>
<time>2022-09-08T09:06:46.996Z</time>
</trkpt>
<trkpt lat="41.9356070" lon="1.8699490">
<ele>393.161530</ele>
<time>2022-09-08T09:06:47.998Z</time>
</trkpt>
<trkpt lat="41.9356140" lon="1.8699840">
<ele>392.887207</ele>
<time>2022-09-08T09:06:49.000Z</time>
</trkpt>
<trkpt lat="41.9356250" lon="1.8700170">
<ele>392.643341</ele>
<time>2022-09-08T09:06:50.003Z</time>
</trkpt>
<trkpt lat="41.9356470" lon="1.8700440">
<ele>392.247131</ele>
<time>2022-09-08T09:06:50.996Z</time>
</trkpt>
<trkpt lat="41.9356700" lon="1.8700630">
<ele>391.850861</ele>
<time>2022-09-08T09:06:51.998Z</time>
</trkpt>
<trkpt lat="41.9356940" lon="1.8700770">
<ele>391.485138</ele>
<time>2022-09-08T09:06:53.001Z</time>
</trkpt>
<trkpt lat="41.9357230" lon="1.8700790">
<ele>391.149841</ele>
<time>2022-09-08T09:06:54.003Z</time>
</trkpt>
<trkpt lat="41.9357500" lon="1.8700640">
<ele>390.875519</ele>
<time>2022-09-08T09:06:54.996Z</time>
</trkpt>
<trkpt lat="41.9357750" lon="1.8700410">
<ele>390.601196</ele>
<time>2022-09-08T09:06:55.999Z</time>
</trkpt>
<trkpt lat="41.9358020" lon="1.8700170">
<ele>390.357330</ele>
<time>2022-09-08T09:06:57.001Z</time>
</trkpt>
<trkpt lat="41.9358280" lon="1.8699940">
<ele>390.144012</ele>
<time>2022-09-08T09:06:58.003Z</time>
</trkpt>
<trkpt lat="41.9358570" lon="1.8699730">
<ele>389.900146</ele>
<time>2022-09-08T09:06:58.997Z</time>
</trkpt>
<trkpt lat="41.9358830" lon="1.8699480">
<ele>389.717285</ele>
<time>2022-09-08T09:06:59.999Z</time>
</trkpt>
<trkpt lat="41.9359060" lon="1.8699180">
<ele>389.595337</ele>
<time>2022-09-08T09:07:01.001Z</time>
</trkpt>
<trkpt lat="41.9359270" lon="1.8698900">
<ele>389.442932</ele>
<time>2022-09-08T09:07:02.004Z</time>
</trkpt>
<trkpt lat="41.9359430" lon="1.8698580">
<ele>389.412476</ele>
<time>2022-09-08T09:07:02.997Z</time>
</trkpt>
<trkpt lat="41.9359550" lon="1.8698200">
<ele>389.412476</ele>
<time>2022-09-08T09:07:03.999Z</time>
</trkpt>
<trkpt lat="41.9359720" lon="1.8697770">
<ele>389.412476</ele>
<time>2022-09-08T09:07:05.002Z</time>
</trkpt>
<trkpt lat="41.9359950" lon="1.8697320">
<ele>389.351532</ele>
<time>2022-09-08T09:07:06.004Z</time>
</trkpt>
<trkpt lat="41.9360220" lon="1.8696940">
<ele>389.321045</ele>
<time>2022-09-08T09:07:06.997Z</time>
</trkpt>
<trkpt lat="41.9360480" lon="1.8696570">
<ele>389.321045</ele>
<time>2022-09-08T09:07:08.000Z</time>
</trkpt>
<trkpt lat="41.9360720" lon="1.8696180">
<ele>389.351532</ele>
<time>2022-09-08T09:07:09.002Z</time>
</trkpt>
<trkpt lat="41.9360940" lon="1.8695760">
<ele>389.442932</ele>
<time>2022-09-08T09:07:10.004Z</time>
</trkpt>
<trkpt lat="41.9361130" lon="1.8695300">
<ele>389.473450</ele>
<time>2022-09-08T09:07:10.998Z</time>
</trkpt>
<trkpt lat="41.9361210" lon="1.8694820">
<ele>389.564880</ele>
<time>2022-09-08T09:07:12.000Z</time>
</trkpt>
<trkpt lat="41.9361160" lon="1.8694370">
<ele>389.595337</ele>
<time>2022-09-08T09:07:13.002Z</time>
</trkpt>
<trkpt lat="41.9361140" lon="1.8693980">
<ele>389.656342</ele>
<time>2022-09-08T09:07:13.996Z</time>
</trkpt>
<trkpt lat="41.9361100" lon="1.8693580">
<ele>389.717285</ele>
<time>2022-09-08T09:07:14.998Z</time>
</trkpt>
<trkpt lat="41.9361030" lon="1.8693170">
<ele>389.778259</ele>
<time>2022-09-08T09:07:16.000Z</time>
</trkpt>
<trkpt lat="41.9360970" lon="1.8692750">
<ele>389.869659</ele>
<time>2022-09-08T09:07:17.003Z</time>
</trkpt>
<trkpt lat="41.9360930" lon="1.8692300">
<ele>389.961121</ele>
<time>2022-09-08T09:07:17.996Z</time>
</trkpt>
<trkpt lat="41.9360850" lon="1.8691770">
<ele>390.052551</ele>
<time>2022-09-08T09:07:18.998Z</time>
</trkpt>
<trkpt lat="41.9360790" lon="1.8691150">
<ele>390.204956</ele>
<time>2022-09-08T09:07:20.001Z</time>
</trkpt>
<trkpt lat="41.9360690" lon="1.8690580">
<ele>390.326874</ele>
<time>2022-09-08T09:07:21.003Z</time>
</trkpt>
<trkpt lat="41.9360610" lon="1.8690170">
<ele>390.448792</ele>
<time>2022-09-08T09:07:21.996Z</time>
</trkpt>
<trkpt lat="41.9360510" lon="1.8689810">
<ele>390.540253</ele>
<time>2022-09-08T09:07:22.999Z</time>
</trkpt>
<trkpt lat="41.9360460" lon="1.8689450">
<ele>390.631683</ele>
<time>2022-09-08T09:07:24.001Z</time>
</trkpt>
<trkpt lat="41.9360440" lon="1.8689070">
<ele>390.753601</ele>
<time>2022-09-08T09:07:25.003Z</time>
</trkpt>
<trkpt lat="41.9360300" lon="1.8688530">
<ele>390.906006</ele>
<time>2022-09-08T09:07:25.997Z</time>
</trkpt>
<trkpt lat="41.9360160" lon="1.8688020">
<ele>391.058411</ele>
<time>2022-09-08T09:07:26.999Z</time>
</trkpt>
<trkpt lat="41.9359980" lon="1.8687530">
<ele>391.241272</ele>
<time>2022-09-08T09:07:28.001Z</time>
</trkpt>
<trkpt lat="41.9359700" lon="1.8686980">
<ele>391.454651</ele>
<time>2022-09-08T09:07:29.004Z</time>
</trkpt>
<trkpt lat="41.9359390" lon="1.8686400">
<ele>391.698486</ele>
<time>2022-09-08T09:07:29.997Z</time>
</trkpt>
<trkpt lat="41.9359110" lon="1.8685850">
<ele>391.942322</ele>
<time>2022-09-08T09:07:30.999Z</time>
</trkpt>
<trkpt lat="41.9358800" lon="1.8685120">
<ele>392.247131</ele>
<time>2022-09-08T09:07:32.002Z</time>
</trkpt>
<trkpt lat="41.9358540" lon="1.8684220">
<ele>392.551941</ele>
<time>2022-09-08T09:07:33.004Z</time>
</trkpt>
<trkpt lat="41.9358170" lon="1.8683480">
<ele>392.856720</ele>
<time>2022-09-08T09:07:33.997Z</time>
</trkpt>
<trkpt lat="41.9357770" lon="1.8682800">
<ele>393.222473</ele>
<time>2022-09-08T09:07:35.000Z</time>
</trkpt>
<trkpt lat="41.9357450" lon="1.8682070">
<ele>393.496796</ele>
<time>2022-09-08T09:07:36.002Z</time>
</trkpt>
<trkpt lat="41.9357210" lon="1.8681430">
<ele>393.679688</ele>
<time>2022-09-08T09:07:37.004Z</time>
</trkpt>
<trkpt lat="41.9356990" lon="1.8680660">
<ele>393.893066</ele>
<time>2022-09-08T09:07:37.998Z</time>
</trkpt>
<trkpt lat="41.9356760" lon="1.8680000">
<ele>394.136871</ele>
<time>2022-09-08T09:07:39.000Z</time>
</trkpt>
<trkpt lat="41.9356520" lon="1.8679410">
<ele>394.380737</ele>
<time>2022-09-08T09:07:40.002Z</time>
</trkpt>
<trkpt lat="41.9356140" lon="1.8678750">
<ele>394.868408</ele>
<time>2022-09-08T09:07:40.996Z</time>
</trkpt>
<trkpt lat="41.9355950" lon="1.8678280">
<ele>395.112244</ele>
<time>2022-09-08T09:07:41.998Z</time>
</trkpt>
<trkpt lat="41.9355700" lon="1.8677570">
<ele>395.508484</ele>
<time>2022-09-08T09:07:43.000Z</time>
</trkpt>
<trkpt lat="41.9355570" lon="1.8677180">
<ele>395.721863</ele>
<time>2022-09-08T09:07:44.003Z</time>
</trkpt>
<trkpt lat="41.9355480" lon="1.8676840">
<ele>395.935211</ele>
<time>2022-09-08T09:07:44.996Z</time>
</trkpt>
<trkpt lat="41.9355410" lon="1.8676380">
<ele>396.087585</ele>
<time>2022-09-08T09:07:45.998Z</time>
</trkpt>
<trkpt lat="41.9355450" lon="1.8675900">
<ele>395.904724</ele>
<time>2022-09-08T09:07:47.001Z</time>
</trkpt>
<trkpt lat="41.9355630" lon="1.8675330">
<ele>395.599915</ele>
<time>2022-09-08T09:07:48.003Z</time>
</trkpt>
<trkpt lat="41.9355560" lon="1.8674730">
<ele>395.813263</ele>
<time>2022-09-08T09:07:48.996Z</time>
</trkpt>
<trkpt lat="41.9355600" lon="1.8674290">
<ele>395.813263</ele>
<time>2022-09-08T09:07:49.999Z</time>
</trkpt>
<trkpt lat="41.9355700" lon="1.8673900">
<ele>395.630402</ele>
<time>2022-09-08T09:07:51.001Z</time>
</trkpt>
<trkpt lat="41.9355870" lon="1.8673520">
<ele>395.295135</ele>
<time>2022-09-08T09:07:52.003Z</time>
</trkpt>
<trkpt lat="41.9356100" lon="1.8673260">
<ele>394.898865</ele>
<time>2022-09-08T09:07:52.997Z</time>
</trkpt>
<trkpt lat="41.9356450" lon="1.8673070">
<ele>394.319733</ele>
<time>2022-09-08T09:07:53.999Z</time>
</trkpt>
<trkpt lat="41.9356800" lon="1.8672990">
<ele>393.771118</ele>
<time>2022-09-08T09:07:55.001Z</time>
</trkpt>
<trkpt lat="41.9357110" lon="1.8672970">
<ele>393.374878</ele>
<time>2022-09-08T09:07:56.004Z</time>
</trkpt>
<trkpt lat="41.9357530" lon="1.8672790">
<ele>392.917664</ele>
<time>2022-09-08T09:07:56.997Z</time>
</trkpt>
<trkpt lat="41.9357930" lon="1.8672660">
<ele>392.582397</ele>
<time>2022-09-08T09:07:57.999Z</time>
</trkpt>
<trkpt lat="41.9358240" lon="1.8672480">
<ele>392.399536</ele>
<time>2022-09-08T09:07:59.002Z</time>
</trkpt>
<trkpt lat="41.9358600" lon="1.8672220">
<ele>392.277588</ele>
<time>2022-09-08T09:08:00.004Z</time>
</trkpt>
<trkpt lat="41.9359130" lon="1.8672010">
<ele>392.125214</ele>
<time>2022-09-08T09:08:00.997Z</time>
</trkpt>
<trkpt lat="41.9359710" lon="1.8671820">
<ele>392.094727</ele>
<time>2022-09-08T09:08:02.000Z</time>
</trkpt>
<trkpt lat="41.9360090" lon="1.8671710">
<ele>392.125214</ele>
<time>2022-09-08T09:08:03.002Z</time>
</trkpt>
<trkpt lat="41.9360440" lon="1.8671580">
<ele>392.186157</ele>
<time>2022-09-08T09:08:04.004Z</time>
</trkpt>
<trkpt lat="41.9360840" lon="1.8671420">
<ele>392.308075</ele>
<time>2022-09-08T09:08:04.998Z</time>
</trkpt>
<trkpt lat="41.9361290" lon="1.8671200">
<ele>392.490936</ele>
<time>2022-09-08T09:08:06.000Z</time>
</trkpt>
<trkpt lat="41.9361590" lon="1.8671120">
<ele>392.582397</ele>
<time>2022-09-08T09:08:07.002Z</time>
</trkpt>
<trkpt lat="41.9361940" lon="1.8671040">
<ele>392.765259</ele>
<time>2022-09-08T09:08:07.996Z</time>
</trkpt>
<trkpt lat="41.9362270" lon="1.8671020">
<ele>392.887207</ele>
<time>2022-09-08T09:08:08.998Z</time>
</trkpt>
<trkpt lat="41.9362590" lon="1.8671020">
<ele>392.948151</ele>
<time>2022-09-08T09:08:10.000Z</time>
</trkpt>
<trkpt lat="41.9362850" lon="1.8670930">
<ele>392.826263</ele>
<time>2022-09-08T09:08:11.003Z</time>
</trkpt>
<trkpt lat="41.9363060" lon="1.8670820">
<ele>392.765259</ele>
<time>2022-09-08T09:08:11.996Z</time>
</trkpt>
<trkpt lat="41.9363220" lon="1.8670680">
<ele>392.704315</ele>
<time>2022-09-08T09:08:12.998Z</time>
</trkpt>
<trkpt lat="41.9363400" lon="1.8670510">
<ele>392.643341</ele>
<time>2022-09-08T09:08:14.001Z</time>
</trkpt>
<trkpt lat="41.9363610" lon="1.8670290">
<ele>392.612885</ele>
<time>2022-09-08T09:08:15.003Z</time>
</trkpt>
<trkpt lat="41.9363850" lon="1.8669940">
<ele>392.582397</ele>
<time>2022-09-08T09:08:15.996Z</time>
</trkpt>
<trkpt lat="41.9364110" lon="1.8669350">
<ele>392.704315</ele>
<time>2022-09-08T09:08:16.999Z</time>
</trkpt>
<trkpt lat="41.9364260" lon="1.8668880">
<ele>392.856720</ele>
<time>2022-09-08T09:08:18.001Z</time>
</trkpt>
<trkpt lat="41.9364460" lon="1.8668340">
<ele>393.131042</ele>
<time>2022-09-08T09:08:19.003Z</time>
</trkpt>
<trkpt lat="41.9364750" lon="1.8667850">
<ele>393.435852</ele>
<time>2022-09-08T09:08:19.997Z</time>
</trkpt>
<trkpt lat="41.9365140" lon="1.8667510">
<ele>393.679688</ele>
<time>2022-09-08T09:08:20.999Z</time>
</trkpt>
<trkpt lat="41.9365590" lon="1.8667360">
<ele>393.771118</ele>
<time>2022-09-08T09:08:22.001Z</time>
</trkpt>
<trkpt lat="41.9366030" lon="1.8667370">
<ele>393.801605</ele>
<time>2022-09-08T09:08:23.004Z</time>
</trkpt>
<trkpt lat="41.9366450" lon="1.8667390">
<ele>393.801605</ele>
<time>2022-09-08T09:08:23.997Z</time>
</trkpt>
<trkpt lat="41.9366820" lon="1.8667320">
<ele>393.923523</ele>
<time>2022-09-08T09:08:24.999Z</time>
</trkpt>
<trkpt lat="41.9367110" lon="1.8667280">
<ele>394.014954</ele>
<time>2022-09-08T09:08:26.002Z</time>
</trkpt>
<trkpt lat="41.9367340" lon="1.8667210">
<ele>394.106415</ele>
<time>2022-09-08T09:08:27.004Z</time>
</trkpt>
<trkpt lat="41.9367590" lon="1.8667120">
<ele>394.228333</ele>
<time>2022-09-08T09:08:27.997Z</time>
</trkpt>
<trkpt lat="41.9367870" lon="1.8667050">
<ele>394.350250</ele>
<time>2022-09-08T09:08:29.000Z</time>
</trkpt>
<trkpt lat="41.9368120" lon="1.8667010">
<ele>394.472137</ele>
<time>2022-09-08T09:08:30.002Z</time>
</trkpt>
<trkpt lat="41.9368350" lon="1.8666950">
<ele>394.563599</ele>
<time>2022-09-08T09:08:31.004Z</time>
</trkpt>
<trkpt lat="41.9368650" lon="1.8666940">
<ele>394.655060</ele>
<time>2022-09-08T09:08:31.998Z</time>
</trkpt>
<trkpt lat="41.9368990" lon="1.8666920">
<ele>394.746460</ele>
<time>2022-09-08T09:08:33.000Z</time>
</trkpt>
<trkpt lat="41.9369330" lon="1.8666890">
<ele>394.868408</ele>
<time>2022-09-08T09:08:34.002Z</time>
</trkpt>
<trkpt lat="41.9369630" lon="1.8666880">
<ele>394.990326</ele>
<time>2022-09-08T09:08:34.996Z</time>
</trkpt>
<trkpt lat="41.9369940" lon="1.8666830">
<ele>395.112244</ele>
<time>2022-09-08T09:08:35.998Z</time>
</trkpt>
<trkpt lat="41.9370230" lon="1.8666800">
<ele>395.203674</ele>
<time>2022-09-08T09:08:37.000Z</time>
</trkpt>
<trkpt lat="41.9370540" lon="1.8666740">
<ele>395.325592</ele>
<time>2022-09-08T09:08:38.003Z</time>
</trkpt>
<trkpt lat="41.9370890" lon="1.8666670">
<ele>395.447540</ele>
<time>2022-09-08T09:08:38.996Z</time>
</trkpt>
<trkpt lat="41.9371140" lon="1.8666600">
<ele>395.447540</ele>
<time>2022-09-08T09:08:39.998Z</time>
</trkpt>
<trkpt lat="41.9371470" lon="1.8666500">
<ele>395.508484</ele>
<time>2022-09-08T09:08:41.001Z</time>
</trkpt>
<trkpt lat="41.9371720" lon="1.8666480">
<ele>395.477997</ele>
<time>2022-09-08T09:08:42.003Z</time>
</trkpt>
<trkpt lat="41.9372050" lon="1.8666380">
<ele>395.508484</ele>
<time>2022-09-08T09:08:42.996Z</time>
</trkpt>
<trkpt lat="41.9372400" lon="1.8666390">
<ele>395.477997</ele>
<time>2022-09-08T09:08:43.999Z</time>
</trkpt>
<trkpt lat="41.9372780" lon="1.8666390">
<ele>395.417053</ele>
<time>2022-09-08T09:08:45.001Z</time>
</trkpt>
<trkpt lat="41.9373200" lon="1.8666370">
<ele>395.386536</ele>
<time>2022-09-08T09:08:46.003Z</time>
</trkpt>
<trkpt lat="41.9373520" lon="1.8666410">
<ele>395.356079</ele>
<time>2022-09-08T09:08:46.997Z</time>
</trkpt>
<trkpt lat="41.9373740" lon="1.8666500">
<ele>395.325592</ele>
<time>2022-09-08T09:08:47.999Z</time>
</trkpt>
<trkpt lat="41.9374120" lon="1.8666710">
<ele>395.234131</ele>
<time>2022-09-08T09:08:49.001Z</time>
</trkpt>
<trkpt lat="41.9374450" lon="1.8666870">
<ele>395.234131</ele>
<time>2022-09-08T09:08:50.004Z</time>
</trkpt>
<trkpt lat="41.9374780" lon="1.8666930">
<ele>395.234131</ele>
<time>2022-09-08T09:08:50.997Z</time>
</trkpt>
<trkpt lat="41.9375100" lon="1.8666990">
<ele>395.234131</ele>
<time>2022-09-08T09:08:51.999Z</time>
</trkpt>
<trkpt lat="41.9375390" lon="1.8667040">
<ele>395.264648</ele>
<time>2022-09-08T09:08:53.002Z</time>
</trkpt>
<trkpt lat="41.9375650" lon="1.8667120">
<ele>395.295135</ele>
<time>2022-09-08T09:08:54.004Z</time>
</trkpt>
<trkpt lat="41.9375940" lon="1.8667230">
<ele>395.356079</ele>
<time>2022-09-08T09:08:54.997Z</time>
</trkpt>
<trkpt lat="41.9376230" lon="1.8667230">
<ele>395.417053</ele>
<time>2022-09-08T09:08:56.000Z</time>
</trkpt>
<trkpt lat="41.9376460" lon="1.8667330">
<ele>395.477997</ele>
<time>2022-09-08T09:08:57.002Z</time>
</trkpt>
<trkpt lat="41.9376720" lon="1.8667500">
<ele>395.599915</ele>
<time>2022-09-08T09:08:58.004Z</time>
</trkpt>
<trkpt lat="41.9376910" lon="1.8667680">
<ele>395.721863</ele>
<time>2022-09-08T09:08:58.998Z</time>
</trkpt>
<trkpt lat="41.9377100" lon="1.8667900">
<ele>395.874268</ele>
<time>2022-09-08T09:09:00.000Z</time>
</trkpt>
<trkpt lat="41.9377310" lon="1.8668060">
<ele>396.026642</ele>
<time>2022-09-08T09:09:01.002Z</time>
</trkpt>
<trkpt lat="41.9377520" lon="1.8668200">
<ele>396.179047</ele>
<time>2022-09-08T09:09:01.996Z</time>
</trkpt>
<trkpt lat="41.9377680" lon="1.8668290">
<ele>396.300934</ele>
<time>2022-09-08T09:09:02.998Z</time>
</trkpt>
<trkpt lat="41.9377790" lon="1.8668330">
<ele>396.361938</ele>
<time>2022-09-08T09:09:04.000Z</time>
</trkpt>
<trkpt lat="41.9377940" lon="1.8668360">
<ele>396.453339</ele>
<time>2022-09-08T09:09:05.003Z</time>
</trkpt>
<trkpt lat="41.9378110" lon="1.8668380">
<ele>396.544800</ele>
<time>2022-09-08T09:09:05.996Z</time>
</trkpt>
<trkpt lat="41.9378390" lon="1.8668400">
<ele>396.666718</ele>
<time>2022-09-08T09:09:06.998Z</time>
</trkpt>
<trkpt lat="41.9378690" lon="1.8668440">
<ele>396.819122</ele>
<time>2022-09-08T09:09:08.001Z</time>
</trkpt>
<trkpt lat="41.9378970" lon="1.8668540">
<ele>397.032471</ele>
<time>2022-09-08T09:09:09.003Z</time>
</trkpt>
<trkpt lat="41.9379210" lon="1.8668660">
<ele>397.245850</ele>
<time>2022-09-08T09:09:09.996Z</time>
</trkpt>
<trkpt lat="41.9379470" lon="1.8668830">
<ele>397.489685</ele>
<time>2022-09-08T09:09:10.999Z</time>
</trkpt>
<trkpt lat="41.9379700" lon="1.8669050">
<ele>397.824951</ele>
<time>2022-09-08T09:09:12.001Z</time>
</trkpt>
<trkpt lat="41.9379850" lon="1.8669310">
<ele>398.160248</ele>
<time>2022-09-08T09:09:13.003Z</time>
</trkpt>
<trkpt lat="41.9379950" lon="1.8669610">
<ele>398.556458</ele>
<time>2022-09-08T09:09:13.997Z</time>
</trkpt>
<trkpt lat="41.9380000" lon="1.8669790">
<ele>398.800323</ele>
<time>2022-09-08T09:09:14.999Z</time>
</trkpt>
<trkpt lat="41.9380120" lon="1.8669970">
<ele>399.105133</ele>
<time>2022-09-08T09:09:16.001Z</time>
</trkpt>
<trkpt lat="41.9380230" lon="1.8670080">
<ele>399.287994</ele>
<time>2022-09-08T09:09:17.004Z</time>
</trkpt>
<trkpt lat="41.9380360" lon="1.8670210">
<ele>399.531860</ele>
<time>2022-09-08T09:09:17.997Z</time>
</trkpt>
<trkpt lat="41.9380550" lon="1.8670260">
<ele>399.653748</ele>
<time>2022-09-08T09:09:18.999Z</time>
</trkpt>
<trkpt lat="41.9380780" lon="1.8670390">
<ele>399.958557</ele>
<time>2022-09-08T09:09:20.002Z</time>
</trkpt>
<trkpt lat="41.9380880" lon="1.8670550">
<ele>400.202393</ele>
<time>2022-09-08T09:09:21.004Z</time>
</trkpt>
<trkpt lat="41.9381000" lon="1.8670700">
<ele>400.476715</ele>
<time>2022-09-08T09:09:21.997Z</time>
</trkpt>
<trkpt lat="41.9381180" lon="1.8670810">
<ele>400.720551</ele>
<time>2022-09-08T09:09:23.000Z</time>
</trkpt>
<trkpt lat="41.9381360" lon="1.8670950">
<ele>400.994873</ele>
<time>2022-09-08T09:09:24.002Z</time>
</trkpt>
<trkpt lat="41.9381530" lon="1.8671130">
<ele>401.299683</ele>
<time>2022-09-08T09:09:25.004Z</time>
</trkpt>
<trkpt lat="41.9381680" lon="1.8671330">
<ele>401.604462</ele>
<time>2022-09-08T09:09:25.998Z</time>
</trkpt>
<trkpt lat="41.9381810" lon="1.8671470">
<ele>401.848328</ele>
<time>2022-09-08T09:09:27.000Z</time>
</trkpt>
<trkpt lat="41.9381980" lon="1.8671630">
<ele>402.153137</ele>
<time>2022-09-08T09:09:28.002Z</time>
</trkpt>
<trkpt lat="41.9382170" lon="1.8671790">
<ele>402.427460</ele>
<time>2022-09-08T09:09:28.996Z</time>
</trkpt>
<trkpt lat="41.9382390" lon="1.8671930">
<ele>402.701752</ele>
<time>2022-09-08T09:09:29.998Z</time>
</trkpt>
<trkpt lat="41.9382590" lon="1.8672140">
<ele>403.067535</ele>
<time>2022-09-08T09:09:31.000Z</time>
</trkpt>
<trkpt lat="41.9382820" lon="1.8672350">
<ele>403.433258</ele>
<time>2022-09-08T09:09:32.003Z</time>
</trkpt>
<trkpt lat="41.9383040" lon="1.8672620">
<ele>403.890472</ele>
<time>2022-09-08T09:09:32.996Z</time>
</trkpt>
<trkpt lat="41.9383240" lon="1.8672770">
<ele>404.164795</ele>
<time>2022-09-08T09:09:33.998Z</time>
</trkpt>
<trkpt lat="41.9383470" lon="1.8672890">
<ele>404.408661</ele>
<time>2022-09-08T09:09:35.001Z</time>
</trkpt>
<trkpt lat="41.9383660" lon="1.8673010">
<ele>404.622009</ele>
<time>2022-09-08T09:09:36.003Z</time>
</trkpt>
<trkpt lat="41.9383860" lon="1.8673110">
<ele>404.804871</ele>
<time>2022-09-08T09:09:36.996Z</time>
</trkpt>
<trkpt lat="41.9384210" lon="1.8673250">
<ele>405.109680</ele>
<time>2022-09-08T09:09:37.999Z</time>
</trkpt>
<trkpt lat="41.9384400" lon="1.8673300">
<ele>405.201141</ele>
<time>2022-09-08T09:09:39.001Z</time>
</trkpt>
<trkpt lat="41.9384620" lon="1.8673370">
<ele>405.353516</ele>
<time>2022-09-08T09:09:40.003Z</time>
</trkpt>
<trkpt lat="41.9384880" lon="1.8673440">
<ele>405.536407</ele>
<time>2022-09-08T09:09:40.997Z</time>
</trkpt>
<trkpt lat="41.9385240" lon="1.8673650">
<ele>405.932648</ele>
<time>2022-09-08T09:09:41.999Z</time>
</trkpt>
<trkpt lat="41.9385450" lon="1.8673740">
<ele>406.115540</ele>
<time>2022-09-08T09:09:43.001Z</time>
</trkpt>
<trkpt lat="41.9385680" lon="1.8673820">
<ele>406.298401</ele>
<time>2022-09-08T09:09:44.004Z</time>
</trkpt>
<trkpt lat="41.9385900" lon="1.8673930">
<ele>406.542267</ele>
<time>2022-09-08T09:09:44.997Z</time>
</trkpt>
<trkpt lat="41.9386230" lon="1.8673950">
<ele>406.664154</ele>
<time>2022-09-08T09:09:45.999Z</time>
</trkpt>
<trkpt lat="41.9386600" lon="1.8674040">
<ele>406.938477</ele>
<time>2022-09-08T09:09:47.002Z</time>
</trkpt>
<trkpt lat="41.9386910" lon="1.8674160">
<ele>407.243286</ele>
<time>2022-09-08T09:09:48.004Z</time>
</trkpt>
<trkpt lat="41.9387180" lon="1.8674270">
<ele>407.517609</ele>
<time>2022-09-08T09:09:48.997Z</time>
</trkpt>
<trkpt lat="41.9387540" lon="1.8674360">
<ele>407.822388</ele>
<time>2022-09-08T09:09:50.000Z</time>
</trkpt>
<trkpt lat="41.9387950" lon="1.8674290">
<ele>407.913849</ele>
<time>2022-09-08T09:09:51.002Z</time>
</trkpt>
<trkpt lat="41.9388320" lon="1.8674170">
<ele>407.944336</ele>
<time>2022-09-08T09:09:52.004Z</time>
</trkpt>
<trkpt lat="41.9388580" lon="1.8674160">
<ele>408.066254</ele>
<time>2022-09-08T09:09:52.998Z</time>
</trkpt>
<trkpt lat="41.9388810" lon="1.8674090">
<ele>408.096741</ele>
<time>2022-09-08T09:09:54.000Z</time>
</trkpt>
<trkpt lat="41.9389150" lon="1.8673900">
<ele>408.005280</ele>
<time>2022-09-08T09:09:55.002Z</time>
</trkpt>
<trkpt lat="41.9389520" lon="1.8673560">
<ele>407.700470</ele>
<time>2022-09-08T09:09:55.996Z</time>
</trkpt>
<trkpt lat="41.9389940" lon="1.8673030">
<ele>407.121338</ele>
<time>2022-09-08T09:09:56.998Z</time>
</trkpt>
<trkpt lat="41.9390450" lon="1.8672290">
<ele>406.328857</ele>
<time>2022-09-08T09:09:58.000Z</time>
</trkpt>
<trkpt lat="41.9391000" lon="1.8671700">
<ele>405.780243</ele>
<time>2022-09-08T09:09:59.003Z</time>
</trkpt>
<trkpt lat="41.9391590" lon="1.8671210">
<ele>405.444946</ele>
<time>2022-09-08T09:09:59.996Z</time>
</trkpt>
<trkpt lat="41.9392080" lon="1.8670890">
<ele>405.262085</ele>
<time>2022-09-08T09:10:00.998Z</time>
</trkpt>
<trkpt lat="41.9392590" lon="1.8670450">
<ele>404.835358</ele>
<time>2022-09-08T09:10:02.001Z</time>
</trkpt>
<trkpt lat="41.9393000" lon="1.8670080">
<ele>404.530548</ele>
<time>2022-09-08T09:10:03.003Z</time>
</trkpt>
<trkpt lat="41.9393320" lon="1.8669680">
<ele>404.164795</ele>
<time>2022-09-08T09:10:03.996Z</time>
</trkpt>
<trkpt lat="41.9393470" lon="1.8669400">
<ele>403.920959</ele>
<time>2022-09-08T09:10:04.999Z</time>
</trkpt>
<trkpt lat="41.9393830" lon="1.8668940">
<ele>403.616150</ele>
<time>2022-09-08T09:10:06.001Z</time>
</trkpt>
<trkpt lat="41.9394240" lon="1.8668300">
<ele>403.219940</ele>
<time>2022-09-08T09:10:07.003Z</time>
</trkpt>
<trkpt lat="41.9394520" lon="1.8667820">
<ele>403.006531</ele>
<time>2022-09-08T09:10:07.997Z</time>
</trkpt>
<trkpt lat="41.9394800" lon="1.8667260">
<ele>402.793213</ele>
<time>2022-09-08T09:10:08.999Z</time>
</trkpt>
<trkpt lat="41.9395050" lon="1.8666680">
<ele>402.610321</ele>
<time>2022-09-08T09:10:10.001Z</time>
</trkpt>
<trkpt lat="41.9395090" lon="1.8666130">
<ele>402.396942</ele>
<time>2022-09-08T09:10:11.004Z</time>
</trkpt>
<trkpt lat="41.9394980" lon="1.8665580">
<ele>402.214081</ele>
<time>2022-09-08T09:10:11.997Z</time>
</trkpt>
<trkpt lat="41.9394620" lon="1.8665060">
<ele>402.000732</ele>
<time>2022-09-08T09:10:12.999Z</time>
</trkpt>
<trkpt lat="41.9394360" lon="1.8664750">
<ele>401.878815</ele>
<time>2022-09-08T09:10:14.002Z</time>
</trkpt>
<trkpt lat="41.9394200" lon="1.8664480">
<ele>401.817841</ele>
<time>2022-09-08T09:10:15.004Z</time>
</trkpt>
<trkpt lat="41.9394250" lon="1.8664300">
<ele>401.817841</ele>
<time>2022-09-08T09:10:15.997Z</time>
</trkpt>
<trkpt lat="41.9394330" lon="1.8664180">
<ele>401.817841</ele>
<time>2022-09-08T09:10:17.000Z</time>
</trkpt>
<trkpt lat="41.9394490" lon="1.8664120">
<ele>401.848328</ele>
<time>2022-09-08T09:10:18.002Z</time>
</trkpt>
<trkpt lat="41.9394690" lon="1.8664120">
<ele>401.909271</ele>
<time>2022-09-08T09:10:19.004Z</time>
</trkpt>
<trkpt lat="41.9394810" lon="1.8664180">
<ele>401.939758</ele>
<time>2022-09-08T09:10:19.998Z</time>
</trkpt>
<trkpt lat="41.9394910" lon="1.8664260">
<ele>401.970245</ele>
<time>2022-09-08T09:10:21.000Z</time>
</trkpt>
<trkpt lat="41.9394940" lon="1.8664280">
<ele>402.000732</ele>
<time>2022-09-08T09:10:22.002Z</time>
</trkpt>
<trkpt lat="41.9394940" lon="1.8664280">
<ele>402.000732</ele>
<time>2022-09-08T09:10:22.996Z</time>
</trkpt>
<trkpt lat="41.9394940" lon="1.8664280">
<ele>402.000732</ele>
<time>2022-09-08T09:10:23.998Z</time>
</trkpt>
<trkpt lat="41.9395730" lon="1.8664420">
<ele>402.183594</ele>
<time>2022-09-08T09:11:05.997Z</time>
</trkpt>
<trkpt lat="41.9395920" lon="1.8664520">
<ele>402.244537</ele>
<time>2022-09-08T09:11:06.999Z</time>
</trkpt>
<trkpt lat="41.9396110" lon="1.8664550">
<ele>402.305542</ele>
<time>2022-09-08T09:11:08.002Z</time>
</trkpt>
<trkpt lat="41.9396310" lon="1.8664520">
<ele>402.335999</ele>
<time>2022-09-08T09:11:09.004Z</time>
</trkpt>
<trkpt lat="41.9396530" lon="1.8664500">
<ele>402.366486</ele>
<time>2022-09-08T09:11:09.997Z</time>
</trkpt>
<trkpt lat="41.9396790" lon="1.8664460">
<ele>402.396942</ele>
<time>2022-09-08T09:11:11.000Z</time>
</trkpt>
<trkpt lat="41.9397130" lon="1.8664300">
<ele>402.427460</ele>
<time>2022-09-08T09:11:12.002Z</time>
</trkpt>
<trkpt lat="41.9397290" lon="1.8664020">
<ele>402.396942</ele>
<time>2022-09-08T09:11:13.004Z</time>
</trkpt>
<trkpt lat="41.9397480" lon="1.8663750">
<ele>402.366486</ele>
<time>2022-09-08T09:11:13.998Z</time>
</trkpt>
<trkpt lat="41.9397680" lon="1.8663490">
<ele>402.335999</ele>
<time>2022-09-08T09:11:15.000Z</time>
</trkpt>
<trkpt lat="41.9397970" lon="1.8663140">
<ele>402.305542</ele>
<time>2022-09-08T09:11:16.002Z</time>
</trkpt>
<trkpt lat="41.9398280" lon="1.8662880">
<ele>402.275055</ele>
<time>2022-09-08T09:11:16.996Z</time>
</trkpt>
<trkpt lat="41.9398630" lon="1.8662720">
<ele>402.275055</ele>
<time>2022-09-08T09:11:17.998Z</time>
</trkpt>
<trkpt lat="41.9398950" lon="1.8662630">
<ele>402.275055</ele>
<time>2022-09-08T09:11:19.000Z</time>
</trkpt>
<trkpt lat="41.9399300" lon="1.8662530">
<ele>402.275055</ele>
<time>2022-09-08T09:11:20.003Z</time>
</trkpt>
<trkpt lat="41.9399600" lon="1.8662560">
<ele>402.305542</ele>
<time>2022-09-08T09:11:20.996Z</time>
</trkpt>
<trkpt lat="41.9399930" lon="1.8662620">
<ele>402.335999</ele>
<time>2022-09-08T09:11:21.998Z</time>
</trkpt>
<trkpt lat="41.9400340" lon="1.8662650">
<ele>402.366486</ele>
<time>2022-09-08T09:11:23.001Z</time>
</trkpt>
<trkpt lat="41.9400710" lon="1.8662540">
<ele>402.366486</ele>
<time>2022-09-08T09:11:24.003Z</time>
</trkpt>
<trkpt lat="41.9401030" lon="1.8662350">
<ele>402.305542</ele>
<time>2022-09-08T09:11:24.996Z</time>
</trkpt>
<trkpt lat="41.9401510" lon="1.8662270">
<ele>402.335999</ele>
<time>2022-09-08T09:11:25.999Z</time>
</trkpt>
<trkpt lat="41.9401800" lon="1.8662120">
<ele>402.305542</ele>
<time>2022-09-08T09:11:27.001Z</time>
</trkpt>
<trkpt lat="41.9402120" lon="1.8662060">
<ele>402.335999</ele>
<time>2022-09-08T09:11:28.003Z</time>
</trkpt>
<trkpt lat="41.9402620" lon="1.8662030">
<ele>402.396942</ele>
<time>2022-09-08T09:11:28.997Z</time>
</trkpt>
<trkpt lat="41.9402960" lon="1.8661710">
<ele>402.366486</ele>
<time>2022-09-08T09:11:29.999Z</time>
</trkpt>
<trkpt lat="41.9403290" lon="1.8661460">
<ele>402.396942</ele>
<time>2022-09-08T09:11:31.001Z</time>
</trkpt>
<trkpt lat="41.9403550" lon="1.8661400">
<ele>402.457916</ele>
<time>2022-09-08T09:11:32.004Z</time>
</trkpt>
<trkpt lat="41.9403700" lon="1.8661350">
<ele>402.518860</ele>
<time>2022-09-08T09:11:32.997Z</time>
</trkpt>
<trkpt lat="41.9403880" lon="1.8661270">
<ele>402.549347</ele>
<time>2022-09-08T09:11:33.999Z</time>
</trkpt>
<trkpt lat="41.9404230" lon="1.8661180">
<ele>402.671265</ele>
<time>2022-09-08T09:11:35.002Z</time>
</trkpt>
<trkpt lat="41.9404630" lon="1.8660970">
<ele>402.793213</ele>
<time>2022-09-08T09:11:36.004Z</time>
</trkpt>
<trkpt lat="41.9405000" lon="1.8660860">
<ele>402.884644</ele>
<time>2022-09-08T09:11:36.997Z</time>
</trkpt>
<trkpt lat="41.9405370" lon="1.8660850">
<ele>403.006531</ele>
<time>2022-09-08T09:11:38.000Z</time>
</trkpt>
<trkpt lat="41.9405820" lon="1.8660820">
<ele>403.128479</ele>
<time>2022-09-08T09:11:39.002Z</time>
</trkpt>
<trkpt lat="41.9406300" lon="1.8660730">
<ele>403.280884</ele>
<time>2022-09-08T09:11:40.004Z</time>
</trkpt>
<trkpt lat="41.9406700" lon="1.8660790">
<ele>403.402802</ele>
<time>2022-09-08T09:11:40.998Z</time>
</trkpt>
<trkpt lat="41.9407080" lon="1.8660840">
<ele>403.524719</ele>
<time>2022-09-08T09:11:42.000Z</time>
</trkpt>
<trkpt lat="41.9407520" lon="1.8660900">
<ele>403.646667</ele>
<time>2022-09-08T09:11:43.002Z</time>
</trkpt>
<trkpt lat="41.9407770" lon="1.8660910">
<ele>403.738068</ele>
<time>2022-09-08T09:11:43.996Z</time>
</trkpt>
<trkpt lat="41.9407970" lon="1.8661020">
<ele>403.799042</ele>
<time>2022-09-08T09:11:44.998Z</time>
</trkpt>
<trkpt lat="41.9408360" lon="1.8661090">
<ele>403.951447</ele>
<time>2022-09-08T09:11:46.000Z</time>
</trkpt>
<trkpt lat="41.9408600" lon="1.8661170">
<ele>404.042877</ele>
<time>2022-09-08T09:11:47.003Z</time>
</trkpt>
<trkpt lat="41.9408780" lon="1.8661270">
<ele>404.103851</ele>
<time>2022-09-08T09:11:47.996Z</time>
</trkpt>
<trkpt lat="41.9409030" lon="1.8661380">
<ele>404.195282</ele>
<time>2022-09-08T09:11:48.998Z</time>
</trkpt>
<trkpt lat="41.9409250" lon="1.8661500">
<ele>404.286713</ele>
<time>2022-09-08T09:11:50.001Z</time>
</trkpt>
<trkpt lat="41.9409450" lon="1.8661650">
<ele>404.408661</ele>
<time>2022-09-08T09:11:51.003Z</time>
</trkpt>
<trkpt lat="41.9409660" lon="1.8661760">
<ele>404.500061</ele>
<time>2022-09-08T09:11:51.996Z</time>
</trkpt>
<trkpt lat="41.9409850" lon="1.8661920">
<ele>404.622009</ele>
<time>2022-09-08T09:11:52.999Z</time>
</trkpt>
<trkpt lat="41.9410050" lon="1.8662100">
<ele>404.743927</ele>
<time>2022-09-08T09:11:54.001Z</time>
</trkpt>
<trkpt lat="41.9410280" lon="1.8662220">
<ele>404.896332</ele>
<time>2022-09-08T09:11:55.003Z</time>
</trkpt>
<trkpt lat="41.9410450" lon="1.8662330">
<ele>404.987732</ele>
<time>2022-09-08T09:11:55.997Z</time>
</trkpt>
<trkpt lat="41.9410640" lon="1.8662430">
<ele>405.140137</ele>
<time>2022-09-08T09:11:56.999Z</time>
</trkpt>
<trkpt lat="41.9410810" lon="1.8662580">
<ele>405.231598</ele>
<time>2022-09-08T09:11:58.001Z</time>
</trkpt>
<trkpt lat="41.9410980" lon="1.8662730">
<ele>405.323059</ele>
<time>2022-09-08T09:11:59.004Z</time>
</trkpt>
<trkpt lat="41.9411140" lon="1.8662880">
<ele>405.414459</ele>
<time>2022-09-08T09:11:59.997Z</time>
</trkpt>
<trkpt lat="41.9411300" lon="1.8663010">
<ele>405.505920</ele>
<time>2022-09-08T09:12:00.999Z</time>
</trkpt>
<trkpt lat="41.9411480" lon="1.8663120">
<ele>405.566864</ele>
<time>2022-09-08T09:12:02.002Z</time>
</trkpt>
<trkpt lat="41.9411660" lon="1.8663280">
<ele>405.688812</ele>
<time>2022-09-08T09:12:03.004Z</time>
</trkpt>
<trkpt lat="41.9411860" lon="1.8663440">
<ele>405.810730</ele>
<time>2022-09-08T09:12:03.997Z</time>
</trkpt>
<trkpt lat="41.9412030" lon="1.8663560">
<ele>405.902130</ele>
<time>2022-09-08T09:12:05.000Z</time>
</trkpt>
<trkpt lat="41.9412230" lon="1.8663760">
<ele>406.054535</ele>
<time>2022-09-08T09:12:06.002Z</time>
</trkpt>
<trkpt lat="41.9412330" lon="1.8664030">
<ele>406.206940</ele>
<time>2022-09-08T09:12:07.004Z</time>
</trkpt>
<trkpt lat="41.9412410" lon="1.8664340">
<ele>406.359344</ele>
<time>2022-09-08T09:12:07.998Z</time>
</trkpt>
<trkpt lat="41.9412520" lon="1.8664550">
<ele>406.511749</ele>
<time>2022-09-08T09:12:09.000Z</time>
</trkpt>
<trkpt lat="41.9412670" lon="1.8664690">
<ele>406.603210</ele>
<time>2022-09-08T09:12:10.002Z</time>
</trkpt>
<trkpt lat="41.9412860" lon="1.8664810">
<ele>406.725128</ele>
<time>2022-09-08T09:12:10.996Z</time>
</trkpt>
<trkpt lat="41.9413070" lon="1.8664960">
<ele>406.847046</ele>
<time>2022-09-08T09:12:11.998Z</time>
</trkpt>
<trkpt lat="41.9413220" lon="1.8665070">
<ele>406.968933</ele>
<time>2022-09-08T09:12:13.000Z</time>
</trkpt>
<trkpt lat="41.9413400" lon="1.8665170">
<ele>407.060394</ele>
<time>2022-09-08T09:12:14.003Z</time>
</trkpt>
<trkpt lat="41.9413580" lon="1.8665300">
<ele>407.151855</ele>
<time>2022-09-08T09:12:14.996Z</time>
</trkpt>
<trkpt lat="41.9413770" lon="1.8665470">
<ele>407.304260</ele>
<time>2022-09-08T09:12:15.998Z</time>
</trkpt>
<trkpt lat="41.9414120" lon="1.8665650">
<ele>407.456665</ele>
<time>2022-09-08T09:12:17.001Z</time>
</trkpt>
<trkpt lat="41.9414470" lon="1.8665760">
<ele>407.548065</ele>
<time>2022-09-08T09:12:18.003Z</time>
</trkpt>
<trkpt lat="41.9414900" lon="1.8665880">
<ele>407.639526</ele>
<time>2022-09-08T09:12:18.996Z</time>
</trkpt>
<trkpt lat="41.9415290" lon="1.8666130">
<ele>407.791931</ele>
<time>2022-09-08T09:12:19.999Z</time>
</trkpt>
<trkpt lat="41.9415660" lon="1.8666380">
<ele>407.974792</ele>
<time>2022-09-08T09:12:21.001Z</time>
</trkpt>
<trkpt lat="41.9415840" lon="1.8666660">
<ele>408.188141</ele>
<time>2022-09-08T09:12:22.003Z</time>
</trkpt>
<trkpt lat="41.9415960" lon="1.8666920">
<ele>408.401520</ele>
<time>2022-09-08T09:12:22.997Z</time>
</trkpt>
<trkpt lat="41.9416030" lon="1.8667250">
<ele>408.675842</ele>
<time>2022-09-08T09:12:23.999Z</time>
</trkpt>
<trkpt lat="41.9416130" lon="1.8667600">
<ele>409.041595</ele>
<time>2022-09-08T09:12:25.001Z</time>
</trkpt>
<trkpt lat="41.9416190" lon="1.8667990">
<ele>409.437866</ele>
<time>2022-09-08T09:12:26.004Z</time>
</trkpt>
<trkpt lat="41.9416210" lon="1.8668310">
<ele>409.834076</ele>
<time>2022-09-08T09:12:26.997Z</time>
</trkpt>
<trkpt lat="41.9416240" lon="1.8668570">
<ele>410.138885</ele>
<time>2022-09-08T09:12:27.999Z</time>
</trkpt>
<trkpt lat="41.9416320" lon="1.8668860">
<ele>410.504669</ele>
<time>2022-09-08T09:12:29.002Z</time>
</trkpt>
<trkpt lat="41.9416360" lon="1.8669110">
<ele>410.839935</ele>
<time>2022-09-08T09:12:30.004Z</time>
</trkpt>
<trkpt lat="41.9416480" lon="1.8669340">
<ele>411.144714</ele>
<time>2022-09-08T09:12:30.997Z</time>
</trkpt>
<trkpt lat="41.9416570" lon="1.8669680">
<ele>411.601929</ele>
<time>2022-09-08T09:12:32.000Z</time>
</trkpt>
<trkpt lat="41.9416680" lon="1.8669990">
<ele>412.059113</ele>
<time>2022-09-08T09:12:33.002Z</time>
</trkpt>
<trkpt lat="41.9416860" lon="1.8670280">
<ele>412.485840</ele>
<time>2022-09-08T09:12:34.004Z</time>
</trkpt>
<trkpt lat="41.9417030" lon="1.8670570">
<ele>412.912537</ele>
<time>2022-09-08T09:12:34.998Z</time>
</trkpt>
<trkpt lat="41.9417250" lon="1.8670820">
<ele>413.278320</ele>
<time>2022-09-08T09:12:36.000Z</time>
</trkpt>
<trkpt lat="41.9417360" lon="1.8671080">
<ele>413.552643</ele>
<time>2022-09-08T09:12:37.002Z</time>
</trkpt>
<trkpt lat="41.9417470" lon="1.8671320">
<ele>413.796478</ele>
<time>2022-09-08T09:12:37.996Z</time>
</trkpt>
<trkpt lat="41.9417540" lon="1.8671570">
<ele>414.070801</ele>
<time>2022-09-08T09:12:38.998Z</time>
</trkpt>
<trkpt lat="41.9417540" lon="1.8671860">
<ele>414.406067</ele>
<time>2022-09-08T09:12:40.000Z</time>
</trkpt>
<trkpt lat="41.9417600" lon="1.8672060">
<ele>414.619446</ele>
<time>2022-09-08T09:12:41.003Z</time>
</trkpt>
<trkpt lat="41.9417600" lon="1.8672240">
<ele>414.832794</ele>
<time>2022-09-08T09:12:41.996Z</time>
</trkpt>
<trkpt lat="41.9417620" lon="1.8672570">
<ele>415.229065</ele>
<time>2022-09-08T09:12:42.998Z</time>
</trkpt>
<trkpt lat="41.9417750" lon="1.8672950">
<ele>415.655731</ele>
<time>2022-09-08T09:12:44.001Z</time>
</trkpt>
<trkpt lat="41.9417860" lon="1.8673490">
<ele>416.295868</ele>
<time>2022-09-08T09:12:45.003Z</time>
</trkpt>
<trkpt lat="41.9417970" lon="1.8673810">
<ele>416.692078</ele>
<time>2022-09-08T09:12:45.996Z</time>
</trkpt>
<trkpt lat="41.9418020" lon="1.8674120">
<ele>417.118805</ele>
<time>2022-09-08T09:12:46.999Z</time>
</trkpt>
<trkpt lat="41.9417980" lon="1.8674520">
<ele>417.667450</ele>
<time>2022-09-08T09:12:48.001Z</time>
</trkpt>
<trkpt lat="41.9418070" lon="1.8674780">
<ele>418.002716</ele>
<time>2022-09-08T09:12:49.003Z</time>
</trkpt>
<trkpt lat="41.9418120" lon="1.8674930">
<ele>418.216064</ele>
<time>2022-09-08T09:12:49.997Z</time>
</trkpt>
<trkpt lat="41.9418180" lon="1.8675120">
<ele>418.490387</ele>
<time>2022-09-08T09:12:50.999Z</time>
</trkpt>
<trkpt lat="41.9418270" lon="1.8675330">
<ele>418.764740</ele>
<time>2022-09-08T09:12:52.001Z</time>
</trkpt>
<trkpt lat="41.9418310" lon="1.8675550">
<ele>419.100006</ele>
<time>2022-09-08T09:12:53.004Z</time>
</trkpt>
<trkpt lat="41.9418370" lon="1.8675790">
<ele>419.465759</ele>
<time>2022-09-08T09:12:53.997Z</time>
</trkpt>
<trkpt lat="41.9418410" lon="1.8676120">
<ele>419.953461</ele>
<time>2022-09-08T09:12:54.999Z</time>
</trkpt>
<trkpt lat="41.9418610" lon="1.8676270">
<ele>420.197266</ele>
<time>2022-09-08T09:12:56.002Z</time>
</trkpt>
<trkpt lat="41.9418730" lon="1.8676510">
<ele>420.563049</ele>
<time>2022-09-08T09:12:57.004Z</time>
</trkpt>
<trkpt lat="41.9418820" lon="1.8676730">
<ele>420.928802</ele>
<time>2022-09-08T09:12:57.997Z</time>
</trkpt>
<trkpt lat="41.9418890" lon="1.8676960">
<ele>421.294556</ele>
<time>2022-09-08T09:12:59.000Z</time>
</trkpt>
<trkpt lat="41.9418970" lon="1.8677180">
<ele>421.660339</ele>
<time>2022-09-08T09:13:00.002Z</time>
</trkpt>
<trkpt lat="41.9419000" lon="1.8677440">
<ele>422.117523</ele>
<time>2022-09-08T09:13:01.004Z</time>
</trkpt>
<trkpt lat="41.9419060" lon="1.8677700">
<ele>422.574738</ele>
<time>2022-09-08T09:13:01.998Z</time>
</trkpt>
<trkpt lat="41.9419150" lon="1.8677960">
<ele>423.031921</ele>
<time>2022-09-08T09:13:03.000Z</time>
</trkpt>
<trkpt lat="41.9419260" lon="1.8678190">
<ele>423.458649</ele>
<time>2022-09-08T09:13:04.002Z</time>
</trkpt>
<trkpt lat="41.9419400" lon="1.8678420">
<ele>423.854858</ele>
<time>2022-09-08T09:13:04.996Z</time>
</trkpt>
<trkpt lat="41.9419550" lon="1.8678740">
<ele>424.464478</ele>
<time>2022-09-08T09:13:05.998Z</time>
</trkpt>
<trkpt lat="41.9419670" lon="1.8679030">
<ele>425.013123</ele>
<time>2022-09-08T09:13:07.000Z</time>
</trkpt>
<trkpt lat="41.9419810" lon="1.8679370">
<ele>425.561737</ele>
<time>2022-09-08T09:13:08.003Z</time>
</trkpt>
<trkpt lat="41.9420020" lon="1.8679830">
<ele>426.232330</ele>
<time>2022-09-08T09:13:08.996Z</time>
</trkpt>
<trkpt lat="41.9420190" lon="1.8680220">
<ele>426.750458</ele>
<time>2022-09-08T09:13:09.998Z</time>
</trkpt>
<trkpt lat="41.9420340" lon="1.8680620">
<ele>427.268646</ele>
<time>2022-09-08T09:13:11.001Z</time>
</trkpt>
<trkpt lat="41.9420470" lon="1.8680950">
<ele>427.695343</ele>
<time>2022-09-08T09:13:12.003Z</time>
</trkpt>
<trkpt lat="41.9420580" lon="1.8681320">
<ele>428.122070</ele>
<time>2022-09-08T09:13:12.996Z</time>
</trkpt>
<trkpt lat="41.9420690" lon="1.8681700">
<ele>428.579285</ele>
<time>2022-09-08T09:13:13.999Z</time>
</trkpt>
<trkpt lat="41.9420810" lon="1.8682070">
<ele>428.975525</ele>
<time>2022-09-08T09:13:15.001Z</time>
</trkpt>
<trkpt lat="41.9420940" lon="1.8682390">
<ele>429.280334</ele>
<time>2022-09-08T09:13:16.003Z</time>
</trkpt>
<trkpt lat="41.9421120" lon="1.8682850">
<ele>429.646088</ele>
<time>2022-09-08T09:13:16.997Z</time>
</trkpt>
<trkpt lat="41.9421240" lon="1.8683150">
<ele>429.889923</ele>
<time>2022-09-08T09:13:17.999Z</time>
</trkpt>
<trkpt lat="41.9421360" lon="1.8683460">
<ele>430.133759</ele>
<time>2022-09-08T09:13:19.001Z</time>
</trkpt>
<trkpt lat="41.9421530" lon="1.8683750">
<ele>430.255676</ele>
<time>2022-09-08T09:13:20.004Z</time>
</trkpt>
<trkpt lat="41.9421740" lon="1.8684030">
<ele>430.347137</ele>
<time>2022-09-08T09:13:20.997Z</time>
</trkpt>
<trkpt lat="41.9421930" lon="1.8684280">
<ele>430.408081</ele>
<time>2022-09-08T09:13:21.999Z</time>
</trkpt>
<trkpt lat="41.9422120" lon="1.8684730">
<ele>430.712860</ele>
<time>2022-09-08T09:13:23.002Z</time>
</trkpt>
<trkpt lat="41.9422240" lon="1.8685140">
<ele>431.078644</ele>
<time>2022-09-08T09:13:24.004Z</time>
</trkpt>
<trkpt lat="41.9422300" lon="1.8685560">
<ele>431.535858</ele>
<time>2022-09-08T09:13:24.997Z</time>
</trkpt>
<trkpt lat="41.9422420" lon="1.8685900">
<ele>431.840668</ele>
<time>2022-09-08T09:13:26.000Z</time>
</trkpt>
<trkpt lat="41.9422550" lon="1.8686090">
<ele>431.932068</ele>
<time>2022-09-08T09:13:27.002Z</time>
</trkpt>
<trkpt lat="41.9422650" lon="1.8686310">
<ele>432.084473</ele>
<time>2022-09-08T09:13:28.004Z</time>
</trkpt>
<trkpt lat="41.9422720" lon="1.8686710">
<ele>432.602661</ele>
<time>2022-09-08T09:13:28.998Z</time>
</trkpt>
<trkpt lat="41.9422850" lon="1.8686980">
<ele>432.846466</ele>
<time>2022-09-08T09:13:30.000Z</time>
</trkpt>
<trkpt lat="41.9422950" lon="1.8687270">
<ele>433.151276</ele>
<time>2022-09-08T09:13:31.002Z</time>
</trkpt>
<trkpt lat="41.9422980" lon="1.8687480">
<ele>433.486542</ele>
<time>2022-09-08T09:13:31.996Z</time>
</trkpt>
<trkpt lat="41.9423050" lon="1.8687740">
<ele>433.730408</ele>
<time>2022-09-08T09:13:32.998Z</time>
</trkpt>
<trkpt lat="41.9423100" lon="1.8687960">
<ele>434.004730</ele>
<time>2022-09-08T09:13:34.000Z</time>
</trkpt>
<trkpt lat="41.9423130" lon="1.8688170">
<ele>434.248535</ele>
<time>2022-09-08T09:13:35.003Z</time>
</trkpt>
<trkpt lat="41.9423220" lon="1.8688370">
<ele>434.400940</ele>
<time>2022-09-08T09:13:35.996Z</time>
</trkpt>
<trkpt lat="41.9423310" lon="1.8688650">
<ele>434.644806</ele>
<time>2022-09-08T09:13:36.998Z</time>
</trkpt>
<trkpt lat="41.9423480" lon="1.8688920">
<ele>434.644806</ele>
<time>2022-09-08T09:13:38.001Z</time>
</trkpt>
<trkpt lat="41.9423660" lon="1.8689170">
<ele>434.614319</ele>
<time>2022-09-08T09:13:39.003Z</time>
</trkpt>
<trkpt lat="41.9423820" lon="1.8689400">
<ele>434.583862</ele>
<time>2022-09-08T09:13:39.996Z</time>
</trkpt>
<trkpt lat="41.9423950" lon="1.8689590">
<ele>434.614319</ele>
<time>2022-09-08T09:13:40.999Z</time>
</trkpt>
<trkpt lat="41.9424080" lon="1.8689740">
<ele>434.492401</ele>
<time>2022-09-08T09:13:42.001Z</time>
</trkpt>
<trkpt lat="41.9424250" lon="1.8689950">
<ele>434.461914</ele>
<time>2022-09-08T09:13:43.003Z</time>
</trkpt>
<trkpt lat="41.9424390" lon="1.8690110">
<ele>434.339996</ele>
<time>2022-09-08T09:13:43.997Z</time>
</trkpt>
<trkpt lat="41.9424510" lon="1.8690250">
<ele>434.279053</ele>
<time>2022-09-08T09:13:44.999Z</time>
</trkpt>
<trkpt lat="41.9424640" lon="1.8690340">
<ele>434.157135</ele>
<time>2022-09-08T09:13:46.001Z</time>
</trkpt>
<trkpt lat="41.9424840" lon="1.8690500">
<ele>433.882813</ele>
<time>2022-09-08T09:13:47.004Z</time>
</trkpt>
<trkpt lat="41.9425050" lon="1.8690670">
<ele>433.699921</ele>
<time>2022-09-08T09:13:47.997Z</time>
</trkpt>
<trkpt lat="41.9425300" lon="1.8690830">
<ele>433.364655</ele>
<time>2022-09-08T09:13:48.999Z</time>
</trkpt>
<trkpt lat="41.9425520" lon="1.8691050">
<ele>433.273193</ele>
<time>2022-09-08T09:13:50.002Z</time>
</trkpt>
<trkpt lat="41.9425730" lon="1.8691230">
<ele>433.029358</ele>
<time>2022-09-08T09:13:51.004Z</time>
</trkpt>
<trkpt lat="41.9425960" lon="1.8691470">
<ele>432.937927</ele>
<time>2022-09-08T09:13:51.997Z</time>
</trkpt>
<trkpt lat="41.9426230" lon="1.8691610">
<ele>432.602661</ele>
<time>2022-09-08T09:13:53.000Z</time>
</trkpt>
<trkpt lat="41.9426440" lon="1.8691830">
<ele>432.572144</ele>
<time>2022-09-08T09:13:54.002Z</time>
</trkpt>
<trkpt lat="41.9426640" lon="1.8692030">
<ele>432.450256</ele>
<time>2022-09-08T09:13:55.004Z</time>
</trkpt>
<trkpt lat="41.9426830" lon="1.8692170">
<ele>432.358795</ele>
<time>2022-09-08T09:13:55.998Z</time>
</trkpt>
<trkpt lat="41.9426980" lon="1.8692320">
<ele>432.328339</ele>
<time>2022-09-08T09:13:57.000Z</time>
</trkpt>
<trkpt lat="41.9427130" lon="1.8692520">
<ele>432.389282</ele>
<time>2022-09-08T09:13:58.002Z</time>
</trkpt>
<trkpt lat="41.9427380" lon="1.8692700">
<ele>432.328339</ele>
<time>2022-09-08T09:13:58.996Z</time>
</trkpt>
<trkpt lat="41.9427610" lon="1.8692820">
<ele>432.236877</ele>
<time>2022-09-08T09:13:59.998Z</time>
</trkpt>
<trkpt lat="41.9427880" lon="1.8692940">
<ele>432.114960</ele>
<time>2022-09-08T09:14:01.000Z</time>
</trkpt>
<trkpt lat="41.9428190" lon="1.8693040">
<ele>431.962555</ele>
<time>2022-09-08T09:14:02.003Z</time>
</trkpt>
<trkpt lat="41.9428420" lon="1.8693210">
<ele>432.023529</ele>
<time>2022-09-08T09:14:02.996Z</time>
</trkpt>
<trkpt lat="41.9428680" lon="1.8693390">
<ele>432.145447</ele>
<time>2022-09-08T09:14:03.998Z</time>
</trkpt>
<trkpt lat="41.9428870" lon="1.8693630">
<ele>432.450256</ele>
<time>2022-09-08T09:14:05.001Z</time>
</trkpt>
<trkpt lat="41.9429060" lon="1.8693850">
<ele>432.755066</ele>
<time>2022-09-08T09:14:06.003Z</time>
</trkpt>
<trkpt lat="41.9429270" lon="1.8694090">
<ele>433.029358</ele>
<time>2022-09-08T09:14:06.996Z</time>
</trkpt>
<trkpt lat="41.9429520" lon="1.8694340">
<ele>433.273193</ele>
<time>2022-09-08T09:14:07.999Z</time>
</trkpt>
<trkpt lat="41.9429700" lon="1.8694550">
<ele>433.517059</ele>
<time>2022-09-08T09:14:09.001Z</time>
</trkpt>
<trkpt lat="41.9429890" lon="1.8694720">
<ele>433.730408</ele>
<time>2022-09-08T09:14:10.003Z</time>
</trkpt>
<trkpt lat="41.9430070" lon="1.8694930">
<ele>434.004730</ele>
<time>2022-09-08T09:14:10.997Z</time>
</trkpt>
<trkpt lat="41.9430220" lon="1.8695110">
<ele>434.309540</ele>
<time>2022-09-08T09:14:11.999Z</time>
</trkpt>
<trkpt lat="41.9430380" lon="1.8695280">
<ele>434.583862</ele>
<time>2022-09-08T09:14:13.001Z</time>
</trkpt>
<trkpt lat="41.9430530" lon="1.8695420">
<ele>434.797211</ele>
<time>2022-09-08T09:14:14.004Z</time>
</trkpt>
<trkpt lat="41.9430680" lon="1.8695530">
<ele>434.949585</ele>
<time>2022-09-08T09:14:14.997Z</time>
</trkpt>
<trkpt lat="41.9430870" lon="1.8695650">
<ele>435.132477</ele>
<time>2022-09-08T09:14:15.999Z</time>
</trkpt>
<trkpt lat="41.9431070" lon="1.8695760">
<ele>435.315338</ele>
<time>2022-09-08T09:14:17.002Z</time>
</trkpt>
<trkpt lat="41.9431260" lon="1.8695890">
<ele>435.528717</ele>
<time>2022-09-08T09:14:18.004Z</time>
</trkpt>
<trkpt lat="41.9431460" lon="1.8696050">
<ele>435.742065</ele>
<time>2022-09-08T09:14:18.997Z</time>
</trkpt>
<trkpt lat="41.9431600" lon="1.8696210">
<ele>435.985931</ele>
<time>2022-09-08T09:14:20.000Z</time>
</trkpt>
<trkpt lat="41.9431720" lon="1.8696380">
<ele>436.229736</ele>
<time>2022-09-08T09:14:21.002Z</time>
</trkpt>
<trkpt lat="41.9431850" lon="1.8696530">
<ele>436.473602</ele>
<time>2022-09-08T09:14:22.004Z</time>
</trkpt>
<trkpt lat="41.9431990" lon="1.8696600">
<ele>436.565063</ele>
<time>2022-09-08T09:14:22.998Z</time>
</trkpt>
<trkpt lat="41.9432160" lon="1.8696600">
<ele>436.534546</ele>
<time>2022-09-08T09:14:24.000Z</time>
</trkpt>
<trkpt lat="41.9432390" lon="1.8696590">
<ele>436.504059</ele>
<time>2022-09-08T09:14:25.002Z</time>
</trkpt>
<trkpt lat="41.9432620" lon="1.8696610">
<ele>436.534546</ele>
<time>2022-09-08T09:14:25.996Z</time>
</trkpt>
<trkpt lat="41.9432770" lon="1.8696590">
<ele>436.504059</ele>
<time>2022-09-08T09:14:26.998Z</time>
</trkpt>
<trkpt lat="41.9432920" lon="1.8696510">
<ele>436.412659</ele>
<time>2022-09-08T09:14:28.000Z</time>
</trkpt>
<trkpt lat="41.9433120" lon="1.8696370">
<ele>436.290741</ele>
<time>2022-09-08T09:14:29.003Z</time>
</trkpt>
<trkpt lat="41.9433270" lon="1.8696250">
<ele>436.199280</ele>
<time>2022-09-08T09:14:29.996Z</time>
</trkpt>
<trkpt lat="41.9433480" lon="1.8696110">
<ele>436.107849</ele>
<time>2022-09-08T09:14:30.998Z</time>
</trkpt>
<trkpt lat="41.9433720" lon="1.8695900">
<ele>435.985931</ele>
<time>2022-09-08T09:14:32.001Z</time>
</trkpt>
<trkpt lat="41.9433920" lon="1.8695730">
<ele>435.894470</ele>
<time>2022-09-08T09:14:33.003Z</time>
</trkpt>
<trkpt lat="41.9434110" lon="1.8695530">
<ele>435.742065</ele>
<time>2022-09-08T09:14:33.996Z</time>
</trkpt>
<trkpt lat="41.9434320" lon="1.8695290">
<ele>435.559204</ele>
<time>2022-09-08T09:14:34.999Z</time>
</trkpt>
<trkpt lat="41.9434540" lon="1.8695030">
<ele>435.467743</ele>
<time>2022-09-08T09:14:36.001Z</time>
</trkpt>
<trkpt lat="41.9434730" lon="1.8694730">
<ele>435.315338</ele>
<time>2022-09-08T09:14:37.003Z</time>
</trkpt>
<trkpt lat="41.9434900" lon="1.8694460">
<ele>435.223938</ele>
<time>2022-09-08T09:14:37.997Z</time>
</trkpt>
<trkpt lat="41.9435090" lon="1.8694280">
<ele>435.315338</ele>
<time>2022-09-08T09:14:38.999Z</time>
</trkpt>
<trkpt lat="41.9435260" lon="1.8694220">
<ele>435.589661</ele>
<time>2022-09-08T09:14:40.001Z</time>
</trkpt>
<trkpt lat="41.9435410" lon="1.8694220">
<ele>435.864014</ele>
<time>2022-09-08T09:14:41.004Z</time>
</trkpt>
<trkpt lat="41.9435570" lon="1.8694200">
<ele>436.107849</ele>
<time>2022-09-08T09:14:41.997Z</time>
</trkpt>
<trkpt lat="41.9435730" lon="1.8694120">
<ele>436.321198</ele>
<time>2022-09-08T09:14:42.999Z</time>
</trkpt>
<trkpt lat="41.9435900" lon="1.8693960">
<ele>436.473602</ele>
<time>2022-09-08T09:14:44.002Z</time>
</trkpt>
<trkpt lat="41.9436030" lon="1.8693750">
<ele>436.626007</ele>
<time>2022-09-08T09:14:45.004Z</time>
</trkpt>
<trkpt lat="41.9436110" lon="1.8693500">
<ele>436.595520</ele>
<time>2022-09-08T09:14:45.997Z</time>
</trkpt>
<trkpt lat="41.9436130" lon="1.8693240">
<ele>436.382141</ele>
<time>2022-09-08T09:14:47.000Z</time>
</trkpt>
<trkpt lat="41.9436150" lon="1.8692960">
<ele>436.290741</ele>
<time>2022-09-08T09:14:48.002Z</time>
</trkpt>
<trkpt lat="41.9436210" lon="1.8692730">
<ele>436.321198</ele>
<time>2022-09-08T09:14:49.004Z</time>
</trkpt>
<trkpt lat="41.9436340" lon="1.8692590">
<ele>436.504059</ele>
<time>2022-09-08T09:14:49.998Z</time>
</trkpt>
<trkpt lat="41.9436460" lon="1.8692570">
<ele>436.747925</ele>
<time>2022-09-08T09:14:51.000Z</time>
</trkpt>
<trkpt lat="41.9436600" lon="1.8692680">
<ele>437.174652</ele>
<time>2022-09-08T09:14:52.002Z</time>
</trkpt>
<trkpt lat="41.9436720" lon="1.8692820">
<ele>437.540405</ele>
<time>2022-09-08T09:14:52.996Z</time>
</trkpt>
<trkpt lat="41.9436830" lon="1.8693030">
<ele>437.936646</ele>
<time>2022-09-08T09:14:53.998Z</time>
</trkpt>
<trkpt lat="41.9436900" lon="1.8693240">
<ele>438.271942</ele>
<time>2022-09-08T09:14:55.000Z</time>
</trkpt>
<trkpt lat="41.9436950" lon="1.8693450">
<ele>438.515747</ele>
<time>2022-09-08T09:14:56.003Z</time>
</trkpt>
<trkpt lat="41.9437030" lon="1.8693640">
<ele>438.851044</ele>
<time>2022-09-08T09:14:56.996Z</time>
</trkpt>
<trkpt lat="41.9437150" lon="1.8693820">
<ele>439.247284</ele>
<time>2022-09-08T09:14:57.998Z</time>
</trkpt>
<trkpt lat="41.9437240" lon="1.8694010">
<ele>439.704468</ele>
<time>2022-09-08T09:14:59.001Z</time>
</trkpt>
<trkpt lat="41.9437310" lon="1.8694290">
<ele>440.009277</ele>
<time>2022-09-08T09:15:00.003Z</time>
</trkpt>
<trkpt lat="41.9437420" lon="1.8694580">
<ele>440.557922</ele>
<time>2022-09-08T09:15:00.996Z</time>
</trkpt>
<trkpt lat="41.9437570" lon="1.8694880">
<ele>441.197998</ele>
<time>2022-09-08T09:15:01.999Z</time>
</trkpt>
<trkpt lat="41.9437760" lon="1.8695050">
<ele>441.746643</ele>
<time>2022-09-08T09:15:03.001Z</time>
</trkpt>
<trkpt lat="41.9437930" lon="1.8694980">
<ele>442.081940</ele>
<time>2022-09-08T09:15:04.003Z</time>
</trkpt>
<trkpt lat="41.9437990" lon="1.8694750">
<ele>441.959991</ele>
<time>2022-09-08T09:15:04.997Z</time>
</trkpt>
<trkpt lat="41.9438000" lon="1.8694510">
<ele>441.838074</ele>
<time>2022-09-08T09:15:05.999Z</time>
</trkpt>
<trkpt lat="41.9438010" lon="1.8694230">
<ele>441.624725</ele>
<time>2022-09-08T09:15:07.001Z</time>
</trkpt>
<trkpt lat="41.9437960" lon="1.8693920">
<ele>441.228485</ele>
<time>2022-09-08T09:15:08.004Z</time>
</trkpt>
<trkpt lat="41.9437870" lon="1.8693640">
<ele>440.862732</ele>
<time>2022-09-08T09:15:08.997Z</time>
</trkpt>
<trkpt lat="41.9437800" lon="1.8693310">
<ele>440.496948</ele>
<time>2022-09-08T09:15:09.999Z</time>
</trkpt>
<trkpt lat="41.9437740" lon="1.8692980">
<ele>440.192139</ele>
<time>2022-09-08T09:15:11.002Z</time>
</trkpt>
<trkpt lat="41.9437750" lon="1.8692650">
<ele>440.009277</ele>
<time>2022-09-08T09:15:12.004Z</time>
</trkpt>
<trkpt lat="41.9437850" lon="1.8692350">
<ele>440.100739</ele>
<time>2022-09-08T09:15:12.997Z</time>
</trkpt>
<trkpt lat="41.9437940" lon="1.8692070">
<ele>440.131195</ele>
<time>2022-09-08T09:15:14.000Z</time>
</trkpt>
<trkpt lat="41.9437940" lon="1.8691810">
<ele>440.009277</ele>
<time>2022-09-08T09:15:15.002Z</time>
</trkpt>
<trkpt lat="41.9437940" lon="1.8691510">
<ele>439.856873</ele>
<time>2022-09-08T09:15:16.004Z</time>
</trkpt>
<trkpt lat="41.9437980" lon="1.8691220">
<ele>439.795929</ele>
<time>2022-09-08T09:15:16.998Z</time>
</trkpt>
<trkpt lat="41.9438140" lon="1.8690940">
<ele>440.009277</ele>
<time>2022-09-08T09:15:18.000Z</time>
</trkpt>
<trkpt lat="41.9438380" lon="1.8690610">
<ele>440.375061</ele>
<time>2022-09-08T09:15:19.002Z</time>
</trkpt>
<trkpt lat="41.9438570" lon="1.8690310">
<ele>440.649353</ele>
<time>2022-09-08T09:15:19.996Z</time>
</trkpt>
<trkpt lat="41.9438690" lon="1.8689970">
<ele>440.801758</ele>
<time>2022-09-08T09:15:20.998Z</time>
</trkpt>
<trkpt lat="41.9438780" lon="1.8689610">
<ele>440.771271</ele>
<time>2022-09-08T09:15:22.000Z</time>
</trkpt>
<trkpt lat="41.9438840" lon="1.8689160">
<ele>440.679840</ele>
<time>2022-09-08T09:15:23.003Z</time>
</trkpt>
<trkpt lat="41.9438920" lon="1.8688690">
<ele>440.527466</ele>
<time>2022-09-08T09:15:23.996Z</time>
</trkpt>
<trkpt lat="41.9439030" lon="1.8688270">
<ele>440.466461</ele>
<time>2022-09-08T09:15:24.998Z</time>
</trkpt>
<trkpt lat="41.9439160" lon="1.8687950">
<ele>440.466461</ele>
<time>2022-09-08T09:15:26.001Z</time>
</trkpt>
<trkpt lat="41.9439290" lon="1.8687660">
<ele>440.436005</ele>
<time>2022-09-08T09:15:27.003Z</time>
</trkpt>
<trkpt lat="41.9439420" lon="1.8687360">
<ele>440.466461</ele>
<time>2022-09-08T09:15:27.996Z</time>
</trkpt>
<trkpt lat="41.9439540" lon="1.8687140">
<ele>440.466461</ele>
<time>2022-09-08T09:15:28.999Z</time>
</trkpt>
<trkpt lat="41.9439640" lon="1.8686980">
<ele>440.466461</ele>
<time>2022-09-08T09:15:30.001Z</time>
</trkpt>
<trkpt lat="41.9439790" lon="1.8686800">
<ele>440.557922</ele>
<time>2022-09-08T09:15:31.003Z</time>
</trkpt>
<trkpt lat="41.9439950" lon="1.8686620">
<ele>440.710327</ele>
<time>2022-09-08T09:15:31.997Z</time>
</trkpt>
<trkpt lat="41.9440080" lon="1.8686460">
<ele>440.740814</ele>
<time>2022-09-08T09:15:32.999Z</time>
</trkpt>
<trkpt lat="41.9440190" lon="1.8686230">
<ele>440.710327</ele>
<time>2022-09-08T09:15:34.001Z</time>
</trkpt>
<trkpt lat="41.9440320" lon="1.8686050">
<ele>440.679840</ele>
<time>2022-09-08T09:15:35.004Z</time>
</trkpt>
<trkpt lat="41.9440480" lon="1.8685930">
<ele>440.832245</ele>
<time>2022-09-08T09:15:35.997Z</time>
</trkpt>
<trkpt lat="41.9440630" lon="1.8685830">
<ele>440.893188</ele>
<time>2022-09-08T09:15:36.999Z</time>
</trkpt>
<trkpt lat="41.9440790" lon="1.8685770">
<ele>441.076080</ele>
<time>2022-09-08T09:15:38.002Z</time>
</trkpt>
<trkpt lat="41.9440920" lon="1.8685680">
<ele>441.137054</ele>
<time>2022-09-08T09:15:39.004Z</time>
</trkpt>
<trkpt lat="41.9441060" lon="1.8685670">
<ele>441.319916</ele>
<time>2022-09-08T09:15:39.997Z</time>
</trkpt>
<trkpt lat="41.9441180" lon="1.8685720">
<ele>441.502808</ele>
<time>2022-09-08T09:15:41.000Z</time>
</trkpt>
<trkpt lat="41.9441310" lon="1.8685790">
<ele>441.746643</ele>
<time>2022-09-08T09:15:42.002Z</time>
</trkpt>
<trkpt lat="41.9441490" lon="1.8685810">
<ele>442.020935</ele>
<time>2022-09-08T09:15:43.004Z</time>
</trkpt>
<trkpt lat="41.9441670" lon="1.8685840">
<ele>442.295258</ele>
<time>2022-09-08T09:15:43.998Z</time>
</trkpt>
<trkpt lat="41.9441840" lon="1.8685890">
<ele>442.569611</ele>
<time>2022-09-08T09:15:45.000Z</time>
</trkpt>
<trkpt lat="41.9441990" lon="1.8685900">
<ele>442.782959</ele>
<time>2022-09-08T09:15:46.002Z</time>
</trkpt>
<trkpt lat="41.9442170" lon="1.8685910">
<ele>443.026794</ele>
<time>2022-09-08T09:15:46.996Z</time>
</trkpt>
<trkpt lat="41.9442430" lon="1.8685950">
<ele>443.453522</ele>
<time>2022-09-08T09:15:47.998Z</time>
</trkpt>
<trkpt lat="41.9442670" lon="1.8685970">
<ele>443.758331</ele>
<time>2022-09-08T09:15:49.000Z</time>
</trkpt>
<trkpt lat="41.9442870" lon="1.8686020">
<ele>444.093597</ele>
<time>2022-09-08T09:15:50.003Z</time>
</trkpt>
<trkpt lat="41.9443070" lon="1.8686130">
<ele>444.520325</ele>
<time>2022-09-08T09:15:50.996Z</time>
</trkpt>
<trkpt lat="41.9443290" lon="1.8686090">
<ele>444.733673</ele>
<time>2022-09-08T09:15:51.998Z</time>
</trkpt>
<trkpt lat="41.9443480" lon="1.8686080">
<ele>444.977539</ele>
<time>2022-09-08T09:15:53.001Z</time>
</trkpt>
<trkpt lat="41.9443670" lon="1.8686080">
<ele>445.221344</ele>
<time>2022-09-08T09:15:54.003Z</time>
</trkpt>
<trkpt lat="41.9443890" lon="1.8686090">
<ele>445.526154</ele>
<time>2022-09-08T09:15:54.996Z</time>
</trkpt>
<trkpt lat="41.9444150" lon="1.8686120">
<ele>445.922394</ele>
<time>2022-09-08T09:15:55.999Z</time>
</trkpt>
<trkpt lat="41.9444570" lon="1.8686220">
<ele>446.653931</ele>
<time>2022-09-08T09:15:57.001Z</time>
</trkpt>
<trkpt lat="41.9444960" lon="1.8686320">
<ele>447.354950</ele>
<time>2022-09-08T09:15:58.003Z</time>
</trkpt>
<trkpt lat="41.9445310" lon="1.8686380">
<ele>447.934082</ele>
<time>2022-09-08T09:15:58.997Z</time>
</trkpt>
<trkpt lat="41.9445530" lon="1.8686480">
<ele>448.421753</ele>
<time>2022-09-08T09:15:59.999Z</time>
</trkpt>
<trkpt lat="41.9445650" lon="1.8686670">
<ele>449.000885</ele>
<time>2022-09-08T09:16:01.001Z</time>
</trkpt>
<trkpt lat="41.9445750" lon="1.8686970">
<ele>449.762878</ele>
<time>2022-09-08T09:16:02.004Z</time>
</trkpt>
<trkpt lat="41.9445930" lon="1.8687220">
<ele>450.524872</ele>
<time>2022-09-08T09:16:02.997Z</time>
</trkpt>
<trkpt lat="41.9446140" lon="1.8687330">
<ele>451.104004</ele>
<time>2022-09-08T09:16:03.999Z</time>
</trkpt>
<trkpt lat="41.9446410" lon="1.8687420">
<ele>451.713593</ele>
<time>2022-09-08T09:16:05.002Z</time>
</trkpt>
<trkpt lat="41.9446600" lon="1.8687570">
<ele>452.292725</ele>
<time>2022-09-08T09:16:06.004Z</time>
</trkpt>
<trkpt lat="41.9446700" lon="1.8687770">
<ele>452.902313</ele>
<time>2022-09-08T09:16:06.997Z</time>
</trkpt>
<trkpt lat="41.9446790" lon="1.8688040">
<ele>453.542389</ele>
<time>2022-09-08T09:16:08.000Z</time>
</trkpt>
<trkpt lat="41.9446950" lon="1.8688440">
<ele>454.548248</ele>
<time>2022-09-08T09:16:09.002Z</time>
</trkpt>
<trkpt lat="41.9447010" lon="1.8688780">
<ele>455.279755</ele>
<time>2022-09-08T09:16:10.004Z</time>
</trkpt>
<trkpt lat="41.9447010" lon="1.8689140">
<ele>455.919861</ele>
<time>2022-09-08T09:16:10.998Z</time>
</trkpt>
<trkpt lat="41.9447150" lon="1.8689590">
<ele>456.834259</ele>
<time>2022-09-08T09:16:12.000Z</time>
</trkpt>
<trkpt lat="41.9447180" lon="1.8689820">
<ele>457.260956</ele>
<time>2022-09-08T09:16:13.002Z</time>
</trkpt>
<trkpt lat="41.9447240" lon="1.8690050">
<ele>457.718140</ele>
<time>2022-09-08T09:16:13.996Z</time>
</trkpt>
<trkpt lat="41.9447520" lon="1.8690390">
<ele>458.541138</ele>
<time>2022-09-08T09:16:14.998Z</time>
</trkpt>
<trkpt lat="41.9447670" lon="1.8690550">
<ele>458.967865</ele>
<time>2022-09-08T09:16:16.000Z</time>
</trkpt>
<trkpt lat="41.9447710" lon="1.8690800">
<ele>459.364075</ele>
<time>2022-09-08T09:16:17.003Z</time>
</trkpt>
<trkpt lat="41.9447840" lon="1.8691070">
<ele>459.882263</ele>
<time>2022-09-08T09:16:17.996Z</time>
</trkpt>
<trkpt lat="41.9447940" lon="1.8691380">
<ele>460.430878</ele>
<time>2022-09-08T09:16:18.998Z</time>
</trkpt>
<trkpt lat="41.9448010" lon="1.8691570">
<ele>460.766144</ele>
<time>2022-09-08T09:16:20.001Z</time>
</trkpt>
<trkpt lat="41.9448100" lon="1.8691870">
<ele>461.223358</ele>
<time>2022-09-08T09:16:21.003Z</time>
</trkpt>
<trkpt lat="41.9448190" lon="1.8692010">
<ele>461.528137</ele>
<time>2022-09-08T09:16:21.996Z</time>
</trkpt>
<trkpt lat="41.9448290" lon="1.8692170">
<ele>461.802460</ele>
<time>2022-09-08T09:16:22.999Z</time>
</trkpt>
<trkpt lat="41.9448420" lon="1.8692320">
<ele>462.168243</ele>
<time>2022-09-08T09:16:24.001Z</time>
</trkpt>
<trkpt lat="41.9448540" lon="1.8692450">
<ele>462.442535</ele>
<time>2022-09-08T09:16:25.003Z</time>
</trkpt>
<trkpt lat="41.9448710" lon="1.8692540">
<ele>462.686401</ele>
<time>2022-09-08T09:16:25.997Z</time>
</trkpt>
<trkpt lat="41.9448830" lon="1.8692600">
<ele>462.869263</ele>
<time>2022-09-08T09:16:26.999Z</time>
</trkpt>
<trkpt lat="41.9448980" lon="1.8692660">
<ele>463.082642</ele>
<time>2022-09-08T09:16:28.001Z</time>
</trkpt>
<trkpt lat="41.9449150" lon="1.8692800">
<ele>463.417938</ele>
<time>2022-09-08T09:16:29.004Z</time>
</trkpt>
<trkpt lat="41.9449310" lon="1.8692980">
<ele>463.783661</ele>
<time>2022-09-08T09:16:29.997Z</time>
</trkpt>
<trkpt lat="41.9449480" lon="1.8693120">
<ele>464.058014</ele>
<time>2022-09-08T09:16:30.999Z</time>
</trkpt>
<trkpt lat="41.9449640" lon="1.8693250">
<ele>464.393280</ele>
<time>2022-09-08T09:16:32.002Z</time>
</trkpt>
<trkpt lat="41.9449780" lon="1.8693360">
<ele>464.606659</ele>
<time>2022-09-08T09:16:33.004Z</time>
</trkpt>
<trkpt lat="41.9449930" lon="1.8693530">
<ele>464.941925</ele>
<time>2022-09-08T09:16:33.997Z</time>
</trkpt>
<trkpt lat="41.9450100" lon="1.8693630">
<ele>465.216248</ele>
<time>2022-09-08T09:16:35.000Z</time>
</trkpt>
<trkpt lat="41.9450250" lon="1.8693700">
<ele>465.399139</ele>
<time>2022-09-08T09:16:36.002Z</time>
</trkpt>
<trkpt lat="41.9450410" lon="1.8693780">
<ele>465.612488</ele>
<time>2022-09-08T09:16:37.004Z</time>
</trkpt>
<trkpt lat="41.9450530" lon="1.8693820">
<ele>465.734406</ele>
<time>2022-09-08T09:16:37.998Z</time>
</trkpt>
<trkpt lat="41.9450650" lon="1.8693850">
<ele>465.825867</ele>
<time>2022-09-08T09:16:39.000Z</time>
</trkpt>
<trkpt lat="41.9450820" lon="1.8693910">
<ele>466.039215</ele>
<time>2022-09-08T09:16:40.002Z</time>
</trkpt>
<trkpt lat="41.9451000" lon="1.8694130">
<ele>466.435455</ele>
<time>2022-09-08T09:16:40.996Z</time>
</trkpt>
<trkpt lat="41.9451190" lon="1.8694390">
<ele>466.923126</ele>
<time>2022-09-08T09:16:41.998Z</time>
</trkpt>
<trkpt lat="41.9451320" lon="1.8694590">
<ele>467.319336</ele>
<time>2022-09-08T09:16:43.000Z</time>
</trkpt>
<trkpt lat="41.9451390" lon="1.8694770">
<ele>467.624146</ele>
<time>2022-09-08T09:16:44.003Z</time>
</trkpt>
<trkpt lat="41.9451520" lon="1.8695020">
<ele>468.081360</ele>
<time>2022-09-08T09:16:44.996Z</time>
</trkpt>
<trkpt lat="41.9451710" lon="1.8695210">
<ele>468.508087</ele>
<time>2022-09-08T09:16:45.998Z</time>
</trkpt>
<trkpt lat="41.9451900" lon="1.8695450">
<ele>469.026245</ele>
<time>2022-09-08T09:16:47.001Z</time>
</trkpt>
<trkpt lat="41.9452070" lon="1.8695620">
<ele>469.422485</ele>
<time>2022-09-08T09:16:48.003Z</time>
</trkpt>
<trkpt lat="41.9452350" lon="1.8695830">
<ele>470.001587</ele>
<time>2022-09-08T09:16:48.996Z</time>
</trkpt>
<trkpt lat="41.9452570" lon="1.8695940">
<ele>470.336884</ele>
<time>2022-09-08T09:16:49.999Z</time>
</trkpt>
<trkpt lat="41.9452800" lon="1.8696080">
<ele>470.733124</ele>
<time>2022-09-08T09:16:51.001Z</time>
</trkpt>
<trkpt lat="41.9453000" lon="1.8696250">
<ele>471.220795</ele>
<time>2022-09-08T09:16:52.003Z</time>
</trkpt>
<trkpt lat="41.9453190" lon="1.8696420">
<ele>471.647522</ele>
<time>2022-09-08T09:16:52.997Z</time>
</trkpt>
<trkpt lat="41.9453370" lon="1.8696470">
<ele>471.860870</ele>
<time>2022-09-08T09:16:53.999Z</time>
</trkpt>
<trkpt lat="41.9453550" lon="1.8696580">
<ele>472.196136</ele>
<time>2022-09-08T09:16:55.001Z</time>
</trkpt>
<trkpt lat="41.9453830" lon="1.8696790">
<ele>472.744812</ele>
<time>2022-09-08T09:16:56.004Z</time>
</trkpt>
<trkpt lat="41.9454180" lon="1.8696980">
<ele>473.384888</ele>
<time>2022-09-08T09:16:56.997Z</time>
</trkpt>
<trkpt lat="41.9454330" lon="1.8696930">
<ele>473.506805</ele>
<time>2022-09-08T09:16:57.999Z</time>
</trkpt>
<trkpt lat="41.9454600" lon="1.8696820">
<ele>473.628723</ele>
<time>2022-09-08T09:16:59.002Z</time>
</trkpt>
<trkpt lat="41.9454840" lon="1.8696750">
<ele>473.781128</ele>
<time>2022-09-08T09:17:00.004Z</time>
</trkpt>
<trkpt lat="41.9455100" lon="1.8696690">
<ele>473.994476</ele>
<time>2022-09-08T09:17:00.997Z</time>
</trkpt>
<trkpt lat="41.9455310" lon="1.8696540">
<ele>473.933533</ele>
<time>2022-09-08T09:17:02.000Z</time>
</trkpt>
<trkpt lat="41.9455500" lon="1.8696480">
<ele>474.024933</ele>
<time>2022-09-08T09:17:03.002Z</time>
</trkpt>
<trkpt lat="41.9455660" lon="1.8696510">
<ele>474.268799</ele>
<time>2022-09-08T09:17:04.004Z</time>
</trkpt>
<trkpt lat="41.9455830" lon="1.8696500">
<ele>474.451660</ele>
<time>2022-09-08T09:17:04.998Z</time>
</trkpt>
<trkpt lat="41.9456140" lon="1.8696560">
<ele>474.908875</ele>
<time>2022-09-08T09:17:06.000Z</time>
</trkpt>
<trkpt lat="41.9456470" lon="1.8696490">
<ele>475.122253</ele>
<time>2022-09-08T09:17:07.002Z</time>
</trkpt>
<trkpt lat="41.9456730" lon="1.8696340">
<ele>475.061279</ele>
<time>2022-09-08T09:17:07.996Z</time>
</trkpt>
<trkpt lat="41.9456890" lon="1.8696240">
<ele>475.000336</ele>
<time>2022-09-08T09:17:08.998Z</time>
</trkpt>
<trkpt lat="41.9457120" lon="1.8696170">
<ele>475.061279</ele>
<time>2022-09-08T09:17:10.000Z</time>
</trkpt>
<trkpt lat="41.9457360" lon="1.8696150">
<ele>475.213684</ele>
<time>2022-09-08T09:17:11.003Z</time>
</trkpt>
<trkpt lat="41.9457570" lon="1.8696160">
<ele>475.396545</ele>
<time>2022-09-08T09:17:11.996Z</time>
</trkpt>
<trkpt lat="41.9457780" lon="1.8696190">
<ele>475.579468</ele>
<time>2022-09-08T09:17:12.998Z</time>
</trkpt>
<trkpt lat="41.9458020" lon="1.8696270">
<ele>475.884247</ele>
<time>2022-09-08T09:17:14.001Z</time>
</trkpt>
<trkpt lat="41.9458240" lon="1.8696390">
<ele>476.250000</ele>
<time>2022-09-08T09:17:15.003Z</time>
</trkpt>
<trkpt lat="41.9458460" lon="1.8696550">
<ele>476.676727</ele>
<time>2022-09-08T09:17:15.996Z</time>
</trkpt>
<trkpt lat="41.9458640" lon="1.8696700">
<ele>477.042480</ele>
<time>2022-09-08T09:17:16.999Z</time>
</trkpt>
<trkpt lat="41.9458820" lon="1.8696830">
<ele>477.347260</ele>
<time>2022-09-08T09:17:18.001Z</time>
</trkpt>
<trkpt lat="41.9459010" lon="1.8696950">
<ele>477.621613</ele>
<time>2022-09-08T09:17:19.003Z</time>
</trkpt>
<trkpt lat="41.9459170" lon="1.8697060">
<ele>477.865448</ele>
<time>2022-09-08T09:17:19.997Z</time>
</trkpt>
<trkpt lat="41.9459340" lon="1.8697120">
<ele>478.017853</ele>
<time>2022-09-08T09:17:20.999Z</time>
</trkpt>
<trkpt lat="41.9459540" lon="1.8697140">
<ele>478.078796</ele>
<time>2022-09-08T09:17:22.001Z</time>
</trkpt>
<trkpt lat="41.9459750" lon="1.8697160">
<ele>478.109283</ele>
<time>2022-09-08T09:17:23.004Z</time>
</trkpt>
<trkpt lat="41.9459960" lon="1.8697130">
<ele>478.017853</ele>
<time>2022-09-08T09:17:23.997Z</time>
</trkpt>
<trkpt lat="41.9460170" lon="1.8697090">
<ele>477.926392</ele>
<time>2022-09-08T09:17:24.999Z</time>
</trkpt>
<trkpt lat="41.9460390" lon="1.8697050">
<ele>477.804474</ele>
<time>2022-09-08T09:17:26.002Z</time>
</trkpt>
<trkpt lat="41.9460650" lon="1.8696990">
<ele>477.591125</ele>
<time>2022-09-08T09:17:27.004Z</time>
</trkpt>
<trkpt lat="41.9460900" lon="1.8696990">
<ele>477.499664</ele>
<time>2022-09-08T09:17:27.997Z</time>
</trkpt>
<trkpt lat="41.9461160" lon="1.8697050">
<ele>477.438721</ele>
<time>2022-09-08T09:17:29.000Z</time>
</trkpt>
<trkpt lat="41.9461400" lon="1.8697200">
<ele>477.560669</ele>
<time>2022-09-08T09:17:30.002Z</time>
</trkpt>
<trkpt lat="41.9461640" lon="1.8697400">
<ele>477.713043</ele>
<time>2022-09-08T09:17:31.004Z</time>
</trkpt>
<trkpt lat="41.9461840" lon="1.8697650">
<ele>477.987335</ele>
<time>2022-09-08T09:17:31.998Z</time>
</trkpt>
<trkpt lat="41.9461950" lon="1.8697970">
<ele>478.414063</ele>
<time>2022-09-08T09:17:33.000Z</time>
</trkpt>
<trkpt lat="41.9462010" lon="1.8698260">
<ele>478.810333</ele>
<time>2022-09-08T09:17:34.002Z</time>
</trkpt>
<trkpt lat="41.9462120" lon="1.8698520">
<ele>479.115112</ele>
<time>2022-09-08T09:17:34.996Z</time>
</trkpt>
<trkpt lat="41.9462260" lon="1.8698730">
<ele>479.328461</ele>
<time>2022-09-08T09:17:35.998Z</time>
</trkpt>
<trkpt lat="41.9462410" lon="1.8698960">
<ele>479.541870</ele>
<time>2022-09-08T09:17:37.000Z</time>
</trkpt>
<trkpt lat="41.9462520" lon="1.8699230">
<ele>479.816132</ele>
<time>2022-09-08T09:17:38.003Z</time>
</trkpt>
<trkpt lat="41.9462610" lon="1.8699500">
<ele>480.151459</ele>
<time>2022-09-08T09:17:38.996Z</time>
</trkpt>
<trkpt lat="41.9462680" lon="1.8699790">
<ele>480.608643</ele>
<time>2022-09-08T09:17:39.998Z</time>
</trkpt>
<trkpt lat="41.9462790" lon="1.8699990">
<ele>480.821991</ele>
<time>2022-09-08T09:17:41.001Z</time>
</trkpt>
<trkpt lat="41.9462920" lon="1.8700170">
<ele>480.974396</ele>
<time>2022-09-08T09:17:42.003Z</time>
</trkpt>
<trkpt lat="41.9463030" lon="1.8700370">
<ele>481.187744</ele>
<time>2022-09-08T09:17:42.996Z</time>
</trkpt>
<trkpt lat="41.9463140" lon="1.8700560">
<ele>481.370667</ele>
<time>2022-09-08T09:17:43.999Z</time>
</trkpt>
<trkpt lat="41.9463240" lon="1.8700790">
<ele>481.675446</ele>
<time>2022-09-08T09:17:45.001Z</time>
</trkpt>
<trkpt lat="41.9463380" lon="1.8700980">
<ele>481.827850</ele>
<time>2022-09-08T09:17:46.003Z</time>
</trkpt>
<trkpt lat="41.9463540" lon="1.8701120">
<ele>481.919281</ele>
<time>2022-09-08T09:17:46.997Z</time>
</trkpt>
<trkpt lat="41.9463660" lon="1.8701270">
<ele>482.041199</ele>
<time>2022-09-08T09:17:47.999Z</time>
</trkpt>
<trkpt lat="41.9463800" lon="1.8701430">
<ele>482.132660</ele>
<time>2022-09-08T09:17:49.001Z</time>
</trkpt>
<trkpt lat="41.9463970" lon="1.8701570">
<ele>482.193604</ele>
<time>2022-09-08T09:17:50.004Z</time>
</trkpt>
<trkpt lat="41.9464120" lon="1.8701720">
<ele>482.285065</ele>
<time>2022-09-08T09:17:50.997Z</time>
</trkpt>
<trkpt lat="41.9464310" lon="1.8701850">
<ele>482.285065</ele>
<time>2022-09-08T09:17:51.999Z</time>
</trkpt>
<trkpt lat="41.9464460" lon="1.8701960">
<ele>482.285065</ele>
<time>2022-09-08T09:17:53.002Z</time>
</trkpt>
<trkpt lat="41.9464660" lon="1.8702130">
<ele>482.346008</ele>
<time>2022-09-08T09:17:54.004Z</time>
</trkpt>
<trkpt lat="41.9464820" lon="1.8702250">
<ele>482.315521</ele>
<time>2022-09-08T09:17:54.997Z</time>
</trkpt>
<trkpt lat="41.9465050" lon="1.8702450">
<ele>482.406952</ele>
<time>2022-09-08T09:17:56.000Z</time>
</trkpt>
<trkpt lat="41.9465260" lon="1.8702580">
<ele>482.406952</ele>
<time>2022-09-08T09:17:57.002Z</time>
</trkpt>
<trkpt lat="41.9465410" lon="1.8702750">
<ele>482.528870</ele>
<time>2022-09-08T09:17:58.004Z</time>
</trkpt>
<trkpt lat="41.9465560" lon="1.8702960">
<ele>482.772736</ele>
<time>2022-09-08T09:17:58.998Z</time>
</trkpt>
<trkpt lat="41.9465750" lon="1.8703180">
<ele>482.986084</ele>
<time>2022-09-08T09:18:00.000Z</time>
</trkpt>
<trkpt lat="41.9465890" lon="1.8703500">
<ele>483.473755</ele>
<time>2022-09-08T09:18:01.002Z</time>
</trkpt>
<trkpt lat="41.9466030" lon="1.8703840">
<ele>484.144318</ele>
<time>2022-09-08T09:18:01.996Z</time>
</trkpt>
<trkpt lat="41.9466140" lon="1.8704140">
<ele>484.723450</ele>
<time>2022-09-08T09:18:02.998Z</time>
</trkpt>
<trkpt lat="41.9466290" lon="1.8704410">
<ele>485.302551</ele>
<time>2022-09-08T09:18:04.000Z</time>
</trkpt>
<trkpt lat="41.9466530" lon="1.8704670">
<ele>485.729279</ele>
<time>2022-09-08T09:18:05.003Z</time>
</trkpt>
<trkpt lat="41.9466700" lon="1.8704970">
<ele>486.369354</ele>
<time>2022-09-08T09:18:05.996Z</time>
</trkpt>
<trkpt lat="41.9466900" lon="1.8705320">
<ele>487.131348</ele>
<time>2022-09-08T09:18:06.998Z</time>
</trkpt>
<trkpt lat="41.9467120" lon="1.8705700">
<ele>487.954315</ele>
<time>2022-09-08T09:18:08.001Z</time>
</trkpt>
<trkpt lat="41.9467380" lon="1.8705980">
<ele>488.411530</ele>
<time>2022-09-08T09:18:09.003Z</time>
</trkpt>
<trkpt lat="41.9467630" lon="1.8706410">
<ele>489.386871</ele>
<time>2022-09-08T09:18:09.996Z</time>
</trkpt>
<trkpt lat="41.9467940" lon="1.8706620">
<ele>489.600250</ele>
<time>2022-09-08T09:18:10.999Z</time>
</trkpt>
<trkpt lat="41.9468180" lon="1.8706910">
<ele>490.087921</ele>
<time>2022-09-08T09:18:12.001Z</time>
</trkpt>
<trkpt lat="41.9468260" lon="1.8707310">
<ele>491.093750</ele>
<time>2022-09-08T09:18:13.003Z</time>
</trkpt>
<trkpt lat="41.9468440" lon="1.8707680">
<ele>491.916718</ele>
<time>2022-09-08T09:18:13.997Z</time>
</trkpt>
<trkpt lat="41.9468720" lon="1.8707960">
<ele>492.282471</ele>
<time>2022-09-08T09:18:14.999Z</time>
</trkpt>
<trkpt lat="41.9468910" lon="1.8708270">
<ele>492.831116</ele>
<time>2022-09-08T09:18:16.001Z</time>
</trkpt>
<trkpt lat="41.9469020" lon="1.8708720">
<ele>493.776001</ele>
<time>2022-09-08T09:18:17.004Z</time>
</trkpt>
<trkpt lat="41.9469100" lon="1.8709090">
<ele>494.537994</ele>
<time>2022-09-08T09:18:17.997Z</time>
</trkpt>
<trkpt lat="41.9469240" lon="1.8709380">
<ele>495.025665</ele>
<time>2022-09-08T09:18:18.999Z</time>
</trkpt>
<trkpt lat="41.9469410" lon="1.8709670">
<ele>495.360931</ele>
<time>2022-09-08T09:18:20.002Z</time>
</trkpt>
<trkpt lat="41.9469630" lon="1.8709870">
<ele>495.482880</ele>
<time>2022-09-08T09:18:21.004Z</time>
</trkpt>
<trkpt lat="41.9469910" lon="1.8709990">
<ele>495.391449</ele>
<time>2022-09-08T09:18:21.997Z</time>
</trkpt>
<trkpt lat="41.9470260" lon="1.8710040">
<ele>495.086670</ele>
<time>2022-09-08T09:18:23.000Z</time>
</trkpt>
<trkpt lat="41.9470690" lon="1.8710070">
<ele>494.690399</ele>
<time>2022-09-08T09:18:24.002Z</time>
</trkpt>
<trkpt lat="41.9471080" lon="1.8710080">
<ele>494.324646</ele>
<time>2022-09-08T09:18:25.004Z</time>
</trkpt>
<trkpt lat="41.9471390" lon="1.8710040">
<ele>494.050323</ele>
<time>2022-09-08T09:18:25.998Z</time>
</trkpt>
<trkpt lat="41.9471720" lon="1.8709970">
<ele>493.715057</ele>
<time>2022-09-08T09:18:27.000Z</time>
</trkpt>
<trkpt lat="41.9472080" lon="1.8709870">
<ele>493.318787</ele>
<time>2022-09-08T09:18:28.002Z</time>
</trkpt>
<trkpt lat="41.9472360" lon="1.8709830">
<ele>493.074951</ele>
<time>2022-09-08T09:18:28.996Z</time>
</trkpt>
<trkpt lat="41.9472570" lon="1.8709810">
<ele>492.922546</ele>
<time>2022-09-08T09:18:29.998Z</time>
</trkpt>
<trkpt lat="41.9472810" lon="1.8709760">
<ele>492.709198</ele>
<time>2022-09-08T09:18:31.000Z</time>
</trkpt>
<trkpt lat="41.9473090" lon="1.8709680">
<ele>492.434875</ele>
<time>2022-09-08T09:18:32.003Z</time>
</trkpt>
<trkpt lat="41.9473380" lon="1.8709550">
<ele>492.069122</ele>
<time>2022-09-08T09:18:32.996Z</time>
</trkpt>
<trkpt lat="41.9473610" lon="1.8709390">
<ele>491.672882</ele>
<time>2022-09-08T09:18:33.998Z</time>
</trkpt>
<trkpt lat="41.9473850" lon="1.8709190">
<ele>491.185211</ele>
<time>2022-09-08T09:18:35.001Z</time>
</trkpt>
<trkpt lat="41.9474190" lon="1.8709020">
<ele>490.727997</ele>
<time>2022-09-08T09:18:36.003Z</time>
</trkpt>
<trkpt lat="41.9474550" lon="1.8708810">
<ele>490.179352</ele>
<time>2022-09-08T09:18:36.996Z</time>
</trkpt>
<trkpt lat="41.9474810" lon="1.8708710">
<ele>489.935516</ele>
<time>2022-09-08T09:18:37.999Z</time>
</trkpt>
<trkpt lat="41.9475010" lon="1.8708590">
<ele>489.630737</ele>
<time>2022-09-08T09:18:39.001Z</time>
</trkpt>
<trkpt lat="41.9475300" lon="1.8708380">
<ele>489.112549</ele>
<time>2022-09-08T09:18:40.003Z</time>
</trkpt>
<trkpt lat="41.9475560" lon="1.8708280">
<ele>488.868713</ele>
<time>2022-09-08T09:18:40.997Z</time>
</trkpt>
<trkpt lat="41.9475840" lon="1.8708140">
<ele>488.533447</ele>
<time>2022-09-08T09:18:41.999Z</time>
</trkpt>
<trkpt lat="41.9476160" lon="1.8707860">
<ele>487.862885</ele>
<time>2022-09-08T09:18:43.001Z</time>
</trkpt>
<trkpt lat="41.9476440" lon="1.8707580">
<ele>487.222809</ele>
<time>2022-09-08T09:18:44.004Z</time>
</trkpt>
<trkpt lat="41.9476950" lon="1.8707380">
<ele>486.796082</ele>
<time>2022-09-08T09:18:44.997Z</time>
</trkpt>
<trkpt lat="41.9477330" lon="1.8707190">
<ele>486.399841</ele>
<time>2022-09-08T09:18:45.999Z</time>
</trkpt>
<trkpt lat="41.9477670" lon="1.8707030">
<ele>486.064545</ele>
<time>2022-09-08T09:18:47.002Z</time>
</trkpt>
<trkpt lat="41.9478090" lon="1.8707080">
<ele>486.308411</ele>
<time>2022-09-08T09:18:48.004Z</time>
</trkpt>
<trkpt lat="41.9478530" lon="1.8707210">
<ele>486.735138</ele>
<time>2022-09-08T09:18:48.997Z</time>
</trkpt>
<trkpt lat="41.9479150" lon="1.8707280">
<ele>487.070404</ele>
<time>2022-09-08T09:18:50.000Z</time>
</trkpt>
<trkpt lat="41.9479940" lon="1.8707230">
<ele>487.283752</ele>
<time>2022-09-08T09:18:51.002Z</time>
</trkpt>
<trkpt lat="41.9480740" lon="1.8706990">
<ele>487.161865</ele>
<time>2022-09-08T09:18:52.004Z</time>
</trkpt>
<trkpt lat="41.9481610" lon="1.8706540">
<ele>486.735138</ele>
<time>2022-09-08T09:18:52.998Z</time>
</trkpt>
<trkpt lat="41.9482310" lon="1.8706160">
<ele>486.338867</ele>
<time>2022-09-08T09:18:54.000Z</time>
</trkpt>
<trkpt lat="41.9482830" lon="1.8705860">
<ele>486.034058</ele>
<time>2022-09-08T09:18:55.002Z</time>
</trkpt>
<trkpt lat="41.9483130" lon="1.8705750">
<ele>485.973114</ele>
<time>2022-09-08T09:18:55.996Z</time>
</trkpt>
<trkpt lat="41.9483270" lon="1.8705760">
<ele>486.095062</ele>
<time>2022-09-08T09:18:56.998Z</time>
</trkpt>
<trkpt lat="41.9483330" lon="1.8705750">
<ele>486.125519</ele>
<time>2022-09-08T09:18:58.000Z</time>
</trkpt>
<trkpt lat="41.9483330" lon="1.8705750">
<ele>486.125519</ele>
<time>2022-09-08T09:18:59.003Z</time>
</trkpt>
<trkpt lat="41.9482550" lon="1.8706180">
<ele>486.521759</ele>
<time>2022-09-08T09:19:45.002Z</time>
</trkpt>
<trkpt lat="41.9482270" lon="1.8706370">
<ele>486.765594</ele>
<time>2022-09-08T09:19:46.004Z</time>
</trkpt>
<trkpt lat="41.9481980" lon="1.8706580">
<ele>487.009460</ele>
<time>2022-09-08T09:19:46.998Z</time>
</trkpt>
<trkpt lat="41.9481660" lon="1.8706790">
<ele>487.253265</ele>
<time>2022-09-08T09:19:48.000Z</time>
</trkpt>
<trkpt lat="41.9481300" lon="1.8707040">
<ele>487.558075</ele>
<time>2022-09-08T09:19:49.002Z</time>
</trkpt>
<trkpt lat="41.9480960" lon="1.8707310">
<ele>487.893341</ele>
<time>2022-09-08T09:19:49.996Z</time>
</trkpt>
<trkpt lat="41.9480670" lon="1.8707540">
<ele>488.167664</ele>
<time>2022-09-08T09:19:50.998Z</time>
</trkpt>
<trkpt lat="41.9480470" lon="1.8707730">
<ele>488.441986</ele>
<time>2022-09-08T09:19:52.000Z</time>
</trkpt>
<trkpt lat="41.9480410" lon="1.8707760">
<ele>488.441986</ele>
<time>2022-09-08T09:19:53.003Z</time>
</trkpt>
<trkpt lat="41.9480410" lon="1.8707760">
<ele>488.441986</ele>
<time>2022-09-08T09:19:53.996Z</time>
</trkpt>
<trkpt lat="41.9480410" lon="1.8707760">
<ele>488.441986</ele>
<time>2022-09-08T09:19:54.998Z</time>
</trkpt>
<trkpt lat="41.9480410" lon="1.8707760">
<ele>488.441986</ele>
<time>2022-09-08T09:19:56.001Z</time>
</trkpt>
<trkpt lat="41.9480000" lon="1.8708090">
<ele>488.868713</ele>
<time>2022-09-08T09:20:20.003Z</time>
</trkpt>
<trkpt lat="41.9479520" lon="1.8708430">
<ele>489.264954</ele>
<time>2022-09-08T09:20:20.996Z</time>
</trkpt>
<trkpt lat="41.9478990" lon="1.8708780">
<ele>489.722137</ele>
<time>2022-09-08T09:20:21.998Z</time>
</trkpt>
<trkpt lat="41.9478470" lon="1.8709130">
<ele>490.209869</ele>
<time>2022-09-08T09:20:23.001Z</time>
</trkpt>
<trkpt lat="41.9478040" lon="1.8709470">
<ele>490.727997</ele>
<time>2022-09-08T09:20:24.003Z</time>
</trkpt>
<trkpt lat="41.9477630" lon="1.8709850">
<ele>491.276642</ele>
<time>2022-09-08T09:20:24.996Z</time>
</trkpt>
<trkpt lat="41.9477200" lon="1.8710210">
<ele>491.794800</ele>
<time>2022-09-08T09:20:25.999Z</time>
</trkpt>
<trkpt lat="41.9476770" lon="1.8710600">
<ele>492.343445</ele>
<time>2022-09-08T09:20:27.001Z</time>
</trkpt>
<trkpt lat="41.9476290" lon="1.8711060">
<ele>492.922546</ele>
<time>2022-09-08T09:20:28.003Z</time>
</trkpt>
<trkpt lat="41.9475830" lon="1.8711460">
<ele>493.379730</ele>
<time>2022-09-08T09:20:28.997Z</time>
</trkpt>
<trkpt lat="41.9475360" lon="1.8711820">
<ele>493.806458</ele>
<time>2022-09-08T09:20:29.999Z</time>
</trkpt>
<trkpt lat="41.9474990" lon="1.8712240">
<ele>494.141754</ele>
<time>2022-09-08T09:20:31.001Z</time>
</trkpt>
<trkpt lat="41.9474540" lon="1.8712710">
<ele>494.751343</ele>
<time>2022-09-08T09:20:32.004Z</time>
</trkpt>
<trkpt lat="41.9474090" lon="1.8713210">
<ele>495.665741</ele>
<time>2022-09-08T09:20:32.997Z</time>
</trkpt>
<trkpt lat="41.9473630" lon="1.8713680">
<ele>496.488739</ele>
<time>2022-09-08T09:20:33.999Z</time>
</trkpt>
<trkpt lat="41.9473120" lon="1.8714150">
<ele>497.220245</ele>
<time>2022-09-08T09:20:35.002Z</time>
</trkpt>
<trkpt lat="41.9472610" lon="1.8714700">
<ele>497.890808</ele>
<time>2022-09-08T09:20:36.004Z</time>
</trkpt>
<trkpt lat="41.9472230" lon="1.8715280">
<ele>498.347992</ele>
<time>2022-09-08T09:20:36.997Z</time>
</trkpt>
<trkpt lat="41.9471800" lon="1.8715940">
<ele>498.652802</ele>
<time>2022-09-08T09:20:38.000Z</time>
</trkpt>
<trkpt lat="41.9471310" lon="1.8716610">
<ele>498.835663</ele>
<time>2022-09-08T09:20:39.002Z</time>
</trkpt>
<trkpt lat="41.9470850" lon="1.8717170">
<ele>498.866150</ele>
<time>2022-09-08T09:20:40.004Z</time>
</trkpt>
<trkpt lat="41.9470350" lon="1.8717470">
<ele>499.536713</ele>
<time>2022-09-08T09:20:40.998Z</time>
</trkpt>
<trkpt lat="41.9469710" lon="1.8717510">
<ele>500.786407</ele>
<time>2022-09-08T09:20:42.000Z</time>
</trkpt>
<trkpt lat="41.9469060" lon="1.8717480">
<ele>502.157990</ele>
<time>2022-09-08T09:20:43.002Z</time>
</trkpt>
<trkpt lat="41.9468320" lon="1.8717490">
<ele>503.651520</ele>
<time>2022-09-08T09:20:43.996Z</time>
</trkpt>
<trkpt lat="41.9467620" lon="1.8717690">
<ele>504.809753</ele>
<time>2022-09-08T09:20:44.998Z</time>
</trkpt>
<trkpt lat="41.9466910" lon="1.8718090">
<ele>505.724152</ele>
<time>2022-09-08T09:20:46.000Z</time>
</trkpt>
<trkpt lat="41.9466180" lon="1.8718520">
<ele>506.425201</ele>
<time>2022-09-08T09:20:47.003Z</time>
</trkpt>
<trkpt lat="41.9465420" lon="1.8718970">
<ele>506.943359</ele>
<time>2022-09-08T09:20:47.996Z</time>
</trkpt>
<trkpt lat="41.9464640" lon="1.8719480">
<ele>507.065277</ele>
<time>2022-09-08T09:20:48.998Z</time>
</trkpt>
<trkpt lat="41.9463990" lon="1.8719920">
<ele>506.912872</ele>
<time>2022-09-08T09:20:50.001Z</time>
</trkpt>
<trkpt lat="41.9463400" lon="1.8720310">
<ele>506.638550</ele>
<time>2022-09-08T09:20:51.003Z</time>
</trkpt>
<trkpt lat="41.9462860" lon="1.8720810">
<ele>505.724152</ele>
<time>2022-09-08T09:20:51.996Z</time>
</trkpt>
<trkpt lat="41.9462310" lon="1.8721280">
<ele>505.480316</ele>
<time>2022-09-08T09:20:52.999Z</time>
</trkpt>
<trkpt lat="41.9461730" lon="1.8721640">
<ele>505.663208</ele>
<time>2022-09-08T09:20:54.001Z</time>
</trkpt>
<trkpt lat="41.9461210" lon="1.8721780">
<ele>506.089935</ele>
<time>2022-09-08T09:20:55.003Z</time>
</trkpt>
<trkpt lat="41.9460740" lon="1.8721920">
<ele>506.394714</ele>
<time>2022-09-08T09:20:55.997Z</time>
</trkpt>
<trkpt lat="41.9460360" lon="1.8722130">
<ele>506.394714</ele>
<time>2022-09-08T09:20:56.999Z</time>
</trkpt>
<trkpt lat="41.9460060" lon="1.8722310">
<ele>506.364258</ele>
<time>2022-09-08T09:20:58.001Z</time>
</trkpt>
<trkpt lat="41.9459790" lon="1.8722560">
<ele>506.150879</ele>
<time>2022-09-08T09:20:59.004Z</time>
</trkpt>
<trkpt lat="41.9459560" lon="1.8722850">
<ele>505.815613</ele>
<time>2022-09-08T09:20:59.997Z</time>
</trkpt>
<trkpt lat="41.9459270" lon="1.8723210">
<ele>505.419342</ele>
<time>2022-09-08T09:21:00.999Z</time>
</trkpt>
<trkpt lat="41.9458950" lon="1.8723640">
<ele>504.870728</ele>
<time>2022-09-08T09:21:02.002Z</time>
</trkpt>
<trkpt lat="41.9458620" lon="1.8724110">
<ele>504.261139</ele>
<time>2022-09-08T09:21:03.004Z</time>
</trkpt>
<trkpt lat="41.9458300" lon="1.8724580">
<ele>503.590546</ele>
<time>2022-09-08T09:21:03.997Z</time>
</trkpt>
<trkpt lat="41.9458090" lon="1.8725040">
<ele>502.798065</ele>
<time>2022-09-08T09:21:05.000Z</time>
</trkpt>
<trkpt lat="41.9457820" lon="1.8725580">
<ele>501.853210</ele>
<time>2022-09-08T09:21:06.002Z</time>
</trkpt>
<trkpt lat="41.9457510" lon="1.8726200">
<ele>500.725464</ele>
<time>2022-09-08T09:21:07.004Z</time>
</trkpt>
<trkpt lat="41.9457140" lon="1.8726970">
<ele>499.201447</ele>
<time>2022-09-08T09:21:07.998Z</time>
</trkpt>
<trkpt lat="41.9456570" lon="1.8727800">
<ele>497.829865</ele>
<time>2022-09-08T09:21:09.000Z</time>
</trkpt>
<trkpt lat="41.9455810" lon="1.8728610">
<ele>496.854462</ele>
<time>2022-09-08T09:21:10.002Z</time>
</trkpt>
<trkpt lat="41.9454910" lon="1.8729360">
<ele>496.488739</ele>
<time>2022-09-08T09:21:10.996Z</time>
</trkpt>
<trkpt lat="41.9454290" lon="1.8730010">
<ele>496.336334</ele>
<time>2022-09-08T09:21:11.998Z</time>
</trkpt>
<trkpt lat="41.9453640" lon="1.8731020">
<ele>495.604797</ele>
<time>2022-09-08T09:21:13.000Z</time>
</trkpt>
<trkpt lat="41.9453040" lon="1.8732230">
<ele>494.019867</ele>
<time>2022-09-08T09:21:14.003Z</time>
</trkpt>
<trkpt lat="41.9452620" lon="1.8733080">
<ele>492.770142</ele>
<time>2022-09-08T09:21:14.996Z</time>
</trkpt>
<trkpt lat="41.9452300" lon="1.8733770">
<ele>491.642395</ele>
<time>2022-09-08T09:21:15.998Z</time>
</trkpt>
<trkpt lat="41.9452150" lon="1.8734270">
<ele>490.453674</ele>
<time>2022-09-08T09:21:17.001Z</time>
</trkpt>
<trkpt lat="41.9452140" lon="1.8734760">
<ele>488.685852</ele>
<time>2022-09-08T09:21:18.003Z</time>
</trkpt>
<trkpt lat="41.9452330" lon="1.8734960">
<ele>487.253265</ele>
<time>2022-09-08T09:21:18.996Z</time>
</trkpt>
<trkpt lat="41.9452730" lon="1.8735140">
<ele>484.967285</ele>
<time>2022-09-08T09:21:19.999Z</time>
</trkpt>
<trkpt lat="41.9453140" lon="1.8735020">
<ele>483.930939</ele>
<time>2022-09-08T09:21:21.001Z</time>
</trkpt>
<trkpt lat="41.9453440" lon="1.8734670">
<ele>484.022400</ele>
<time>2022-09-08T09:21:22.003Z</time>
</trkpt>
<trkpt lat="41.9453800" lon="1.8734030">
<ele>484.875854</ele>
<time>2022-09-08T09:21:22.997Z</time>
</trkpt>
<trkpt lat="41.9454090" lon="1.8733560">
<ele>485.515930</ele>
<time>2022-09-08T09:21:23.999Z</time>
</trkpt>
<trkpt lat="41.9454380" lon="1.8733110">
<ele>486.003601</ele>
<time>2022-09-08T09:21:25.001Z</time>
</trkpt>
<trkpt lat="41.9454830" lon="1.8732580">
<ele>486.308411</ele>
<time>2022-09-08T09:21:26.004Z</time>
</trkpt>
<trkpt lat="41.9455410" lon="1.8732080">
<ele>486.156006</ele>
<time>2022-09-08T09:21:26.997Z</time>
</trkpt>
<trkpt lat="41.9455840" lon="1.8731790">
<ele>485.790253</ele>
<time>2022-09-08T09:21:27.999Z</time>
</trkpt>
<trkpt lat="41.9456360" lon="1.8731490">
<ele>485.119659</ele>
<time>2022-09-08T09:21:29.002Z</time>
</trkpt>
<trkpt lat="41.9456970" lon="1.8731390">
<ele>483.504242</ele>
<time>2022-09-08T09:21:30.004Z</time>
</trkpt>
<trkpt lat="41.9457510" lon="1.8731430">
<ele>481.644958</ele>
<time>2022-09-08T09:21:30.997Z</time>
</trkpt>
<trkpt lat="41.9458080" lon="1.8731650">
<ele>479.023682</ele>
<time>2022-09-08T09:21:32.000Z</time>
</trkpt>
<trkpt lat="41.9458680" lon="1.8731850">
<ele>476.341461</ele>
<time>2022-09-08T09:21:33.002Z</time>
</trkpt>
<trkpt lat="41.9459220" lon="1.8731950">
<ele>474.299286</ele>
<time>2022-09-08T09:21:34.004Z</time>
</trkpt>
<trkpt lat="41.9459720" lon="1.8731990">
<ele>472.653351</ele>
<time>2022-09-08T09:21:34.998Z</time>
</trkpt>
<trkpt lat="41.9459900" lon="1.8732160">
<ele>471.434143</ele>
<time>2022-09-08T09:21:36.000Z</time>
</trkpt>
<trkpt lat="41.9459940" lon="1.8732610">
<ele>469.666321</ele>
<time>2022-09-08T09:21:37.002Z</time>
</trkpt>
<trkpt lat="41.9459720" lon="1.8733200">
<ele>468.172791</ele>
<time>2022-09-08T09:21:37.996Z</time>
</trkpt>
<trkpt lat="41.9459380" lon="1.8733750">
<ele>467.166931</ele>
<time>2022-09-08T09:21:38.998Z</time>
</trkpt>
<trkpt lat="41.9459150" lon="1.8733770">
<ele>467.776550</ele>
<time>2022-09-08T09:21:40.000Z</time>
</trkpt>
<trkpt lat="41.9458690" lon="1.8733680">
<ele>469.513916</ele>
<time>2022-09-08T09:21:41.003Z</time>
</trkpt>
<trkpt lat="41.9458090" lon="1.8733500">
<ele>472.074249</ele>
<time>2022-09-08T09:21:41.996Z</time>
</trkpt>
<trkpt lat="41.9457620" lon="1.8733490">
<ele>473.567749</ele>
<time>2022-09-08T09:21:42.998Z</time>
</trkpt>
<trkpt lat="41.9457280" lon="1.8733600">
<ele>474.268799</ele>
<time>2022-09-08T09:21:44.001Z</time>
</trkpt>
<trkpt lat="41.9456890" lon="1.8733940">
<ele>474.207855</ele>
<time>2022-09-08T09:21:45.003Z</time>
</trkpt>
<trkpt lat="41.9456600" lon="1.8734490">
<ele>473.110535</ele>
<time>2022-09-08T09:21:45.996Z</time>
</trkpt>
<trkpt lat="41.9456500" lon="1.8735060">
<ele>471.312256</ele>
<time>2022-09-08T09:21:46.999Z</time>
</trkpt>
<trkpt lat="41.9456390" lon="1.8735790">
<ele>468.721466</ele>
<time>2022-09-08T09:21:48.001Z</time>
</trkpt>
<trkpt lat="41.9456160" lon="1.8736490">
<ele>466.740265</ele>
<time>2022-09-08T09:21:49.003Z</time>
</trkpt>
<trkpt lat="41.9455970" lon="1.8737070">
<ele>465.094330</ele>
<time>2022-09-08T09:21:49.997Z</time>
</trkpt>
<trkpt lat="41.9455750" lon="1.8737760">
<ele>463.204559</ele>
<time>2022-09-08T09:21:50.999Z</time>
</trkpt>
<trkpt lat="41.9455320" lon="1.8738340">
<ele>462.655914</ele>
<time>2022-09-08T09:21:52.001Z</time>
</trkpt>
<trkpt lat="41.9454800" lon="1.8738880">
<ele>462.899750</ele>
<time>2022-09-08T09:21:53.004Z</time>
</trkpt>
<trkpt lat="41.9454430" lon="1.8739470">
<ele>462.594940</ele>
<time>2022-09-08T09:21:53.997Z</time>
</trkpt>
<trkpt lat="41.9454200" lon="1.8740140">
<ele>461.650085</ele>
<time>2022-09-08T09:21:54.999Z</time>
</trkpt>
<trkpt lat="41.9453950" lon="1.8740920">
<ele>460.552795</ele>
<time>2022-09-08T09:21:56.002Z</time>
</trkpt>
<trkpt lat="41.9453640" lon="1.8741430">
<ele>460.491852</ele>
<time>2022-09-08T09:21:57.004Z</time>
</trkpt>
<trkpt lat="41.9453170" lon="1.8741760">
<ele>461.619598</ele>
<time>2022-09-08T09:21:57.997Z</time>
</trkpt>
<trkpt lat="41.9452620" lon="1.8742090">
<ele>462.869263</ele>
<time>2022-09-08T09:21:59.000Z</time>
</trkpt>
<trkpt lat="41.9452210" lon="1.8742370">
<ele>463.753204</ele>
<time>2022-09-08T09:22:00.002Z</time>
</trkpt>
<trkpt lat="41.9451810" lon="1.8742810">
<ele>464.058014</ele>
<time>2022-09-08T09:22:01.004Z</time>
</trkpt>
<trkpt lat="41.9451740" lon="1.8743200">
<ele>463.356934</ele>
<time>2022-09-08T09:22:01.998Z</time>
</trkpt>
<trkpt lat="41.9451930" lon="1.8743840">
<ele>461.040466</ele>
<time>2022-09-08T09:22:03.000Z</time>
</trkpt>
<trkpt lat="41.9452170" lon="1.8744560">
<ele>458.358246</ele>
<time>2022-09-08T09:22:04.002Z</time>
</trkpt>
<trkpt lat="41.9452520" lon="1.8745510">
<ele>454.670135</ele>
<time>2022-09-08T09:22:04.996Z</time>
</trkpt>
<trkpt lat="41.9453060" lon="1.8746570">
<ele>449.823853</ele>
<time>2022-09-08T09:22:05.998Z</time>
</trkpt>
<trkpt lat="41.9453360" lon="1.8747240">
<ele>446.958740</ele>
<time>2022-09-08T09:22:07.000Z</time>
</trkpt>
<trkpt lat="41.9453650" lon="1.8748110">
<ele>443.788788</ele>
<time>2022-09-08T09:22:08.003Z</time>
</trkpt>
<trkpt lat="41.9453580" lon="1.8748650">
<ele>442.813446</ele>
<time>2022-09-08T09:22:08.996Z</time>
</trkpt>
<trkpt lat="41.9453250" lon="1.8749440">
<ele>442.325745</ele>
<time>2022-09-08T09:22:09.998Z</time>
</trkpt>
<trkpt lat="41.9452610" lon="1.8750000">
<ele>443.453522</ele>
<time>2022-09-08T09:22:11.001Z</time>
</trkpt>
<trkpt lat="41.9451890" lon="1.8750460">
<ele>445.007996</ele>
<time>2022-09-08T09:22:12.003Z</time>
</trkpt>
<trkpt lat="41.9451230" lon="1.8750950">
<ele>446.623444</ele>
<time>2022-09-08T09:22:12.996Z</time>
</trkpt>
<trkpt lat="41.9450820" lon="1.8751720">
<ele>446.684387</ele>
<time>2022-09-08T09:22:13.999Z</time>
</trkpt>
<trkpt lat="41.9450500" lon="1.8752620">
<ele>446.379608</ele>
<time>2022-09-08T09:22:15.001Z</time>
</trkpt>
<trkpt lat="41.9450350" lon="1.8753280">
<ele>445.800476</ele>
<time>2022-09-08T09:22:16.003Z</time>
</trkpt>
<trkpt lat="41.9450680" lon="1.8753970">
<ele>443.331604</ele>
<time>2022-09-08T09:22:16.997Z</time>
</trkpt>
<trkpt lat="41.9450990" lon="1.8754400">
<ele>441.502808</ele>
<time>2022-09-08T09:22:17.999Z</time>
</trkpt>
<trkpt lat="41.9451580" lon="1.8754470">
<ele>439.369202</ele>
<time>2022-09-08T09:22:19.001Z</time>
</trkpt>
<trkpt lat="41.9452270" lon="1.8754030">
<ele>437.540405</ele>
<time>2022-09-08T09:22:20.004Z</time>
</trkpt>
<trkpt lat="41.9452920" lon="1.8753760">
<ele>435.711609</ele>
<time>2022-09-08T09:22:20.997Z</time>
</trkpt>
<trkpt lat="41.9453560" lon="1.8753680">
<ele>433.760864</ele>
<time>2022-09-08T09:22:21.999Z</time>
</trkpt>
<trkpt lat="41.9454020" lon="1.8753950">
<ele>431.840668</ele>
<time>2022-09-08T09:22:23.002Z</time>
</trkpt>
<trkpt lat="41.9454350" lon="1.8754350">
<ele>430.072815</ele>
<time>2022-09-08T09:22:24.004Z</time>
</trkpt>
<trkpt lat="41.9454410" lon="1.8754780">
<ele>429.219360</ele>
<time>2022-09-08T09:22:24.997Z</time>
</trkpt>
<trkpt lat="41.9454370" lon="1.8755420">
<ele>428.548798</ele>
<time>2022-09-08T09:22:27.002Z</time>
</trkpt>
<trkpt lat="41.9454390" lon="1.8756340">
<ele>427.634399</ele>
<time>2022-09-08T09:22:28.004Z</time>
</trkpt>
<trkpt lat="41.9454560" lon="1.8756960">
<ele>426.506653</ele>
<time>2022-09-08T09:22:28.998Z</time>
</trkpt>
<trkpt lat="41.9454930" lon="1.8757610">
<ele>424.952148</ele>
<time>2022-09-08T09:22:30.000Z</time>
</trkpt>
<trkpt lat="41.9455220" lon="1.8758030">
<ele>423.732941</ele>
<time>2022-09-08T09:22:31.002Z</time>
</trkpt>
<trkpt lat="41.9455540" lon="1.8758450">
<ele>422.544250</ele>
<time>2022-09-08T09:22:31.996Z</time>
</trkpt>
<trkpt lat="41.9455820" lon="1.8759020">
<ele>421.264069</ele>
<time>2022-09-08T09:22:32.998Z</time>
</trkpt>
<trkpt lat="41.9455930" lon="1.8759760">
<ele>420.410645</ele>
<time>2022-09-08T09:22:34.000Z</time>
</trkpt>
<trkpt lat="41.9455900" lon="1.8760600">
<ele>419.892487</ele>
<time>2022-09-08T09:22:35.003Z</time>
</trkpt>
<trkpt lat="41.9455870" lon="1.8761350">
<ele>419.313354</ele>
<time>2022-09-08T09:22:35.996Z</time>
</trkpt>
<trkpt lat="41.9456020" lon="1.8762220">
<ele>417.941742</ele>
<time>2022-09-08T09:22:36.998Z</time>
</trkpt>
<trkpt lat="41.9456290" lon="1.8763080">
<ele>416.112946</ele>
<time>2022-09-08T09:22:38.001Z</time>
</trkpt>
<trkpt lat="41.9456750" lon="1.8763820">
<ele>413.979340</ele>
<time>2022-09-08T09:22:39.003Z</time>
</trkpt>
<trkpt lat="41.9457190" lon="1.8764520">
<ele>411.967682</ele>
<time>2022-09-08T09:22:39.996Z</time>
</trkpt>
<trkpt lat="41.9457850" lon="1.8764840">
<ele>410.047455</ele>
<time>2022-09-08T09:22:40.999Z</time>
</trkpt>
<trkpt lat="41.9458270" lon="1.8765010">
<ele>408.919678</ele>
<time>2022-09-08T09:22:42.001Z</time>
</trkpt>
<trkpt lat="41.9458590" lon="1.8765480">
<ele>407.791931</ele>
<time>2022-09-08T09:22:43.003Z</time>
</trkpt>
<trkpt lat="41.9458850" lon="1.8766290">
<ele>406.481262</ele>
<time>2022-09-08T09:22:43.997Z</time>
</trkpt>
<trkpt lat="41.9459100" lon="1.8766780">
<ele>405.566864</ele>
<time>2022-09-08T09:22:44.999Z</time>
</trkpt>
<trkpt lat="41.9459490" lon="1.8767320">
<ele>404.530548</ele>
<time>2022-09-08T09:22:46.001Z</time>
</trkpt>
<trkpt lat="41.9459910" lon="1.8767840">
<ele>403.555206</ele>
<time>2022-09-08T09:22:47.004Z</time>
</trkpt>
<trkpt lat="41.9460200" lon="1.8768520">
<ele>402.823669</ele>
<time>2022-09-08T09:22:47.997Z</time>
</trkpt>
<trkpt lat="41.9460410" lon="1.8769310">
<ele>402.183594</ele>
<time>2022-09-08T09:22:48.999Z</time>
</trkpt>
<trkpt lat="41.9460520" lon="1.8770100">
<ele>401.695923</ele>
<time>2022-09-08T09:22:50.002Z</time>
</trkpt>
<trkpt lat="41.9460520" lon="1.8770910">
<ele>401.330139</ele>
<time>2022-09-08T09:22:51.004Z</time>
</trkpt>
<trkpt lat="41.9460410" lon="1.8771720">
<ele>400.872955</ele>
<time>2022-09-08T09:22:51.997Z</time>
</trkpt>
<trkpt lat="41.9460270" lon="1.8772500">
<ele>400.507202</ele>
<time>2022-09-08T09:22:53.000Z</time>
</trkpt>
<trkpt lat="41.9460130" lon="1.8773270">
<ele>400.171936</ele>
<time>2022-09-08T09:22:54.002Z</time>
</trkpt>
<trkpt lat="41.9459970" lon="1.8774040">
<ele>399.928070</ele>
<time>2022-09-08T09:22:55.004Z</time>
</trkpt>
<trkpt lat="41.9459860" lon="1.8774760">
<ele>399.653748</ele>
<time>2022-09-08T09:22:55.998Z</time>
</trkpt>
<trkpt lat="41.9459760" lon="1.8775490">
<ele>399.440399</ele>
<time>2022-09-08T09:22:57.000Z</time>
</trkpt>
<trkpt lat="41.9459720" lon="1.8776230">
<ele>399.257538</ele>
<time>2022-09-08T09:22:58.002Z</time>
</trkpt>
<trkpt lat="41.9459740" lon="1.8776970">
<ele>399.105133</ele>
<time>2022-09-08T09:22:58.996Z</time>
</trkpt>
<trkpt lat="41.9459740" lon="1.8777730">
<ele>399.013672</ele>
<time>2022-09-08T09:22:59.998Z</time>
</trkpt>
<trkpt lat="41.9459700" lon="1.8778450">
<ele>398.952728</ele>
<time>2022-09-08T09:23:01.000Z</time>
</trkpt>
<trkpt lat="41.9459590" lon="1.8779130">
<ele>398.922241</ele>
<time>2022-09-08T09:23:02.003Z</time>
</trkpt>
<trkpt lat="41.9459410" lon="1.8779730">
<ele>398.800323</ele>
<time>2022-09-08T09:23:02.996Z</time>
</trkpt>
<trkpt lat="41.9459170" lon="1.8780200">
<ele>398.647919</ele>
<time>2022-09-08T09:23:03.998Z</time>
</trkpt>
<trkpt lat="41.9458870" lon="1.8780500">
<ele>398.526001</ele>
<time>2022-09-08T09:23:05.001Z</time>
</trkpt>
<trkpt lat="41.9458520" lon="1.8780620">
<ele>398.373596</ele>
<time>2022-09-08T09:23:06.003Z</time>
</trkpt>
<trkpt lat="41.9458130" lon="1.8780550">
<ele>398.282135</ele>
<time>2022-09-08T09:23:06.996Z</time>
</trkpt>
<trkpt lat="41.9457640" lon="1.8780390">
<ele>398.160248</ele>
<time>2022-09-08T09:23:07.999Z</time>
</trkpt>
<trkpt lat="41.9457050" lon="1.8780330">
<ele>398.068787</ele>
<time>2022-09-08T09:23:09.001Z</time>
</trkpt>
<trkpt lat="41.9456420" lon="1.8780330">
<ele>397.977356</ele>
<time>2022-09-08T09:23:10.003Z</time>
</trkpt>
<trkpt lat="41.9455780" lon="1.8780440">
<ele>397.855469</ele>
<time>2022-09-08T09:23:10.997Z</time>
</trkpt>
<trkpt lat="41.9455170" lon="1.8780670">
<ele>397.672546</ele>
<time>2022-09-08T09:23:11.999Z</time>
</trkpt>
<trkpt lat="41.9454620" lon="1.8780770">
<ele>397.581116</ele>
<time>2022-09-08T09:23:13.001Z</time>
</trkpt>
<trkpt lat="41.9454050" lon="1.8780760">
<ele>397.581116</ele>
<time>2022-09-08T09:23:14.004Z</time>
</trkpt>
<trkpt lat="41.9453390" lon="1.8780740">
<ele>397.581116</ele>
<time>2022-09-08T09:23:14.997Z</time>
</trkpt>
<trkpt lat="41.9452640" lon="1.8780880">
<ele>397.550659</ele>
<time>2022-09-08T09:23:15.999Z</time>
</trkpt>
<trkpt lat="41.9451900" lon="1.8781190">
<ele>397.398254</ele>
<time>2022-09-08T09:23:17.002Z</time>
</trkpt>
<trkpt lat="41.9451220" lon="1.8781680">
<ele>397.154388</ele>
<time>2022-09-08T09:23:18.004Z</time>
</trkpt>
<trkpt lat="41.9450570" lon="1.8782160">
<ele>396.941040</ele>
<time>2022-09-08T09:23:18.997Z</time>
</trkpt>
<trkpt lat="41.9449980" lon="1.8782440">
<ele>396.910553</ele>
<time>2022-09-08T09:23:20.000Z</time>
</trkpt>
<trkpt lat="41.9449530" lon="1.8782600">
<ele>396.941040</ele>
<time>2022-09-08T09:23:21.002Z</time>
</trkpt>
<trkpt lat="41.9449130" lon="1.8782790">
<ele>396.941040</ele>
<time>2022-09-08T09:23:22.004Z</time>
</trkpt>
<trkpt lat="41.9448790" lon="1.8783050">
<ele>396.910553</ele>
<time>2022-09-08T09:23:22.998Z</time>
</trkpt>
<trkpt lat="41.9448470" lon="1.8783380">
<ele>396.819122</ele>
<time>2022-09-08T09:23:24.000Z</time>
</trkpt>
<trkpt lat="41.9448160" lon="1.8783700">
<ele>396.727661</ele>
<time>2022-09-08T09:23:25.002Z</time>
</trkpt>
<trkpt lat="41.9447840" lon="1.8784020">
<ele>396.697205</ele>
<time>2022-09-08T09:23:25.996Z</time>
</trkpt>
<trkpt lat="41.9445250" lon="1.8788230">
<ele>395.417053</ele>
<time>2022-09-08T09:23:34.999Z</time>
</trkpt>
<trkpt lat="41.9445000" lon="1.8788500">
<ele>395.234131</ele>
<time>2022-09-08T09:23:36.001Z</time>
</trkpt>
<trkpt lat="41.9444870" lon="1.8788740">
<ele>395.051270</ele>
<time>2022-09-08T09:23:37.003Z</time>
</trkpt>
<trkpt lat="41.9444620" lon="1.8789130">
<ele>394.807465</ele>
<time>2022-09-08T09:23:37.997Z</time>
</trkpt>
<trkpt lat="41.9444430" lon="1.8789420">
<ele>394.624542</ele>
<time>2022-09-08T09:23:38.999Z</time>
</trkpt>
<trkpt lat="41.9444100" lon="1.8789720">
<ele>394.441681</ele>
<time>2022-09-08T09:23:40.001Z</time>
</trkpt>
<trkpt lat="41.9443750" lon="1.8789970">
<ele>394.319733</ele>
<time>2022-09-08T09:23:41.004Z</time>
</trkpt>
<trkpt lat="41.9443480" lon="1.8790070">
<ele>394.289276</ele>
<time>2022-09-08T09:23:41.997Z</time>
</trkpt>
<trkpt lat="41.9443170" lon="1.8790160">
<ele>394.289276</ele>
<time>2022-09-08T09:23:42.999Z</time>
</trkpt>
<trkpt lat="41.9442870" lon="1.8790300">
<ele>394.289276</ele>
<time>2022-09-08T09:23:44.002Z</time>
</trkpt>
<trkpt lat="41.9442530" lon="1.8790470">
<ele>394.258789</ele>
<time>2022-09-08T09:23:45.004Z</time>
</trkpt>
<trkpt lat="41.9442180" lon="1.8790580">
<ele>394.289276</ele>
<time>2022-09-08T09:23:45.997Z</time>
</trkpt>
<trkpt lat="41.9441810" lon="1.8790560">
<ele>394.411194</ele>
<time>2022-09-08T09:23:47.000Z</time>
</trkpt>
<trkpt lat="41.9441430" lon="1.8790420">
<ele>394.563599</ele>
<time>2022-09-08T09:23:48.002Z</time>
</trkpt>
<trkpt lat="41.9441070" lon="1.8790280">
<ele>394.746460</ele>
<time>2022-09-08T09:23:49.004Z</time>
</trkpt>
<trkpt lat="41.9440720" lon="1.8790070">
<ele>394.959869</ele>
<time>2022-09-08T09:23:49.998Z</time>
</trkpt>
<trkpt lat="41.9440350" lon="1.8789890">
<ele>395.142731</ele>
<time>2022-09-08T09:23:51.000Z</time>
</trkpt>
<trkpt lat="41.9439990" lon="1.8789780">
<ele>395.325592</ele>
<time>2022-09-08T09:23:52.002Z</time>
</trkpt>
<trkpt lat="41.9439690" lon="1.8789660">
<ele>395.477997</ele>
<time>2022-09-08T09:23:52.996Z</time>
</trkpt>
<trkpt lat="41.9439500" lon="1.8789350">
<ele>395.660858</ele>
<time>2022-09-08T09:23:53.998Z</time>
</trkpt>
<trkpt lat="41.9439360" lon="1.8789040">
<ele>395.813263</ele>
<time>2022-09-08T09:23:55.000Z</time>
</trkpt>
<trkpt lat="41.9439250" lon="1.8788730">
<ele>395.965668</ele>
<time>2022-09-08T09:23:56.003Z</time>
</trkpt>
<trkpt lat="41.9439090" lon="1.8788430">
<ele>396.148560</ele>
<time>2022-09-08T09:23:56.996Z</time>
</trkpt>
<trkpt lat="41.9438920" lon="1.8788140">
<ele>396.300934</ele>
<time>2022-09-08T09:23:57.998Z</time>
</trkpt>
<trkpt lat="41.9438790" lon="1.8787860">
<ele>396.453339</ele>
<time>2022-09-08T09:23:59.001Z</time>
</trkpt>
<trkpt lat="41.9438670" lon="1.8787640">
<ele>396.544800</ele>
<time>2022-09-08T09:24:00.003Z</time>
</trkpt>
<trkpt lat="41.9438560" lon="1.8787440">
<ele>396.666718</ele>
<time>2022-09-08T09:24:00.996Z</time>
</trkpt>
<trkpt lat="41.9438490" lon="1.8787320">
<ele>396.697205</ele>
<time>2022-09-08T09:24:01.999Z</time>
</trkpt>
<trkpt lat="41.9438430" lon="1.8787230">
<ele>396.727661</ele>
<time>2022-09-08T09:24:03.001Z</time>
</trkpt>
<trkpt lat="41.9438300" lon="1.8787130">
<ele>396.788666</ele>
<time>2022-09-08T09:24:04.003Z</time>
</trkpt>
<trkpt lat="41.9438140" lon="1.8787000">
<ele>396.849609</ele>
<time>2022-09-08T09:24:04.997Z</time>
</trkpt>
<trkpt lat="41.9437970" lon="1.8786830">
<ele>396.910553</ele>
<time>2022-09-08T09:24:05.999Z</time>
</trkpt>
<trkpt lat="41.9437750" lon="1.8786690">
<ele>397.002014</ele>
<time>2022-09-08T09:24:07.001Z</time>
</trkpt>
<trkpt lat="41.9437480" lon="1.8786610">
<ele>397.093445</ele>
<time>2022-09-08T09:24:08.004Z</time>
</trkpt>
<trkpt lat="41.9437120" lon="1.8786800">
<ele>397.245850</ele>
<time>2022-09-08T09:24:08.997Z</time>
</trkpt>
<trkpt lat="41.9436790" lon="1.8787130">
<ele>397.398254</ele>
<time>2022-09-08T09:24:09.999Z</time>
</trkpt>
<trkpt lat="41.9436570" lon="1.8787560">
<ele>397.489685</ele>
<time>2022-09-08T09:24:11.002Z</time>
</trkpt>
<trkpt lat="41.9436310" lon="1.8788200">
<ele>397.520142</ele>
<time>2022-09-08T09:24:12.004Z</time>
</trkpt>
<trkpt lat="41.9436050" lon="1.8788980">
<ele>397.611603</ele>
<time>2022-09-08T09:24:12.997Z</time>
</trkpt>
<trkpt lat="41.9435960" lon="1.8789830">
<ele>397.581116</ele>
<time>2022-09-08T09:24:14.000Z</time>
</trkpt>
<trkpt lat="41.9435880" lon="1.8790820">
<ele>397.581116</ele>
<time>2022-09-08T09:24:15.002Z</time>
</trkpt>
<trkpt lat="41.9435790" lon="1.8791860">
<ele>397.550659</ele>
<time>2022-09-08T09:24:16.004Z</time>
</trkpt>
<trkpt lat="41.9435640" lon="1.8792970">
<ele>397.520142</ele>
<time>2022-09-08T09:24:16.998Z</time>
</trkpt>
<trkpt lat="41.9435420" lon="1.8794150">
<ele>397.489685</ele>
<time>2022-09-08T09:24:18.000Z</time>
</trkpt>
<trkpt lat="41.9435130" lon="1.8795220">
<ele>397.367737</ele>
<time>2022-09-08T09:24:19.002Z</time>
</trkpt>
<trkpt lat="41.9434810" lon="1.8796260">
<ele>397.215332</ele>
<time>2022-09-08T09:24:19.996Z</time>
</trkpt>
<trkpt lat="41.9434480" lon="1.8797340">
<ele>397.215332</ele>
<time>2022-09-08T09:24:20.998Z</time>
</trkpt>
<trkpt lat="41.9434080" lon="1.8798480">
<ele>397.184875</ele>
<time>2022-09-08T09:24:22.000Z</time>
</trkpt>
<trkpt lat="41.9433670" lon="1.8799580">
<ele>397.154388</ele>
<time>2022-09-08T09:24:23.003Z</time>
</trkpt>
<trkpt lat="41.9433230" lon="1.8800660">
<ele>397.002014</ele>
<time>2022-09-08T09:24:23.996Z</time>
</trkpt>
<trkpt lat="41.9432550" lon="1.8801650">
<ele>396.910553</ele>
<time>2022-09-08T09:24:24.998Z</time>
</trkpt>
<trkpt lat="41.9431930" lon="1.8802760">
<ele>396.331451</ele>
<time>2022-09-08T09:24:26.001Z</time>
</trkpt>
<trkpt lat="41.9431240" lon="1.8803980">
<ele>394.959869</ele>
<time>2022-09-08T09:24:27.003Z</time>
</trkpt>
<trkpt lat="41.9430780" lon="1.8804950">
<ele>393.649200</ele>
<time>2022-09-08T09:24:27.996Z</time>
</trkpt>
<trkpt lat="41.9430380" lon="1.8805810">
<ele>392.338531</ele>
<time>2022-09-08T09:24:28.999Z</time>
</trkpt>
<trkpt lat="41.9430200" lon="1.8806570">
<ele>390.997467</ele>
<time>2022-09-08T09:24:30.001Z</time>
</trkpt>
<trkpt lat="41.9430240" lon="1.8807110">
<ele>389.991608</ele>
<time>2022-09-08T09:24:31.003Z</time>
</trkpt>
<trkpt lat="41.9430210" lon="1.8807600">
<ele>389.046722</ele>
<time>2022-09-08T09:24:31.997Z</time>
</trkpt>
<trkpt lat="41.9430100" lon="1.8808120">
<ele>387.979919</ele>
<time>2022-09-08T09:24:32.999Z</time>
</trkpt>
<trkpt lat="41.9429910" lon="1.8808690">
<ele>386.699738</ele>
<time>2022-09-08T09:24:34.001Z</time>
</trkpt>
<trkpt lat="41.9429700" lon="1.8809250">
<ele>385.358643</ele>
<time>2022-09-08T09:24:35.004Z</time>
</trkpt>
<trkpt lat="41.9429370" lon="1.8809850">
<ele>383.712738</ele>
<time>2022-09-08T09:24:35.997Z</time>
</trkpt>
<trkpt lat="41.9429020" lon="1.8810400">
<ele>382.036316</ele>
<time>2022-09-08T09:24:36.999Z</time>
</trkpt>
<trkpt lat="41.9428640" lon="1.8810790">
<ele>380.634247</ele>
<time>2022-09-08T09:24:38.002Z</time>
</trkpt>
<trkpt lat="41.9428180" lon="1.8811060">
<ele>379.354065</ele>
<time>2022-09-08T09:24:39.004Z</time>
</trkpt>
<trkpt lat="41.9427680" lon="1.8811280">
<ele>378.165344</ele>
<time>2022-09-08T09:24:39.997Z</time>
</trkpt>
<trkpt lat="41.9427210" lon="1.8811550">
<ele>376.885193</ele>
<time>2022-09-08T09:24:41.000Z</time>
</trkpt>
<trkpt lat="41.9426690" lon="1.8811980">
<ele>375.086884</ele>
<time>2022-09-08T09:24:42.002Z</time>
</trkpt>
<trkpt lat="41.9426150" lon="1.8812490">
<ele>373.044739</ele>
<time>2022-09-08T09:24:43.004Z</time>
</trkpt>
<trkpt lat="41.9425690" lon="1.8812990">
<ele>370.911133</ele>
<time>2022-09-08T09:24:43.998Z</time>
</trkpt>
<trkpt lat="41.9425350" lon="1.8813400">
<ele>369.204254</ele>
<time>2022-09-08T09:24:45.000Z</time>
</trkpt>
<trkpt lat="41.9425260" lon="1.8813680">
<ele>368.259338</ele>
<time>2022-09-08T09:24:46.002Z</time>
</trkpt>
<trkpt lat="41.9425300" lon="1.8813920">
<ele>367.558319</ele>
<time>2022-09-08T09:24:46.996Z</time>
</trkpt>
<trkpt lat="41.9425410" lon="1.8814120">
<ele>367.040131</ele>
<time>2022-09-08T09:24:47.998Z</time>
</trkpt>
<trkpt lat="41.9425530" lon="1.8814320">
<ele>366.613464</ele>
<time>2022-09-08T09:24:49.000Z</time>
</trkpt>
<trkpt lat="41.9425590" lon="1.8814530">
<ele>366.064789</ele>
<time>2022-09-08T09:24:50.003Z</time>
</trkpt>
<trkpt lat="41.9425640" lon="1.8814710">
<ele>365.577118</ele>
<time>2022-09-08T09:24:50.996Z</time>
</trkpt>
<trkpt lat="41.9425770" lon="1.8814780">
<ele>365.577118</ele>
<time>2022-09-08T09:24:51.998Z</time>
</trkpt>
<trkpt lat="41.9425930" lon="1.8814860">
<ele>365.546661</ele>
<time>2022-09-08T09:24:53.001Z</time>
</trkpt>
<trkpt lat="41.9426090" lon="1.8814970">
<ele>365.424713</ele>
<time>2022-09-08T09:24:54.003Z</time>
</trkpt>
<trkpt lat="41.9426240" lon="1.8815190">
<ele>365.028473</ele>
<time>2022-09-08T09:24:54.996Z</time>
</trkpt>
<trkpt lat="41.9426430" lon="1.8815310">
<ele>364.937042</ele>
<time>2022-09-08T09:24:55.999Z</time>
</trkpt>
<trkpt lat="41.9426650" lon="1.8815520">
<ele>364.723663</ele>
<time>2022-09-08T09:24:57.001Z</time>
</trkpt>
<trkpt lat="41.9426850" lon="1.8815760">
<ele>364.388397</ele>
<time>2022-09-08T09:24:58.003Z</time>
</trkpt>
<trkpt lat="41.9426980" lon="1.8816000">
<ele>364.053131</ele>
<time>2022-09-08T09:24:58.997Z</time>
</trkpt>
<trkpt lat="41.9427080" lon="1.8816270">
<ele>363.534943</ele>
<time>2022-09-08T09:24:59.999Z</time>
</trkpt>
<trkpt lat="41.9427220" lon="1.8816610">
<ele>363.016815</ele>
<time>2022-09-08T09:25:01.001Z</time>
</trkpt>
<trkpt lat="41.9427420" lon="1.8817290">
<ele>362.010956</ele>
<time>2022-09-08T09:25:02.004Z</time>
</trkpt>
<trkpt lat="41.9427660" lon="1.8817670">
<ele>361.736664</ele>
<time>2022-09-08T09:25:02.997Z</time>
</trkpt>
<trkpt lat="41.9427930" lon="1.8818110">
<ele>361.614716</ele>
<time>2022-09-08T09:25:03.999Z</time>
</trkpt>
<trkpt lat="41.9428160" lon="1.8818400">
<ele>361.645203</ele>
<time>2022-09-08T09:25:05.002Z</time>
</trkpt>
<trkpt lat="41.9428560" lon="1.8818940">
<ele>361.797607</ele>
<time>2022-09-08T09:25:06.004Z</time>
</trkpt>
<trkpt lat="41.9428800" lon="1.8819280">
<ele>361.950012</ele>
<time>2022-09-08T09:25:06.997Z</time>
</trkpt>
<trkpt lat="41.9429110" lon="1.8819610">
<ele>362.346252</ele>
<time>2022-09-08T09:25:08.000Z</time>
</trkpt>
<trkpt lat="41.9429370" lon="1.8820090">
<ele>362.498657</ele>
<time>2022-09-08T09:25:09.002Z</time>
</trkpt>
<trkpt lat="41.9429620" lon="1.8820600">
<ele>362.712006</ele>
<time>2022-09-08T09:25:10.004Z</time>
</trkpt>
<trkpt lat="41.9429870" lon="1.8820760">
<ele>362.986328</ele>
<time>2022-09-08T09:25:10.998Z</time>
</trkpt>
<trkpt lat="41.9430140" lon="1.8821080">
<ele>363.077759</ele>
<time>2022-09-08T09:25:12.000Z</time>
</trkpt>
<trkpt lat="41.9430500" lon="1.8821290">
<ele>363.413055</ele>
<time>2022-09-08T09:25:13.002Z</time>
</trkpt>
<trkpt lat="41.9430750" lon="1.8821630">
<ele>363.413055</ele>
<time>2022-09-08T09:25:13.996Z</time>
</trkpt>
<trkpt lat="41.9430930" lon="1.8821960">
<ele>363.382538</ele>
<time>2022-09-08T09:25:14.998Z</time>
</trkpt>
<trkpt lat="41.9431100" lon="1.8822200">
<ele>363.473999</ele>
<time>2022-09-08T09:25:16.000Z</time>
</trkpt>
<trkpt lat="41.9431290" lon="1.8822620">
<ele>363.443542</ele>
<time>2022-09-08T09:25:17.003Z</time>
</trkpt>
<trkpt lat="41.9431540" lon="1.8823110">
<ele>363.504486</ele>
<time>2022-09-08T09:25:17.996Z</time>
</trkpt>
<trkpt lat="41.9431850" lon="1.8823390">
<ele>363.778809</ele>
<time>2022-09-08T09:25:18.998Z</time>
</trkpt>
<trkpt lat="41.9432120" lon="1.8823620">
<ele>364.053131</ele>
<time>2022-09-08T09:25:20.001Z</time>
</trkpt>
<trkpt lat="41.9432380" lon="1.8823820">
<ele>364.327454</ele>
<time>2022-09-08T09:25:21.003Z</time>
</trkpt>
<trkpt lat="41.9432680" lon="1.8824220">
<ele>364.632263</ele>
<time>2022-09-08T09:25:21.996Z</time>
</trkpt>
<trkpt lat="41.9432970" lon="1.8824600">
<ele>364.937042</ele>
<time>2022-09-08T09:25:22.999Z</time>
</trkpt>
<trkpt lat="41.9433240" lon="1.8824850">
<ele>365.241852</ele>
<time>2022-09-08T09:25:24.001Z</time>
</trkpt>
<trkpt lat="41.9433660" lon="1.8825180">
<ele>365.729523</ele>
<time>2022-09-08T09:25:25.003Z</time>
</trkpt>
<trkpt lat="41.9434080" lon="1.8825540">
<ele>366.247681</ele>
<time>2022-09-08T09:25:25.997Z</time>
</trkpt>
<trkpt lat="41.9434610" lon="1.8826030">
<ele>366.887756</ele>
<time>2022-09-08T09:25:26.999Z</time>
</trkpt>
<trkpt lat="41.9435080" lon="1.8826380">
<ele>367.436401</ele>
<time>2022-09-08T09:25:28.001Z</time>
</trkpt>
<trkpt lat="41.9435600" lon="1.8826970">
<ele>368.076477</ele>
<time>2022-09-08T09:25:29.004Z</time>
</trkpt>
<trkpt lat="41.9435900" lon="1.8827240">
<ele>368.381287</ele>
<time>2022-09-08T09:25:29.997Z</time>
</trkpt>
<trkpt lat="41.9436050" lon="1.8827560">
<ele>368.533661</ele>
<time>2022-09-08T09:25:30.999Z</time>
</trkpt>
<trkpt lat="41.9436210" lon="1.8828060">
<ele>368.716553</ele>
<time>2022-09-08T09:25:32.002Z</time>
</trkpt>
<trkpt lat="41.9436370" lon="1.8828440">
<ele>368.868958</ele>
<time>2022-09-08T09:25:33.004Z</time>
</trkpt>
<trkpt lat="41.9436510" lon="1.8828750">
<ele>368.990875</ele>
<time>2022-09-08T09:25:33.997Z</time>
</trkpt>
<trkpt lat="41.9436550" lon="1.8828770">
<ele>369.021332</ele>
<time>2022-09-08T09:25:35.000Z</time>
</trkpt>
<trkpt lat="41.9436680" lon="1.8829010">
<ele>369.173737</ele>
<time>2022-09-08T09:25:36.002Z</time>
</trkpt>
<trkpt lat="41.9437010" lon="1.8829460">
<ele>369.295685</ele>
<time>2022-09-08T09:25:37.004Z</time>
</trkpt>
<trkpt lat="41.9437320" lon="1.8829820">
<ele>369.265198</ele>
<time>2022-09-08T09:25:37.998Z</time>
</trkpt>
<trkpt lat="41.9437490" lon="1.8829980">
<ele>369.265198</ele>
<time>2022-09-08T09:25:39.000Z</time>
</trkpt>
<trkpt lat="41.9437820" lon="1.8830290">
<ele>369.173737</ele>
<time>2022-09-08T09:25:40.002Z</time>
</trkpt>
<trkpt lat="41.9438140" lon="1.8830580">
<ele>369.021332</ele>
<time>2022-09-08T09:25:40.996Z</time>
</trkpt>
<trkpt lat="41.9438590" lon="1.8831060">
<ele>368.747040</ele>
<time>2022-09-08T09:25:41.998Z</time>
</trkpt>
<trkpt lat="41.9438940" lon="1.8831410">
<ele>368.533661</ele>
<time>2022-09-08T09:25:43.000Z</time>
</trkpt>
<trkpt lat="41.9439440" lon="1.8831910">
<ele>368.228882</ele>
<time>2022-09-08T09:25:44.003Z</time>
</trkpt>
<trkpt lat="41.9439830" lon="1.8832390">
<ele>367.954559</ele>
<time>2022-09-08T09:25:44.996Z</time>
</trkpt>
<trkpt lat="41.9440080" lon="1.8832790">
<ele>367.710724</ele>
<time>2022-09-08T09:25:45.998Z</time>
</trkpt>
<trkpt lat="41.9440470" lon="1.8833130">
<ele>367.558319</ele>
<time>2022-09-08T09:25:47.001Z</time>
</trkpt>
<trkpt lat="41.9440990" lon="1.8833750">
<ele>367.344940</ele>
<time>2022-09-08T09:25:48.003Z</time>
</trkpt>
<trkpt lat="41.9441350" lon="1.8834050">
<ele>367.283997</ele>
<time>2022-09-08T09:25:48.996Z</time>
</trkpt>
<trkpt lat="41.9441710" lon="1.8834170">
<ele>367.375458</ele>
<time>2022-09-08T09:25:49.999Z</time>
</trkpt>
<trkpt lat="41.9442010" lon="1.8834160">
<ele>367.497345</ele>
<time>2022-09-08T09:25:51.001Z</time>
</trkpt>
<trkpt lat="41.9442250" lon="1.8834390">
<ele>367.497345</ele>
<time>2022-09-08T09:25:52.003Z</time>
</trkpt>
<trkpt lat="41.9442640" lon="1.8834640">
<ele>367.558319</ele>
<time>2022-09-08T09:25:52.997Z</time>
</trkpt>
<trkpt lat="41.9442920" lon="1.8834960">
<ele>367.558319</ele>
<time>2022-09-08T09:25:53.999Z</time>
</trkpt>
<trkpt lat="41.9443110" lon="1.8835420">
<ele>367.497345</ele>
<time>2022-09-08T09:25:55.001Z</time>
</trkpt>
<trkpt lat="41.9443540" lon="1.8836020">
<ele>367.588806</ele>
<time>2022-09-08T09:25:56.004Z</time>
</trkpt>
<trkpt lat="41.9443770" lon="1.8836690">
<ele>367.649750</ele>
<time>2022-09-08T09:25:56.997Z</time>
</trkpt>
<trkpt lat="41.9443980" lon="1.8837000">
<ele>367.741211</ele>
<time>2022-09-08T09:25:57.999Z</time>
</trkpt>
<trkpt lat="41.9444320" lon="1.8837440">
<ele>367.954559</ele>
<time>2022-09-08T09:25:59.002Z</time>
</trkpt>
<trkpt lat="41.9444570" lon="1.8837770">
<ele>367.832642</ele>
<time>2022-09-08T09:26:00.004Z</time>
</trkpt>
<trkpt lat="41.9444790" lon="1.8838060">
<ele>367.649750</ele>
<time>2022-09-08T09:26:00.997Z</time>
</trkpt>
<trkpt lat="41.9445000" lon="1.8838300">
<ele>367.527863</ele>
<time>2022-09-08T09:26:02.000Z</time>
</trkpt>
<trkpt lat="41.9445200" lon="1.8838630">
<ele>367.314484</ele>
<time>2022-09-08T09:26:03.002Z</time>
</trkpt>
<trkpt lat="41.9445460" lon="1.8838940">
<ele>367.162079</ele>
<time>2022-09-08T09:26:04.004Z</time>
</trkpt>
<trkpt lat="41.9445670" lon="1.8839190">
<ele>367.070648</ele>
<time>2022-09-08T09:26:04.998Z</time>
</trkpt>
<trkpt lat="41.9445820" lon="1.8839530">
<ele>366.887756</ele>
<time>2022-09-08T09:26:06.000Z</time>
</trkpt>
<trkpt lat="41.9445950" lon="1.8839810">
<ele>366.643921</ele>
<time>2022-09-08T09:26:07.002Z</time>
</trkpt>
<trkpt lat="41.9446140" lon="1.8840120">
<ele>366.400085</ele>
<time>2022-09-08T09:26:07.996Z</time>
</trkpt>
<trkpt lat="41.9446400" lon="1.8840500">
<ele>366.095276</ele>
<time>2022-09-08T09:26:08.998Z</time>
</trkpt>
<trkpt lat="41.9446640" lon="1.8840790">
<ele>365.912415</ele>
<time>2022-09-08T09:26:10.000Z</time>
</trkpt>
<trkpt lat="41.9446840" lon="1.8841170">
<ele>365.668549</ele>
<time>2022-09-08T09:26:11.003Z</time>
</trkpt>
<trkpt lat="41.9447050" lon="1.8841600">
<ele>365.455200</ele>
<time>2022-09-08T09:26:11.996Z</time>
</trkpt>
<trkpt lat="41.9447310" lon="1.8842000">
<ele>365.302795</ele>
<time>2022-09-08T09:26:12.998Z</time>
</trkpt>
<trkpt lat="41.9447560" lon="1.8842320">
<ele>365.241852</ele>
<time>2022-09-08T09:26:14.001Z</time>
</trkpt>
<trkpt lat="41.9447910" lon="1.8842730">
<ele>365.180878</ele>
<time>2022-09-08T09:26:15.003Z</time>
</trkpt>
<trkpt lat="41.9448340" lon="1.8843200">
<ele>365.211334</ele>
<time>2022-09-08T09:26:15.996Z</time>
</trkpt>
<trkpt lat="41.9448770" lon="1.8843550">
<ele>365.333282</ele>
<time>2022-09-08T09:26:16.999Z</time>
</trkpt>
<trkpt lat="41.9449200" lon="1.8843910">
<ele>365.516144</ele>
<time>2022-09-08T09:26:18.001Z</time>
</trkpt>
<trkpt lat="41.9449610" lon="1.8844390">
<ele>365.790466</ele>
<time>2022-09-08T09:26:19.003Z</time>
</trkpt>
<trkpt lat="41.9450010" lon="1.8844620">
<ele>366.034332</ele>
<time>2022-09-08T09:26:19.997Z</time>
</trkpt>
<trkpt lat="41.9450420" lon="1.8844820">
<ele>366.278137</ele>
<time>2022-09-08T09:26:20.999Z</time>
</trkpt>
<trkpt lat="41.9450890" lon="1.8845230">
<ele>366.735352</ele>
<time>2022-09-08T09:26:22.001Z</time>
</trkpt>
<trkpt lat="41.9451420" lon="1.8845650">
<ele>367.253540</ele>
<time>2022-09-08T09:26:23.004Z</time>
</trkpt>
<trkpt lat="41.9451890" lon="1.8845880">
<ele>367.588806</ele>
<time>2022-09-08T09:26:23.997Z</time>
</trkpt>
<trkpt lat="41.9452350" lon="1.8845970">
<ele>367.771667</ele>
<time>2022-09-08T09:26:24.999Z</time>
</trkpt>
<trkpt lat="41.9452760" lon="1.8846080">
<ele>367.924072</ele>
<time>2022-09-08T09:26:26.002Z</time>
</trkpt>
<trkpt lat="41.9453160" lon="1.8846140">
<ele>368.106934</ele>
<time>2022-09-08T09:26:27.004Z</time>
</trkpt>
<trkpt lat="41.9453380" lon="1.8846210">
<ele>368.198395</ele>
<time>2022-09-08T09:26:27.997Z</time>
</trkpt>
<trkpt lat="41.9453680" lon="1.8846320">
<ele>368.289856</ele>
<time>2022-09-08T09:26:29.000Z</time>
</trkpt>
<trkpt lat="41.9453960" lon="1.8846460">
<ele>368.320313</ele>
<time>2022-09-08T09:26:30.002Z</time>
</trkpt>
<trkpt lat="41.9454330" lon="1.8846640">
<ele>368.289856</ele>
<time>2022-09-08T09:26:31.004Z</time>
</trkpt>
<trkpt lat="41.9454790" lon="1.8846880">
<ele>368.076477</ele>
<time>2022-09-08T09:26:31.998Z</time>
</trkpt>
<trkpt lat="41.9455010" lon="1.8846910">
<ele>368.076477</ele>
<time>2022-09-08T09:26:33.000Z</time>
</trkpt>
<trkpt lat="41.9455170" lon="1.8846950">
<ele>368.045990</ele>
<time>2022-09-08T09:26:34.002Z</time>
</trkpt>
<trkpt lat="41.9455370" lon="1.8847050">
<ele>367.954559</ele>
<time>2022-09-08T09:26:34.996Z</time>
</trkpt>
<trkpt lat="41.9455620" lon="1.8847350">
<ele>367.710724</ele>
<time>2022-09-08T09:26:35.998Z</time>
</trkpt>
<trkpt lat="41.9455850" lon="1.8847410">
<ele>367.680267</ele>
<time>2022-09-08T09:26:37.000Z</time>
</trkpt>
<trkpt lat="41.9456200" lon="1.8847710">
<ele>367.436401</ele>
<time>2022-09-08T09:26:38.003Z</time>
</trkpt>
<trkpt lat="41.9456700" lon="1.8848070">
<ele>367.223053</ele>
<time>2022-09-08T09:26:38.996Z</time>
</trkpt>
<trkpt lat="41.9456880" lon="1.8848230">
<ele>367.131592</ele>
<time>2022-09-08T09:26:39.998Z</time>
</trkpt>
<trkpt lat="41.9457270" lon="1.8848390">
<ele>367.070648</ele>
<time>2022-09-08T09:26:41.001Z</time>
</trkpt>
<trkpt lat="41.9457520" lon="1.8848620">
<ele>366.979187</ele>
<time>2022-09-08T09:26:42.003Z</time>
</trkpt>
<trkpt lat="41.9457860" lon="1.8848990">
<ele>366.826813</ele>
<time>2022-09-08T09:26:42.996Z</time>
</trkpt>
<trkpt lat="41.9458070" lon="1.8849200">
<ele>366.765869</ele>
<time>2022-09-08T09:26:43.999Z</time>
</trkpt>
<trkpt lat="41.9458420" lon="1.8849410">
<ele>366.765869</ele>
<time>2022-09-08T09:26:45.001Z</time>
</trkpt>
<trkpt lat="41.9458850" lon="1.8849480">
<ele>366.857269</ele>
<time>2022-09-08T09:26:46.003Z</time>
</trkpt>
<trkpt lat="41.9459090" lon="1.8849480">
<ele>366.918243</ele>
<time>2022-09-08T09:26:46.997Z</time>
</trkpt>
<trkpt lat="41.9459430" lon="1.8849590">
<ele>367.009674</ele>
<time>2022-09-08T09:26:47.999Z</time>
</trkpt>
<trkpt lat="41.9459780" lon="1.8849880">
<ele>367.009674</ele>
<time>2022-09-08T09:26:49.001Z</time>
</trkpt>
<trkpt lat="41.9459930" lon="1.8849920">
<ele>367.070648</ele>
<time>2022-09-08T09:26:50.004Z</time>
</trkpt>
<trkpt lat="41.9459970" lon="1.8849950">
<ele>367.070648</ele>
<time>2022-09-08T09:26:50.997Z</time>
</trkpt>
<trkpt lat="41.9460350" lon="1.8850150">
<ele>367.162079</ele>
<time>2022-09-08T09:26:51.999Z</time>
</trkpt>
<trkpt lat="41.9460510" lon="1.8850360">
<ele>367.192535</ele>
<time>2022-09-08T09:26:53.002Z</time>
</trkpt>
<trkpt lat="41.9460820" lon="1.8850520">
<ele>367.283997</ele>
<time>2022-09-08T09:26:54.004Z</time>
</trkpt>
<trkpt lat="41.9461160" lon="1.8850800">
<ele>367.375458</ele>
<time>2022-09-08T09:26:54.997Z</time>
</trkpt>
<trkpt lat="41.9461640" lon="1.8851010">
<ele>367.527863</ele>
<time>2022-09-08T09:26:56.000Z</time>
</trkpt>
<trkpt lat="41.9461980" lon="1.8851070">
<ele>367.649750</ele>
<time>2022-09-08T09:26:57.002Z</time>
</trkpt>
<trkpt lat="41.9462310" lon="1.8850680">
<ele>367.802155</ele>
<time>2022-09-08T09:26:58.004Z</time>
</trkpt>
<trkpt lat="41.9462480" lon="1.8850370">
<ele>367.954559</ele>
<time>2022-09-08T09:26:58.998Z</time>
</trkpt>
<trkpt lat="41.9462500" lon="1.8849930">
<ele>368.167938</ele>
<time>2022-09-08T09:27:00.000Z</time>
</trkpt>
<trkpt lat="41.9462410" lon="1.8849480">
<ele>368.411743</ele>
<time>2022-09-08T09:27:01.002Z</time>
</trkpt>
<trkpt lat="41.9462230" lon="1.8849170">
<ele>368.564148</ele>
<time>2022-09-08T09:27:01.996Z</time>
</trkpt>
<trkpt lat="41.9462060" lon="1.8848850">
<ele>368.716553</ele>
<time>2022-09-08T09:27:02.998Z</time>
</trkpt>
<trkpt lat="41.9461940" lon="1.8848500">
<ele>368.990875</ele>
<time>2022-09-08T09:27:04.000Z</time>
</trkpt>
<trkpt lat="41.9461950" lon="1.8848280">
<ele>369.204254</ele>
<time>2022-09-08T09:27:05.003Z</time>
</trkpt>
<trkpt lat="41.9462090" lon="1.8848110">
<ele>369.509064</ele>
<time>2022-09-08T09:27:05.996Z</time>
</trkpt>
<trkpt lat="41.9462280" lon="1.8848070">
<ele>369.661469</ele>
<time>2022-09-08T09:27:06.998Z</time>
</trkpt>
<trkpt lat="41.9462510" lon="1.8848000">
<ele>369.905273</ele>
<time>2022-09-08T09:27:08.001Z</time>
</trkpt>
<trkpt lat="41.9462750" lon="1.8847910">
<ele>370.149139</ele>
<time>2022-09-08T09:27:09.003Z</time>
</trkpt>
<trkpt lat="41.9462880" lon="1.8847810">
<ele>370.392944</ele>
<time>2022-09-08T09:27:09.996Z</time>
</trkpt>
<trkpt lat="41.9463200" lon="1.8847640">
<ele>370.819672</ele>
<time>2022-09-08T09:27:10.999Z</time>
</trkpt>
<trkpt lat="41.9463460" lon="1.8847570">
<ele>371.124481</ele>
<time>2022-09-08T09:27:12.001Z</time>
</trkpt>
<trkpt lat="41.9463770" lon="1.8847430">
<ele>371.581665</ele>
<time>2022-09-08T09:27:13.003Z</time>
</trkpt>
<trkpt lat="41.9463940" lon="1.8847420">
<ele>371.734070</ele>
<time>2022-09-08T09:27:13.997Z</time>
</trkpt>
<trkpt lat="41.9464160" lon="1.8847450">
<ele>371.825531</ele>
<time>2022-09-08T09:27:14.999Z</time>
</trkpt>
<trkpt lat="41.9464420" lon="1.8847530">
<ele>371.916931</ele>
<time>2022-09-08T09:27:16.001Z</time>
</trkpt>
<trkpt lat="41.9464660" lon="1.8847580">
<ele>372.008392</ele>
<time>2022-09-08T09:27:17.004Z</time>
</trkpt>
<trkpt lat="41.9465060" lon="1.8847580">
<ele>372.343658</ele>
<time>2022-09-08T09:27:17.997Z</time>
</trkpt>
<trkpt lat="41.9465440" lon="1.8847640">
<ele>372.526550</ele>
<time>2022-09-08T09:27:18.999Z</time>
</trkpt>
<trkpt lat="41.9465670" lon="1.8847730">
<ele>372.526550</ele>
<time>2022-09-08T09:27:20.002Z</time>
</trkpt>
<trkpt lat="41.9466000" lon="1.8847750">
<ele>372.739929</ele>
<time>2022-09-08T09:27:21.004Z</time>
</trkpt>
<trkpt lat="41.9466250" lon="1.8847760">
<ele>372.861847</ele>
<time>2022-09-08T09:27:21.997Z</time>
</trkpt>
<trkpt lat="41.9466470" lon="1.8847750">
<ele>373.014252</ele>
<time>2022-09-08T09:27:23.000Z</time>
</trkpt>
<trkpt lat="41.9466700" lon="1.8847720">
<ele>373.227600</ele>
<time>2022-09-08T09:27:24.002Z</time>
</trkpt>
<trkpt lat="41.9467070" lon="1.8847630">
<ele>373.593353</ele>
<time>2022-09-08T09:27:25.004Z</time>
</trkpt>
<trkpt lat="41.9467340" lon="1.8847600">
<ele>373.806732</ele>
<time>2022-09-08T09:27:25.998Z</time>
</trkpt>
<trkpt lat="41.9467600" lon="1.8847570">
<ele>373.989594</ele>
<time>2022-09-08T09:27:27.000Z</time>
</trkpt>
<trkpt lat="41.9467830" lon="1.8847500">
<ele>374.233459</ele>
<time>2022-09-08T09:27:28.002Z</time>
</trkpt>
<trkpt lat="41.9468040" lon="1.8847380">
<ele>374.538269</ele>
<time>2022-09-08T09:27:28.996Z</time>
</trkpt>
<trkpt lat="41.9468210" lon="1.8847190">
<ele>374.995453</ele>
<time>2022-09-08T09:27:29.998Z</time>
</trkpt>
<trkpt lat="41.9468320" lon="1.8846950">
<ele>375.483124</ele>
<time>2022-09-08T09:27:31.000Z</time>
</trkpt>
<trkpt lat="41.9468410" lon="1.8846660">
<ele>376.092712</ele>
<time>2022-09-08T09:27:32.003Z</time>
</trkpt>
<trkpt lat="41.9468510" lon="1.8846370">
<ele>376.702332</ele>
<time>2022-09-08T09:27:32.996Z</time>
</trkpt>
<trkpt lat="41.9468580" lon="1.8846090">
<ele>377.281464</ele>
<time>2022-09-08T09:27:33.998Z</time>
</trkpt>
<trkpt lat="41.9468620" lon="1.8845780">
<ele>377.860535</ele>
<time>2022-09-08T09:27:35.001Z</time>
</trkpt>
<trkpt lat="41.9468630" lon="1.8845450">
<ele>378.378723</ele>
<time>2022-09-08T09:27:36.003Z</time>
</trkpt>
<trkpt lat="41.9468630" lon="1.8845150">
<ele>378.805450</ele>
<time>2022-09-08T09:27:36.996Z</time>
</trkpt>
<trkpt lat="41.9468660" lon="1.8844880">
<ele>379.232147</ele>
<time>2022-09-08T09:27:37.999Z</time>
</trkpt>
<trkpt lat="41.9468660" lon="1.8844590">
<ele>379.658875</ele>
<time>2022-09-08T09:27:39.001Z</time>
</trkpt>
<trkpt lat="41.9468670" lon="1.8844310">
<ele>380.055115</ele>
<time>2022-09-08T09:27:40.003Z</time>
</trkpt>
<trkpt lat="41.9468680" lon="1.8844020">
<ele>380.451355</ele>
<time>2022-09-08T09:27:40.997Z</time>
</trkpt>
<trkpt lat="41.9468700" lon="1.8843730">
<ele>380.878082</ele>
<time>2022-09-08T09:27:41.999Z</time>
</trkpt>
<trkpt lat="41.9468730" lon="1.8843420">
<ele>381.304810</ele>
<time>2022-09-08T09:27:43.001Z</time>
</trkpt>
<trkpt lat="41.9468760" lon="1.8843130">
<ele>381.701050</ele>
<time>2022-09-08T09:27:44.004Z</time>
</trkpt>
<trkpt lat="41.9468760" lon="1.8842860">
<ele>382.036316</ele>
<time>2022-09-08T09:27:44.997Z</time>
</trkpt>
<trkpt lat="41.9468770" lon="1.8842610">
<ele>382.341125</ele>
<time>2022-09-08T09:27:45.999Z</time>
</trkpt>
<trkpt lat="41.9468770" lon="1.8842360">
<ele>382.645935</ele>
<time>2022-09-08T09:27:47.002Z</time>
</trkpt>
<trkpt lat="41.9468740" lon="1.8842140">
<ele>382.920258</ele>
<time>2022-09-08T09:27:48.004Z</time>
</trkpt>
<trkpt lat="41.9468710" lon="1.8841920">
<ele>383.164063</ele>
<time>2022-09-08T09:27:48.997Z</time>
</trkpt>
<trkpt lat="41.9468690" lon="1.8841670">
<ele>383.468872</ele>
<time>2022-09-08T09:27:50.000Z</time>
</trkpt>
<trkpt lat="41.9468660" lon="1.8841420">
<ele>383.743195</ele>
<time>2022-09-08T09:27:51.002Z</time>
</trkpt>
<trkpt lat="41.9468560" lon="1.8841210">
<ele>383.956543</ele>
<time>2022-09-08T09:27:52.004Z</time>
</trkpt>
<trkpt lat="41.9468460" lon="1.8840970">
<ele>384.169922</ele>
<time>2022-09-08T09:27:52.998Z</time>
</trkpt>
<trkpt lat="41.9468390" lon="1.8840680">
<ele>384.474731</ele>
<time>2022-09-08T09:27:54.000Z</time>
</trkpt>
<trkpt lat="41.9468320" lon="1.8840380">
<ele>384.779541</ele>
<time>2022-09-08T09:27:55.002Z</time>
</trkpt>
<trkpt lat="41.9468240" lon="1.8840140">
<ele>384.992859</ele>
<time>2022-09-08T09:27:55.996Z</time>
</trkpt>
<trkpt lat="41.9468170" lon="1.8839880">
<ele>385.236725</ele>
<time>2022-09-08T09:27:56.998Z</time>
</trkpt>
<trkpt lat="41.9468100" lon="1.8839590">
<ele>385.511047</ele>
<time>2022-09-08T09:27:58.000Z</time>
</trkpt>
<trkpt lat="41.9468000" lon="1.8839300">
<ele>385.754883</ele>
<time>2022-09-08T09:27:59.003Z</time>
</trkpt>
<trkpt lat="41.9467880" lon="1.8839040">
<ele>385.968262</ele>
<time>2022-09-08T09:27:59.996Z</time>
</trkpt>
<trkpt lat="41.9467770" lon="1.8838850">
<ele>386.120667</ele>
<time>2022-09-08T09:28:00.998Z</time>
</trkpt>
<trkpt lat="41.9467670" lon="1.8838660">
<ele>386.273041</ele>
<time>2022-09-08T09:28:02.001Z</time>
</trkpt>
<trkpt lat="41.9467550" lon="1.8838450">
<ele>386.425446</ele>
<time>2022-09-08T09:28:03.003Z</time>
</trkpt>
<trkpt lat="41.9467420" lon="1.8838230">
<ele>386.577850</ele>
<time>2022-09-08T09:28:03.996Z</time>
</trkpt>
<trkpt lat="41.9467300" lon="1.8838030">
<ele>386.730255</ele>
<time>2022-09-08T09:28:04.999Z</time>
</trkpt>
<trkpt lat="41.9467180" lon="1.8837820">
<ele>386.852142</ele>
<time>2022-09-08T09:28:06.001Z</time>
</trkpt>
<trkpt lat="41.9467050" lon="1.8837580">
<ele>387.004547</ele>
<time>2022-09-08T09:28:07.003Z</time>
</trkpt>
<trkpt lat="41.9466900" lon="1.8837350">
<ele>387.187469</ele>
<time>2022-09-08T09:28:07.997Z</time>
</trkpt>
<trkpt lat="41.9466740" lon="1.8837180">
<ele>387.309357</ele>
<time>2022-09-08T09:28:08.999Z</time>
</trkpt>
<trkpt lat="41.9466590" lon="1.8836970">
<ele>387.461731</ele>
<time>2022-09-08T09:28:10.001Z</time>
</trkpt>
<trkpt lat="41.9466420" lon="1.8836740">
<ele>387.614136</ele>
<time>2022-09-08T09:28:11.004Z</time>
</trkpt>
<trkpt lat="41.9466250" lon="1.8836550">
<ele>387.736084</ele>
<time>2022-09-08T09:28:11.997Z</time>
</trkpt>
<trkpt lat="41.9466100" lon="1.8836360">
<ele>387.827515</ele>
<time>2022-09-08T09:28:12.999Z</time>
</trkpt>
<trkpt lat="41.9465950" lon="1.8836190">
<ele>387.888458</ele>
<time>2022-09-08T09:28:14.002Z</time>
</trkpt>
<trkpt lat="41.9465790" lon="1.8835990">
<ele>387.979919</ele>
<time>2022-09-08T09:28:15.004Z</time>
</trkpt>
<trkpt lat="41.9465630" lon="1.8835770">
<ele>388.071350</ele>
<time>2022-09-08T09:28:15.997Z</time>
</trkpt>
<trkpt lat="41.9465480" lon="1.8835570">
<ele>388.132324</ele>
<time>2022-09-08T09:28:17.000Z</time>
</trkpt>
<trkpt lat="41.9465340" lon="1.8835380">
<ele>388.162811</ele>
<time>2022-09-08T09:28:18.002Z</time>
</trkpt>
<trkpt lat="41.9465150" lon="1.8835230">
<ele>388.162811</ele>
<time>2022-09-08T09:28:19.004Z</time>
</trkpt>
<trkpt lat="41.9464960" lon="1.8835080">
<ele>388.162811</ele>
<time>2022-09-08T09:28:19.998Z</time>
</trkpt>
<trkpt lat="41.9464780" lon="1.8834930">
<ele>388.193268</ele>
<time>2022-09-08T09:28:21.000Z</time>
</trkpt>
<trkpt lat="41.9464650" lon="1.8834750">
<ele>388.193268</ele>
<time>2022-09-08T09:28:22.002Z</time>
</trkpt>
<trkpt lat="41.9464560" lon="1.8834550">
<ele>388.223755</ele>
<time>2022-09-08T09:28:22.996Z</time>
</trkpt>
<trkpt lat="41.9464550" lon="1.8834380">
<ele>388.254242</ele>
<time>2022-09-08T09:28:23.998Z</time>
</trkpt>
<trkpt lat="41.9464650" lon="1.8834230">
<ele>388.345673</ele>
<time>2022-09-08T09:28:25.000Z</time>
</trkpt>
<trkpt lat="41.9464830" lon="1.8834170">
<ele>388.406647</ele>
<time>2022-09-08T09:28:26.003Z</time>
</trkpt>
<trkpt lat="41.9465070" lon="1.8834250">
<ele>388.437134</ele>
<time>2022-09-08T09:28:26.996Z</time>
</trkpt>
<trkpt lat="41.9465330" lon="1.8834400">
<ele>388.498077</ele>
<time>2022-09-08T09:28:27.998Z</time>
</trkpt>
<trkpt lat="41.9465630" lon="1.8834610">
<ele>388.498077</ele>
<time>2022-09-08T09:28:29.001Z</time>
</trkpt>
<trkpt lat="41.9465960" lon="1.8834840">
<ele>388.528534</ele>
<time>2022-09-08T09:28:30.003Z</time>
</trkpt>
<trkpt lat="41.9466290" lon="1.8835080">
<ele>388.528534</ele>
<time>2022-09-08T09:28:30.996Z</time>
</trkpt>
<trkpt lat="41.9466600" lon="1.8835350">
<ele>388.498077</ele>
<time>2022-09-08T09:28:31.999Z</time>
</trkpt>
<trkpt lat="41.9466900" lon="1.8835630">
<ele>388.467590</ele>
<time>2022-09-08T09:28:33.001Z</time>
</trkpt>
<trkpt lat="41.9467180" lon="1.8835890">
<ele>388.376160</ele>
<time>2022-09-08T09:28:34.003Z</time>
</trkpt>
<trkpt lat="41.9467470" lon="1.8836130">
<ele>388.315186</ele>
<time>2022-09-08T09:28:34.997Z</time>
</trkpt>
<trkpt lat="41.9467740" lon="1.8836360">
<ele>388.254242</ele>
<time>2022-09-08T09:28:35.999Z</time>
</trkpt>
<trkpt lat="41.9468010" lon="1.8836640">
<ele>388.101868</ele>
<time>2022-09-08T09:28:37.001Z</time>
</trkpt>
<trkpt lat="41.9468260" lon="1.8836950">
<ele>387.918945</ele>
<time>2022-09-08T09:28:38.004Z</time>
</trkpt>
<trkpt lat="41.9468490" lon="1.8837270">
<ele>387.675140</ele>
<time>2022-09-08T09:28:38.997Z</time>
</trkpt>
<trkpt lat="41.9468750" lon="1.8837530">
<ele>387.492249</ele>
<time>2022-09-08T09:28:39.999Z</time>
</trkpt>
<trkpt lat="41.9469040" lon="1.8837740">
<ele>387.370331</ele>
<time>2022-09-08T09:28:41.002Z</time>
</trkpt>
<trkpt lat="41.9469360" lon="1.8837860">
<ele>387.370331</ele>
<time>2022-09-08T09:28:42.004Z</time>
</trkpt>
<trkpt lat="41.9469710" lon="1.8837920">
<ele>387.370331</ele>
<time>2022-09-08T09:28:42.997Z</time>
</trkpt>
<trkpt lat="41.9470020" lon="1.8837880">
<ele>387.492249</ele>
<time>2022-09-08T09:28:44.000Z</time>
</trkpt>
<trkpt lat="41.9470460" lon="1.8837700">
<ele>387.736084</ele>
<time>2022-09-08T09:28:45.002Z</time>
</trkpt>
<trkpt lat="41.9470800" lon="1.8837510">
<ele>387.979919</ele>
<time>2022-09-08T09:28:46.004Z</time>
</trkpt>
<trkpt lat="41.9471110" lon="1.8837260">
<ele>388.467590</ele>
<time>2022-09-08T09:28:46.998Z</time>
</trkpt>
<trkpt lat="41.9471410" lon="1.8836960">
<ele>388.985748</ele>
<time>2022-09-08T09:28:48.000Z</time>
</trkpt>
<trkpt lat="41.9471710" lon="1.8836650">
<ele>389.534393</ele>
<time>2022-09-08T09:28:49.002Z</time>
</trkpt>
<trkpt lat="41.9472010" lon="1.8836320">
<ele>390.113525</ele>
<time>2022-09-08T09:28:49.996Z</time>
</trkpt>
<trkpt lat="41.9472300" lon="1.8835990">
<ele>390.662140</ele>
<time>2022-09-08T09:28:50.998Z</time>
</trkpt>
<trkpt lat="41.9472550" lon="1.8835670">
<ele>391.149841</ele>
<time>2022-09-08T09:28:52.000Z</time>
</trkpt>
<trkpt lat="41.9472730" lon="1.8835290">
<ele>391.637512</ele>
<time>2022-09-08T09:28:53.003Z</time>
</trkpt>
<trkpt lat="41.9472850" lon="1.8834880">
<ele>392.064270</ele>
<time>2022-09-08T09:28:53.996Z</time>
</trkpt>
<trkpt lat="41.9472990" lon="1.8834420">
<ele>392.551941</ele>
<time>2022-09-08T09:28:54.998Z</time>
</trkpt>
<trkpt lat="41.9473170" lon="1.8834110">
<ele>392.917664</ele>
<time>2022-09-08T09:28:56.001Z</time>
</trkpt>
<trkpt lat="41.9473340" lon="1.8833940">
<ele>393.222473</ele>
<time>2022-09-08T09:28:57.003Z</time>
</trkpt>
<trkpt lat="41.9473600" lon="1.8833770">
<ele>393.588257</ele>
<time>2022-09-08T09:28:57.996Z</time>
</trkpt>
<trkpt lat="41.9473790" lon="1.8833680">
<ele>393.862549</ele>
<time>2022-09-08T09:28:58.999Z</time>
</trkpt>
<trkpt lat="41.9474050" lon="1.8833570">
<ele>394.197845</ele>
<time>2022-09-08T09:29:00.001Z</time>
</trkpt>
<trkpt lat="41.9474280" lon="1.8833460">
<ele>394.502655</ele>
<time>2022-09-08T09:29:01.003Z</time>
</trkpt>
<trkpt lat="41.9474520" lon="1.8833330">
<ele>394.837921</ele>
<time>2022-09-08T09:29:01.997Z</time>
</trkpt>
<trkpt lat="41.9474760" lon="1.8833200">
<ele>395.173187</ele>
<time>2022-09-08T09:29:02.999Z</time>
</trkpt>
<trkpt lat="41.9475000" lon="1.8833100">
<ele>395.447540</ele>
<time>2022-09-08T09:29:04.001Z</time>
</trkpt>
<trkpt lat="41.9475220" lon="1.8832960">
<ele>395.782806</ele>
<time>2022-09-08T09:29:05.004Z</time>
</trkpt>
<trkpt lat="41.9475400" lon="1.8832780">
<ele>396.087585</ele>
<time>2022-09-08T09:29:05.997Z</time>
</trkpt>
<trkpt lat="41.9475600" lon="1.8832570">
<ele>396.422882</ele>
<time>2022-09-08T09:29:06.999Z</time>
</trkpt>
<trkpt lat="41.9475830" lon="1.8832370">
<ele>396.788666</ele>
<time>2022-09-08T09:29:08.002Z</time>
</trkpt>
<trkpt lat="41.9476040" lon="1.8832200">
<ele>397.123932</ele>
<time>2022-09-08T09:29:09.004Z</time>
</trkpt>
<trkpt lat="41.9476260" lon="1.8832060">
<ele>397.398254</ele>
<time>2022-09-08T09:29:09.997Z</time>
</trkpt>
<trkpt lat="41.9476470" lon="1.8831930">
<ele>397.703064</ele>
<time>2022-09-08T09:29:11.000Z</time>
</trkpt>
<trkpt lat="41.9476640" lon="1.8831810">
<ele>397.946869</ele>
<time>2022-09-08T09:29:12.002Z</time>
</trkpt>
<trkpt lat="41.9476850" lon="1.8831670">
<ele>398.251678</ele>
<time>2022-09-08T09:29:13.004Z</time>
</trkpt>
<trkpt lat="41.9477110" lon="1.8831490">
<ele>398.586945</ele>
<time>2022-09-08T09:29:13.998Z</time>
</trkpt>
<trkpt lat="41.9477280" lon="1.8831360">
<ele>398.830811</ele>
<time>2022-09-08T09:29:15.000Z</time>
</trkpt>
<trkpt lat="41.9477420" lon="1.8831270">
<ele>399.013672</ele>
<time>2022-09-08T09:29:16.002Z</time>
</trkpt>
<trkpt lat="41.9477550" lon="1.8831210">
<ele>399.135590</ele>
<time>2022-09-08T09:29:16.996Z</time>
</trkpt>
<trkpt lat="41.9477670" lon="1.8831100">
<ele>399.318481</ele>
<time>2022-09-08T09:29:17.998Z</time>
</trkpt>
<trkpt lat="41.9477860" lon="1.8830900">
<ele>399.623260</ele>
<time>2022-09-08T09:29:19.000Z</time>
</trkpt>
<trkpt lat="41.9478040" lon="1.8830690">
<ele>399.928070</ele>
<time>2022-09-08T09:29:20.003Z</time>
</trkpt>
<trkpt lat="41.9478200" lon="1.8830510">
<ele>400.171936</ele>
<time>2022-09-08T09:29:20.996Z</time>
</trkpt>
<trkpt lat="41.9478380" lon="1.8830330">
<ele>400.446259</ele>
<time>2022-09-08T09:29:21.998Z</time>
</trkpt>
<trkpt lat="41.9478570" lon="1.8830170">
<ele>400.720551</ele>
<time>2022-09-08T09:29:23.001Z</time>
</trkpt>
<trkpt lat="41.9478800" lon="1.8830000">
<ele>400.994873</ele>
<time>2022-09-08T09:29:24.003Z</time>
</trkpt>
<trkpt lat="41.9479050" lon="1.8829840">
<ele>401.299683</ele>
<time>2022-09-08T09:29:24.996Z</time>
</trkpt>
<trkpt lat="41.9479310" lon="1.8829700">
<ele>401.574005</ele>
<time>2022-09-08T09:29:25.999Z</time>
</trkpt>
<trkpt lat="41.9479630" lon="1.8829570">
<ele>401.939758</ele>
<time>2022-09-08T09:29:27.001Z</time>
</trkpt>
<trkpt lat="41.9479990" lon="1.8829470">
<ele>402.244537</ele>
<time>2022-09-08T09:29:28.003Z</time>
</trkpt>
<trkpt lat="41.9480410" lon="1.8829410">
<ele>402.518860</ele>
<time>2022-09-08T09:29:28.997Z</time>
</trkpt>
<trkpt lat="41.9480850" lon="1.8829260">
<ele>402.884644</ele>
<time>2022-09-08T09:29:29.999Z</time>
</trkpt>
<trkpt lat="41.9481270" lon="1.8828980">
<ele>403.494263</ele>
<time>2022-09-08T09:29:31.001Z</time>
</trkpt>
<trkpt lat="41.9481700" lon="1.8828670">
<ele>404.164795</ele>
<time>2022-09-08T09:29:32.004Z</time>
</trkpt>
<trkpt lat="41.9482130" lon="1.8828450">
<ele>404.682953</ele>
<time>2022-09-08T09:29:32.997Z</time>
</trkpt>
<trkpt lat="41.9482540" lon="1.8828460">
<ele>404.743927</ele>
<time>2022-09-08T09:29:33.999Z</time>
</trkpt>
<trkpt lat="41.9482950" lon="1.8828620">
<ele>404.469604</ele>
<time>2022-09-08T09:29:35.002Z</time>
</trkpt>
<trkpt lat="41.9483330" lon="1.8828810">
<ele>404.103851</ele>
<time>2022-09-08T09:29:36.004Z</time>
</trkpt>
<trkpt lat="41.9483640" lon="1.8828900">
<ele>403.890472</ele>
<time>2022-09-08T09:29:36.997Z</time>
</trkpt>
<trkpt lat="41.9484120" lon="1.8829080">
<ele>403.433258</ele>
<time>2022-09-08T09:29:38.000Z</time>
</trkpt>
<trkpt lat="41.9484550" lon="1.8829230">
<ele>403.006531</ele>
<time>2022-09-08T09:29:39.002Z</time>
</trkpt>
<trkpt lat="41.9485010" lon="1.8829420">
<ele>402.518860</ele>
<time>2022-09-08T09:29:40.004Z</time>
</trkpt>
<trkpt lat="41.9485500" lon="1.8829620">
<ele>401.939758</ele>
<time>2022-09-08T09:29:40.998Z</time>
</trkpt>
<trkpt lat="41.9485990" lon="1.8829830">
<ele>401.299683</ele>
<time>2022-09-08T09:29:42.000Z</time>
</trkpt>
<trkpt lat="41.9486530" lon="1.8830070">
<ele>400.507202</ele>
<time>2022-09-08T09:29:43.002Z</time>
</trkpt>
<trkpt lat="41.9487100" lon="1.8830310">
<ele>399.684265</ele>
<time>2022-09-08T09:29:43.996Z</time>
</trkpt>
<trkpt lat="41.9487650" lon="1.8830510">
<ele>398.922241</ele>
<time>2022-09-08T09:29:44.998Z</time>
</trkpt>
<trkpt lat="41.9488170" lon="1.8830700">
<ele>398.160248</ele>
<time>2022-09-08T09:29:46.000Z</time>
</trkpt>
<trkpt lat="41.9488700" lon="1.8830920">
<ele>397.276337</ele>
<time>2022-09-08T09:29:47.003Z</time>
</trkpt>
<trkpt lat="41.9489260" lon="1.8831150">
<ele>396.361938</ele>
<time>2022-09-08T09:29:47.996Z</time>
</trkpt>
<trkpt lat="41.9489830" lon="1.8831400">
<ele>395.386536</ele>
<time>2022-09-08T09:29:48.998Z</time>
</trkpt>
<trkpt lat="41.9490400" lon="1.8831630">
<ele>394.441681</ele>
<time>2022-09-08T09:29:50.001Z</time>
</trkpt>
<trkpt lat="41.9490970" lon="1.8831850">
<ele>393.557739</ele>
<time>2022-09-08T09:29:51.003Z</time>
</trkpt>
<trkpt lat="41.9491450" lon="1.8832040">
<ele>392.826263</ele>
<time>2022-09-08T09:29:51.996Z</time>
</trkpt>
<trkpt lat="41.9492190" lon="1.8832290">
<ele>391.911865</ele>
<time>2022-09-08T09:29:52.999Z</time>
</trkpt>
<trkpt lat="41.9492770" lon="1.8832480">
<ele>391.271759</ele>
<time>2022-09-08T09:29:54.001Z</time>
</trkpt>
<trkpt lat="41.9493190" lon="1.8832610">
<ele>390.875519</ele>
<time>2022-09-08T09:29:55.003Z</time>
</trkpt>
<trkpt lat="41.9493880" lon="1.8832800">
<ele>390.387848</ele>
<time>2022-09-08T09:29:55.997Z</time>
</trkpt>
<trkpt lat="41.9494440" lon="1.8832950">
<ele>390.083069</ele>
<time>2022-09-08T09:29:56.999Z</time>
</trkpt>
<trkpt lat="41.9494980" lon="1.8833110">
<ele>389.869659</ele>
<time>2022-09-08T09:29:58.001Z</time>
</trkpt>
<trkpt lat="41.9495530" lon="1.8833270">
<ele>389.778259</ele>
<time>2022-09-08T09:29:59.004Z</time>
</trkpt>
<trkpt lat="41.9496060" lon="1.8833420">
<ele>389.747742</ele>
<time>2022-09-08T09:29:59.997Z</time>
</trkpt>
<trkpt lat="41.9496540" lon="1.8833550">
<ele>389.717285</ele>
<time>2022-09-08T09:30:00.999Z</time>
</trkpt>
<trkpt lat="41.9496950" lon="1.8833630">
<ele>389.839203</ele>
<time>2022-09-08T09:30:02.002Z</time>
</trkpt>
<trkpt lat="41.9497290" lon="1.8833720">
<ele>389.900146</ele>
<time>2022-09-08T09:30:03.004Z</time>
</trkpt>
<trkpt lat="41.9497570" lon="1.8833880">
<ele>389.778259</ele>
<time>2022-09-08T09:30:03.997Z</time>
</trkpt>
<trkpt lat="41.9497830" lon="1.8834060">
<ele>389.625854</ele>
<time>2022-09-08T09:30:05.000Z</time>
</trkpt>
<trkpt lat="41.9498020" lon="1.8834130">
<ele>389.656342</ele>
<time>2022-09-08T09:30:06.002Z</time>
</trkpt>
<trkpt lat="41.9498270" lon="1.8834190">
<ele>389.747742</ele>
<time>2022-09-08T09:30:07.004Z</time>
</trkpt>
<trkpt lat="41.9498470" lon="1.8834260">
<ele>389.808716</ele>
<time>2022-09-08T09:30:07.998Z</time>
</trkpt>
<trkpt lat="41.9498640" lon="1.8834300">
<ele>389.869659</ele>
<time>2022-09-08T09:30:09.000Z</time>
</trkpt>
<trkpt lat="41.9498810" lon="1.8834370">
<ele>389.930664</ele>
<time>2022-09-08T09:30:10.002Z</time>
</trkpt>
<trkpt lat="41.9498910" lon="1.8834490">
<ele>389.747742</ele>
<time>2022-09-08T09:30:10.996Z</time>
</trkpt>
<trkpt lat="41.9498980" lon="1.8834680">
<ele>389.412476</ele>
<time>2022-09-08T09:30:11.998Z</time>
</trkpt>
<trkpt lat="41.9498920" lon="1.8834790">
<ele>389.077209</ele>
<time>2022-09-08T09:30:13.000Z</time>
</trkpt>
<trkpt lat="41.9498770" lon="1.8834940">
<ele>388.619995</ele>
<time>2022-09-08T09:30:14.003Z</time>
</trkpt>
<trkpt lat="41.9498550" lon="1.8834980">
<ele>388.284729</ele>
<time>2022-09-08T09:30:14.996Z</time>
</trkpt>
<trkpt lat="41.9498360" lon="1.8834990">
<ele>388.071350</ele>
<time>2022-09-08T09:30:15.998Z</time>
</trkpt>
<trkpt lat="41.9498240" lon="1.8835130">
<ele>387.644653</ele>
<time>2022-09-08T09:30:17.001Z</time>
</trkpt>
<trkpt lat="41.9498210" lon="1.8835300">
<ele>387.217926</ele>
<time>2022-09-08T09:30:18.003Z</time>
</trkpt>
<trkpt lat="41.9498280" lon="1.8835440">
<ele>386.974060</ele>
<time>2022-09-08T09:30:18.996Z</time>
</trkpt>
<trkpt lat="41.9498310" lon="1.8835480">
<ele>386.882660</ele>
<time>2022-09-08T09:30:19.999Z</time>
</trkpt>
<trkpt lat="41.9498310" lon="1.8835480">
<ele>386.882660</ele>
<time>2022-09-08T09:30:21.001Z</time>
</trkpt>
<trkpt lat="41.9498630" lon="1.8835870">
<ele>386.364471</ele>
<time>2022-09-08T09:31:17.999Z</time>
</trkpt>
<trkpt lat="41.9498850" lon="1.8836130">
<ele>385.998718</ele>
<time>2022-09-08T09:31:19.001Z</time>
</trkpt>
<trkpt lat="41.9499120" lon="1.8836440">
<ele>385.602478</ele>
<time>2022-09-08T09:31:20.004Z</time>
</trkpt>
<trkpt lat="41.9499480" lon="1.8836750">
<ele>385.267212</ele>
<time>2022-09-08T09:31:20.997Z</time>
</trkpt>
<trkpt lat="41.9499950" lon="1.8837140">
<ele>384.931915</ele>
<time>2022-09-08T09:31:21.999Z</time>
</trkpt>
<trkpt lat="41.9500500" lon="1.8837680">
<ele>384.261353</ele>
<time>2022-09-08T09:31:23.002Z</time>
</trkpt>
<trkpt lat="41.9501020" lon="1.8838320">
<ele>383.225067</ele>
<time>2022-09-08T09:31:24.004Z</time>
</trkpt>
<trkpt lat="41.9501590" lon="1.8839040">
<ele>382.036316</ele>
<time>2022-09-08T09:31:24.997Z</time>
</trkpt>
<trkpt lat="41.9502230" lon="1.8839650">
<ele>381.365753</ele>
<time>2022-09-08T09:31:26.000Z</time>
</trkpt>
<trkpt lat="41.9502950" lon="1.8840150">
<ele>381.121918</ele>
<time>2022-09-08T09:31:27.002Z</time>
</trkpt>
<trkpt lat="41.9503710" lon="1.8840590">
<ele>381.000000</ele>
<time>2022-09-08T09:31:28.004Z</time>
</trkpt>
<trkpt lat="41.9504490" lon="1.8840840">
<ele>381.304810</ele>
<time>2022-09-08T09:31:28.998Z</time>
</trkpt>
<trkpt lat="41.9505270" lon="1.8841040">
<ele>381.670532</ele>
<time>2022-09-08T09:31:30.000Z</time>
</trkpt>
<trkpt lat="41.9505950" lon="1.8841260">
<ele>381.792480</ele>
<time>2022-09-08T09:31:31.002Z</time>
</trkpt>
<trkpt lat="41.9506450" lon="1.8841500">
<ele>381.670532</ele>
<time>2022-09-08T09:31:31.996Z</time>
</trkpt>
<trkpt lat="41.9507030" lon="1.8841910">
<ele>381.243866</ele>
<time>2022-09-08T09:31:32.998Z</time>
</trkpt>
<trkpt lat="41.9507690" lon="1.8842500">
<ele>380.420868</ele>
<time>2022-09-08T09:31:34.000Z</time>
</trkpt>
<trkpt lat="41.9508270" lon="1.8842970">
<ele>379.811279</ele>
<time>2022-09-08T09:31:35.003Z</time>
</trkpt>
<trkpt lat="41.9508880" lon="1.8843400">
<ele>379.201660</ele>
<time>2022-09-08T09:31:35.996Z</time>
</trkpt>
<trkpt lat="41.9509610" lon="1.8843810">
<ele>378.592072</ele>
<time>2022-09-08T09:31:36.998Z</time>
</trkpt>
<trkpt lat="41.9510360" lon="1.8844030">
<ele>378.226318</ele>
<time>2022-09-08T09:31:38.001Z</time>
</trkpt>
<trkpt lat="41.9511120" lon="1.8843990">
<ele>378.256805</ele>
<time>2022-09-08T09:31:39.003Z</time>
</trkpt>
<trkpt lat="41.9511840" lon="1.8843840">
<ele>378.378723</ele>
<time>2022-09-08T09:31:39.996Z</time>
</trkpt>
<trkpt lat="41.9512340" lon="1.8843710">
<ele>378.439667</ele>
<time>2022-09-08T09:31:40.999Z</time>
</trkpt>
<trkpt lat="41.9512860" lon="1.8843580">
<ele>378.622559</ele>
<time>2022-09-08T09:31:42.001Z</time>
</trkpt>
<trkpt lat="41.9513200" lon="1.8843580">
<ele>378.592072</ele>
<time>2022-09-08T09:31:43.003Z</time>
</trkpt>
<trkpt lat="41.9513450" lon="1.8843730">
<ele>378.317749</ele>
<time>2022-09-08T09:31:43.997Z</time>
</trkpt>
<trkpt lat="41.9513600" lon="1.8843880">
<ele>378.012939</ele>
<time>2022-09-08T09:31:44.999Z</time>
</trkpt>
<trkpt lat="41.9513790" lon="1.8843920">
<ele>377.891052</ele>
<time>2022-09-08T09:31:46.001Z</time>
</trkpt>
<trkpt lat="41.9513990" lon="1.8843810">
<ele>378.073914</ele>
<time>2022-09-08T09:31:47.004Z</time>
</trkpt>
<trkpt lat="41.9514200" lon="1.8843610">
<ele>378.409210</ele>
<time>2022-09-08T09:31:47.997Z</time>
</trkpt>
<trkpt lat="41.9514390" lon="1.8843460">
<ele>378.653046</ele>
<time>2022-09-08T09:31:48.999Z</time>
</trkpt>
<trkpt lat="41.9514590" lon="1.8843290">
<ele>378.957855</ele>
<time>2022-09-08T09:31:50.002Z</time>
</trkpt>
<trkpt lat="41.9514770" lon="1.8843150">
<ele>379.171204</ele>
<time>2022-09-08T09:31:51.004Z</time>
</trkpt>
<trkpt lat="41.9514980" lon="1.8842990">
<ele>379.445526</ele>
<time>2022-09-08T09:31:51.997Z</time>
</trkpt>
<trkpt lat="41.9515210" lon="1.8842760">
<ele>379.872253</ele>
<time>2022-09-08T09:31:53.000Z</time>
</trkpt>
<trkpt lat="41.9515360" lon="1.8842600">
<ele>380.177063</ele>
<time>2022-09-08T09:31:54.002Z</time>
</trkpt>
<trkpt lat="41.9515480" lon="1.8842540">
<ele>380.268463</ele>
<time>2022-09-08T09:31:55.004Z</time>
</trkpt>
<trkpt lat="41.9515560" lon="1.8842510">
<ele>380.298950</ele>
<time>2022-09-08T09:31:55.998Z</time>
</trkpt>
<trkpt lat="41.9515710" lon="1.8842470">
<ele>380.329468</ele>
<time>2022-09-08T09:31:57.000Z</time>
</trkpt>
<trkpt lat="41.9515910" lon="1.8842450">
<ele>380.298950</ele>
<time>2022-09-08T09:31:58.002Z</time>
</trkpt>
<trkpt lat="41.9516190" lon="1.8842400">
<ele>380.329468</ele>
<time>2022-09-08T09:31:58.996Z</time>
</trkpt>
<trkpt lat="41.9516530" lon="1.8842160">
<ele>380.725677</ele>
<time>2022-09-08T09:31:59.998Z</time>
</trkpt>
<trkpt lat="41.9516660" lon="1.8841900">
<ele>381.274323</ele>
<time>2022-09-08T09:32:01.000Z</time>
</trkpt>
<trkpt lat="41.9516690" lon="1.8841540">
<ele>382.158264</ele>
<time>2022-09-08T09:32:02.003Z</time>
</trkpt>
<trkpt lat="41.9516700" lon="1.8841270">
<ele>382.828796</ele>
<time>2022-09-08T09:32:02.996Z</time>
</trkpt>
<trkpt lat="41.9516770" lon="1.8841010">
<ele>383.468872</ele>
<time>2022-09-08T09:32:03.998Z</time>
</trkpt>
<trkpt lat="41.9516840" lon="1.8840720">
<ele>384.200409</ele>
<time>2022-09-08T09:32:05.001Z</time>
</trkpt>
<trkpt lat="41.9516980" lon="1.8840340">
<ele>385.145264</ele>
<time>2022-09-08T09:32:06.003Z</time>
</trkpt>
<trkpt lat="41.9517190" lon="1.8840050">
<ele>385.846313</ele>
<time>2022-09-08T09:32:06.996Z</time>
</trkpt>
<trkpt lat="41.9517410" lon="1.8839890">
<ele>386.151123</ele>
<time>2022-09-08T09:32:07.999Z</time>
</trkpt>
<trkpt lat="41.9517680" lon="1.8839770">
<ele>386.334015</ele>
<time>2022-09-08T09:32:09.001Z</time>
</trkpt>
<trkpt lat="41.9517880" lon="1.8839630">
<ele>386.577850</ele>
<time>2022-09-08T09:32:10.003Z</time>
</trkpt>
<trkpt lat="41.9517930" lon="1.8839600">
<ele>386.638794</ele>
<time>2022-09-08T09:32:10.997Z</time>
</trkpt>
<trkpt lat="41.9517930" lon="1.8839600">
<ele>386.638794</ele>
<time>2022-09-08T09:32:11.999Z</time>
</trkpt>
<trkpt lat="41.9517940" lon="1.8839610">
<ele>386.608337</ele>
<time>2022-09-08T09:32:13.001Z</time>
</trkpt>
<trkpt lat="41.9519150" lon="1.8836920">
<ele>393.405334</ele>
<time>2022-09-08T09:32:32.001Z</time>
</trkpt>
<trkpt lat="41.9518940" lon="1.8836530">
<ele>394.716003</ele>
<time>2022-09-08T09:32:33.003Z</time>
</trkpt>
<trkpt lat="41.9519120" lon="1.8836110">
<ele>395.630402</ele>
<time>2022-09-08T09:32:33.996Z</time>
</trkpt>
<trkpt lat="41.9519280" lon="1.8835710">
<ele>396.483856</ele>
<time>2022-09-08T09:32:34.999Z</time>
</trkpt>
<trkpt lat="41.9519410" lon="1.8835390">
<ele>397.062958</ele>
<time>2022-09-08T09:32:36.001Z</time>
</trkpt>
<trkpt lat="41.9519510" lon="1.8835080">
<ele>397.703064</ele>
<time>2022-09-08T09:32:37.003Z</time>
</trkpt>
<trkpt lat="41.9519660" lon="1.8834850">
<ele>398.038330</ele>
<time>2022-09-08T09:32:37.997Z</time>
</trkpt>
<trkpt lat="41.9519780" lon="1.8834450">
<ele>398.769867</ele>
<time>2022-09-08T09:32:38.999Z</time>
</trkpt>
<trkpt lat="41.9519980" lon="1.8833900">
<ele>399.592804</ele>
<time>2022-09-08T09:32:40.001Z</time>
</trkpt>
<trkpt lat="41.9520140" lon="1.8833640">
<ele>399.867126</ele>
<time>2022-09-08T09:32:41.004Z</time>
</trkpt>
<trkpt lat="41.9520270" lon="1.8833530">
<ele>399.867126</ele>
<time>2022-09-08T09:32:41.997Z</time>
</trkpt>
<trkpt lat="41.9520510" lon="1.8833260">
<ele>399.928070</ele>
<time>2022-09-08T09:32:42.999Z</time>
</trkpt>
<trkpt lat="41.9520660" lon="1.8832830">
<ele>400.446259</ele>
<time>2022-09-08T09:32:44.002Z</time>
</trkpt>
<trkpt lat="41.9520920" lon="1.8832530">
<ele>400.385284</ele>
<time>2022-09-08T09:32:45.004Z</time>
</trkpt>
<trkpt lat="41.9521270" lon="1.8832470">
<ele>399.684265</ele>
<time>2022-09-08T09:32:45.997Z</time>
</trkpt>
<trkpt lat="41.9521680" lon="1.8832280">
<ele>398.983185</ele>
<time>2022-09-08T09:32:47.000Z</time>
</trkpt>
<trkpt lat="41.9521970" lon="1.8831950">
<ele>398.830811</ele>
<time>2022-09-08T09:32:48.002Z</time>
</trkpt>
<trkpt lat="41.9522290" lon="1.8831530">
<ele>398.800323</ele>
<time>2022-09-08T09:32:49.004Z</time>
</trkpt>
<trkpt lat="41.9522520" lon="1.8831120">
<ele>398.952728</ele>
<time>2022-09-08T09:32:49.998Z</time>
</trkpt>
<trkpt lat="41.9522660" lon="1.8830660">
<ele>399.409943</ele>
<time>2022-09-08T09:32:51.000Z</time>
</trkpt>
<trkpt lat="41.9522800" lon="1.8830240">
<ele>399.867126</ele>
<time>2022-09-08T09:32:52.002Z</time>
</trkpt>
<trkpt lat="41.9523010" lon="1.8829970">
<ele>399.745209</ele>
<time>2022-09-08T09:32:52.996Z</time>
</trkpt>
<trkpt lat="41.9523200" lon="1.8829580">
<ele>399.958557</ele>
<time>2022-09-08T09:32:53.998Z</time>
</trkpt>
<trkpt lat="41.9523370" lon="1.8829150">
<ele>400.385284</ele>
<time>2022-09-08T09:32:55.000Z</time>
</trkpt>
<trkpt lat="41.9523680" lon="1.8828810">
<ele>400.141449</ele>
<time>2022-09-08T09:32:56.003Z</time>
</trkpt>
<trkpt lat="41.9523950" lon="1.8828360">
<ele>400.324341</ele>
<time>2022-09-08T09:32:56.996Z</time>
</trkpt>
<trkpt lat="41.9524220" lon="1.8827980">
<ele>400.293854</ele>
<time>2022-09-08T09:32:57.998Z</time>
</trkpt>
<trkpt lat="41.9524670" lon="1.8827640">
<ele>399.714722</ele>
<time>2022-09-08T09:32:59.001Z</time>
</trkpt>
<trkpt lat="41.9525170" lon="1.8827190">
<ele>399.196533</ele>
<time>2022-09-08T09:33:00.003Z</time>
</trkpt>
<trkpt lat="41.9525330" lon="1.8826660">
<ele>399.745209</ele>
<time>2022-09-08T09:33:00.996Z</time>
</trkpt>
<trkpt lat="41.9525560" lon="1.8826020">
<ele>400.293854</ele>
<time>2022-09-08T09:33:01.999Z</time>
</trkpt>
<trkpt lat="41.9525750" lon="1.8825370">
<ele>400.964386</ele>
<time>2022-09-08T09:33:03.001Z</time>
</trkpt>
<trkpt lat="41.9525920" lon="1.8825070">
<ele>401.116791</ele>
<time>2022-09-08T09:33:04.003Z</time>
</trkpt>
<trkpt lat="41.9526090" lon="1.8824850">
<ele>401.086334</ele>
<time>2022-09-08T09:33:04.997Z</time>
</trkpt>
<trkpt lat="41.9526290" lon="1.8824620">
<ele>401.086334</ele>
<time>2022-09-08T09:33:05.999Z</time>
</trkpt>
<trkpt lat="41.9526440" lon="1.8824460">
<ele>401.025360</ele>
<time>2022-09-08T09:33:07.001Z</time>
</trkpt>
<trkpt lat="41.9526670" lon="1.8824360">
<ele>400.720551</ele>
<time>2022-09-08T09:33:08.004Z</time>
</trkpt>
<trkpt lat="41.9526840" lon="1.8824270">
<ele>400.568146</ele>
<time>2022-09-08T09:33:08.997Z</time>
</trkpt>
<trkpt lat="41.9527090" lon="1.8824040">
<ele>400.415741</ele>
<time>2022-09-08T09:33:09.999Z</time>
</trkpt>
<trkpt lat="41.9527280" lon="1.8823870">
<ele>400.324341</ele>
<time>2022-09-08T09:33:11.002Z</time>
</trkpt>
<trkpt lat="41.9527520" lon="1.8823650">
<ele>400.232880</ele>
<time>2022-09-08T09:33:12.004Z</time>
</trkpt>
<trkpt lat="41.9527860" lon="1.8823460">
<ele>399.836670</ele>
<time>2022-09-08T09:33:12.997Z</time>
</trkpt>
<trkpt lat="41.9528240" lon="1.8823110">
<ele>399.653748</ele>
<time>2022-09-08T09:33:14.000Z</time>
</trkpt>
<trkpt lat="41.9528580" lon="1.8822490">
<ele>400.080475</ele>
<time>2022-09-08T09:33:15.002Z</time>
</trkpt>
<trkpt lat="41.9529090" lon="1.8821770">
<ele>400.293854</ele>
<time>2022-09-08T09:33:16.004Z</time>
</trkpt>
<trkpt lat="41.9529680" lon="1.8821130">
<ele>400.141449</ele>
<time>2022-09-08T09:33:16.998Z</time>
</trkpt>
<trkpt lat="41.9530010" lon="1.8820760">
<ele>400.171936</ele>
<time>2022-09-08T09:33:18.000Z</time>
</trkpt>
<trkpt lat="41.9530340" lon="1.8820340">
<ele>400.263336</ele>
<time>2022-09-08T09:33:19.002Z</time>
</trkpt>
<trkpt lat="41.9530610" lon="1.8819940">
<ele>400.415741</ele>
<time>2022-09-08T09:33:19.996Z</time>
</trkpt>
<trkpt lat="41.9530920" lon="1.8819520">
<ele>400.415741</ele>
<time>2022-09-08T09:33:20.998Z</time>
</trkpt>
<trkpt lat="41.9531250" lon="1.8819140">
<ele>400.171936</ele>
<time>2022-09-08T09:33:22.000Z</time>
</trkpt>
<trkpt lat="41.9531620" lon="1.8818830">
<ele>399.653748</ele>
<time>2022-09-08T09:33:23.003Z</time>
</trkpt>
<trkpt lat="41.9532000" lon="1.8818550">
<ele>399.044159</ele>
<time>2022-09-08T09:33:23.996Z</time>
</trkpt>
<trkpt lat="41.9532300" lon="1.8818320">
<ele>398.556458</ele>
<time>2022-09-08T09:33:24.998Z</time>
</trkpt>
<trkpt lat="41.9532560" lon="1.8818060">
<ele>398.282135</ele>
<time>2022-09-08T09:33:26.001Z</time>
</trkpt>
<trkpt lat="41.9532740" lon="1.8817920">
<ele>397.916412</ele>
<time>2022-09-08T09:33:27.003Z</time>
</trkpt>
<trkpt lat="41.9532960" lon="1.8817710">
<ele>397.550659</ele>
<time>2022-09-08T09:33:27.996Z</time>
</trkpt>
<trkpt lat="41.9533530" lon="1.8817290">
<ele>396.453339</ele>
<time>2022-09-08T09:33:28.999Z</time>
</trkpt>
<trkpt lat="41.9534190" lon="1.8816690">
<ele>395.325592</ele>
<time>2022-09-08T09:33:30.001Z</time>
</trkpt>
<trkpt lat="41.9534970" lon="1.8816020">
<ele>393.801605</ele>
<time>2022-09-08T09:33:31.003Z</time>
</trkpt>
<trkpt lat="41.9535860" lon="1.8815440">
<ele>391.942322</ele>
<time>2022-09-08T09:33:31.997Z</time>
</trkpt>
<trkpt lat="41.9536430" lon="1.8814950">
<ele>390.875519</ele>
<time>2022-09-08T09:33:32.999Z</time>
</trkpt>
<trkpt lat="41.9536840" lon="1.8814610">
<ele>390.083069</ele>
<time>2022-09-08T09:33:34.001Z</time>
</trkpt>
<trkpt lat="41.9537220" lon="1.8814350">
<ele>389.442932</ele>
<time>2022-09-08T09:33:35.004Z</time>
</trkpt>
<trkpt lat="41.9537360" lon="1.8814320">
<ele>389.046722</ele>
<time>2022-09-08T09:33:35.997Z</time>
</trkpt>
<trkpt lat="41.9537480" lon="1.8814270">
<ele>388.802887</ele>
<time>2022-09-08T09:33:36.999Z</time>
</trkpt>
<trkpt lat="41.9537630" lon="1.8814010">
<ele>388.711456</ele>
<time>2022-09-08T09:33:38.002Z</time>
</trkpt>
<trkpt lat="41.9537820" lon="1.8813420">
<ele>388.985748</ele>
<time>2022-09-08T09:33:39.004Z</time>
</trkpt>
<trkpt lat="41.9538100" lon="1.8812910">
<ele>388.955261</ele>
<time>2022-09-08T09:33:39.997Z</time>
</trkpt>
<trkpt lat="41.9538590" lon="1.8812540">
<ele>388.437134</ele>
<time>2022-09-08T09:33:41.000Z</time>
</trkpt>
<trkpt lat="41.9538960" lon="1.8812360">
<ele>387.949463</ele>
<time>2022-09-08T09:33:42.002Z</time>
</trkpt>
<trkpt lat="41.9539380" lon="1.8812220">
<ele>387.339844</ele>
<time>2022-09-08T09:33:43.004Z</time>
</trkpt>
<trkpt lat="41.9539790" lon="1.8812040">
<ele>386.913116</ele>
<time>2022-09-08T09:33:43.998Z</time>
</trkpt>
<trkpt lat="41.9540190" lon="1.8811780">
<ele>386.760742</ele>
<time>2022-09-08T09:33:45.000Z</time>
</trkpt>
<trkpt lat="41.9540580" lon="1.8811500">
<ele>386.638794</ele>
<time>2022-09-08T09:33:46.002Z</time>
</trkpt>
<trkpt lat="41.9541060" lon="1.8811300">
<ele>386.394958</ele>
<time>2022-09-08T09:33:46.996Z</time>
</trkpt>
<trkpt lat="41.9541530" lon="1.8811000">
<ele>386.455933</ele>
<time>2022-09-08T09:33:47.998Z</time>
</trkpt>
<trkpt lat="41.9541990" lon="1.8810560">
<ele>386.882660</ele>
<time>2022-09-08T09:33:49.000Z</time>
</trkpt>
<trkpt lat="41.9542420" lon="1.8810090">
<ele>387.583679</ele>
<time>2022-09-08T09:33:50.003Z</time>
</trkpt>
<trkpt lat="41.9542750" lon="1.8809640">
<ele>388.437134</ele>
<time>2022-09-08T09:33:50.996Z</time>
</trkpt>
<trkpt lat="41.9543060" lon="1.8809280">
<ele>389.107666</ele>
<time>2022-09-08T09:33:51.998Z</time>
</trkpt>
<trkpt lat="41.9543330" lon="1.8808960">
<ele>389.747742</ele>
<time>2022-09-08T09:33:53.001Z</time>
</trkpt>
<trkpt lat="41.9543570" lon="1.8808650">
<ele>390.448792</ele>
<time>2022-09-08T09:33:54.003Z</time>
</trkpt>
<trkpt lat="41.9543740" lon="1.8808370">
<ele>391.119354</ele>
<time>2022-09-08T09:33:54.996Z</time>
</trkpt>
<trkpt lat="41.9543890" lon="1.8808090">
<ele>391.789917</ele>
<time>2022-09-08T09:33:55.999Z</time>
</trkpt>
<trkpt lat="41.9544100" lon="1.8807890">
<ele>392.247131</ele>
<time>2022-09-08T09:33:57.001Z</time>
</trkpt>
<trkpt lat="41.9544280" lon="1.8807830">
<ele>392.338531</ele>
<time>2022-09-08T09:33:58.003Z</time>
</trkpt>
<trkpt lat="41.9544470" lon="1.8807740">
<ele>392.490936</ele>
<time>2022-09-08T09:33:58.997Z</time>
</trkpt>
<trkpt lat="41.9544700" lon="1.8807570">
<ele>392.887207</ele>
<time>2022-09-08T09:33:59.999Z</time>
</trkpt>
<trkpt lat="41.9544990" lon="1.8807300">
<ele>393.527283</ele>
<time>2022-09-08T09:34:01.001Z</time>
</trkpt>
<trkpt lat="41.9545280" lon="1.8806930">
<ele>394.411194</ele>
<time>2022-09-08T09:34:02.004Z</time>
</trkpt>
<trkpt lat="41.9545520" lon="1.8806490">
<ele>395.538940</ele>
<time>2022-09-08T09:34:02.997Z</time>
</trkpt>
<trkpt lat="41.9545740" lon="1.8806210">
<ele>396.179047</ele>
<time>2022-09-08T09:34:03.999Z</time>
</trkpt>
<trkpt lat="41.9546010" lon="1.8805960">
<ele>396.636261</ele>
<time>2022-09-08T09:34:05.002Z</time>
</trkpt>
<trkpt lat="41.9546240" lon="1.8805790">
<ele>396.880066</ele>
<time>2022-09-08T09:34:06.004Z</time>
</trkpt>
<trkpt lat="41.9546470" lon="1.8805610">
<ele>397.154388</ele>
<time>2022-09-08T09:34:06.997Z</time>
</trkpt>
<trkpt lat="41.9546760" lon="1.8805440">
<ele>397.306793</ele>
<time>2022-09-08T09:34:08.000Z</time>
</trkpt>
<trkpt lat="41.9547020" lon="1.8805210">
<ele>397.703064</ele>
<time>2022-09-08T09:34:09.002Z</time>
</trkpt>
<trkpt lat="41.9547260" lon="1.8804990">
<ele>398.007843</ele>
<time>2022-09-08T09:34:10.004Z</time>
</trkpt>
<trkpt lat="41.9547520" lon="1.8804870">
<ele>398.038330</ele>
<time>2022-09-08T09:34:10.998Z</time>
</trkpt>
<trkpt lat="41.9547760" lon="1.8804770">
<ele>398.068787</ele>
<time>2022-09-08T09:34:12.000Z</time>
</trkpt>
<trkpt lat="41.9547980" lon="1.8804720">
<ele>397.946869</ele>
<time>2022-09-08T09:34:13.002Z</time>
</trkpt>
<trkpt lat="41.9548100" lon="1.8804600">
<ele>398.129730</ele>
<time>2022-09-08T09:34:13.996Z</time>
</trkpt>
<trkpt lat="41.9548190" lon="1.8804360">
<ele>398.647919</ele>
<time>2022-09-08T09:34:14.998Z</time>
</trkpt>
<trkpt lat="41.9548290" lon="1.8804160">
<ele>399.013672</ele>
<time>2022-09-08T09:34:16.000Z</time>
</trkpt>
<trkpt lat="41.9548390" lon="1.8803950">
<ele>399.470886</ele>
<time>2022-09-08T09:34:17.003Z</time>
</trkpt>
<trkpt lat="41.9548540" lon="1.8803810">
<ele>399.684265</ele>
<time>2022-09-08T09:34:17.996Z</time>
</trkpt>
<trkpt lat="41.9548590" lon="1.8803770">
<ele>399.684265</ele>
<time>2022-09-08T09:34:18.998Z</time>
</trkpt>
<trkpt lat="41.9548760" lon="1.8803730">
<ele>399.623260</ele>
<time>2022-09-08T09:34:20.001Z</time>
</trkpt>
<trkpt lat="41.9549090" lon="1.8803700">
<ele>399.318481</ele>
<time>2022-09-08T09:34:21.003Z</time>
</trkpt>
<trkpt lat="41.9549430" lon="1.8803620">
<ele>399.135590</ele>
<time>2022-09-08T09:34:21.996Z</time>
</trkpt>
<trkpt lat="41.9549610" lon="1.8803480">
<ele>399.287994</ele>
<time>2022-09-08T09:34:22.999Z</time>
</trkpt>
<trkpt lat="41.9549840" lon="1.8803300">
<ele>399.409943</ele>
<time>2022-09-08T09:34:24.001Z</time>
</trkpt>
<trkpt lat="41.9550040" lon="1.8803280">
<ele>399.196533</ele>
<time>2022-09-08T09:34:25.003Z</time>
</trkpt>
<trkpt lat="41.9550230" lon="1.8803230">
<ele>399.105133</ele>
<time>2022-09-08T09:34:25.997Z</time>
</trkpt>
<trkpt lat="41.9550580" lon="1.8803140">
<ele>398.922241</ele>
<time>2022-09-08T09:34:26.999Z</time>
</trkpt>
<trkpt lat="41.9551060" lon="1.8802950">
<ele>398.830811</ele>
<time>2022-09-08T09:34:28.001Z</time>
</trkpt>
<trkpt lat="41.9551490" lon="1.8802500">
<ele>399.257538</ele>
<time>2022-09-08T09:34:29.004Z</time>
</trkpt>
<trkpt lat="41.9551860" lon="1.8802220">
<ele>399.440399</ele>
<time>2022-09-08T09:34:29.997Z</time>
</trkpt>
<trkpt lat="41.9552000" lon="1.8802300">
<ele>399.166077</ele>
<time>2022-09-08T09:34:30.999Z</time>
</trkpt>
<trkpt lat="41.9552390" lon="1.8802430">
<ele>398.617462</ele>
<time>2022-09-08T09:34:32.002Z</time>
</trkpt>
<trkpt lat="41.9552440" lon="1.8802170">
<ele>399.074646</ele>
<time>2022-09-08T09:34:33.004Z</time>
</trkpt>
<trkpt lat="41.9552450" lon="1.8801920">
<ele>399.470886</ele>
<time>2022-09-08T09:34:33.997Z</time>
</trkpt>
<trkpt lat="41.9552550" lon="1.8801940">
<ele>399.379456</ele>
<time>2022-09-08T09:34:35.000Z</time>
</trkpt>
<trkpt lat="41.9552710" lon="1.8801810">
<ele>399.470886</ele>
<time>2022-09-08T09:34:36.002Z</time>
</trkpt>
<trkpt lat="41.9552840" lon="1.8801700">
<ele>399.592804</ele>
<time>2022-09-08T09:34:37.004Z</time>
</trkpt>
<trkpt lat="41.9552960" lon="1.8801610">
<ele>399.653748</ele>
<time>2022-09-08T09:34:37.998Z</time>
</trkpt>
<trkpt lat="41.9553150" lon="1.8801450">
<ele>399.836670</ele>
<time>2022-09-08T09:34:39.000Z</time>
</trkpt>
<trkpt lat="41.9553310" lon="1.8801400">
<ele>399.836670</ele>
<time>2022-09-08T09:34:40.002Z</time>
</trkpt>
<trkpt lat="41.9553510" lon="1.8801350">
<ele>399.836670</ele>
<time>2022-09-08T09:34:40.996Z</time>
</trkpt>
<trkpt lat="41.9553680" lon="1.8801360">
<ele>399.775665</ele>
<time>2022-09-08T09:34:41.998Z</time>
</trkpt>
<trkpt lat="41.9553860" lon="1.8801330">
<ele>399.775665</ele>
<time>2022-09-08T09:34:43.000Z</time>
</trkpt>
<trkpt lat="41.9554050" lon="1.8801320">
<ele>399.745209</ele>
<time>2022-09-08T09:34:44.003Z</time>
</trkpt>
<trkpt lat="41.9554300" lon="1.8801290">
<ele>399.714722</ele>
<time>2022-09-08T09:34:44.996Z</time>
</trkpt>
<trkpt lat="41.9554590" lon="1.8801250">
<ele>399.623260</ele>
<time>2022-09-08T09:34:45.998Z</time>
</trkpt>
<trkpt lat="41.9554770" lon="1.8801220">
<ele>399.592804</ele>
<time>2022-09-08T09:34:47.001Z</time>
</trkpt>
<trkpt lat="41.9554960" lon="1.8801220">
<ele>399.501343</ele>
<time>2022-09-08T09:34:48.003Z</time>
</trkpt>
<trkpt lat="41.9555150" lon="1.8801290">
<ele>399.287994</ele>
<time>2022-09-08T09:34:48.996Z</time>
</trkpt>
<trkpt lat="41.9555410" lon="1.8801260">
<ele>399.257538</ele>
<time>2022-09-08T09:34:49.999Z</time>
</trkpt>
<trkpt lat="41.9555640" lon="1.8801270">
<ele>399.135590</ele>
<time>2022-09-08T09:34:51.001Z</time>
</trkpt>
<trkpt lat="41.9555790" lon="1.8801400">
<ele>398.830811</ele>
<time>2022-09-08T09:34:52.003Z</time>
</trkpt>
<trkpt lat="41.9556000" lon="1.8801470">
<ele>398.586945</ele>
<time>2022-09-08T09:34:52.997Z</time>
</trkpt>
<trkpt lat="41.9556140" lon="1.8801550">
<ele>398.373596</ele>
<time>2022-09-08T09:34:53.999Z</time>
</trkpt>
<trkpt lat="41.9556310" lon="1.8801720">
<ele>397.946869</ele>
<time>2022-09-08T09:34:55.001Z</time>
</trkpt>
<trkpt lat="41.9556610" lon="1.8801700">
<ele>397.885925</ele>
<time>2022-09-08T09:34:56.004Z</time>
</trkpt>
<trkpt lat="41.9556910" lon="1.8801720">
<ele>397.764008</ele>
<time>2022-09-08T09:34:56.997Z</time>
</trkpt>
<trkpt lat="41.9557160" lon="1.8801680">
<ele>397.824951</ele>
<time>2022-09-08T09:34:57.999Z</time>
</trkpt>
<trkpt lat="41.9557420" lon="1.8801680">
<ele>397.824951</ele>
<time>2022-09-08T09:34:59.002Z</time>
</trkpt>
<trkpt lat="41.9557750" lon="1.8801900">
<ele>397.245850</ele>
<time>2022-09-08T09:35:00.004Z</time>
</trkpt>
<trkpt lat="41.9558130" lon="1.8802120">
<ele>396.666718</ele>
<time>2022-09-08T09:35:00.997Z</time>
</trkpt>
<trkpt lat="41.9558520" lon="1.8802290">
<ele>396.239990</ele>
<time>2022-09-08T09:35:02.000Z</time>
</trkpt>
<trkpt lat="41.9558870" lon="1.8802590">
<ele>395.447540</ele>
<time>2022-09-08T09:35:03.002Z</time>
</trkpt>
<trkpt lat="41.9559330" lon="1.8802970">
<ele>394.411194</ele>
<time>2022-09-08T09:35:04.004Z</time>
</trkpt>
<trkpt lat="41.9559820" lon="1.8803400">
<ele>393.252960</ele>
<time>2022-09-08T09:35:04.998Z</time>
</trkpt>
<trkpt lat="41.9560220" lon="1.8803760">
<ele>392.277588</ele>
<time>2022-09-08T09:35:06.000Z</time>
</trkpt>
<trkpt lat="41.9560580" lon="1.8804170">
<ele>391.149841</ele>
<time>2022-09-08T09:35:07.002Z</time>
</trkpt>
<trkpt lat="41.9560970" lon="1.8804460">
<ele>390.509735</ele>
<time>2022-09-08T09:35:07.996Z</time>
</trkpt>
<trkpt lat="41.9561350" lon="1.8804800">
<ele>389.717285</ele>
<time>2022-09-08T09:35:08.998Z</time>
</trkpt>
<trkpt lat="41.9561720" lon="1.8805230">
<ele>388.741913</ele>
<time>2022-09-08T09:35:10.000Z</time>
</trkpt>
<trkpt lat="41.9562170" lon="1.8805390">
<ele>388.985748</ele>
<time>2022-09-08T09:35:11.003Z</time>
</trkpt>
<trkpt lat="41.9562500" lon="1.8805810">
<ele>388.101868</ele>
<time>2022-09-08T09:35:11.996Z</time>
</trkpt>
<trkpt lat="41.9562910" lon="1.8806130">
<ele>387.675140</ele>
<time>2022-09-08T09:35:12.998Z</time>
</trkpt>
<trkpt lat="41.9563310" lon="1.8806390">
<ele>387.492249</ele>
<time>2022-09-08T09:35:14.001Z</time>
</trkpt>
<trkpt lat="41.9563750" lon="1.8806450">
<ele>388.193268</ele>
<time>2022-09-08T09:35:15.003Z</time>
</trkpt>
<trkpt lat="41.9564100" lon="1.8806680">
<ele>388.132324</ele>
<time>2022-09-08T09:35:15.996Z</time>
</trkpt>
<trkpt lat="41.9564470" lon="1.8806610">
<ele>389.229614</ele>
<time>2022-09-08T09:35:16.999Z</time>
</trkpt>
<trkpt lat="41.9564800" lon="1.8806660">
<ele>389.778259</ele>
<time>2022-09-08T09:35:18.001Z</time>
</trkpt>
<trkpt lat="41.9565390" lon="1.8807170">
<ele>389.595337</ele>
<time>2022-09-08T09:35:19.003Z</time>
</trkpt>
<trkpt lat="41.9565790" lon="1.8807610">
<ele>389.138153</ele>
<time>2022-09-08T09:35:19.997Z</time>
</trkpt>
<trkpt lat="41.9566170" lon="1.8807970">
<ele>388.985748</ele>
<time>2022-09-08T09:35:20.999Z</time>
</trkpt>
<trkpt lat="41.9566570" lon="1.8808200">
<ele>389.442932</ele>
<time>2022-09-08T09:35:22.001Z</time>
</trkpt>
<trkpt lat="41.9567090" lon="1.8808580">
<ele>389.778259</ele>
<time>2022-09-08T09:35:23.004Z</time>
</trkpt>
<trkpt lat="41.9567530" lon="1.8808790">
<ele>390.357330</ele>
<time>2022-09-08T09:35:23.997Z</time>
</trkpt>
<trkpt lat="41.9567930" lon="1.8808960">
<ele>391.119354</ele>
<time>2022-09-08T09:35:24.999Z</time>
</trkpt>
<trkpt lat="41.9568270" lon="1.8809250">
<ele>391.180328</ele>
<time>2022-09-08T09:35:26.002Z</time>
</trkpt>
<trkpt lat="41.9568720" lon="1.8809550">
<ele>391.759460</ele>
<time>2022-09-08T09:35:27.004Z</time>
</trkpt>
<trkpt lat="41.9569010" lon="1.8809790">
<ele>392.064270</ele>
<time>2022-09-08T09:35:27.997Z</time>
</trkpt>
<trkpt lat="41.9569340" lon="1.8810000">
<ele>392.551941</ele>
<time>2022-09-08T09:35:29.000Z</time>
</trkpt>
<trkpt lat="41.9569640" lon="1.8810300">
<ele>392.643341</ele>
<time>2022-09-08T09:35:30.002Z</time>
</trkpt>
<trkpt lat="41.9569920" lon="1.8810580">
<ele>392.948151</ele>
<time>2022-09-08T09:35:31.004Z</time>
</trkpt>
<trkpt lat="41.9570200" lon="1.8810820">
<ele>393.252960</ele>
<time>2022-09-08T09:35:31.998Z</time>
</trkpt>
<trkpt lat="41.9570460" lon="1.8811110">
<ele>393.466339</ele>
<time>2022-09-08T09:35:33.000Z</time>
</trkpt>
<trkpt lat="41.9570720" lon="1.8811400">
<ele>393.740662</ele>
<time>2022-09-08T09:35:34.002Z</time>
</trkpt>
<trkpt lat="41.9570970" lon="1.8811710">
<ele>393.832062</ele>
<time>2022-09-08T09:35:34.996Z</time>
</trkpt>
<trkpt lat="41.9571220" lon="1.8812070">
<ele>393.984467</ele>
<time>2022-09-08T09:35:35.998Z</time>
</trkpt>
<trkpt lat="41.9571440" lon="1.8812470">
<ele>393.954010</ele>
<time>2022-09-08T09:35:37.000Z</time>
</trkpt>
<trkpt lat="41.9571610" lon="1.8812930">
<ele>393.588257</ele>
<time>2022-09-08T09:35:38.003Z</time>
</trkpt>
<trkpt lat="41.9571740" lon="1.8813390">
<ele>393.191986</ele>
<time>2022-09-08T09:35:38.996Z</time>
</trkpt>
<trkpt lat="41.9571790" lon="1.8813790">
<ele>392.826263</ele>
<time>2022-09-08T09:35:39.998Z</time>
</trkpt>
<trkpt lat="41.9571840" lon="1.8814220">
<ele>392.369049</ele>
<time>2022-09-08T09:35:41.001Z</time>
</trkpt>
<trkpt lat="41.9571920" lon="1.8814670">
<ele>392.094727</ele>
<time>2022-09-08T09:35:42.003Z</time>
</trkpt>
<trkpt lat="41.9572030" lon="1.8815140">
<ele>391.972809</ele>
<time>2022-09-08T09:35:42.996Z</time>
</trkpt>
<trkpt lat="41.9572090" lon="1.8815610">
<ele>391.789917</ele>
<time>2022-09-08T09:35:43.999Z</time>
</trkpt>
<trkpt lat="41.9572130" lon="1.8816060">
<ele>391.576538</ele>
<time>2022-09-08T09:35:45.001Z</time>
</trkpt>
<trkpt lat="41.9572220" lon="1.8816480">
<ele>391.515594</ele>
<time>2022-09-08T09:35:46.003Z</time>
</trkpt>
<trkpt lat="41.9572270" lon="1.8816930">
<ele>391.363190</ele>
<time>2022-09-08T09:35:46.997Z</time>
</trkpt>
<trkpt lat="41.9572290" lon="1.8817390">
<ele>391.241272</ele>
<time>2022-09-08T09:35:47.999Z</time>
</trkpt>
<trkpt lat="41.9572330" lon="1.8817840">
<ele>391.149841</ele>
<time>2022-09-08T09:35:49.001Z</time>
</trkpt>
<trkpt lat="41.9572410" lon="1.8818290">
<ele>391.180328</ele>
<time>2022-09-08T09:35:50.004Z</time>
</trkpt>
<trkpt lat="41.9572490" lon="1.8818730">
<ele>391.241272</ele>
<time>2022-09-08T09:35:50.997Z</time>
</trkpt>
<trkpt lat="41.9572640" lon="1.8819220">
<ele>391.485138</ele>
<time>2022-09-08T09:35:51.999Z</time>
</trkpt>
<trkpt lat="41.9572780" lon="1.8819720">
<ele>391.728943</ele>
<time>2022-09-08T09:35:53.002Z</time>
</trkpt>
<trkpt lat="41.9572870" lon="1.8820220">
<ele>391.759460</ele>
<time>2022-09-08T09:35:54.004Z</time>
</trkpt>
<trkpt lat="41.9572980" lon="1.8820710">
<ele>391.881348</ele>
<time>2022-09-08T09:35:54.997Z</time>
</trkpt>
<trkpt lat="41.9573070" lon="1.8821190">
<ele>391.820404</ele>
<time>2022-09-08T09:35:56.000Z</time>
</trkpt>
<trkpt lat="41.9573120" lon="1.8821630">
<ele>391.789917</ele>
<time>2022-09-08T09:35:57.002Z</time>
</trkpt>
<trkpt lat="41.9573190" lon="1.8822050">
<ele>391.698486</ele>
<time>2022-09-08T09:35:58.004Z</time>
</trkpt>
<trkpt lat="41.9573280" lon="1.8822470">
<ele>391.820404</ele>
<time>2022-09-08T09:35:58.998Z</time>
</trkpt>
<trkpt lat="41.9573380" lon="1.8822910">
<ele>391.850861</ele>
<time>2022-09-08T09:36:00.000Z</time>
</trkpt>
<trkpt lat="41.9573460" lon="1.8823370">
<ele>392.003265</ele>
<time>2022-09-08T09:36:01.002Z</time>
</trkpt>
<trkpt lat="41.9573570" lon="1.8823770">
<ele>392.064270</ele>
<time>2022-09-08T09:36:01.996Z</time>
</trkpt>
<trkpt lat="41.9573670" lon="1.8824170">
<ele>392.247131</ele>
<time>2022-09-08T09:36:02.998Z</time>
</trkpt>
<trkpt lat="41.9573780" lon="1.8824550">
<ele>392.429993</ele>
<time>2022-09-08T09:36:04.000Z</time>
</trkpt>
<trkpt lat="41.9573950" lon="1.8824940">
<ele>392.704315</ele>
<time>2022-09-08T09:36:05.003Z</time>
</trkpt>
<trkpt lat="41.9574160" lon="1.8825270">
<ele>393.161530</ele>
<time>2022-09-08T09:36:05.996Z</time>
</trkpt>
<trkpt lat="41.9574420" lon="1.8825560">
<ele>393.740662</ele>
<time>2022-09-08T09:36:06.998Z</time>
</trkpt>
<trkpt lat="41.9574720" lon="1.8825730">
<ele>394.441681</ele>
<time>2022-09-08T09:36:08.001Z</time>
</trkpt>
<trkpt lat="41.9575010" lon="1.8825850">
<ele>395.051270</ele>
<time>2022-09-08T09:36:09.003Z</time>
</trkpt>
<trkpt lat="41.9575280" lon="1.8825920">
<ele>395.691345</ele>
<time>2022-09-08T09:36:09.996Z</time>
</trkpt>
<trkpt lat="41.9575570" lon="1.8825970">
<ele>396.392395</ele>
<time>2022-09-08T09:36:10.999Z</time>
</trkpt>
<trkpt lat="41.9575870" lon="1.8825950">
<ele>397.123932</ele>
<time>2022-09-08T09:36:12.001Z</time>
</trkpt>
<trkpt lat="41.9576190" lon="1.8825880">
<ele>397.855469</ele>
<time>2022-09-08T09:36:13.003Z</time>
</trkpt>
<trkpt lat="41.9576500" lon="1.8825820">
<ele>398.556458</ele>
<time>2022-09-08T09:36:13.997Z</time>
</trkpt>
<trkpt lat="41.9576770" lon="1.8825770">
<ele>399.166077</ele>
<time>2022-09-08T09:36:14.999Z</time>
</trkpt>
<trkpt lat="41.9577030" lon="1.8825700">
<ele>399.775665</ele>
<time>2022-09-08T09:36:16.001Z</time>
</trkpt>
<trkpt lat="41.9577330" lon="1.8825610">
<ele>400.446259</ele>
<time>2022-09-08T09:36:17.004Z</time>
</trkpt>
<trkpt lat="41.9577620" lon="1.8825520">
<ele>401.086334</ele>
<time>2022-09-08T09:36:17.997Z</time>
</trkpt>
<trkpt lat="41.9577900" lon="1.8825370">
<ele>401.695923</ele>
<time>2022-09-08T09:36:18.999Z</time>
</trkpt>
<trkpt lat="41.9578200" lon="1.8825130">
<ele>402.396942</ele>
<time>2022-09-08T09:36:20.002Z</time>
</trkpt>
<trkpt lat="41.9578470" lon="1.8825010">
<ele>402.945587</ele>
<time>2022-09-08T09:36:21.004Z</time>
</trkpt>
<trkpt lat="41.9578740" lon="1.8824800">
<ele>403.524719</ele>
<time>2022-09-08T09:36:21.997Z</time>
</trkpt>
<trkpt lat="41.9579010" lon="1.8824630">
<ele>404.042877</ele>
<time>2022-09-08T09:36:23.000Z</time>
</trkpt>
<trkpt lat="41.9579290" lon="1.8824470">
<ele>404.622009</ele>
<time>2022-09-08T09:36:24.002Z</time>
</trkpt>
<trkpt lat="41.9579570" lon="1.8824270">
<ele>405.384003</ele>
<time>2022-09-08T09:36:25.004Z</time>
</trkpt>
<trkpt lat="41.9579840" lon="1.8824130">
<ele>406.024078</ele>
<time>2022-09-08T09:36:25.998Z</time>
</trkpt>
<trkpt lat="41.9580110" lon="1.8823980">
<ele>406.633667</ele>
<time>2022-09-08T09:36:27.000Z</time>
</trkpt>
<trkpt lat="41.9580360" lon="1.8823720">
<ele>407.212799</ele>
<time>2022-09-08T09:36:28.002Z</time>
</trkpt>
<trkpt lat="41.9580790" lon="1.8822900">
<ele>408.614868</ele>
<time>2022-09-08T09:36:29.998Z</time>
</trkpt>
<trkpt lat="41.9580880" lon="1.8822410">
<ele>409.133057</ele>
<time>2022-09-08T09:36:31.000Z</time>
</trkpt>
<trkpt lat="41.9580950" lon="1.8821950">
<ele>409.620728</ele>
<time>2022-09-08T09:36:32.003Z</time>
</trkpt>
<trkpt lat="41.9581010" lon="1.8821500">
<ele>410.047455</ele>
<time>2022-09-08T09:36:32.996Z</time>
</trkpt>
<trkpt lat="41.9580990" lon="1.8821070">
<ele>410.382721</ele>
<time>2022-09-08T09:36:33.998Z</time>
</trkpt>
<trkpt lat="41.9580940" lon="1.8820680">
<ele>410.717987</ele>
<time>2022-09-08T09:36:35.001Z</time>
</trkpt>
<trkpt lat="41.9580870" lon="1.8820480">
<ele>410.809448</ele>
<time>2022-09-08T09:36:36.003Z</time>
</trkpt>
<trkpt lat="41.9580750" lon="1.8820200">
<ele>410.931335</ele>
<time>2022-09-08T09:36:36.996Z</time>
</trkpt>
<trkpt lat="41.9580630" lon="1.8819940">
<ele>410.931335</ele>
<time>2022-09-08T09:36:37.999Z</time>
</trkpt>
<trkpt lat="41.9580460" lon="1.8819820">
<ele>410.778931</ele>
<time>2022-09-08T09:36:39.001Z</time>
</trkpt>
<trkpt lat="41.9580100" lon="1.8819740">
<ele>410.199860</ele>
<time>2022-09-08T09:36:40.003Z</time>
</trkpt>
</trkseg>
</trk>
</gpx>
